<?xml version='1.0' encoding='UTF-8'?><gpx version="1.1" creator="JPX - https://github.com/jenetics/jpx" xmlns="http://www.topografix.com/GPX/1/1"><trk><trkseg><trkpt lat="45.57470028968664" lon="9.246674436011313"><ele>165.0</ele><time>2026-04-04T08:53:45Z</time></trkpt><trkpt lat="45.57477100303552" lon="9.246664461328123"><ele>165.0</ele><time>2026-04-04T08:53:46Z</time></trkpt><trkpt lat="45.5748429181529" lon="9.24670322552015"><ele>165.0</ele><time>2026-04-04T08:53:47Z</time></trkpt><trkpt lat="45.574923960406046" lon="9.246696478981383"><ele>165.0</ele><time>2026-04-04T08:53:48Z</time></trkpt><trkpt lat="45.57502111079633" lon="9.246687654635375"><ele>165.0</ele><time>2026-04-04T08:53:49Z</time></trkpt><trkpt lat="45.575120754499245" lon="9.24663953988559"><ele>165.0</ele><time>2026-04-04T08:53:50Z</time></trkpt><trkpt lat="45.57521807534314" lon="9.246630336068"><ele>165.0</ele><time>2026-04-04T08:53:51Z</time></trkpt><trkpt lat="45.57531073751829" lon="9.246624390256661"><ele>165.0</ele><time>2026-04-04T08:53:51.999Z</time></trkpt><trkpt lat="45.57540053838945" lon="9.24661844691401"><ele>165.0</ele><time>2026-04-04T08:53:52.999Z</time></trkpt><trkpt lat="45.57547723498718" lon="9.24660950607646"><ele>165.0</ele><time>2026-04-04T08:53:53.999Z</time></trkpt><trkpt lat="45.57560014498016" lon="9.246595788817494"><ele>165.0</ele><time>2026-04-04T08:53:55.999Z</time></trkpt><trkpt lat="45.57571781179283" lon="9.246579175832318"><ele>165.0</ele><time>2026-04-04T08:53:57.999Z</time></trkpt><trkpt lat="45.575824854255934" lon="9.24661036558583"><ele>165.0</ele><time>2026-04-04T08:53:59.999Z</time></trkpt><trkpt lat="45.57591877850981" lon="9.246582904139975"><ele>165.0</ele><time>2026-04-04T08:54:01.999Z</time></trkpt><trkpt lat="45.57599506442425" lon="9.246594689937627"><ele>165.0</ele><time>2026-04-04T08:54:24.999Z</time></trkpt><trkpt lat="45.57609273551942" lon="9.246613264693984"><ele>165.0</ele><time>2026-04-04T08:54:26.999Z</time></trkpt><trkpt lat="45.57611645022087" lon="9.246763681448659"><ele>165.0</ele><time>2026-04-04T08:54:27.999Z</time></trkpt><trkpt lat="45.576146049804805" lon="9.24692143710533"><ele>165.0</ele><time>2026-04-04T08:54:29.999Z</time></trkpt><trkpt lat="45.57618326014991" lon="9.247085360534118"><ele>165.0</ele><time>2026-04-04T08:54:31.999Z</time></trkpt><trkpt lat="45.576218440468324" lon="9.247249695136556"><ele>165.0</ele><time>2026-04-04T08:54:33.999Z</time></trkpt><trkpt lat="45.57625317706224" lon="9.247402589110198"><ele>164.66666666666666</ele><time>2026-04-04T08:54:35.999Z</time></trkpt><trkpt lat="45.576276357054596" lon="9.247508864883901"><ele>164.33333333333334</ele><time>2026-04-04T08:54:37.999Z</time></trkpt><trkpt lat="45.576297828704575" lon="9.247596442331238"><ele>164.0</ele><time>2026-04-04T08:54:39.999Z</time></trkpt><trkpt lat="45.576333319312205" lon="9.247713444546882"><ele>163.66666666666669</ele><time>2026-04-04T08:55:25Z</time></trkpt><trkpt lat="45.57636467428814" lon="9.247864543942557"><ele>163.33333333333334</ele><time>2026-04-04T08:55:27Z</time></trkpt><trkpt lat="45.57637129017264" lon="9.24795626354338"><ele>163.0</ele><time>2026-04-04T08:55:28Z</time></trkpt><trkpt lat="45.57651578498407" lon="9.24807391182527"><ele>163.0</ele><time>2026-04-04T08:55:30Z</time></trkpt><trkpt lat="45.57660246881836" lon="9.24812325600634"><ele>163.0</ele><time>2026-04-04T08:55:31Z</time></trkpt><trkpt lat="45.57669218547158" lon="9.2481638082531"><ele>163.0</ele><time>2026-04-04T08:55:32Z</time></trkpt><trkpt lat="45.57679256380659" lon="9.248203929557945"><ele>163.0</ele><time>2026-04-04T08:55:33Z</time></trkpt><trkpt lat="45.576900540106735" lon="9.248249073294529"><ele>163.0</ele><time>2026-04-04T08:55:34Z</time></trkpt><trkpt lat="45.57701756550843" lon="9.248299697919299"><ele>163.0</ele><time>2026-04-04T08:55:35Z</time></trkpt><trkpt lat="45.57713880884087" lon="9.24835283544727"><ele>163.0</ele><time>2026-04-04T08:55:36Z</time></trkpt><trkpt lat="45.5772605051818" lon="9.248403398461043"><ele>163.0</ele><time>2026-04-04T08:55:37Z</time></trkpt><trkpt lat="45.57738543747939" lon="9.248447498346579"><ele>163.0</ele><time>2026-04-04T08:55:38Z</time></trkpt><trkpt lat="45.57751462138008" lon="9.248493304652493"><ele>163.0</ele><time>2026-04-04T08:55:39Z</time></trkpt><trkpt lat="45.57764409704301" lon="9.248541774105751"><ele>163.0</ele><time>2026-04-04T08:55:40Z</time></trkpt><trkpt lat="45.57777248574612" lon="9.248592221734048"><ele>163.0</ele><time>2026-04-04T08:55:41Z</time></trkpt><trkpt lat="45.5778987213599" lon="9.24864448807514"><ele>163.0</ele><time>2026-04-04T08:55:42Z</time></trkpt><trkpt lat="45.57802010170243" lon="9.24869485531722"><ele>163.75</ele><time>2026-04-04T08:55:43Z</time></trkpt><trkpt lat="45.57814093677311" lon="9.248744800475832"><ele>164.5</ele><time>2026-04-04T08:55:44Z</time></trkpt><trkpt lat="45.578258519915536" lon="9.248791477813912"><ele>165.25</ele><time>2026-04-04T08:55:45Z</time></trkpt><trkpt lat="45.578377187869535" lon="9.248836799949919"><ele>166.0</ele><time>2026-04-04T08:55:46Z</time></trkpt><trkpt lat="45.57849861521513" lon="9.248884686262958"><ele>166.0</ele><time>2026-04-04T08:55:46.999Z</time></trkpt><trkpt lat="45.57862135051876" lon="9.248937020883808"><ele>166.0</ele><time>2026-04-04T08:55:47.999Z</time></trkpt><trkpt lat="45.57873956815312" lon="9.248989773943677"><ele>166.0</ele><time>2026-04-04T08:55:48.999Z</time></trkpt><trkpt lat="45.57885982531314" lon="9.249046788259735"><ele>166.0</ele><time>2026-04-04T08:55:49.999Z</time></trkpt><trkpt lat="45.578982191602066" lon="9.249105715283878"><ele>166.5</ele><time>2026-04-04T08:55:50.999Z</time></trkpt><trkpt lat="45.57909361978919" lon="9.249163477958216"><ele>167.0</ele><time>2026-04-04T08:55:51.999Z</time></trkpt><trkpt lat="45.57919646093832" lon="9.249215033585646"><ele>167.5</ele><time>2026-04-04T08:55:52.999Z</time></trkpt><trkpt lat="45.579311138173985" lon="9.24924586842064"><ele>168.0</ele><time>2026-04-04T08:55:53.999Z</time></trkpt><trkpt lat="45.57943236819963" lon="9.249295669018585"><ele>168.0</ele><time>2026-04-04T08:55:54.999Z</time></trkpt><trkpt lat="45.57955515851532" lon="9.249367041512194"><ele>168.0</ele><time>2026-04-04T08:55:55.999Z</time></trkpt><trkpt lat="45.57968348114898" lon="9.249415747429177"><ele>168.0</ele><time>2026-04-04T08:55:56.999Z</time></trkpt><trkpt lat="45.57981271397165" lon="9.249453788891575"><ele>168.0</ele><time>2026-04-04T08:55:57.999Z</time></trkpt><trkpt lat="45.5799302568611" lon="9.24948351832947"><ele>168.0</ele><time>2026-04-04T08:55:58.999Z</time></trkpt><trkpt lat="45.58004363167729" lon="9.249517652616912"><ele>168.0</ele><time>2026-04-04T08:55:59.999Z</time></trkpt><trkpt lat="45.580156199316406" lon="9.249562934802384"><ele>168.0</ele><time>2026-04-04T08:56:00.999Z</time></trkpt><trkpt lat="45.58027993308662" lon="9.249621596666497"><ele>168.0</ele><time>2026-04-04T08:56:01.999Z</time></trkpt><trkpt lat="45.58039431860543" lon="9.24967101169789"><ele>168.0</ele><time>2026-04-04T08:56:02.999Z</time></trkpt><trkpt lat="45.580485917066866" lon="9.249711512645783"><ele>168.0</ele><time>2026-04-04T08:56:03.999Z</time></trkpt><trkpt lat="45.5805805215978" lon="9.249745313041716"><ele>168.0</ele><time>2026-04-04T08:56:04.999Z</time></trkpt><trkpt lat="45.58067508875909" lon="9.249784217175513"><ele>168.0</ele><time>2026-04-04T08:56:05.999Z</time></trkpt><trkpt lat="45.58076973288508" lon="9.249827824476414"><ele>168.0</ele><time>2026-04-04T08:56:06.999Z</time></trkpt><trkpt lat="45.5808642159277" lon="9.249872737439784"><ele>168.0</ele><time>2026-04-04T08:56:07.999Z</time></trkpt><trkpt lat="45.580969018565646" lon="9.249917737585765"><ele>168.0</ele><time>2026-04-04T08:56:08.999Z</time></trkpt><trkpt lat="45.5810650871389" lon="9.249956837010126"><ele>168.0</ele><time>2026-04-04T08:56:09.999Z</time></trkpt><trkpt lat="45.5811474144252" lon="9.24999121512453"><ele>168.0</ele><time>2026-04-04T08:56:10.999Z</time></trkpt><trkpt lat="45.58121438330298" lon="9.250019055962781"><ele>168.0</ele><time>2026-04-04T08:56:11.999Z</time></trkpt><trkpt lat="45.58132093185303" lon="9.250065568530571"><ele>168.0</ele><time>2026-04-04T08:56:13.999Z</time></trkpt><trkpt lat="45.581403532930665" lon="9.250106419563789"><ele>168.0</ele><time>2026-04-04T08:56:15.999Z</time></trkpt><trkpt lat="45.58151447461687" lon="9.250136112750459"><ele>168.0</ele><time>2026-04-04T08:57:01.998Z</time></trkpt><trkpt lat="45.58158289551576" lon="9.250165493465085"><ele>168.0</ele><time>2026-04-04T08:57:02.998Z</time></trkpt><trkpt lat="45.581659750783906" lon="9.250198351653136"><ele>168.0</ele><time>2026-04-04T08:57:03.998Z</time></trkpt><trkpt lat="45.58175022425739" lon="9.250239461670093"><ele>168.0</ele><time>2026-04-04T08:57:04.998Z</time></trkpt><trkpt lat="45.581887441847115" lon="9.250302691659767"><ele>167.75</ele><time>2026-04-04T08:57:05.998Z</time></trkpt><trkpt lat="45.58201573135841" lon="9.250361385321211"><ele>167.5</ele><time>2026-04-04T08:57:06.998Z</time></trkpt><trkpt lat="45.58214757000677" lon="9.25042021412832"><ele>167.25</ele><time>2026-04-04T08:57:07.998Z</time></trkpt><trkpt lat="45.58228888748338" lon="9.25047980119344"><ele>167.0</ele><time>2026-04-04T08:57:08.998Z</time></trkpt><trkpt lat="45.58244272356671" lon="9.25053963652309"><ele>167.0</ele><time>2026-04-04T08:57:09.998Z</time></trkpt><trkpt lat="45.582606871499195" lon="9.25060819734111"><ele>167.0</ele><time>2026-04-04T08:57:10.998Z</time></trkpt><trkpt lat="45.58277636850028" lon="9.250680986746849"><ele>167.0</ele><time>2026-04-04T08:57:11.998Z</time></trkpt><trkpt lat="45.5829505786502" lon="9.250750232843256"><ele>167.66666666666666</ele><time>2026-04-04T08:57:12.998Z</time></trkpt><trkpt lat="45.583124615324465" lon="9.250812660056214"><ele>168.33333333333334</ele><time>2026-04-04T08:57:13.998Z</time></trkpt><trkpt lat="45.58330196090521" lon="9.25087266747315"><ele>169.0</ele><time>2026-04-04T08:57:15Z</time></trkpt><trkpt lat="45.58348392089229" lon="9.250931141100947"><ele>169.0</ele><time>2026-04-04T08:57:16Z</time></trkpt><trkpt lat="45.58366732337984" lon="9.250982654818504"><ele>169.0</ele><time>2026-04-04T08:57:17Z</time></trkpt><trkpt lat="45.58383959186871" lon="9.251032945848753"><ele>169.0</ele><time>2026-04-04T08:57:18Z</time></trkpt><trkpt lat="45.58398763063778" lon="9.251101928181242"><ele>169.0</ele><time>2026-04-04T08:57:19Z</time></trkpt><trkpt lat="45.58411197651985" lon="9.251216091349704"><ele>169.0</ele><time>2026-04-04T08:57:20Z</time></trkpt><trkpt lat="45.584180593921566" lon="9.251411310771305"><ele>169.0</ele><time>2026-04-04T08:57:21Z</time></trkpt><trkpt lat="45.584287468274205" lon="9.251507128225938"><ele>169.0</ele><time>2026-04-04T08:57:22Z</time></trkpt><trkpt lat="45.58438623221536" lon="9.251598718472271"><ele>169.0</ele><time>2026-04-04T08:57:23Z</time></trkpt><trkpt lat="45.5844998381398" lon="9.251642929607389"><ele>169.0</ele><time>2026-04-04T08:57:24Z</time></trkpt><trkpt lat="45.584610823660256" lon="9.251642284769993"><ele>169.0</ele><time>2026-04-04T08:57:25Z</time></trkpt><trkpt lat="45.58471486443704" lon="9.251596416627992"><ele>169.0</ele><time>2026-04-04T08:57:26Z</time></trkpt><trkpt lat="45.58480458313361" lon="9.251511925596947"><ele>169.0</ele><time>2026-04-04T08:57:27Z</time></trkpt><trkpt lat="45.58486340774812" lon="9.251389647476264"><ele>169.0</ele><time>2026-04-04T08:57:28Z</time></trkpt><trkpt lat="45.58489885115516" lon="9.25123974775962"><ele>169.0</ele><time>2026-04-04T08:57:29Z</time></trkpt><trkpt lat="45.58492628682672" lon="9.251067256110534"><ele>169.0</ele><time>2026-04-04T08:57:30Z</time></trkpt><trkpt lat="45.584989037109615" lon="9.250914948831957"><ele>169.0</ele><time>2026-04-04T08:57:31Z</time></trkpt><trkpt lat="45.585100404776256" lon="9.25081667158921"><ele>169.0</ele><time>2026-04-04T08:57:32Z</time></trkpt><trkpt lat="45.58524886562818" lon="9.250757076065115"><ele>169.0</ele><time>2026-04-04T08:57:33Z</time></trkpt><trkpt lat="45.58542935654908" lon="9.250690506403462"><ele>169.0</ele><time>2026-04-04T08:57:34Z</time></trkpt><trkpt lat="45.58560618599206" lon="9.250595174320768"><ele>169.66666666666669</ele><time>2026-04-04T08:57:35Z</time></trkpt><trkpt lat="45.58578980032467" lon="9.25046291311624"><ele>170.33333333333334</ele><time>2026-04-04T08:57:36Z</time></trkpt><trkpt lat="45.585983136233914" lon="9.250310117916474"><ele>171.0</ele><time>2026-04-04T08:57:37Z</time></trkpt><trkpt lat="45.58618552649521" lon="9.250142804170997"><ele>171.5</ele><time>2026-04-04T08:57:38Z</time></trkpt><trkpt lat="45.58638517594729" lon="9.249954500000106"><ele>172.0</ele><time>2026-04-04T08:57:39Z</time></trkpt><trkpt lat="45.58658036148953" lon="9.249771495043216"><ele>172.0</ele><time>2026-04-04T08:57:40Z</time></trkpt><trkpt lat="45.586766628137234" lon="9.24956149002997"><ele>172.0</ele><time>2026-04-04T08:57:41Z</time></trkpt><trkpt lat="45.586988223757146" lon="9.249416325490344"><ele>173.0</ele><time>2026-04-04T08:57:42Z</time></trkpt><trkpt lat="45.58718655272815" lon="9.249239691727091"><ele>174.0</ele><time>2026-04-04T08:57:43Z</time></trkpt><trkpt lat="45.5873896318045" lon="9.24906216558553"><ele>173.5</ele><time>2026-04-04T08:57:44Z</time></trkpt><trkpt lat="45.587595574713774" lon="9.248884508202863"><ele>173.0</ele><time>2026-04-04T08:57:45Z</time></trkpt><trkpt lat="45.587803464375185" lon="9.248715016988212"><ele>173.0</ele><time>2026-04-04T08:57:46Z</time></trkpt><trkpt lat="45.588014381157706" lon="9.248542853934717"><ele>173.0</ele><time>2026-04-04T08:57:47Z</time></trkpt><trkpt lat="45.58821997640893" lon="9.248372011312389"><ele>173.0</ele><time>2026-04-04T08:57:48Z</time></trkpt><trkpt lat="45.588424087671164" lon="9.248199319826737"><ele>173.0</ele><time>2026-04-04T08:57:49Z</time></trkpt><trkpt lat="45.588629989957155" lon="9.248022209920808"><ele>173.5</ele><time>2026-04-04T08:57:49.999Z</time></trkpt><trkpt lat="45.58883637988718" lon="9.247849022302466"><ele>174.0</ele><time>2026-04-04T08:57:50.999Z</time></trkpt><trkpt lat="45.589047096162005" lon="9.247671698935376"><ele>174.0</ele><time>2026-04-04T08:57:51.999Z</time></trkpt><trkpt lat="45.589257482599365" lon="9.24749925451072"><ele>174.0</ele><time>2026-04-04T08:57:52.999Z</time></trkpt><trkpt lat="45.58946795671074" lon="9.247331250060663"><ele>175.0</ele><time>2026-04-04T08:57:53.999Z</time></trkpt><trkpt lat="45.58968218116862" lon="9.247160879449417"><ele>176.0</ele><time>2026-04-04T08:57:54.999Z</time></trkpt><trkpt lat="45.58989420651762" lon="9.246997792610557"><ele>176.0</ele><time>2026-04-04T08:57:55.999Z</time></trkpt><trkpt lat="45.59010381505076" lon="9.246845652544936"><ele>176.0</ele><time>2026-04-04T08:57:56.999Z</time></trkpt><trkpt lat="45.590311072447825" lon="9.24669773124919"><ele>176.0</ele><time>2026-04-04T08:57:57.999Z</time></trkpt><trkpt lat="45.59050576228739" lon="9.246554025769397"><ele>176.0</ele><time>2026-04-04T08:57:58.999Z</time></trkpt><trkpt lat="45.590694963544685" lon="9.246414364286949"><ele>176.0</ele><time>2026-04-04T08:57:59.999Z</time></trkpt><trkpt lat="45.590887342178654" lon="9.246278780173979"><ele>176.0</ele><time>2026-04-04T08:58:00.999Z</time></trkpt><trkpt lat="45.59108091367659" lon="9.246152519039892"><ele>176.0</ele><time>2026-04-04T08:58:01.999Z</time></trkpt><trkpt lat="45.591278016364015" lon="9.246027022894502"><ele>176.0</ele><time>2026-04-04T08:58:02.999Z</time></trkpt><trkpt lat="45.591474567573385" lon="9.245895556321834"><ele>177.0</ele><time>2026-04-04T08:58:03.999Z</time></trkpt><trkpt lat="45.59168109658821" lon="9.24575765660769"><ele>178.0</ele><time>2026-04-04T08:58:04.999Z</time></trkpt><trkpt lat="45.591892520786814" lon="9.245634426925905"><ele>177.5</ele><time>2026-04-04T08:58:05.999Z</time></trkpt><trkpt lat="45.59210882740037" lon="9.24550919630501"><ele>177.0</ele><time>2026-04-04T08:58:06.999Z</time></trkpt><trkpt lat="45.592331322033665" lon="9.24538226927739"><ele>177.0</ele><time>2026-04-04T08:58:07.999Z</time></trkpt><trkpt lat="45.59256402690558" lon="9.245248773425342"><ele>177.0</ele><time>2026-04-04T08:58:08.999Z</time></trkpt><trkpt lat="45.59279888545427" lon="9.245114864369258"><ele>177.0</ele><time>2026-04-04T08:58:09.999Z</time></trkpt><trkpt lat="45.59303543778047" lon="9.244970802678136"><ele>177.0</ele><time>2026-04-04T08:58:10.999Z</time></trkpt><trkpt lat="45.59328235678562" lon="9.244834358363212"><ele>176.0</ele><time>2026-04-04T08:58:11.999Z</time></trkpt><trkpt lat="45.593529421168796" lon="9.24469734059994"><ele>175.0</ele><time>2026-04-04T08:58:12.999Z</time></trkpt><trkpt lat="45.59377089328693" lon="9.244550143951729"><ele>175.0</ele><time>2026-04-04T08:58:13.999Z</time></trkpt><trkpt lat="45.59401034406476" lon="9.244389628487708"><ele>175.0</ele><time>2026-04-04T08:58:14.999Z</time></trkpt><trkpt lat="45.59425610448245" lon="9.24425274087466"><ele>175.0</ele><time>2026-04-04T08:58:15.999Z</time></trkpt><trkpt lat="45.59450344865224" lon="9.244117762546546"><ele>175.0</ele><time>2026-04-04T08:58:16.999Z</time></trkpt><trkpt lat="45.59475771464823" lon="9.243974874261655"><ele>177.0</ele><time>2026-04-04T08:58:17.999Z</time></trkpt><trkpt lat="45.59500742810018" lon="9.243830953039291"><ele>179.0</ele><time>2026-04-04T08:58:18.999Z</time></trkpt><trkpt lat="45.5952457899386" lon="9.24369356710371"><ele>179.5</ele><time>2026-04-04T08:58:19.999Z</time></trkpt><trkpt lat="45.59548961660107" lon="9.243552159098554"><ele>180.0</ele><time>2026-04-04T08:58:20.999Z</time></trkpt><trkpt lat="45.59573854089271" lon="9.243408521170451"><ele>180.0</ele><time>2026-04-04T08:58:21.999Z</time></trkpt><trkpt lat="45.595985703997954" lon="9.243268145374158"><ele>180.0</ele><time>2026-04-04T08:58:22.999Z</time></trkpt><trkpt lat="45.5962315465196" lon="9.24312378337377"><ele>179.0</ele><time>2026-04-04T08:58:23.999Z</time></trkpt><trkpt lat="45.59645349058609" lon="9.242992391639238"><ele>178.0</ele><time>2026-04-04T08:58:24.999Z</time></trkpt><trkpt lat="45.59667661103717" lon="9.242856570337333"><ele>178.0</ele><time>2026-04-04T08:58:25.999Z</time></trkpt><trkpt lat="45.59689898411458" lon="9.242699286414068"><ele>178.0</ele><time>2026-04-04T08:58:26.999Z</time></trkpt><trkpt lat="45.59710385464282" lon="9.242525142639805"><ele>179.0</ele><time>2026-04-04T08:58:27.999Z</time></trkpt><trkpt lat="45.59729443190056" lon="9.242332872316826"><ele>180.0</ele><time>2026-04-04T08:58:28.999Z</time></trkpt><trkpt lat="45.59747298648608" lon="9.242119160262034"><ele>180.0</ele><time>2026-04-04T08:58:29.999Z</time></trkpt><trkpt lat="45.59764258248058" lon="9.241886144511945"><ele>180.0</ele><time>2026-04-04T08:58:30.999Z</time></trkpt><trkpt lat="45.59780288321066" lon="9.24163490301361"><ele>180.5</ele><time>2026-04-04T08:58:31.999Z</time></trkpt><trkpt lat="45.59795538414815" lon="9.241359404399512"><ele>181.0</ele><time>2026-04-04T08:58:32.999Z</time></trkpt><trkpt lat="45.59810069371845" lon="9.241069635707314"><ele>181.0</ele><time>2026-04-04T08:58:33.999Z</time></trkpt><trkpt lat="45.59823550275138" lon="9.240766945502907"><ele>181.0</ele><time>2026-04-04T08:58:34.999Z</time></trkpt><trkpt lat="45.59835429001119" lon="9.240442702540372"><ele>181.0</ele><time>2026-04-04T08:58:35.999Z</time></trkpt><trkpt lat="45.598464706761774" lon="9.240100914717493"><ele>181.0</ele><time>2026-04-04T08:58:36.999Z</time></trkpt><trkpt lat="45.59857149593205" lon="9.239748086331506"><ele>181.0</ele><time>2026-04-04T08:58:37.999Z</time></trkpt><trkpt lat="45.59868587312476" lon="9.239385234179416"><ele>181.0</ele><time>2026-04-04T08:58:38.999Z</time></trkpt><trkpt lat="45.59880260167351" lon="9.239017728586195"><ele>180.5</ele><time>2026-04-04T08:58:39.999Z</time></trkpt><trkpt lat="45.598916808973726" lon="9.238651695621643"><ele>180.0</ele><time>2026-04-04T08:58:40.999Z</time></trkpt><trkpt lat="45.59903042146954" lon="9.238283976561249"><ele>180.0</ele><time>2026-04-04T08:58:41.999Z</time></trkpt><trkpt lat="45.599143376187335" lon="9.237907186050723"><ele>180.0</ele><time>2026-04-04T08:58:42.999Z</time></trkpt><trkpt lat="45.59925349054744" lon="9.237534024924772"><ele>180.0</ele><time>2026-04-04T08:58:43.999Z</time></trkpt><trkpt lat="45.59936257604067" lon="9.237151109926748"><ele>180.0</ele><time>2026-04-04T08:58:44.999Z</time></trkpt><trkpt lat="45.59947139544705" lon="9.23676857679598"><ele>182.0</ele><time>2026-04-04T08:58:45.999Z</time></trkpt><trkpt lat="45.59957802173048" lon="9.236380825398205"><ele>184.0</ele><time>2026-04-04T08:58:46.999Z</time></trkpt><trkpt lat="45.59968486250311" lon="9.235988268203215"><ele>183.5</ele><time>2026-04-04T08:58:47.999Z</time></trkpt><trkpt lat="45.59979367012609" lon="9.235598170455978"><ele>183.0</ele><time>2026-04-04T08:58:48.999Z</time></trkpt><trkpt lat="45.599900678563074" lon="9.23521347109605"><ele>183.0</ele><time>2026-04-04T08:58:49.999Z</time></trkpt><trkpt lat="45.60000395457079" lon="9.234841003735566"><ele>183.0</ele><time>2026-04-04T08:58:50.999Z</time></trkpt><trkpt lat="45.60010248624515" lon="9.234489952521413"><ele>183.0</ele><time>2026-04-04T08:58:51.999Z</time></trkpt><trkpt lat="45.60020631480178" lon="9.23413624616536"><ele>183.0</ele><time>2026-04-04T08:58:52.999Z</time></trkpt><trkpt lat="45.60033337599125" lon="9.233795237099223"><ele>184.0</ele><time>2026-04-04T08:58:53.999Z</time></trkpt><trkpt lat="45.60048024449019" lon="9.233462948389986"><ele>185.0</ele><time>2026-04-04T08:58:54.999Z</time></trkpt><trkpt lat="45.60063914246277" lon="9.233151369175689"><ele>186.5</ele><time>2026-04-04T08:58:55.999Z</time></trkpt><trkpt lat="45.60080807378894" lon="9.232849528728039"><ele>188.0</ele><time>2026-04-04T08:58:56.999Z</time></trkpt><trkpt lat="45.60100000407021" lon="9.232552916688933"><ele>185.0</ele><time>2026-04-04T08:58:57.999Z</time></trkpt><trkpt lat="45.60121224971613" lon="9.232262087457588"><ele>182.0</ele><time>2026-04-04T08:58:58.999Z</time></trkpt><trkpt lat="45.601448226670875" lon="9.231986650211441"><ele>182.0</ele><time>2026-04-04T08:58:59.999Z</time></trkpt><trkpt lat="45.60171031255431" lon="9.23173028480324"><ele>182.0</ele><time>2026-04-04T08:59:00.999Z</time></trkpt><trkpt lat="45.60199260666993" lon="9.231457502666695"><ele>183.0</ele><time>2026-04-04T08:59:01.998Z</time></trkpt><trkpt lat="45.60227389781483" lon="9.231152238859407"><ele>184.0</ele><time>2026-04-04T08:59:02.998Z</time></trkpt><trkpt lat="45.602556816554696" lon="9.230818476570196"><ele>184.0</ele><time>2026-04-04T08:59:03.998Z</time></trkpt><trkpt lat="45.60283185172155" lon="9.230489858926974"><ele>184.0</ele><time>2026-04-04T08:59:04.998Z</time></trkpt><trkpt lat="45.6030963777751" lon="9.230184680682159"><ele>184.0</ele><time>2026-04-04T08:59:05.998Z</time></trkpt><trkpt lat="45.603348875436666" lon="9.229901911476002"><ele>184.0</ele><time>2026-04-04T08:59:06.998Z</time></trkpt><trkpt lat="45.603593898250864" lon="9.229629649308176"><ele>184.5</ele><time>2026-04-04T08:59:07.998Z</time></trkpt><trkpt lat="45.60383723626909" lon="9.229357687935575"><ele>185.0</ele><time>2026-04-04T08:59:08.998Z</time></trkpt><trkpt lat="45.60407766988579" lon="9.229087411504606"><ele>185.0</ele><time>2026-04-04T08:59:09.998Z</time></trkpt><trkpt lat="45.604316182828725" lon="9.228816117229865"><ele>185.0</ele><time>2026-04-04T08:59:10.998Z</time></trkpt><trkpt lat="45.604555583221135" lon="9.228546083007027"><ele>185.5</ele><time>2026-04-04T08:59:11.998Z</time></trkpt><trkpt lat="45.60478659577162" lon="9.228287017795385"><ele>186.0</ele><time>2026-04-04T08:59:12.998Z</time></trkpt><trkpt lat="45.60500585839663" lon="9.228045475081174"><ele>186.5</ele><time>2026-04-04T08:59:13.998Z</time></trkpt><trkpt lat="45.605209199904856" lon="9.227815945581845"><ele>187.0</ele><time>2026-04-04T08:59:14.998Z</time></trkpt><trkpt lat="45.605404146287505" lon="9.227597217787052"><ele>187.5</ele><time>2026-04-04T08:59:15.998Z</time></trkpt><trkpt lat="45.605591829631464" lon="9.227386070984828"><ele>188.0</ele><time>2026-04-04T08:59:16.998Z</time></trkpt><trkpt lat="45.60578159298734" lon="9.227172176956007"><ele>188.5</ele><time>2026-04-04T08:59:17.998Z</time></trkpt><trkpt lat="45.605973440553065" lon="9.22695242341862"><ele>189.0</ele><time>2026-04-04T08:59:18.998Z</time></trkpt><trkpt lat="45.606167101556935" lon="9.22674065376927"><ele>189.0</ele><time>2026-04-04T08:59:19.998Z</time></trkpt><trkpt lat="45.60636025273545" lon="9.22652686358227"><ele>189.0</ele><time>2026-04-04T08:59:21Z</time></trkpt><trkpt lat="45.60654224085331" lon="9.226322171354434"><ele>188.66666666666666</ele><time>2026-04-04T08:59:22Z</time></trkpt><trkpt lat="45.606713655722906" lon="9.226119254693918"><ele>188.33333333333331</ele><time>2026-04-04T08:59:23Z</time></trkpt><trkpt lat="45.60688436975263" lon="9.225926026999282"><ele>188.0</ele><time>2026-04-04T08:59:24Z</time></trkpt><trkpt lat="45.607060236668964" lon="9.225734176334864"><ele>187.33333333333331</ele><time>2026-04-04T08:59:25Z</time></trkpt><trkpt lat="45.60723384343075" lon="9.22553811984815"><ele>186.66666666666666</ele><time>2026-04-04T08:59:26Z</time></trkpt><trkpt lat="45.60741258678683" lon="9.225342711434662"><ele>186.0</ele><time>2026-04-04T08:59:27Z</time></trkpt><trkpt lat="45.607600152107686" lon="9.225146585402012"><ele>186.0</ele><time>2026-04-04T08:59:28Z</time></trkpt><trkpt lat="45.60777864934384" lon="9.22495849993496"><ele>186.0</ele><time>2026-04-04T08:59:29Z</time></trkpt><trkpt lat="45.60794446057051" lon="9.224768335003493"><ele>186.0</ele><time>2026-04-04T08:59:30Z</time></trkpt><trkpt lat="45.60810940121801" lon="9.224572074348679"><ele>186.66666666666666</ele><time>2026-04-04T08:59:31Z</time></trkpt><trkpt lat="45.60827753854021" lon="9.224398476647588"><ele>187.33333333333331</ele><time>2026-04-04T08:59:32Z</time></trkpt><trkpt lat="45.60846883361586" lon="9.22424492437623"><ele>188.0</ele><time>2026-04-04T08:59:33Z</time></trkpt><trkpt lat="45.608683531499324" lon="9.224101034934343"><ele>189.5</ele><time>2026-04-04T08:59:34Z</time></trkpt><trkpt lat="45.60892540778398" lon="9.223966450138064"><ele>191.0</ele><time>2026-04-04T08:59:35Z</time></trkpt><trkpt lat="45.60918619600344" lon="9.223861373639062"><ele>191.0</ele><time>2026-04-04T08:59:36Z</time></trkpt><trkpt lat="45.60945937550825" lon="9.223787472446423"><ele>191.0</ele><time>2026-04-04T08:59:37Z</time></trkpt><trkpt lat="45.609748086457174" lon="9.223734027952522"><ele>191.5</ele><time>2026-04-04T08:59:38Z</time></trkpt><trkpt lat="45.610030378995575" lon="9.223709463521061"><ele>192.0</ele><time>2026-04-04T08:59:39Z</time></trkpt><trkpt lat="45.61030434925638" lon="9.22372872986534"><ele>191.5</ele><time>2026-04-04T08:59:40Z</time></trkpt><trkpt lat="45.61057171046275" lon="9.223758352560559"><ele>191.0</ele><time>2026-04-04T08:59:41Z</time></trkpt><trkpt lat="45.61082632878779" lon="9.223786041054662"><ele>191.0</ele><time>2026-04-04T08:59:42Z</time></trkpt><trkpt lat="45.611078885201785" lon="9.22380658258981"><ele>191.0</ele><time>2026-04-04T08:59:43Z</time></trkpt><trkpt lat="45.61132551650978" lon="9.223819374349967"><ele>191.5</ele><time>2026-04-04T08:59:44Z</time></trkpt><trkpt lat="45.61156332982329" lon="9.223833298785708"><ele>192.0</ele><time>2026-04-04T08:59:45Z</time></trkpt><trkpt lat="45.61179686829089" lon="9.223846374967101"><ele>191.5</ele><time>2026-04-04T08:59:46Z</time></trkpt><trkpt lat="45.612031857399394" lon="9.22385642034787"><ele>191.0</ele><time>2026-04-04T08:59:47Z</time></trkpt><trkpt lat="45.61226108788932" lon="9.223866707457809"><ele>191.0</ele><time>2026-04-04T08:59:48Z</time></trkpt><trkpt lat="45.61248997516644" lon="9.223878638128944"><ele>191.0</ele><time>2026-04-04T08:59:49Z</time></trkpt><trkpt lat="45.61272384912826" lon="9.223890577409234"><ele>192.0</ele><time>2026-04-04T08:59:50Z</time></trkpt><trkpt lat="45.61295710915534" lon="9.223904523809066"><ele>193.0</ele><time>2026-04-04T08:59:51Z</time></trkpt><trkpt lat="45.61319547587107" lon="9.22391673822483"><ele>193.0</ele><time>2026-04-04T08:59:52Z</time></trkpt><trkpt lat="45.61343687253671" lon="9.223925181680345"><ele>193.0</ele><time>2026-04-04T08:59:53Z</time></trkpt><trkpt lat="45.61368711180028" lon="9.22393137826024"><ele>192.0</ele><time>2026-04-04T08:59:54Z</time></trkpt><trkpt lat="45.613932999757154" lon="9.223958035704023"><ele>191.0</ele><time>2026-04-04T08:59:55Z</time></trkpt><trkpt lat="45.614174863588815" lon="9.223963574420704"><ele>191.0</ele><time>2026-04-04T08:59:56Z</time></trkpt><trkpt lat="45.61442020976817" lon="9.223972730815412"><ele>191.0</ele><time>2026-04-04T08:59:56.999Z</time></trkpt><trkpt lat="45.61466316048445" lon="9.22398424645075"><ele>190.5</ele><time>2026-04-04T08:59:57.999Z</time></trkpt><trkpt lat="45.614905149586065" lon="9.223996128382419"><ele>190.0</ele><time>2026-04-04T08:59:58.999Z</time></trkpt><trkpt lat="45.61515006636804" lon="9.224008263766445"><ele>192.5</ele><time>2026-04-04T08:59:59.999Z</time></trkpt><trkpt lat="45.615394348399036" lon="9.224020353742874"><ele>195.0</ele><time>2026-04-04T09:00:00.999Z</time></trkpt><trkpt lat="45.615634517937565" lon="9.224030761553268"><ele>195.0</ele><time>2026-04-04T09:00:01.999Z</time></trkpt><trkpt lat="45.61587025550813" lon="9.224041645074642"><ele>195.0</ele><time>2026-04-04T09:00:02.999Z</time></trkpt><trkpt lat="45.61610502788188" lon="9.22405378926714"><ele>194.5</ele><time>2026-04-04T09:00:03.999Z</time></trkpt><trkpt lat="45.616343277272996" lon="9.224067462046888"><ele>194.0</ele><time>2026-04-04T09:00:04.999Z</time></trkpt><trkpt lat="45.61658475546646" lon="9.224080030276559"><ele>194.0</ele><time>2026-04-04T09:00:05.999Z</time></trkpt><trkpt lat="45.61682495855426" lon="9.224093861719034"><ele>194.0</ele><time>2026-04-04T09:00:06.999Z</time></trkpt><trkpt lat="45.617064464877494" lon="9.224106433394187"><ele>194.5</ele><time>2026-04-04T09:00:07.999Z</time></trkpt><trkpt lat="45.61730554861794" lon="9.224120431910245"><ele>195.0</ele><time>2026-04-04T09:00:08.999Z</time></trkpt><trkpt lat="45.61754091219293" lon="9.224130431162092"><ele>195.0</ele><time>2026-04-04T09:00:09.999Z</time></trkpt><trkpt lat="45.61778138251311" lon="9.224140246667345"><ele>195.0</ele><time>2026-04-04T09:00:10.999Z</time></trkpt><trkpt lat="45.618026626034165" lon="9.224150195264526"><ele>195.0</ele><time>2026-04-04T09:00:11.999Z</time></trkpt><trkpt lat="45.61827094515506" lon="9.224162866302429"><ele>195.0</ele><time>2026-04-04T09:00:12.999Z</time></trkpt><trkpt lat="45.61851292316969" lon="9.224177968045556"><ele>195.0</ele><time>2026-04-04T09:00:13.999Z</time></trkpt><trkpt lat="45.618756041890116" lon="9.224194830270935"><ele>195.0</ele><time>2026-04-04T09:00:14.999Z</time></trkpt><trkpt lat="45.618995077437" lon="9.224206563675464"><ele>195.0</ele><time>2026-04-04T09:00:15.999Z</time></trkpt><trkpt lat="45.619234575488775" lon="9.224224218254196"><ele>195.0</ele><time>2026-04-04T09:00:16.999Z</time></trkpt><trkpt lat="45.619472246822895" lon="9.224237814047433"><ele>195.5</ele><time>2026-04-04T09:00:17.999Z</time></trkpt><trkpt lat="45.61971243131721" lon="9.22424745277608"><ele>196.0</ele><time>2026-04-04T09:00:18.999Z</time></trkpt><trkpt lat="45.61995827630058" lon="9.224257391335179"><ele>196.0</ele><time>2026-04-04T09:00:19.999Z</time></trkpt><trkpt lat="45.62021193216869" lon="9.22428082886087"><ele>196.0</ele><time>2026-04-04T09:00:20.999Z</time></trkpt><trkpt lat="45.62047782245423" lon="9.224324618933917"><ele>197.0</ele><time>2026-04-04T09:00:21.999Z</time></trkpt><trkpt lat="45.620763465230176" lon="9.22436849104019"><ele>198.0</ele><time>2026-04-04T09:00:22.999Z</time></trkpt><trkpt lat="45.62106948985244" lon="9.224402311688909"><ele>198.5</ele><time>2026-04-04T09:00:23.999Z</time></trkpt><trkpt lat="45.62139264662693" lon="9.224424519033946"><ele>199.0</ele><time>2026-04-04T09:00:24.999Z</time></trkpt><trkpt lat="45.62172969158809" lon="9.224437829789258"><ele>198.5</ele><time>2026-04-04T09:00:25.999Z</time></trkpt><trkpt lat="45.622072338967314" lon="9.224454611376164"><ele>198.0</ele><time>2026-04-04T09:00:26.999Z</time></trkpt><trkpt lat="45.62237994242021" lon="9.224466267528616"><ele>198.0</ele><time>2026-04-04T09:00:27.999Z</time></trkpt><trkpt lat="45.622671632827895" lon="9.224486084254703"><ele>198.0</ele><time>2026-04-04T09:00:28.999Z</time></trkpt><trkpt lat="45.622971434689894" lon="9.224496836132827"><ele>198.0</ele><time>2026-04-04T09:00:29.999Z</time></trkpt><trkpt lat="45.62326586700491" lon="9.224502982649822"><ele>198.0</ele><time>2026-04-04T09:00:30.999Z</time></trkpt><trkpt lat="45.623558522511004" lon="9.22449775398313"><ele>198.0</ele><time>2026-04-04T09:00:31.999Z</time></trkpt><trkpt lat="45.623852302262556" lon="9.224487725475987"><ele>198.0</ele><time>2026-04-04T09:00:32.999Z</time></trkpt><trkpt lat="45.62415106576687" lon="9.224484498870094"><ele>198.0</ele><time>2026-04-04T09:00:33.999Z</time></trkpt><trkpt lat="45.624462283448494" lon="9.22449155148334"><ele>198.0</ele><time>2026-04-04T09:00:34.999Z</time></trkpt><trkpt lat="45.62477677257924" lon="9.224503932538385"><ele>198.0</ele><time>2026-04-04T09:00:35.999Z</time></trkpt><trkpt lat="45.62507525282906" lon="9.22451599579902"><ele>198.0</ele><time>2026-04-04T09:00:36.999Z</time></trkpt><trkpt lat="45.62537000853692" lon="9.22453470992053"><ele>199.0</ele><time>2026-04-04T09:00:37.999Z</time></trkpt><trkpt lat="45.625667331460356" lon="9.224549085093424"><ele>200.0</ele><time>2026-04-04T09:00:38.999Z</time></trkpt><trkpt lat="45.62595626252648" lon="9.22456282034837"><ele>200.0</ele><time>2026-04-04T09:00:39.999Z</time></trkpt><trkpt lat="45.62624145570405" lon="9.22457689911149"><ele>200.0</ele><time>2026-04-04T09:00:40.999Z</time></trkpt><trkpt lat="45.62652498220268" lon="9.224590411322533"><ele>200.0</ele><time>2026-04-04T09:00:41.999Z</time></trkpt><trkpt lat="45.62680504495494" lon="9.22460493293136"><ele>200.0</ele><time>2026-04-04T09:00:42.999Z</time></trkpt><trkpt lat="45.627081892324824" lon="9.224622263616466"><ele>202.0</ele><time>2026-04-04T09:00:43.999Z</time></trkpt><trkpt lat="45.627361571933456" lon="9.22464557984476"><ele>204.0</ele><time>2026-04-04T09:00:44.999Z</time></trkpt><trkpt lat="45.627651075211716" lon="9.224682661651341"><ele>204.5</ele><time>2026-04-04T09:00:45.999Z</time></trkpt><trkpt lat="45.62794699748285" lon="9.224710219678927"><ele>205.0</ele><time>2026-04-04T09:00:46.999Z</time></trkpt><trkpt lat="45.628244757470895" lon="9.224728841761804"><ele>205.0</ele><time>2026-04-04T09:00:47.999Z</time></trkpt><trkpt lat="45.628531713684794" lon="9.224741072149694"><ele>205.0</ele><time>2026-04-04T09:00:48.999Z</time></trkpt><trkpt lat="45.628805314710476" lon="9.224755401530397"><ele>204.0</ele><time>2026-04-04T09:00:49.999Z</time></trkpt><trkpt lat="45.62913390544985" lon="9.224771217449911"><ele>203.0</ele><time>2026-04-04T09:00:50.999Z</time></trkpt><trkpt lat="45.629437211364554" lon="9.224788923417442"><ele>203.0</ele><time>2026-04-04T09:00:51.999Z</time></trkpt><trkpt lat="45.629735645049934" lon="9.22480321026226"><ele>203.0</ele><time>2026-04-04T09:00:52.999Z</time></trkpt><trkpt lat="45.630034083755696" lon="9.224819852637808"><ele>204.0</ele><time>2026-04-04T09:00:53.999Z</time></trkpt><trkpt lat="45.630331749430454" lon="9.224836766279392"><ele>205.0</ele><time>2026-04-04T09:00:54.999Z</time></trkpt><trkpt lat="45.63062964214519" lon="9.224853352765178"><ele>205.0</ele><time>2026-04-04T09:00:55.999Z</time></trkpt><trkpt lat="45.63091952594142" lon="9.224867037650284"><ele>205.0</ele><time>2026-04-04T09:00:56.999Z</time></trkpt><trkpt lat="45.63120836574522" lon="9.224879669977492"><ele>205.5</ele><time>2026-04-04T09:00:57.999Z</time></trkpt><trkpt lat="45.63149808360193" lon="9.224884444636722"><ele>206.0</ele><time>2026-04-04T09:00:58.999Z</time></trkpt><trkpt lat="45.631787132658665" lon="9.224881208700465"><ele>206.5</ele><time>2026-04-04T09:00:59.999Z</time></trkpt><trkpt lat="45.6320774828007" lon="9.224880294500272"><ele>207.0</ele><time>2026-04-04T09:01:00.999Z</time></trkpt><trkpt lat="45.63235848150071" lon="9.224890568061245"><ele>207.0</ele><time>2026-04-04T09:01:01.999Z</time></trkpt><trkpt lat="45.63263023732256" lon="9.224908421122214"><ele>207.0</ele><time>2026-04-04T09:01:02.999Z</time></trkpt><trkpt lat="45.63289584720141" lon="9.224923815659123"><ele>207.0</ele><time>2026-04-04T09:01:03.999Z</time></trkpt><trkpt lat="45.63314619784395" lon="9.224936889420674"><ele>207.0</ele><time>2026-04-04T09:01:04.999Z</time></trkpt><trkpt lat="45.633396604599426" lon="9.224947666844242"><ele>207.5</ele><time>2026-04-04T09:01:05.999Z</time></trkpt><trkpt lat="45.633653017605475" lon="9.224957824481095"><ele>208.0</ele><time>2026-04-04T09:01:06.999Z</time></trkpt><trkpt lat="45.63391542645372" lon="9.224970121054211"><ele>208.0</ele><time>2026-04-04T09:01:07.999Z</time></trkpt><trkpt lat="45.63417607475444" lon="9.224983900089242"><ele>208.0</ele><time>2026-04-04T09:01:08.999Z</time></trkpt><trkpt lat="45.63444019546769" lon="9.22499913691063"><ele>208.5</ele><time>2026-04-04T09:01:09.999Z</time></trkpt><trkpt lat="45.63470871561495" lon="9.225011203620362"><ele>209.0</ele><time>2026-04-04T09:01:10.999Z</time></trkpt><trkpt lat="45.63498053300346" lon="9.225023709081645"><ele>209.0</ele><time>2026-04-04T09:01:11.999Z</time></trkpt><trkpt lat="45.63525619370665" lon="9.22503861033668"><ele>209.0</ele><time>2026-04-04T09:01:12.999Z</time></trkpt><trkpt lat="45.635531750574316" lon="9.225052756910241"><ele>210.0</ele><time>2026-04-04T09:01:13.998Z</time></trkpt><trkpt lat="45.635811013861606" lon="9.225063923793405"><ele>211.0</ele><time>2026-04-04T09:01:14.998Z</time></trkpt><trkpt lat="45.63608589725698" lon="9.22507622101295"><ele>210.5</ele><time>2026-04-04T09:01:15.998Z</time></trkpt><trkpt lat="45.63636424269104" lon="9.225094010905785"><ele>210.0</ele><time>2026-04-04T09:01:16.998Z</time></trkpt><trkpt lat="45.63664166192338" lon="9.22511111730291"><ele>210.0</ele><time>2026-04-04T09:01:17.998Z</time></trkpt><trkpt lat="45.63692772745471" lon="9.225129039017583"><ele>210.0</ele><time>2026-04-04T09:01:18.998Z</time></trkpt><trkpt lat="45.63721984955227" lon="9.225148839347312"><ele>210.0</ele><time>2026-04-04T09:01:19.998Z</time></trkpt><trkpt lat="45.63751353402684" lon="9.225162846440085"><ele>210.0</ele><time>2026-04-04T09:01:20.998Z</time></trkpt><trkpt lat="45.63780523263521" lon="9.22517846168465"><ele>211.0</ele><time>2026-04-04T09:01:21.998Z</time></trkpt><trkpt lat="45.63808742185935" lon="9.22518785331642"><ele>212.0</ele><time>2026-04-04T09:01:22.998Z</time></trkpt><trkpt lat="45.63836523688305" lon="9.225201688123157"><ele>213.5</ele><time>2026-04-04T09:01:23.998Z</time></trkpt><trkpt lat="45.63864823953926" lon="9.225218037819937"><ele>215.0</ele><time>2026-04-04T09:01:24.998Z</time></trkpt><trkpt lat="45.638928758538334" lon="9.22523816219556"><ele>215.0</ele><time>2026-04-04T09:01:25.998Z</time></trkpt><trkpt lat="45.63920984169567" lon="9.225259153116129"><ele>215.0</ele><time>2026-04-04T09:01:27Z</time></trkpt><trkpt lat="45.63948945061521" lon="9.22528206734661"><ele>215.5</ele><time>2026-04-04T09:01:28Z</time></trkpt><trkpt lat="45.639772555541924" lon="9.225306986490356"><ele>216.0</ele><time>2026-04-04T09:01:29Z</time></trkpt><trkpt lat="45.640050630113315" lon="9.22532776618176"><ele>215.5</ele><time>2026-04-04T09:01:30Z</time></trkpt><trkpt lat="45.64032898317723" lon="9.2253446471771"><ele>215.0</ele><time>2026-04-04T09:01:31Z</time></trkpt><trkpt lat="45.64060388596997" lon="9.225359972581893"><ele>215.0</ele><time>2026-04-04T09:01:32Z</time></trkpt><trkpt lat="45.64087750825134" lon="9.22537269207402"><ele>215.0</ele><time>2026-04-04T09:01:33Z</time></trkpt><trkpt lat="45.64115127790427" lon="9.225384291146424"><ele>216.0</ele><time>2026-04-04T09:01:34Z</time></trkpt><trkpt lat="45.64142576428822" lon="9.225397964319372"><ele>217.0</ele><time>2026-04-04T09:01:35Z</time></trkpt><trkpt lat="45.64169947703318" lon="9.225414106543447"><ele>217.0</ele><time>2026-04-04T09:01:36Z</time></trkpt><trkpt lat="45.641970124167976" lon="9.22542598791412"><ele>217.0</ele><time>2026-04-04T09:01:37Z</time></trkpt><trkpt lat="45.642238871597606" lon="9.22544035897174"><ele>217.0</ele><time>2026-04-04T09:01:38Z</time></trkpt><trkpt lat="45.64250656724482" lon="9.225451834532121"><ele>217.0</ele><time>2026-04-04T09:01:39Z</time></trkpt><trkpt lat="45.642774332379346" lon="9.225465502149573"><ele>218.0</ele><time>2026-04-04T09:01:40Z</time></trkpt><trkpt lat="45.64304173024555" lon="9.225473531292096"><ele>219.0</ele><time>2026-04-04T09:01:41Z</time></trkpt><trkpt lat="45.643308600744774" lon="9.225472681593587"><ele>219.0</ele><time>2026-04-04T09:01:42Z</time></trkpt><trkpt lat="45.64357213825501" lon="9.225477741137425"><ele>219.0</ele><time>2026-04-04T09:01:43Z</time></trkpt><trkpt lat="45.64383578739039" lon="9.225490115318008"><ele>219.0</ele><time>2026-04-04T09:01:44Z</time></trkpt><trkpt lat="45.64410970445003" lon="9.225501382662376"><ele>219.0</ele><time>2026-04-04T09:01:45Z</time></trkpt><trkpt lat="45.64438765912615" lon="9.22551566419468"><ele>218.5</ele><time>2026-04-04T09:01:46Z</time></trkpt><trkpt lat="45.64466752072572" lon="9.225530767955124"><ele>218.0</ele><time>2026-04-04T09:01:47Z</time></trkpt><trkpt lat="45.64494952719926" lon="9.225547558785529"><ele>218.0</ele><time>2026-04-04T09:01:48Z</time></trkpt><trkpt lat="45.64522922816845" lon="9.225564071376281"><ele>218.0</ele><time>2026-04-04T09:01:49Z</time></trkpt><trkpt lat="45.64550513075741" lon="9.225578935671878"><ele>219.0</ele><time>2026-04-04T09:01:50Z</time></trkpt><trkpt lat="45.64577929168366" lon="9.225593216040629"><ele>220.0</ele><time>2026-04-04T09:01:51Z</time></trkpt><trkpt lat="45.64604793023657" lon="9.225606258519278"><ele>221.5</ele><time>2026-04-04T09:01:52Z</time></trkpt><trkpt lat="45.64631441826835" lon="9.225619817579956"><ele>223.0</ele><time>2026-04-04T09:01:53Z</time></trkpt><trkpt lat="45.64658164652916" lon="9.225633576438954"><ele>221.5</ele><time>2026-04-04T09:01:54Z</time></trkpt><trkpt lat="45.646852147444186" lon="9.225649611298998"><ele>220.0</ele><time>2026-04-04T09:01:55Z</time></trkpt><trkpt lat="45.647121989693126" lon="9.225660426844888"><ele>220.0</ele><time>2026-04-04T09:01:56Z</time></trkpt><trkpt lat="45.64738868272338" lon="9.225673849686762"><ele>220.0</ele><time>2026-04-04T09:01:57Z</time></trkpt><trkpt lat="45.6476592532682" lon="9.22568814252308"><ele>219.5</ele><time>2026-04-04T09:01:58Z</time></trkpt><trkpt lat="45.647932082826465" lon="9.225700061682446"><ele>219.0</ele><time>2026-04-04T09:01:59Z</time></trkpt><trkpt lat="45.64821597265781" lon="9.225714457314275"><ele>219.0</ele><time>2026-04-04T09:02:00Z</time></trkpt><trkpt lat="45.64850291449705" lon="9.225732000325333"><ele>219.0</ele><time>2026-04-04T09:02:01Z</time></trkpt><trkpt lat="45.6487868429239" lon="9.22574988073387"><ele>220.0</ele><time>2026-04-04T09:02:02Z</time></trkpt><trkpt lat="45.64907555347903" lon="9.225769949733067"><ele>221.0</ele><time>2026-04-04T09:02:03Z</time></trkpt><trkpt lat="45.64937326975799" lon="9.225795601321003"><ele>221.0</ele><time>2026-04-04T09:02:04Z</time></trkpt><trkpt lat="45.649663567782504" lon="9.225813372191418"><ele>221.0</ele><time>2026-04-04T09:02:05Z</time></trkpt><trkpt lat="45.64996456017926" lon="9.225838664017004"><ele>221.0</ele><time>2026-04-04T09:02:06Z</time></trkpt><trkpt lat="45.65025593169149" lon="9.225854930682424"><ele>221.0</ele><time>2026-04-04T09:02:07Z</time></trkpt><trkpt lat="45.650543796598456" lon="9.225871553564184"><ele>222.5</ele><time>2026-04-04T09:02:08Z</time></trkpt><trkpt lat="45.65082422039855" lon="9.225884312332093"><ele>224.0</ele><time>2026-04-04T09:02:08.999Z</time></trkpt><trkpt lat="45.651106590159586" lon="9.225899917088284"><ele>224.5</ele><time>2026-04-04T09:02:09.999Z</time></trkpt><trkpt lat="45.65138879511599" lon="9.225913094560443"><ele>225.0</ele><time>2026-04-04T09:02:10.999Z</time></trkpt><trkpt lat="45.651671753781095" lon="9.225928443769225"><ele>225.0</ele><time>2026-04-04T09:02:11.999Z</time></trkpt><trkpt lat="45.65195101502495" lon="9.225941442043915"><ele>225.0</ele><time>2026-04-04T09:02:12.999Z</time></trkpt><trkpt lat="45.652226317892655" lon="9.225951060584931"><ele>224.0</ele><time>2026-04-04T09:02:13.999Z</time></trkpt><trkpt lat="45.65250123841724" lon="9.225967082267001"><ele>223.0</ele><time>2026-04-04T09:02:14.999Z</time></trkpt><trkpt lat="45.65277395216829" lon="9.225989866633379"><ele>224.0</ele><time>2026-04-04T09:02:15.999Z</time></trkpt><trkpt lat="45.65305091707077" lon="9.226015914409256"><ele>225.0</ele><time>2026-04-04T09:02:16.999Z</time></trkpt><trkpt lat="45.6533462992798" lon="9.22604128096798"><ele>225.5</ele><time>2026-04-04T09:02:17.999Z</time></trkpt><trkpt lat="45.65366199207451" lon="9.22606798285459"><ele>226.0</ele><time>2026-04-04T09:02:18.999Z</time></trkpt><trkpt lat="45.65398775883227" lon="9.226096919543624"><ele>226.0</ele><time>2026-04-04T09:02:19.999Z</time></trkpt><trkpt lat="45.65431794105013" lon="9.226118687830946"><ele>226.0</ele><time>2026-04-04T09:02:20.999Z</time></trkpt><trkpt lat="45.65464049455062" lon="9.226137180252955"><ele>225.5</ele><time>2026-04-04T09:02:21.999Z</time></trkpt><trkpt lat="45.65495345711932" lon="9.226148022847783"><ele>225.0</ele><time>2026-04-04T09:02:22.999Z</time></trkpt><trkpt lat="45.65526540384122" lon="9.226167328473217"><ele>227.0</ele><time>2026-04-04T09:02:23.999Z</time></trkpt><trkpt lat="45.65557752880213" lon="9.226178553443658"><ele>229.0</ele><time>2026-04-04T09:02:24.999Z</time></trkpt><trkpt lat="45.65588372864708" lon="9.226167526034148"><ele>229.0</ele><time>2026-04-04T09:02:25.999Z</time></trkpt><trkpt lat="45.656188549753324" lon="9.22612671077704"><ele>229.0</ele><time>2026-04-04T09:02:26.999Z</time></trkpt><trkpt lat="45.65649088782602" lon="9.226052090807235"><ele>229.0</ele><time>2026-04-04T09:02:27.999Z</time></trkpt><trkpt lat="45.656790556516384" lon="9.225957490207408"><ele>229.0</ele><time>2026-04-04T09:02:28.999Z</time></trkpt><trkpt lat="45.65709190797712" lon="9.225845478319023"><ele>229.0</ele><time>2026-04-04T09:02:29.999Z</time></trkpt><trkpt lat="45.65738935296195" lon="9.225733595625357"><ele>229.0</ele><time>2026-04-04T09:02:30.999Z</time></trkpt><trkpt lat="45.65768485268535" lon="9.225622711443746"><ele>230.0</ele><time>2026-04-04T09:02:31.999Z</time></trkpt><trkpt lat="45.65798522217976" lon="9.225516861924065"><ele>231.0</ele><time>2026-04-04T09:02:32.999Z</time></trkpt><trkpt lat="45.65828193649275" lon="9.225409944602328"><ele>231.0</ele><time>2026-04-04T09:02:33.999Z</time></trkpt><trkpt lat="45.658580910833344" lon="9.225303480526366"><ele>231.0</ele><time>2026-04-04T09:02:34.999Z</time></trkpt><trkpt lat="45.65887627692821" lon="9.22519632104537"><ele>231.0</ele><time>2026-04-04T09:02:35.999Z</time></trkpt><trkpt lat="45.65915829293141" lon="9.225096494170804"><ele>231.0</ele><time>2026-04-04T09:02:36.999Z</time></trkpt><trkpt lat="45.659423598440604" lon="9.225000050583901"><ele>230.5</ele><time>2026-04-04T09:02:37.999Z</time></trkpt><trkpt lat="45.6596687799952" lon="9.224909183114919"><ele>230.0</ele><time>2026-04-04T09:02:38.999Z</time></trkpt><trkpt lat="45.659920025139435" lon="9.224813312877423"><ele>230.0</ele><time>2026-04-04T09:02:39.999Z</time></trkpt><trkpt lat="45.66017874383533" lon="9.22471906615669"><ele>230.0</ele><time>2026-04-04T09:02:40.999Z</time></trkpt><trkpt lat="45.66043802995414" lon="9.224627051539182"><ele>230.0</ele><time>2026-04-04T09:02:41.999Z</time></trkpt><trkpt lat="45.660703454789456" lon="9.224525594412235"><ele>230.0</ele><time>2026-04-04T09:02:42.999Z</time></trkpt><trkpt lat="45.660971929710705" lon="9.224425959140047"><ele>231.5</ele><time>2026-04-04T09:02:43.999Z</time></trkpt><trkpt lat="45.661240160869376" lon="9.224333934614036"><ele>233.0</ele><time>2026-04-04T09:02:44.999Z</time></trkpt><trkpt lat="45.661503180345605" lon="9.224243124762802"><ele>233.0</ele><time>2026-04-04T09:02:45.999Z</time></trkpt><trkpt lat="45.661772724132604" lon="9.224142102500425"><ele>233.0</ele><time>2026-04-04T09:02:46.999Z</time></trkpt><trkpt lat="45.66205890603155" lon="9.224039106172269"><ele>233.0</ele><time>2026-04-04T09:02:47.999Z</time></trkpt><trkpt lat="45.66234646150054" lon="9.223949599598855"><ele>233.0</ele><time>2026-04-04T09:02:48.999Z</time></trkpt><trkpt lat="45.6626307974865" lon="9.223862799044861"><ele>233.0</ele><time>2026-04-04T09:02:49.999Z</time></trkpt><trkpt lat="45.6629127211066" lon="9.223765605138446"><ele>233.0</ele><time>2026-04-04T09:02:50.999Z</time></trkpt><trkpt lat="45.663189344352745" lon="9.223666549759612"><ele>233.0</ele><time>2026-04-04T09:02:51.999Z</time></trkpt><trkpt lat="45.663458285370425" lon="9.223568879099261"><ele>233.0</ele><time>2026-04-04T09:02:52.999Z</time></trkpt><trkpt lat="45.66372430276775" lon="9.223473132564719"><ele>233.5</ele><time>2026-04-04T09:02:53.999Z</time></trkpt><trkpt lat="45.66397926620383" lon="9.223380414171979"><ele>234.0</ele><time>2026-04-04T09:02:54.999Z</time></trkpt><trkpt lat="45.66422438032668" lon="9.223289368668517"><ele>235.0</ele><time>2026-04-04T09:02:55.999Z</time></trkpt><trkpt lat="45.664462032330526" lon="9.223198384198563"><ele>236.0</ele><time>2026-04-04T09:02:56.999Z</time></trkpt><trkpt lat="45.66470494930272" lon="9.223106350135174"><ele>236.0</ele><time>2026-04-04T09:02:57.999Z</time></trkpt><trkpt lat="45.66495615103419" lon="9.223012898755949"><ele>236.0</ele><time>2026-04-04T09:02:58.999Z</time></trkpt><trkpt lat="45.665221786030784" lon="9.222922056138223"><ele>236.0</ele><time>2026-04-04T09:02:59.999Z</time></trkpt><trkpt lat="45.665503818338806" lon="9.222826974052438"><ele>236.0</ele><time>2026-04-04T09:03:00.999Z</time></trkpt><trkpt lat="45.6657773580784" lon="9.22272872571854"><ele>236.0</ele><time>2026-04-04T09:03:01.999Z</time></trkpt><trkpt lat="45.666032208803784" lon="9.222637823793924"><ele>236.0</ele><time>2026-04-04T09:03:02.999Z</time></trkpt><trkpt lat="45.6662826210563" lon="9.222548703372224"><ele>237.0</ele><time>2026-04-04T09:03:03.999Z</time></trkpt><trkpt lat="45.666536702433476" lon="9.222457096906856"><ele>238.0</ele><time>2026-04-04T09:03:04.999Z</time></trkpt><trkpt lat="45.666786603189735" lon="9.222362743620597"><ele>236.5</ele><time>2026-04-04T09:03:05.999Z</time></trkpt><trkpt lat="45.667037958580316" lon="9.222272245662163"><ele>235.0</ele><time>2026-04-04T09:03:06.999Z</time></trkpt><trkpt lat="45.667286406440006" lon="9.222175748450482"><ele>235.0</ele><time>2026-04-04T09:03:07.999Z</time></trkpt><trkpt lat="45.66754015103327" lon="9.222074524346008"><ele>235.0</ele><time>2026-04-04T09:03:08.999Z</time></trkpt><trkpt lat="45.667797991520864" lon="9.22197983001458"><ele>236.0</ele><time>2026-04-04T09:03:09.999Z</time></trkpt><trkpt lat="45.668050573302835" lon="9.221888624646699"><ele>237.0</ele><time>2026-04-04T09:03:10.999Z</time></trkpt><trkpt lat="45.668304928276484" lon="9.221795672569176"><ele>237.0</ele><time>2026-04-04T09:03:11.999Z</time></trkpt><trkpt lat="45.66855843545134" lon="9.221705660128473"><ele>237.0</ele><time>2026-04-04T09:03:12.999Z</time></trkpt><trkpt lat="45.66880507617788" lon="9.221618134447933"><ele>236.5</ele><time>2026-04-04T09:03:13.999Z</time></trkpt><trkpt lat="45.66905976254158" lon="9.221521240726998"><ele>236.0</ele><time>2026-04-04T09:03:14.999Z</time></trkpt><trkpt lat="45.6693397625695" lon="9.22141037545528"><ele>237.5</ele><time>2026-04-04T09:03:15.999Z</time></trkpt><trkpt lat="45.66963501071127" lon="9.221293988793613"><ele>239.0</ele><time>2026-04-04T09:03:16.999Z</time></trkpt><trkpt lat="45.66993635031849" lon="9.221178096893725"><ele>239.0</ele><time>2026-04-04T09:03:17.999Z</time></trkpt><trkpt lat="45.67022244206322" lon="9.221073441745393"><ele>239.0</ele><time>2026-04-04T09:03:18.999Z</time></trkpt><trkpt lat="45.67050672056366" lon="9.220972582786283"><ele>238.5</ele><time>2026-04-04T09:03:19.999Z</time></trkpt><trkpt lat="45.67079205533046" lon="9.220872676405751"><ele>238.0</ele><time>2026-04-04T09:03:20.999Z</time></trkpt><trkpt lat="45.67107943740309" lon="9.22076977467351"><ele>238.5</ele><time>2026-04-04T09:03:21.999Z</time></trkpt><trkpt lat="45.67136322650927" lon="9.2206692811774"><ele>239.0</ele><time>2026-04-04T09:03:22.999Z</time></trkpt><trkpt lat="45.67164813945953" lon="9.220566577604856"><ele>239.5</ele><time>2026-04-04T09:03:23.999Z</time></trkpt><trkpt lat="45.671936243057424" lon="9.220465901834343"><ele>240.0</ele><time>2026-04-04T09:03:24.999Z</time></trkpt><trkpt lat="45.67222210198598" lon="9.22036289227306"><ele>241.0</ele><time>2026-04-04T09:03:25.999Z</time></trkpt><trkpt lat="45.6725094476564" lon="9.22025797660598"><ele>242.0</ele><time>2026-04-04T09:03:26.999Z</time></trkpt><trkpt lat="45.67279695853228" lon="9.220157131146427"><ele>243.0</ele><time>2026-04-04T09:03:27.998Z</time></trkpt><trkpt lat="45.67308026878187" lon="9.220055480888842"><ele>244.0</ele><time>2026-04-04T09:03:28.998Z</time></trkpt><trkpt lat="45.67336731873382" lon="9.219949698958189"><ele>244.5</ele><time>2026-04-04T09:03:29.998Z</time></trkpt><trkpt lat="45.67365166091248" lon="9.219845489972723"><ele>245.0</ele><time>2026-04-04T09:03:30.998Z</time></trkpt><trkpt lat="45.67393797368419" lon="9.219746760920243"><ele>245.0</ele><time>2026-04-04T09:03:31.998Z</time></trkpt><trkpt lat="45.674222553102375" lon="9.219649168221562"><ele>245.0</ele><time>2026-04-04T09:03:33Z</time></trkpt><trkpt lat="45.67451363861192" lon="9.219544856819537"><ele>245.5</ele><time>2026-04-04T09:03:34Z</time></trkpt><trkpt lat="45.67479600722724" lon="9.219442352354935"><ele>246.0</ele><time>2026-04-04T09:03:35Z</time></trkpt><trkpt lat="45.67506352150047" lon="9.21935294239032"><ele>245.5</ele><time>2026-04-04T09:03:36Z</time></trkpt><trkpt lat="45.675331039878" lon="9.219258793388875"><ele>245.0</ele><time>2026-04-04T09:03:37Z</time></trkpt><trkpt lat="45.67559823726827" lon="9.21915966860265"><ele>245.0</ele><time>2026-04-04T09:03:38Z</time></trkpt><trkpt lat="45.67586447134052" lon="9.219062594680128"><ele>245.0</ele><time>2026-04-04T09:03:39Z</time></trkpt><trkpt lat="45.67612562004386" lon="9.218966625546042"><ele>245.5</ele><time>2026-04-04T09:03:40Z</time></trkpt><trkpt lat="45.6763877546833" lon="9.218870553406287"><ele>246.0</ele><time>2026-04-04T09:03:41Z</time></trkpt><trkpt lat="45.676649329294335" lon="9.218780229754511"><ele>246.0</ele><time>2026-04-04T09:03:42Z</time></trkpt><trkpt lat="45.676907616650034" lon="9.218693009961545"><ele>246.0</ele><time>2026-04-04T09:03:43Z</time></trkpt><trkpt lat="45.677175973625005" lon="9.218602298333044"><ele>248.5</ele><time>2026-04-04T09:03:44Z</time></trkpt><trkpt lat="45.677456396806285" lon="9.2185037014278"><ele>251.0</ele><time>2026-04-04T09:03:45Z</time></trkpt><trkpt lat="45.67773976686084" lon="9.218403190138996"><ele>250.0</ele><time>2026-04-04T09:03:46Z</time></trkpt><trkpt lat="45.678030055545086" lon="9.218297046099957"><ele>249.0</ele><time>2026-04-04T09:03:47Z</time></trkpt><trkpt lat="45.67831279641414" lon="9.218192389613785"><ele>249.5</ele><time>2026-04-04T09:03:48Z</time></trkpt><trkpt lat="45.67859777952134" lon="9.218090455434547"><ele>250.0</ele><time>2026-04-04T09:03:49Z</time></trkpt><trkpt lat="45.67888289360225" lon="9.217987940560917"><ele>250.0</ele><time>2026-04-04T09:03:50Z</time></trkpt><trkpt lat="45.67916816974721" lon="9.21788683673051"><ele>250.0</ele><time>2026-04-04T09:03:51Z</time></trkpt><trkpt lat="45.679452495102076" lon="9.217786906965138"><ele>250.0</ele><time>2026-04-04T09:03:52Z</time></trkpt><trkpt lat="45.67973562706393" lon="9.21768917731745"><ele>250.0</ele><time>2026-04-04T09:03:53Z</time></trkpt><trkpt lat="45.68001914121299" lon="9.217588563231574"><ele>251.0</ele><time>2026-04-04T09:03:54Z</time></trkpt><trkpt lat="45.6803012302358" lon="9.217490284513383"><ele>252.0</ele><time>2026-04-04T09:03:55Z</time></trkpt><trkpt lat="45.68058029086704" lon="9.217386079700892"><ele>251.5</ele><time>2026-04-04T09:03:56Z</time></trkpt><trkpt lat="45.680857758310474" lon="9.217285882550343"><ele>251.0</ele><time>2026-04-04T09:03:57Z</time></trkpt><trkpt lat="45.681139689103944" lon="9.217186468250915"><ele>251.0</ele><time>2026-04-04T09:03:58Z</time></trkpt><trkpt lat="45.68142179849394" lon="9.217087700500887"><ele>251.0</ele><time>2026-04-04T09:03:59Z</time></trkpt><trkpt lat="45.68170230454556" lon="9.216986477764417"><ele>251.0</ele><time>2026-04-04T09:04:00Z</time></trkpt><trkpt lat="45.68198195695537" lon="9.21688534647146"><ele>251.0</ele><time>2026-04-04T09:04:01Z</time></trkpt><trkpt lat="45.682260980949835" lon="9.216781887719652"><ele>251.0</ele><time>2026-04-04T09:04:02Z</time></trkpt><trkpt lat="45.68254114774925" lon="9.21667834259813"><ele>251.0</ele><time>2026-04-04T09:04:03Z</time></trkpt><trkpt lat="45.68282009014327" lon="9.216580184455713"><ele>252.5</ele><time>2026-04-04T09:04:04Z</time></trkpt><trkpt lat="45.68310098422934" lon="9.216482895697403"><ele>254.0</ele><time>2026-04-04T09:04:05Z</time></trkpt><trkpt lat="45.68338597259494" lon="9.216387967463891"><ele>253.5</ele><time>2026-04-04T09:04:06Z</time></trkpt><trkpt lat="45.68367008798414" lon="9.216289018038136"><ele>253.0</ele><time>2026-04-04T09:04:07Z</time></trkpt><trkpt lat="45.68395745531793" lon="9.216193309738095"><ele>253.0</ele><time>2026-04-04T09:04:08Z</time></trkpt><trkpt lat="45.684241665809644" lon="9.216115718825963"><ele>253.0</ele><time>2026-04-04T09:04:09Z</time></trkpt><trkpt lat="45.68452885906967" lon="9.216076740289527"><ele>254.0</ele><time>2026-04-04T09:04:10Z</time></trkpt><trkpt lat="45.684814463160485" lon="9.216072942881334"><ele>255.0</ele><time>2026-04-04T09:04:11Z</time></trkpt><trkpt lat="45.68508755229495" lon="9.216105925592252"><ele>256.0</ele><time>2026-04-04T09:04:12Z</time></trkpt><trkpt lat="45.6853513399986" lon="9.216161456516419"><ele>257.0</ele><time>2026-04-04T09:04:13Z</time></trkpt><trkpt lat="45.685615453419004" lon="9.216238012210072"><ele>257.0</ele><time>2026-04-04T09:04:14Z</time></trkpt><trkpt lat="45.68586849707618" lon="9.216347995219959"><ele>257.0</ele><time>2026-04-04T09:04:15Z</time></trkpt><trkpt lat="45.686116450795126" lon="9.2164881359733"><ele>259.0</ele><time>2026-04-04T09:04:16Z</time></trkpt><trkpt lat="45.686349660732496" lon="9.216642676228473"><ele>261.0</ele><time>2026-04-04T09:04:17Z</time></trkpt><trkpt lat="45.68657258597314" lon="9.216815663092625"><ele>261.0</ele><time>2026-04-04T09:04:18Z</time></trkpt><trkpt lat="45.68678587591063" lon="9.21701206524805"><ele>261.0</ele><time>2026-04-04T09:04:18.999Z</time></trkpt><trkpt lat="45.68699128060673" lon="9.21723597560415"><ele>259.0</ele><time>2026-04-04T09:04:19.999Z</time></trkpt><trkpt lat="45.687196461361566" lon="9.21746950614874"><ele>257.0</ele><time>2026-04-04T09:04:20.999Z</time></trkpt><trkpt lat="45.687405403172974" lon="9.217698796560438"><ele>257.0</ele><time>2026-04-04T09:04:21.999Z</time></trkpt><trkpt lat="45.68761709706603" lon="9.217924062557604"><ele>257.0</ele><time>2026-04-04T09:04:22.999Z</time></trkpt><trkpt lat="45.68782876195703" lon="9.218153221960149"><ele>259.5</ele><time>2026-04-04T09:04:23.999Z</time></trkpt><trkpt lat="45.68803894153791" lon="9.218376291330161"><ele>262.0</ele><time>2026-04-04T09:04:24.999Z</time></trkpt><trkpt lat="45.688245219292966" lon="9.218596242954016"><ele>262.0</ele><time>2026-04-04T09:04:25.999Z</time></trkpt><trkpt lat="45.688446967880786" lon="9.218805322612281"><ele>262.0</ele><time>2026-04-04T09:04:26.999Z</time></trkpt><trkpt lat="45.688639130944395" lon="9.219011723024284"><ele>261.0</ele><time>2026-04-04T09:04:27.999Z</time></trkpt><trkpt lat="45.68883033026375" lon="9.219218228002749"><ele>260.0</ele><time>2026-04-04T09:04:28.999Z</time></trkpt><trkpt lat="45.68901747797314" lon="9.219422176573433"><ele>260.0</ele><time>2026-04-04T09:04:29.999Z</time></trkpt><trkpt lat="45.689209525801985" lon="9.21962387551279"><ele>260.0</ele><time>2026-04-04T09:04:30.999Z</time></trkpt><trkpt lat="45.689420457188945" lon="9.219836250777394"><ele>261.0</ele><time>2026-04-04T09:04:31.999Z</time></trkpt><trkpt lat="45.689628151427506" lon="9.220048534680705"><ele>262.0</ele><time>2026-04-04T09:04:32.999Z</time></trkpt><trkpt lat="45.68983646948806" lon="9.220269959723666"><ele>262.0</ele><time>2026-04-04T09:04:33.999Z</time></trkpt><trkpt lat="45.69005354158272" lon="9.220499195443223"><ele>262.0</ele><time>2026-04-04T09:04:34.999Z</time></trkpt><trkpt lat="45.69027714246294" lon="9.220732283153032"><ele>263.0</ele><time>2026-04-04T09:04:35.999Z</time></trkpt><trkpt lat="45.690501614486664" lon="9.22097219691865"><ele>264.0</ele><time>2026-04-04T09:04:36.999Z</time></trkpt><trkpt lat="45.69072986586165" lon="9.221216116355"><ele>264.0</ele><time>2026-04-04T09:04:37.999Z</time></trkpt><trkpt lat="45.69095892184359" lon="9.221455995239538"><ele>264.0</ele><time>2026-04-04T09:04:38.999Z</time></trkpt><trkpt lat="45.69118568018805" lon="9.221697233175588"><ele>265.0</ele><time>2026-04-04T09:04:39.999Z</time></trkpt><trkpt lat="45.69141148352284" lon="9.221937890765059"><ele>266.0</ele><time>2026-04-04T09:04:40.999Z</time></trkpt><trkpt lat="45.69163184292058" lon="9.222179366038217"><ele>267.0</ele><time>2026-04-04T09:04:41.999Z</time></trkpt><trkpt lat="45.69185361528142" lon="9.222419171753494"><ele>268.0</ele><time>2026-04-04T09:04:42.999Z</time></trkpt><trkpt lat="45.692062208298395" lon="9.22264709201748"><ele>268.0</ele><time>2026-04-04T09:04:43.999Z</time></trkpt><trkpt lat="45.692261561950005" lon="9.222861465879065"><ele>268.0</ele><time>2026-04-04T09:04:44.999Z</time></trkpt><trkpt lat="45.69246778751873" lon="9.223081747462635"><ele>271.0</ele><time>2026-04-04T09:04:45.999Z</time></trkpt><trkpt lat="45.69268001232947" lon="9.223309127843219"><ele>274.0</ele><time>2026-04-04T09:04:46.999Z</time></trkpt><trkpt lat="45.6928927305465" lon="9.223534704464024"><ele>274.5</ele><time>2026-04-04T09:04:47.999Z</time></trkpt><trkpt lat="45.693120744026956" lon="9.223768049181137"><ele>275.0</ele><time>2026-04-04T09:04:48.999Z</time></trkpt><trkpt lat="45.69336166668652" lon="9.223998980020928"><ele>277.0</ele><time>2026-04-04T09:04:49.999Z</time></trkpt><trkpt lat="45.693610548717594" lon="9.224225014438346"><ele>279.0</ele><time>2026-04-04T09:04:50.999Z</time></trkpt><trkpt lat="45.69386017579731" lon="9.22444767990331"><ele>279.0</ele><time>2026-04-04T09:04:51.999Z</time></trkpt><trkpt lat="45.69411642838678" lon="9.22468201656274"><ele>279.0</ele><time>2026-04-04T09:04:52.999Z</time></trkpt><trkpt lat="45.69437198154973" lon="9.224919641609096"><ele>279.5</ele><time>2026-04-04T09:04:53.999Z</time></trkpt><trkpt lat="45.69462439833762" lon="9.225154951645091"><ele>280.0</ele><time>2026-04-04T09:04:54.999Z</time></trkpt><trkpt lat="45.6948750530001" lon="9.225387714408871"><ele>280.0</ele><time>2026-04-04T09:04:55.999Z</time></trkpt><trkpt lat="45.69511878525411" lon="9.225612481828794"><ele>280.0</ele><time>2026-04-04T09:04:56.999Z</time></trkpt><trkpt lat="45.695360526961124" lon="9.225831625419394"><ele>283.5</ele><time>2026-04-04T09:04:57.999Z</time></trkpt><trkpt lat="45.69559860920752" lon="9.226049738478027"><ele>287.0</ele><time>2026-04-04T09:04:58.999Z</time></trkpt><trkpt lat="45.69583202358478" lon="9.226266232458672"><ele>285.5</ele><time>2026-04-04T09:04:59.999Z</time></trkpt><trkpt lat="45.6960612186093" lon="9.226480514889786"><ele>284.0</ele><time>2026-04-04T09:05:00.999Z</time></trkpt><trkpt lat="45.69629572180956" lon="9.22669793308941"><ele>287.5</ele><time>2026-04-04T09:05:01.999Z</time></trkpt><trkpt lat="45.696528471669886" lon="9.226915982504428"><ele>291.0</ele><time>2026-04-04T09:05:02.999Z</time></trkpt><trkpt lat="45.69675780344661" lon="9.227129360973002"><ele>292.5</ele><time>2026-04-04T09:05:03.999Z</time></trkpt><trkpt lat="45.69698636353441" lon="9.227342512305212"><ele>294.0</ele><time>2026-04-04T09:05:04.999Z</time></trkpt><trkpt lat="45.69721466560666" lon="9.227551777724747"><ele>294.0</ele><time>2026-04-04T09:05:05.999Z</time></trkpt><trkpt lat="45.697438961848526" lon="9.227757142127993"><ele>294.0</ele><time>2026-04-04T09:05:06.999Z</time></trkpt><trkpt lat="45.697660677914044" lon="9.227960626228658"><ele>293.0</ele><time>2026-04-04T09:05:07.999Z</time></trkpt><trkpt lat="45.69788841503612" lon="9.22816751522806"><ele>292.0</ele><time>2026-04-04T09:05:08.999Z</time></trkpt><trkpt lat="45.69810715891459" lon="9.228380124791064"><ele>292.0</ele><time>2026-04-04T09:05:09.999Z</time></trkpt><trkpt lat="45.6983334005912" lon="9.22858914025687"><ele>292.0</ele><time>2026-04-04T09:05:10.999Z</time></trkpt><trkpt lat="45.698557361388715" lon="9.228793284909953"><ele>290.5</ele><time>2026-04-04T09:05:11.999Z</time></trkpt><trkpt lat="45.69877672363707" lon="9.22899745332009"><ele>289.0</ele><time>2026-04-04T09:05:12.999Z</time></trkpt><trkpt lat="45.69899651902295" lon="9.229200794914222"><ele>289.0</ele><time>2026-04-04T09:05:13.999Z</time></trkpt><trkpt lat="45.69921266892242" lon="9.22940185887979"><ele>289.0</ele><time>2026-04-04T09:05:14.999Z</time></trkpt><trkpt lat="45.699421372928626" lon="9.22959113041355"><ele>288.5</ele><time>2026-04-04T09:05:15.999Z</time></trkpt><trkpt lat="45.69962804404839" lon="9.229778310444438"><ele>288.0</ele><time>2026-04-04T09:05:16.999Z</time></trkpt><trkpt lat="45.699831644790564" lon="9.229962323789234"><ele>288.0</ele><time>2026-04-04T09:05:17.999Z</time></trkpt><trkpt lat="45.70003294230836" lon="9.230146663726892"><ele>288.0</ele><time>2026-04-04T09:05:18.999Z</time></trkpt><trkpt lat="45.70023804069032" lon="9.230337569011672"><ele>288.0</ele><time>2026-04-04T09:05:19.999Z</time></trkpt><trkpt lat="45.70044097707992" lon="9.230528147177683"><ele>288.0</ele><time>2026-04-04T09:05:20.999Z</time></trkpt><trkpt lat="45.700645811532574" lon="9.230712054348178"><ele>288.0</ele><time>2026-04-04T09:05:21.999Z</time></trkpt><trkpt lat="45.70084518114187" lon="9.230901459642803"><ele>288.0</ele><time>2026-04-04T09:05:22.999Z</time></trkpt><trkpt lat="45.70104824062661" lon="9.23108884208095"><ele>286.0</ele><time>2026-04-04T09:05:23.999Z</time></trkpt><trkpt lat="45.701251107906586" lon="9.231262521177426"><ele>284.0</ele><time>2026-04-04T09:05:24.999Z</time></trkpt><trkpt lat="45.70144944940417" lon="9.231412982658755"><ele>283.6666666666667</ele><time>2026-04-04T09:05:25.999Z</time></trkpt><trkpt lat="45.70165383529659" lon="9.231541426286801"><ele>283.3333333333333</ele><time>2026-04-04T09:05:26.999Z</time></trkpt><trkpt lat="45.70185583932662" lon="9.231633375169055"><ele>283.0</ele><time>2026-04-04T09:05:27.999Z</time></trkpt><trkpt lat="45.70204983744708" lon="9.231697604304378"><ele>283.0</ele><time>2026-04-04T09:05:28.999Z</time></trkpt><trkpt lat="45.70223817112281" lon="9.231739294596743"><ele>283.0</ele><time>2026-04-04T09:05:29.999Z</time></trkpt><trkpt lat="45.70241216086755" lon="9.231767527014961"><ele>283.0</ele><time>2026-04-04T09:05:30.999Z</time></trkpt><trkpt lat="45.70257294005236" lon="9.23177047169917"><ele>283.0</ele><time>2026-04-04T09:05:31.999Z</time></trkpt><trkpt lat="45.70274117586325" lon="9.231758995295278"><ele>283.0</ele><time>2026-04-04T09:05:32.999Z</time></trkpt><trkpt lat="45.70292863529599" lon="9.23173607752785"><ele>283.0</ele><time>2026-04-04T09:05:33.999Z</time></trkpt><trkpt lat="45.70311384904098" lon="9.231695347960287"><ele>284.66666666666663</ele><time>2026-04-04T09:05:34.999Z</time></trkpt><trkpt lat="45.70329332331949" lon="9.231631211201119"><ele>286.3333333333333</ele><time>2026-04-04T09:05:35.999Z</time></trkpt><trkpt lat="45.70346796013118" lon="9.231545763486892"><ele>288.0</ele><time>2026-04-04T09:05:36.999Z</time></trkpt><trkpt lat="45.703633565148685" lon="9.231447596905705"><ele>289.3333333333333</ele><time>2026-04-04T09:05:37.999Z</time></trkpt><trkpt lat="45.70379638559839" lon="9.23133961770258"><ele>290.66666666666663</ele><time>2026-04-04T09:05:39Z</time></trkpt><trkpt lat="45.70397036480182" lon="9.231195563317794"><ele>292.0</ele><time>2026-04-04T09:05:40Z</time></trkpt><trkpt lat="45.704142110957434" lon="9.231040690432462"><ele>292.0</ele><time>2026-04-04T09:05:41Z</time></trkpt><trkpt lat="45.70429690086712" lon="9.230876439966343"><ele>292.0</ele><time>2026-04-04T09:05:42Z</time></trkpt><trkpt lat="45.70444091487853" lon="9.230702285114312"><ele>292.0</ele><time>2026-04-04T09:05:43Z</time></trkpt><trkpt lat="45.704591104906825" lon="9.230516779918545"><ele>293.0</ele><time>2026-04-04T09:05:44Z</time></trkpt><trkpt lat="45.70474163771019" lon="9.23032818142829"><ele>294.0</ele><time>2026-04-04T09:05:45Z</time></trkpt><trkpt lat="45.70488218605208" lon="9.230140016812864"><ele>295.0</ele><time>2026-04-04T09:05:46Z</time></trkpt><trkpt lat="45.70501760639884" lon="9.229969156801003"><ele>295.3333333333333</ele><time>2026-04-04T09:05:47Z</time></trkpt><trkpt lat="45.70515736067124" lon="9.229806796311994"><ele>295.6666666666667</ele><time>2026-04-04T09:05:48Z</time></trkpt><trkpt lat="45.705311160691565" lon="9.229620627099736"><ele>296.0</ele><time>2026-04-04T09:05:49Z</time></trkpt><trkpt lat="45.705466962297976" lon="9.229430227015104"><ele>296.0</ele><time>2026-04-04T09:05:50Z</time></trkpt><trkpt lat="45.70562338242289" lon="9.229254937800041"><ele>296.0</ele><time>2026-04-04T09:05:51Z</time></trkpt><trkpt lat="45.70579328204259" lon="9.2291071164509"><ele>296.0</ele><time>2026-04-04T09:05:52Z</time></trkpt><trkpt lat="45.70597541571038" lon="9.22895394562089"><ele>297.6666666666667</ele><time>2026-04-04T09:05:53Z</time></trkpt><trkpt lat="45.70616712905617" lon="9.228796091723739"><ele>299.3333333333333</ele><time>2026-04-04T09:05:54Z</time></trkpt><trkpt lat="45.70635816033493" lon="9.228666057001254"><ele>301.0</ele><time>2026-04-04T09:05:55Z</time></trkpt><trkpt lat="45.7065219805016" lon="9.228575869961897"><ele>301.0</ele><time>2026-04-04T09:05:56Z</time></trkpt><trkpt lat="45.70665617946002" lon="9.228509992611183"><ele>301.0</ele><time>2026-04-04T09:05:57Z</time></trkpt><trkpt lat="45.70679173027883" lon="9.22846466408698"><ele>301.0</ele><time>2026-04-04T09:05:58Z</time></trkpt><trkpt lat="45.70696205993201" lon="9.22840183223497"><ele>301.3333333333333</ele><time>2026-04-04T09:05:59Z</time></trkpt><trkpt lat="45.70715857020727" lon="9.228337418254176"><ele>301.6666666666667</ele><time>2026-04-04T09:06:00Z</time></trkpt><trkpt lat="45.70735085998972" lon="9.228277561007882"><ele>302.0</ele><time>2026-04-04T09:06:01Z</time></trkpt><trkpt lat="45.70753473026624" lon="9.228230543285882"><ele>302.0</ele><time>2026-04-04T09:06:02Z</time></trkpt><trkpt lat="45.70770250657463" lon="9.228189151599215"><ele>302.0</ele><time>2026-04-04T09:06:03Z</time></trkpt><trkpt lat="45.70785910197085" lon="9.228156674484751"><ele>302.0</ele><time>2026-04-04T09:06:04Z</time></trkpt><trkpt lat="45.708020185104516" lon="9.228141750392874"><ele>301.0</ele><time>2026-04-04T09:06:05Z</time></trkpt><trkpt lat="45.708201235879535" lon="9.228133408471539"><ele>300.0</ele><time>2026-04-04T09:06:06Z</time></trkpt><trkpt lat="45.708392321391656" lon="9.228113270322574"><ele>299.0</ele><time>2026-04-04T09:06:07Z</time></trkpt><trkpt lat="45.70857840045948" lon="9.228083852093658"><ele>297.6666666666667</ele><time>2026-04-04T09:06:08Z</time></trkpt><trkpt lat="45.70876417872538" lon="9.228052250530297"><ele>296.3333333333333</ele><time>2026-04-04T09:06:09Z</time></trkpt><trkpt lat="45.70895634447854" lon="9.228027837265683"><ele>295.0</ele><time>2026-04-04T09:06:10Z</time></trkpt><trkpt lat="45.7091553999545" lon="9.22800325262431"><ele>295.0</ele><time>2026-04-04T09:06:11Z</time></trkpt><trkpt lat="45.70935607868167" lon="9.22798138745242"><ele>295.0</ele><time>2026-04-04T09:06:12Z</time></trkpt><trkpt lat="45.709554773751826" lon="9.227954847675859"><ele>295.0</ele><time>2026-04-04T09:06:13Z</time></trkpt><trkpt lat="45.70975756226677" lon="9.227923084104793"><ele>294.3333333333333</ele><time>2026-04-04T09:06:14Z</time></trkpt><trkpt lat="45.7099383820172" lon="9.227894578230439"><ele>293.6666666666667</ele><time>2026-04-04T09:06:15Z</time></trkpt><trkpt lat="45.71017608159996" lon="9.227866940254932"><ele>293.0</ele><time>2026-04-04T09:06:16Z</time></trkpt><trkpt lat="45.71040040408229" lon="9.227841510516406"><ele>291.6666666666667</ele><time>2026-04-04T09:06:17Z</time></trkpt><trkpt lat="45.710616769697275" lon="9.227810413470431"><ele>290.3333333333333</ele><time>2026-04-04T09:06:18Z</time></trkpt><trkpt lat="45.71083437057815" lon="9.227780635353659"><ele>289.0</ele><time>2026-04-04T09:06:19Z</time></trkpt><trkpt lat="45.71105933358145" lon="9.227750165508484"><ele>288.0</ele><time>2026-04-04T09:06:20Z</time></trkpt><trkpt lat="45.711288881661616" lon="9.227719169803908"><ele>287.0</ele><time>2026-04-04T09:06:21Z</time></trkpt><trkpt lat="45.711524573996854" lon="9.227690321893297"><ele>287.0</ele><time>2026-04-04T09:06:22Z</time></trkpt><trkpt lat="45.71175951249879" lon="9.227659124930884"><ele>287.0</ele><time>2026-04-04T09:06:23Z</time></trkpt><trkpt lat="45.71199559085885" lon="9.227630726055146"><ele>285.0</ele><time>2026-04-04T09:06:24Z</time></trkpt><trkpt lat="45.71222957319861" lon="9.227598871264378"><ele>283.0</ele><time>2026-04-04T09:06:25Z</time></trkpt><trkpt lat="45.7124600005746" lon="9.227566295875526"><ele>283.0</ele><time>2026-04-04T09:06:26Z</time></trkpt><trkpt lat="45.712678655227435" lon="9.227535141156595"><ele>283.0</ele><time>2026-04-04T09:06:27Z</time></trkpt><trkpt lat="45.71289191702701" lon="9.227510391276386"><ele>283.0</ele><time>2026-04-04T09:06:28Z</time></trkpt><trkpt lat="45.713104722287554" lon="9.2274844868259"><ele>282.0</ele><time>2026-04-04T09:06:29Z</time></trkpt><trkpt lat="45.713318042386156" lon="9.227454702434914"><ele>281.0</ele><time>2026-04-04T09:06:30Z</time></trkpt><trkpt lat="45.71352119151235" lon="9.227427569880328"><ele>280.0</ele><time>2026-04-04T09:06:30.999Z</time></trkpt><trkpt lat="45.71373502811425" lon="9.227409227158509"><ele>277.66666666666663</ele><time>2026-04-04T09:06:31.999Z</time></trkpt><trkpt lat="45.71394827222169" lon="9.227395499120473"><ele>275.3333333333333</ele><time>2026-04-04T09:06:32.999Z</time></trkpt><trkpt lat="45.71414751680629" lon="9.22739702315115"><ele>273.0</ele><time>2026-04-04T09:06:33.999Z</time></trkpt><trkpt lat="45.71434201880885" lon="9.22742126595494"><ele>271.0</ele><time>2026-04-04T09:06:34.999Z</time></trkpt><trkpt lat="45.71452508496602" lon="9.227472439607347"><ele>269.0</ele><time>2026-04-04T09:06:35.999Z</time></trkpt><trkpt lat="45.71468183595766" lon="9.227530760198128"><ele>267.0</ele><time>2026-04-04T09:06:36.999Z</time></trkpt><trkpt lat="45.71482042363023" lon="9.227598635728684"><ele>267.0</ele><time>2026-04-04T09:06:37.999Z</time></trkpt><trkpt lat="45.71495516781476" lon="9.227674865282708"><ele>267.0</ele><time>2026-04-04T09:06:38.999Z</time></trkpt><trkpt lat="45.715095505728044" lon="9.227770015257123"><ele>267.0</ele><time>2026-04-04T09:06:39.999Z</time></trkpt><trkpt lat="45.715246747697186" lon="9.227898615578576"><ele>265.6666666666667</ele><time>2026-04-04T09:06:40.999Z</time></trkpt><trkpt lat="45.71540271488912" lon="9.228051347950062"><ele>264.33333333333337</ele><time>2026-04-04T09:06:41.999Z</time></trkpt><trkpt lat="45.71555548928052" lon="9.228222671826737"><ele>263.0</ele><time>2026-04-04T09:06:42.999Z</time></trkpt><trkpt lat="45.71568497541322" lon="9.228394840596179"><ele>262.0</ele><time>2026-04-04T09:06:43.999Z</time></trkpt><trkpt lat="45.71579194914557" lon="9.22856110918566"><ele>261.0</ele><time>2026-04-04T09:06:44.999Z</time></trkpt><trkpt lat="45.71588017951638" lon="9.22871440780476"><ele>260.0</ele><time>2026-04-04T09:06:45.999Z</time></trkpt><trkpt lat="45.71596575586843" lon="9.228866048140361"><ele>259.0</ele><time>2026-04-04T09:06:46.999Z</time></trkpt><trkpt lat="45.716044320838336" lon="9.22900886807198"><ele>258.4</ele><time>2026-04-04T09:06:47.999Z</time></trkpt><trkpt lat="45.71611879760195" lon="9.229148187481524"><ele>257.79999999999995</ele><time>2026-04-04T09:06:48.999Z</time></trkpt><trkpt lat="45.71619224283745" lon="9.2292850948905"><ele>257.20000000000005</ele><time>2026-04-04T09:06:49.999Z</time></trkpt><trkpt lat="45.71625525455076" lon="9.229406608169983"><ele>256.6</ele><time>2026-04-04T09:06:50.999Z</time></trkpt><trkpt lat="45.71631384850447" lon="9.229513711906796"><ele>256.0</ele><time>2026-04-04T09:06:51.999Z</time></trkpt><trkpt lat="45.71636876009016" lon="9.229616067218261"><ele>256.0</ele><time>2026-04-04T09:06:52.999Z</time></trkpt><trkpt lat="45.71641999853408" lon="9.229715085532305"><ele>256.0</ele><time>2026-04-04T09:06:53.999Z</time></trkpt><trkpt lat="45.71646870873615" lon="9.229802450310157"><ele>256.0</ele><time>2026-04-04T09:06:54.999Z</time></trkpt><trkpt lat="45.71651991230631" lon="9.229888148019151"><ele>256.0</ele><time>2026-04-04T09:06:55.999Z</time></trkpt><trkpt lat="45.71657815522269" lon="9.229995443109752"><ele>256.0</ele><time>2026-04-04T09:06:56.999Z</time></trkpt><trkpt lat="45.71664415767406" lon="9.230126340262045"><ele>256.25</ele><time>2026-04-04T09:06:57.999Z</time></trkpt><trkpt lat="45.71671844274129" lon="9.230273101160396"><ele>256.5</ele><time>2026-04-04T09:06:58.999Z</time></trkpt><trkpt lat="45.71680145439184" lon="9.2304317981334"><ele>256.75</ele><time>2026-04-04T09:06:59.999Z</time></trkpt><trkpt lat="45.71688954725921" lon="9.230595266316202"><ele>257.0</ele><time>2026-04-04T09:07:00.999Z</time></trkpt><trkpt lat="45.71698583826421" lon="9.23076873862499"><ele>256.0</ele><time>2026-04-04T09:07:01.999Z</time></trkpt><trkpt lat="45.71708151062318" lon="9.230945636129366"><ele>255.0</ele><time>2026-04-04T09:07:02.999Z</time></trkpt><trkpt lat="45.71716561936301" lon="9.231102297775681"><ele>254.0</ele><time>2026-04-04T09:07:03.999Z</time></trkpt><trkpt lat="45.71723100428181" lon="9.231224417385452"><ele>253.0</ele><time>2026-04-04T09:07:04.999Z</time></trkpt><trkpt lat="45.71729525324065" lon="9.231347564030504"><ele>251.5</ele><time>2026-04-04T09:07:05.999Z</time></trkpt><trkpt lat="45.71737459205532" lon="9.231495503405574"><ele>250.0</ele><time>2026-04-04T09:07:06.999Z</time></trkpt><trkpt lat="45.717463980548345" lon="9.231660825806715"><ele>248.5</ele><time>2026-04-04T09:07:07.999Z</time></trkpt><trkpt lat="45.71755376398761" lon="9.231829467668431"><ele>247.0</ele><time>2026-04-04T09:07:08.999Z</time></trkpt><trkpt lat="45.71764507540001" lon="9.231998175816734"><ele>247.0</ele><time>2026-04-04T09:07:09.999Z</time></trkpt><trkpt lat="45.717732242930325" lon="9.232164960918816"><ele>247.0</ele><time>2026-04-04T09:07:10.999Z</time></trkpt><trkpt lat="45.71781889685188" lon="9.232337969905023"><ele>247.0</ele><time>2026-04-04T09:07:11.999Z</time></trkpt><trkpt lat="45.71790110697249" lon="9.232488819602974"><ele>247.0</ele><time>2026-04-04T09:07:12.999Z</time></trkpt><trkpt lat="45.71798893425436" lon="9.232646950333553"><ele>246.33333333333331</ele><time>2026-04-04T09:07:13.999Z</time></trkpt><trkpt lat="45.718086742337576" lon="9.232830953038487"><ele>245.66666666666669</ele><time>2026-04-04T09:07:14.999Z</time></trkpt><trkpt lat="45.7181940246323" lon="9.233040924061873"><ele>245.0</ele><time>2026-04-04T09:07:15.999Z</time></trkpt><trkpt lat="45.71832240478973" lon="9.233278491030845"><ele>243.33333333333334</ele><time>2026-04-04T09:07:16.999Z</time></trkpt><trkpt lat="45.7184518924724" lon="9.23351863348191"><ele>241.66666666666669</ele><time>2026-04-04T09:07:17.999Z</time></trkpt><trkpt lat="45.7185653426566" lon="9.233729914989189"><ele>240.0</ele><time>2026-04-04T09:07:18.999Z</time></trkpt><trkpt lat="45.71866621895812" lon="9.233913270695247"><ele>242.0</ele><time>2026-04-04T09:07:19.999Z</time></trkpt><trkpt lat="45.718759841983655" lon="9.234080508401936"><ele>244.0</ele><time>2026-04-04T09:07:20.999Z</time></trkpt><trkpt lat="45.71885049018822" lon="9.234246302485548"><ele>246.0</ele><time>2026-04-04T09:07:21.999Z</time></trkpt><trkpt lat="45.71894494470038" lon="9.234435158926697"><ele>246.0</ele><time>2026-04-04T09:07:22.999Z</time></trkpt><trkpt lat="45.7190504147641" lon="9.234640929712308"><ele>246.0</ele><time>2026-04-04T09:07:23.999Z</time></trkpt><trkpt lat="45.71916214242489" lon="9.234844534105736"><ele>246.0</ele><time>2026-04-04T09:07:24.999Z</time></trkpt><trkpt lat="45.7192713865882" lon="9.235044949803171"><ele>248.66666666666669</ele><time>2026-04-04T09:07:25.999Z</time></trkpt><trkpt lat="45.71938709922116" lon="9.235254748880513"><ele>251.33333333333334</ele><time>2026-04-04T09:07:26.999Z</time></trkpt><trkpt lat="45.7194987634503" lon="9.235464810809962"><ele>254.0</ele><time>2026-04-04T09:07:27.999Z</time></trkpt><trkpt lat="45.71961503082386" lon="9.235689609942352"><ele>254.5</ele><time>2026-04-04T09:07:28.999Z</time></trkpt><trkpt lat="45.71974183125128" lon="9.235937763452515"><ele>255.0</ele><time>2026-04-04T09:07:29.999Z</time></trkpt><trkpt lat="45.71989131411562" lon="9.236216237971465"><ele>255.5</ele><time>2026-04-04T09:07:30.999Z</time></trkpt><trkpt lat="45.720055789791786" lon="9.23653690965222"><ele>256.0</ele><time>2026-04-04T09:07:31.999Z</time></trkpt><trkpt lat="45.720227283241364" lon="9.236838928035642"><ele>253.5</ele><time>2026-04-04T09:07:32.999Z</time></trkpt><trkpt lat="45.72038156213321" lon="9.237155009060004"><ele>251.0</ele><time>2026-04-04T09:07:33.999Z</time></trkpt><trkpt lat="45.72054778973332" lon="9.23747620727589"><ele>250.0</ele><time>2026-04-04T09:07:34.999Z</time></trkpt><trkpt lat="45.72071773530155" lon="9.237791215900211"><ele>249.0</ele><time>2026-04-04T09:07:35.999Z</time></trkpt><trkpt lat="45.72087944983936" lon="9.238094463968519"><ele>245.5</ele><time>2026-04-04T09:07:36.999Z</time></trkpt><trkpt lat="45.72104084875862" lon="9.238400449148909"><ele>242.0</ele><time>2026-04-04T09:07:37.999Z</time></trkpt><trkpt lat="45.72119963701533" lon="9.238698915471002"><ele>242.0</ele><time>2026-04-04T09:07:38.999Z</time></trkpt><trkpt lat="45.721354571774214" lon="9.238991072809961"><ele>242.0</ele><time>2026-04-04T09:07:39.999Z</time></trkpt><trkpt lat="45.72150950471924" lon="9.239283161234969"><ele>242.0</ele><time>2026-04-04T09:07:40.999Z</time></trkpt><trkpt lat="45.72166641144256" lon="9.239575485428396"><ele>242.0</ele><time>2026-04-04T09:07:41.999Z</time></trkpt><trkpt lat="45.721822455069194" lon="9.239858566148596"><ele>243.0</ele><time>2026-04-04T09:07:42.999Z</time></trkpt><trkpt lat="45.72197655326871" lon="9.240143128552297"><ele>244.0</ele><time>2026-04-04T09:07:43.999Z</time></trkpt><trkpt lat="45.72212995530514" lon="9.24042704912011"><ele>249.5</ele><time>2026-04-04T09:07:45Z</time></trkpt><trkpt lat="45.72227871437249" lon="9.24070622424057"><ele>255.0</ele><time>2026-04-04T09:07:46Z</time></trkpt><trkpt lat="45.72242601713052" lon="9.240981341203542"><ele>255.0</ele><time>2026-04-04T09:07:47Z</time></trkpt><trkpt lat="45.72257071518012" lon="9.241250526313534"><ele>255.0</ele><time>2026-04-04T09:07:48Z</time></trkpt><trkpt lat="45.722719125455" lon="9.241526268595429"><ele>256.0</ele><time>2026-04-04T09:07:49Z</time></trkpt><trkpt lat="45.72287145748545" lon="9.24180855530918"><ele>257.0</ele><time>2026-04-04T09:07:50Z</time></trkpt><trkpt lat="45.72302214403415" lon="9.242082337363797"><ele>259.0</ele><time>2026-04-04T09:07:51Z</time></trkpt><trkpt lat="45.7231661144866" lon="9.242346777239954"><ele>261.0</ele><time>2026-04-04T09:07:52Z</time></trkpt><trkpt lat="45.72331457696984" lon="9.242602757047756"><ele>261.0</ele><time>2026-04-04T09:07:53Z</time></trkpt><trkpt lat="45.723458709887645" lon="9.242831466482286"><ele>261.0</ele><time>2026-04-04T09:07:54Z</time></trkpt><trkpt lat="45.72360437936824" lon="9.243037141646123"><ele>261.0</ele><time>2026-04-04T09:07:55Z</time></trkpt><trkpt lat="45.723761362981065" lon="9.2432325453078"><ele>262.3333333333333</ele><time>2026-04-04T09:07:56Z</time></trkpt><trkpt lat="45.723918701585646" lon="9.243421039868103"><ele>263.66666666666663</ele><time>2026-04-04T09:07:57Z</time></trkpt><trkpt lat="45.724080063208255" lon="9.243608040304661"><ele>265.0</ele><time>2026-04-04T09:07:58Z</time></trkpt><trkpt lat="45.724234902731915" lon="9.24377462285988"><ele>265.0</ele><time>2026-04-04T09:07:59Z</time></trkpt><trkpt lat="45.724380949245266" lon="9.243918571773069"><ele>265.0</ele><time>2026-04-04T09:08:00Z</time></trkpt><trkpt lat="45.724524853880084" lon="9.24405718511018"><ele>265.0</ele><time>2026-04-04T09:08:01Z</time></trkpt><trkpt lat="45.724662663692044" lon="9.24419151285512"><ele>267.0</ele><time>2026-04-04T09:08:02Z</time></trkpt><trkpt lat="45.72479783100753" lon="9.244327902689912"><ele>269.0</ele><time>2026-04-04T09:08:03Z</time></trkpt><trkpt lat="45.72494255032249" lon="9.24447513991419"><ele>271.0</ele><time>2026-04-04T09:08:04Z</time></trkpt><trkpt lat="45.72510234296831" lon="9.244634471002959"><ele>270.66666666666663</ele><time>2026-04-04T09:08:05Z</time></trkpt><trkpt lat="45.72526380662716" lon="9.244801231151893"><ele>270.3333333333333</ele><time>2026-04-04T09:08:06Z</time></trkpt><trkpt lat="45.72543624364709" lon="9.244983878407739"><ele>270.0</ele><time>2026-04-04T09:08:07Z</time></trkpt><trkpt lat="45.72562574114242" lon="9.245177208483812"><ele>270.0</ele><time>2026-04-04T09:08:08Z</time></trkpt><trkpt lat="45.72582893096477" lon="9.245365580962222"><ele>270.0</ele><time>2026-04-04T09:08:09Z</time></trkpt><trkpt lat="45.72602131780573" lon="9.245545598467434"><ele>268.0</ele><time>2026-04-04T09:08:10Z</time></trkpt><trkpt lat="45.72619909724313" lon="9.245724592970074"><ele>266.0</ele><time>2026-04-04T09:08:11Z</time></trkpt><trkpt lat="45.726383259120716" lon="9.245918488088597"><ele>264.0</ele><time>2026-04-04T09:08:12Z</time></trkpt><trkpt lat="45.726589713150304" lon="9.246122822477007"><ele>264.0</ele><time>2026-04-04T09:08:13Z</time></trkpt><trkpt lat="45.726805582688726" lon="9.2463284335391"><ele>264.0</ele><time>2026-04-04T09:08:14Z</time></trkpt><trkpt lat="45.727026052406636" lon="9.246552716319782"><ele>262.5</ele><time>2026-04-04T09:08:15Z</time></trkpt><trkpt lat="45.72725020711004" lon="9.246785737020382"><ele>261.0</ele><time>2026-04-04T09:08:16Z</time></trkpt><trkpt lat="45.72747195188394" lon="9.247009508298087"><ele>261.0</ele><time>2026-04-04T09:08:17Z</time></trkpt><trkpt lat="45.72768298197194" lon="9.247221329274947"><ele>261.0</ele><time>2026-04-04T09:08:18Z</time></trkpt><trkpt lat="45.727877261385856" lon="9.247413276682298"><ele>258.5</ele><time>2026-04-04T09:08:19Z</time></trkpt><trkpt lat="45.728064675263276" lon="9.24759759929297"><ele>256.0</ele><time>2026-04-04T09:08:20Z</time></trkpt><trkpt lat="45.72825708738594" lon="9.247787473293753"><ele>256.0</ele><time>2026-04-04T09:08:21Z</time></trkpt><trkpt lat="45.728451944967375" lon="9.247982295773744"><ele>256.0</ele><time>2026-04-04T09:08:22Z</time></trkpt><trkpt lat="45.72864474309137" lon="9.24816682224658"><ele>255.5</ele><time>2026-04-04T09:08:23Z</time></trkpt><trkpt lat="45.72884270629847" lon="9.248331515276753"><ele>255.0</ele><time>2026-04-04T09:08:24Z</time></trkpt><trkpt lat="45.72904554755778" lon="9.248473033863544"><ele>255.0</ele><time>2026-04-04T09:08:25Z</time></trkpt><trkpt lat="45.729249935961235" lon="9.24859596827022"><ele>255.0</ele><time>2026-04-04T09:08:26Z</time></trkpt><trkpt lat="45.729460995537" lon="9.248693094435831"><ele>255.0</ele><time>2026-04-04T09:08:27Z</time></trkpt><trkpt lat="45.729672423056215" lon="9.248767354154081"><ele>254.33333333333331</ele><time>2026-04-04T09:08:28Z</time></trkpt><trkpt lat="45.72988621810316" lon="9.248816164384905"><ele>253.66666666666666</ele><time>2026-04-04T09:08:29Z</time></trkpt><trkpt lat="45.73010247346045" lon="9.248857439392772"><ele>253.0</ele><time>2026-04-04T09:08:30Z</time></trkpt><trkpt lat="45.73032594501584" lon="9.248890951881172"><ele>250.0</ele><time>2026-04-04T09:08:31Z</time></trkpt><trkpt lat="45.73055897713345" lon="9.24892553350654"><ele>247.0</ele><time>2026-04-04T09:08:32Z</time></trkpt><trkpt lat="45.730807546277155" lon="9.248964724679604"><ele>245.0</ele><time>2026-04-04T09:08:33Z</time></trkpt><trkpt lat="45.73106634378629" lon="9.249012800026724"><ele>243.0</ele><time>2026-04-04T09:08:33.999Z</time></trkpt><trkpt lat="45.73133059015307" lon="9.249058592284454"><ele>243.0</ele><time>2026-04-04T09:08:34.999Z</time></trkpt><trkpt lat="45.73159006132828" lon="9.249094430979719"><ele>243.0</ele><time>2026-04-04T09:08:35.999Z</time></trkpt><trkpt lat="45.73184391286956" lon="9.2491211637964"><ele>243.0</ele><time>2026-04-04T09:08:36.999Z</time></trkpt><trkpt lat="45.7320981580218" lon="9.24914714521004"><ele>243.0</ele><time>2026-04-04T09:08:37.999Z</time></trkpt><trkpt lat="45.73234959773538" lon="9.249178361333598"><ele>243.0</ele><time>2026-04-04T09:08:38.999Z</time></trkpt><trkpt lat="45.73260452385449" lon="9.249210717664152"><ele>243.0</ele><time>2026-04-04T09:08:39.999Z</time></trkpt><trkpt lat="45.732857074733474" lon="9.249246649233678"><ele>243.0</ele><time>2026-04-04T09:08:40.999Z</time></trkpt><trkpt lat="45.733100322077505" lon="9.249283117777416"><ele>243.0</ele><time>2026-04-04T09:08:41.999Z</time></trkpt><trkpt lat="45.73334770407854" lon="9.249317206946923"><ele>243.0</ele><time>2026-04-04T09:08:42.999Z</time></trkpt><trkpt lat="45.733595198202046" lon="9.249349421790651"><ele>243.0</ele><time>2026-04-04T09:08:43.999Z</time></trkpt><trkpt lat="45.73384502857659" lon="9.249383405949239"><ele>243.0</ele><time>2026-04-04T09:08:44.999Z</time></trkpt><trkpt lat="45.734100186204984" lon="9.249419151400495"><ele>243.0</ele><time>2026-04-04T09:08:45.999Z</time></trkpt><trkpt lat="45.7343522956038" lon="9.249457296811592"><ele>242.5</ele><time>2026-04-04T09:08:46.999Z</time></trkpt><trkpt lat="45.73459763852842" lon="9.249491843347048"><ele>242.0</ele><time>2026-04-04T09:08:47.999Z</time></trkpt><trkpt lat="45.73483678450662" lon="9.249523182958054"><ele>242.0</ele><time>2026-04-04T09:08:48.999Z</time></trkpt><trkpt lat="45.73507414206682" lon="9.249557378206745"><ele>242.0</ele><time>2026-04-04T09:08:49.999Z</time></trkpt><trkpt lat="45.73531899001476" lon="9.249594557729614"><ele>241.5</ele><time>2026-04-04T09:08:50.999Z</time></trkpt><trkpt lat="45.73555919783022" lon="9.249627974866465"><ele>241.0</ele><time>2026-04-04T09:08:51.999Z</time></trkpt><trkpt lat="45.73578985593129" lon="9.249662783850658"><ele>241.0</ele><time>2026-04-04T09:08:52.999Z</time></trkpt><trkpt lat="45.73602261931398" lon="9.249715503288177"><ele>241.0</ele><time>2026-04-04T09:08:53.999Z</time></trkpt><trkpt lat="45.73625980175574" lon="9.249791007185815"><ele>242.0</ele><time>2026-04-04T09:08:54.999Z</time></trkpt><trkpt lat="45.736499163775285" lon="9.249907253488145"><ele>243.0</ele><time>2026-04-04T09:08:55.999Z</time></trkpt><trkpt lat="45.736737050863816" lon="9.250042203431825"><ele>243.0</ele><time>2026-04-04T09:08:56.999Z</time></trkpt><trkpt lat="45.73696658724107" lon="9.250212612481192"><ele>243.0</ele><time>2026-04-04T09:08:57.999Z</time></trkpt><trkpt lat="45.737182611237635" lon="9.250402438174007"><ele>243.0</ele><time>2026-04-04T09:08:58.999Z</time></trkpt><trkpt lat="45.737386517272355" lon="9.250612521952696"><ele>243.0</ele><time>2026-04-04T09:08:59.999Z</time></trkpt><trkpt lat="45.737577609624644" lon="9.250834851910007"><ele>245.0</ele><time>2026-04-04T09:09:00.999Z</time></trkpt><trkpt lat="45.73776663889403" lon="9.251066736426553"><ele>247.0</ele><time>2026-04-04T09:09:01.999Z</time></trkpt><trkpt lat="45.73796872203747" lon="9.251300702749592"><ele>248.0</ele><time>2026-04-04T09:09:02.999Z</time></trkpt><trkpt lat="45.738171810319706" lon="9.25153082548407"><ele>249.0</ele><time>2026-04-04T09:09:03.999Z</time></trkpt><trkpt lat="45.738359812737855" lon="9.251739724842146"><ele>249.0</ele><time>2026-04-04T09:09:04.999Z</time></trkpt><trkpt lat="45.738538451430195" lon="9.251933969728993"><ele>249.0</ele><time>2026-04-04T09:09:05.999Z</time></trkpt><trkpt lat="45.73871278127213" lon="9.252123222948331"><ele>249.0</ele><time>2026-04-04T09:09:06.999Z</time></trkpt><trkpt lat="45.738887381338635" lon="9.252311598980533"><ele>250.0</ele><time>2026-04-04T09:09:07.999Z</time></trkpt><trkpt lat="45.739064278584394" lon="9.252502701387863"><ele>251.0</ele><time>2026-04-04T09:09:08.999Z</time></trkpt><trkpt lat="45.7392426291944" lon="9.252703459998784"><ele>252.0</ele><time>2026-04-04T09:09:09.999Z</time></trkpt><trkpt lat="45.739429368275474" lon="9.252912970740343"><ele>254.5</ele><time>2026-04-04T09:09:10.999Z</time></trkpt><trkpt lat="45.73961869147155" lon="9.25313147393518"><ele>257.0</ele><time>2026-04-04T09:09:11.999Z</time></trkpt><trkpt lat="45.73981178549534" lon="9.253348345781655"><ele>257.0</ele><time>2026-04-04T09:09:12.999Z</time></trkpt><trkpt lat="45.740012704783354" lon="9.253564670863568"><ele>257.0</ele><time>2026-04-04T09:09:13.999Z</time></trkpt><trkpt lat="45.740216708205196" lon="9.253781788904476"><ele>257.0</ele><time>2026-04-04T09:09:14.999Z</time></trkpt><trkpt lat="45.74041628785863" lon="9.254001937034769"><ele>257.0</ele><time>2026-04-04T09:09:15.999Z</time></trkpt><trkpt lat="45.74061077673713" lon="9.254225819438394"><ele>257.0</ele><time>2026-04-04T09:09:16.999Z</time></trkpt><trkpt lat="45.74080564010799" lon="9.254458544134122"><ele>257.0</ele><time>2026-04-04T09:09:17.999Z</time></trkpt><trkpt lat="45.741010408540156" lon="9.254691431799495"><ele>256.0</ele><time>2026-04-04T09:09:18.999Z</time></trkpt><trkpt lat="45.74122426942318" lon="9.254925443769542"><ele>255.0</ele><time>2026-04-04T09:09:19.999Z</time></trkpt><trkpt lat="45.74144571367755" lon="9.25516526547169"><ele>255.0</ele><time>2026-04-04T09:09:20.999Z</time></trkpt><trkpt lat="45.74167013146849" lon="9.255399729908895"><ele>255.0</ele><time>2026-04-04T09:09:21.999Z</time></trkpt><trkpt lat="45.741900620342186" lon="9.255647018639246"><ele>254.5</ele><time>2026-04-04T09:09:22.999Z</time></trkpt><trkpt lat="45.74212541435133" lon="9.255900638790948"><ele>254.0</ele><time>2026-04-04T09:09:23.999Z</time></trkpt><trkpt lat="45.742351738277996" lon="9.256153597072734"><ele>254.0</ele><time>2026-04-04T09:09:24.999Z</time></trkpt><trkpt lat="45.74257550623099" lon="9.256407418375092"><ele>254.0</ele><time>2026-04-04T09:09:25.999Z</time></trkpt><trkpt lat="45.74279564088478" lon="9.256649673695833"><ele>255.0</ele><time>2026-04-04T09:09:26.999Z</time></trkpt><trkpt lat="45.74300960171805" lon="9.256884905119481"><ele>256.0</ele><time>2026-04-04T09:09:27.999Z</time></trkpt><trkpt lat="45.74321462523014" lon="9.25711208070057"><ele>256.0</ele><time>2026-04-04T09:09:28.999Z</time></trkpt><trkpt lat="45.743411386973044" lon="9.257334093886712"><ele>256.0</ele><time>2026-04-04T09:09:29.999Z</time></trkpt><trkpt lat="45.74359601592734" lon="9.257542964958768"><ele>256.3333333333333</ele><time>2026-04-04T09:09:30.999Z</time></trkpt><trkpt lat="45.74377457578112" lon="9.257738288227017"><ele>256.6666666666667</ele><time>2026-04-04T09:09:31.999Z</time></trkpt><trkpt lat="45.74395365915137" lon="9.2579300024959"><ele>257.0</ele><time>2026-04-04T09:09:32.999Z</time></trkpt><trkpt lat="45.74413977190425" lon="9.258135828301539"><ele>257.5</ele><time>2026-04-04T09:09:33.999Z</time></trkpt><trkpt lat="45.744334317543604" lon="9.258356818372773"><ele>258.0</ele><time>2026-04-04T09:09:34.999Z</time></trkpt><trkpt lat="45.744530751182026" lon="9.25859562567906"><ele>258.0</ele><time>2026-04-04T09:09:35.999Z</time></trkpt><trkpt lat="45.74473186832817" lon="9.258842747487387"><ele>258.0</ele><time>2026-04-04T09:09:36.999Z</time></trkpt><trkpt lat="45.74493326788531" lon="9.259081690304331"><ele>258.0</ele><time>2026-04-04T09:09:37.999Z</time></trkpt><trkpt lat="45.74514525080364" lon="9.259320598670199"><ele>258.0</ele><time>2026-04-04T09:09:38.999Z</time></trkpt><trkpt lat="45.74536527241178" lon="9.259558746716335"><ele>257.0</ele><time>2026-04-04T09:09:39.999Z</time></trkpt><trkpt lat="45.74557952227114" lon="9.25979299144909"><ele>256.0</ele><time>2026-04-04T09:09:40.999Z</time></trkpt><trkpt lat="45.745788771328385" lon="9.26002644133383"><ele>256.0</ele><time>2026-04-04T09:09:41.999Z</time></trkpt><trkpt lat="45.7459969261679" lon="9.26025698772838"><ele>256.0</ele><time>2026-04-04T09:09:42.999Z</time></trkpt><trkpt lat="45.74620701506564" lon="9.260489166296558"><ele>257.0</ele><time>2026-04-04T09:09:43.999Z</time></trkpt><trkpt lat="45.74641117357381" lon="9.260718546734035"><ele>258.0</ele><time>2026-04-04T09:09:44.999Z</time></trkpt><trkpt lat="45.74661092085791" lon="9.260944244401848"><ele>258.0</ele><time>2026-04-04T09:09:45.999Z</time></trkpt><trkpt lat="45.74681085140947" lon="9.261165384318524"><ele>258.0</ele><time>2026-04-04T09:09:46.999Z</time></trkpt><trkpt lat="45.747010839541076" lon="9.261388889604925"><ele>260.0</ele><time>2026-04-04T09:09:47.999Z</time></trkpt><trkpt lat="45.74721508663425" lon="9.261616622809033"><ele>262.0</ele><time>2026-04-04T09:09:48.999Z</time></trkpt><trkpt lat="45.74741750750303" lon="9.261839319798105"><ele>262.0</ele><time>2026-04-04T09:09:49.999Z</time></trkpt><trkpt lat="45.747618838583" lon="9.262054041325227"><ele>262.0</ele><time>2026-04-04T09:09:51Z</time></trkpt><trkpt lat="45.74781135191396" lon="9.26225476231659"><ele>261.5</ele><time>2026-04-04T09:09:52Z</time></trkpt><trkpt lat="45.74799429258395" lon="9.262448147922344"><ele>261.0</ele><time>2026-04-04T09:09:53Z</time></trkpt><trkpt lat="45.748178562505146" lon="9.262649415313648"><ele>261.0</ele><time>2026-04-04T09:09:54Z</time></trkpt><trkpt lat="45.748352509790024" lon="9.262844324052999"><ele>261.0</ele><time>2026-04-04T09:09:55Z</time></trkpt><trkpt lat="45.74852825416892" lon="9.263042590411906"><ele>261.0</ele><time>2026-04-04T09:09:56Z</time></trkpt><trkpt lat="45.74871081681634" lon="9.26324885353357"><ele>261.0</ele><time>2026-04-04T09:09:57Z</time></trkpt><trkpt lat="45.7488961945966" lon="9.263456218388734"><ele>261.0</ele><time>2026-04-04T09:09:58Z</time></trkpt><trkpt lat="45.74908296024332" lon="9.263665127886927"><ele>261.0</ele><time>2026-04-04T09:09:59Z</time></trkpt><trkpt lat="45.74926780921502" lon="9.26387060658891"><ele>261.0</ele><time>2026-04-04T09:10:00Z</time></trkpt><trkpt lat="45.74945323799269" lon="9.264075498449856"><ele>262.5</ele><time>2026-04-04T09:10:01Z</time></trkpt><trkpt lat="45.749641464699" lon="9.26428934398803"><ele>264.0</ele><time>2026-04-04T09:10:02Z</time></trkpt><trkpt lat="45.74983251858599" lon="9.264502235615893"><ele>264.0</ele><time>2026-04-04T09:10:03Z</time></trkpt><trkpt lat="45.75002800817737" lon="9.264719430876688"><ele>264.0</ele><time>2026-04-04T09:10:04Z</time></trkpt><trkpt lat="45.75021938517887" lon="9.264932619912518"><ele>272.5</ele><time>2026-04-04T09:10:05Z</time></trkpt><trkpt lat="45.75040920243496" lon="9.265150712478114"><ele>281.0</ele><time>2026-04-04T09:10:06Z</time></trkpt><trkpt lat="45.750596865993906" lon="9.265364917978172"><ele>281.0</ele><time>2026-04-04T09:10:07Z</time></trkpt><trkpt lat="45.75078728086264" lon="9.26557783959999"><ele>281.0</ele><time>2026-04-04T09:10:08Z</time></trkpt><trkpt lat="45.7509755207151" lon="9.2657876243993"><ele>283.0</ele><time>2026-04-04T09:10:09Z</time></trkpt><trkpt lat="45.75116696528938" lon="9.265994221003897"><ele>285.0</ele><time>2026-04-04T09:10:10Z</time></trkpt><trkpt lat="45.75134796890833" lon="9.266210239998731"><ele>280.0</ele><time>2026-04-04T09:10:11Z</time></trkpt><trkpt lat="45.75154972163082" lon="9.266463440860669"><ele>275.0</ele><time>2026-04-04T09:10:12Z</time></trkpt><trkpt lat="45.75176261182451" lon="9.2667293344903"><ele>277.5</ele><time>2026-04-04T09:10:13Z</time></trkpt><trkpt lat="45.751976541723565" lon="9.266995353207289"><ele>280.0</ele><time>2026-04-04T09:10:14Z</time></trkpt><trkpt lat="45.75216921877734" lon="9.267255900692103"><ele>277.5</ele><time>2026-04-04T09:10:15Z</time></trkpt><trkpt lat="45.75233745402859" lon="9.267508703883761"><ele>275.0</ele><time>2026-04-04T09:10:16Z</time></trkpt><trkpt lat="45.75249475110834" lon="9.267755783868111"><ele>275.0</ele><time>2026-04-04T09:10:17Z</time></trkpt><trkpt lat="45.75265730058443" lon="9.267998645562262"><ele>275.0</ele><time>2026-04-04T09:10:18Z</time></trkpt><trkpt lat="45.75281690453332" lon="9.268233378319776"><ele>275.5</ele><time>2026-04-04T09:10:19Z</time></trkpt><trkpt lat="45.752977680014894" lon="9.26846912925345"><ele>276.0</ele><time>2026-04-04T09:10:20Z</time></trkpt><trkpt lat="45.75313936676081" lon="9.2687099394301"><ele>276.5</ele><time>2026-04-04T09:10:21Z</time></trkpt><trkpt lat="45.75330124983071" lon="9.268953984146284"><ele>277.0</ele><time>2026-04-04T09:10:22Z</time></trkpt><trkpt lat="45.753459523835346" lon="9.269196282663412"><ele>278.0</ele><time>2026-04-04T09:10:23Z</time></trkpt><trkpt lat="45.75361559251744" lon="9.269439047929625"><ele>279.0</ele><time>2026-04-04T09:10:24Z</time></trkpt><trkpt lat="45.753775692717554" lon="9.269681928801301"><ele>277.5</ele><time>2026-04-04T09:10:25Z</time></trkpt><trkpt lat="45.753936599453134" lon="9.269923765778"><ele>276.0</ele><time>2026-04-04T09:10:26Z</time></trkpt><trkpt lat="45.754097430836275" lon="9.270161393143445"><ele>276.0</ele><time>2026-04-04T09:10:27Z</time></trkpt><trkpt lat="45.754257427704296" lon="9.270394281535198"><ele>276.0</ele><time>2026-04-04T09:10:28Z</time></trkpt><trkpt lat="45.75440972975971" lon="9.270622952710601"><ele>276.0</ele><time>2026-04-04T09:10:29Z</time></trkpt><trkpt lat="45.754557794042135" lon="9.270848771763596"><ele>276.0</ele><time>2026-04-04T09:10:30Z</time></trkpt><trkpt lat="45.75470282317907" lon="9.271069025525543"><ele>276.0</ele><time>2026-04-04T09:10:31Z</time></trkpt><trkpt lat="45.75484850268221" lon="9.271292705027248"><ele>276.0</ele><time>2026-04-04T09:10:32Z</time></trkpt><trkpt lat="45.754997421980555" lon="9.271516460800743"><ele>276.0</ele><time>2026-04-04T09:10:33Z</time></trkpt><trkpt lat="45.755146161792794" lon="9.271739042672499"><ele>276.0</ele><time>2026-04-04T09:10:34Z</time></trkpt><trkpt lat="45.75529178931447" lon="9.271964448519263"><ele>276.0</ele><time>2026-04-04T09:10:35Z</time></trkpt><trkpt lat="45.755438878668734" lon="9.272195609947078"><ele>276.3333333333333</ele><time>2026-04-04T09:10:36Z</time></trkpt><trkpt lat="45.75558170924696" lon="9.272429731909712"><ele>276.66666666666663</ele><time>2026-04-04T09:10:37Z</time></trkpt><trkpt lat="45.75572401861244" lon="9.27267667283154"><ele>277.0</ele><time>2026-04-04T09:10:38Z</time></trkpt><trkpt lat="45.755877676923625" lon="9.272941143655958"><ele>278.0</ele><time>2026-04-04T09:10:39Z</time></trkpt><trkpt lat="45.756050332714416" lon="9.273220446521908"><ele>279.0</ele><time>2026-04-04T09:10:40Z</time></trkpt><trkpt lat="45.756236361367435" lon="9.273504193902992"><ele>279.0</ele><time>2026-04-04T09:10:41Z</time></trkpt><trkpt lat="45.75643685663886" lon="9.273793305274259"><ele>279.0</ele><time>2026-04-04T09:10:42Z</time></trkpt><trkpt lat="45.756637747547984" lon="9.27408315629936"><ele>279.5</ele><time>2026-04-04T09:10:43Z</time></trkpt><trkpt lat="45.75684221338622" lon="9.274382229757872"><ele>280.0</ele><time>2026-04-04T09:10:44Z</time></trkpt><trkpt lat="45.757050118283864" lon="9.274678100914143"><ele>281.0</ele><time>2026-04-04T09:10:45Z</time></trkpt><trkpt lat="45.757257666573906" lon="9.274959291568567"><ele>282.0</ele><time>2026-04-04T09:10:46Z</time></trkpt><trkpt lat="45.75746025015799" lon="9.275225849445059"><ele>282.0</ele><time>2026-04-04T09:10:46.999Z</time></trkpt><trkpt lat="45.75765371159769" lon="9.275493858498745"><ele>282.0</ele><time>2026-04-04T09:10:47.999Z</time></trkpt><trkpt lat="45.7578373327147" lon="9.275768837258669"><ele>284.0</ele><time>2026-04-04T09:10:48.999Z</time></trkpt><trkpt lat="45.758018088135685" lon="9.27604663897538"><ele>286.0</ele><time>2026-04-04T09:10:49.999Z</time></trkpt><trkpt lat="45.75819785854452" lon="9.276323369905775"><ele>286.5</ele><time>2026-04-04T09:10:50.999Z</time></trkpt><trkpt lat="45.758374133597236" lon="9.276607055996083"><ele>287.0</ele><time>2026-04-04T09:10:51.999Z</time></trkpt><trkpt lat="45.758535516542395" lon="9.27689643386392"><ele>287.0</ele><time>2026-04-04T09:10:52.999Z</time></trkpt><trkpt lat="45.7586863340318" lon="9.277196869412528"><ele>287.0</ele><time>2026-04-04T09:10:53.999Z</time></trkpt><trkpt lat="45.758828693261684" lon="9.277506320844898"><ele>288.5</ele><time>2026-04-04T09:10:54.999Z</time></trkpt><trkpt lat="45.75896248302865" lon="9.277826417767677"><ele>290.0</ele><time>2026-04-04T09:10:55.999Z</time></trkpt><trkpt lat="45.75909573425836" lon="9.278148672469838"><ele>291.0</ele><time>2026-04-04T09:10:56.999Z</time></trkpt><trkpt lat="45.75922728274765" lon="9.278473407281087"><ele>292.0</ele><time>2026-04-04T09:10:57.999Z</time></trkpt><trkpt lat="45.759366285314066" lon="9.278808611011863"><ele>292.5</ele><time>2026-04-04T09:10:58.999Z</time></trkpt><trkpt lat="45.759510782135905" lon="9.27914900972641"><ele>293.0</ele><time>2026-04-04T09:10:59.999Z</time></trkpt><trkpt lat="45.75965204050702" lon="9.279489024720244"><ele>294.0</ele><time>2026-04-04T09:11:00.999Z</time></trkpt><trkpt lat="45.7597935839718" lon="9.279830321832074"><ele>295.0</ele><time>2026-04-04T09:11:01.999Z</time></trkpt><trkpt lat="45.75993493844452" lon="9.280171085351336"><ele>295.0</ele><time>2026-04-04T09:11:02.999Z</time></trkpt><trkpt lat="45.760076997703585" lon="9.280506140916684"><ele>295.0</ele><time>2026-04-04T09:11:03.999Z</time></trkpt><trkpt lat="45.760222126647" lon="9.280845465441125"><ele>295.5</ele><time>2026-04-04T09:11:04.999Z</time></trkpt><trkpt lat="45.76036737216166" lon="9.281191667658007"><ele>296.0</ele><time>2026-04-04T09:11:05.999Z</time></trkpt><trkpt lat="45.76050972000118" lon="9.28153454878661"><ele>299.0</ele><time>2026-04-04T09:11:06.999Z</time></trkpt><trkpt lat="45.7606548368212" lon="9.28187777275511"><ele>302.0</ele><time>2026-04-04T09:11:07.999Z</time></trkpt><trkpt lat="45.76080344858617" lon="9.282228025210543"><ele>301.5</ele><time>2026-04-04T09:11:08.999Z</time></trkpt><trkpt lat="45.76095138189881" lon="9.282579805353027"><ele>301.0</ele><time>2026-04-04T09:11:09.999Z</time></trkpt><trkpt lat="45.76109891473663" lon="9.28292596994191"><ele>299.5</ele><time>2026-04-04T09:11:10.999Z</time></trkpt><trkpt lat="45.7612374260123" lon="9.283259187932396"><ele>298.0</ele><time>2026-04-04T09:11:11.999Z</time></trkpt><trkpt lat="45.761370439474845" lon="9.28358612305666"><ele>298.0</ele><time>2026-04-04T09:11:12.999Z</time></trkpt><trkpt lat="45.76149177818669" lon="9.283896103570253"><ele>298.0</ele><time>2026-04-04T09:11:13.999Z</time></trkpt><trkpt lat="45.761608771821706" lon="9.284207933082504"><ele>301.5</ele><time>2026-04-04T09:11:14.999Z</time></trkpt><trkpt lat="45.76173174443431" lon="9.284519067803078"><ele>305.0</ele><time>2026-04-04T09:11:15.999Z</time></trkpt><trkpt lat="45.76186124526324" lon="9.284810276523283"><ele>302.6666666666667</ele><time>2026-04-04T09:11:16.999Z</time></trkpt><trkpt lat="45.76197855495787" lon="9.285085423181584"><ele>300.3333333333333</ele><time>2026-04-04T09:11:17.999Z</time></trkpt><trkpt lat="45.762091172459634" lon="9.285349578166109"><ele>298.0</ele><time>2026-04-04T09:11:18.999Z</time></trkpt><trkpt lat="45.76220630767362" lon="9.285609519607952"><ele>298.0</ele><time>2026-04-04T09:11:19.999Z</time></trkpt><trkpt lat="45.76232594451611" lon="9.285866460122765"><ele>298.0</ele><time>2026-04-04T09:11:20.999Z</time></trkpt><trkpt lat="45.76245371390242" lon="9.286106075129807"><ele>298.0</ele><time>2026-04-04T09:11:21.999Z</time></trkpt><trkpt lat="45.7625918055089" lon="9.286331158570071"><ele>297.0</ele><time>2026-04-04T09:11:22.999Z</time></trkpt><trkpt lat="45.76274006452144" lon="9.286550634713874"><ele>296.0</ele><time>2026-04-04T09:11:23.999Z</time></trkpt><trkpt lat="45.762895788079554" lon="9.286756858664692"><ele>295.0</ele><time>2026-04-04T09:11:24.999Z</time></trkpt><trkpt lat="45.763063767349415" lon="9.286944103764043"><ele>295.0</ele><time>2026-04-04T09:11:25.999Z</time></trkpt><trkpt lat="45.76323749771222" lon="9.287113141866607"><ele>295.0</ele><time>2026-04-04T09:11:26.999Z</time></trkpt><trkpt lat="45.763414160563286" lon="9.287255965166056"><ele>295.0</ele><time>2026-04-04T09:11:27.999Z</time></trkpt><trkpt lat="45.763592789390025" lon="9.287384834580628"><ele>295.0</ele><time>2026-04-04T09:11:28.999Z</time></trkpt><trkpt lat="45.76377979209211" lon="9.287513558901649"><ele>295.0</ele><time>2026-04-04T09:11:29.999Z</time></trkpt><trkpt lat="45.763970598917595" lon="9.287621463184358"><ele>295.0</ele><time>2026-04-04T09:11:30.999Z</time></trkpt><trkpt lat="45.76416991973293" lon="9.287707378958434"><ele>294.0</ele><time>2026-04-04T09:11:31.999Z</time></trkpt><trkpt lat="45.764368730043515" lon="9.28777644554221"><ele>293.0</ele><time>2026-04-04T09:11:32.999Z</time></trkpt><trkpt lat="45.76457199470856" lon="9.287828470461207"><ele>292.0</ele><time>2026-04-04T09:11:33.999Z</time></trkpt><trkpt lat="45.76478459322239" lon="9.287863934479265"><ele>292.0</ele><time>2026-04-04T09:11:34.999Z</time></trkpt><trkpt lat="45.76499993128594" lon="9.287878872219459"><ele>292.0</ele><time>2026-04-04T09:11:35.999Z</time></trkpt><trkpt lat="45.76521550579367" lon="9.287875973814234"><ele>292.0</ele><time>2026-04-04T09:11:36.999Z</time></trkpt><trkpt lat="45.76543682120622" lon="9.287887223749488"><ele>292.0</ele><time>2026-04-04T09:11:37.999Z</time></trkpt><trkpt lat="45.765652295302715" lon="9.287903659179632"><ele>292.0</ele><time>2026-04-04T09:11:38.999Z</time></trkpt><trkpt lat="45.76586846404483" lon="9.28791649539912"><ele>292.0</ele><time>2026-04-04T09:11:39.999Z</time></trkpt><trkpt lat="45.76608796395388" lon="9.287928398849905"><ele>291.3333333333333</ele><time>2026-04-04T09:11:40.999Z</time></trkpt><trkpt lat="45.76630478825072" lon="9.28794200433014"><ele>290.6666666666667</ele><time>2026-04-04T09:11:41.999Z</time></trkpt><trkpt lat="45.76652298333024" lon="9.287952671554237"><ele>290.0</ele><time>2026-04-04T09:11:42.999Z</time></trkpt><trkpt lat="45.7667352043196" lon="9.287965824289694"><ele>287.0</ele><time>2026-04-04T09:11:43.999Z</time></trkpt><trkpt lat="45.766948330113244" lon="9.287978029181447"><ele>284.0</ele><time>2026-04-04T09:11:44.999Z</time></trkpt><trkpt lat="45.76716195883196" lon="9.287992002566334"><ele>281.0</ele><time>2026-04-04T09:11:45.999Z</time></trkpt><trkpt lat="45.76738014242253" lon="9.288007625781871"><ele>281.0</ele><time>2026-04-04T09:11:46.999Z</time></trkpt><trkpt lat="45.76759923353585" lon="9.288025202760096"><ele>281.0</ele><time>2026-04-04T09:11:47.999Z</time></trkpt><trkpt lat="45.767818092117174" lon="9.288041461195956"><ele>281.0</ele><time>2026-04-04T09:11:48.999Z</time></trkpt><trkpt lat="45.76803810037611" lon="9.2880559740962"><ele>280.0</ele><time>2026-04-04T09:11:49.999Z</time></trkpt><trkpt lat="45.76826210565205" lon="9.288067423389696"><ele>279.0</ele><time>2026-04-04T09:11:50.999Z</time></trkpt><trkpt lat="45.76848010234514" lon="9.288080381635243"><ele>278.0</ele><time>2026-04-04T09:11:51.999Z</time></trkpt><trkpt lat="45.76869227406483" lon="9.288093396615679"><ele>278.0</ele><time>2026-04-04T09:11:52.999Z</time></trkpt><trkpt lat="45.76889813570237" lon="9.288107270899564"><ele>278.0</ele><time>2026-04-04T09:11:53.999Z</time></trkpt><trkpt lat="45.769102552691216" lon="9.288123415182682"><ele>278.0</ele><time>2026-04-04T09:11:54.999Z</time></trkpt><trkpt lat="45.76930687802645" lon="9.288135283382626"><ele>275.6666666666667</ele><time>2026-04-04T09:11:55.999Z</time></trkpt><trkpt lat="45.76949949744717" lon="9.288148245747967"><ele>273.3333333333333</ele><time>2026-04-04T09:11:57Z</time></trkpt><trkpt lat="45.76968729716338" lon="9.288161963583208"><ele>271.0</ele><time>2026-04-04T09:11:58Z</time></trkpt><trkpt lat="45.76986613418454" lon="9.288175337953327"><ele>271.0</ele><time>2026-04-04T09:11:59Z</time></trkpt><trkpt lat="45.77004555401389" lon="9.28818176780073"><ele>271.0</ele><time>2026-04-04T09:12:00Z</time></trkpt><trkpt lat="45.77022618551799" lon="9.288177313030832"><ele>271.0</ele><time>2026-04-04T09:12:01Z</time></trkpt><trkpt lat="45.77041686876588" lon="9.288200877790626"><ele>270.66666666666663</ele><time>2026-04-04T09:12:02Z</time></trkpt><trkpt lat="45.770604978076584" lon="9.288215018485175"><ele>270.3333333333333</ele><time>2026-04-04T09:12:03Z</time></trkpt><trkpt lat="45.770803513945346" lon="9.28823278647052"><ele>270.0</ele><time>2026-04-04T09:12:04Z</time></trkpt><trkpt lat="45.7710174886401" lon="9.28825030889918"><ele>269.5</ele><time>2026-04-04T09:12:05Z</time></trkpt><trkpt lat="45.771242838427405" lon="9.288272515224277"><ele>269.0</ele><time>2026-04-04T09:12:06Z</time></trkpt><trkpt lat="45.77149043212084" lon="9.288293787591641"><ele>269.0</ele><time>2026-04-04T09:12:07Z</time></trkpt><trkpt lat="45.77175022123822" lon="9.288305279817507"><ele>269.0</ele><time>2026-04-04T09:12:08Z</time></trkpt><trkpt lat="45.77202319943936" lon="9.288317532715173"><ele>268.0</ele><time>2026-04-04T09:12:09Z</time></trkpt><trkpt lat="45.77230336242584" lon="9.288334021186452"><ele>267.0</ele><time>2026-04-04T09:12:10Z</time></trkpt><trkpt lat="45.77256753271627" lon="9.288349223469476"><ele>267.0</ele><time>2026-04-04T09:12:11Z</time></trkpt><trkpt lat="45.772809989651655" lon="9.288363803477454"><ele>267.0</ele><time>2026-04-04T09:12:12Z</time></trkpt><trkpt lat="45.77304052611896" lon="9.28837662346539"><ele>267.0</ele><time>2026-04-04T09:12:13Z</time></trkpt><trkpt lat="45.77326820889112" lon="9.28839072886542"><ele>267.0</ele><time>2026-04-04T09:12:14Z</time></trkpt><trkpt lat="45.773498166498776" lon="9.288398794148263"><ele>267.0</ele><time>2026-04-04T09:12:15Z</time></trkpt><trkpt lat="45.77372411157918" lon="9.288407054326937"><ele>267.0</ele><time>2026-04-04T09:12:16Z</time></trkpt><trkpt lat="45.773947936399644" lon="9.288422240648382"><ele>267.0</ele><time>2026-04-04T09:12:17Z</time></trkpt><trkpt lat="45.77416048565443" lon="9.288438387325444"><ele>267.0</ele><time>2026-04-04T09:12:18Z</time></trkpt><trkpt lat="45.77435631572024" lon="9.288458927879457"><ele>267.0</ele><time>2026-04-04T09:12:19Z</time></trkpt><trkpt lat="45.774521951702404" lon="9.28848076913552"><ele>267.0</ele><time>2026-04-04T09:12:20Z</time></trkpt><trkpt lat="45.774678114553936" lon="9.288511610624445"><ele>267.0</ele><time>2026-04-04T09:12:21Z</time></trkpt><trkpt lat="45.77485144057595" lon="9.288557588537424"><ele>267.0</ele><time>2026-04-04T09:12:22Z</time></trkpt><trkpt lat="45.77505597553851" lon="9.2886008808995"><ele>266.0</ele><time>2026-04-04T09:12:23Z</time></trkpt><trkpt lat="45.77529831467023" lon="9.288657343905104"><ele>265.0</ele><time>2026-04-04T09:12:24Z</time></trkpt><trkpt lat="45.77554302591164" lon="9.288738998326348"><ele>265.0</ele><time>2026-04-04T09:12:25Z</time></trkpt><trkpt lat="45.77577925052668" lon="9.288853288275723"><ele>265.0</ele><time>2026-04-04T09:12:26Z</time></trkpt><trkpt lat="45.776033951007555" lon="9.288992923430671"><ele>263.0</ele><time>2026-04-04T09:12:27Z</time></trkpt><trkpt lat="45.776300307142215" lon="9.289129610768473"><ele>261.0</ele><time>2026-04-04T09:12:28Z</time></trkpt><trkpt lat="45.77654053289153" lon="9.289260193827833"><ele>261.0</ele><time>2026-04-04T09:12:29Z</time></trkpt><trkpt lat="45.77675008476766" lon="9.289394556734905"><ele>261.0</ele><time>2026-04-04T09:12:30Z</time></trkpt><trkpt lat="45.776945912226005" lon="9.289527317900367"><ele>261.0</ele><time>2026-04-04T09:12:31Z</time></trkpt><trkpt lat="45.77713275444307" lon="9.289649449998937"><ele>261.6666666666667</ele><time>2026-04-04T09:12:32Z</time></trkpt><trkpt lat="45.77731194086426" lon="9.289767192045034"><ele>262.33333333333337</ele><time>2026-04-04T09:12:33Z</time></trkpt><trkpt lat="45.77750255428947" lon="9.289889083819943"><ele>263.0</ele><time>2026-04-04T09:12:34Z</time></trkpt><trkpt lat="45.77769539259232" lon="9.290020908808724"><ele>263.33333333333337</ele><time>2026-04-04T09:12:35Z</time></trkpt><trkpt lat="45.77789553295859" lon="9.290156292960202"><ele>263.6666666666667</ele><time>2026-04-04T09:12:36Z</time></trkpt><trkpt lat="45.77809364341356" lon="9.290292467620393"><ele>264.0</ele><time>2026-04-04T09:12:37Z</time></trkpt><trkpt lat="45.77828988540499" lon="9.29042642095191"><ele>264.0</ele><time>2026-04-04T09:12:38Z</time></trkpt><trkpt lat="45.778479718866194" lon="9.290552005273607"><ele>264.0</ele><time>2026-04-04T09:12:39Z</time></trkpt><trkpt lat="45.778665106360386" lon="9.29067276538938"><ele>264.0</ele><time>2026-04-04T09:12:40Z</time></trkpt><trkpt lat="45.77884890449244" lon="9.290795030732776"><ele>263.6666666666667</ele><time>2026-04-04T09:12:41Z</time></trkpt><trkpt lat="45.779035660674595" lon="9.290921067694471"><ele>263.33333333333337</ele><time>2026-04-04T09:12:42Z</time></trkpt><trkpt lat="45.779231731059305" lon="9.291054764094104"><ele>263.0</ele><time>2026-04-04T09:12:43Z</time></trkpt><trkpt lat="45.77942567596965" lon="9.291187498340518"><ele>263.0</ele><time>2026-04-04T09:12:44Z</time></trkpt><trkpt lat="45.77959828427455" lon="9.29131112352073"><ele>263.0</ele><time>2026-04-04T09:12:45Z</time></trkpt><trkpt lat="45.77976347650749" lon="9.291424544868804"><ele>263.0</ele><time>2026-04-04T09:12:46Z</time></trkpt><trkpt lat="45.7799126992994" lon="9.291525687076085"><ele>263.0</ele><time>2026-04-04T09:12:47Z</time></trkpt><trkpt lat="45.78005660926341" lon="9.291623609114371"><ele>263.0</ele><time>2026-04-04T09:12:48Z</time></trkpt><trkpt lat="45.78020866894129" lon="9.291724353370281"><ele>263.0</ele><time>2026-04-04T09:12:49Z</time></trkpt><trkpt lat="45.780367440113125" lon="9.291830860797472"><ele>263.6666666666667</ele><time>2026-04-04T09:12:50Z</time></trkpt><trkpt lat="45.7805259227272" lon="9.291934610366326"><ele>264.3333333333333</ele><time>2026-04-04T09:12:51Z</time></trkpt><trkpt lat="45.78068296578484" lon="9.292041634922354"><ele>265.0</ele><time>2026-04-04T09:12:52Z</time></trkpt><trkpt lat="45.78086313141557" lon="9.292161882932996"><ele>266.3333333333333</ele><time>2026-04-04T09:12:52.999Z</time></trkpt><trkpt lat="45.78105577615221" lon="9.292288885250041"><ele>267.6666666666667</ele><time>2026-04-04T09:12:53.999Z</time></trkpt><trkpt lat="45.78124846475183" lon="9.292420958789869"><ele>269.0</ele><time>2026-04-04T09:12:54.999Z</time></trkpt><trkpt lat="45.78143746782675" lon="9.292560652625268"><ele>269.0</ele><time>2026-04-04T09:12:55.999Z</time></trkpt><trkpt lat="45.781617298340606" lon="9.2927075623587"><ele>269.0</ele><time>2026-04-04T09:12:56.999Z</time></trkpt><trkpt lat="45.78179800376019" lon="9.292852271172167"><ele>269.0</ele><time>2026-04-04T09:12:57.999Z</time></trkpt><trkpt lat="45.78198434113837" lon="9.292989383383835"><ele>269.0</ele><time>2026-04-04T09:12:58.999Z</time></trkpt><trkpt lat="45.782122438885075" lon="9.293246232640913"><ele>269.0</ele><time>2026-04-04T09:12:59.999Z</time></trkpt><trkpt lat="45.78230524520445" lon="9.293397795980114"><ele>269.0</ele><time>2026-04-04T09:13:00.999Z</time></trkpt><trkpt lat="45.78247019761283" lon="9.293507338826734"><ele>269.0</ele><time>2026-04-04T09:13:01.999Z</time></trkpt><trkpt lat="45.782606902792374" lon="9.293603237621198"><ele>269.0</ele><time>2026-04-04T09:13:02.999Z</time></trkpt><trkpt lat="45.7826962092711" lon="9.29370388870908"><ele>269.0</ele><time>2026-04-04T09:13:03.999Z</time></trkpt><trkpt lat="45.78274905719632" lon="9.293810102370523"><ele>269.0</ele><time>2026-04-04T09:13:04.999Z</time></trkpt><trkpt lat="45.78282368178377" lon="9.293932576120543"><ele>269.0</ele><time>2026-04-04T09:13:05.999Z</time></trkpt><trkpt lat="45.782840917092074" lon="9.294043547814665"><ele>269.0</ele><time>2026-04-04T09:13:06.999Z</time></trkpt><trkpt lat="45.78286941954674" lon="9.294138538339574"><ele>269.0</ele><time>2026-04-04T09:13:07.999Z</time></trkpt><trkpt lat="45.78335375653676" lon="9.29398839608553"><ele>269.0</ele><time>2026-04-04T09:13:09.999Z</time></trkpt><trkpt lat="45.78342016732789" lon="9.294027689896003"><ele>269.0</ele><time>2026-04-04T09:13:10.999Z</time></trkpt><trkpt lat="45.783496224834984" lon="9.294072956444634"><ele>269.0</ele><time>2026-04-04T09:13:11.999Z</time></trkpt><trkpt lat="45.7835759881291" lon="9.294115187036557"><ele>269.0</ele><time>2026-04-04T09:13:12.999Z</time></trkpt><trkpt lat="45.78363946588684" lon="9.29414740814385"><ele>269.0</ele><time>2026-04-04T09:13:13.999Z</time></trkpt><trkpt lat="45.78376870330463" lon="9.294211030266354"><ele>269.0</ele><time>2026-04-04T09:13:15.999Z</time></trkpt><trkpt lat="45.78385557031333" lon="9.29426210492508"><ele>269.4</ele><time>2026-04-04T09:13:16.999Z</time></trkpt><trkpt lat="45.783945700198636" lon="9.294321642959824"><ele>269.79999999999995</ele><time>2026-04-04T09:13:17.999Z</time></trkpt><trkpt lat="45.7840405267901" lon="9.294375242022046"><ele>270.20000000000005</ele><time>2026-04-04T09:13:18.999Z</time></trkpt><trkpt lat="45.784128220053226" lon="9.294425894785073"><ele>270.6</ele><time>2026-04-04T09:13:19.999Z</time></trkpt><trkpt lat="45.78420504773596" lon="9.294472609374884"><ele>271.0</ele><time>2026-04-04T09:13:20.999Z</time></trkpt><trkpt lat="45.784285145588306" lon="9.294519188201372"><ele>270.85714285714283</ele><time>2026-04-04T09:13:21.999Z</time></trkpt><trkpt lat="45.78436893493933" lon="9.294571790469254"><ele>270.7142857142857</ele><time>2026-04-04T09:13:22.999Z</time></trkpt><trkpt lat="45.78444404268689" lon="9.294617116427201"><ele>270.57142857142856</ele><time>2026-04-04T09:13:23.999Z</time></trkpt><trkpt lat="45.78450701069519" lon="9.294655160430993"><ele>270.42857142857144</ele><time>2026-04-04T09:13:24.999Z</time></trkpt><trkpt lat="45.78456568369852" lon="9.294690268215744"><ele>270.2857142857143</ele><time>2026-04-04T09:13:25.999Z</time></trkpt><trkpt lat="45.78462289863471" lon="9.294728269694177"><ele>270.1428571428571</ele><time>2026-04-04T09:13:26.999Z</time></trkpt><trkpt lat="45.78468971878925" lon="9.294765346686514"><ele>270.0</ele><time>2026-04-04T09:13:27.999Z</time></trkpt><trkpt lat="45.78477096570777" lon="9.294815721641305"><ele>269.0</ele><time>2026-04-04T09:13:28.999Z</time></trkpt><trkpt lat="45.78486612751346" lon="9.294883164741949"><ele>268.0</ele><time>2026-04-04T09:13:29.999Z</time></trkpt><trkpt lat="45.78497149649634" lon="9.294947791874888"><ele>267.0</ele><time>2026-04-04T09:13:30.999Z</time></trkpt><trkpt lat="45.78507534964958" lon="9.295016463186585"><ele>266.0</ele><time>2026-04-04T09:13:31.999Z</time></trkpt><trkpt lat="45.785178807221605" lon="9.295080803341937"><ele>265.0</ele><time>2026-04-04T09:13:32.999Z</time></trkpt><trkpt lat="45.7852748110813" lon="9.295140688562324"><ele>265.0</ele><time>2026-04-04T09:13:33.999Z</time></trkpt><trkpt lat="45.78536279463373" lon="9.295194841872851"><ele>265.0</ele><time>2026-04-04T09:13:34.999Z</time></trkpt><trkpt lat="45.7854531791255" lon="9.295249430418053"><ele>265.0</ele><time>2026-04-04T09:13:35.999Z</time></trkpt><trkpt lat="45.7855508958206" lon="9.295313474482526"><ele>265.0</ele><time>2026-04-04T09:13:36.999Z</time></trkpt><trkpt lat="45.785654276435096" lon="9.295382984530361"><ele>265.0</ele><time>2026-04-04T09:13:37.999Z</time></trkpt><trkpt lat="45.78575663801156" lon="9.295449930303555"><ele>265.0</ele><time>2026-04-04T09:13:38.999Z</time></trkpt><trkpt lat="45.78584930644099" lon="9.295511057869088"><ele>265.0</ele><time>2026-04-04T09:13:39.999Z</time></trkpt><trkpt lat="45.78594348974008" lon="9.295572682518252"><ele>265.0</ele><time>2026-04-04T09:13:40.999Z</time></trkpt><trkpt lat="45.786040963589905" lon="9.29564018425513"><ele>265.0</ele><time>2026-04-04T09:13:41.999Z</time></trkpt><trkpt lat="45.78613040889021" lon="9.295699172591306"><ele>265.0</ele><time>2026-04-04T09:13:42.999Z</time></trkpt><trkpt lat="45.78620673102991" lon="9.29575109069273"><ele>265.2</ele><time>2026-04-04T09:13:43.999Z</time></trkpt><trkpt lat="45.78628737357669" lon="9.295801810204878"><ele>265.4</ele><time>2026-04-04T09:13:44.999Z</time></trkpt><trkpt lat="45.78638322476294" lon="9.295863376374115"><ele>265.6</ele><time>2026-04-04T09:13:45.999Z</time></trkpt><trkpt lat="45.78648828807066" lon="9.295945522832662"><ele>265.8</ele><time>2026-04-04T09:13:46.999Z</time></trkpt><trkpt lat="45.78657600045845" lon="9.296003820660328"><ele>266.0</ele><time>2026-04-04T09:13:47.999Z</time></trkpt><trkpt lat="45.78664735516636" lon="9.296045664210277"><ele>266.0</ele><time>2026-04-04T09:13:48.999Z</time></trkpt><trkpt lat="45.786723449065946" lon="9.296089958510642"><ele>266.0</ele><time>2026-04-04T09:13:49.999Z</time></trkpt><trkpt lat="45.786810911023416" lon="9.296140590972016"><ele>266.0</ele><time>2026-04-04T09:13:50.999Z</time></trkpt><trkpt lat="45.78689818973768" lon="9.296198954245716"><ele>266.0</ele><time>2026-04-04T09:13:51.999Z</time></trkpt><trkpt lat="45.78698807773477" lon="9.296258119738276"><ele>266.0</ele><time>2026-04-04T09:13:52.999Z</time></trkpt><trkpt lat="45.787068518616096" lon="9.29630905962963"><ele>266.2</ele><time>2026-04-04T09:13:53.999Z</time></trkpt><trkpt lat="45.78715383754767" lon="9.29636678947598"><ele>266.40000000000003</ele><time>2026-04-04T09:13:55.999Z</time></trkpt><trkpt lat="45.787227263544" lon="9.296405831953628"><ele>266.6</ele><time>2026-04-04T09:13:57.999Z</time></trkpt><trkpt lat="45.78735053594335" lon="9.296490075026894"><ele>266.8</ele><time>2026-04-04T09:13:59.999Z</time></trkpt><trkpt lat="45.78741935025257" lon="9.296535719024227"><ele>267.0</ele><time>2026-04-04T09:14:00.999Z</time></trkpt><trkpt lat="45.78748021201076" lon="9.296578320468637"><ele>267.0</ele><time>2026-04-04T09:14:01.999Z</time></trkpt><trkpt lat="45.7875415620537" lon="9.29661474474483"><ele>267.0</ele><time>2026-04-04T09:14:03Z</time></trkpt><trkpt lat="45.78760655818386" lon="9.296656920132039"><ele>267.0</ele><time>2026-04-04T09:14:04Z</time></trkpt><trkpt lat="45.78767306184537" lon="9.296700271280013"><ele>267.0</ele><time>2026-04-04T09:14:05Z</time></trkpt><trkpt lat="45.78774658564051" lon="9.296751448105137"><ele>267.0</ele><time>2026-04-04T09:14:06Z</time></trkpt><trkpt lat="45.78782575661386" lon="9.296804283073387"><ele>267.0</ele><time>2026-04-04T09:14:07Z</time></trkpt><trkpt lat="45.787904478343016" lon="9.296855335795765"><ele>268.0</ele><time>2026-04-04T09:14:08Z</time></trkpt><trkpt lat="45.787988955957786" lon="9.296910600219128"><ele>269.0</ele><time>2026-04-04T09:14:09Z</time></trkpt><trkpt lat="45.788082756707205" lon="9.296976896989944"><ele>270.0</ele><time>2026-04-04T09:14:10Z</time></trkpt><trkpt lat="45.788180118908116" lon="9.297048934220884"><ele>271.0</ele><time>2026-04-04T09:14:11Z</time></trkpt><trkpt lat="45.78827868351036" lon="9.297118766752517"><ele>272.0</ele><time>2026-04-04T09:14:12Z</time></trkpt><trkpt lat="45.788389248760936" lon="9.297183768403865"><ele>272.0</ele><time>2026-04-04T09:14:13Z</time></trkpt><trkpt lat="45.788501843242045" lon="9.29725012854941"><ele>272.0</ele><time>2026-04-04T09:14:14Z</time></trkpt><trkpt lat="45.78860814435412" lon="9.297321917896246"><ele>272.0</ele><time>2026-04-04T09:14:15Z</time></trkpt><trkpt lat="45.78870751090475" lon="9.297389634069091"><ele>272.0</ele><time>2026-04-04T09:14:16Z</time></trkpt><trkpt lat="45.7888080775976" lon="9.297456070047357"><ele>272.0</ele><time>2026-04-04T09:14:17Z</time></trkpt><trkpt lat="45.788904599335254" lon="9.29752051630959"><ele>272.0</ele><time>2026-04-04T09:14:18Z</time></trkpt><trkpt lat="45.788998333205235" lon="9.297584684665571"><ele>272.0</ele><time>2026-04-04T09:14:19Z</time></trkpt><trkpt lat="45.7891051624925" lon="9.297652912330724"><ele>272.0</ele><time>2026-04-04T09:14:20Z</time></trkpt><trkpt lat="45.78922935492894" lon="9.297733133708551"><ele>271.75</ele><time>2026-04-04T09:14:21Z</time></trkpt><trkpt lat="45.78936255392243" lon="9.297821579564408"><ele>271.5</ele><time>2026-04-04T09:14:22Z</time></trkpt><trkpt lat="45.7894962415854" lon="9.297914504639467"><ele>271.25</ele><time>2026-04-04T09:14:23Z</time></trkpt><trkpt lat="45.78962550687824" lon="9.298003667462371"><ele>271.0</ele><time>2026-04-04T09:14:24Z</time></trkpt><trkpt lat="45.78975812777664" lon="9.298091795772757"><ele>271.0</ele><time>2026-04-04T09:14:25Z</time></trkpt><trkpt lat="45.78988856831977" lon="9.298179377526992"><ele>271.0</ele><time>2026-04-04T09:14:26Z</time></trkpt><trkpt lat="45.79001466417045" lon="9.298261964329857"><ele>271.0</ele><time>2026-04-04T09:14:27Z</time></trkpt><trkpt lat="45.79013966904996" lon="9.298345793224017"><ele>271.0</ele><time>2026-04-04T09:14:28Z</time></trkpt><trkpt lat="45.79026438945304" lon="9.298430325506425"><ele>271.5</ele><time>2026-04-04T09:14:29Z</time></trkpt><trkpt lat="45.79039597404878" lon="9.298519396533932"><ele>272.0</ele><time>2026-04-04T09:14:30Z</time></trkpt><trkpt lat="45.790528697914965" lon="9.2986080749841"><ele>272.5</ele><time>2026-04-04T09:14:31Z</time></trkpt><trkpt lat="45.790654651358984" lon="9.29869271267843"><ele>273.0</ele><time>2026-04-04T09:14:32Z</time></trkpt><trkpt lat="45.790774222104986" lon="9.298774507944605"><ele>273.0</ele><time>2026-04-04T09:14:33Z</time></trkpt><trkpt lat="45.7908978199425" lon="9.298856829604109"><ele>273.0</ele><time>2026-04-04T09:14:34Z</time></trkpt><trkpt lat="45.79102407647432" lon="9.298942774561047"><ele>273.0</ele><time>2026-04-04T09:14:35Z</time></trkpt><trkpt lat="45.79115281652528" lon="9.29903019807121"><ele>273.0</ele><time>2026-04-04T09:14:36Z</time></trkpt><trkpt lat="45.791292965925656" lon="9.299122757303016"><ele>272.0</ele><time>2026-04-04T09:14:37Z</time></trkpt><trkpt lat="45.791438556600305" lon="9.299218862535717"><ele>271.0</ele><time>2026-04-04T09:14:38Z</time></trkpt><trkpt lat="45.79159068221804" lon="9.299317257105034"><ele>270.0</ele><time>2026-04-04T09:14:39Z</time></trkpt><trkpt lat="45.791711866275804" lon="9.299401851766259"><ele>270.0</ele><time>2026-04-04T09:14:40Z</time></trkpt><trkpt lat="45.79181984709871" lon="9.299476451728903"><ele>270.0</ele><time>2026-04-04T09:14:41Z</time></trkpt><trkpt lat="45.79192235075822" lon="9.299546090158067"><ele>270.0</ele><time>2026-04-04T09:14:42Z</time></trkpt><trkpt lat="45.792022937662864" lon="9.299616882078752"><ele>270.0</ele><time>2026-04-04T09:14:43Z</time></trkpt><trkpt lat="45.79213373554258" lon="9.299693564331475"><ele>269.5</ele><time>2026-04-04T09:14:44Z</time></trkpt><trkpt lat="45.792244482117056" lon="9.299778979198827"><ele>269.0</ele><time>2026-04-04T09:14:45Z</time></trkpt><trkpt lat="45.79235083552639" lon="9.299857964864694"><ele>268.5</ele><time>2026-04-04T09:14:46Z</time></trkpt><trkpt lat="45.79245670293915" lon="9.299929317529953"><ele>268.0</ele><time>2026-04-04T09:14:47Z</time></trkpt><trkpt lat="45.792572509966874" lon="9.300010629692727"><ele>270.0</ele><time>2026-04-04T09:14:48Z</time></trkpt><trkpt lat="45.792685046175755" lon="9.30008811903949"><ele>272.0</ele><time>2026-04-04T09:14:49Z</time></trkpt><trkpt lat="45.79279370161466" lon="9.300162426546654"><ele>274.0</ele><time>2026-04-04T09:14:50Z</time></trkpt><trkpt lat="45.792908348784536" lon="9.30024284237532"><ele>276.0</ele><time>2026-04-04T09:14:51Z</time></trkpt><trkpt lat="45.793043929782016" lon="9.300336742379885"><ele>276.0</ele><time>2026-04-04T09:14:52Z</time></trkpt><trkpt lat="45.79320362498276" lon="9.300448486213241"><ele>276.0</ele><time>2026-04-04T09:14:53Z</time></trkpt><trkpt lat="45.793350868853416" lon="9.30057964568279"><ele>276.0</ele><time>2026-04-04T09:14:54Z</time></trkpt><trkpt lat="45.793498484833144" lon="9.300733357824392"><ele>276.0</ele><time>2026-04-04T09:14:55Z</time></trkpt><trkpt lat="45.793658653793386" lon="9.300892519586592"><ele>276.0</ele><time>2026-04-04T09:14:56Z</time></trkpt><trkpt lat="45.79381149918723" lon="9.301037219120243"><ele>276.0</ele><time>2026-04-04T09:14:56.999Z</time></trkpt><trkpt lat="45.793952319713995" lon="9.30117204689874"><ele>276.0</ele><time>2026-04-04T09:14:57.999Z</time></trkpt><trkpt lat="45.79409535158271" lon="9.301306812017932"><ele>276.0</ele><time>2026-04-04T09:14:58.999Z</time></trkpt><trkpt lat="45.79424080079943" lon="9.301442301830589"><ele>276.0</ele><time>2026-04-04T09:14:59.999Z</time></trkpt><trkpt lat="45.79438702790426" lon="9.301578213730357"><ele>275.6666666666667</ele><time>2026-04-04T09:15:00.999Z</time></trkpt><trkpt lat="45.7945401725226" lon="9.301715019771278"><ele>275.33333333333337</ele><time>2026-04-04T09:15:01.999Z</time></trkpt><trkpt lat="45.79469074060452" lon="9.301850918646961"><ele>275.0</ele><time>2026-04-04T09:15:02.999Z</time></trkpt><trkpt lat="45.794828444978336" lon="9.301978723853658"><ele>275.0</ele><time>2026-04-04T09:15:03.999Z</time></trkpt><trkpt lat="45.79495812395384" lon="9.302100139073893"><ele>275.0</ele><time>2026-04-04T09:15:04.999Z</time></trkpt><trkpt lat="45.795086462007276" lon="9.302226070165055"><ele>275.0</ele><time>2026-04-04T09:15:05.999Z</time></trkpt><trkpt lat="45.79519764811093" lon="9.3023396881997"><ele>275.0</ele><time>2026-04-04T09:15:06.999Z</time></trkpt><trkpt lat="45.79529554563502" lon="9.302442693822808"><ele>275.0</ele><time>2026-04-04T09:15:07.999Z</time></trkpt><trkpt lat="45.79537483467994" lon="9.302542853281038"><ele>275.0</ele><time>2026-04-04T09:15:08.999Z</time></trkpt><trkpt lat="45.795474650144676" lon="9.302635239158759"><ele>275.0</ele><time>2026-04-04T09:15:09.999Z</time></trkpt><trkpt lat="45.79557410283424" lon="9.302723267999676"><ele>275.0</ele><time>2026-04-04T09:15:10.999Z</time></trkpt><trkpt lat="45.795675208865234" lon="9.302810989128561"><ele>275.0</ele><time>2026-04-04T09:15:11.999Z</time></trkpt><trkpt lat="45.7957544957645" lon="9.302886664716679"><ele>275.0</ele><time>2026-04-04T09:15:12.999Z</time></trkpt><trkpt lat="45.79581383294797" lon="9.302948250151006"><ele>275.0</ele><time>2026-04-04T09:15:13.999Z</time></trkpt><trkpt lat="45.795921567192664" lon="9.303048366303061"><ele>275.0</ele><time>2026-04-04T09:15:15.999Z</time></trkpt><trkpt lat="45.79600814936682" lon="9.303132136373272"><ele>275.0</ele><time>2026-04-04T09:15:17.999Z</time></trkpt><trkpt lat="45.79606620760711" lon="9.30319112973984"><ele>274.0</ele><time>2026-04-04T09:15:19.999Z</time></trkpt><trkpt lat="45.79612649753531" lon="9.303239463009069"><ele>273.0</ele><time>2026-04-04T09:15:21.999Z</time></trkpt><trkpt lat="45.79621969296424" lon="9.303336503046898"><ele>272.0</ele><time>2026-04-04T09:15:23.999Z</time></trkpt><trkpt lat="45.79631010183854" lon="9.303406675680748"><ele>271.0</ele><time>2026-04-04T09:15:25.999Z</time></trkpt><trkpt lat="45.79636668012902" lon="9.303464176622713"><ele>270.0</ele><time>2026-04-04T09:15:26.999Z</time></trkpt><trkpt lat="45.79643897723273" lon="9.303534504607914"><ele>269.0</ele><time>2026-04-04T09:15:27.999Z</time></trkpt><trkpt lat="45.79650713447121" lon="9.303613395907547"><ele>269.0</ele><time>2026-04-04T09:15:28.999Z</time></trkpt><trkpt lat="45.79658223401179" lon="9.303687926865619"><ele>269.0</ele><time>2026-04-04T09:15:29.999Z</time></trkpt><trkpt lat="45.79667992246012" lon="9.303774501570949"><ele>269.0</ele><time>2026-04-04T09:15:30.999Z</time></trkpt><trkpt lat="45.796765929346314" lon="9.303853196417684"><ele>269.0</ele><time>2026-04-04T09:15:31.999Z</time></trkpt><trkpt lat="45.79685268114904" lon="9.303937477018547"><ele>269.0</ele><time>2026-04-04T09:15:32.999Z</time></trkpt><trkpt lat="45.796941589970395" lon="9.304020795494143"><ele>268.6666666666667</ele><time>2026-04-04T09:15:33.999Z</time></trkpt><trkpt lat="45.797023462302185" lon="9.304102678808897"><ele>268.33333333333337</ele><time>2026-04-04T09:15:34.999Z</time></trkpt><trkpt lat="45.79709814482547" lon="9.304181280438591"><ele>268.0</ele><time>2026-04-04T09:15:35.999Z</time></trkpt><trkpt lat="45.79716872914788" lon="9.304250571564616"><ele>267.6666666666667</ele><time>2026-04-04T09:15:36.999Z</time></trkpt><trkpt lat="45.79723618107094" lon="9.304313091386977"><ele>267.3333333333333</ele><time>2026-04-04T09:15:37.999Z</time></trkpt><trkpt lat="45.79731023818262" lon="9.304381627832624"><ele>267.0</ele><time>2026-04-04T09:15:38.999Z</time></trkpt><trkpt lat="45.797389726747156" lon="9.304456123407386"><ele>267.0</ele><time>2026-04-04T09:15:39.999Z</time></trkpt><trkpt lat="45.797475018392284" lon="9.3045376915682"><ele>267.0</ele><time>2026-04-04T09:15:40.999Z</time></trkpt><trkpt lat="45.79755557249021" lon="9.304617159623973"><ele>267.0</ele><time>2026-04-04T09:15:41.999Z</time></trkpt><trkpt lat="45.79762439206499" lon="9.304692010043079"><ele>267.0</ele><time>2026-04-04T09:15:42.999Z</time></trkpt><trkpt lat="45.79768816381667" lon="9.304756522822093"><ele>267.0</ele><time>2026-04-04T09:15:43.999Z</time></trkpt><trkpt lat="45.79775832178364" lon="9.304820705858734"><ele>267.0</ele><time>2026-04-04T09:15:44.999Z</time></trkpt><trkpt lat="45.797832409516616" lon="9.304887371601193"><ele>266.5</ele><time>2026-04-04T09:15:45.999Z</time></trkpt><trkpt lat="45.797907259581365" lon="9.304952436277402"><ele>266.0</ele><time>2026-04-04T09:15:46.999Z</time></trkpt><trkpt lat="45.797971211171884" lon="9.305006648454128"><ele>265.5</ele><time>2026-04-04T09:15:47.999Z</time></trkpt><trkpt lat="45.79804775959984" lon="9.305081782990134"><ele>265.0</ele><time>2026-04-04T09:15:49.999Z</time></trkpt><trkpt lat="45.79811495431086" lon="9.305137576963508"><ele>264.5</ele><time>2026-04-04T09:15:50.999Z</time></trkpt><trkpt lat="45.79818108631492" lon="9.305200272692478"><ele>264.0</ele><time>2026-04-04T09:15:51.999Z</time></trkpt><trkpt lat="45.79826289902571" lon="9.305285462992131"><ele>264.0</ele><time>2026-04-04T09:15:53.999Z</time></trkpt><trkpt lat="45.798325872300474" lon="9.30533940148993"><ele>264.0</ele><time>2026-04-04T09:15:55.999Z</time></trkpt><trkpt lat="45.79842237230368" lon="9.305437788823117"><ele>264.0</ele><time>2026-04-04T09:15:57.999Z</time></trkpt><trkpt lat="45.798516837811654" lon="9.305526973328764"><ele>264.0</ele><time>2026-04-04T09:15:59.999Z</time></trkpt><trkpt lat="45.798577841797574" lon="9.305587292131204"><ele>264.0</ele><time>2026-04-04T09:16:01.999Z</time></trkpt><trkpt lat="45.79867615434407" lon="9.305679654150431"><ele>264.1666666666667</ele><time>2026-04-04T09:16:03.999Z</time></trkpt><trkpt lat="45.798729974906564" lon="9.305729330282501"><ele>264.3333333333333</ele><time>2026-04-04T09:16:04.999Z</time></trkpt><trkpt lat="45.798828043622905" lon="9.30582618554179"><ele>264.5</ele><time>2026-04-04T09:16:06.999Z</time></trkpt><trkpt lat="45.79889118851907" lon="9.305891280086362"><ele>264.66666666666663</ele><time>2026-04-04T09:16:07.999Z</time></trkpt><trkpt lat="45.79896496637671" lon="9.305961531044128"><ele>264.8333333333333</ele><time>2026-04-04T09:16:09Z</time></trkpt><trkpt lat="45.79904472313708" lon="9.306034866492904"><ele>265.0</ele><time>2026-04-04T09:16:10Z</time></trkpt><trkpt lat="45.79911315647369" lon="9.306102652868685"><ele>265.0</ele><time>2026-04-04T09:16:11Z</time></trkpt><trkpt lat="45.79917800413793" lon="9.306170523049193"><ele>265.0</ele><time>2026-04-04T09:16:12Z</time></trkpt><trkpt lat="45.799243448616146" lon="9.306240571089315"><ele>265.0</ele><time>2026-04-04T09:16:13Z</time></trkpt><trkpt lat="45.79931145548139" lon="9.306314860073794"><ele>265.0</ele><time>2026-04-04T09:16:14Z</time></trkpt><trkpt lat="45.79937818445567" lon="9.306385264066268"><ele>265.0</ele><time>2026-04-04T09:16:15Z</time></trkpt><trkpt lat="45.79944312907088" lon="9.306452647307815"><ele>265.0</ele><time>2026-04-04T09:16:16Z</time></trkpt><trkpt lat="45.79950617583093" lon="9.30652436513759"><ele>265.0</ele><time>2026-04-04T09:16:17Z</time></trkpt><trkpt lat="45.79957243211043" lon="9.306601558740219"><ele>265.0</ele><time>2026-04-04T09:16:18Z</time></trkpt><trkpt lat="45.79963926748789" lon="9.306672182980414"><ele>265.0</ele><time>2026-04-04T09:16:19Z</time></trkpt><trkpt lat="45.7997120814172" lon="9.306749067720752"><ele>265.0</ele><time>2026-04-04T09:16:20Z</time></trkpt><trkpt lat="45.79978838211172" lon="9.306838429908352"><ele>265.0</ele><time>2026-04-04T09:16:21Z</time></trkpt><trkpt lat="45.79986699032974" lon="9.306926690479587"><ele>265.0</ele><time>2026-04-04T09:16:22Z</time></trkpt><trkpt lat="45.799940176038966" lon="9.307004725132053"><ele>265.0</ele><time>2026-04-04T09:16:23Z</time></trkpt><trkpt lat="45.80001160783113" lon="9.307081227210867"><ele>265.0</ele><time>2026-04-04T09:16:24Z</time></trkpt><trkpt lat="45.80008010242209" lon="9.307153453525881"><ele>265.0</ele><time>2026-04-04T09:16:25Z</time></trkpt><trkpt lat="45.800157558960535" lon="9.307218077271752"><ele>265.0</ele><time>2026-04-04T09:16:26Z</time></trkpt><trkpt lat="45.800240048387785" lon="9.307302320473985"><ele>264.6</ele><time>2026-04-04T09:16:27Z</time></trkpt><trkpt lat="45.80032491677245" lon="9.307386909446338"><ele>264.2</ele><time>2026-04-04T09:16:28Z</time></trkpt><trkpt lat="45.80041348822477" lon="9.307468099838623"><ele>263.8</ele><time>2026-04-04T09:16:29Z</time></trkpt><trkpt lat="45.800504955200495" lon="9.30755275972076"><ele>263.4</ele><time>2026-04-04T09:16:30Z</time></trkpt><trkpt lat="45.80059190737501" lon="9.30763708067979"><ele>263.0</ele><time>2026-04-04T09:16:31Z</time></trkpt><trkpt lat="45.80067600599132" lon="9.30772472944449"><ele>263.0</ele><time>2026-04-04T09:16:32Z</time></trkpt><trkpt lat="45.80076057443606" lon="9.307798321207823"><ele>263.0</ele><time>2026-04-04T09:16:33Z</time></trkpt><trkpt lat="45.80083841337092" lon="9.307872596079594"><ele>263.0</ele><time>2026-04-04T09:16:34Z</time></trkpt><trkpt lat="45.80091371900981" lon="9.307945245621784"><ele>263.0</ele><time>2026-04-04T09:16:35Z</time></trkpt><trkpt lat="45.800982342217445" lon="9.308011148614804"><ele>263.0</ele><time>2026-04-04T09:16:36Z</time></trkpt><trkpt lat="45.801045048891424" lon="9.308071571498122"><ele>263.0</ele><time>2026-04-04T09:16:37Z</time></trkpt><trkpt lat="45.80110552860312" lon="9.308133208890888"><ele>263.0</ele><time>2026-04-04T09:16:38Z</time></trkpt><trkpt lat="45.80116807483432" lon="9.308193512270943"><ele>263.0</ele><time>2026-04-04T09:16:39Z</time></trkpt><trkpt lat="45.80123327553569" lon="9.308250789839159"><ele>263.0</ele><time>2026-04-04T09:16:40Z</time></trkpt><trkpt lat="45.801298577957354" lon="9.308307114454628"><ele>263.0</ele><time>2026-04-04T09:16:41Z</time></trkpt><trkpt lat="45.80136353235931" lon="9.308373186326882"><ele>263.0</ele><time>2026-04-04T09:16:42Z</time></trkpt><trkpt lat="45.80142916685945" lon="9.308435756479192"><ele>263.0</ele><time>2026-04-04T09:16:43Z</time></trkpt><trkpt lat="45.80148825677533" lon="9.308493732156364"><ele>263.0</ele><time>2026-04-04T09:16:44Z</time></trkpt><trkpt lat="45.80155250735452" lon="9.30855142260898"><ele>263.0</ele><time>2026-04-04T09:16:45Z</time></trkpt><trkpt lat="45.801625460766154" lon="9.308619437256052"><ele>263.0</ele><time>2026-04-04T09:16:46Z</time></trkpt><trkpt lat="45.80169889601761" lon="9.308693490930718"><ele>263.0</ele><time>2026-04-04T09:16:47Z</time></trkpt><trkpt lat="45.80177121923501" lon="9.308764955101429"><ele>263.0</ele><time>2026-04-04T09:16:48Z</time></trkpt><trkpt lat="45.80183502904804" lon="9.308825231080947"><ele>263.0</ele><time>2026-04-04T09:16:49Z</time></trkpt><trkpt lat="45.80189003925045" lon="9.308875283029503"><ele>263.2</ele><time>2026-04-04T09:16:50Z</time></trkpt><trkpt lat="45.80196873187762" lon="9.308961517446946"><ele>263.4</ele><time>2026-04-04T09:16:52Z</time></trkpt><trkpt lat="45.802059631137766" lon="9.309035304922585"><ele>263.59999999999997</ele><time>2026-04-04T09:16:54Z</time></trkpt><trkpt lat="45.802121798376284" lon="9.309100228436337"><ele>263.8</ele><time>2026-04-04T09:16:55.999Z</time></trkpt><trkpt lat="45.80221409192049" lon="9.309180834995193"><ele>264.0</ele><time>2026-04-04T09:16:58.999Z</time></trkpt><trkpt lat="45.802285669024" lon="9.309251838119842"><ele>264.0</ele><time>2026-04-04T09:16:59.999Z</time></trkpt><trkpt lat="45.80238129189301" lon="9.309341999596809"><ele>264.0</ele><time>2026-04-04T09:17:00.999Z</time></trkpt><trkpt lat="45.80246973379959" lon="9.30942084192382"><ele>264.0</ele><time>2026-04-04T09:17:01.999Z</time></trkpt><trkpt lat="45.80255007795787" lon="9.309493950868927"><ele>264.0</ele><time>2026-04-04T09:17:02.999Z</time></trkpt><trkpt lat="45.80262201843446" lon="9.30955787734845"><ele>264.0</ele><time>2026-04-04T09:17:03.999Z</time></trkpt><trkpt lat="45.80267974624394" lon="9.309608322673721"><ele>264.0</ele><time>2026-04-04T09:17:04.999Z</time></trkpt><trkpt lat="45.80278131254385" lon="9.30968771041265"><ele>264.0</ele><time>2026-04-04T09:17:06.999Z</time></trkpt><trkpt lat="45.802878183772684" lon="9.309772226279541"><ele>264.0</ele><time>2026-04-04T09:17:08.999Z</time></trkpt><trkpt lat="45.80293898422036" lon="9.309823440373739"><ele>264.0</ele><time>2026-04-04T09:17:09.999Z</time></trkpt><trkpt lat="45.80300043879298" lon="9.309877472711221"><ele>264.0</ele><time>2026-04-04T09:17:10.999Z</time></trkpt><trkpt lat="45.80306584503917" lon="9.309935497301721"><ele>264.0</ele><time>2026-04-04T09:17:11.999Z</time></trkpt><trkpt lat="45.803132077116864" lon="9.309990956694069"><ele>264.1666666666667</ele><time>2026-04-04T09:17:12.999Z</time></trkpt><trkpt lat="45.80319382659397" lon="9.310044279310835"><ele>264.3333333333333</ele><time>2026-04-04T09:17:13.999Z</time></trkpt><trkpt lat="45.80325752835543" lon="9.3100965155831"><ele>264.5</ele><time>2026-04-04T09:17:14.999Z</time></trkpt><trkpt lat="45.80333223615095" lon="9.310158357481733"><ele>264.66666666666663</ele><time>2026-04-04T09:17:15.999Z</time></trkpt><trkpt lat="45.80340362638903" lon="9.310221742562538"><ele>264.8333333333333</ele><time>2026-04-04T09:17:16.999Z</time></trkpt><trkpt lat="45.80347557435917" lon="9.31028392814806"><ele>265.0</ele><time>2026-04-04T09:17:17.999Z</time></trkpt><trkpt lat="45.80354378298872" lon="9.31034192829413"><ele>265.1428571428571</ele><time>2026-04-04T09:17:18.999Z</time></trkpt><trkpt lat="45.80360531038277" lon="9.310394865210597"><ele>265.2857142857143</ele><time>2026-04-04T09:17:19.999Z</time></trkpt><trkpt lat="45.80367156896899" lon="9.310453281281353"><ele>265.42857142857144</ele><time>2026-04-04T09:17:20.999Z</time></trkpt><trkpt lat="45.80373531896165" lon="9.310515533603201"><ele>265.57142857142856</ele><time>2026-04-04T09:17:21.999Z</time></trkpt><trkpt lat="45.80379890599968" lon="9.310569432652198"><ele>265.7142857142857</ele><time>2026-04-04T09:17:22.999Z</time></trkpt><trkpt lat="45.803861317096256" lon="9.310622057946764"><ele>265.85714285714283</ele><time>2026-04-04T09:17:23.999Z</time></trkpt><trkpt lat="45.80392527459769" lon="9.310679702005727"><ele>266.0</ele><time>2026-04-04T09:17:24.999Z</time></trkpt><trkpt lat="45.80399244076088" lon="9.310741477838333"><ele>266.0</ele><time>2026-04-04T09:17:25.999Z</time></trkpt><trkpt lat="45.80405089605305" lon="9.310801816067293"><ele>266.0</ele><time>2026-04-04T09:17:26.999Z</time></trkpt><trkpt lat="45.8041054908006" lon="9.310858437569584"><ele>266.0</ele><time>2026-04-04T09:17:27.999Z</time></trkpt><trkpt lat="45.80416440276527" lon="9.310915393407708"><ele>266.0</ele><time>2026-04-04T09:17:28.999Z</time></trkpt><trkpt lat="45.80422829686165" lon="9.310979781213105"><ele>266.0</ele><time>2026-04-04T09:17:29.999Z</time></trkpt><trkpt lat="45.804294477310165" lon="9.311040954016015"><ele>266.0</ele><time>2026-04-04T09:17:30.999Z</time></trkpt><trkpt lat="45.80435754478893" lon="9.311100689921377"><ele>266.0</ele><time>2026-04-04T09:17:31.999Z</time></trkpt><trkpt lat="45.804419266663054" lon="9.311160190968234"><ele>266.0</ele><time>2026-04-04T09:17:32.999Z</time></trkpt><trkpt lat="45.804479281939656" lon="9.31122190645646"><ele>266.0</ele><time>2026-04-04T09:17:33.999Z</time></trkpt><trkpt lat="45.80454375755942" lon="9.311286442846928"><ele>266.0</ele><time>2026-04-04T09:17:34.999Z</time></trkpt><trkpt lat="45.80460812048785" lon="9.311345129264563"><ele>266.0</ele><time>2026-04-04T09:17:35.999Z</time></trkpt><trkpt lat="45.80469795503288" lon="9.311432752421885"><ele>266.0</ele><time>2026-04-04T09:17:37.999Z</time></trkpt><trkpt lat="45.80480354873074" lon="9.311538566006988"><ele>266.0</ele><time>2026-04-04T09:17:39.999Z</time></trkpt><trkpt lat="45.80486355645554" lon="9.311586733324877"><ele>266.0</ele><time>2026-04-04T09:17:40.999Z</time></trkpt><trkpt lat="45.804917451092216" lon="9.311633690767342"><ele>266.0</ele><time>2026-04-04T09:17:41.999Z</time></trkpt><trkpt lat="45.80497225518354" lon="9.311687206944605"><ele>266.0</ele><time>2026-04-04T09:17:42.999Z</time></trkpt><trkpt lat="45.80503900960862" lon="9.311750115092146"><ele>266.0</ele><time>2026-04-04T09:17:43.999Z</time></trkpt><trkpt lat="45.805101074127215" lon="9.311813808715348"><ele>266.0</ele><time>2026-04-04T09:17:44.999Z</time></trkpt><trkpt lat="45.8051994340612" lon="9.311909483131366"><ele>265.8</ele><time>2026-04-04T09:17:46.999Z</time></trkpt><trkpt lat="45.80529434964682" lon="9.312000787816826"><ele>265.6</ele><time>2026-04-04T09:17:48.999Z</time></trkpt><trkpt lat="45.80538559580629" lon="9.312084801873633"><ele>265.4</ele><time>2026-04-04T09:17:50.999Z</time></trkpt><trkpt lat="45.805457366834275" lon="9.312152102410108"><ele>265.2</ele><time>2026-04-04T09:17:53.999Z</time></trkpt><trkpt lat="45.80552733739329" lon="9.312224944145658"><ele>265.0</ele><time>2026-04-04T09:17:55.999Z</time></trkpt><trkpt lat="45.80558244977837" lon="9.312278390317104"><ele>264.6</ele><time>2026-04-04T09:17:56.999Z</time></trkpt><trkpt lat="45.80570740391354" lon="9.312398902317762"><ele>264.2</ele><time>2026-04-04T09:17:58.999Z</time></trkpt><trkpt lat="45.80578991840792" lon="9.312473514173172"><ele>263.8</ele><time>2026-04-04T09:17:59.999Z</time></trkpt><trkpt lat="45.805874564164085" lon="9.312550770481229"><ele>263.4</ele><time>2026-04-04T09:18:00.999Z</time></trkpt><trkpt lat="45.8059466516372" lon="9.312619776335495"><ele>263.0</ele><time>2026-04-04T09:18:01.999Z</time></trkpt><trkpt lat="45.80601147087019" lon="9.312686801517158"><ele>263.0</ele><time>2026-04-04T09:18:02.999Z</time></trkpt><trkpt lat="45.80607762211261" lon="9.31275098254696"><ele>263.0</ele><time>2026-04-04T09:18:03.999Z</time></trkpt><trkpt lat="45.80614764264271" lon="9.312819352023435"><ele>263.0</ele><time>2026-04-04T09:18:04.999Z</time></trkpt><trkpt lat="45.8062181099677" lon="9.312884410943463"><ele>263.0</ele><time>2026-04-04T09:18:05.999Z</time></trkpt><trkpt lat="45.80627855001448" lon="9.312933854354432"><ele>263.0</ele><time>2026-04-04T09:18:06.999Z</time></trkpt><trkpt lat="45.80634933999153" lon="9.313008412104669"><ele>263.0</ele><time>2026-04-04T09:18:08.999Z</time></trkpt><trkpt lat="45.80644204229322" lon="9.313098644904734"><ele>263.2</ele><time>2026-04-04T09:18:10.999Z</time></trkpt><trkpt lat="45.806534506890735" lon="9.313178585547966"><ele>263.4</ele><time>2026-04-04T09:18:12.999Z</time></trkpt><trkpt lat="45.80662733607678" lon="9.313254763170242"><ele>263.59999999999997</ele><time>2026-04-04T09:18:15Z</time></trkpt><trkpt lat="45.806719302062184" lon="9.313343329141984"><ele>263.8</ele><time>2026-04-04T09:18:17Z</time></trkpt><trkpt lat="45.80681898710806" lon="9.313428046086388"><ele>264.0</ele><time>2026-04-04T09:18:19Z</time></trkpt><trkpt lat="45.80692284806884" lon="9.313529530923823"><ele>264.0</ele><time>2026-04-04T09:18:21Z</time></trkpt><trkpt lat="45.80698563666566" lon="9.31359038953595"><ele>264.0</ele><time>2026-04-04T09:18:22Z</time></trkpt><trkpt lat="45.80705894117201" lon="9.313652771495407"><ele>264.0</ele><time>2026-04-04T09:18:23Z</time></trkpt><trkpt lat="45.80713198384" lon="9.313718399445941"><ele>264.0</ele><time>2026-04-04T09:18:24Z</time></trkpt><trkpt lat="45.80720535056697" lon="9.313783225634905"><ele>264.0</ele><time>2026-04-04T09:18:25Z</time></trkpt><trkpt lat="45.80728393349099" lon="9.313851184217645"><ele>264.0</ele><time>2026-04-04T09:18:26Z</time></trkpt><trkpt lat="45.807362606026146" lon="9.313913210824028"><ele>264.0</ele><time>2026-04-04T09:18:27Z</time></trkpt><trkpt lat="45.8074377983673" lon="9.313980199492601"><ele>264.0</ele><time>2026-04-04T09:18:28Z</time></trkpt><trkpt lat="45.80751026703291" lon="9.31404032123078"><ele>264.0</ele><time>2026-04-04T09:18:29Z</time></trkpt><trkpt lat="45.80757160932763" lon="9.314085337222819"><ele>264.0</ele><time>2026-04-04T09:18:30Z</time></trkpt><trkpt lat="45.80765677540061" lon="9.314167029115913"><ele>264.0</ele><time>2026-04-04T09:18:32Z</time></trkpt><trkpt lat="45.80773047638433" lon="9.314235740322344"><ele>264.0</ele><time>2026-04-04T09:18:34Z</time></trkpt><trkpt lat="45.80780827003637" lon="9.314292785437011"><ele>264.0</ele><time>2026-04-04T09:18:36Z</time></trkpt><trkpt lat="45.807887383617384" lon="9.314368397631972"><ele>264.0</ele><time>2026-04-04T09:18:38Z</time></trkpt><trkpt lat="45.80796614061473" lon="9.314438363856237"><ele>264.0</ele><time>2026-04-04T09:18:40Z</time></trkpt><trkpt lat="45.808067652005924" lon="9.314521722319935"><ele>264.0</ele><time>2026-04-04T09:18:42Z</time></trkpt><trkpt lat="45.80813373955005" lon="9.314579980398712"><ele>264.0</ele><time>2026-04-04T09:18:43Z</time></trkpt><trkpt lat="45.80820082266716" lon="9.31464177799925"><ele>264.0</ele><time>2026-04-04T09:18:44Z</time></trkpt><trkpt lat="45.808270642462766" lon="9.314701968583648"><ele>264.0</ele><time>2026-04-04T09:18:45Z</time></trkpt><trkpt lat="45.80832955804744" lon="9.314756068244273"><ele>264.0</ele><time>2026-04-04T09:18:46Z</time></trkpt><trkpt lat="45.808385783926845" lon="9.314807641664164"><ele>264.0</ele><time>2026-04-04T09:18:47Z</time></trkpt><trkpt lat="45.80844926121618" lon="9.314868737952805"><ele>264.0</ele><time>2026-04-04T09:18:48Z</time></trkpt><trkpt lat="45.80852285455988" lon="9.314940081550686"><ele>264.0</ele><time>2026-04-04T09:18:49Z</time></trkpt><trkpt lat="45.80860190561089" lon="9.314999412567824"><ele>263.2</ele><time>2026-04-04T09:18:50Z</time></trkpt><trkpt lat="45.808688334403" lon="9.315075210381103"><ele>262.4</ele><time>2026-04-04T09:18:51Z</time></trkpt><trkpt lat="45.80875522996599" lon="9.315136585995223"><ele>261.6</ele><time>2026-04-04T09:18:52Z</time></trkpt><trkpt lat="45.80879818973828" lon="9.315218112470586"><ele>260.8</ele><time>2026-04-04T09:18:53Z</time></trkpt><trkpt lat="45.80891765797199" lon="9.315327592337177"><ele>260.0</ele><time>2026-04-04T09:18:55Z</time></trkpt><trkpt lat="45.80901814652061" lon="9.315390845273882"><ele>260.0</ele><time>2026-04-04T09:18:56Z</time></trkpt><trkpt lat="45.809083877834134" lon="9.315444944708133"><ele>260.0</ele><time>2026-04-04T09:18:57Z</time></trkpt><trkpt lat="45.80914828153541" lon="9.315497026668885"><ele>260.0</ele><time>2026-04-04T09:18:58Z</time></trkpt><trkpt lat="45.80921436163807" lon="9.315556912779975"><ele>260.0</ele><time>2026-04-04T09:18:59Z</time></trkpt><trkpt lat="45.809275912920214" lon="9.315610746164388"><ele>260.0</ele><time>2026-04-04T09:19:00Z</time></trkpt><trkpt lat="45.80933992291486" lon="9.31566709918726"><ele>260.0</ele><time>2026-04-04T09:19:01Z</time></trkpt><trkpt lat="45.809414737668874" lon="9.315726583765743"><ele>258.0</ele><time>2026-04-04T09:19:02Z</time></trkpt><trkpt lat="45.809489393022474" lon="9.315788407710093"><ele>256.0</ele><time>2026-04-04T09:19:03Z</time></trkpt><trkpt lat="45.809557949667806" lon="9.315849720561019"><ele>254.0</ele><time>2026-04-04T09:19:04Z</time></trkpt><trkpt lat="45.80963409721552" lon="9.315912194375299"><ele>252.0</ele><time>2026-04-04T09:19:04.999Z</time></trkpt><trkpt lat="45.809701040783395" lon="9.315964059370659"><ele>250.00000000000003</ele><time>2026-04-04T09:19:05.999Z</time></trkpt><trkpt lat="45.80976069169873" lon="9.316015806329421"><ele>248.0</ele><time>2026-04-04T09:19:06.999Z</time></trkpt><trkpt lat="45.80982461471553" lon="9.316074247847862"><ele>248.00000000000003</ele><time>2026-04-04T09:19:07.999Z</time></trkpt><trkpt lat="45.80989734038268" lon="9.316136897037694"><ele>248.0</ele><time>2026-04-04T09:19:08.999Z</time></trkpt><trkpt lat="45.809970573452986" lon="9.316202957791702"><ele>248.0</ele><time>2026-04-04T09:19:09.999Z</time></trkpt><trkpt lat="45.81004012543248" lon="9.316267768574011"><ele>248.0</ele><time>2026-04-04T09:19:10.999Z</time></trkpt><trkpt lat="45.81009781345801" lon="9.316322089976149"><ele>248.00000000000003</ele><time>2026-04-04T09:19:11.999Z</time></trkpt><trkpt lat="45.81015389910374" lon="9.316370320815171"><ele>248.0</ele><time>2026-04-04T09:19:12.999Z</time></trkpt><trkpt lat="45.810210796303195" lon="9.316422501707299"><ele>247.14285714285717</ele><time>2026-04-04T09:19:13.999Z</time></trkpt><trkpt lat="45.81026982277844" lon="9.316470078411193"><ele>246.2857142857143</ele><time>2026-04-04T09:19:14.999Z</time></trkpt><trkpt lat="45.81033365749927" lon="9.316518918449699"><ele>245.42857142857144</ele><time>2026-04-04T09:19:15.999Z</time></trkpt><trkpt lat="45.81039699588639" lon="9.316572754504257"><ele>244.57142857142856</ele><time>2026-04-04T09:19:16.999Z</time></trkpt><trkpt lat="45.8104602598343" lon="9.316629742342977"><ele>243.7142857142857</ele><time>2026-04-04T09:19:17.999Z</time></trkpt><trkpt lat="45.810519523317126" lon="9.31668368247037"><ele>242.85714285714283</ele><time>2026-04-04T09:19:18.999Z</time></trkpt><trkpt lat="45.810582679873214" lon="9.316737658403978"><ele>242.0</ele><time>2026-04-04T09:19:19.999Z</time></trkpt><trkpt lat="45.81064955539236" lon="9.316790784042329"><ele>242.00000000000003</ele><time>2026-04-04T09:19:20.999Z</time></trkpt><trkpt lat="45.81071631815079" lon="9.316845053720042"><ele>242.0</ele><time>2026-04-04T09:19:21.999Z</time></trkpt><trkpt lat="45.81082130027999" lon="9.316927356524877"><ele>242.0</ele><time>2026-04-04T09:19:23.999Z</time></trkpt><trkpt lat="45.81088329615819" lon="9.316991277568004"><ele>242.0</ele><time>2026-04-04T09:19:24.999Z</time></trkpt><trkpt lat="45.810953670063554" lon="9.317052067966578"><ele>242.00000000000003</ele><time>2026-04-04T09:19:25.999Z</time></trkpt><trkpt lat="45.81102909271068" lon="9.317117447670398"><ele>242.0</ele><time>2026-04-04T09:19:26.999Z</time></trkpt><trkpt lat="45.81110360518732" lon="9.317179628988226"><ele>241.50000000000003</ele><time>2026-04-04T09:19:27.999Z</time></trkpt><trkpt lat="45.81116898221202" lon="9.31723619843634"><ele>241.0</ele><time>2026-04-04T09:19:28.999Z</time></trkpt><trkpt lat="45.8112357021691" lon="9.317292445580977"><ele>240.5</ele><time>2026-04-04T09:19:29.999Z</time></trkpt><trkpt lat="45.81130639600247" lon="9.317353005308293"><ele>240.0</ele><time>2026-04-04T09:19:30.999Z</time></trkpt><trkpt lat="45.81138100583284" lon="9.317414583221526"><ele>239.50000000000003</ele><time>2026-04-04T09:19:31.999Z</time></trkpt><trkpt lat="45.81145811622187" lon="9.317485707975283"><ele>239.0</ele><time>2026-04-04T09:19:32.999Z</time></trkpt><trkpt lat="45.81154175836414" lon="9.317560736218137"><ele>239.0</ele><time>2026-04-04T09:19:33.999Z</time></trkpt><trkpt lat="45.811621675737044" lon="9.317622999684492"><ele>238.99999999999997</ele><time>2026-04-04T09:19:34.999Z</time></trkpt><trkpt lat="45.8116966462365" lon="9.317690289183524"><ele>238.99999999999997</ele><time>2026-04-04T09:19:35.999Z</time></trkpt><trkpt lat="45.81178293700405" lon="9.317766763516316"><ele>239.0</ele><time>2026-04-04T09:19:36.999Z</time></trkpt><trkpt lat="45.81186180543043" lon="9.31783771371809"><ele>239.0</ele><time>2026-04-04T09:19:37.999Z</time></trkpt><trkpt lat="45.81195444132358" lon="9.31791033148465"><ele>238.83333333333334</ele><time>2026-04-04T09:19:38.999Z</time></trkpt><trkpt lat="45.812028678893576" lon="9.31797510153967"><ele>238.66666666666669</ele><time>2026-04-04T09:19:39.999Z</time></trkpt><trkpt lat="45.81208852511181" lon="9.318031026858755"><ele>238.5</ele><time>2026-04-04T09:19:40.999Z</time></trkpt><trkpt lat="45.81219256754785" lon="9.318118514290493"><ele>238.33333333333331</ele><time>2026-04-04T09:19:42.999Z</time></trkpt><trkpt lat="45.81224670149382" lon="9.318169675032754"><ele>238.16666666666666</ele><time>2026-04-04T09:19:43.999Z</time></trkpt><trkpt lat="45.812314959508555" lon="9.31823450356269"><ele>238.0</ele><time>2026-04-04T09:19:44.999Z</time></trkpt><trkpt lat="45.81239172984015" lon="9.318309540292605"><ele>238.0</ele><time>2026-04-04T09:19:45.999Z</time></trkpt><trkpt lat="45.812471237413476" lon="9.31837880745505"><ele>238.0</ele><time>2026-04-04T09:19:46.999Z</time></trkpt><trkpt lat="45.8125420815864" lon="9.31843395355164"><ele>238.0</ele><time>2026-04-04T09:19:47.999Z</time></trkpt><trkpt lat="45.81260273848382" lon="9.318481491568889"><ele>238.0</ele><time>2026-04-04T09:19:48.999Z</time></trkpt><trkpt lat="45.8126771015113" lon="9.31855819844304"><ele>238.0</ele><time>2026-04-04T09:19:49.999Z</time></trkpt><trkpt lat="45.812778397841555" lon="9.318641603055193"><ele>238.5</ele><time>2026-04-04T09:19:50.999Z</time></trkpt><trkpt lat="45.812875366009614" lon="9.31872242469403"><ele>239.0</ele><time>2026-04-04T09:19:51.999Z</time></trkpt><trkpt lat="45.81297133501835" lon="9.318817383579027"><ele>239.5</ele><time>2026-04-04T09:19:52.999Z</time></trkpt><trkpt lat="45.81307280503724" lon="9.318899935687464"><ele>240.0</ele><time>2026-04-04T09:19:53.999Z</time></trkpt><trkpt lat="45.81317128381505" lon="9.318988533108943"><ele>240.0</ele><time>2026-04-04T09:19:54.999Z</time></trkpt><trkpt lat="45.81326431081592" lon="9.319071608815774"><ele>240.0</ele><time>2026-04-04T09:19:55.999Z</time></trkpt><trkpt lat="45.81336812910187" lon="9.319156175187674"><ele>240.0</ele><time>2026-04-04T09:19:56.999Z</time></trkpt><trkpt lat="45.81348087386192" lon="9.31924766245562"><ele>240.0</ele><time>2026-04-04T09:19:57.999Z</time></trkpt><trkpt lat="45.81359491938902" lon="9.31934448837242"><ele>240.25</ele><time>2026-04-04T09:19:58.999Z</time></trkpt><trkpt lat="45.81370532646626" lon="9.319442306951096"><ele>240.5</ele><time>2026-04-04T09:19:59.999Z</time></trkpt><trkpt lat="45.81381364592884" lon="9.319523925376517"><ele>240.75</ele><time>2026-04-04T09:20:00.999Z</time></trkpt><trkpt lat="45.81391425189334" lon="9.31961311497144"><ele>241.0</ele><time>2026-04-04T09:20:01.999Z</time></trkpt><trkpt lat="45.81400752853647" lon="9.319692022951111"><ele>240.0</ele><time>2026-04-04T09:20:02.999Z</time></trkpt><trkpt lat="45.81411371180839" lon="9.31977912186849"><ele>239.0</ele><time>2026-04-04T09:20:03.999Z</time></trkpt><trkpt lat="45.8142326738942" lon="9.319858761287769"><ele>238.0</ele><time>2026-04-04T09:20:04.999Z</time></trkpt><trkpt lat="45.814350238492544" lon="9.319952642365587"><ele>237.0</ele><time>2026-04-04T09:20:05.999Z</time></trkpt><trkpt lat="45.814477681421245" lon="9.320049935953394"><ele>236.8</ele><time>2026-04-04T09:20:06.999Z</time></trkpt><trkpt lat="45.814597728676794" lon="9.320127111121018"><ele>236.6</ele><time>2026-04-04T09:20:07.999Z</time></trkpt><trkpt lat="45.8146955246657" lon="9.320196666835496"><ele>236.40000000000003</ele><time>2026-04-04T09:20:08.999Z</time></trkpt><trkpt lat="45.814762188638426" lon="9.320249144525091"><ele>236.20000000000002</ele><time>2026-04-04T09:20:09.999Z</time></trkpt><trkpt lat="45.814833915250425" lon="9.320290805742024"><ele>236.0</ele><time>2026-04-04T09:20:10.999Z</time></trkpt><trkpt lat="45.81491610087268" lon="9.320337853318332"><ele>236.0</ele><time>2026-04-04T09:20:11.999Z</time></trkpt><trkpt lat="45.815015893084684" lon="9.320400120242159"><ele>236.0</ele><time>2026-04-04T09:20:12.999Z</time></trkpt><trkpt lat="45.8151202667642" lon="9.320468558877359"><ele>236.0</ele><time>2026-04-04T09:20:13.999Z</time></trkpt><trkpt lat="45.815224329416694" lon="9.320533191871494"><ele>236.0</ele><time>2026-04-04T09:20:14.999Z</time></trkpt><trkpt lat="45.81533993780024" lon="9.320596547523213"><ele>234.5</ele><time>2026-04-04T09:20:15.999Z</time></trkpt><trkpt lat="45.81545793501475" lon="9.32066296997887"><ele>233.0</ele><time>2026-04-04T09:20:16.999Z</time></trkpt><trkpt lat="45.81557269969347" lon="9.320727935514146"><ele>231.5</ele><time>2026-04-04T09:20:17.999Z</time></trkpt><trkpt lat="45.81568964606881" lon="9.320786148348118"><ele>230.0</ele><time>2026-04-04T09:20:18.999Z</time></trkpt><trkpt lat="45.81580605708137" lon="9.320854527267922"><ele>230.0</ele><time>2026-04-04T09:20:19.999Z</time></trkpt><trkpt lat="45.81592329922021" lon="9.320919658666805"><ele>230.0</ele><time>2026-04-04T09:20:21Z</time></trkpt><trkpt lat="45.81604267494109" lon="9.320984081063761"><ele>230.0</ele><time>2026-04-04T09:20:22Z</time></trkpt><trkpt lat="45.81614729601506" lon="9.321042303380938"><ele>230.0</ele><time>2026-04-04T09:20:23Z</time></trkpt><trkpt lat="45.81624718375759" lon="9.321095999240846"><ele>229.83333333333334</ele><time>2026-04-04T09:20:24Z</time></trkpt><trkpt lat="45.81634918543229" lon="9.321154237797868"><ele>229.66666666666669</ele><time>2026-04-04T09:20:25Z</time></trkpt><trkpt lat="45.81644767470994" lon="9.321209808892233"><ele>229.5</ele><time>2026-04-04T09:20:26Z</time></trkpt><trkpt lat="45.816524013769566" lon="9.321245949291487"><ele>229.33333333333331</ele><time>2026-04-04T09:20:27Z</time></trkpt><trkpt lat="45.81659095725368" lon="9.321279813263004"><ele>229.16666666666666</ele><time>2026-04-04T09:20:28Z</time></trkpt><trkpt lat="45.81666507947519" lon="9.321314623416308"><ele>229.0</ele><time>2026-04-04T09:20:29Z</time></trkpt><trkpt lat="45.81675689968905" lon="9.321359706234563"><ele>228.39999999999998</ele><time>2026-04-04T09:20:30Z</time></trkpt><trkpt lat="45.816854956215934" lon="9.32141750274288"><ele>227.79999999999998</ele><time>2026-04-04T09:20:31Z</time></trkpt><trkpt lat="45.816932599924435" lon="9.321465034960097"><ele>227.20000000000002</ele><time>2026-04-04T09:20:32Z</time></trkpt><trkpt lat="45.81700938173919" lon="9.321503180881702"><ele>226.60000000000002</ele><time>2026-04-04T09:20:33Z</time></trkpt><trkpt lat="45.817093390073396" lon="9.321549807088036"><ele>226.0</ele><time>2026-04-04T09:20:34Z</time></trkpt><trkpt lat="45.81718357273021" lon="9.321601940961724"><ele>226.0</ele><time>2026-04-04T09:20:35Z</time></trkpt><trkpt lat="45.817286039482795" lon="9.32165759378643"><ele>226.0</ele><time>2026-04-04T09:20:36Z</time></trkpt><trkpt lat="45.81739649681599" lon="9.321720897489625"><ele>226.0</ele><time>2026-04-04T09:20:37Z</time></trkpt><trkpt lat="45.81751660946413" lon="9.321777664233673"><ele>226.0</ele><time>2026-04-04T09:20:38Z</time></trkpt><trkpt lat="45.81764035972512" lon="9.321849649012362"><ele>226.60000000000002</ele><time>2026-04-04T09:20:39Z</time></trkpt><trkpt lat="45.81776063480115" lon="9.32191849989037"><ele>227.20000000000002</ele><time>2026-04-04T09:20:40Z</time></trkpt><trkpt lat="45.81785534952014" lon="9.321970367669497"><ele>227.79999999999998</ele><time>2026-04-04T09:20:41Z</time></trkpt><trkpt lat="45.81793872464177" lon="9.32201167621277"><ele>228.39999999999998</ele><time>2026-04-04T09:20:42Z</time></trkpt><trkpt lat="45.81801237572787" lon="9.32204612855629"><ele>229.0</ele><time>2026-04-04T09:20:43Z</time></trkpt><trkpt lat="45.818080537621874" lon="9.322080570978548"><ele>228.99999999999997</ele><time>2026-04-04T09:20:44Z</time></trkpt><trkpt lat="45.81814299377388" lon="9.322114591440059"><ele>229.0</ele><time>2026-04-04T09:20:45Z</time></trkpt><trkpt lat="45.818207961198965" lon="9.322151629191438"><ele>229.0</ele><time>2026-04-04T09:20:46Z</time></trkpt><trkpt lat="45.818318993232744" lon="9.322212302343795"><ele>229.0</ele><time>2026-04-04T09:20:48Z</time></trkpt><trkpt lat="45.81842213651594" lon="9.322269704113605"><ele>228.99999999999997</ele><time>2026-04-04T09:20:50Z</time></trkpt><trkpt lat="45.818483979584016" lon="9.322302711887527"><ele>229.0</ele><time>2026-04-04T09:20:52Z</time></trkpt><trkpt lat="45.81855146871818" lon="9.322340391357724"><ele>229.33333333333331</ele><time>2026-04-04T09:20:54Z</time></trkpt><trkpt lat="45.81863180749503" lon="9.322385368613626"><ele>229.66666666666666</ele><time>2026-04-04T09:20:56Z</time></trkpt><trkpt lat="45.81874126849746" lon="9.32244779503972"><ele>230.0</ele><time>2026-04-04T09:20:58Z</time></trkpt><trkpt lat="45.81880769510295" lon="9.322479931249905"><ele>230.33333333333331</ele><time>2026-04-04T09:20:59Z</time></trkpt><trkpt lat="45.81887531670095" lon="9.322513008645071"><ele>230.66666666666666</ele><time>2026-04-04T09:21:00Z</time></trkpt><trkpt lat="45.818940518292585" lon="9.322550472765247"><ele>231.0</ele><time>2026-04-04T09:21:01Z</time></trkpt><trkpt lat="45.819004950655696" lon="9.322584826059101"><ele>231.0</ele><time>2026-04-04T09:21:02Z</time></trkpt><trkpt lat="45.819066323316264" lon="9.322619161594599"><ele>231.0</ele><time>2026-04-04T09:21:03Z</time></trkpt><trkpt lat="45.8191258049978" lon="9.322655163589516"><ele>231.0</ele><time>2026-04-04T09:21:04Z</time></trkpt><trkpt lat="45.81918886539646" lon="9.322693435294065"><ele>231.0</ele><time>2026-04-04T09:21:05Z</time></trkpt><trkpt lat="45.81924969368021" lon="9.322725289598855"><ele>231.0</ele><time>2026-04-04T09:21:06Z</time></trkpt><trkpt lat="45.81931207663563" lon="9.322756308140393"><ele>231.0</ele><time>2026-04-04T09:21:07Z</time></trkpt><trkpt lat="45.819423565260024" lon="9.322819294321668"><ele>231.0</ele><time>2026-04-04T09:21:09Z</time></trkpt><trkpt lat="45.819536548876854" lon="9.322875262544175"><ele>231.16666666666666</ele><time>2026-04-04T09:21:11Z</time></trkpt><trkpt lat="45.81964820049074" lon="9.322935333524537"><ele>231.33333333333331</ele><time>2026-04-04T09:21:13Z</time></trkpt><trkpt lat="45.819717696126766" lon="9.322972137593458"><ele>231.5</ele><time>2026-04-04T09:21:13.999Z</time></trkpt><trkpt lat="45.819800860898155" lon="9.323014426563674"><ele>231.66666666666666</ele><time>2026-04-04T09:21:14.999Z</time></trkpt><trkpt lat="45.81989033284546" lon="9.323059234382429"><ele>231.83333333333331</ele><time>2026-04-04T09:21:15.999Z</time></trkpt><trkpt lat="45.81995396482576" lon="9.32309889374019"><ele>232.0</ele><time>2026-04-04T09:21:16.999Z</time></trkpt><trkpt lat="45.82001468680884" lon="9.323130845160106"><ele>231.25</ele><time>2026-04-04T09:21:17.999Z</time></trkpt><trkpt lat="45.8201000227516" lon="9.323171123291548"><ele>230.5</ele><time>2026-04-04T09:21:18.999Z</time></trkpt><trkpt lat="45.82021712448015" lon="9.32322831794831"><ele>229.75</ele><time>2026-04-04T09:21:20.999Z</time></trkpt><trkpt lat="45.820326023695216" lon="9.323281417019487"><ele>229.0</ele><time>2026-04-04T09:21:22.999Z</time></trkpt><trkpt lat="45.820452127393054" lon="9.32334703849736"><ele>228.39999999999998</ele><time>2026-04-04T09:21:24.999Z</time></trkpt><trkpt lat="45.82052691102386" lon="9.323393602854173"><ele>227.79999999999998</ele><time>2026-04-04T09:21:25.999Z</time></trkpt><trkpt lat="45.820600686191845" lon="9.323440447391263"><ele>227.20000000000002</ele><time>2026-04-04T09:21:26.999Z</time></trkpt><trkpt lat="45.820687622642964" lon="9.323498020714217"><ele>226.60000000000002</ele><time>2026-04-04T09:21:27.999Z</time></trkpt><trkpt lat="45.820783534803496" lon="9.323560684583668"><ele>226.0</ele><time>2026-04-04T09:21:28.999Z</time></trkpt><trkpt lat="45.82088758689751" lon="9.323626423273948"><ele>226.25</ele><time>2026-04-04T09:21:29.999Z</time></trkpt><trkpt lat="45.82099675210353" lon="9.323691282300008"><ele>226.5</ele><time>2026-04-04T09:21:30.999Z</time></trkpt><trkpt lat="45.82111281179864" lon="9.323748801716464"><ele>226.75</ele><time>2026-04-04T09:21:31.999Z</time></trkpt><trkpt lat="45.82124428755846" lon="9.323817308267055"><ele>227.0</ele><time>2026-04-04T09:21:32.999Z</time></trkpt><trkpt lat="45.821385770299706" lon="9.323896470839863"><ele>226.33333333333334</ele><time>2026-04-04T09:21:33.999Z</time></trkpt><trkpt lat="45.82153185383983" lon="9.323976026204077"><ele>225.66666666666669</ele><time>2026-04-04T09:21:34.999Z</time></trkpt><trkpt lat="45.82167559728563" lon="9.324051925432464"><ele>225.0</ele><time>2026-04-04T09:21:35.999Z</time></trkpt><trkpt lat="45.821814756209776" lon="9.324127317726475"><ele>225.0</ele><time>2026-04-04T09:21:36.999Z</time></trkpt><trkpt lat="45.82194272926949" lon="9.324217951232688"><ele>225.0</ele><time>2026-04-04T09:21:37.999Z</time></trkpt><trkpt lat="45.8221158971691" lon="9.324312281586876"><ele>225.0</ele><time>2026-04-04T09:21:38.999Z</time></trkpt><trkpt lat="45.82226842017951" lon="9.324422847183202"><ele>225.0</ele><time>2026-04-04T09:21:39.999Z</time></trkpt><trkpt lat="45.822419678121044" lon="9.324542477371208"><ele>225.0</ele><time>2026-04-04T09:21:40.999Z</time></trkpt><trkpt lat="45.822566339872125" lon="9.324668579328316"><ele>225.0</ele><time>2026-04-04T09:21:41.999Z</time></trkpt><trkpt lat="45.82269990458455" lon="9.324817540659186"><ele>225.33333333333331</ele><time>2026-04-04T09:21:42.999Z</time></trkpt><trkpt lat="45.822828441308175" lon="9.324967679148562"><ele>225.66666666666666</ele><time>2026-04-04T09:21:43.999Z</time></trkpt><trkpt lat="45.822958306813646" lon="9.325129332376704"><ele>226.0</ele><time>2026-04-04T09:21:44.999Z</time></trkpt><trkpt lat="45.82308533575704" lon="9.32530494783599"><ele>226.0</ele><time>2026-04-04T09:21:45.999Z</time></trkpt><trkpt lat="45.823207772967635" lon="9.325488636180811"><ele>226.0</ele><time>2026-04-04T09:21:46.999Z</time></trkpt><trkpt lat="45.823320244201746" lon="9.325674705374958"><ele>226.0</ele><time>2026-04-04T09:21:47.999Z</time></trkpt><trkpt lat="45.82342784701924" lon="9.325887460195231"><ele>231.66666666666666</ele><time>2026-04-04T09:21:48.999Z</time></trkpt><trkpt lat="45.82354098386729" lon="9.326116478280083"><ele>237.33333333333331</ele><time>2026-04-04T09:21:49.999Z</time></trkpt><trkpt lat="45.823645672123035" lon="9.326354899727454"><ele>243.0</ele><time>2026-04-04T09:21:50.999Z</time></trkpt><trkpt lat="45.82374293368423" lon="9.326599141615738"><ele>243.66666666666669</ele><time>2026-04-04T09:21:51.999Z</time></trkpt><trkpt lat="45.82383033557443" lon="9.326857343238625"><ele>244.33333333333334</ele><time>2026-04-04T09:21:52.999Z</time></trkpt><trkpt lat="45.823908939538896" lon="9.32712517722936"><ele>245.0</ele><time>2026-04-04T09:21:53.999Z</time></trkpt><trkpt lat="45.82398174219958" lon="9.327400051044426"><ele>243.33333333333334</ele><time>2026-04-04T09:21:54.999Z</time></trkpt><trkpt lat="45.82404922979987" lon="9.327680924584163"><ele>241.66666666666669</ele><time>2026-04-04T09:21:55.999Z</time></trkpt><trkpt lat="45.824102984639694" lon="9.327972234630346"><ele>240.0</ele><time>2026-04-04T09:21:56.999Z</time></trkpt><trkpt lat="45.82413976546166" lon="9.328264468225884"><ele>239.66666666666669</ele><time>2026-04-04T09:21:57.999Z</time></trkpt><trkpt lat="45.82416135708718" lon="9.328574445289291"><ele>239.33333333333334</ele><time>2026-04-04T09:21:58.999Z</time></trkpt><trkpt lat="45.824186142009225" lon="9.328885036683939"><ele>239.0</ele><time>2026-04-04T09:21:59.999Z</time></trkpt><trkpt lat="45.82421380112892" lon="9.32919833511696"><ele>238.0</ele><time>2026-04-04T09:22:00.999Z</time></trkpt><trkpt lat="45.82423811805572" lon="9.32951704404257"><ele>237.0</ele><time>2026-04-04T09:22:01.999Z</time></trkpt><trkpt lat="45.82426242045321" lon="9.329838784937008"><ele>236.0</ele><time>2026-04-04T09:22:02.999Z</time></trkpt><trkpt lat="45.82428554436633" lon="9.330155693592543"><ele>234.66666666666669</ele><time>2026-04-04T09:22:03.999Z</time></trkpt><trkpt lat="45.8243117747166" lon="9.330473248278906"><ele>233.33333333333331</ele><time>2026-04-04T09:22:04.999Z</time></trkpt><trkpt lat="45.824337429963286" lon="9.330790382974946"><ele>232.0</ele><time>2026-04-04T09:22:05.999Z</time></trkpt><trkpt lat="45.824365935502264" lon="9.331112141870367"><ele>243.0</ele><time>2026-04-04T09:22:06.999Z</time></trkpt><trkpt lat="45.824393804838074" lon="9.33144663783024"><ele>254.0</ele><time>2026-04-04T09:22:07.999Z</time></trkpt><trkpt lat="45.824420081877534" lon="9.331790594552267"><ele>254.0</ele><time>2026-04-04T09:22:08.999Z</time></trkpt><trkpt lat="45.82444644106936" lon="9.332137259172042"><ele>254.0</ele><time>2026-04-04T09:22:09.999Z</time></trkpt><trkpt lat="45.824468732011994" lon="9.332477877517457"><ele>253.0</ele><time>2026-04-04T09:22:10.999Z</time></trkpt><trkpt lat="45.82448779266762" lon="9.332799620946018"><ele>252.0</ele><time>2026-04-04T09:22:11.999Z</time></trkpt><trkpt lat="45.82449304996629" lon="9.333105256559163"><ele>251.0</ele><time>2026-04-04T09:22:12.999Z</time></trkpt><trkpt lat="45.82449415410952" lon="9.333392039304721"><ele>250.0</ele><time>2026-04-04T09:22:13.999Z</time></trkpt><trkpt lat="45.82449994032201" lon="9.33367882380205"><ele>249.0</ele><time>2026-04-04T09:22:14.999Z</time></trkpt><trkpt lat="45.82450468089522" lon="9.333948817892116"><ele>248.0</ele><time>2026-04-04T09:22:15.999Z</time></trkpt><trkpt lat="45.82450775228102" lon="9.334224498348474"><ele>247.66666666666669</ele><time>2026-04-04T09:22:16.999Z</time></trkpt><trkpt lat="45.82450541672072" lon="9.334496893734864"><ele>247.33333333333331</ele><time>2026-04-04T09:22:17.999Z</time></trkpt><trkpt lat="45.82450510031568" lon="9.334770508864493"><ele>247.0</ele><time>2026-04-04T09:22:18.999Z</time></trkpt><trkpt lat="45.824507382399325" lon="9.33504623421702"><ele>247.0</ele><time>2026-04-04T09:22:19.999Z</time></trkpt><trkpt lat="45.824508852808954" lon="9.335327265426285"><ele>247.0</ele><time>2026-04-04T09:22:20.999Z</time></trkpt><trkpt lat="45.824510299426485" lon="9.335605628211484"><ele>247.0</ele><time>2026-04-04T09:22:21.999Z</time></trkpt><trkpt lat="45.824511316922965" lon="9.335882064279696"><ele>247.0</ele><time>2026-04-04T09:22:22.999Z</time></trkpt><trkpt lat="45.82451327450398" lon="9.336155928158979"><ele>247.0</ele><time>2026-04-04T09:22:23.999Z</time></trkpt><trkpt lat="45.82451337176988" lon="9.33643163759384"><ele>247.0</ele><time>2026-04-04T09:22:24.999Z</time></trkpt><trkpt lat="45.824521919282354" lon="9.336705756012163"><ele>246.0</ele><time>2026-04-04T09:22:25.999Z</time></trkpt><trkpt lat="45.82453534896662" lon="9.336980608919157"><ele>245.0</ele><time>2026-04-04T09:22:27Z</time></trkpt><trkpt lat="45.82455155208183" lon="9.337248849262227"><ele>244.0</ele><time>2026-04-04T09:22:28Z</time></trkpt><trkpt lat="45.82456897371067" lon="9.33752167722993"><ele>243.0</ele><time>2026-04-04T09:22:29Z</time></trkpt><trkpt lat="45.82458487881514" lon="9.337802606724777"><ele>242.0</ele><time>2026-04-04T09:22:30Z</time></trkpt><trkpt lat="45.824596753319526" lon="9.338082813944057"><ele>241.0</ele><time>2026-04-04T09:22:31Z</time></trkpt><trkpt lat="45.824607369617524" lon="9.338357860912188"><ele>240.0</ele><time>2026-04-04T09:22:32Z</time></trkpt><trkpt lat="45.824620836776184" lon="9.338632013608764"><ele>239.0</ele><time>2026-04-04T09:22:33Z</time></trkpt><trkpt lat="45.824632569988204" lon="9.338909312496453"><ele>238.0</ele><time>2026-04-04T09:22:34Z</time></trkpt><trkpt lat="45.82464116068948" lon="9.339185222323911"><ele>237.33333333333331</ele><time>2026-04-04T09:22:35Z</time></trkpt><trkpt lat="45.824638807076944" lon="9.33946211002128"><ele>236.66666666666669</ele><time>2026-04-04T09:22:36Z</time></trkpt><trkpt lat="45.824625272271156" lon="9.339733398345464"><ele>236.0</ele><time>2026-04-04T09:22:37Z</time></trkpt><trkpt lat="45.824604499686444" lon="9.340003681168557"><ele>236.66666666666669</ele><time>2026-04-04T09:22:38Z</time></trkpt><trkpt lat="45.82458432828978" lon="9.340265679506997"><ele>237.33333333333331</ele><time>2026-04-04T09:22:39Z</time></trkpt><trkpt lat="45.82456773433154" lon="9.340510228837395"><ele>238.0</ele><time>2026-04-04T09:22:40Z</time></trkpt><trkpt lat="45.82455300520206" lon="9.340750408994836"><ele>238.0</ele><time>2026-04-04T09:22:41Z</time></trkpt><trkpt lat="45.82453812044712" lon="9.340974656351031"><ele>238.0</ele><time>2026-04-04T09:22:42Z</time></trkpt><trkpt lat="45.824523015125536" lon="9.341214048077305"><ele>238.0</ele><time>2026-04-04T09:22:43Z</time></trkpt><trkpt lat="45.824507811998465" lon="9.341452727672438"><ele>240.0</ele><time>2026-04-04T09:22:44Z</time></trkpt><trkpt lat="45.82449185307928" lon="9.341695853393444"><ele>242.0</ele><time>2026-04-04T09:22:45Z</time></trkpt><trkpt lat="45.8244767803217" lon="9.341938355679408"><ele>244.0</ele><time>2026-04-04T09:22:46Z</time></trkpt><trkpt lat="45.824461737057234" lon="9.34218649333619"><ele>243.66666666666666</ele><time>2026-04-04T09:22:47Z</time></trkpt><trkpt lat="45.82444723837334" lon="9.342441805847088"><ele>243.33333333333331</ele><time>2026-04-04T09:22:48Z</time></trkpt><trkpt lat="45.82443247802833" lon="9.342683280731015"><ele>243.0</ele><time>2026-04-04T09:22:49Z</time></trkpt><trkpt lat="45.82441381142865" lon="9.342919416904914"><ele>240.66666666666669</ele><time>2026-04-04T09:22:50Z</time></trkpt><trkpt lat="45.824383125014535" lon="9.343159391497078"><ele>238.33333333333334</ele><time>2026-04-04T09:22:51Z</time></trkpt><trkpt lat="45.824348162303494" lon="9.343411107327235"><ele>236.0</ele><time>2026-04-04T09:22:52Z</time></trkpt><trkpt lat="45.82430853739236" lon="9.343666849957447"><ele>232.33333333333334</ele><time>2026-04-04T09:22:53Z</time></trkpt><trkpt lat="45.824273818444546" lon="9.343926658886497"><ele>228.66666666666669</ele><time>2026-04-04T09:22:54Z</time></trkpt><trkpt lat="45.82425421890417" lon="9.344190597803903"><ele>225.0</ele><time>2026-04-04T09:22:55Z</time></trkpt><trkpt lat="45.824249064339845" lon="9.344431892989721"><ele>225.0</ele><time>2026-04-04T09:22:56Z</time></trkpt><trkpt lat="45.82423106063645" lon="9.344690271657411"><ele>225.0</ele><time>2026-04-04T09:22:57Z</time></trkpt><trkpt lat="45.82421060440313" lon="9.344956349261341"><ele>225.0</ele><time>2026-04-04T09:22:58Z</time></trkpt><trkpt lat="45.824192041513896" lon="9.345213399289353"><ele>225.0</ele><time>2026-04-04T09:22:59Z</time></trkpt><trkpt lat="45.82417279698372" lon="9.345471219032662"><ele>225.0</ele><time>2026-04-04T09:23:00Z</time></trkpt><trkpt lat="45.82415126940647" lon="9.345732128215754"><ele>225.0</ele><time>2026-04-04T09:23:01Z</time></trkpt><trkpt lat="45.824128869777226" lon="9.345991758316025"><ele>225.0</ele><time>2026-04-04T09:23:02Z</time></trkpt><trkpt lat="45.8241101672198" lon="9.346250683960074"><ele>225.0</ele><time>2026-04-04T09:23:03Z</time></trkpt><trkpt lat="45.824103734903446" lon="9.346511193294155"><ele>225.0</ele><time>2026-04-04T09:23:04Z</time></trkpt><trkpt lat="45.82411353222433" lon="9.346770901406508"><ele>225.33333333333331</ele><time>2026-04-04T09:23:05Z</time></trkpt><trkpt lat="45.82413666952671" lon="9.347029298921"><ele>225.66666666666666</ele><time>2026-04-04T09:23:06Z</time></trkpt><trkpt lat="45.82416971403709" lon="9.34727970687465"><ele>226.0</ele><time>2026-04-04T09:23:07Z</time></trkpt><trkpt lat="45.82420718179861" lon="9.347532783633305"><ele>226.0</ele><time>2026-04-04T09:23:08Z</time></trkpt><trkpt lat="45.82425057840881" lon="9.347761657209057"><ele>226.0</ele><time>2026-04-04T09:23:09Z</time></trkpt><trkpt lat="45.82429096711754" lon="9.347960492392687"><ele>226.0</ele><time>2026-04-04T09:23:10Z</time></trkpt><trkpt lat="45.82433765181809" lon="9.348155056483279"><ele>226.25</ele><time>2026-04-04T09:23:11Z</time></trkpt><trkpt lat="45.824400371257184" lon="9.348339963349332"><ele>226.5</ele><time>2026-04-04T09:23:12Z</time></trkpt><trkpt lat="45.824488723169516" lon="9.348481319788768"><ele>226.75</ele><time>2026-04-04T09:23:13Z</time></trkpt><trkpt lat="45.82460635198631" lon="9.348554697318393"><ele>227.0</ele><time>2026-04-04T09:23:14Z</time></trkpt><trkpt lat="45.824734698399375" lon="9.348594322260658"><ele>227.0</ele><time>2026-04-04T09:23:15Z</time></trkpt><trkpt lat="45.82485830444824" lon="9.348673116149536"><ele>227.0</ele><time>2026-04-04T09:23:16Z</time></trkpt><trkpt lat="45.82500952149931" lon="9.348783185156853"><ele>227.0</ele><time>2026-04-04T09:23:17Z</time></trkpt><trkpt lat="45.82514446562176" lon="9.348908093201679"><ele>226.66666666666669</ele><time>2026-04-04T09:23:18Z</time></trkpt><trkpt lat="45.82525388283422" lon="9.349098796637744"><ele>226.33333333333331</ele><time>2026-04-04T09:23:19Z</time></trkpt><trkpt lat="45.82536544461132" lon="9.34926100387631"><ele>226.0</ele><time>2026-04-04T09:23:20Z</time></trkpt><trkpt lat="45.82547740739533" lon="9.349388444401999"><ele>226.0</ele><time>2026-04-04T09:23:21Z</time></trkpt><trkpt lat="45.825589092288745" lon="9.34949960330676"><ele>226.0</ele><time>2026-04-04T09:23:22Z</time></trkpt><trkpt lat="45.82569548696567" lon="9.349593941941263"><ele>226.0</ele><time>2026-04-04T09:23:23Z</time></trkpt><trkpt lat="45.82580085985714" lon="9.349679410162622"><ele>226.0</ele><time>2026-04-04T09:23:24Z</time></trkpt><trkpt lat="45.82591527142855" lon="9.349764062208306"><ele>227.0</ele><time>2026-04-04T09:23:25Z</time></trkpt><trkpt lat="45.826028209097885" lon="9.34984763999851"><ele>228.0</ele><time>2026-04-04T09:23:26Z</time></trkpt><trkpt lat="45.8261298955607" lon="9.349923144279826"><ele>229.0</ele><time>2026-04-04T09:23:27Z</time></trkpt><trkpt lat="45.8262274594404" lon="9.349997931340427"><ele>230.0</ele><time>2026-04-04T09:23:27.999Z</time></trkpt><trkpt lat="45.826323372702504" lon="9.350071981647126"><ele>230.0</ele><time>2026-04-04T09:23:28.999Z</time></trkpt><trkpt lat="45.82640911569721" lon="9.350132892483506"><ele>230.0</ele><time>2026-04-04T09:23:29.999Z</time></trkpt><trkpt lat="45.826492013095525" lon="9.350191652106409"><ele>230.0</ele><time>2026-04-04T09:23:30.999Z</time></trkpt><trkpt lat="45.8265703429498" lon="9.35025540779486"><ele>230.0</ele><time>2026-04-04T09:23:31.999Z</time></trkpt><trkpt lat="45.82665202395938" lon="9.350320440028947"><ele>230.0</ele><time>2026-04-04T09:23:32.999Z</time></trkpt><trkpt lat="45.82672924591637" lon="9.350379105407818"><ele>230.00000000000003</ele><time>2026-04-04T09:23:33.999Z</time></trkpt><trkpt lat="45.826799635760985" lon="9.350433095494685"><ele>230.0</ele><time>2026-04-04T09:23:34.999Z</time></trkpt><trkpt lat="45.826865119330364" lon="9.350488041968367"><ele>230.0</ele><time>2026-04-04T09:23:35.999Z</time></trkpt><trkpt lat="45.82693714328893" lon="9.3505632774322"><ele>230.0</ele><time>2026-04-04T09:23:36.999Z</time></trkpt><trkpt lat="45.827005481052325" lon="9.350662547909648"><ele>230.00000000000003</ele><time>2026-04-04T09:23:37.999Z</time></trkpt><trkpt lat="45.82708394308788" lon="9.350751750136492"><ele>230.0</ele><time>2026-04-04T09:23:38.999Z</time></trkpt><trkpt lat="45.82719171551037" lon="9.350802444405435"><ele>229.5</ele><time>2026-04-04T09:23:39.999Z</time></trkpt><trkpt lat="45.8273137087378" lon="9.350842745667377"><ele>229.0</ele><time>2026-04-04T09:23:40.999Z</time></trkpt><trkpt lat="45.82744680527281" lon="9.350910478759722"><ele>228.5</ele><time>2026-04-04T09:23:41.999Z</time></trkpt><trkpt lat="45.827590132692336" lon="9.351009962445891"><ele>228.0</ele><time>2026-04-04T09:23:42.999Z</time></trkpt><trkpt lat="45.827733435609375" lon="9.351119536782067"><ele>228.0</ele><time>2026-04-04T09:23:43.999Z</time></trkpt><trkpt lat="45.82787232025453" lon="9.351222273543243"><ele>228.0</ele><time>2026-04-04T09:23:44.999Z</time></trkpt><trkpt lat="45.82799971064435" lon="9.351316616460494"><ele>228.0</ele><time>2026-04-04T09:23:45.999Z</time></trkpt><trkpt lat="45.828131210554865" lon="9.351418292881826"><ele>228.0</ele><time>2026-04-04T09:23:46.999Z</time></trkpt><trkpt lat="45.82827142789272" lon="9.351514664232269"><ele>228.33333333333331</ele><time>2026-04-04T09:23:47.999Z</time></trkpt><trkpt lat="45.828414710774474" lon="9.35162092929035"><ele>228.66666666666666</ele><time>2026-04-04T09:23:48.999Z</time></trkpt><trkpt lat="45.828560904168455" lon="9.351715131048476"><ele>229.0</ele><time>2026-04-04T09:23:49.999Z</time></trkpt><trkpt lat="45.82870969143964" lon="9.351793905074686"><ele>229.0</ele><time>2026-04-04T09:23:50.999Z</time></trkpt><trkpt lat="45.82887025196245" lon="9.351856793239438"><ele>229.0</ele><time>2026-04-04T09:23:51.999Z</time></trkpt><trkpt lat="45.82903397765419" lon="9.351917786480268"><ele>229.0</ele><time>2026-04-04T09:23:52.999Z</time></trkpt><trkpt lat="45.82919973842083" lon="9.351972625399338"><ele>228.66666666666666</ele><time>2026-04-04T09:23:53.999Z</time></trkpt><trkpt lat="45.829367900227496" lon="9.352010956801589"><ele>228.33333333333331</ele><time>2026-04-04T09:23:54.999Z</time></trkpt><trkpt lat="45.829551552602425" lon="9.352055559350378"><ele>228.0</ele><time>2026-04-04T09:23:55.999Z</time></trkpt><trkpt lat="45.82974574217285" lon="9.352108030426098"><ele>228.0</ele><time>2026-04-04T09:23:56.999Z</time></trkpt><trkpt lat="45.82994581791205" lon="9.352189391811903"><ele>228.0</ele><time>2026-04-04T09:23:57.999Z</time></trkpt><trkpt lat="45.830154191684684" lon="9.35222269848607"><ele>228.0</ele><time>2026-04-04T09:23:58.999Z</time></trkpt><trkpt lat="45.83035603189144" lon="9.35227896940832"><ele>228.0</ele><time>2026-04-04T09:23:59.999Z</time></trkpt><trkpt lat="45.83055677014477" lon="9.352328866390094"><ele>228.0</ele><time>2026-04-04T09:24:00.999Z</time></trkpt><trkpt lat="45.83075491186597" lon="9.352381205239409"><ele>228.0</ele><time>2026-04-04T09:24:01.999Z</time></trkpt><trkpt lat="45.830949517672586" lon="9.352435068138039"><ele>229.0</ele><time>2026-04-04T09:24:02.999Z</time></trkpt><trkpt lat="45.83114048354129" lon="9.35249058222123"><ele>230.0</ele><time>2026-04-04T09:24:03.999Z</time></trkpt><trkpt lat="45.83133375751021" lon="9.352561026231836"><ele>231.0</ele><time>2026-04-04T09:24:04.999Z</time></trkpt><trkpt lat="45.83152008862066" lon="9.352627434880754"><ele>231.0</ele><time>2026-04-04T09:24:05.999Z</time></trkpt><trkpt lat="45.83171267290999" lon="9.352666382912336"><ele>231.0</ele><time>2026-04-04T09:24:06.999Z</time></trkpt><trkpt lat="45.831904077922054" lon="9.352665333506973"><ele>231.0</ele><time>2026-04-04T09:24:07.999Z</time></trkpt><trkpt lat="45.83210064207266" lon="9.35262385208869"><ele>230.66666666666669</ele><time>2026-04-04T09:24:08.999Z</time></trkpt><trkpt lat="45.83229420950516" lon="9.352566959058013"><ele>230.33333333333334</ele><time>2026-04-04T09:24:09.999Z</time></trkpt><trkpt lat="45.832486078698246" lon="9.352516638217072"><ele>230.0</ele><time>2026-04-04T09:24:10.999Z</time></trkpt><trkpt lat="45.83267762307735" lon="9.352477783234402"><ele>228.33333333333334</ele><time>2026-04-04T09:24:11.999Z</time></trkpt><trkpt lat="45.83287352741848" lon="9.352453128081125"><ele>226.66666666666669</ele><time>2026-04-04T09:24:12.999Z</time></trkpt><trkpt lat="45.83306972351658" lon="9.352432284568971"><ele>225.0</ele><time>2026-04-04T09:24:13.999Z</time></trkpt><trkpt lat="45.83325940584226" lon="9.352439103609635"><ele>225.0</ele><time>2026-04-04T09:24:14.999Z</time></trkpt><trkpt lat="45.83343917000026" lon="9.352480255486556"><ele>225.0</ele><time>2026-04-04T09:24:15.999Z</time></trkpt><trkpt lat="45.83361584617092" lon="9.352541051955102"><ele>225.0</ele><time>2026-04-04T09:24:16.999Z</time></trkpt><trkpt lat="45.833792765664306" lon="9.35261638028895"><ele>223.66666666666669</ele><time>2026-04-04T09:24:17.999Z</time></trkpt><trkpt lat="45.83397083563658" lon="9.352718436907644"><ele>222.33333333333334</ele><time>2026-04-04T09:24:18.999Z</time></trkpt><trkpt lat="45.83414852378465" lon="9.352846222022594"><ele>221.0</ele><time>2026-04-04T09:24:19.999Z</time></trkpt><trkpt lat="45.83432448956579" lon="9.353001568056362"><ele>221.0</ele><time>2026-04-04T09:24:20.999Z</time></trkpt><trkpt lat="45.834497922928115" lon="9.353182891311155"><ele>221.0</ele><time>2026-04-04T09:24:21.999Z</time></trkpt><trkpt lat="45.83466900417339" lon="9.35337232345428"><ele>221.0</ele><time>2026-04-04T09:24:22.999Z</time></trkpt><trkpt lat="45.83484450645463" lon="9.353559891998746"><ele>221.0</ele><time>2026-04-04T09:24:23.999Z</time></trkpt><trkpt lat="45.83502704433307" lon="9.353748942818736"><ele>221.0</ele><time>2026-04-04T09:24:24.999Z</time></trkpt><trkpt lat="45.83521401026951" lon="9.353936024664279"><ele>220.5</ele><time>2026-04-04T09:24:25.999Z</time></trkpt><trkpt lat="45.83540460801055" lon="9.354128767785118"><ele>220.0</ele><time>2026-04-04T09:24:26.999Z</time></trkpt><trkpt lat="45.835591350935594" lon="9.354328560127598"><ele>220.0</ele><time>2026-04-04T09:24:27.999Z</time></trkpt><trkpt lat="45.8357777142816" lon="9.354533704344746"><ele>220.0</ele><time>2026-04-04T09:24:28.999Z</time></trkpt><trkpt lat="45.83596645481612" lon="9.354734721638081"><ele>220.5</ele><time>2026-04-04T09:24:29.999Z</time></trkpt><trkpt lat="45.836162940461875" lon="9.35493589272915"><ele>221.0</ele><time>2026-04-04T09:24:30.999Z</time></trkpt><trkpt lat="45.83635766487632" lon="9.35513826671978"><ele>221.0</ele><time>2026-04-04T09:24:31.999Z</time></trkpt><trkpt lat="45.83654964563462" lon="9.355345224388653"><ele>221.0</ele><time>2026-04-04T09:24:33Z</time></trkpt><trkpt lat="45.83673865135921" lon="9.3555549412685"><ele>223.0</ele><time>2026-04-04T09:24:34Z</time></trkpt><trkpt lat="45.83692919624024" lon="9.355763794784739"><ele>225.0</ele><time>2026-04-04T09:24:35Z</time></trkpt><trkpt lat="45.83711776141967" lon="9.355966162139472"><ele>225.0</ele><time>2026-04-04T09:24:36Z</time></trkpt><trkpt lat="45.83731165201007" lon="9.35616633172749"><ele>225.0</ele><time>2026-04-04T09:24:37Z</time></trkpt><trkpt lat="45.83750955832381" lon="9.356369360874762"><ele>224.0</ele><time>2026-04-04T09:24:38Z</time></trkpt><trkpt lat="45.83770453682217" lon="9.356573492518912"><ele>223.0</ele><time>2026-04-04T09:24:39Z</time></trkpt><trkpt lat="45.83789835538402" lon="9.356775381679741"><ele>223.0</ele><time>2026-04-04T09:24:40Z</time></trkpt><trkpt lat="45.838090253934034" lon="9.35697126116403"><ele>223.0</ele><time>2026-04-04T09:24:41Z</time></trkpt><trkpt lat="45.83826829043462" lon="9.357153803405307"><ele>223.0</ele><time>2026-04-04T09:24:42Z</time></trkpt><trkpt lat="45.83843522560958" lon="9.357324506293224"><ele>223.0</ele><time>2026-04-04T09:24:43Z</time></trkpt><trkpt lat="45.838606858276435" lon="9.357493564961992"><ele>223.0</ele><time>2026-04-04T09:24:44Z</time></trkpt><trkpt lat="45.838791369657635" lon="9.357654905063498"><ele>223.0</ele><time>2026-04-04T09:24:45Z</time></trkpt><trkpt lat="45.83898843547263" lon="9.357813697203312"><ele>223.0</ele><time>2026-04-04T09:24:46Z</time></trkpt><trkpt lat="45.83918648420083" lon="9.357961532531327"><ele>223.0</ele><time>2026-04-04T09:24:47Z</time></trkpt><trkpt lat="45.83938814921198" lon="9.358105621798765"><ele>223.0</ele><time>2026-04-04T09:24:48Z</time></trkpt><trkpt lat="45.83958421348002" lon="9.358238555938064"><ele>223.0</ele><time>2026-04-04T09:24:49Z</time></trkpt><trkpt lat="45.839770708632784" lon="9.3583723023731"><ele>223.0</ele><time>2026-04-04T09:24:50Z</time></trkpt><trkpt lat="45.83994390787546" lon="9.35850979360188"><ele>223.0</ele><time>2026-04-04T09:24:51Z</time></trkpt><trkpt lat="45.840115667086714" lon="9.358657348166908"><ele>223.0</ele><time>2026-04-04T09:24:52Z</time></trkpt><trkpt lat="45.84029188657481" lon="9.358815992743779"><ele>223.0</ele><time>2026-04-04T09:24:53Z</time></trkpt><trkpt lat="45.84046795995458" lon="9.359009396216992"><ele>223.0</ele><time>2026-04-04T09:24:54Z</time></trkpt><trkpt lat="45.84062414772875" lon="9.35923518396991"><ele>223.0</ele><time>2026-04-04T09:24:55Z</time></trkpt><trkpt lat="45.840767664433216" lon="9.359476011103478"><ele>223.0</ele><time>2026-04-04T09:24:56Z</time></trkpt><trkpt lat="45.840905211296466" lon="9.359723146030712"><ele>222.66666666666666</ele><time>2026-04-04T09:24:57Z</time></trkpt><trkpt lat="45.84103916384322" lon="9.359976688402805"><ele>222.33333333333331</ele><time>2026-04-04T09:24:58Z</time></trkpt><trkpt lat="45.8411711852392" lon="9.360223892589062"><ele>222.0</ele><time>2026-04-04T09:24:59Z</time></trkpt><trkpt lat="45.84129900597646" lon="9.36045290765324"><ele>222.33333333333331</ele><time>2026-04-04T09:25:00Z</time></trkpt><trkpt lat="45.84142588128116" lon="9.360669016476281"><ele>222.66666666666666</ele><time>2026-04-04T09:25:01Z</time></trkpt><trkpt lat="45.841560701638336" lon="9.360879198676926"><ele>223.0</ele><time>2026-04-04T09:25:02Z</time></trkpt><trkpt lat="45.84171228166145" lon="9.361087870773233"><ele>222.0</ele><time>2026-04-04T09:25:03Z</time></trkpt><trkpt lat="45.84188451661763" lon="9.361293868934057"><ele>221.0</ele><time>2026-04-04T09:25:04Z</time></trkpt><trkpt lat="45.84206838671791" lon="9.361506415742419"><ele>221.0</ele><time>2026-04-04T09:25:05Z</time></trkpt><trkpt lat="45.842254150289584" lon="9.361733853251657"><ele>221.0</ele><time>2026-04-04T09:25:06Z</time></trkpt><trkpt lat="45.84243837063696" lon="9.361971491459169"><ele>221.5</ele><time>2026-04-04T09:25:07Z</time></trkpt><trkpt lat="45.842624955573356" lon="9.362213016132689"><ele>222.0</ele><time>2026-04-04T09:25:08Z</time></trkpt><trkpt lat="45.84280919369277" lon="9.362454529152465"><ele>221.0</ele><time>2026-04-04T09:25:09Z</time></trkpt><trkpt lat="45.842980517280765" lon="9.362697715827121"><ele>220.0</ele><time>2026-04-04T09:25:10Z</time></trkpt><trkpt lat="45.843139920101606" lon="9.362963073472635"><ele>220.0</ele><time>2026-04-04T09:25:11Z</time></trkpt><trkpt lat="45.84328941634617" lon="9.363254012628387"><ele>220.0</ele><time>2026-04-04T09:25:12Z</time></trkpt><trkpt lat="45.843426659410675" lon="9.363556758739012"><ele>219.5</ele><time>2026-04-04T09:25:13Z</time></trkpt><trkpt lat="45.843551979776876" lon="9.363859749236074"><ele>219.0</ele><time>2026-04-04T09:25:14Z</time></trkpt><trkpt lat="45.84366114529413" lon="9.364174545158878"><ele>219.0</ele><time>2026-04-04T09:25:15Z</time></trkpt><trkpt lat="45.84375639702581" lon="9.3644874881888"><ele>219.0</ele><time>2026-04-04T09:25:16Z</time></trkpt><trkpt lat="45.843843714098114" lon="9.364793518332643"><ele>218.66666666666669</ele><time>2026-04-04T09:25:17Z</time></trkpt><trkpt lat="45.84394587200554" lon="9.365082527241102"><ele>218.33333333333334</ele><time>2026-04-04T09:25:18Z</time></trkpt><trkpt lat="45.844063439514194" lon="9.365337054042554"><ele>218.0</ele><time>2026-04-04T09:25:19Z</time></trkpt><trkpt lat="45.84418699222835" lon="9.365563096400617"><ele>219.66666666666669</ele><time>2026-04-04T09:25:20Z</time></trkpt><trkpt lat="45.844316151494276" lon="9.36575561788262"><ele>221.33333333333331</ele><time>2026-04-04T09:25:21Z</time></trkpt><trkpt lat="45.844449968768664" lon="9.365917896049476"><ele>223.0</ele><time>2026-04-04T09:25:22Z</time></trkpt><trkpt lat="45.8445911799436" lon="9.3660487944801"><ele>223.0</ele><time>2026-04-04T09:25:23Z</time></trkpt><trkpt lat="45.84473917853789" lon="9.366172446534021"><ele>223.0</ele><time>2026-04-04T09:25:24Z</time></trkpt><trkpt lat="45.844898215504784" lon="9.366295949074278"><ele>223.0</ele><time>2026-04-04T09:25:25Z</time></trkpt><trkpt lat="45.845062027339466" lon="9.366434029069477"><ele>223.66666666666666</ele><time>2026-04-04T09:25:26Z</time></trkpt><trkpt lat="45.84521484209638" lon="9.366567523097443"><ele>224.33333333333331</ele><time>2026-04-04T09:25:27Z</time></trkpt><trkpt lat="45.845359406147054" lon="9.366696892110458"><ele>225.0</ele><time>2026-04-04T09:25:28Z</time></trkpt><trkpt lat="45.84548876371433" lon="9.366818426203325"><ele>225.0</ele><time>2026-04-04T09:25:29Z</time></trkpt><trkpt lat="45.84560804589965" lon="9.3669371854809"><ele>225.0</ele><time>2026-04-04T09:25:30Z</time></trkpt><trkpt lat="45.845714293492776" lon="9.367045860686599"><ele>225.0</ele><time>2026-04-04T09:25:31Z</time></trkpt><trkpt lat="45.84580925630802" lon="9.367135092797481"><ele>225.0</ele><time>2026-04-04T09:25:32Z</time></trkpt><trkpt lat="45.84588051651746" lon="9.367209726149387"><ele>225.0</ele><time>2026-04-04T09:25:33Z</time></trkpt><trkpt lat="45.84593252871519" lon="9.367263029034353"><ele>225.0</ele><time>2026-04-04T09:25:34Z</time></trkpt><trkpt lat="45.84600761708315" lon="9.367330908383721"><ele>225.0</ele><time>2026-04-04T09:25:36Z</time></trkpt><trkpt lat="45.84607253028651" lon="9.36740923323039"><ele>225.0</ele><time>2026-04-04T09:25:39Z</time></trkpt><trkpt lat="45.84615125046886" lon="9.367490191057565"><ele>225.0</ele><time>2026-04-04T09:25:41Z</time></trkpt><trkpt lat="45.84621666601483" lon="9.367554496452204"><ele>225.0</ele><time>2026-04-04T09:25:43Z</time></trkpt><trkpt lat="45.84628225611576" lon="9.367633102973729"><ele>225.16666666666666</ele><time>2026-04-04T09:25:44Z</time></trkpt><trkpt lat="45.84634839744599" lon="9.367701898136252"><ele>225.33333333333331</ele><time>2026-04-04T09:25:45Z</time></trkpt><trkpt lat="45.846416345564464" lon="9.367772879125823"><ele>225.5</ele><time>2026-04-04T09:25:45.999Z</time></trkpt><trkpt lat="45.84648902398383" lon="9.367850023402513"><ele>225.66666666666666</ele><time>2026-04-04T09:25:46.999Z</time></trkpt><trkpt lat="45.84656202843964" lon="9.367926049771006"><ele>225.83333333333331</ele><time>2026-04-04T09:25:47.999Z</time></trkpt><trkpt lat="45.84663335242822" lon="9.36800683835434"><ele>226.0</ele><time>2026-04-04T09:25:48.999Z</time></trkpt><trkpt lat="45.846714068528264" lon="9.368094031835406"><ele>226.75</ele><time>2026-04-04T09:25:49.999Z</time></trkpt><trkpt lat="45.8467984747393" lon="9.368188105791265"><ele>227.5</ele><time>2026-04-04T09:25:50.999Z</time></trkpt><trkpt lat="45.84688421557644" lon="9.368291555351298"><ele>228.25</ele><time>2026-04-04T09:25:51.999Z</time></trkpt><trkpt lat="45.84696729664426" lon="9.368414130561266"><ele>229.0</ele><time>2026-04-04T09:25:52.999Z</time></trkpt><trkpt lat="45.84704327605434" lon="9.368551497164674"><ele>229.0</ele><time>2026-04-04T09:25:53.999Z</time></trkpt><trkpt lat="45.84712269608312" lon="9.368718833727547"><ele>229.0</ele><time>2026-04-04T09:25:54.999Z</time></trkpt><trkpt lat="45.847195064162925" lon="9.368892262800687"><ele>229.0</ele><time>2026-04-04T09:25:55.999Z</time></trkpt><trkpt lat="45.84726786096473" lon="9.369080458776585"><ele>229.0</ele><time>2026-04-04T09:25:56.999Z</time></trkpt><trkpt lat="45.847333157666604" lon="9.369255354111143"><ele>229.0</ele><time>2026-04-04T09:25:57.999Z</time></trkpt><trkpt lat="45.84738707370084" lon="9.36940120347949"><ele>228.99999999999997</ele><time>2026-04-04T09:25:58.999Z</time></trkpt><trkpt lat="45.84743942295828" lon="9.369537165265276"><ele>228.99999999999997</ele><time>2026-04-04T09:25:59.999Z</time></trkpt><trkpt lat="45.847485069919685" lon="9.369655589909113"><ele>229.0</ele><time>2026-04-04T09:26:00.999Z</time></trkpt><trkpt lat="45.84752249589265" lon="9.369748929816552"><ele>229.0</ele><time>2026-04-04T09:26:01.999Z</time></trkpt><trkpt lat="45.84758068072335" lon="9.369877768079167"><ele>228.99999999999997</ele><time>2026-04-04T09:26:03.999Z</time></trkpt><trkpt lat="45.847621848883406" lon="9.369955344135693"><ele>229.0</ele><time>2026-04-04T09:26:05.999Z</time></trkpt><trkpt lat="45.847664428949834" lon="9.37002692601576"><ele>229.0</ele><time>2026-04-04T09:26:34.999Z</time></trkpt><trkpt lat="45.84770525844892" lon="9.370114666583792"><ele>229.0</ele><time>2026-04-04T09:26:37.999Z</time></trkpt><trkpt lat="45.84774255015439" lon="9.370232493159415"><ele>228.99999999999997</ele><time>2026-04-04T09:26:40Z</time></trkpt><trkpt lat="45.847784682017334" lon="9.370369255103116"><ele>229.0</ele><time>2026-04-04T09:26:42Z</time></trkpt><trkpt lat="45.84784721365143" lon="9.370513125084655"><ele>229.0</ele><time>2026-04-04T09:26:44Z</time></trkpt><trkpt lat="45.847874517017004" lon="9.370667507530346"><ele>229.0</ele><time>2026-04-04T09:26:46Z</time></trkpt><trkpt lat="45.847911836624114" lon="9.370779441858422"><ele>229.0</ele><time>2026-04-04T09:26:48Z</time></trkpt><trkpt lat="45.84806689623381" lon="9.370755791468065"><ele>229.0</ele><time>2026-04-04T09:26:51Z</time></trkpt><trkpt lat="45.84818518341864" lon="9.370814903799248"><ele>229.0</ele><time>2026-04-04T09:26:53Z</time></trkpt><trkpt lat="45.84824484985051" lon="9.370871269336316"><ele>228.99999999999997</ele><time>2026-04-04T09:26:54Z</time></trkpt><trkpt lat="45.84831836438402" lon="9.370929593272946"><ele>228.99999999999997</ele><time>2026-04-04T09:26:55Z</time></trkpt><trkpt lat="45.84840397830812" lon="9.370997521073742"><ele>229.0</ele><time>2026-04-04T09:26:56Z</time></trkpt><trkpt lat="45.848490408386425" lon="9.371070875776766"><ele>229.0</ele><time>2026-04-04T09:26:57Z</time></trkpt><trkpt lat="45.84858136645197" lon="9.37114323232176"><ele>229.0</ele><time>2026-04-04T09:26:58Z</time></trkpt><trkpt lat="45.848678701137885" lon="9.371217532918676"><ele>228.99999999999997</ele><time>2026-04-04T09:26:59Z</time></trkpt><trkpt lat="45.84878039123745" lon="9.37129588181165"><ele>228.99999999999997</ele><time>2026-04-04T09:27:00Z</time></trkpt><trkpt lat="45.848878336769296" lon="9.371373544577677"><ele>229.0</ele><time>2026-04-04T09:27:01Z</time></trkpt><trkpt lat="45.84897451419377" lon="9.37145306128486"><ele>229.0</ele><time>2026-04-04T09:27:02Z</time></trkpt><trkpt lat="45.84906704876424" lon="9.371525582067433"><ele>229.39999999999998</ele><time>2026-04-04T09:27:03Z</time></trkpt><trkpt lat="45.84916457018144" lon="9.371599773722805"><ele>229.79999999999998</ele><time>2026-04-04T09:27:04Z</time></trkpt><trkpt lat="45.84926048270207" lon="9.371676342838578"><ele>230.20000000000002</ele><time>2026-04-04T09:27:05Z</time></trkpt><trkpt lat="45.84935384241426" lon="9.371744180979366"><ele>230.60000000000002</ele><time>2026-04-04T09:27:06Z</time></trkpt><trkpt lat="45.84945310656774" lon="9.371821487529656"><ele>231.0</ele><time>2026-04-04T09:27:07Z</time></trkpt><trkpt lat="45.849550111332114" lon="9.371902218445271"><ele>231.0</ele><time>2026-04-04T09:27:08Z</time></trkpt><trkpt lat="45.84964773751537" lon="9.37198116459423"><ele>231.0</ele><time>2026-04-04T09:27:09Z</time></trkpt><trkpt lat="45.84974753458547" lon="9.37206375729108"><ele>231.0</ele><time>2026-04-04T09:27:10Z</time></trkpt><trkpt lat="45.84984898733197" lon="9.372153317021644"><ele>231.0</ele><time>2026-04-04T09:27:11Z</time></trkpt><trkpt lat="45.849939644338114" lon="9.372262152447776"><ele>231.25</ele><time>2026-04-04T09:27:12Z</time></trkpt><trkpt lat="45.85002920556735" lon="9.372382586466092"><ele>231.5</ele><time>2026-04-04T09:27:13Z</time></trkpt><trkpt lat="45.85011097051466" lon="9.37249961450496"><ele>231.75</ele><time>2026-04-04T09:27:14Z</time></trkpt><trkpt lat="45.85018783111645" lon="9.37261335180173"><ele>232.0</ele><time>2026-04-04T09:27:15Z</time></trkpt><trkpt lat="45.85028671999276" lon="9.372711112957374"><ele>230.2</ele><time>2026-04-04T09:27:16Z</time></trkpt><trkpt lat="45.850354417694554" lon="9.372802869172757"><ele>228.39999999999998</ele><time>2026-04-04T09:27:17Z</time></trkpt><trkpt lat="45.85043388589785" lon="9.372884101517299"><ele>226.60000000000002</ele><time>2026-04-04T09:27:18Z</time></trkpt><trkpt lat="45.85052410196665" lon="9.372954698705936"><ele>224.8</ele><time>2026-04-04T09:27:19Z</time></trkpt><trkpt lat="45.85061045463402" lon="9.373013778315487"><ele>223.0</ele><time>2026-04-04T09:27:20Z</time></trkpt><trkpt lat="45.85069752954543" lon="9.373070440718609"><ele>223.0</ele><time>2026-04-04T09:27:21Z</time></trkpt><trkpt lat="45.8507817465746" lon="9.373115000931854"><ele>223.0</ele><time>2026-04-04T09:27:22Z</time></trkpt><trkpt lat="45.85086446465464" lon="9.373155760578863"><ele>223.0</ele><time>2026-04-04T09:27:23Z</time></trkpt><trkpt lat="45.85094390485685" lon="9.37319407199644"><ele>223.0</ele><time>2026-04-04T09:27:24Z</time></trkpt><trkpt lat="45.851015450345386" lon="9.373234711274904"><ele>223.0</ele><time>2026-04-04T09:27:25Z</time></trkpt><trkpt lat="45.851128565350436" lon="9.373287653717039"><ele>223.66666666666666</ele><time>2026-04-04T09:27:27Z</time></trkpt><trkpt lat="45.85122347356818" lon="9.373330015951007"><ele>224.33333333333331</ele><time>2026-04-04T09:27:29Z</time></trkpt><trkpt lat="45.85130569391504" lon="9.373373609576078"><ele>225.0</ele><time>2026-04-04T09:27:31Z</time></trkpt><trkpt lat="45.85140000972109" lon="9.37345565786095"><ele>225.66666666666669</ele><time>2026-04-04T09:27:33Z</time></trkpt><trkpt lat="45.851470004719545" lon="9.373486375625365"><ele>226.33333333333334</ele><time>2026-04-04T09:27:34Z</time></trkpt><trkpt lat="45.85150613651361" lon="9.373575839114045"><ele>227.0</ele><time>2026-04-04T09:27:35Z</time></trkpt><trkpt lat="45.85156106803756" lon="9.373630220806143"><ele>227.00000000000003</ele><time>2026-04-04T09:27:36Z</time></trkpt><trkpt lat="45.85161193596536" lon="9.373686125575631"><ele>227.0</ele><time>2026-04-04T09:27:37Z</time></trkpt><trkpt lat="45.85170198275946" lon="9.373790414027793"><ele>227.0</ele><time>2026-04-04T09:27:39Z</time></trkpt><trkpt lat="45.85178723966411" lon="9.373898747514504"><ele>227.0</ele><time>2026-04-04T09:27:41Z</time></trkpt><trkpt lat="45.85183324722392" lon="9.373961804202485"><ele>227.00000000000003</ele><time>2026-04-04T09:27:42Z</time></trkpt><trkpt lat="45.85188866078093" lon="9.374032366337326"><ele>227.0</ele><time>2026-04-04T09:27:43Z</time></trkpt><trkpt lat="45.85194905641908" lon="9.37411356368637"><ele>225.83333333333334</ele><time>2026-04-04T09:27:44Z</time></trkpt><trkpt lat="45.851998213464135" lon="9.37417968001075"><ele>224.66666666666669</ele><time>2026-04-04T09:27:45Z</time></trkpt><trkpt lat="45.85209529723524" lon="9.374285266320602"><ele>223.5</ele><time>2026-04-04T09:27:47Z</time></trkpt><trkpt lat="45.85215727246676" lon="9.374329550782004"><ele>222.33333333333331</ele><time>2026-04-04T09:27:48Z</time></trkpt><trkpt lat="45.85223503942211" lon="9.374365191367408"><ele>221.16666666666666</ele><time>2026-04-04T09:27:49Z</time></trkpt><trkpt lat="45.85230066979302" lon="9.37440963277541"><ele>220.0</ele><time>2026-04-04T09:27:50Z</time></trkpt><trkpt lat="45.85234670045411" lon="9.374474254288963"><ele>220.0</ele><time>2026-04-04T09:27:51Z</time></trkpt><trkpt lat="45.85240520742227" lon="9.37460240881645"><ele>220.0</ele><time>2026-04-04T09:27:53Z</time></trkpt><trkpt lat="45.85244331579513" lon="9.374678615029682"><ele>220.0</ele><time>2026-04-04T09:27:54Z</time></trkpt><trkpt lat="45.85249821381873" lon="9.374835512298931"><ele>220.0</ele><time>2026-04-04T09:27:56Z</time></trkpt><trkpt lat="45.85250335929007" lon="9.374930170576885"><ele>220.0</ele><time>2026-04-04T09:27:57Z</time></trkpt><trkpt lat="45.852550970518955" lon="9.375061040888578"><ele>219.0</ele><time>2026-04-04T09:27:59Z</time></trkpt><trkpt lat="45.85255919005815" lon="9.375198310992293"><ele>218.0</ele><time>2026-04-04T09:28:00.999Z</time></trkpt><trkpt lat="45.852568230181255" lon="9.375295838224524"><ele>217.0</ele><time>2026-04-04T09:28:02.999Z</time></trkpt><trkpt lat="45.852594356078484" lon="9.375398182725599"><ele>216.0</ele><time>2026-04-04T09:28:10.999Z</time></trkpt><trkpt lat="45.852739044186166" lon="9.375331358567275"><ele>215.0</ele><time>2026-04-04T09:28:13.999Z</time></trkpt><trkpt lat="45.852800795166154" lon="9.375269936401297"><ele>213.6</ele><time>2026-04-04T09:28:16.999Z</time></trkpt><trkpt lat="45.852870850658604" lon="9.375208209993804"><ele>212.2</ele><time>2026-04-04T09:28:19.999Z</time></trkpt><trkpt lat="45.85294187130717" lon="9.375144626507211"><ele>210.8</ele><time>2026-04-04T09:28:21.999Z</time></trkpt><trkpt lat="45.85304464807952" lon="9.375065774609835"><ele>209.4</ele><time>2026-04-04T09:28:23.999Z</time></trkpt><trkpt lat="45.85314959079722" lon="9.374980088028218"><ele>208.0</ele><time>2026-04-04T09:28:25.999Z</time></trkpt><trkpt lat="45.85321094630896" lon="9.374941135534051"><ele>207.99999999999997</ele><time>2026-04-04T09:28:27.999Z</time></trkpt><trkpt lat="45.853272668517306" lon="9.37489868313084"><ele>208.0</ele><time>2026-04-04T09:28:29.999Z</time></trkpt><trkpt lat="45.853338546787604" lon="9.374884268114368"><ele>208.0</ele><time>2026-04-04T09:28:31.999Z</time></trkpt><trkpt lat="45.85341728647762" lon="9.374834062185956"><ele>208.0</ele><time>2026-04-04T09:28:33.999Z</time></trkpt><trkpt lat="45.853519928556416" lon="9.374788240916866"><ele>207.99999999999997</ele><time>2026-04-04T09:28:35.999Z</time></trkpt><trkpt lat="45.853623944840166" lon="9.374735046959554"><ele>208.0</ele><time>2026-04-04T09:28:37.999Z</time></trkpt><trkpt lat="45.85369747013731" lon="9.37469513742448"><ele>209.2</ele><time>2026-04-04T09:28:39.999Z</time></trkpt><trkpt lat="45.8538121761226" lon="9.3746273069769"><ele>210.4</ele><time>2026-04-04T09:28:41.999Z</time></trkpt><trkpt lat="45.85387892835596" lon="9.374583036821399"><ele>211.59999999999997</ele><time>2026-04-04T09:28:42.999Z</time></trkpt><trkpt lat="45.8539542528314" lon="9.37454251399857"><ele>212.79999999999998</ele><time>2026-04-04T09:28:43.999Z</time></trkpt><trkpt lat="45.8540466491211" lon="9.374550633083858"><ele>214.0</ele><time>2026-04-04T09:28:45Z</time></trkpt><trkpt lat="45.85414789506552" lon="9.374521435771218"><ele>214.0</ele><time>2026-04-04T09:28:46Z</time></trkpt><trkpt lat="45.85425524230543" lon="9.374525228976715"><ele>213.99999999999997</ele><time>2026-04-04T09:28:47Z</time></trkpt><trkpt lat="45.85436723367664" lon="9.374522774814865"><ele>213.99999999999997</ele><time>2026-04-04T09:28:48Z</time></trkpt><trkpt lat="45.85446205365998" lon="9.374549424252045"><ele>214.0</ele><time>2026-04-04T09:28:49Z</time></trkpt><trkpt lat="45.85456810368094" lon="9.37455494527801"><ele>214.0</ele><time>2026-04-04T09:28:50Z</time></trkpt><trkpt lat="45.85468010742768" lon="9.374526396203825"><ele>215.5</ele><time>2026-04-04T09:28:51Z</time></trkpt><trkpt lat="45.85481163637243" lon="9.374475833142219"><ele>217.0</ele><time>2026-04-04T09:28:52Z</time></trkpt><trkpt lat="45.8549521531157" lon="9.374434336406624"><ele>218.5</ele><time>2026-04-04T09:28:53Z</time></trkpt><trkpt lat="45.855089951947456" lon="9.37441250768511"><ele>220.0</ele><time>2026-04-04T09:28:54Z</time></trkpt><trkpt lat="45.85522816280809" lon="9.37441683102326"><ele>220.0</ele><time>2026-04-04T09:28:55Z</time></trkpt><trkpt lat="45.855361411882484" lon="9.374428487729274"><ele>220.0</ele><time>2026-04-04T09:28:56Z</time></trkpt><trkpt lat="45.85549420421346" lon="9.374458721083775"><ele>220.0</ele><time>2026-04-04T09:28:57Z</time></trkpt><trkpt lat="45.855609233993334" lon="9.374477478051979"><ele>220.0</ele><time>2026-04-04T09:28:58Z</time></trkpt><trkpt lat="45.85573199493203" lon="9.374510086396882"><ele>220.0</ele><time>2026-04-04T09:28:59Z</time></trkpt><trkpt lat="45.8558409287509" lon="9.374523674972389"><ele>220.0</ele><time>2026-04-04T09:29:00Z</time></trkpt><trkpt lat="45.85592862697915" lon="9.374577571038637"><ele>220.0</ele><time>2026-04-04T09:29:01Z</time></trkpt><trkpt lat="45.85603227023533" lon="9.374626306815923"><ele>220.0</ele><time>2026-04-04T09:29:02Z</time></trkpt><trkpt lat="45.85613009469826" lon="9.374622283263916"><ele>220.0</ele><time>2026-04-04T09:29:03Z</time></trkpt><trkpt lat="45.85621176599459" lon="9.374576674080545"><ele>219.5</ele><time>2026-04-04T09:29:04Z</time></trkpt><trkpt lat="45.8563466543032" lon="9.374434203852314"><ele>219.0</ele><time>2026-04-04T09:29:05Z</time></trkpt><trkpt lat="45.856446486786105" lon="9.374324427222083"><ele>218.5</ele><time>2026-04-04T09:29:06Z</time></trkpt><trkpt lat="45.85653516462638" lon="9.37419748166939"><ele>218.0</ele><time>2026-04-04T09:29:07Z</time></trkpt><trkpt lat="45.85661157915477" lon="9.374048493796085"><ele>218.0</ele><time>2026-04-04T09:29:08Z</time></trkpt><trkpt lat="45.85668229770216" lon="9.37388585183694"><ele>218.0</ele><time>2026-04-04T09:29:09Z</time></trkpt><trkpt lat="45.856761705404324" lon="9.373731039710108"><ele>218.0</ele><time>2026-04-04T09:29:10Z</time></trkpt><trkpt lat="45.85683183481144" lon="9.373590194798696"><ele>218.0</ele><time>2026-04-04T09:29:11Z</time></trkpt><trkpt lat="45.85689473691169" lon="9.373428994799998"><ele>219.0</ele><time>2026-04-04T09:29:12Z</time></trkpt><trkpt lat="45.856986296736665" lon="9.373286954938516"><ele>220.0</ele><time>2026-04-04T09:29:13Z</time></trkpt><trkpt lat="45.85705936250774" lon="9.373120543839267"><ele>221.0</ele><time>2026-04-04T09:29:14Z</time></trkpt><trkpt lat="45.85713779546233" lon="9.37295391622638"><ele>222.0</ele><time>2026-04-04T09:29:15Z</time></trkpt><trkpt lat="45.857224163798065" lon="9.372797165319296"><ele>222.0</ele><time>2026-04-04T09:29:16Z</time></trkpt><trkpt lat="45.8572956010555" lon="9.372633263255501"><ele>222.0</ele><time>2026-04-04T09:29:17Z</time></trkpt><trkpt lat="45.85738074858666" lon="9.372497470522687"><ele>222.0</ele><time>2026-04-04T09:29:18Z</time></trkpt><trkpt lat="45.857474989749385" lon="9.372396988159407"><ele>222.0</ele><time>2026-04-04T09:29:19Z</time></trkpt><trkpt lat="45.857563911043634" lon="9.372301785649205"><ele>218.83333333333334</ele><time>2026-04-04T09:29:20Z</time></trkpt><trkpt lat="45.85763389129004" lon="9.372208546243657"><ele>215.66666666666669</ele><time>2026-04-04T09:29:21Z</time></trkpt><trkpt lat="45.8576959365616" lon="9.372125307452423"><ele>212.5</ele><time>2026-04-04T09:29:22Z</time></trkpt><trkpt lat="45.85775600612975" lon="9.372071146568043"><ele>209.33333333333334</ele><time>2026-04-04T09:29:23Z</time></trkpt><trkpt lat="45.85781255296851" lon="9.372026435507616"><ele>206.16666666666669</ele><time>2026-04-04T09:29:24Z</time></trkpt><trkpt lat="45.85791451230843" lon="9.371902393586744"><ele>203.0</ele><time>2026-04-04T09:29:26Z</time></trkpt><trkpt lat="45.857971995233406" lon="9.37181541643456"><ele>203.0</ele><time>2026-04-04T09:29:27Z</time></trkpt><trkpt lat="45.85801149877354" lon="9.37172331966373"><ele>203.0</ele><time>2026-04-04T09:29:28Z</time></trkpt><trkpt lat="45.85803247986568" lon="9.371625333645701"><ele>203.0</ele><time>2026-04-04T09:29:29Z</time></trkpt><trkpt lat="45.85805098617958" lon="9.37152650330742"><ele>203.0</ele><time>2026-04-04T09:29:30Z</time></trkpt><trkpt lat="45.85805292300219" lon="9.371420355229464"><ele>203.0</ele><time>2026-04-04T09:29:31Z</time></trkpt><trkpt lat="45.858037759297744" lon="9.37130692989825"><ele>203.0</ele><time>2026-04-04T09:29:32Z</time></trkpt><trkpt lat="45.858014751785866" lon="9.371215599044556"><ele>203.0</ele><time>2026-04-04T09:29:33Z</time></trkpt><trkpt lat="45.85798620195112" lon="9.371132105205733"><ele>203.0</ele><time>2026-04-04T09:29:34Z</time></trkpt><trkpt lat="45.85795674092802" lon="9.371047231294414"><ele>203.0</ele><time>2026-04-04T09:29:35Z</time></trkpt><trkpt lat="45.85791916160517" lon="9.370954125126792"><ele>203.0</ele><time>2026-04-04T09:29:36Z</time></trkpt><trkpt lat="45.85789073436783" lon="9.370853069064653"><ele>203.0</ele><time>2026-04-04T09:29:37Z</time></trkpt><trkpt lat="45.85784989876999" lon="9.370758304187587"><ele>203.0</ele><time>2026-04-04T09:29:38Z</time></trkpt><trkpt lat="45.8578091221469" lon="9.370663463546697"><ele>203.0</ele><time>2026-04-04T09:29:39Z</time></trkpt><trkpt lat="45.857778873235496" lon="9.370572934506475"><ele>203.0</ele><time>2026-04-04T09:29:40Z</time></trkpt><trkpt lat="45.85775358598445" lon="9.370466690202404"><ele>202.33333333333334</ele><time>2026-04-04T09:29:41Z</time></trkpt><trkpt lat="45.85773069890017" lon="9.370360621823295"><ele>201.66666666666669</ele><time>2026-04-04T09:29:42Z</time></trkpt><trkpt lat="45.85772385973222" lon="9.370240200675408"><ele>201.0</ele><time>2026-04-04T09:29:43Z</time></trkpt><trkpt lat="45.85772834829837" lon="9.370122089039606"><ele>200.33333333333331</ele><time>2026-04-04T09:29:44Z</time></trkpt><trkpt lat="45.857746011627434" lon="9.370003713621085"><ele>199.66666666666666</ele><time>2026-04-04T09:29:45Z</time></trkpt><trkpt lat="45.8577589647536" lon="9.369882538553647"><ele>199.0</ele><time>2026-04-04T09:29:46Z</time></trkpt><trkpt lat="45.85777100513658" lon="9.369760389521613"><ele>198.99999999999997</ele><time>2026-04-04T09:29:47Z</time></trkpt><trkpt lat="45.857778061851214" lon="9.369651411373036"><ele>199.0</ele><time>2026-04-04T09:29:48Z</time></trkpt><trkpt lat="45.85778597678191" lon="9.369553457573288"><ele>199.0</ele><time>2026-04-04T09:29:49Z</time></trkpt><trkpt lat="45.857793123282455" lon="9.369451429219039"><ele>199.0</ele><time>2026-04-04T09:29:50Z</time></trkpt><trkpt lat="45.857801429825834" lon="9.369339707870466"><ele>199.0</ele><time>2026-04-04T09:29:51Z</time></trkpt><trkpt lat="45.85781002047706" lon="9.369227228088318"><ele>198.99999999999997</ele><time>2026-04-04T09:29:52Z</time></trkpt><trkpt lat="45.857817946946064" lon="9.369132834344269"><ele>199.0</ele><time>2026-04-04T09:29:53Z</time></trkpt><trkpt lat="45.85783477468163" lon="9.3689551937346"><ele>198.99999999999997</ele><time>2026-04-04T09:29:55Z</time></trkpt><trkpt lat="45.85784287352078" lon="9.368863251575764"><ele>199.0</ele><time>2026-04-04T09:29:56Z</time></trkpt><trkpt lat="45.85785114326486" lon="9.368773588507647"><ele>199.0</ele><time>2026-04-04T09:29:57Z</time></trkpt><trkpt lat="45.85785828864292" lon="9.36867992073371"><ele>199.0</ele><time>2026-04-04T09:29:58Z</time></trkpt><trkpt lat="45.85786847301565" lon="9.368581843196342"><ele>199.0</ele><time>2026-04-04T09:29:59Z</time></trkpt><trkpt lat="45.85787955747923" lon="9.368481513339681"><ele>198.99999999999997</ele><time>2026-04-04T09:30:00Z</time></trkpt><trkpt lat="45.857890451263984" lon="9.368382804095917"><ele>199.0</ele><time>2026-04-04T09:30:01Z</time></trkpt><trkpt lat="45.857898764650216" lon="9.368287161238404"><ele>198.99999999999997</ele><time>2026-04-04T09:30:02Z</time></trkpt><trkpt lat="45.85790516671725" lon="9.368190162920962"><ele>199.0</ele><time>2026-04-04T09:30:03Z</time></trkpt><trkpt lat="45.85789710416686" lon="9.368096160804862"><ele>199.0</ele><time>2026-04-04T09:30:04Z</time></trkpt><trkpt lat="45.85787202134564" lon="9.368001624014601"><ele>199.0</ele><time>2026-04-04T09:30:05Z</time></trkpt><trkpt lat="45.85783490778637" lon="9.367914489662299"><ele>199.0</ele><time>2026-04-04T09:30:06Z</time></trkpt><trkpt lat="45.85779121519862" lon="9.367830913424351"><ele>198.99999999999997</ele><time>2026-04-04T09:30:07Z</time></trkpt><trkpt lat="45.857744916982085" lon="9.3677458111304"><ele>199.0</ele><time>2026-04-04T09:30:08Z</time></trkpt><trkpt lat="45.857701553283185" lon="9.367655616367097"><ele>198.99999999999997</ele><time>2026-04-04T09:30:09Z</time></trkpt><trkpt lat="45.85766213920418" lon="9.367564973704615"><ele>199.0</ele><time>2026-04-04T09:30:09.999Z</time></trkpt><trkpt lat="45.85761962791563" lon="9.367481105625052"><ele>199.0</ele><time>2026-04-04T09:30:10.999Z</time></trkpt><trkpt lat="45.85758168045133" lon="9.36740174289577"><ele>199.0</ele><time>2026-04-04T09:30:11.999Z</time></trkpt><trkpt lat="45.85754326474044" lon="9.367316378816401"><ele>198.99999999999997</ele><time>2026-04-04T09:30:12.999Z</time></trkpt><trkpt lat="45.85750438734874" lon="9.367235490554728"><ele>199.0</ele><time>2026-04-04T09:30:13.999Z</time></trkpt><trkpt lat="45.85743604538088" lon="9.367104699084965"><ele>199.0</ele><time>2026-04-04T09:30:15.999Z</time></trkpt><trkpt lat="45.85737693953997" lon="9.366965137780978"><ele>199.0</ele><time>2026-04-04T09:30:17.999Z</time></trkpt><trkpt lat="45.85733091641088" lon="9.366810721405905"><ele>199.0</ele><time>2026-04-04T09:30:19.999Z</time></trkpt><trkpt lat="45.85731971449289" lon="9.366646159776304"><ele>199.0</ele><time>2026-04-04T09:30:21.999Z</time></trkpt><trkpt lat="45.857328836167895" lon="9.366554107974368"><ele>199.0</ele><time>2026-04-04T09:30:22.999Z</time></trkpt><trkpt lat="45.85735188888423" lon="9.366465540056376"><ele>199.6</ele><time>2026-04-04T09:30:23.999Z</time></trkpt><trkpt lat="45.85741281723544" lon="9.366338750334798"><ele>200.2</ele><time>2026-04-04T09:30:25.999Z</time></trkpt><trkpt lat="45.857460774595246" lon="9.366258627021011"><ele>200.79999999999998</ele><time>2026-04-04T09:30:28.999Z</time></trkpt><trkpt lat="45.857528074940376" lon="9.366132647795219"><ele>201.39999999999998</ele><time>2026-04-04T09:30:35.999Z</time></trkpt><trkpt lat="45.85758941798708" lon="9.365994197253464"><ele>202.0</ele><time>2026-04-04T09:30:37.999Z</time></trkpt><trkpt lat="45.85766734092467" lon="9.36590280326129"><ele>202.0</ele><time>2026-04-04T09:30:39.999Z</time></trkpt><trkpt lat="45.857774448310124" lon="9.365880697932987"><ele>202.0</ele><time>2026-04-04T09:30:41.999Z</time></trkpt><trkpt lat="45.85785833091828" lon="9.365881138428396"><ele>202.0</ele><time>2026-04-04T09:30:43.999Z</time></trkpt><trkpt lat="45.85794395320159" lon="9.36591122779679"><ele>202.0</ele><time>2026-04-04T09:30:45.999Z</time></trkpt><trkpt lat="45.85800529248731" lon="9.36601796431803"><ele>202.0</ele><time>2026-04-04T09:30:47.999Z</time></trkpt><trkpt lat="45.85806032416015" lon="9.366129498976093"><ele>201.99999999999997</ele><time>2026-04-04T09:30:49.999Z</time></trkpt><trkpt lat="45.858137178335625" lon="9.36619011835753"><ele>202.0</ele><time>2026-04-04T09:30:52Z</time></trkpt><trkpt lat="45.85821269161165" lon="9.366134780714924"><ele>202.0</ele><time>2026-04-04T09:30:53Z</time></trkpt><trkpt lat="45.85831887183028" lon="9.36604338934891"><ele>202.0</ele><time>2026-04-04T09:30:55Z</time></trkpt><trkpt lat="45.85837263486293" lon="9.365985191024112"><ele>201.99999999999997</ele><time>2026-04-04T09:30:56Z</time></trkpt><trkpt lat="45.85843098405249" lon="9.36593416315116"><ele>202.0</ele><time>2026-04-04T09:30:57Z</time></trkpt><trkpt lat="45.8585025098537" lon="9.365893798069683"><ele>201.66666666666666</ele><time>2026-04-04T09:30:58Z</time></trkpt><trkpt lat="45.85858114993007" lon="9.365852334505217"><ele>201.33333333333331</ele><time>2026-04-04T09:30:59Z</time></trkpt><trkpt lat="45.85866240308057" lon="9.36581545569125"><ele>201.0</ele><time>2026-04-04T09:31:00Z</time></trkpt><trkpt lat="45.858735946277065" lon="9.365792085161967"><ele>200.66666666666669</ele><time>2026-04-04T09:31:01Z</time></trkpt><trkpt lat="45.85881350312343" lon="9.365776439696916"><ele>200.33333333333334</ele><time>2026-04-04T09:31:02Z</time></trkpt><trkpt lat="45.858900868992976" lon="9.365754150452323"><ele>200.0</ele><time>2026-04-04T09:31:03Z</time></trkpt><trkpt lat="45.85899808228044" lon="9.365720614172485"><ele>200.0</ele><time>2026-04-04T09:31:04Z</time></trkpt><trkpt lat="45.85910205108257" lon="9.365667242252274"><ele>200.0</ele><time>2026-04-04T09:31:05Z</time></trkpt><trkpt lat="45.859200274648344" lon="9.365602965128565"><ele>200.0</ele><time>2026-04-04T09:31:06Z</time></trkpt><trkpt lat="45.859292621379346" lon="9.365531854222125"><ele>200.0</ele><time>2026-04-04T09:31:07Z</time></trkpt><trkpt lat="45.85938372930949" lon="9.365448687575702"><ele>200.0</ele><time>2026-04-04T09:31:08Z</time></trkpt><trkpt lat="45.85946686653795" lon="9.365368244264381"><ele>206.8</ele><time>2026-04-04T09:31:09Z</time></trkpt><trkpt lat="45.859554184234504" lon="9.365288417731467"><ele>213.6</ele><time>2026-04-04T09:31:10.023Z</time></trkpt><trkpt lat="45.85964173924337" lon="9.365205774088466"><ele>220.39999999999998</ele><time>2026-04-04T09:31:11.023Z</time></trkpt><trkpt lat="45.859732053448994" lon="9.365105693798416"><ele>227.2</ele><time>2026-04-04T09:31:12.018Z</time></trkpt><trkpt lat="45.85980619577502" lon="9.365030638651703"><ele>234.0</ele><time>2026-04-04T09:31:13.018Z</time></trkpt><trkpt lat="45.85988177155337" lon="9.364962865475182"><ele>327.0</ele><time>2026-04-04T09:31:14.017Z</time></trkpt><trkpt lat="45.8616948684894" lon="9.363913129433069"><ele>209.0</ele><time>2026-04-04T09:31:17.157Z</time></trkpt><trkpt lat="45.87259266529779" lon="9.357534321033729"><ele>207.75</ele><time>2026-04-04T09:32:29.999Z</time></trkpt><trkpt lat="45.872703882253404" lon="9.357445900906734"><ele>206.5</ele><time>2026-04-04T09:32:30.999Z</time></trkpt><trkpt lat="45.87283981289946" lon="9.357335633384473"><ele>205.25</ele><time>2026-04-04T09:32:31.999Z</time></trkpt><trkpt lat="45.87297348514536" lon="9.357202629652587"><ele>204.0</ele><time>2026-04-04T09:32:32.999Z</time></trkpt><trkpt lat="45.873079649066604" lon="9.357051426901323"><ele>203.0</ele><time>2026-04-04T09:32:33.999Z</time></trkpt><trkpt lat="45.87317899333931" lon="9.356884964997791"><ele>202.0</ele><time>2026-04-04T09:32:34.999Z</time></trkpt><trkpt lat="45.87326525380913" lon="9.356706492874617"><ele>201.0</ele><time>2026-04-04T09:32:35.999Z</time></trkpt><trkpt lat="45.873337374426754" lon="9.35651023254664"><ele>203.0</ele><time>2026-04-04T09:32:36.999Z</time></trkpt><trkpt lat="45.873406895174334" lon="9.356302799829903"><ele>205.0</ele><time>2026-04-04T09:32:37.999Z</time></trkpt><trkpt lat="45.873460483972046" lon="9.356099500163483"><ele>207.0</ele><time>2026-04-04T09:32:38.999Z</time></trkpt><trkpt lat="45.87351016740737" lon="9.3558850966116"><ele>207.0</ele><time>2026-04-04T09:32:39.999Z</time></trkpt><trkpt lat="45.87354071935965" lon="9.355699462538631"><ele>207.0</ele><time>2026-04-04T09:32:40.999Z</time></trkpt><trkpt lat="45.87356579055555" lon="9.355523655576421"><ele>207.0</ele><time>2026-04-04T09:32:41.999Z</time></trkpt><trkpt lat="45.87359387373956" lon="9.355352357550377"><ele>207.0</ele><time>2026-04-04T09:32:43.015Z</time></trkpt><trkpt lat="45.873621174653145" lon="9.355176742316429"><ele>208.75</ele><time>2026-04-04T09:32:44.022Z</time></trkpt><trkpt lat="45.873642941132275" lon="9.354999218056353"><ele>210.5</ele><time>2026-04-04T09:32:45.012Z</time></trkpt><trkpt lat="45.87366456523674" lon="9.354811889013922"><ele>212.25</ele><time>2026-04-04T09:32:46.02Z</time></trkpt><trkpt lat="45.87368430886772" lon="9.354625124430179"><ele>214.0</ele><time>2026-04-04T09:32:47.022Z</time></trkpt><trkpt lat="45.873701997020504" lon="9.354442740424853"><ele>225.5</ele><time>2026-04-04T09:32:48.015Z</time></trkpt><trkpt lat="45.87372295417907" lon="9.354265430456962"><ele>237.0</ele><time>2026-04-04T09:32:49.018Z</time></trkpt><trkpt lat="45.87394169330249" lon="9.35226239815694"><ele>294.5</ele><time>2026-04-04T09:32:52.154Z</time></trkpt><trkpt lat="45.87408895599171" lon="9.351655259142648"><ele>352.0</ele><time>2026-04-04T09:32:53.152Z</time></trkpt><trkpt lat="45.874266698118625" lon="9.35106322329236"><ele>374.0</ele><time>2026-04-04T09:32:54.153Z</time></trkpt><trkpt lat="45.87446835633287" lon="9.35048559086989"><ele>374.0</ele><time>2026-04-04T09:32:55.156Z</time></trkpt><trkpt lat="45.87469390905575" lon="9.349932396855104"><ele>374.0</ele><time>2026-04-04T09:32:56.151Z</time></trkpt><trkpt lat="45.87494442723769" lon="9.349390544898782"><ele>381.0</ele><time>2026-04-04T09:32:57.16Z</time></trkpt><trkpt lat="45.8752014184699" lon="9.34886823789005"><ele>388.0</ele><time>2026-04-04T09:32:58.152Z</time></trkpt><trkpt lat="45.875460983205414" lon="9.3483406955793"><ele>392.5</ele><time>2026-04-04T09:32:59.154Z</time></trkpt><trkpt lat="45.87571856468106" lon="9.347815615499382"><ele>397.0</ele><time>2026-04-04T09:33:00.15Z</time></trkpt><trkpt lat="45.8759769726114" lon="9.347288072704844"><ele>359.0</ele><time>2026-04-04T09:33:01.151Z</time></trkpt><trkpt lat="45.87623651468352" lon="9.346758214546684"><ele>368.5</ele><time>2026-04-04T09:33:02.156Z</time></trkpt><trkpt lat="45.87649526022055" lon="9.346233036891139"><ele>378.0</ele><time>2026-04-04T09:33:03.154Z</time></trkpt><trkpt lat="45.876758535312405" lon="9.345710858044361"><ele>351.0</ele><time>2026-04-04T09:33:04.154Z</time></trkpt><trkpt lat="45.877031366898166" lon="9.345195122539858"><ele>361.5</ele><time>2026-04-04T09:33:05.158Z</time></trkpt><trkpt lat="45.87730634115706" lon="9.344690124779676"><ele>372.0</ele><time>2026-04-04T09:33:06.152Z</time></trkpt><trkpt lat="45.87758868865403" lon="9.344189084271944"><ele>346.0</ele><time>2026-04-04T09:33:07.152Z</time></trkpt><trkpt lat="45.87787476461844" lon="9.34369088952327"><ele>346.0</ele><time>2026-04-04T09:33:08.153Z</time></trkpt><trkpt lat="45.878161213568994" lon="9.343194032889766"><ele>346.0</ele><time>2026-04-04T09:33:09.154Z</time></trkpt><trkpt lat="45.878447491046934" lon="9.342697975519382"><ele>337.0</ele><time>2026-04-04T09:33:10.153Z</time></trkpt><trkpt lat="45.8787351836023" lon="9.34220211471189"><ele>328.0</ele><time>2026-04-04T09:33:11.154Z</time></trkpt><trkpt lat="45.879023017245814" lon="9.341704665398321"><ele>323.0</ele><time>2026-04-04T09:33:12.157Z</time></trkpt><trkpt lat="45.87930895270825" lon="9.341209078590431"><ele>318.0</ele><time>2026-04-04T09:33:13.155Z</time></trkpt><trkpt lat="45.87959523277039" lon="9.340713958125985"><ele>320.0</ele><time>2026-04-04T09:33:14.153Z</time></trkpt><trkpt lat="45.87988142102837" lon="9.340218987101485"><ele>322.0</ele><time>2026-04-04T09:33:15.151Z</time></trkpt><trkpt lat="45.88016898930648" lon="9.339719982645109"><ele>353.5</ele><time>2026-04-04T09:33:16.155Z</time></trkpt><trkpt lat="45.880453701721436" lon="9.339224432005391"><ele>385.0</ele><time>2026-04-04T09:33:17.151Z</time></trkpt><trkpt lat="45.88073498704019" lon="9.338718914103332"><ele>403.0</ele><time>2026-04-04T09:33:18.155Z</time></trkpt><trkpt lat="45.8809228" lon="9.3383789"><ele>421.0</ele><time>2026-04-04T09:33:19.155Z</time></trkpt><trkpt lat="45.883649778595085" lon="9.33239749633645"><ele>367.75</ele><time>2026-04-04T09:34:28.998Z</time></trkpt><trkpt lat="45.883720637780776" lon="9.332445769169528"><ele>314.5</ele><time>2026-04-04T09:34:29.998Z</time></trkpt><trkpt lat="45.88377007977981" lon="9.332151920503684"><ele>261.25</ele><time>2026-04-04T09:34:30.998Z</time></trkpt><trkpt lat="45.88380968480136" lon="9.331975345398536"><ele>208.0</ele><time>2026-04-04T09:34:31.998Z</time></trkpt><trkpt lat="45.88386458366383" lon="9.331868474333488"><ele>208.0</ele><time>2026-04-04T09:34:32.998Z</time></trkpt><trkpt lat="45.88392277704682" lon="9.331737485354871"><ele>208.0</ele><time>2026-04-04T09:34:33.998Z</time></trkpt><trkpt lat="45.8839795032713" lon="9.33159946432653"><ele>208.0</ele><time>2026-04-04T09:34:35.001Z</time></trkpt><trkpt lat="45.88404457454608" lon="9.331463309003949"><ele>208.0</ele><time>2026-04-04T09:34:36.001Z</time></trkpt><trkpt lat="45.88410711361204" lon="9.331331544075681"><ele>208.0</ele><time>2026-04-04T09:34:37.001Z</time></trkpt><trkpt lat="45.88416634416201" lon="9.331198607529299"><ele>210.0</ele><time>2026-04-04T09:34:38.001Z</time></trkpt><trkpt lat="45.88422352290651" lon="9.331054948425741"><ele>212.0</ele><time>2026-04-04T09:34:39.001Z</time></trkpt><trkpt lat="45.884269049395314" lon="9.330895907030447"><ele>214.0</ele><time>2026-04-04T09:34:40.001Z</time></trkpt><trkpt lat="45.88429437628665" lon="9.3307215861233"><ele>216.0</ele><time>2026-04-04T09:34:41.001Z</time></trkpt><trkpt lat="45.88430060277244" lon="9.330547004828386"><ele>212.0</ele><time>2026-04-04T09:34:42.001Z</time></trkpt><trkpt lat="45.884292944680325" lon="9.330367566101163"><ele>208.0</ele><time>2026-04-04T09:34:43.001Z</time></trkpt><trkpt lat="45.884287453896" lon="9.330193385688432"><ele>204.0</ele><time>2026-04-04T09:34:44.001Z</time></trkpt><trkpt lat="45.8842756099763" lon="9.330017204108056"><ele>200.0</ele><time>2026-04-04T09:34:45.001Z</time></trkpt><trkpt lat="45.884274222041554" lon="9.329844723793697"><ele>199.5</ele><time>2026-04-04T09:34:46.001Z</time></trkpt><trkpt lat="45.88428835929999" lon="9.32964694533436"><ele>199.0</ele><time>2026-04-04T09:34:47.001Z</time></trkpt><trkpt lat="45.88430535786514" lon="9.329455392490305"><ele>198.5</ele><time>2026-04-04T09:34:48.001Z</time></trkpt><trkpt lat="45.88432046432453" lon="9.329259259062807"><ele>198.0</ele><time>2026-04-04T09:34:49.001Z</time></trkpt><trkpt lat="45.88433239903776" lon="9.329068157981613"><ele>198.0</ele><time>2026-04-04T09:34:50.001Z</time></trkpt><trkpt lat="45.88434966976194" lon="9.328868056010093"><ele>198.0</ele><time>2026-04-04T09:34:51.001Z</time></trkpt><trkpt lat="45.884368183579774" lon="9.328662815947517"><ele>198.0</ele><time>2026-04-04T09:34:52.001Z</time></trkpt><trkpt lat="45.88438439712748" lon="9.328457119229617"><ele>198.0</ele><time>2026-04-04T09:34:53.001Z</time></trkpt><trkpt lat="45.88439815002054" lon="9.328255690731881"><ele>198.25</ele><time>2026-04-04T09:34:54.001Z</time></trkpt><trkpt lat="45.88441459658781" lon="9.328052243883528"><ele>198.5</ele><time>2026-04-04T09:34:55Z</time></trkpt><trkpt lat="45.88442615744575" lon="9.3278716229516"><ele>198.75</ele><time>2026-04-04T09:34:56Z</time></trkpt><trkpt lat="45.884438920150856" lon="9.327699526488548"><ele>199.0</ele><time>2026-04-04T09:34:57Z</time></trkpt><trkpt lat="45.88445240028581" lon="9.327533812589838"><ele>199.0</ele><time>2026-04-04T09:34:58Z</time></trkpt><trkpt lat="45.88446836367759" lon="9.327366013461749"><ele>199.0</ele><time>2026-04-04T09:34:59Z</time></trkpt><trkpt lat="45.88448773170241" lon="9.327216266657677"><ele>199.0</ele><time>2026-04-04T09:35:00Z</time></trkpt><trkpt lat="45.88450876058174" lon="9.327074036763264"><ele>199.0</ele><time>2026-04-04T09:35:01Z</time></trkpt><trkpt lat="45.88452905760565" lon="9.326924168089244"><ele>199.0</ele><time>2026-04-04T09:35:02Z</time></trkpt><trkpt lat="45.88455285576021" lon="9.32677318088682"><ele>199.5</ele><time>2026-04-04T09:35:03Z</time></trkpt><trkpt lat="45.8845795769931" lon="9.32661451943087"><ele>200.0</ele><time>2026-04-04T09:35:04Z</time></trkpt><trkpt lat="45.884607940611744" lon="9.326452032426785"><ele>200.5</ele><time>2026-04-04T09:35:05Z</time></trkpt><trkpt lat="45.8846345025896" lon="9.326295115817972"><ele>201.0</ele><time>2026-04-04T09:35:06Z</time></trkpt><trkpt lat="45.8846608034375" lon="9.326128242291025"><ele>201.0</ele><time>2026-04-04T09:35:07Z</time></trkpt><trkpt lat="45.88469522938085" lon="9.325950365020653"><ele>201.0</ele><time>2026-04-04T09:35:08Z</time></trkpt><trkpt lat="45.884718801131704" lon="9.325776865592694"><ele>201.0</ele><time>2026-04-04T09:35:09Z</time></trkpt><trkpt lat="45.88474958643043" lon="9.325599137244225"><ele>201.0</ele><time>2026-04-04T09:35:10Z</time></trkpt><trkpt lat="45.884784702351844" lon="9.3254188721796"><ele>203.0</ele><time>2026-04-04T09:35:11Z</time></trkpt><trkpt lat="45.884827728866654" lon="9.3252402625304"><ele>205.0</ele><time>2026-04-04T09:35:12Z</time></trkpt><trkpt lat="45.88487161347028" lon="9.325060618898195"><ele>207.0</ele><time>2026-04-04T09:35:13Z</time></trkpt><trkpt lat="45.884912595399555" lon="9.324886524239453"><ele>209.0</ele><time>2026-04-04T09:35:14Z</time></trkpt><trkpt lat="45.88495418681661" lon="9.324713739784881"><ele>207.5</ele><time>2026-04-04T09:35:15Z</time></trkpt><trkpt lat="45.884995887276055" lon="9.32453851004746"><ele>206.0</ele><time>2026-04-04T09:35:16Z</time></trkpt><trkpt lat="45.8850528871473" lon="9.324373601996049"><ele>204.5</ele><time>2026-04-04T09:35:17Z</time></trkpt><trkpt lat="45.88514915999287" lon="9.324235112114657"><ele>203.0</ele><time>2026-04-04T09:35:18Z</time></trkpt><trkpt lat="45.88525895705279" lon="9.324118158901078"><ele>203.0</ele><time>2026-04-04T09:35:19Z</time></trkpt><trkpt lat="45.88533713925278" lon="9.323999480393441"><ele>203.0</ele><time>2026-04-04T09:35:20Z</time></trkpt><trkpt lat="45.88541623409114" lon="9.323895045889707"><ele>203.0</ele><time>2026-04-04T09:35:21Z</time></trkpt><trkpt lat="45.885539956890675" lon="9.323833805921002"><ele>203.0</ele><time>2026-04-04T09:35:22Z</time></trkpt><trkpt lat="45.88565262218096" lon="9.323750889624431"><ele>202.8</ele><time>2026-04-04T09:35:23Z</time></trkpt><trkpt lat="45.88575972911725" lon="9.323688734662165"><ele>202.60000000000002</ele><time>2026-04-04T09:35:24Z</time></trkpt><trkpt lat="45.885852697515354" lon="9.323634914780412"><ele>202.39999999999998</ele><time>2026-04-04T09:35:25Z</time></trkpt><trkpt lat="45.88595727422638" lon="9.323558503475356"><ele>202.2</ele><time>2026-04-04T09:35:26Z</time></trkpt><trkpt lat="45.886049597680746" lon="9.323489138928768"><ele>202.0</ele><time>2026-04-04T09:35:27Z</time></trkpt><trkpt lat="45.886131875230454" lon="9.323430156539384"><ele>202.0</ele><time>2026-04-04T09:35:28Z</time></trkpt><trkpt lat="45.88621414410992" lon="9.323337788065533"><ele>202.0</ele><time>2026-04-04T09:35:29Z</time></trkpt><trkpt lat="45.88628289774949" lon="9.323197575157947"><ele>202.0</ele><time>2026-04-04T09:35:30Z</time></trkpt><trkpt lat="45.88634377511771" lon="9.323051279135031"><ele>202.0</ele><time>2026-04-04T09:35:31Z</time></trkpt><trkpt lat="45.88639432840058" lon="9.322898865937983"><ele>207.2</ele><time>2026-04-04T09:35:32Z</time></trkpt><trkpt lat="45.88643431367021" lon="9.322757556915228"><ele>212.39999999999998</ele><time>2026-04-04T09:35:33Z</time></trkpt><trkpt lat="45.88648838859326" lon="9.322634084804806"><ele>217.60000000000002</ele><time>2026-04-04T09:35:34Z</time></trkpt><trkpt lat="45.886549975088" lon="9.32253004374578"><ele>222.8</ele><time>2026-04-04T09:35:35Z</time></trkpt><trkpt lat="45.88663089022265" lon="9.322429867083024"><ele>228.0</ele><time>2026-04-04T09:35:36Z</time></trkpt><trkpt lat="45.88671266759912" lon="9.322363489540386"><ele>224.2</ele><time>2026-04-04T09:35:37Z</time></trkpt><trkpt lat="45.886793804089905" lon="9.322290899555643"><ele>220.4</ele><time>2026-04-04T09:35:38Z</time></trkpt><trkpt lat="45.886869673556596" lon="9.322194324535404"><ele>216.6</ele><time>2026-04-04T09:35:39Z</time></trkpt><trkpt lat="45.88693679082631" lon="9.322087595194139"><ele>212.79999999999998</ele><time>2026-04-04T09:35:40Z</time></trkpt><trkpt lat="45.88700624613837" lon="9.321968775091344"><ele>209.0</ele><time>2026-04-04T09:35:41Z</time></trkpt><trkpt lat="45.887073424092485" lon="9.321851690847303"><ele>209.0</ele><time>2026-04-04T09:35:42Z</time></trkpt><trkpt lat="45.887145013634644" lon="9.321769138054034"><ele>209.0</ele><time>2026-04-04T09:35:43Z</time></trkpt><trkpt lat="45.88721641229021" lon="9.321691969451205"><ele>209.0</ele><time>2026-04-04T09:35:44Z</time></trkpt><trkpt lat="45.88730337200172" lon="9.321619406922366"><ele>209.0</ele><time>2026-04-04T09:35:45Z</time></trkpt><trkpt lat="45.88737343927679" lon="9.32153584480586"><ele>209.0</ele><time>2026-04-04T09:35:46Z</time></trkpt><trkpt lat="45.88743397576307" lon="9.321419520496097"><ele>207.6</ele><time>2026-04-04T09:35:47Z</time></trkpt><trkpt lat="45.887478095090536" lon="9.321275725144307"><ele>206.2</ele><time>2026-04-04T09:35:48Z</time></trkpt><trkpt lat="45.88752444514152" lon="9.32113965358416"><ele>204.79999999999998</ele><time>2026-04-04T09:35:49Z</time></trkpt><trkpt lat="45.88757317906444" lon="9.320998381274464"><ele>203.39999999999998</ele><time>2026-04-04T09:35:50Z</time></trkpt><trkpt lat="45.88763089693417" lon="9.320844833289398"><ele>202.0</ele><time>2026-04-04T09:35:51Z</time></trkpt><trkpt lat="45.88769812303475" lon="9.320705474478958"><ele>202.0</ele><time>2026-04-04T09:35:51.999Z</time></trkpt><trkpt lat="45.88777659946223" lon="9.320589827429702"><ele>202.0</ele><time>2026-04-04T09:35:52.999Z</time></trkpt><trkpt lat="45.88785507984428" lon="9.320509546829205"><ele>202.0</ele><time>2026-04-04T09:35:53.999Z</time></trkpt><trkpt lat="45.887927671119755" lon="9.3204140355708"><ele>202.0</ele><time>2026-04-04T09:35:54.999Z</time></trkpt><trkpt lat="45.887993256268494" lon="9.320312955371245"><ele>202.0</ele><time>2026-04-04T09:35:55.999Z</time></trkpt><trkpt lat="45.88805581735552" lon="9.320211658623485"><ele>201.8</ele><time>2026-04-04T09:35:56.999Z</time></trkpt><trkpt lat="45.8881184219849" lon="9.320114914712338"><ele>201.6</ele><time>2026-04-04T09:35:57.999Z</time></trkpt><trkpt lat="45.888197638631794" lon="9.320025385401998"><ele>201.4</ele><time>2026-04-04T09:35:58.999Z</time></trkpt><trkpt lat="45.88829434131393" lon="9.319972730844764"><ele>201.20000000000002</ele><time>2026-04-04T09:35:59.999Z</time></trkpt><trkpt lat="45.88836953766581" lon="9.319905564173478"><ele>201.0</ele><time>2026-04-04T09:36:00.999Z</time></trkpt><trkpt lat="45.88843918787809" lon="9.319859134642128"><ele>201.0</ele><time>2026-04-04T09:36:01.999Z</time></trkpt><trkpt lat="45.88850921963181" lon="9.319808580103727"><ele>201.0</ele><time>2026-04-04T09:36:02.999Z</time></trkpt><trkpt lat="45.88858243109688" lon="9.319758107327576"><ele>201.0</ele><time>2026-04-04T09:36:03.999Z</time></trkpt><trkpt lat="45.88866321996357" lon="9.319714678234721"><ele>201.0</ele><time>2026-04-04T09:36:04.999Z</time></trkpt><trkpt lat="45.88875040799588" lon="9.319688221279511"><ele>201.0</ele><time>2026-04-04T09:36:05.999Z</time></trkpt><trkpt lat="45.8888351151586" lon="9.319678812550443"><ele>201.0</ele><time>2026-04-04T09:36:06.999Z</time></trkpt><trkpt lat="45.888906585878125" lon="9.31965787076104"><ele>201.0</ele><time>2026-04-04T09:36:07.999Z</time></trkpt><trkpt lat="45.88897297965573" lon="9.31960942431023"><ele>201.0</ele><time>2026-04-04T09:36:08.999Z</time></trkpt><trkpt lat="45.88904070160582" lon="9.31953160697216"><ele>201.0</ele><time>2026-04-04T09:36:09.999Z</time></trkpt><trkpt lat="45.88912714042538" lon="9.319381070392295"><ele>201.0</ele><time>2026-04-04T09:36:10.999Z</time></trkpt><trkpt lat="45.88922166177842" lon="9.319268093621503"><ele>201.0</ele><time>2026-04-04T09:36:11.999Z</time></trkpt><trkpt lat="45.88931269379589" lon="9.319165780694037"><ele>201.0</ele><time>2026-04-04T09:36:12.999Z</time></trkpt><trkpt lat="45.889402813583324" lon="9.319057160813507"><ele>201.0</ele><time>2026-04-04T09:36:13.999Z</time></trkpt><trkpt lat="45.88948345817818" lon="9.318947120606886"><ele>201.0</ele><time>2026-04-04T09:36:14.999Z</time></trkpt><trkpt lat="45.8895471051222" lon="9.318812828055796"><ele>201.0</ele><time>2026-04-04T09:36:15.999Z</time></trkpt><trkpt lat="45.88959496524459" lon="9.318669001113797"><ele>204.0</ele><time>2026-04-04T09:36:16.999Z</time></trkpt><trkpt lat="45.88964675670738" lon="9.318511095489102"><ele>207.0</ele><time>2026-04-04T09:36:17.999Z</time></trkpt><trkpt lat="45.88970345596888" lon="9.318367411672686"><ele>210.00000000000003</ele><time>2026-04-04T09:36:18.999Z</time></trkpt><trkpt lat="45.88977125778213" lon="9.318266643514493"><ele>213.0</ele><time>2026-04-04T09:36:19.999Z</time></trkpt><trkpt lat="45.88983763393317" lon="9.318176145874336"><ele>216.0</ele><time>2026-04-04T09:36:20.999Z</time></trkpt><trkpt lat="45.88993481018717" lon="9.318117533717148"><ele>216.0</ele><time>2026-04-04T09:36:21.999Z</time></trkpt><trkpt lat="45.89003682773042" lon="9.318073065328267"><ele>216.00000000000003</ele><time>2026-04-04T09:36:22.999Z</time></trkpt><trkpt lat="45.890122578142005" lon="9.318029811549543"><ele>216.00000000000003</ele><time>2026-04-04T09:36:23.999Z</time></trkpt><trkpt lat="45.89020301377707" lon="9.31797737799538"><ele>216.0</ele><time>2026-04-04T09:36:24.999Z</time></trkpt><trkpt lat="45.89028892752869" lon="9.317916692643935"><ele>216.0</ele><time>2026-04-04T09:36:25.999Z</time></trkpt><trkpt lat="45.89037860853106" lon="9.317853428471993"><ele>216.60000000000002</ele><time>2026-04-04T09:36:26.999Z</time></trkpt><trkpt lat="45.89047428710346" lon="9.317778094921774"><ele>217.20000000000002</ele><time>2026-04-04T09:36:27.999Z</time></trkpt><trkpt lat="45.89056233731965" lon="9.31770544115489"><ele>217.79999999999998</ele><time>2026-04-04T09:36:28.999Z</time></trkpt><trkpt lat="45.89063823693883" lon="9.317634636792711"><ele>218.39999999999998</ele><time>2026-04-04T09:36:29.999Z</time></trkpt><trkpt lat="45.890707863826705" lon="9.317568130890951"><ele>219.0</ele><time>2026-04-04T09:36:30.999Z</time></trkpt><trkpt lat="45.890778551798306" lon="9.317481230627584"><ele>219.0</ele><time>2026-04-04T09:36:31.999Z</time></trkpt><trkpt lat="45.890839351518245" lon="9.317338886997007"><ele>218.99999999999997</ele><time>2026-04-04T09:36:32.999Z</time></trkpt><trkpt lat="45.89090433308937" lon="9.317201836000509"><ele>218.99999999999997</ele><time>2026-04-04T09:36:33.999Z</time></trkpt><trkpt lat="45.8909558537856" lon="9.317079391800876"><ele>219.0</ele><time>2026-04-04T09:36:34.999Z</time></trkpt><trkpt lat="45.89100824510581" lon="9.316956088352965"><ele>219.0</ele><time>2026-04-04T09:36:35.999Z</time></trkpt><trkpt lat="45.891058621245726" lon="9.31683959919526"><ele>215.79999999999998</ele><time>2026-04-04T09:36:36.999Z</time></trkpt><trkpt lat="45.89110101641338" lon="9.316722962208724"><ele>212.59999999999997</ele><time>2026-04-04T09:36:37.999Z</time></trkpt><trkpt lat="45.891132733486344" lon="9.316597063270388"><ele>209.4</ele><time>2026-04-04T09:36:38.999Z</time></trkpt><trkpt lat="45.89114507809097" lon="9.31644524976359"><ele>206.2</ele><time>2026-04-04T09:36:39.999Z</time></trkpt><trkpt lat="45.89114440572141" lon="9.316295651886414"><ele>203.0</ele><time>2026-04-04T09:36:41.001Z</time></trkpt><trkpt lat="45.89114458987128" lon="9.316148396294011"><ele>203.00000000000003</ele><time>2026-04-04T09:36:42.001Z</time></trkpt><trkpt lat="45.89114600029782" lon="9.316004898166959"><ele>203.0</ele><time>2026-04-04T09:36:43.001Z</time></trkpt><trkpt lat="45.89115133236653" lon="9.315874862561126"><ele>203.0</ele><time>2026-04-04T09:36:44.001Z</time></trkpt><trkpt lat="45.891152923841624" lon="9.31575374785508"><ele>203.0</ele><time>2026-04-04T09:36:45.001Z</time></trkpt><trkpt lat="45.89116120090933" lon="9.315634085375445"><ele>203.00000000000003</ele><time>2026-04-04T09:36:46.001Z</time></trkpt><trkpt lat="45.8911821922127" lon="9.315519415598326"><ele>203.0</ele><time>2026-04-04T09:36:47.001Z</time></trkpt><trkpt lat="45.89122440485455" lon="9.315400626921788"><ele>210.0</ele><time>2026-04-04T09:36:48.001Z</time></trkpt><trkpt lat="45.891282921450944" lon="9.315316167219647"><ele>217.0</ele><time>2026-04-04T09:36:49.001Z</time></trkpt><trkpt lat="45.89135650481511" lon="9.315248158830723"><ele>224.0</ele><time>2026-04-04T09:36:50.001Z</time></trkpt><trkpt lat="45.89144635637141" lon="9.315206711570209"><ele>231.0</ele><time>2026-04-04T09:36:51Z</time></trkpt><trkpt lat="45.891544088445485" lon="9.315197939231105"><ele>238.0</ele><time>2026-04-04T09:36:52Z</time></trkpt><trkpt lat="45.891644033539286" lon="9.315203341741572"><ele>237.99999999999997</ele><time>2026-04-04T09:36:53Z</time></trkpt><trkpt lat="45.891730967031066" lon="9.315206233446666"><ele>238.0</ele><time>2026-04-04T09:36:54Z</time></trkpt><trkpt lat="45.891804032467455" lon="9.315212679442489"><ele>238.0</ele><time>2026-04-04T09:36:55Z</time></trkpt><trkpt lat="45.89188975784684" lon="9.315203786992733"><ele>238.0</ele><time>2026-04-04T09:36:56Z</time></trkpt><trkpt lat="45.89198426171486" lon="9.315188171700216"><ele>237.99999999999997</ele><time>2026-04-04T09:36:57Z</time></trkpt><trkpt lat="45.8920816661505" lon="9.315169414677728"><ele>238.0</ele><time>2026-04-04T09:36:58Z</time></trkpt><trkpt lat="45.892177710465404" lon="9.315131376970367"><ele>233.66666666666666</ele><time>2026-04-04T09:36:59Z</time></trkpt><trkpt lat="45.89226890027052" lon="9.315089000049934"><ele>229.33333333333331</ele><time>2026-04-04T09:37:00Z</time></trkpt><trkpt lat="45.89234545546402" lon="9.315056850877339"><ele>225.0</ele><time>2026-04-04T09:37:01Z</time></trkpt><trkpt lat="45.89242442432409" lon="9.314995413205773"><ele>220.66666666666669</ele><time>2026-04-04T09:37:02Z</time></trkpt><trkpt lat="45.892491707661584" lon="9.314939658688294"><ele>216.33333333333334</ele><time>2026-04-04T09:37:03Z</time></trkpt><trkpt lat="45.892556702712454" lon="9.314881470242822"><ele>212.0</ele><time>2026-04-04T09:37:04Z</time></trkpt><trkpt lat="45.8926231813405" lon="9.31482766488626"><ele>213.50000000000003</ele><time>2026-04-04T09:37:05Z</time></trkpt><trkpt lat="45.89268810184605" lon="9.31477914469145"><ele>215.0</ele><time>2026-04-04T09:37:06Z</time></trkpt><trkpt lat="45.89274909356116" lon="9.31473308880471"><ele>216.5</ele><time>2026-04-04T09:37:07Z</time></trkpt><trkpt lat="45.89285757222518" lon="9.314651904193138"><ele>218.0</ele><time>2026-04-04T09:37:09Z</time></trkpt><trkpt lat="45.89291661616623" lon="9.314607730591932"><ele>219.50000000000003</ele><time>2026-04-04T09:37:10Z</time></trkpt><trkpt lat="45.89297659033354" lon="9.31455016836025"><ele>221.0</ele><time>2026-04-04T09:37:11Z</time></trkpt><trkpt lat="45.893041236362116" lon="9.314463592799893"><ele>221.0</ele><time>2026-04-04T09:37:12Z</time></trkpt><trkpt lat="45.89310598367308" lon="9.314346331814356"><ele>221.00000000000003</ele><time>2026-04-04T09:37:13Z</time></trkpt><trkpt lat="45.8931678884862" lon="9.314214281535849"><ele>221.00000000000003</ele><time>2026-04-04T09:37:14Z</time></trkpt><trkpt lat="45.893221618830154" lon="9.314098363122687"><ele>221.0</ele><time>2026-04-04T09:37:15Z</time></trkpt><trkpt lat="45.893269980458626" lon="9.314012680077484"><ele>221.0</ele><time>2026-04-04T09:37:16Z</time></trkpt><trkpt lat="45.89332616268847" lon="9.31393608102883"><ele>224.25</ele><time>2026-04-04T09:37:17Z</time></trkpt><trkpt lat="45.89339712042311" lon="9.313838865112041"><ele>227.5</ele><time>2026-04-04T09:37:18Z</time></trkpt><trkpt lat="45.89349117083824" lon="9.313731109883413"><ele>230.75</ele><time>2026-04-04T09:37:19Z</time></trkpt><trkpt lat="45.89358839417814" lon="9.313614855905314"><ele>234.0</ele><time>2026-04-04T09:37:20Z</time></trkpt><trkpt lat="45.89369112607744" lon="9.313518329660441"><ele>234.0</ele><time>2026-04-04T09:37:21Z</time></trkpt><trkpt lat="45.8938042411267" lon="9.313416791444066"><ele>234.0</ele><time>2026-04-04T09:37:22Z</time></trkpt><trkpt lat="45.89392588690938" lon="9.31332850583193"><ele>234.0</ele><time>2026-04-04T09:37:23Z</time></trkpt><trkpt lat="45.89405006655451" lon="9.313255838327779"><ele>234.0</ele><time>2026-04-04T09:37:24Z</time></trkpt><trkpt lat="45.89416779402478" lon="9.313200569293052"><ele>228.6</ele><time>2026-04-04T09:37:25Z</time></trkpt><trkpt lat="45.89427980870673" lon="9.313146910980088"><ele>223.2</ele><time>2026-04-04T09:37:26Z</time></trkpt><trkpt lat="45.894382044703214" lon="9.313105120737069"><ele>217.79999999999998</ele><time>2026-04-04T09:37:27Z</time></trkpt><trkpt lat="45.89448569295906" lon="9.31309387865408"><ele>212.39999999999998</ele><time>2026-04-04T09:37:28Z</time></trkpt><trkpt lat="45.894593989854684" lon="9.313120476142052"><ele>207.0</ele><time>2026-04-04T09:37:29Z</time></trkpt><trkpt lat="45.89469047356595" lon="9.313118225943327"><ele>206.75</ele><time>2026-04-04T09:37:30Z</time></trkpt><trkpt lat="45.89479309125046" lon="9.313053212214198"><ele>206.5</ele><time>2026-04-04T09:37:31Z</time></trkpt><trkpt lat="45.894892819604266" lon="9.312942001496303"><ele>206.25</ele><time>2026-04-04T09:37:32Z</time></trkpt><trkpt lat="45.89500173897013" lon="9.312811466898856"><ele>206.0</ele><time>2026-04-04T09:37:33Z</time></trkpt><trkpt lat="45.89511209411824" lon="9.312708900437634"><ele>206.0</ele><time>2026-04-04T09:37:34Z</time></trkpt><trkpt lat="45.89522094857078" lon="9.312612574735057"><ele>206.0</ele><time>2026-04-04T09:37:35Z</time></trkpt><trkpt lat="45.895317707704336" lon="9.312534710339982"><ele>206.0</ele><time>2026-04-04T09:37:36Z</time></trkpt><trkpt lat="45.8954079425325" lon="9.312454582965682"><ele>206.0</ele><time>2026-04-04T09:37:37Z</time></trkpt><trkpt lat="45.89549054139441" lon="9.312404876542173"><ele>206.0</ele><time>2026-04-04T09:37:38Z</time></trkpt><trkpt lat="45.89557491029145" lon="9.312335840723602"><ele>206.0</ele><time>2026-04-04T09:37:39Z</time></trkpt><trkpt lat="45.89567766345535" lon="9.312249163735398"><ele>206.0</ele><time>2026-04-04T09:37:40Z</time></trkpt><trkpt lat="45.89577941505235" lon="9.312155876253746"><ele>206.0</ele><time>2026-04-04T09:37:41Z</time></trkpt><trkpt lat="45.89588167673143" lon="9.31206537478042"><ele>206.0</ele><time>2026-04-04T09:37:42Z</time></trkpt><trkpt lat="45.89598969212093" lon="9.311974558514338"><ele>205.5</ele><time>2026-04-04T09:37:43Z</time></trkpt><trkpt lat="45.89609798388207" lon="9.311881631108891"><ele>205.0</ele><time>2026-04-04T09:37:44Z</time></trkpt><trkpt lat="45.89619787926764" lon="9.31179386814332"><ele>204.5</ele><time>2026-04-04T09:37:45Z</time></trkpt><trkpt lat="45.89629158569225" lon="9.311710751785752"><ele>204.0</ele><time>2026-04-04T09:37:46Z</time></trkpt><trkpt lat="45.89638889227064" lon="9.311627989600407"><ele>204.0</ele><time>2026-04-04T09:37:46.999Z</time></trkpt><trkpt lat="45.89648175641846" lon="9.311545071861275"><ele>204.0</ele><time>2026-04-04T09:37:47.999Z</time></trkpt><trkpt lat="45.89658278309893" lon="9.311453431217066"><ele>204.0</ele><time>2026-04-04T09:37:48.999Z</time></trkpt><trkpt lat="45.89669720880569" lon="9.311366116192008"><ele>204.0</ele><time>2026-04-04T09:37:49.999Z</time></trkpt><trkpt lat="45.89681219236127" lon="9.311254356419983"><ele>207.0</ele><time>2026-04-04T09:37:50.999Z</time></trkpt><trkpt lat="45.89692709368237" lon="9.311160056284598"><ele>210.0</ele><time>2026-04-04T09:37:51.999Z</time></trkpt><trkpt lat="45.897035028813896" lon="9.311065723002843"><ele>213.0</ele><time>2026-04-04T09:37:52.999Z</time></trkpt><trkpt lat="45.89713322255989" lon="9.310985105528676"><ele>216.0</ele><time>2026-04-04T09:37:53.999Z</time></trkpt><trkpt lat="45.89722705595844" lon="9.310912478429524"><ele>216.0</ele><time>2026-04-04T09:37:54.999Z</time></trkpt><trkpt lat="45.8973315909601" lon="9.31086685906771"><ele>216.00000000000003</ele><time>2026-04-04T09:37:55.999Z</time></trkpt><trkpt lat="45.89745149528304" lon="9.310865752486928"><ele>216.00000000000003</ele><time>2026-04-04T09:37:56.999Z</time></trkpt><trkpt lat="45.897562957047306" lon="9.310887508750362"><ele>216.0</ele><time>2026-04-04T09:37:57.999Z</time></trkpt><trkpt lat="45.8976648030634" lon="9.310905986675813"><ele>216.0</ele><time>2026-04-04T09:37:58.999Z</time></trkpt><trkpt lat="45.897767706523396" lon="9.3109190168374"><ele>213.8</ele><time>2026-04-04T09:37:59.999Z</time></trkpt><trkpt lat="45.89788021480088" lon="9.31091478800801"><ele>211.60000000000002</ele><time>2026-04-04T09:38:00.999Z</time></trkpt><trkpt lat="45.89798394337512" lon="9.310889545224246"><ele>209.4</ele><time>2026-04-04T09:38:01.999Z</time></trkpt><trkpt lat="45.89808676785605" lon="9.310844878567105"><ele>207.2</ele><time>2026-04-04T09:38:02.999Z</time></trkpt><trkpt lat="45.898179605195764" lon="9.310775703213734"><ele>205.0</ele><time>2026-04-04T09:38:03.999Z</time></trkpt><trkpt lat="45.89827440985737" lon="9.310704823552134"><ele>205.0</ele><time>2026-04-04T09:38:04.999Z</time></trkpt><trkpt lat="45.898358004190555" lon="9.310631830760245"><ele>205.0</ele><time>2026-04-04T09:38:05.999Z</time></trkpt><trkpt lat="45.89843134624109" lon="9.310548673253848"><ele>205.0</ele><time>2026-04-04T09:38:06.999Z</time></trkpt><trkpt lat="45.89849463512332" lon="9.310442462086902"><ele>205.0</ele><time>2026-04-04T09:38:07.999Z</time></trkpt><trkpt lat="45.898537099637714" lon="9.310320441167203"><ele>205.0</ele><time>2026-04-04T09:38:08.999Z</time></trkpt><trkpt lat="45.89856468789604" lon="9.310190429077055"><ele>203.8</ele><time>2026-04-04T09:38:09.999Z</time></trkpt><trkpt lat="45.89858078099619" lon="9.310040260783307"><ele>202.6</ele><time>2026-04-04T09:38:10.999Z</time></trkpt><trkpt lat="45.89859267619996" lon="9.309901823218356"><ele>201.39999999999998</ele><time>2026-04-04T09:38:11.999Z</time></trkpt><trkpt lat="45.89860414109792" lon="9.309770063493133"><ele>200.2</ele><time>2026-04-04T09:38:12.999Z</time></trkpt><trkpt lat="45.89862222307439" lon="9.309640476242867"><ele>199.0</ele><time>2026-04-04T09:38:13.999Z</time></trkpt><trkpt lat="45.89864105201991" lon="9.309517657424472"><ele>199.0</ele><time>2026-04-04T09:38:14.999Z</time></trkpt><trkpt lat="45.898660524194604" lon="9.30939412632682"><ele>199.0</ele><time>2026-04-04T09:38:15.999Z</time></trkpt><trkpt lat="45.898679706416935" lon="9.309263117031321"><ele>199.0</ele><time>2026-04-04T09:38:16.999Z</time></trkpt><trkpt lat="45.89870680920661" lon="9.309130293851478"><ele>199.0</ele><time>2026-04-04T09:38:17.999Z</time></trkpt><trkpt lat="45.89874200509101" lon="9.308996300937352"><ele>199.0</ele><time>2026-04-04T09:38:18.999Z</time></trkpt><trkpt lat="45.898783980794455" lon="9.308859446684549"><ele>200.6</ele><time>2026-04-04T09:38:19.999Z</time></trkpt><trkpt lat="45.89882927413735" lon="9.308723916647567"><ele>202.2</ele><time>2026-04-04T09:38:20.999Z</time></trkpt><trkpt lat="45.898868695793965" lon="9.308590213794982"><ele>203.79999999999998</ele><time>2026-04-04T09:38:21.999Z</time></trkpt><trkpt lat="45.89890869356773" lon="9.30847122286165"><ele>205.39999999999998</ele><time>2026-04-04T09:38:22.999Z</time></trkpt><trkpt lat="45.89894890124775" lon="9.308350241099923"><ele>207.0</ele><time>2026-04-04T09:38:23.999Z</time></trkpt><trkpt lat="45.89899110634146" lon="9.308219501030036"><ele>207.0</ele><time>2026-04-04T09:38:24.999Z</time></trkpt><trkpt lat="45.89902483318152" lon="9.308089999812609"><ele>207.0</ele><time>2026-04-04T09:38:25.999Z</time></trkpt><trkpt lat="45.8990666203672" lon="9.307958395013538"><ele>207.0</ele><time>2026-04-04T09:38:26.999Z</time></trkpt><trkpt lat="45.89912121383086" lon="9.307821519658907"><ele>207.0</ele><time>2026-04-04T09:38:27.999Z</time></trkpt><trkpt lat="45.899192439081865" lon="9.307692148184467"><ele>207.0</ele><time>2026-04-04T09:38:28.999Z</time></trkpt><trkpt lat="45.89926579124674" lon="9.30755692542566"><ele>207.75</ele><time>2026-04-04T09:38:29.999Z</time></trkpt><trkpt lat="45.89934320691761" lon="9.30742053528926"><ele>208.5</ele><time>2026-04-04T09:38:30.999Z</time></trkpt><trkpt lat="45.899426216653396" lon="9.307284044269489"><ele>209.25</ele><time>2026-04-04T09:38:31.999Z</time></trkpt><trkpt lat="45.89950681020264" lon="9.307140339496804"><ele>210.0</ele><time>2026-04-04T09:38:32.999Z</time></trkpt><trkpt lat="45.89959136698831" lon="9.306987897323973"><ele>210.0</ele><time>2026-04-04T09:38:33.999Z</time></trkpt><trkpt lat="45.899678421192334" lon="9.306834200963726"><ele>210.0</ele><time>2026-04-04T09:38:34.999Z</time></trkpt><trkpt lat="45.89976391276488" lon="9.306679047757253"><ele>210.0</ele><time>2026-04-04T09:38:35.999Z</time></trkpt><trkpt lat="45.899851447168004" lon="9.306523829772457"><ele>210.0</ele><time>2026-04-04T09:38:36.999Z</time></trkpt><trkpt lat="45.899943835455765" lon="9.306378640695854"><ele>208.75</ele><time>2026-04-04T09:38:37.999Z</time></trkpt><trkpt lat="45.90004200815227" lon="9.306257598805981"><ele>207.5</ele><time>2026-04-04T09:38:38.999Z</time></trkpt><trkpt lat="45.90013624274228" lon="9.306153011936651"><ele>206.25</ele><time>2026-04-04T09:38:39.999Z</time></trkpt><trkpt lat="45.900222343051354" lon="9.306055849190571"><ele>205.0</ele><time>2026-04-04T09:38:40.999Z</time></trkpt><trkpt lat="45.90030907900904" lon="9.305956871643597"><ele>205.0</ele><time>2026-04-04T09:38:41.999Z</time></trkpt><trkpt lat="45.90039987216647" lon="9.305842776843502"><ele>205.0</ele><time>2026-04-04T09:38:42.999Z</time></trkpt><trkpt lat="45.90048458445722" lon="9.305710818710308"><ele>205.0</ele><time>2026-04-04T09:38:43.999Z</time></trkpt><trkpt lat="45.90056770740423" lon="9.30556196982129"><ele>205.0</ele><time>2026-04-04T09:38:44.999Z</time></trkpt><trkpt lat="45.900649116814414" lon="9.30541190752657"><ele>207.25</ele><time>2026-04-04T09:38:45.999Z</time></trkpt><trkpt lat="45.90072086314828" lon="9.305246491151294"><ele>209.5</ele><time>2026-04-04T09:38:47Z</time></trkpt><trkpt lat="45.90078937397853" lon="9.305089655070907"><ele>211.75</ele><time>2026-04-04T09:38:48Z</time></trkpt><trkpt lat="45.90085308670363" lon="9.304946573351232"><ele>214.0</ele><time>2026-04-04T09:38:49Z</time></trkpt><trkpt lat="45.900907815217145" lon="9.30480325599475"><ele>211.25</ele><time>2026-04-04T09:38:50Z</time></trkpt><trkpt lat="45.90097250186104" lon="9.304676275361183"><ele>208.5</ele><time>2026-04-04T09:38:51Z</time></trkpt><trkpt lat="45.90105193791935" lon="9.304547593804505"><ele>205.75</ele><time>2026-04-04T09:38:52Z</time></trkpt><trkpt lat="45.90113309115848" lon="9.304416300972036"><ele>203.0</ele><time>2026-04-04T09:38:53Z</time></trkpt><trkpt lat="45.90121296345995" lon="9.304283614585412"><ele>203.0</ele><time>2026-04-04T09:38:54Z</time></trkpt><trkpt lat="45.90128468368982" lon="9.30417391295289"><ele>203.0</ele><time>2026-04-04T09:38:55Z</time></trkpt><trkpt lat="45.90134998609528" lon="9.304067111216183"><ele>203.0</ele><time>2026-04-04T09:38:56Z</time></trkpt><trkpt lat="45.90141429427078" lon="9.303965180713957"><ele>203.0</ele><time>2026-04-04T09:38:57Z</time></trkpt><trkpt lat="45.901486047800276" lon="9.303850016967399"><ele>203.0</ele><time>2026-04-04T09:38:58Z</time></trkpt><trkpt lat="45.90156983624682" lon="9.303737041597444"><ele>202.0</ele><time>2026-04-04T09:38:59Z</time></trkpt><trkpt lat="45.901639149726364" lon="9.303608128249243"><ele>201.0</ele><time>2026-04-04T09:39:00Z</time></trkpt><trkpt lat="45.9017165782812" lon="9.303456091485815"><ele>200.0</ele><time>2026-04-04T09:39:01Z</time></trkpt><trkpt lat="45.901798999235396" lon="9.303285191286367"><ele>199.0</ele><time>2026-04-04T09:39:02Z</time></trkpt><trkpt lat="45.901884832742" lon="9.303102611664084"><ele>200.25</ele><time>2026-04-04T09:39:03Z</time></trkpt><trkpt lat="45.901965722125205" lon="9.30291429357627"><ele>201.5</ele><time>2026-04-04T09:39:04Z</time></trkpt><trkpt lat="45.902038248260546" lon="9.302737485317321"><ele>202.75</ele><time>2026-04-04T09:39:05Z</time></trkpt><trkpt lat="45.90209951545361" lon="9.302584850062699"><ele>204.0</ele><time>2026-04-04T09:39:06Z</time></trkpt><trkpt lat="45.90216320416598" lon="9.302441562218798"><ele>204.0</ele><time>2026-04-04T09:39:07Z</time></trkpt><trkpt lat="45.90222650421779" lon="9.302311462672671"><ele>204.0</ele><time>2026-04-04T09:39:08Z</time></trkpt><trkpt lat="45.902298644768614" lon="9.30218766783075"><ele>204.0</ele><time>2026-04-04T09:39:09Z</time></trkpt><trkpt lat="45.90237016543236" lon="9.302055803724965"><ele>204.0</ele><time>2026-04-04T09:39:10Z</time></trkpt><trkpt lat="45.90244324712603" lon="9.301924726011153"><ele>205.25</ele><time>2026-04-04T09:39:11Z</time></trkpt><trkpt lat="45.90251102214521" lon="9.30178720401714"><ele>206.5</ele><time>2026-04-04T09:39:12Z</time></trkpt><trkpt lat="45.90257692205974" lon="9.301653058957582"><ele>207.75</ele><time>2026-04-04T09:39:13Z</time></trkpt><trkpt lat="45.90264559757856" lon="9.301532042496639"><ele>209.0</ele><time>2026-04-04T09:39:14Z</time></trkpt><trkpt lat="45.90274045077521" lon="9.301428431481444"><ele>208.25</ele><time>2026-04-04T09:39:15Z</time></trkpt><trkpt lat="45.9028526478016" lon="9.301347559384855"><ele>207.5</ele><time>2026-04-04T09:39:16Z</time></trkpt><trkpt lat="45.902979133201654" lon="9.301300607833157"><ele>206.75</ele><time>2026-04-04T09:39:17Z</time></trkpt><trkpt lat="45.903096615684696" lon="9.301276376657627"><ele>206.0</ele><time>2026-04-04T09:39:18Z</time></trkpt><trkpt lat="45.90320829187294" lon="9.301247795523166"><ele>206.0</ele><time>2026-04-04T09:39:19Z</time></trkpt><trkpt lat="45.90331935336271" lon="9.301215597264564"><ele>206.0</ele><time>2026-04-04T09:39:20Z</time></trkpt><trkpt lat="45.90343379477112" lon="9.30117184665331"><ele>206.0</ele><time>2026-04-04T09:39:21Z</time></trkpt><trkpt lat="45.90355751523583" lon="9.301125017591557"><ele>206.0</ele><time>2026-04-04T09:39:22Z</time></trkpt><trkpt lat="45.90369612006885" lon="9.30107399167665"><ele>204.5</ele><time>2026-04-04T09:39:23Z</time></trkpt><trkpt lat="45.90383080790303" lon="9.301012297383988"><ele>203.0</ele><time>2026-04-04T09:39:24Z</time></trkpt><trkpt lat="45.90395662837746" lon="9.300929747769567"><ele>201.5</ele><time>2026-04-04T09:39:25Z</time></trkpt><trkpt lat="45.90405758674517" lon="9.30082879637136"><ele>200.0</ele><time>2026-04-04T09:39:26Z</time></trkpt><trkpt lat="45.90414752959452" lon="9.300723986668396"><ele>200.0</ele><time>2026-04-04T09:39:27Z</time></trkpt><trkpt lat="45.90424316052619" lon="9.300603584514166"><ele>200.0</ele><time>2026-04-04T09:39:28Z</time></trkpt><trkpt lat="45.90435127406733" lon="9.300474829710014"><ele>200.0</ele><time>2026-04-04T09:39:29Z</time></trkpt><trkpt lat="45.90446473871103" lon="9.300348512956505"><ele>200.0</ele><time>2026-04-04T09:39:30Z</time></trkpt><trkpt lat="45.9045777682265" lon="9.300221836846392"><ele>200.25</ele><time>2026-04-04T09:39:31Z</time></trkpt><trkpt lat="45.90468499236582" lon="9.30009788732516"><ele>200.5</ele><time>2026-04-04T09:39:32Z</time></trkpt><trkpt lat="45.904780276372556" lon="9.299993024471673"><ele>200.75</ele><time>2026-04-04T09:39:33Z</time></trkpt><trkpt lat="45.904871873062156" lon="9.299904280343627"><ele>201.0</ele><time>2026-04-04T09:39:34Z</time></trkpt><trkpt lat="45.90497587080042" lon="9.29984292013936"><ele>200.5</ele><time>2026-04-04T09:39:35Z</time></trkpt><trkpt lat="45.90509196403958" lon="9.299817873450513"><ele>200.0</ele><time>2026-04-04T09:39:36Z</time></trkpt><trkpt lat="45.905213479646555" lon="9.299787215938776"><ele>199.5</ele><time>2026-04-04T09:39:37Z</time></trkpt><trkpt lat="45.905335817065925" lon="9.299748896164475"><ele>199.0</ele><time>2026-04-04T09:39:38Z</time></trkpt><trkpt lat="45.905462799649904" lon="9.29970285854522"><ele>199.25</ele><time>2026-04-04T09:39:39Z</time></trkpt><trkpt lat="45.9055877819743" lon="9.2996354809797"><ele>199.5</ele><time>2026-04-04T09:39:40Z</time></trkpt><trkpt lat="45.90569842523056" lon="9.299533313856214"><ele>199.75</ele><time>2026-04-04T09:39:41Z</time></trkpt><trkpt lat="45.905805648298205" lon="9.29942948726358"><ele>200.0</ele><time>2026-04-04T09:39:42Z</time></trkpt><trkpt lat="45.90591588561237" lon="9.299327749585403"><ele>200.0</ele><time>2026-04-04T09:39:43Z</time></trkpt><trkpt lat="45.906025336896114" lon="9.299221796442538"><ele>200.0</ele><time>2026-04-04T09:39:44Z</time></trkpt><trkpt lat="45.90613385990706" lon="9.29911940337667"><ele>200.0</ele><time>2026-04-04T09:39:45Z</time></trkpt><trkpt lat="45.906240419727105" lon="9.29901388022848"><ele>200.0</ele><time>2026-04-04T09:39:46Z</time></trkpt><trkpt lat="45.906337023851194" lon="9.298912328869747"><ele>200.0</ele><time>2026-04-04T09:39:46.999Z</time></trkpt><trkpt lat="45.90643914012383" lon="9.298826558503428"><ele>200.0</ele><time>2026-04-04T09:39:47.999Z</time></trkpt><trkpt lat="45.906542408427015" lon="9.298730944446518"><ele>200.0</ele><time>2026-04-04T09:39:48.999Z</time></trkpt><trkpt lat="45.906652795463735" lon="9.298644677647408"><ele>200.0</ele><time>2026-04-04T09:39:49.999Z</time></trkpt><trkpt lat="45.906761719565615" lon="9.298557695652198"><ele>200.0</ele><time>2026-04-04T09:39:50.999Z</time></trkpt><trkpt lat="45.90686599789991" lon="9.298459685598308"><ele>200.0</ele><time>2026-04-04T09:39:51.999Z</time></trkpt><trkpt lat="45.90697038647274" lon="9.29837404570647"><ele>200.0</ele><time>2026-04-04T09:39:52.999Z</time></trkpt><trkpt lat="45.90707948834587" lon="9.298274833808417"><ele>200.0</ele><time>2026-04-04T09:39:53.999Z</time></trkpt><trkpt lat="45.90718936865697" lon="9.298174409262641"><ele>200.25</ele><time>2026-04-04T09:39:54.999Z</time></trkpt><trkpt lat="45.90729742234159" lon="9.298074750254951"><ele>200.5</ele><time>2026-04-04T09:39:55.999Z</time></trkpt><trkpt lat="45.90740124890289" lon="9.297975512438585"><ele>200.75</ele><time>2026-04-04T09:39:56.999Z</time></trkpt><trkpt lat="45.907502751747984" lon="9.297878710801411"><ele>201.0</ele><time>2026-04-04T09:39:57.999Z</time></trkpt><trkpt lat="45.90759975662587" lon="9.297790246449546"><ele>201.0</ele><time>2026-04-04T09:39:58.999Z</time></trkpt><trkpt lat="45.90769513649873" lon="9.29770741313837"><ele>201.0</ele><time>2026-04-04T09:39:59.999Z</time></trkpt><trkpt lat="45.90779208210953" lon="9.29761685934174"><ele>201.0</ele><time>2026-04-04T09:40:00.999Z</time></trkpt><trkpt lat="45.90789439011407" lon="9.297520917857572"><ele>201.0</ele><time>2026-04-04T09:40:01.999Z</time></trkpt><trkpt lat="45.907997718772386" lon="9.297424932454899"><ele>201.0</ele><time>2026-04-04T09:40:02.999Z</time></trkpt><trkpt lat="45.90810160763909" lon="9.297330432724358"><ele>201.0</ele><time>2026-04-04T09:40:03.999Z</time></trkpt><trkpt lat="45.90820288050774" lon="9.29723929160193"><ele>201.0</ele><time>2026-04-04T09:40:04.999Z</time></trkpt><trkpt lat="45.90830716227739" lon="9.297147147633714"><ele>201.0</ele><time>2026-04-04T09:40:05.999Z</time></trkpt><trkpt lat="45.90841197564024" lon="9.297050739844606"><ele>201.0</ele><time>2026-04-04T09:40:06.999Z</time></trkpt><trkpt lat="45.90850814554866" lon="9.296960857871298"><ele>201.0</ele><time>2026-04-04T09:40:07.999Z</time></trkpt><trkpt lat="45.90863009366647" lon="9.296848431383822"><ele>201.0</ele><time>2026-04-04T09:40:08.999Z</time></trkpt><trkpt lat="45.908742510462496" lon="9.296751187608786"><ele>201.0</ele><time>2026-04-04T09:40:09.999Z</time></trkpt><trkpt lat="45.908850013255524" lon="9.296660820774182"><ele>201.0</ele><time>2026-04-04T09:40:10.999Z</time></trkpt><trkpt lat="45.90894644395827" lon="9.296562557126277"><ele>201.0</ele><time>2026-04-04T09:40:11.999Z</time></trkpt><trkpt lat="45.909035214840806" lon="9.296480813371003"><ele>201.0</ele><time>2026-04-04T09:40:12.999Z</time></trkpt><trkpt lat="45.90911945101061" lon="9.296390896031971"><ele>201.0</ele><time>2026-04-04T09:40:13.999Z</time></trkpt><trkpt lat="45.909199108484714" lon="9.296276589722108"><ele>201.0</ele><time>2026-04-04T09:40:14.999Z</time></trkpt><trkpt lat="45.90926724491141" lon="9.296144683552718"><ele>200.60000000000002</ele><time>2026-04-04T09:40:15.999Z</time></trkpt><trkpt lat="45.90932727101926" lon="9.29599921204389"><ele>200.2</ele><time>2026-04-04T09:40:16.999Z</time></trkpt><trkpt lat="45.90939284383785" lon="9.295863891161513"><ele>199.8</ele><time>2026-04-04T09:40:17.999Z</time></trkpt><trkpt lat="45.90945867628554" lon="9.295740228760533"><ele>199.39999999999998</ele><time>2026-04-04T09:40:18.999Z</time></trkpt><trkpt lat="45.909515490444825" lon="9.2956091646149"><ele>199.0</ele><time>2026-04-04T09:40:19.999Z</time></trkpt><trkpt lat="45.909555047251786" lon="9.295477038579003"><ele>199.79999999999998</ele><time>2026-04-04T09:40:20.999Z</time></trkpt><trkpt lat="45.909597162374574" lon="9.295350247475513"><ele>200.6</ele><time>2026-04-04T09:40:21.999Z</time></trkpt><trkpt lat="45.90965082562353" lon="9.295225892461838"><ele>201.4</ele><time>2026-04-04T09:40:22.999Z</time></trkpt><trkpt lat="45.909709577853306" lon="9.29510840748547"><ele>202.2</ele><time>2026-04-04T09:40:23.999Z</time></trkpt><trkpt lat="45.90975818460606" lon="9.295005725975603"><ele>203.0</ele><time>2026-04-04T09:40:24.999Z</time></trkpt><trkpt lat="45.90980960534261" lon="9.294912587064124"><ele>203.0</ele><time>2026-04-04T09:40:25.999Z</time></trkpt><trkpt lat="45.90986816605657" lon="9.294814629362035"><ele>203.0</ele><time>2026-04-04T09:40:26.999Z</time></trkpt><trkpt lat="45.9099369405186" lon="9.294722798832304"><ele>203.0</ele><time>2026-04-04T09:40:27.999Z</time></trkpt><trkpt lat="45.91001908055493" lon="9.294633637912629"><ele>203.0</ele><time>2026-04-04T09:40:28.999Z</time></trkpt><trkpt lat="45.91011366822151" lon="9.294550077456176"><ele>203.0</ele><time>2026-04-04T09:40:29.999Z</time></trkpt><trkpt lat="45.91021105976155" lon="9.294472076199117"><ele>203.4</ele><time>2026-04-04T09:40:30.999Z</time></trkpt><trkpt lat="45.91031665445141" lon="9.294397451210585"><ele>203.8</ele><time>2026-04-04T09:40:31.999Z</time></trkpt><trkpt lat="45.910417400051315" lon="9.294326257881416"><ele>204.2</ele><time>2026-04-04T09:40:32.999Z</time></trkpt><trkpt lat="45.9105110394101" lon="9.29425803606855"><ele>204.6</ele><time>2026-04-04T09:40:33.999Z</time></trkpt><trkpt lat="45.91059752215582" lon="9.294194674563693"><ele>205.0</ele><time>2026-04-04T09:40:34.999Z</time></trkpt><trkpt lat="45.91067788368937" lon="9.294146363608288"><ele>204.99999999999997</ele><time>2026-04-04T09:40:35.999Z</time></trkpt><trkpt lat="45.91075456892598" lon="9.294115232112247"><ele>205.0</ele><time>2026-04-04T09:40:36.999Z</time></trkpt><trkpt lat="45.91081947986395" lon="9.294095726276806"><ele>205.0</ele><time>2026-04-04T09:40:37.999Z</time></trkpt><trkpt lat="45.91091553515482" lon="9.29406379881278"><ele>205.0</ele><time>2026-04-04T09:40:39.999Z</time></trkpt><trkpt lat="45.91099606573744" lon="9.294037678532112"><ele>204.99999999999997</ele><time>2026-04-04T09:40:41.999Z</time></trkpt><trkpt lat="45.91109681852406" lon="9.294002359436858"><ele>205.0</ele><time>2026-04-04T09:40:43.999Z</time></trkpt><trkpt lat="45.91116084781476" lon="9.293983200465716"><ele>204.66666666666666</ele><time>2026-04-04T09:40:44.999Z</time></trkpt><trkpt lat="45.91123696848649" lon="9.293964753028565"><ele>204.33333333333331</ele><time>2026-04-04T09:40:45.999Z</time></trkpt><trkpt lat="45.91131263003908" lon="9.293950679105649"><ele>204.0</ele><time>2026-04-04T09:40:46.999Z</time></trkpt><trkpt lat="45.91139099790754" lon="9.293944530136615"><ele>203.66666666666669</ele><time>2026-04-04T09:40:47.999Z</time></trkpt><trkpt lat="45.91146307123232" lon="9.293937240843343"><ele>203.33333333333334</ele><time>2026-04-04T09:40:48.999Z</time></trkpt><trkpt lat="45.9115366439636" lon="9.293927729672992"><ele>203.0</ele><time>2026-04-04T09:40:49.999Z</time></trkpt><trkpt lat="45.91160883415821" lon="9.293932886538203"><ele>203.00000000000003</ele><time>2026-04-04T09:40:50.999Z</time></trkpt><trkpt lat="45.91168422016883" lon="9.293922488895664"><ele>203.0</ele><time>2026-04-04T09:40:51.999Z</time></trkpt><trkpt lat="45.91176719663927" lon="9.293915672716292"><ele>203.0</ele><time>2026-04-04T09:40:53Z</time></trkpt><trkpt lat="45.91185171263532" lon="9.293900110200783"><ele>203.0</ele><time>2026-04-04T09:40:54Z</time></trkpt><trkpt lat="45.91194608056494" lon="9.293893117594607"><ele>203.00000000000003</ele><time>2026-04-04T09:40:55Z</time></trkpt><trkpt lat="45.91203080537923" lon="9.29385187339272"><ele>203.0</ele><time>2026-04-04T09:40:56Z</time></trkpt><trkpt lat="45.912110243374535" lon="9.293792842420041"><ele>202.83333333333334</ele><time>2026-04-04T09:40:57Z</time></trkpt><trkpt lat="45.91217438089495" lon="9.293738136205134"><ele>202.66666666666669</ele><time>2026-04-04T09:40:58Z</time></trkpt><trkpt lat="45.912233138935896" lon="9.293697176968063"><ele>202.5</ele><time>2026-04-04T09:40:59Z</time></trkpt><trkpt lat="45.912339324299985" lon="9.293626183039704"><ele>202.33333333333331</ele><time>2026-04-04T09:41:01Z</time></trkpt><trkpt lat="45.91241612824568" lon="9.29357384781266"><ele>202.16666666666666</ele><time>2026-04-04T09:41:02Z</time></trkpt><trkpt lat="45.91249758564858" lon="9.293526122526979"><ele>202.0</ele><time>2026-04-04T09:41:03Z</time></trkpt><trkpt lat="45.912579275695826" lon="9.293476678880163"><ele>202.0</ele><time>2026-04-04T09:41:04Z</time></trkpt><trkpt lat="45.91266309366169" lon="9.293428618763462"><ele>202.0</ele><time>2026-04-04T09:41:05Z</time></trkpt><trkpt lat="45.912747286256725" lon="9.293378770602668"><ele>202.0</ele><time>2026-04-04T09:41:06Z</time></trkpt><trkpt lat="45.91282868198398" lon="9.293327008145729"><ele>202.0</ele><time>2026-04-04T09:41:07Z</time></trkpt><trkpt lat="45.91291218425968" lon="9.293276721241112"><ele>202.0</ele><time>2026-04-04T09:41:08Z</time></trkpt><trkpt lat="45.91299754903998" lon="9.293227300989471"><ele>202.0</ele><time>2026-04-04T09:41:09Z</time></trkpt><trkpt lat="45.913097691874135" lon="9.293169596659874"><ele>202.0</ele><time>2026-04-04T09:41:10Z</time></trkpt><trkpt lat="45.913203266060826" lon="9.293118481129163"><ele>202.0</ele><time>2026-04-04T09:41:11Z</time></trkpt><trkpt lat="45.91331674340066" lon="9.293076114182329"><ele>202.0</ele><time>2026-04-04T09:41:12Z</time></trkpt><trkpt lat="45.91344162479022" lon="9.29303795743512"><ele>202.8</ele><time>2026-04-04T09:41:13Z</time></trkpt><trkpt lat="45.91355730805012" lon="9.293003048871268"><ele>203.6</ele><time>2026-04-04T09:41:14Z</time></trkpt><trkpt lat="45.91365801408567" lon="9.292977718977678"><ele>204.4</ele><time>2026-04-04T09:41:15Z</time></trkpt><trkpt lat="45.91375490395873" lon="9.292959719799414"><ele>205.20000000000002</ele><time>2026-04-04T09:41:16Z</time></trkpt><trkpt lat="45.9138500787444" lon="9.29294595648902"><ele>206.0</ele><time>2026-04-04T09:41:17Z</time></trkpt><trkpt lat="45.91395413229126" lon="9.292929012818917"><ele>206.0</ele><time>2026-04-04T09:41:18Z</time></trkpt><trkpt lat="45.91406373835306" lon="9.29293060333148"><ele>206.0</ele><time>2026-04-04T09:41:19Z</time></trkpt><trkpt lat="45.91417516817539" lon="9.292957710184824"><ele>206.0</ele><time>2026-04-04T09:41:20Z</time></trkpt><trkpt lat="45.91427011394166" lon="9.292977468833843"><ele>206.0</ele><time>2026-04-04T09:41:21Z</time></trkpt><trkpt lat="45.91436626483027" lon="9.292995719836012"><ele>206.0</ele><time>2026-04-04T09:41:22Z</time></trkpt><trkpt lat="45.9144607619784" lon="9.293011794245473"><ele>205.8</ele><time>2026-04-04T09:41:23Z</time></trkpt><trkpt lat="45.9145655242971" lon="9.293026818958909"><ele>205.60000000000002</ele><time>2026-04-04T09:41:24Z</time></trkpt><trkpt lat="45.914677723516434" lon="9.293041683132447"><ele>205.4</ele><time>2026-04-04T09:41:25Z</time></trkpt><trkpt lat="45.914785431718606" lon="9.293048134443305"><ele>205.2</ele><time>2026-04-04T09:41:26Z</time></trkpt><trkpt lat="45.91489332943039" lon="9.29302831759003"><ele>205.0</ele><time>2026-04-04T09:41:27Z</time></trkpt><trkpt lat="45.91499580581246" lon="9.292986418711138"><ele>204.25</ele><time>2026-04-04T09:41:28Z</time></trkpt><trkpt lat="45.91509603507876" lon="9.29293383839167"><ele>203.5</ele><time>2026-04-04T09:41:29Z</time></trkpt><trkpt lat="45.91519970879012" lon="9.292873809265366"><ele>202.75</ele><time>2026-04-04T09:41:30Z</time></trkpt><trkpt lat="45.91530863322547" lon="9.292810752285499"><ele>202.0</ele><time>2026-04-04T09:41:31Z</time></trkpt><trkpt lat="45.91542201102861" lon="9.292744915707457"><ele>202.0</ele><time>2026-04-04T09:41:32Z</time></trkpt><trkpt lat="45.915533682454935" lon="9.292682732069393"><ele>202.0</ele><time>2026-04-04T09:41:33Z</time></trkpt><trkpt lat="45.9156330615271" lon="9.292626875411734"><ele>202.0</ele><time>2026-04-04T09:41:34Z</time></trkpt><trkpt lat="45.91570315950487" lon="9.292580134201335"><ele>202.0</ele><time>2026-04-04T09:41:35Z</time></trkpt><trkpt lat="45.915767705939565" lon="9.292525988330269"><ele>202.0</ele><time>2026-04-04T09:41:36Z</time></trkpt><trkpt lat="45.91583716531323" lon="9.292463154033399"><ele>202.0</ele><time>2026-04-04T09:41:37Z</time></trkpt><trkpt lat="45.91590149088795" lon="9.292406471058063"><ele>202.0</ele><time>2026-04-04T09:41:38Z</time></trkpt><trkpt lat="45.91596107910169" lon="9.292358034204515"><ele>202.0</ele><time>2026-04-04T09:41:39Z</time></trkpt><trkpt lat="45.916037184527134" lon="9.292298074519595"><ele>202.0</ele><time>2026-04-04T09:41:40Z</time></trkpt><trkpt lat="45.91612900863942" lon="9.292224616835716"><ele>202.0</ele><time>2026-04-04T09:41:41Z</time></trkpt><trkpt lat="45.91622680636599" lon="9.29213964039501"><ele>203.0</ele><time>2026-04-04T09:41:42Z</time></trkpt><trkpt lat="45.9163400641283" lon="9.29205919042012"><ele>204.0</ele><time>2026-04-04T09:41:43Z</time></trkpt><trkpt lat="45.9164425586151" lon="9.292005187860823"><ele>205.0</ele><time>2026-04-04T09:41:44Z</time></trkpt><trkpt lat="45.9165891104224" lon="9.291848230625881"><ele>206.0</ele><time>2026-04-04T09:41:45Z</time></trkpt><trkpt lat="45.91672673065755" lon="9.291746429749146"><ele>206.25</ele><time>2026-04-04T09:41:46Z</time></trkpt><trkpt lat="45.91684340536444" lon="9.291625236085135"><ele>206.5</ele><time>2026-04-04T09:41:46.999Z</time></trkpt><trkpt lat="45.91694179997388" lon="9.291515879842716"><ele>206.75</ele><time>2026-04-04T09:41:47.999Z</time></trkpt><trkpt lat="45.91703017676006" lon="9.291402463628936"><ele>207.0</ele><time>2026-04-04T09:41:48.999Z</time></trkpt><trkpt lat="45.91711909602067" lon="9.291290228132322"><ele>207.0</ele><time>2026-04-04T09:41:49.999Z</time></trkpt><trkpt lat="45.91720545650312" lon="9.291171418489746"><ele>207.0</ele><time>2026-04-04T09:41:50.999Z</time></trkpt><trkpt lat="45.91727651660943" lon="9.291042734869102"><ele>207.0</ele><time>2026-04-04T09:41:51.999Z</time></trkpt><trkpt lat="45.917337589474535" lon="9.290908816643991"><ele>207.0</ele><time>2026-04-04T09:41:52.999Z</time></trkpt><trkpt lat="45.91740403107688" lon="9.29077144094562"><ele>207.0</ele><time>2026-04-04T09:41:53.999Z</time></trkpt><trkpt lat="45.91747444275773" lon="9.290644061779245"><ele>207.0</ele><time>2026-04-04T09:41:54.999Z</time></trkpt><trkpt lat="45.91754962999869" lon="9.290529369311576"><ele>207.0</ele><time>2026-04-04T09:41:55.999Z</time></trkpt><trkpt lat="45.91763454333288" lon="9.290422432982007"><ele>207.0</ele><time>2026-04-04T09:41:56.999Z</time></trkpt><trkpt lat="45.91772401294966" lon="9.290320124056244"><ele>206.25</ele><time>2026-04-04T09:41:57.999Z</time></trkpt><trkpt lat="45.91781951595165" lon="9.29023077447112"><ele>205.5</ele><time>2026-04-04T09:41:58.999Z</time></trkpt><trkpt lat="45.91791780015696" lon="9.29013634613859"><ele>204.75</ele><time>2026-04-04T09:41:59.999Z</time></trkpt><trkpt lat="45.91802542388905" lon="9.290063107527866"><ele>204.0</ele><time>2026-04-04T09:42:00.999Z</time></trkpt><trkpt lat="45.9181450547789" lon="9.290014826814382"><ele>204.0</ele><time>2026-04-04T09:42:01.999Z</time></trkpt><trkpt lat="45.918267485536845" lon="9.289957761506665"><ele>204.0</ele><time>2026-04-04T09:42:02.999Z</time></trkpt><trkpt lat="45.918375643346906" lon="9.28985059201156"><ele>204.0</ele><time>2026-04-04T09:42:03.999Z</time></trkpt><trkpt lat="45.91847343044074" lon="9.289712059541085"><ele>204.0</ele><time>2026-04-04T09:42:04.999Z</time></trkpt><trkpt lat="45.918575278871344" lon="9.28958317319259"><ele>206.0</ele><time>2026-04-04T09:42:05.999Z</time></trkpt><trkpt lat="45.91869120447384" lon="9.289485985409833"><ele>208.0</ele><time>2026-04-04T09:42:06.999Z</time></trkpt><trkpt lat="45.91881829938862" lon="9.289428639389154"><ele>210.0</ele><time>2026-04-04T09:42:07.999Z</time></trkpt><trkpt lat="45.91894912966862" lon="9.28939673378103"><ele>212.0</ele><time>2026-04-04T09:42:08.999Z</time></trkpt><trkpt lat="45.919074962810996" lon="9.289368600498115"><ele>212.0</ele><time>2026-04-04T09:42:09.999Z</time></trkpt><trkpt lat="45.919198348244194" lon="9.289339064318904"><ele>212.0</ele><time>2026-04-04T09:42:10.999Z</time></trkpt><trkpt lat="45.91931399430661" lon="9.289306118097105"><ele>212.0</ele><time>2026-04-04T09:42:11.999Z</time></trkpt><trkpt lat="45.91942676025016" lon="9.289276845177158"><ele>212.0</ele><time>2026-04-04T09:42:12.999Z</time></trkpt><trkpt lat="45.91955344572585" lon="9.289239470304283"><ele>211.6</ele><time>2026-04-04T09:42:13.999Z</time></trkpt><trkpt lat="45.919659636486486" lon="9.289208627941537"><ele>211.2</ele><time>2026-04-04T09:42:14.999Z</time></trkpt><trkpt lat="45.919766030761494" lon="9.289175680384641"><ele>210.8</ele><time>2026-04-04T09:42:15.999Z</time></trkpt><trkpt lat="45.91986560432449" lon="9.289142125269766"><ele>210.4</ele><time>2026-04-04T09:42:16.999Z</time></trkpt><trkpt lat="45.91996532272971" lon="9.289114350672374"><ele>210.0</ele><time>2026-04-04T09:42:17.999Z</time></trkpt><trkpt lat="45.92005955316472" lon="9.289082293668866"><ele>211.4</ele><time>2026-04-04T09:42:18.999Z</time></trkpt><trkpt lat="45.92014738918637" lon="9.289043850105791"><ele>212.8</ele><time>2026-04-04T09:42:19.999Z</time></trkpt><trkpt lat="45.920236906099525" lon="9.288974670671864"><ele>214.2</ele><time>2026-04-04T09:42:20.999Z</time></trkpt><trkpt lat="45.92031853885358" lon="9.288904523663007"><ele>215.6</ele><time>2026-04-04T09:42:21.999Z</time></trkpt><trkpt lat="45.920400145534735" lon="9.288815807102283"><ele>217.0</ele><time>2026-04-04T09:42:22.999Z</time></trkpt><trkpt lat="45.920489018509535" lon="9.288728450583859"><ele>216.99999999999997</ele><time>2026-04-04T09:42:23.999Z</time></trkpt><trkpt lat="45.920570768029705" lon="9.288653592810709"><ele>217.0</ele><time>2026-04-04T09:42:24.999Z</time></trkpt><trkpt lat="45.92064275720035" lon="9.288588032962135"><ele>217.0</ele><time>2026-04-04T09:42:25.999Z</time></trkpt><trkpt lat="45.92070766362678" lon="9.288522945928703"><ele>217.0</ele><time>2026-04-04T09:42:26.999Z</time></trkpt><trkpt lat="45.92078008312987" lon="9.288454268778976"><ele>216.99999999999997</ele><time>2026-04-04T09:42:27.999Z</time></trkpt><trkpt lat="45.92085572426521" lon="9.288388885251837"><ele>217.0</ele><time>2026-04-04T09:42:28.999Z</time></trkpt><trkpt lat="45.92092964059736" lon="9.288318820196684"><ele>214.83333333333331</ele><time>2026-04-04T09:42:29.999Z</time></trkpt><trkpt lat="45.92099289270747" lon="9.28825715873067"><ele>212.66666666666666</ele><time>2026-04-04T09:42:30.999Z</time></trkpt><trkpt lat="45.92105513954615" lon="9.288195496625764"><ele>210.5</ele><time>2026-04-04T09:42:31.999Z</time></trkpt><trkpt lat="45.92112542751043" lon="9.288136306391442"><ele>208.33333333333331</ele><time>2026-04-04T09:42:32.999Z</time></trkpt><trkpt lat="45.92119223374955" lon="9.288077809991679"><ele>206.16666666666666</ele><time>2026-04-04T09:42:33.999Z</time></trkpt><trkpt lat="45.92126871933192" lon="9.288012172661752"><ele>204.0</ele><time>2026-04-04T09:42:34.999Z</time></trkpt><trkpt lat="45.921342908478145" lon="9.287966599543706"><ele>207.5</ele><time>2026-04-04T09:42:35.999Z</time></trkpt><trkpt lat="45.92141331308366" lon="9.287922673273805"><ele>211.0</ele><time>2026-04-04T09:42:36.999Z</time></trkpt><trkpt lat="45.92148504386799" lon="9.287885884867674"><ele>214.5</ele><time>2026-04-04T09:42:37.999Z</time></trkpt><trkpt lat="45.921558549165454" lon="9.2878523697995"><ele>218.0</ele><time>2026-04-04T09:42:38.999Z</time></trkpt><trkpt lat="45.9216387487342" lon="9.287813757779821"><ele>221.5</ele><time>2026-04-04T09:42:39.999Z</time></trkpt><trkpt lat="45.921722841905925" lon="9.287776055116318"><ele>225.0</ele><time>2026-04-04T09:42:40.999Z</time></trkpt><trkpt lat="45.92181158314866" lon="9.287736712092963"><ele>225.0</ele><time>2026-04-04T09:42:41.999Z</time></trkpt><trkpt lat="45.92190263451939" lon="9.287694916631347"><ele>225.0</ele><time>2026-04-04T09:42:42.999Z</time></trkpt><trkpt lat="45.92200138416439" lon="9.287657641391268"><ele>225.0</ele><time>2026-04-04T09:42:43.999Z</time></trkpt><trkpt lat="45.9220961730055" lon="9.28762826221858"><ele>225.0</ele><time>2026-04-04T09:42:44.999Z</time></trkpt><trkpt lat="45.92218606119994" lon="9.287604355450734"><ele>225.0</ele><time>2026-04-04T09:42:45.999Z</time></trkpt><trkpt lat="45.92227250504108" lon="9.287589452528646"><ele>225.0</ele><time>2026-04-04T09:42:46.999Z</time></trkpt><trkpt lat="45.92235949218908" lon="9.287592271681527"><ele>225.0</ele><time>2026-04-04T09:42:47.999Z</time></trkpt><trkpt lat="45.92243908704632" lon="9.287599475305694"><ele>225.0</ele><time>2026-04-04T09:42:48.999Z</time></trkpt><trkpt lat="45.92252097334119" lon="9.287608871194552"><ele>225.0</ele><time>2026-04-04T09:42:49.999Z</time></trkpt><trkpt lat="45.922601147940505" lon="9.28761132564767"><ele>225.0</ele><time>2026-04-04T09:42:50.998Z</time></trkpt><trkpt lat="45.922670463623" lon="9.287607652137101"><ele>225.0</ele><time>2026-04-04T09:42:51.998Z</time></trkpt><trkpt lat="45.92274687942353" lon="9.287590884606695"><ele>222.5</ele><time>2026-04-04T09:42:52.998Z</time></trkpt><trkpt lat="45.92282548260301" lon="9.28755720420245"><ele>220.0</ele><time>2026-04-04T09:42:53.998Z</time></trkpt><trkpt lat="45.92290115531006" lon="9.287513147578233"><ele>217.5</ele><time>2026-04-04T09:42:54.998Z</time></trkpt><trkpt lat="45.92296692764433" lon="9.287473626809719"><ele>215.0</ele><time>2026-04-04T09:42:55.998Z</time></trkpt><trkpt lat="45.92302876517405" lon="9.287434164074904"><ele>212.5</ele><time>2026-04-04T09:42:56.998Z</time></trkpt><trkpt lat="45.923097505913965" lon="9.28739104383848"><ele>210.0</ele><time>2026-04-04T09:42:57.998Z</time></trkpt><trkpt lat="45.92316557959332" lon="9.287334867773003"><ele>209.5</ele><time>2026-04-04T09:42:59Z</time></trkpt><trkpt lat="45.92323583036513" lon="9.287257708357103"><ele>209.0</ele><time>2026-04-04T09:43:00Z</time></trkpt><trkpt lat="45.92331118835729" lon="9.287175002613294"><ele>208.5</ele><time>2026-04-04T09:43:01Z</time></trkpt><trkpt lat="45.923389524079504" lon="9.28709637151722"><ele>208.0</ele><time>2026-04-04T09:43:02Z</time></trkpt><trkpt lat="45.92345593409966" lon="9.28703387292648"><ele>207.5</ele><time>2026-04-04T09:43:03Z</time></trkpt><trkpt lat="45.923513568842914" lon="9.286978665218772"><ele>207.0</ele><time>2026-04-04T09:43:04Z</time></trkpt><trkpt lat="45.92357174936744" lon="9.286922872052836"><ele>207.0</ele><time>2026-04-04T09:43:05Z</time></trkpt><trkpt lat="45.92363560851717" lon="9.286860162351548"><ele>207.0</ele><time>2026-04-04T09:43:06Z</time></trkpt><trkpt lat="45.923707076361374" lon="9.2867876106424"><ele>207.0</ele><time>2026-04-04T09:43:07Z</time></trkpt><trkpt lat="45.92378077172233" lon="9.286702493955934"><ele>207.0</ele><time>2026-04-04T09:43:08Z</time></trkpt><trkpt lat="45.92384730152464" lon="9.286641162055732"><ele>207.0</ele><time>2026-04-04T09:43:09Z</time></trkpt><trkpt lat="45.92391395233215" lon="9.286579592828307"><ele>207.0</ele><time>2026-04-04T09:43:10Z</time></trkpt><trkpt lat="45.923985600708924" lon="9.286538892254432"><ele>207.0</ele><time>2026-04-04T09:43:11Z</time></trkpt><trkpt lat="45.9240505904361" lon="9.286504304469858"><ele>207.0</ele><time>2026-04-04T09:43:12Z</time></trkpt><trkpt lat="45.92411447915585" lon="9.286467592060163"><ele>207.0</ele><time>2026-04-04T09:43:13Z</time></trkpt><trkpt lat="45.92418211085934" lon="9.286429093073211"><ele>207.0</ele><time>2026-04-04T09:43:14Z</time></trkpt><trkpt lat="45.92424461012669" lon="9.286389997023504"><ele>207.0</ele><time>2026-04-04T09:43:15Z</time></trkpt><trkpt lat="45.92436072207803" lon="9.286313924765043"><ele>207.0</ele><time>2026-04-04T09:43:17Z</time></trkpt><trkpt lat="45.92442146371373" lon="9.286273379591389"><ele>207.66666666666666</ele><time>2026-04-04T09:43:18Z</time></trkpt><trkpt lat="45.92448465697295" lon="9.286231253261102"><ele>208.33333333333331</ele><time>2026-04-04T09:43:19Z</time></trkpt><trkpt lat="45.92455025712032" lon="9.286184468595636"><ele>209.0</ele><time>2026-04-04T09:43:20Z</time></trkpt><trkpt lat="45.924616400958726" lon="9.286144837726969"><ele>209.66666666666666</ele><time>2026-04-04T09:43:21Z</time></trkpt><trkpt lat="45.92468565376282" lon="9.286097926541004"><ele>210.33333333333331</ele><time>2026-04-04T09:43:22Z</time></trkpt><trkpt lat="45.92475799215635" lon="9.28604488537863"><ele>211.0</ele><time>2026-04-04T09:43:23Z</time></trkpt><trkpt lat="45.92484150083682" lon="9.285980860050376"><ele>210.99999999999997</ele><time>2026-04-04T09:43:24Z</time></trkpt><trkpt lat="45.92492327972186" lon="9.285909069388616"><ele>211.0</ele><time>2026-04-04T09:43:25Z</time></trkpt><trkpt lat="45.92499783044181" lon="9.285838281942317"><ele>211.0</ele><time>2026-04-04T09:43:26Z</time></trkpt><trkpt lat="45.925059988891064" lon="9.28576935576897"><ele>211.0</ele><time>2026-04-04T09:43:27Z</time></trkpt><trkpt lat="45.925125161958356" lon="9.285689196677033"><ele>210.99999999999997</ele><time>2026-04-04T09:43:28Z</time></trkpt><trkpt lat="45.92518911010159" lon="9.285610334046888"><ele>211.0</ele><time>2026-04-04T09:43:29Z</time></trkpt><trkpt lat="45.9252568548107" lon="9.285524359337145"><ele>212.0</ele><time>2026-04-04T09:43:30Z</time></trkpt><trkpt lat="45.92533237530638" lon="9.28545334940087"><ele>213.0</ele><time>2026-04-04T09:43:31Z</time></trkpt><trkpt lat="45.92541087984922" lon="9.285392537494719"><ele>214.00000000000003</ele><time>2026-04-04T09:43:32Z</time></trkpt><trkpt lat="45.92549799766117" lon="9.285339241892402"><ele>215.0</ele><time>2026-04-04T09:43:33Z</time></trkpt><trkpt lat="45.925588771546224" lon="9.285296035011655"><ele>216.0</ele><time>2026-04-04T09:43:34Z</time></trkpt><trkpt lat="45.92568732104241" lon="9.285253221448482"><ele>216.0</ele><time>2026-04-04T09:43:35Z</time></trkpt><trkpt lat="45.925794660775175" lon="9.28522241468252"><ele>216.0</ele><time>2026-04-04T09:43:36Z</time></trkpt><trkpt lat="45.92591383146098" lon="9.285212041966302"><ele>216.0</ele><time>2026-04-04T09:43:37Z</time></trkpt><trkpt lat="45.92603322242384" lon="9.28521975437682"><ele>216.0</ele><time>2026-04-04T09:43:38Z</time></trkpt><trkpt lat="45.926151078240274" lon="9.28525218358866"><ele>214.75</ele><time>2026-04-04T09:43:39Z</time></trkpt><trkpt lat="45.92626711207578" lon="9.285282890486176"><ele>213.5</ele><time>2026-04-04T09:43:40Z</time></trkpt><trkpt lat="45.92638264152979" lon="9.285308353953113"><ele>212.25</ele><time>2026-04-04T09:43:41Z</time></trkpt><trkpt lat="45.926499989689574" lon="9.285334637968818"><ele>211.0</ele><time>2026-04-04T09:43:42Z</time></trkpt><trkpt lat="45.92661380922428" lon="9.28535524550505"><ele>212.0</ele><time>2026-04-04T09:43:43Z</time></trkpt><trkpt lat="45.926732769181065" lon="9.285376709873745"><ele>213.0</ele><time>2026-04-04T09:43:44Z</time></trkpt><trkpt lat="45.92684725434517" lon="9.285394233227553"><ele>214.0</ele><time>2026-04-04T09:43:45Z</time></trkpt><trkpt lat="45.92695907316813" lon="9.285410651579586"><ele>215.0</ele><time>2026-04-04T09:43:46Z</time></trkpt><trkpt lat="45.92706188520189" lon="9.28542401255633"><ele>215.0</ele><time>2026-04-04T09:43:47Z</time></trkpt><trkpt lat="45.92716367069678" lon="9.285436856318295"><ele>215.0</ele><time>2026-04-04T09:43:48Z</time></trkpt><trkpt lat="45.927265288274114" lon="9.285454959721468"><ele>215.0</ele><time>2026-04-04T09:43:49Z</time></trkpt><trkpt lat="45.92736476274135" lon="9.285476464159808"><ele>215.0</ele><time>2026-04-04T09:43:50Z</time></trkpt><trkpt lat="45.9274539475392" lon="9.285490752015818"><ele>215.0</ele><time>2026-04-04T09:43:51Z</time></trkpt><trkpt lat="45.927542181680366" lon="9.285480402242467"><ele>214.2</ele><time>2026-04-04T09:43:51.999Z</time></trkpt><trkpt lat="45.92762093178558" lon="9.285466111117575"><ele>213.4</ele><time>2026-04-04T09:43:52.999Z</time></trkpt><trkpt lat="45.92769053922779" lon="9.285447788583326"><ele>212.60000000000002</ele><time>2026-04-04T09:43:53.999Z</time></trkpt><trkpt lat="45.92777271092214" lon="9.285419865712038"><ele>211.8</ele><time>2026-04-04T09:43:54.999Z</time></trkpt><trkpt lat="45.92787218859896" lon="9.285377396460788"><ele>211.0</ele><time>2026-04-04T09:43:55.999Z</time></trkpt><trkpt lat="45.9279814698159" lon="9.285317901521552"><ele>211.0</ele><time>2026-04-04T09:43:56.999Z</time></trkpt><trkpt lat="45.928089605082484" lon="9.285243678244804"><ele>211.0</ele><time>2026-04-04T09:43:57.999Z</time></trkpt><trkpt lat="45.92819274281179" lon="9.285155620276893"><ele>211.0</ele><time>2026-04-04T09:43:58.999Z</time></trkpt><trkpt lat="45.928305784575976" lon="9.285071526026915"><ele>211.0</ele><time>2026-04-04T09:43:59.999Z</time></trkpt><trkpt lat="45.92842439482686" lon="9.284983693308277"><ele>212.0</ele><time>2026-04-04T09:44:00.999Z</time></trkpt><trkpt lat="45.92852790707686" lon="9.284897853601253"><ele>213.0</ele><time>2026-04-04T09:44:01.999Z</time></trkpt><trkpt lat="45.92862493805032" lon="9.284810450190669"><ele>214.0</ele><time>2026-04-04T09:44:02.999Z</time></trkpt><trkpt lat="45.928721221157666" lon="9.284731669988833"><ele>215.0</ele><time>2026-04-04T09:44:03.999Z</time></trkpt><trkpt lat="45.928829420744734" lon="9.284676683078567"><ele>215.0</ele><time>2026-04-04T09:44:04.999Z</time></trkpt><trkpt lat="45.92894673919103" lon="9.284654493637024"><ele>215.0</ele><time>2026-04-04T09:44:05.999Z</time></trkpt><trkpt lat="45.92907102354213" lon="9.28463896290204"><ele>215.0</ele><time>2026-04-04T09:44:06.999Z</time></trkpt><trkpt lat="45.92919260971347" lon="9.284625051493185"><ele>215.0</ele><time>2026-04-04T09:44:07.999Z</time></trkpt><trkpt lat="45.92931404360904" lon="9.28462263993457"><ele>214.6</ele><time>2026-04-04T09:44:08.999Z</time></trkpt><trkpt lat="45.92942382933353" lon="9.28462145869969"><ele>214.2</ele><time>2026-04-04T09:44:09.999Z</time></trkpt><trkpt lat="45.92952470447947" lon="9.28461549898164"><ele>213.8</ele><time>2026-04-04T09:44:10.999Z</time></trkpt><trkpt lat="45.929619825242476" lon="9.28461180230187"><ele>213.4</ele><time>2026-04-04T09:44:11.999Z</time></trkpt><trkpt lat="45.92971882434897" lon="9.284600980877252"><ele>213.0</ele><time>2026-04-04T09:44:12.999Z</time></trkpt><trkpt lat="45.92981690582257" lon="9.28459206677681"><ele>213.0</ele><time>2026-04-04T09:44:13.999Z</time></trkpt><trkpt lat="45.92991568557992" lon="9.28457769999592"><ele>213.0</ele><time>2026-04-04T09:44:14.999Z</time></trkpt><trkpt lat="45.93001464950077" lon="9.284558286334128"><ele>213.0</ele><time>2026-04-04T09:44:15.999Z</time></trkpt><trkpt lat="45.93010891589168" lon="9.284517594423068"><ele>213.0</ele><time>2026-04-04T09:44:16.999Z</time></trkpt><trkpt lat="45.93019800759762" lon="9.284463685908687"><ele>213.0</ele><time>2026-04-04T09:44:17.999Z</time></trkpt><trkpt lat="45.930274213849025" lon="9.284406842664502"><ele>212.83333333333334</ele><time>2026-04-04T09:44:18.999Z</time></trkpt><trkpt lat="45.93035094680711" lon="9.284351028987059"><ele>212.66666666666669</ele><time>2026-04-04T09:44:19.999Z</time></trkpt><trkpt lat="45.930431089412195" lon="9.284292843192372"><ele>212.5</ele><time>2026-04-04T09:44:20.999Z</time></trkpt><trkpt lat="45.930508832600296" lon="9.284234793683321"><ele>212.33333333333334</ele><time>2026-04-04T09:44:21.999Z</time></trkpt><trkpt lat="45.9305821801553" lon="9.284170913286028"><ele>212.16666666666669</ele><time>2026-04-04T09:44:22.999Z</time></trkpt><trkpt lat="45.93066337288592" lon="9.284106290386715"><ele>212.0</ele><time>2026-04-04T09:44:23.999Z</time></trkpt><trkpt lat="45.930751067238944" lon="9.28404382309163"><ele>212.00000000000003</ele><time>2026-04-04T09:44:24.999Z</time></trkpt><trkpt lat="45.93084684002612" lon="9.283987150441428"><ele>212.0</ele><time>2026-04-04T09:44:25.999Z</time></trkpt><trkpt lat="45.93093235744366" lon="9.283941411852261"><ele>212.0</ele><time>2026-04-04T09:44:26.999Z</time></trkpt><trkpt lat="45.931008794708085" lon="9.283906205938433"><ele>212.0</ele><time>2026-04-04T09:44:27.999Z</time></trkpt><trkpt lat="45.93108036275021" lon="9.28387686727144"><ele>212.00000000000003</ele><time>2026-04-04T09:44:28.999Z</time></trkpt><trkpt lat="45.93115834437953" lon="9.283848046550846"><ele>212.0</ele><time>2026-04-04T09:44:29.999Z</time></trkpt><trkpt lat="45.93123987770559" lon="9.283811208795184"><ele>213.00000000000003</ele><time>2026-04-04T09:44:30.999Z</time></trkpt><trkpt lat="45.93132727564746" lon="9.283786756853283"><ele>214.0</ele><time>2026-04-04T09:44:31.999Z</time></trkpt><trkpt lat="45.931411977854935" lon="9.28375191475691"><ele>215.0</ele><time>2026-04-04T09:44:32.999Z</time></trkpt><trkpt lat="45.93150042419858" lon="9.283717037781726"><ele>216.0</ele><time>2026-04-04T09:44:33.999Z</time></trkpt><trkpt lat="45.931587624154155" lon="9.283722590157025"><ele>217.00000000000003</ele><time>2026-04-04T09:44:34.999Z</time></trkpt><trkpt lat="45.93167420030249" lon="9.283694933845911"><ele>218.0</ele><time>2026-04-04T09:44:35.999Z</time></trkpt><trkpt lat="45.931760823633745" lon="9.283729137004531"><ele>218.0</ele><time>2026-04-04T09:44:36.999Z</time></trkpt><trkpt lat="45.931855123190616" lon="9.283749135524452"><ele>218.0</ele><time>2026-04-04T09:44:37.999Z</time></trkpt><trkpt lat="45.931954538189665" lon="9.283773755188893"><ele>218.0</ele><time>2026-04-04T09:44:38.999Z</time></trkpt><trkpt lat="45.93206117959891" lon="9.28377538749047"><ele>218.0</ele><time>2026-04-04T09:44:39.999Z</time></trkpt><trkpt lat="45.932164749333545" lon="9.283798895388829"><ele>218.0</ele><time>2026-04-04T09:44:40.999Z</time></trkpt><trkpt lat="45.93226174784853" lon="9.283822998299442"><ele>218.00000000000003</ele><time>2026-04-04T09:44:41.999Z</time></trkpt><trkpt lat="45.93235348763691" lon="9.28384503736679"><ele>218.0</ele><time>2026-04-04T09:44:42.999Z</time></trkpt><trkpt lat="45.93244303731041" lon="9.283862535123314"><ele>218.0</ele><time>2026-04-04T09:44:43.999Z</time></trkpt><trkpt lat="45.93253062053554" lon="9.283867362179109"><ele>218.0</ele><time>2026-04-04T09:44:44.999Z</time></trkpt><trkpt lat="45.93262673883656" lon="9.283862986234473"><ele>218.00000000000003</ele><time>2026-04-04T09:44:45.999Z</time></trkpt><trkpt lat="45.93270723347599" lon="9.2838498051097"><ele>218.0</ele><time>2026-04-04T09:44:46.999Z</time></trkpt><trkpt lat="45.932777614355395" lon="9.283830942096401"><ele>217.14285714285714</ele><time>2026-04-04T09:44:47.999Z</time></trkpt><trkpt lat="45.93284695992966" lon="9.283818000993815"><ele>216.28571428571428</ele><time>2026-04-04T09:44:48.999Z</time></trkpt><trkpt lat="45.93291795195202" lon="9.283803134775532"><ele>215.42857142857144</ele><time>2026-04-04T09:44:49.999Z</time></trkpt><trkpt lat="45.93298694928012" lon="9.283795549851478"><ele>214.57142857142856</ele><time>2026-04-04T09:44:50.999Z</time></trkpt><trkpt lat="45.93305565891631" lon="9.283787230592694"><ele>213.7142857142857</ele><time>2026-04-04T09:44:51.999Z</time></trkpt><trkpt lat="45.93312994536384" lon="9.283779419521299"><ele>212.85714285714286</ele><time>2026-04-04T09:44:52.999Z</time></trkpt><trkpt lat="45.93320970924143" lon="9.283766438966053"><ele>212.0</ele><time>2026-04-04T09:44:53.999Z</time></trkpt><trkpt lat="45.933293427133435" lon="9.283745862365622"><ele>212.0</ele><time>2026-04-04T09:44:54.998Z</time></trkpt><trkpt lat="45.93337849864514" lon="9.283725996145522"><ele>212.0</ele><time>2026-04-04T09:44:55.998Z</time></trkpt><trkpt lat="45.93347333269131" lon="9.28370501692525"><ele>212.0</ele><time>2026-04-04T09:44:56.998Z</time></trkpt><trkpt lat="45.93357163314461" lon="9.28367222114657"><ele>212.0</ele><time>2026-04-04T09:44:57.998Z</time></trkpt><trkpt lat="45.933662128154985" lon="9.283611134104005"><ele>212.0</ele><time>2026-04-04T09:44:58.998Z</time></trkpt><trkpt lat="45.93376264871241" lon="9.283516264561253"><ele>212.0</ele><time>2026-04-04T09:44:59.998Z</time></trkpt><trkpt lat="45.93386356410268" lon="9.283409992658441"><ele>212.0</ele><time>2026-04-04T09:45:00.998Z</time></trkpt><trkpt lat="45.93396016759389" lon="9.2832997691618"><ele>212.0</ele><time>2026-04-04T09:45:01.998Z</time></trkpt><trkpt lat="45.93407019495518" lon="9.283173674457029"><ele>212.0</ele><time>2026-04-04T09:45:02.998Z</time></trkpt><trkpt lat="45.93417046634731" lon="9.28304771607495"><ele>212.0</ele><time>2026-04-04T09:45:03.998Z</time></trkpt><trkpt lat="45.934285101155766" lon="9.282930949044667"><ele>212.0</ele><time>2026-04-04T09:45:05Z</time></trkpt><trkpt lat="45.93440678409387" lon="9.282828312472532"><ele>212.0</ele><time>2026-04-04T09:45:06Z</time></trkpt><trkpt lat="45.93453126933943" lon="9.282731966091568"><ele>212.0</ele><time>2026-04-04T09:45:07Z</time></trkpt><trkpt lat="45.934661226284746" lon="9.282652568113798"><ele>212.0</ele><time>2026-04-04T09:45:08Z</time></trkpt><trkpt lat="45.93479949291161" lon="9.282590496077844"><ele>212.0</ele><time>2026-04-04T09:45:09Z</time></trkpt><trkpt lat="45.93494579094212" lon="9.282542431825114"><ele>212.0</ele><time>2026-04-04T09:45:10Z</time></trkpt><trkpt lat="45.935092177315184" lon="9.282515638952322"><ele>212.0</ele><time>2026-04-04T09:45:11Z</time></trkpt><trkpt lat="45.935214800448364" lon="9.282483403575094"><ele>211.2</ele><time>2026-04-04T09:45:12Z</time></trkpt><trkpt lat="45.93533228754004" lon="9.282454615309947"><ele>210.39999999999998</ele><time>2026-04-04T09:45:13Z</time></trkpt><trkpt lat="45.93544130543045" lon="9.282433170671466"><ele>209.60000000000002</ele><time>2026-04-04T09:45:14Z</time></trkpt><trkpt lat="45.935541640479855" lon="9.28241594958564"><ele>208.8</ele><time>2026-04-04T09:45:15Z</time></trkpt><trkpt lat="45.935639485295845" lon="9.28241252639796"><ele>208.0</ele><time>2026-04-04T09:45:16Z</time></trkpt><trkpt lat="45.93575478160729" lon="9.282431098745883"><ele>208.0</ele><time>2026-04-04T09:45:17Z</time></trkpt><trkpt lat="45.93588129891167" lon="9.282465846370576"><ele>208.0</ele><time>2026-04-04T09:45:18Z</time></trkpt><trkpt lat="45.93601418539525" lon="9.282490747161987"><ele>208.0</ele><time>2026-04-04T09:45:19Z</time></trkpt><trkpt lat="45.93615352681044" lon="9.282485399209248"><ele>208.0</ele><time>2026-04-04T09:45:20Z</time></trkpt><trkpt lat="45.93629706755247" lon="9.282431312634221"><ele>209.5</ele><time>2026-04-04T09:45:21Z</time></trkpt><trkpt lat="45.936419262123955" lon="9.282366522532294"><ele>211.0</ele><time>2026-04-04T09:45:22Z</time></trkpt><trkpt lat="45.936543697459804" lon="9.282315355091308"><ele>212.5</ele><time>2026-04-04T09:45:23Z</time></trkpt><trkpt lat="45.93667650710557" lon="9.282315328830054"><ele>214.0</ele><time>2026-04-04T09:45:24Z</time></trkpt><trkpt lat="45.93681444673404" lon="9.28230797379712"><ele>217.0</ele><time>2026-04-04T09:45:25Z</time></trkpt><trkpt lat="45.93694188407459" lon="9.282303840794574"><ele>220.0</ele><time>2026-04-04T09:45:26Z</time></trkpt><trkpt lat="45.93706064220869" lon="9.28230239647312"><ele>223.0</ele><time>2026-04-04T09:45:27Z</time></trkpt><trkpt lat="45.937176475152725" lon="9.282304216915502"><ele>226.0</ele><time>2026-04-04T09:45:28Z</time></trkpt><trkpt lat="45.93729136261086" lon="9.282309817187864"><ele>226.0</ele><time>2026-04-04T09:45:29Z</time></trkpt><trkpt lat="45.93741084717668" lon="9.282334439195022"><ele>226.0</ele><time>2026-04-04T09:45:30Z</time></trkpt><trkpt lat="45.93752580132159" lon="9.282355713254704"><ele>226.0</ele><time>2026-04-04T09:45:31Z</time></trkpt><trkpt lat="45.937633781559875" lon="9.282378714977328"><ele>226.0</ele><time>2026-04-04T09:45:32Z</time></trkpt><trkpt lat="45.93774662774621" lon="9.282399449808405"><ele>224.8</ele><time>2026-04-04T09:45:33Z</time></trkpt><trkpt lat="45.937862871629754" lon="9.2824138596977"><ele>223.60000000000002</ele><time>2026-04-04T09:45:34Z</time></trkpt><trkpt lat="45.93797230085068" lon="9.282424761328413"><ele>222.4</ele><time>2026-04-04T09:45:35Z</time></trkpt><trkpt lat="45.93806581533239" lon="9.282439969110234"><ele>221.2</ele><time>2026-04-04T09:45:36Z</time></trkpt><trkpt lat="45.938147117972456" lon="9.282446348502623"><ele>220.0</ele><time>2026-04-04T09:45:37Z</time></trkpt><trkpt lat="45.93821588311525" lon="9.28243874656433"><ele>219.99999999999997</ele><time>2026-04-04T09:45:38Z</time></trkpt><trkpt lat="45.93828403686607" lon="9.282404130912163"><ele>220.0</ele><time>2026-04-04T09:45:39Z</time></trkpt><trkpt lat="45.93834827182723" lon="9.282342955770071"><ele>220.0</ele><time>2026-04-04T09:45:40Z</time></trkpt><trkpt lat="45.938435175749945" lon="9.282291409611153"><ele>220.0</ele><time>2026-04-04T09:45:41Z</time></trkpt><trkpt lat="45.93851456193811" lon="9.28224351663136"><ele>219.99999999999997</ele><time>2026-04-04T09:45:42Z</time></trkpt><trkpt lat="45.9385859209776" lon="9.282221110534211"><ele>220.0</ele><time>2026-04-04T09:45:43Z</time></trkpt><trkpt lat="45.9387231332428" lon="9.282203557355038"><ele>233.6</ele><time>2026-04-04T09:45:45Z</time></trkpt><trkpt lat="45.93879657347686" lon="9.282222161675866"><ele>247.2</ele><time>2026-04-04T09:45:46Z</time></trkpt><trkpt lat="45.93889837959237" lon="9.282247935687755"><ele>260.8</ele><time>2026-04-04T09:45:47Z</time></trkpt><trkpt lat="45.938982251426395" lon="9.282240537870319"><ele>274.4</ele><time>2026-04-04T09:45:48Z</time></trkpt><trkpt lat="45.939087962323455" lon="9.282253751050176"><ele>288.0</ele><time>2026-04-04T09:45:49Z</time></trkpt><trkpt lat="45.93918547584716" lon="9.282244036894403"><ele>279.8333333333333</ele><time>2026-04-04T09:45:49.999Z</time></trkpt><trkpt lat="45.93928218696922" lon="9.282233542724992"><ele>271.6666666666667</ele><time>2026-04-04T09:45:50.999Z</time></trkpt><trkpt lat="45.93937713842308" lon="9.282224403907193"><ele>263.5</ele><time>2026-04-04T09:45:51.999Z</time></trkpt><trkpt lat="45.93945913227327" lon="9.282202791905855"><ele>255.33333333333334</ele><time>2026-04-04T09:45:52.999Z</time></trkpt><trkpt lat="45.93955083387509" lon="9.282198239377008"><ele>247.16666666666669</ele><time>2026-04-04T09:45:53.999Z</time></trkpt><trkpt lat="45.939624248680545" lon="9.282193108912047"><ele>239.0</ele><time>2026-04-04T09:45:54.999Z</time></trkpt><trkpt lat="45.93974564255843" lon="9.282178675340166"><ele>239.00000000000003</ele><time>2026-04-04T09:45:56.999Z</time></trkpt><trkpt lat="45.939815465261155" lon="9.282178248109805"><ele>239.0</ele><time>2026-04-04T09:45:57.999Z</time></trkpt><trkpt lat="45.93989127675297" lon="9.28218198344103"><ele>239.0</ele><time>2026-04-04T09:45:58.999Z</time></trkpt><trkpt lat="45.93996717294977" lon="9.282177582799783"><ele>239.0</ele><time>2026-04-04T09:45:59.999Z</time></trkpt><trkpt lat="45.94005627645635" lon="9.282176325820993"><ele>239.00000000000003</ele><time>2026-04-04T09:46:00.999Z</time></trkpt><trkpt lat="45.94013882835012" lon="9.282165297240688"><ele>239.0</ele><time>2026-04-04T09:46:01.999Z</time></trkpt><trkpt lat="45.94024362862344" lon="9.282154840701953"><ele>237.79999999999998</ele><time>2026-04-04T09:46:02.999Z</time></trkpt><trkpt lat="45.940356974783235" lon="9.282123319760629"><ele>236.59999999999997</ele><time>2026-04-04T09:46:03.999Z</time></trkpt><trkpt lat="45.940460688661204" lon="9.282068111612146"><ele>235.4</ele><time>2026-04-04T09:46:04.999Z</time></trkpt><trkpt lat="45.94053186424129" lon="9.282018322054842"><ele>234.2</ele><time>2026-04-04T09:46:05.999Z</time></trkpt><trkpt lat="45.94060213310603" lon="9.281971062756838"><ele>233.0</ele><time>2026-04-04T09:46:06.999Z</time></trkpt><trkpt lat="45.94068576675009" lon="9.281929388919282"><ele>233.0</ele><time>2026-04-04T09:46:07.999Z</time></trkpt><trkpt lat="45.940771872768224" lon="9.281886162006336"><ele>233.0</ele><time>2026-04-04T09:46:08.999Z</time></trkpt><trkpt lat="45.94085839543014" lon="9.281840321799882"><ele>233.0</ele><time>2026-04-04T09:46:09.999Z</time></trkpt><trkpt lat="45.94092180565812" lon="9.281764135418104"><ele>233.0</ele><time>2026-04-04T09:46:10.999Z</time></trkpt><trkpt lat="45.94100150653056" lon="9.281680197339433"><ele>233.0</ele><time>2026-04-04T09:46:11.999Z</time></trkpt><trkpt lat="45.94109749817704" lon="9.281582482678154"><ele>232.0</ele><time>2026-04-04T09:46:12.999Z</time></trkpt><trkpt lat="45.94119731428156" lon="9.281491393401089"><ele>231.0</ele><time>2026-04-04T09:46:13.999Z</time></trkpt><trkpt lat="45.941298041711505" lon="9.281396428506048"><ele>230.0</ele><time>2026-04-04T09:46:14.999Z</time></trkpt><trkpt lat="45.94140611721184" lon="9.281284001169272"><ele>229.0</ele><time>2026-04-04T09:46:15.999Z</time></trkpt><trkpt lat="45.94152098481852" lon="9.281180463734675"><ele>229.0</ele><time>2026-04-04T09:46:16.999Z</time></trkpt><trkpt lat="45.94164230526649" lon="9.281065754028228"><ele>229.0</ele><time>2026-04-04T09:46:17.999Z</time></trkpt><trkpt lat="45.941755998725654" lon="9.280954924831164"><ele>229.0</ele><time>2026-04-04T09:46:18.999Z</time></trkpt><trkpt lat="45.94186326559221" lon="9.280850103828822"><ele>229.0</ele><time>2026-04-04T09:46:19.999Z</time></trkpt><trkpt lat="45.94196316853115" lon="9.280757405688815"><ele>230.75</ele><time>2026-04-04T09:46:20.999Z</time></trkpt><trkpt lat="45.94206393711586" lon="9.280658298297618"><ele>232.5</ele><time>2026-04-04T09:46:21.999Z</time></trkpt><trkpt lat="45.94216258620708" lon="9.280568193930055"><ele>234.25</ele><time>2026-04-04T09:46:22.999Z</time></trkpt><trkpt lat="45.942257283193854" lon="9.280482819780312"><ele>236.0</ele><time>2026-04-04T09:46:23.999Z</time></trkpt><trkpt lat="45.94235879610607" lon="9.280394405349627"><ele>236.0</ele><time>2026-04-04T09:46:24.999Z</time></trkpt><trkpt lat="45.94245524196823" lon="9.280333913625048"><ele>236.00000000000003</ele><time>2026-04-04T09:46:25.999Z</time></trkpt><trkpt lat="45.94255881189264" lon="9.28028392980609"><ele>236.00000000000003</ele><time>2026-04-04T09:46:26.999Z</time></trkpt><trkpt lat="45.94265603532807" lon="9.280257546713115"><ele>236.0</ele><time>2026-04-04T09:46:27.999Z</time></trkpt><trkpt lat="45.942745926166936" lon="9.280233420514381"><ele>236.0</ele><time>2026-04-04T09:46:28.999Z</time></trkpt><trkpt lat="45.94282954031516" lon="9.28019418206181"><ele>236.8</ele><time>2026-04-04T09:46:29.999Z</time></trkpt><trkpt lat="45.94291827685801" lon="9.28012882355908"><ele>237.60000000000002</ele><time>2026-04-04T09:46:30.999Z</time></trkpt><trkpt lat="45.942997637280435" lon="9.28003775688564"><ele>238.4</ele><time>2026-04-04T09:46:31.999Z</time></trkpt><trkpt lat="45.94307358064505" lon="9.279926462557633"><ele>239.2</ele><time>2026-04-04T09:46:32.999Z</time></trkpt><trkpt lat="45.943145434620796" lon="9.279808087526028"><ele>240.0</ele><time>2026-04-04T09:46:33.999Z</time></trkpt><trkpt lat="45.9432096787946" lon="9.279688928229362"><ele>240.0</ele><time>2026-04-04T09:46:34.999Z</time></trkpt><trkpt lat="45.9432830444044" lon="9.279576726745749"><ele>240.0</ele><time>2026-04-04T09:46:35.999Z</time></trkpt><trkpt lat="45.94336432245971" lon="9.27948273188017"><ele>240.0</ele><time>2026-04-04T09:46:36.999Z</time></trkpt><trkpt lat="45.943461798262206" lon="9.279386927811204"><ele>240.0</ele><time>2026-04-04T09:46:37.999Z</time></trkpt><trkpt lat="45.94353280351199" lon="9.279289907493268"><ele>240.0</ele><time>2026-04-04T09:46:38.999Z</time></trkpt><trkpt lat="45.9436125484915" lon="9.279242649912536"><ele>240.0</ele><time>2026-04-04T09:46:39.999Z</time></trkpt><trkpt lat="45.94368524056486" lon="9.27917547950889"><ele>240.0</ele><time>2026-04-04T09:46:40.999Z</time></trkpt><trkpt lat="45.94376304319069" lon="9.279108588775758"><ele>240.0</ele><time>2026-04-04T09:46:41.999Z</time></trkpt><trkpt lat="45.94385482190467" lon="9.279045368771774"><ele>240.0</ele><time>2026-04-04T09:46:42.999Z</time></trkpt><trkpt lat="45.9439634368789" lon="9.279026258630074"><ele>240.0</ele><time>2026-04-04T09:46:43.999Z</time></trkpt><trkpt lat="45.94407437977078" lon="9.279015529054846"><ele>240.0</ele><time>2026-04-04T09:46:44.999Z</time></trkpt><trkpt lat="45.94418519796961" lon="9.27900309743153"><ele>240.0</ele><time>2026-04-04T09:46:45.999Z</time></trkpt><trkpt lat="45.94428112802633" lon="9.279000931352453"><ele>240.0</ele><time>2026-04-04T09:46:46.999Z</time></trkpt><trkpt lat="45.94437685354326" lon="9.27898552449959"><ele>240.0</ele><time>2026-04-04T09:46:47.999Z</time></trkpt><trkpt lat="45.94446111735787" lon="9.278979585157439"><ele>240.0</ele><time>2026-04-04T09:46:48.999Z</time></trkpt><trkpt lat="45.94455557001538" lon="9.278959358853408"><ele>239.2</ele><time>2026-04-04T09:46:49.999Z</time></trkpt><trkpt lat="45.94465830906569" lon="9.278953503921839"><ele>238.4</ele><time>2026-04-04T09:46:50.998Z</time></trkpt><trkpt lat="45.944762025465145" lon="9.278937684122807"><ele>237.60000000000002</ele><time>2026-04-04T09:46:51.998Z</time></trkpt><trkpt lat="45.944861885168" lon="9.278919598838234"><ele>236.8</ele><time>2026-04-04T09:46:52.998Z</time></trkpt><trkpt lat="45.94496166177259" lon="9.278901786079265"><ele>236.0</ele><time>2026-04-04T09:46:53.998Z</time></trkpt><trkpt lat="45.94506975890182" lon="9.278881080907292"><ele>236.0</ele><time>2026-04-04T09:46:54.998Z</time></trkpt><trkpt lat="45.94519211290599" lon="9.27886822416953"><ele>236.0</ele><time>2026-04-04T09:46:55.998Z</time></trkpt><trkpt lat="45.94530887659551" lon="9.27882567226248"><ele>236.0</ele><time>2026-04-04T09:46:56.998Z</time></trkpt><trkpt lat="45.94541873549988" lon="9.278764943741175"><ele>236.0</ele><time>2026-04-04T09:46:57.998Z</time></trkpt><trkpt lat="45.945525579065006" lon="9.2786865403723"><ele>236.0</ele><time>2026-04-04T09:46:58.998Z</time></trkpt><trkpt lat="45.94563857199915" lon="9.278639763951581"><ele>236.00000000000003</ele><time>2026-04-04T09:46:59.998Z</time></trkpt><trkpt lat="45.94575380817709" lon="9.27859564486788"><ele>236.00000000000003</ele><time>2026-04-04T09:47:00.998Z</time></trkpt><trkpt lat="45.94586185644042" lon="9.278593082890515"><ele>236.0</ele><time>2026-04-04T09:47:01.998Z</time></trkpt><trkpt lat="45.945964367415975" lon="9.278573414581363"><ele>236.0</ele><time>2026-04-04T09:47:02.998Z</time></trkpt><trkpt lat="45.94606593442633" lon="9.278565370859098"><ele>235.4</ele><time>2026-04-04T09:47:03.998Z</time></trkpt><trkpt lat="45.94617410891163" lon="9.278525104160227"><ele>234.8</ele><time>2026-04-04T09:47:04.998Z</time></trkpt><trkpt lat="45.94629354495476" lon="9.278468991105767"><ele>234.20000000000002</ele><time>2026-04-04T09:47:05.998Z</time></trkpt><trkpt lat="45.94639147359748" lon="9.278429490825076"><ele>233.60000000000002</ele><time>2026-04-04T09:47:06.998Z</time></trkpt><trkpt lat="45.946479232824615" lon="9.278398977643318"><ele>233.0</ele><time>2026-04-04T09:47:07.998Z</time></trkpt><trkpt lat="45.946564079664086" lon="9.278383823189092"><ele>233.00000000000003</ele><time>2026-04-04T09:47:08.998Z</time></trkpt><trkpt lat="45.94664246158658" lon="9.278349485683675"><ele>233.0</ele><time>2026-04-04T09:47:09.998Z</time></trkpt><trkpt lat="45.94671897611536" lon="9.278276454269061"><ele>233.0</ele><time>2026-04-04T09:47:11Z</time></trkpt><trkpt lat="45.94677679083601" lon="9.278166149849868"><ele>233.0</ele><time>2026-04-04T09:47:12Z</time></trkpt><trkpt lat="45.94682500712343" lon="9.278061213153496"><ele>233.00000000000003</ele><time>2026-04-04T09:47:13Z</time></trkpt><trkpt lat="45.94689164226901" lon="9.277984109770815"><ele>233.0</ele><time>2026-04-04T09:47:14Z</time></trkpt><trkpt lat="45.94697182128878" lon="9.277927432000151"><ele>237.60000000000002</ele><time>2026-04-04T09:47:15Z</time></trkpt><trkpt lat="45.94705026910562" lon="9.277884351695711"><ele>242.20000000000002</ele><time>2026-04-04T09:47:16Z</time></trkpt><trkpt lat="45.94714291362015" lon="9.277875954179203"><ele>246.8</ele><time>2026-04-04T09:47:17Z</time></trkpt><trkpt lat="45.947242008413944" lon="9.277879879574357"><ele>251.4</ele><time>2026-04-04T09:47:18Z</time></trkpt><trkpt lat="45.94733203384681" lon="9.277885598858575"><ele>256.0</ele><time>2026-04-04T09:47:19Z</time></trkpt><trkpt lat="45.94742090698943" lon="9.277888354116037"><ele>256.0</ele><time>2026-04-04T09:47:20Z</time></trkpt><trkpt lat="45.94749752580921" lon="9.277896533423359"><ele>256.0</ele><time>2026-04-04T09:47:21Z</time></trkpt><trkpt lat="45.947573422721746" lon="9.277909885046919"><ele>256.0</ele><time>2026-04-04T09:47:22Z</time></trkpt><trkpt lat="45.947662143681" lon="9.277911369015778"><ele>256.0</ele><time>2026-04-04T09:47:23Z</time></trkpt><trkpt lat="45.947761492777225" lon="9.277889175435911"><ele>256.0</ele><time>2026-04-04T09:47:24Z</time></trkpt><trkpt lat="45.947862638765365" lon="9.277834286717239"><ele>251.99999999999997</ele><time>2026-04-04T09:47:25Z</time></trkpt><trkpt lat="45.94796081156359" lon="9.277789145259389"><ele>248.0</ele><time>2026-04-04T09:47:26Z</time></trkpt><trkpt lat="45.94804243240628" lon="9.277738513531233"><ele>244.0</ele><time>2026-04-04T09:47:27Z</time></trkpt><trkpt lat="45.94811074742079" lon="9.277658764757827"><ele>240.0</ele><time>2026-04-04T09:47:28Z</time></trkpt><trkpt lat="45.948169052201905" lon="9.277572560029109"><ele>235.99999999999997</ele><time>2026-04-04T09:47:29Z</time></trkpt><trkpt lat="45.94824886564172" lon="9.277532076498144"><ele>232.0</ele><time>2026-04-04T09:47:30Z</time></trkpt><trkpt lat="45.94833484249458" lon="9.277551923738889"><ele>229.6</ele><time>2026-04-04T09:47:31Z</time></trkpt><trkpt lat="45.94842259074052" lon="9.277585356997536"><ele>227.2</ele><time>2026-04-04T09:47:32Z</time></trkpt><trkpt lat="45.948514979526784" lon="9.277600249524856"><ele>224.8</ele><time>2026-04-04T09:47:33Z</time></trkpt><trkpt lat="45.94861501793834" lon="9.27760843253848"><ele>222.4</ele><time>2026-04-04T09:47:34Z</time></trkpt><trkpt lat="45.948710788664755" lon="9.277617791650648"><ele>220.0</ele><time>2026-04-04T09:47:35Z</time></trkpt><trkpt lat="45.94879630742521" lon="9.277629269751323"><ele>220.0</ele><time>2026-04-04T09:47:36Z</time></trkpt><trkpt lat="45.94888588668459" lon="9.27761065914973"><ele>220.0</ele><time>2026-04-04T09:47:37Z</time></trkpt><trkpt lat="45.94897467640509" lon="9.277583504622642"><ele>220.0</ele><time>2026-04-04T09:47:38Z</time></trkpt><trkpt lat="45.94905722942495" lon="9.277554571004138"><ele>220.0</ele><time>2026-04-04T09:47:39Z</time></trkpt><trkpt lat="45.94918576447152" lon="9.277483318616667"><ele>220.0</ele><time>2026-04-04T09:47:40Z</time></trkpt><trkpt lat="45.949347085531926" lon="9.277369323330959"><ele>227.66666666666666</ele><time>2026-04-04T09:47:41Z</time></trkpt><trkpt lat="45.94951754579211" lon="9.27722172238981"><ele>235.33333333333331</ele><time>2026-04-04T09:47:42Z</time></trkpt><trkpt lat="45.949681902099684" lon="9.277135184816508"><ele>243.0</ele><time>2026-04-04T09:47:43Z</time></trkpt><trkpt lat="45.94983265430969" lon="9.27710559017058"><ele>243.0</ele><time>2026-04-04T09:47:44Z</time></trkpt><trkpt lat="45.94999072010543" lon="9.27707817948391"><ele>243.0</ele><time>2026-04-04T09:47:45Z</time></trkpt><trkpt lat="45.950142880642574" lon="9.277064014738247"><ele>243.0</ele><time>2026-04-04T09:47:46Z</time></trkpt><trkpt lat="45.95030276424747" lon="9.277043957919036"><ele>236.0</ele><time>2026-04-04T09:47:47Z</time></trkpt><trkpt lat="45.950451065171386" lon="9.276993838831137"><ele>229.0</ele><time>2026-04-04T09:47:48Z</time></trkpt><trkpt lat="45.95059953726179" lon="9.27692491902241"><ele>222.0</ele><time>2026-04-04T09:47:49Z</time></trkpt><trkpt lat="45.95074689829501" lon="9.27683255365146"><ele>218.33333333333331</ele><time>2026-04-04T09:47:50Z</time></trkpt><trkpt lat="45.95088648198999" lon="9.276722631761407"><ele>214.66666666666666</ele><time>2026-04-04T09:47:50.999Z</time></trkpt><trkpt lat="45.95101674942398" lon="9.276587430114397"><ele>211.0</ele><time>2026-04-04T09:47:51.999Z</time></trkpt><trkpt lat="45.95114733172543" lon="9.276450595232678"><ele>217.0</ele><time>2026-04-04T09:47:52.999Z</time></trkpt><trkpt lat="45.951295534214296" lon="9.27640719697908"><ele>223.0</ele><time>2026-04-04T09:47:53.999Z</time></trkpt><trkpt lat="45.95145452572322" lon="9.276332487221081"><ele>229.0</ele><time>2026-04-04T09:47:54.999Z</time></trkpt><trkpt lat="45.95161590022081" lon="9.276260623902884"><ele>222.66666666666666</ele><time>2026-04-04T09:47:55.999Z</time></trkpt><trkpt lat="45.95177905886573" lon="9.276174747565149"><ele>216.33333333333331</ele><time>2026-04-04T09:47:56.999Z</time></trkpt><trkpt lat="45.95193784094566" lon="9.276085579011665"><ele>210.0</ele><time>2026-04-04T09:47:57.999Z</time></trkpt><trkpt lat="45.95209126350284" lon="9.275981470434733"><ele>210.0</ele><time>2026-04-04T09:47:58.999Z</time></trkpt><trkpt lat="45.95223313160132" lon="9.275888249053573"><ele>210.0</ele><time>2026-04-04T09:47:59.999Z</time></trkpt><trkpt lat="45.95236020118903" lon="9.275797328840765"><ele>210.0</ele><time>2026-04-04T09:48:00.999Z</time></trkpt><trkpt lat="45.952473747954556" lon="9.275696692938784"><ele>210.0</ele><time>2026-04-04T09:48:01.999Z</time></trkpt><trkpt lat="45.952596504837146" lon="9.275599265915021"><ele>212.75</ele><time>2026-04-04T09:48:02.999Z</time></trkpt><trkpt lat="45.95272837493201" lon="9.275581942636457"><ele>215.5</ele><time>2026-04-04T09:48:03.999Z</time></trkpt><trkpt lat="45.95286479718676" lon="9.275548138349231"><ele>218.25</ele><time>2026-04-04T09:48:04.999Z</time></trkpt><trkpt lat="45.952983847048806" lon="9.275523166904923"><ele>221.0</ele><time>2026-04-04T09:48:05.999Z</time></trkpt><trkpt lat="45.95308873426983" lon="9.27547327806901"><ele>221.0</ele><time>2026-04-04T09:48:06.999Z</time></trkpt><trkpt lat="45.95318118305082" lon="9.275421908962912"><ele>221.00000000000003</ele><time>2026-04-04T09:48:07.999Z</time></trkpt><trkpt lat="45.95327651218498" lon="9.275369139951023"><ele>221.00000000000003</ele><time>2026-04-04T09:48:08.999Z</time></trkpt><trkpt lat="45.95338013876738" lon="9.275311706018908"><ele>221.0</ele><time>2026-04-04T09:48:09.999Z</time></trkpt><trkpt lat="45.953489164354174" lon="9.275246475660254"><ele>221.0</ele><time>2026-04-04T09:48:10.999Z</time></trkpt><trkpt lat="45.95362138146772" lon="9.275182355346242"><ele>219.75</ele><time>2026-04-04T09:48:11.999Z</time></trkpt><trkpt lat="45.953754243008504" lon="9.275119639694909"><ele>218.5</ele><time>2026-04-04T09:48:12.999Z</time></trkpt><trkpt lat="45.95388976931851" lon="9.275050834721812"><ele>217.25</ele><time>2026-04-04T09:48:13.999Z</time></trkpt><trkpt lat="45.95402253934444" lon="9.27498233087508"><ele>216.0</ele><time>2026-04-04T09:48:14.999Z</time></trkpt><trkpt lat="45.95414599471941" lon="9.274891503954334"><ele>215.5</ele><time>2026-04-04T09:48:15.999Z</time></trkpt><trkpt lat="45.954269218532744" lon="9.274786441964473"><ele>215.0</ele><time>2026-04-04T09:48:16.999Z</time></trkpt><trkpt lat="45.95438565420589" lon="9.274658690975164"><ele>214.5</ele><time>2026-04-04T09:48:17.999Z</time></trkpt><trkpt lat="45.95450124417006" lon="9.274524368814824"><ele>214.0</ele><time>2026-04-04T09:48:18.999Z</time></trkpt><trkpt lat="45.95460949129611" lon="9.274377410434226"><ele>214.0</ele><time>2026-04-04T09:48:19.999Z</time></trkpt><trkpt lat="45.9547108828375" lon="9.274221944105618"><ele>214.0</ele><time>2026-04-04T09:48:20.999Z</time></trkpt><trkpt lat="45.954805686310166" lon="9.274054709333893"><ele>214.0</ele><time>2026-04-04T09:48:21.999Z</time></trkpt><trkpt lat="45.95489356515552" lon="9.273886736969855"><ele>214.0</ele><time>2026-04-04T09:48:22.999Z</time></trkpt><trkpt lat="45.95497651089731" lon="9.273667192173967"><ele>213.66666666666666</ele><time>2026-04-04T09:48:23.999Z</time></trkpt><trkpt lat="45.9550564364958" lon="9.273474695389279"><ele>213.33333333333331</ele><time>2026-04-04T09:48:24.999Z</time></trkpt><trkpt lat="45.95514594910363" lon="9.27328625463146"><ele>213.0</ele><time>2026-04-04T09:48:25.999Z</time></trkpt><trkpt lat="45.95523519362207" lon="9.273097798701398"><ele>213.0</ele><time>2026-04-04T09:48:26.999Z</time></trkpt><trkpt lat="45.95531767060397" lon="9.272918854169442"><ele>213.0</ele><time>2026-04-04T09:48:27.999Z</time></trkpt><trkpt lat="45.955389478625484" lon="9.27275451432745"><ele>213.0</ele><time>2026-04-04T09:48:28.999Z</time></trkpt><trkpt lat="45.95545652516103" lon="9.272616029472275"><ele>213.0</ele><time>2026-04-04T09:48:29.999Z</time></trkpt><trkpt lat="45.95551743836807" lon="9.272476722194227"><ele>213.0</ele><time>2026-04-04T09:48:30.999Z</time></trkpt><trkpt lat="45.955572972112954" lon="9.272345418905072"><ele>213.0</ele><time>2026-04-04T09:48:31.999Z</time></trkpt><trkpt lat="45.955617151541524" lon="9.272193931378077"><ele>213.0</ele><time>2026-04-04T09:48:32.999Z</time></trkpt><trkpt lat="45.9556313208569" lon="9.27201853801149"><ele>213.0</ele><time>2026-04-04T09:48:33.999Z</time></trkpt><trkpt lat="45.95563509016694" lon="9.271843646378002"><ele>214.60000000000002</ele><time>2026-04-04T09:48:34.999Z</time></trkpt><trkpt lat="45.955636280641684" lon="9.271681863985005"><ele>216.20000000000002</ele><time>2026-04-04T09:48:35.999Z</time></trkpt><trkpt lat="45.95567965655202" lon="9.27155148240977"><ele>217.8</ele><time>2026-04-04T09:48:36.999Z</time></trkpt><trkpt lat="45.95572832615093" lon="9.271437238605076"><ele>219.4</ele><time>2026-04-04T09:48:37.999Z</time></trkpt><trkpt lat="45.95580230832589" lon="9.271325997587022"><ele>221.0</ele><time>2026-04-04T09:48:38.999Z</time></trkpt><trkpt lat="45.95589555498116" lon="9.271209053935545"><ele>221.75</ele><time>2026-04-04T09:48:39.999Z</time></trkpt><trkpt lat="45.95598458429787" lon="9.271079456557324"><ele>222.5</ele><time>2026-04-04T09:48:40.999Z</time></trkpt><trkpt lat="45.95609055544365" lon="9.270960455156121"><ele>223.25</ele><time>2026-04-04T09:48:41.999Z</time></trkpt><trkpt lat="45.956185856045025" lon="9.27083324206146"><ele>224.0</ele><time>2026-04-04T09:48:42.999Z</time></trkpt><trkpt lat="45.95627783963326" lon="9.270705497532312"><ele>227.39999999999998</ele><time>2026-04-04T09:48:43.999Z</time></trkpt><trkpt lat="45.956352851771086" lon="9.270539125616281"><ele>230.79999999999998</ele><time>2026-04-04T09:48:44.999Z</time></trkpt><trkpt lat="45.956398892439694" lon="9.270375655829847"><ele>234.20000000000002</ele><time>2026-04-04T09:48:45.999Z</time></trkpt><trkpt lat="45.956434518529555" lon="9.27023888882378"><ele>237.60000000000002</ele><time>2026-04-04T09:48:46.999Z</time></trkpt><trkpt lat="45.95646908802021" lon="9.270125884988104"><ele>241.0</ele><time>2026-04-04T09:48:47.999Z</time></trkpt><trkpt lat="45.956519469816826" lon="9.27001598631925"><ele>241.0</ele><time>2026-04-04T09:48:48.999Z</time></trkpt><trkpt lat="45.9566034033199" lon="9.26992809663192"><ele>241.0</ele><time>2026-04-04T09:48:49.999Z</time></trkpt><trkpt lat="45.95672243346641" lon="9.269902702135727"><ele>241.0</ele><time>2026-04-04T09:48:50.999Z</time></trkpt><trkpt lat="45.95683424767192" lon="9.269851588973516"><ele>241.0</ele><time>2026-04-04T09:48:51.999Z</time></trkpt><trkpt lat="45.95696151479402" lon="9.26985790638433"><ele>238.5</ele><time>2026-04-04T09:48:52.999Z</time></trkpt><trkpt lat="45.957089498076876" lon="9.269876066505246"><ele>236.0</ele><time>2026-04-04T09:48:53.998Z</time></trkpt><trkpt lat="45.95721896998791" lon="9.269869061563245"><ele>233.5</ele><time>2026-04-04T09:48:54.998Z</time></trkpt><trkpt lat="45.95736504809752" lon="9.269830622354313"><ele>231.0</ele><time>2026-04-04T09:48:55.998Z</time></trkpt><trkpt lat="45.95751903767027" lon="9.269789005701622"><ele>234.25</ele><time>2026-04-04T09:48:56.998Z</time></trkpt><trkpt lat="45.95767091632096" lon="9.269766725312891"><ele>237.5</ele><time>2026-04-04T09:48:57.998Z</time></trkpt><trkpt lat="45.95779926648797" lon="9.269755456713604"><ele>240.75</ele><time>2026-04-04T09:48:58.998Z</time></trkpt><trkpt lat="45.95791287612997" lon="9.26974809956563"><ele>244.0</ele><time>2026-04-04T09:48:59.998Z</time></trkpt><trkpt lat="45.95802096758777" lon="9.26973325502942"><ele>244.0</ele><time>2026-04-04T09:49:00.998Z</time></trkpt><trkpt lat="45.958130753575354" lon="9.269708435485468"><ele>243.99999999999997</ele><time>2026-04-04T09:49:01.998Z</time></trkpt><trkpt lat="45.95823947730711" lon="9.269659924947986"><ele>243.99999999999997</ele><time>2026-04-04T09:49:02.998Z</time></trkpt><trkpt lat="45.9583404883437" lon="9.269601921960387"><ele>244.0</ele><time>2026-04-04T09:49:03.998Z</time></trkpt><trkpt lat="45.958420494041924" lon="9.269521714458568"><ele>244.0</ele><time>2026-04-04T09:49:04.998Z</time></trkpt><trkpt lat="45.958495468569296" lon="9.269429253059501"><ele>241.0</ele><time>2026-04-04T09:49:05.998Z</time></trkpt><trkpt lat="45.95857894663922" lon="9.269338564780618"><ele>237.99999999999997</ele><time>2026-04-04T09:49:06.998Z</time></trkpt><trkpt lat="45.95867175599142" lon="9.269248678809047"><ele>234.99999999999997</ele><time>2026-04-04T09:49:07.998Z</time></trkpt><trkpt lat="45.95875442771293" lon="9.269165978206695"><ele>232.0</ele><time>2026-04-04T09:49:08.998Z</time></trkpt><trkpt lat="45.95882950709354" lon="9.269103685957711"><ele>229.0</ele><time>2026-04-04T09:49:09.998Z</time></trkpt><trkpt lat="45.95889594835503" lon="9.26903127189729"><ele>229.0</ele><time>2026-04-04T09:49:10.998Z</time></trkpt><trkpt lat="45.95896259650535" lon="9.268961209558308"><ele>228.99999999999997</ele><time>2026-04-04T09:49:11.998Z</time></trkpt><trkpt lat="45.95903663946943" lon="9.268886828175615"><ele>228.99999999999997</ele><time>2026-04-04T09:49:12.998Z</time></trkpt><trkpt lat="45.95911381788158" lon="9.268803755195574"><ele>229.0</ele><time>2026-04-04T09:49:13.998Z</time></trkpt><trkpt lat="45.959182122608084" lon="9.26871561300885"><ele>229.0</ele><time>2026-04-04T09:49:14.998Z</time></trkpt><trkpt lat="45.95922644675358" lon="9.268599678156015"><ele>227.0</ele><time>2026-04-04T09:49:15.998Z</time></trkpt><trkpt lat="45.959270905497675" lon="9.268456053894703"><ele>224.99999999999997</ele><time>2026-04-04T09:49:17Z</time></trkpt><trkpt lat="45.95930559125551" lon="9.268323143506645"><ele>222.99999999999997</ele><time>2026-04-04T09:49:18Z</time></trkpt><trkpt lat="45.95933454148352" lon="9.268194998349843"><ele>221.0</ele><time>2026-04-04T09:49:19Z</time></trkpt><trkpt lat="45.959363908302805" lon="9.268062714107096"><ele>219.0</ele><time>2026-04-04T09:49:20Z</time></trkpt><trkpt lat="45.95941004424544" lon="9.267943069680385"><ele>219.0</ele><time>2026-04-04T09:49:21Z</time></trkpt><trkpt lat="45.95948935559627" lon="9.267865800686772"><ele>218.99999999999997</ele><time>2026-04-04T09:49:22Z</time></trkpt><trkpt lat="45.95957713233936" lon="9.267796175213046"><ele>218.99999999999997</ele><time>2026-04-04T09:49:23Z</time></trkpt><trkpt lat="45.95965271838094" lon="9.26770246424521"><ele>219.0</ele><time>2026-04-04T09:49:24Z</time></trkpt><trkpt lat="45.95971243899196" lon="9.267576595016909"><ele>219.0</ele><time>2026-04-04T09:49:25Z</time></trkpt><trkpt lat="45.95975566090998" lon="9.26745003338518"><ele>219.0</ele><time>2026-04-04T09:49:26Z</time></trkpt><trkpt lat="45.95980496902628" lon="9.267329499837093"><ele>219.0</ele><time>2026-04-04T09:49:27Z</time></trkpt><trkpt lat="45.95984790089644" lon="9.267222090021814"><ele>219.0</ele><time>2026-04-04T09:49:28Z</time></trkpt><trkpt lat="45.95987315184061" lon="9.26710301175886"><ele>219.0</ele><time>2026-04-04T09:49:29Z</time></trkpt><trkpt lat="45.95988310132697" lon="9.266975692282037"><ele>219.0</ele><time>2026-04-04T09:49:30Z</time></trkpt><trkpt lat="45.95988244907224" lon="9.266852412827296"><ele>219.0</ele><time>2026-04-04T09:49:31Z</time></trkpt><trkpt lat="45.95988186503325" lon="9.266736204245275"><ele>220.33333333333334</ele><time>2026-04-04T09:49:32Z</time></trkpt><trkpt lat="45.95989304449109" lon="9.266612742968684"><ele>221.66666666666669</ele><time>2026-04-04T09:49:33Z</time></trkpt><trkpt lat="45.959894663232426" lon="9.26649689805601"><ele>223.0</ele><time>2026-04-04T09:49:34Z</time></trkpt><trkpt lat="45.959906404852156" lon="9.266392514684801"><ele>224.33333333333334</ele><time>2026-04-04T09:49:35Z</time></trkpt><trkpt lat="45.959928001338355" lon="9.266289946152675"><ele>225.66666666666669</ele><time>2026-04-04T09:49:36Z</time></trkpt><trkpt lat="45.95996093578848" lon="9.266203332969685"><ele>227.0</ele><time>2026-04-04T09:49:37Z</time></trkpt><trkpt lat="45.96003254139468" lon="9.2661594868854"><ele>227.0</ele><time>2026-04-04T09:49:38Z</time></trkpt><trkpt lat="45.96011245222538" lon="9.266148440924793"><ele>227.0</ele><time>2026-04-04T09:49:39Z</time></trkpt><trkpt lat="45.96020102084425" lon="9.266161175091076"><ele>227.0</ele><time>2026-04-04T09:49:40Z</time></trkpt><trkpt lat="45.960296899968576" lon="9.266176439200464"><ele>227.0</ele><time>2026-04-04T09:49:41Z</time></trkpt><trkpt lat="45.96039544028298" lon="9.26617205641965"><ele>227.0</ele><time>2026-04-04T09:49:42Z</time></trkpt><trkpt lat="45.96048897289273" lon="9.266152729781817"><ele>227.0</ele><time>2026-04-04T09:49:43Z</time></trkpt><trkpt lat="45.9605863902963" lon="9.266126400053997"><ele>227.0</ele><time>2026-04-04T09:49:44Z</time></trkpt><trkpt lat="45.96068341242883" lon="9.266087909912125"><ele>227.0</ele><time>2026-04-04T09:49:45Z</time></trkpt><trkpt lat="45.96078111117465" lon="9.266047396002024"><ele>227.0</ele><time>2026-04-04T09:49:46Z</time></trkpt><trkpt lat="45.960877885728735" lon="9.266003019488595"><ele>227.0</ele><time>2026-04-04T09:49:47Z</time></trkpt><trkpt lat="45.96097783940402" lon="9.265950231393758"><ele>225.39999999999998</ele><time>2026-04-04T09:49:48Z</time></trkpt><trkpt lat="45.96108562763265" lon="9.265899531136617"><ele>223.79999999999998</ele><time>2026-04-04T09:49:49Z</time></trkpt><trkpt lat="45.96119485472376" lon="9.265848092561134"><ele>222.2</ele><time>2026-04-04T09:49:50Z</time></trkpt><trkpt lat="45.96129184589444" lon="9.26579833139918"><ele>220.6</ele><time>2026-04-04T09:49:51Z</time></trkpt><trkpt lat="45.96138354595421" lon="9.26576285106958"><ele>219.0</ele><time>2026-04-04T09:49:52Z</time></trkpt><trkpt lat="45.961470171285114" lon="9.26573686349964"><ele>219.0</ele><time>2026-04-04T09:49:53Z</time></trkpt><trkpt lat="45.96156492670278" lon="9.265738002391549"><ele>218.99999999999997</ele><time>2026-04-04T09:49:54Z</time></trkpt><trkpt lat="45.96166486768094" lon="9.265765248255017"><ele>218.99999999999997</ele><time>2026-04-04T09:49:55Z</time></trkpt><trkpt lat="45.96176320156574" lon="9.265800876194534"><ele>219.0</ele><time>2026-04-04T09:49:56Z</time></trkpt><trkpt lat="45.961858635331204" lon="9.265829341016842"><ele>219.0</ele><time>2026-04-04T09:49:57Z</time></trkpt><trkpt lat="45.961946766476075" lon="9.265848917629393"><ele>220.2</ele><time>2026-04-04T09:49:58Z</time></trkpt><trkpt lat="45.96202942410087" lon="9.265833220338452"><ele>221.39999999999998</ele><time>2026-04-04T09:49:58.999Z</time></trkpt><trkpt lat="45.96211078494756" lon="9.265778001705348"><ele>222.6</ele><time>2026-04-04T09:49:59.999Z</time></trkpt><trkpt lat="45.96219209416963" lon="9.265708205960017"><ele>223.8</ele><time>2026-04-04T09:50:00.999Z</time></trkpt><trkpt lat="45.96228011072694" lon="9.265665132553613"><ele>225.0</ele><time>2026-04-04T09:50:01.999Z</time></trkpt><trkpt lat="45.96237747815483" lon="9.265636080464258"><ele>225.0</ele><time>2026-04-04T09:50:02.999Z</time></trkpt><trkpt lat="45.96248226434791" lon="9.265632080186816"><ele>225.0</ele><time>2026-04-04T09:50:03.999Z</time></trkpt><trkpt lat="45.96259885682452" lon="9.265642451225798"><ele>225.0</ele><time>2026-04-04T09:50:04.999Z</time></trkpt><trkpt lat="45.96273961666594" lon="9.265659733823798"><ele>225.0</ele><time>2026-04-04T09:50:05.999Z</time></trkpt><trkpt lat="45.96289153164983" lon="9.265679643812135"><ele>225.66666666666669</ele><time>2026-04-04T09:50:06.999Z</time></trkpt><trkpt lat="45.963055012939655" lon="9.265709246499055"><ele>226.33333333333334</ele><time>2026-04-04T09:50:07.999Z</time></trkpt><trkpt lat="45.96321357595769" lon="9.265741819720642"><ele>227.0</ele><time>2026-04-04T09:50:08.999Z</time></trkpt><trkpt lat="45.96334743185102" lon="9.265769042781763"><ele>229.83333333333334</ele><time>2026-04-04T09:50:09.999Z</time></trkpt><trkpt lat="45.96345758033151" lon="9.265785257926957"><ele>232.66666666666669</ele><time>2026-04-04T09:50:10.999Z</time></trkpt><trkpt lat="45.963548196366496" lon="9.265791573265084"><ele>235.5</ele><time>2026-04-04T09:50:11.999Z</time></trkpt><trkpt lat="45.96363234480739" lon="9.26581152869673"><ele>238.33333333333331</ele><time>2026-04-04T09:50:12.999Z</time></trkpt><trkpt lat="45.96370655072143" lon="9.265830265904054"><ele>241.16666666666666</ele><time>2026-04-04T09:50:13.999Z</time></trkpt><trkpt lat="45.963778555767455" lon="9.26586007302504"><ele>244.0</ele><time>2026-04-04T09:50:14.999Z</time></trkpt><trkpt lat="45.963844348507266" lon="9.265880093233022"><ele>244.0</ele><time>2026-04-04T09:50:15.999Z</time></trkpt><trkpt lat="45.96393531181709" lon="9.265904452705481"><ele>244.0</ele><time>2026-04-04T09:50:16.999Z</time></trkpt><trkpt lat="45.964051871805594" lon="9.265945329892697"><ele>244.0</ele><time>2026-04-04T09:50:17.999Z</time></trkpt><trkpt lat="45.964176720639195" lon="9.265997070065682"><ele>244.0</ele><time>2026-04-04T09:50:18.999Z</time></trkpt><trkpt lat="45.96430950207715" lon="9.266035693318928"><ele>250.25</ele><time>2026-04-04T09:50:19.999Z</time></trkpt><trkpt lat="45.96443841149446" lon="9.26609092884923"><ele>256.5</ele><time>2026-04-04T09:50:20.999Z</time></trkpt><trkpt lat="45.964582788765874" lon="9.266149103001299"><ele>262.75</ele><time>2026-04-04T09:50:21.999Z</time></trkpt><trkpt lat="45.96471400081514" lon="9.266198935931653"><ele>269.0</ele><time>2026-04-04T09:50:22.999Z</time></trkpt><trkpt lat="45.964824768053276" lon="9.266232225450155"><ele>269.0</ele><time>2026-04-04T09:50:23.999Z</time></trkpt><trkpt lat="45.96488925920278" lon="9.266272466960562"><ele>269.0</ele><time>2026-04-04T09:50:24.999Z</time></trkpt><trkpt lat="45.9649618520651" lon="9.266324630921096"><ele>269.0</ele><time>2026-04-04T09:50:26.999Z</time></trkpt><trkpt lat="45.96503859316964" lon="9.266395970915003"><ele>269.0</ele><time>2026-04-04T09:50:30.999Z</time></trkpt><trkpt lat="45.96507860284011" lon="9.266484220287401"><ele>269.0</ele><time>2026-04-04T09:50:32.999Z</time></trkpt><trkpt lat="45.96510575702023" lon="9.266571817973016"><ele>269.0</ele><time>2026-04-04T09:50:34.999Z</time></trkpt><trkpt lat="45.96515902685414" lon="9.26669130584036"><ele>266.4</ele><time>2026-04-04T09:50:36.999Z</time></trkpt><trkpt lat="45.96525076745735" lon="9.266793926176934"><ele>263.79999999999995</ele><time>2026-04-04T09:50:38.999Z</time></trkpt><trkpt lat="45.965380119239434" lon="9.266836582079542"><ele>261.20000000000005</ele><time>2026-04-04T09:50:40.999Z</time></trkpt><trkpt lat="45.96545455732661" lon="9.266846715465206"><ele>258.6</ele><time>2026-04-04T09:50:41.999Z</time></trkpt><trkpt lat="45.96553106204113" lon="9.266824698562392"><ele>256.0</ele><time>2026-04-04T09:50:42.999Z</time></trkpt><trkpt lat="45.96559681713033" lon="9.266805773741453"><ele>255.99999999999997</ele><time>2026-04-04T09:50:43.999Z</time></trkpt><trkpt lat="45.9656601198476" lon="9.266802147083384"><ele>256.0</ele><time>2026-04-04T09:50:44.999Z</time></trkpt><trkpt lat="45.96577770926518" lon="9.266830022695233"><ele>256.0</ele><time>2026-04-04T09:50:45.999Z</time></trkpt><trkpt lat="45.965870975830946" lon="9.266885404871168"><ele>256.0</ele><time>2026-04-04T09:50:46.999Z</time></trkpt><trkpt lat="45.965950476237325" lon="9.266929919681282"><ele>255.99999999999997</ele><time>2026-04-04T09:50:47.999Z</time></trkpt><trkpt lat="45.966010240873196" lon="9.266962013722193"><ele>256.0</ele><time>2026-04-04T09:50:48.999Z</time></trkpt><trkpt lat="45.966118169641526" lon="9.267013197268014"><ele>254.14285714285714</ele><time>2026-04-04T09:50:50.999Z</time></trkpt><trkpt lat="45.966184547169014" lon="9.267051545920344"><ele>252.28571428571428</ele><time>2026-04-04T09:50:51.999Z</time></trkpt><trkpt lat="45.966258062116275" lon="9.267094903592383"><ele>250.42857142857142</ele><time>2026-04-04T09:50:52.999Z</time></trkpt><trkpt lat="45.9663182027229" lon="9.26713138764812"><ele>248.57142857142856</ele><time>2026-04-04T09:50:53.999Z</time></trkpt><trkpt lat="45.966376174687376" lon="9.267169084789662"><ele>246.71428571428572</ele><time>2026-04-04T09:50:54.999Z</time></trkpt><trkpt lat="45.966432343979136" lon="9.26721335556997"><ele>244.85714285714283</ele><time>2026-04-04T09:50:55.999Z</time></trkpt><trkpt lat="45.966496072882485" lon="9.267256280559943"><ele>243.0</ele><time>2026-04-04T09:50:56.999Z</time></trkpt><trkpt lat="45.96656508946726" lon="9.267306568967449"><ele>243.0</ele><time>2026-04-04T09:50:57.999Z</time></trkpt><trkpt lat="45.96663209352356" lon="9.267361056780674"><ele>243.0</ele><time>2026-04-04T09:50:58.999Z</time></trkpt><trkpt lat="45.96670351520882" lon="9.267386298816142"><ele>243.0</ele><time>2026-04-04T09:50:59.999Z</time></trkpt><trkpt lat="45.96677872247656" lon="9.267396739954473"><ele>243.0</ele><time>2026-04-04T09:51:00.999Z</time></trkpt><trkpt lat="45.966847709713804" lon="9.267369768262704"><ele>243.0</ele><time>2026-04-04T09:51:01.999Z</time></trkpt><trkpt lat="45.96696955691327" lon="9.267356993255099"><ele>243.0</ele><time>2026-04-04T09:51:03.999Z</time></trkpt><trkpt lat="45.9670181173367" lon="9.267418033084544"><ele>243.8</ele><time>2026-04-04T09:51:04.998Z</time></trkpt><trkpt lat="45.967129641158806" lon="9.26749040394591"><ele>244.60000000000002</ele><time>2026-04-04T09:51:06.998Z</time></trkpt><trkpt lat="45.96719146433636" lon="9.2675080099413"><ele>245.39999999999998</ele><time>2026-04-04T09:51:07.998Z</time></trkpt><trkpt lat="45.96725768831437" lon="9.267500430705978"><ele>246.2</ele><time>2026-04-04T09:51:08.998Z</time></trkpt><trkpt lat="45.96736463887667" lon="9.26747759019144"><ele>247.0</ele><time>2026-04-04T09:51:10.998Z</time></trkpt><trkpt lat="45.96745603792755" lon="9.26743425930799"><ele>245.6</ele><time>2026-04-04T09:51:12.998Z</time></trkpt><trkpt lat="45.96755091843097" lon="9.26738657996927"><ele>244.2</ele><time>2026-04-04T09:51:13.998Z</time></trkpt><trkpt lat="45.967661461374504" lon="9.267331401577666"><ele>242.8</ele><time>2026-04-04T09:51:14.998Z</time></trkpt><trkpt lat="45.967755732062095" lon="9.267264558076478"><ele>241.4</ele><time>2026-04-04T09:51:15.998Z</time></trkpt><trkpt lat="45.9678309776459" lon="9.267230916413842"><ele>240.0</ele><time>2026-04-04T09:51:16.998Z</time></trkpt><trkpt lat="45.96790777222622" lon="9.267206191836562"><ele>242.5</ele><time>2026-04-04T09:51:17.998Z</time></trkpt><trkpt lat="45.96798547519437" lon="9.267171723068785"><ele>245.0</ele><time>2026-04-04T09:51:18.998Z</time></trkpt><trkpt lat="45.968067633315584" lon="9.267126122937853"><ele>247.5</ele><time>2026-04-04T09:51:19.998Z</time></trkpt><trkpt lat="45.96814252790859" lon="9.267071036589815"><ele>250.0</ele><time>2026-04-04T09:51:20.998Z</time></trkpt><trkpt lat="45.96820305719769" lon="9.26700091158927"><ele>252.5</ele><time>2026-04-04T09:51:21.998Z</time></trkpt><trkpt lat="45.968236600499814" lon="9.266905363507586"><ele>255.0</ele><time>2026-04-04T09:51:23Z</time></trkpt><trkpt lat="45.96824349005852" lon="9.266802671723031"><ele>255.0</ele><time>2026-04-04T09:51:24Z</time></trkpt><trkpt lat="45.9682412780547" lon="9.266701507510897"><ele>255.0</ele><time>2026-04-04T09:51:25Z</time></trkpt><trkpt lat="45.968263093154015" lon="9.266602373363094"><ele>255.0</ele><time>2026-04-04T09:51:26Z</time></trkpt><trkpt lat="45.968281262666736" lon="9.266494209181726"><ele>255.0</ele><time>2026-04-04T09:51:27Z</time></trkpt><trkpt lat="45.968314000301476" lon="9.266389456546726"><ele>255.0</ele><time>2026-04-04T09:51:28Z</time></trkpt><trkpt lat="45.968353637163055" lon="9.266282384692824"><ele>255.0</ele><time>2026-04-04T09:51:29Z</time></trkpt><trkpt lat="45.968433428759134" lon="9.266221679647398"><ele>257.8</ele><time>2026-04-04T09:51:30Z</time></trkpt><trkpt lat="45.96852477174368" lon="9.266192890906963"><ele>260.6</ele><time>2026-04-04T09:51:31Z</time></trkpt><trkpt lat="45.96861397877059" lon="9.266209973119095"><ele>263.4</ele><time>2026-04-04T09:51:32Z</time></trkpt><trkpt lat="45.96869636098824" lon="9.26626882126052"><ele>266.2</ele><time>2026-04-04T09:51:33Z</time></trkpt><trkpt lat="45.96877876860246" lon="9.26633801659324"><ele>269.0</ele><time>2026-04-04T09:51:34Z</time></trkpt><trkpt lat="45.96886756598997" lon="9.266390119176908"><ele>269.0</ele><time>2026-04-04T09:51:35Z</time></trkpt><trkpt lat="45.96896119796712" lon="9.266432374383552"><ele>269.0</ele><time>2026-04-04T09:51:36Z</time></trkpt><trkpt lat="45.969049306713146" lon="9.266447582870205"><ele>269.0</ele><time>2026-04-04T09:51:37Z</time></trkpt><trkpt lat="45.96914179523411" lon="9.266427366946761"><ele>269.0</ele><time>2026-04-04T09:51:38Z</time></trkpt><trkpt lat="45.96923664799613" lon="9.26637434483496"><ele>269.0</ele><time>2026-04-04T09:51:39Z</time></trkpt><trkpt lat="45.96931715460296" lon="9.26629199357892"><ele>268.59999999999997</ele><time>2026-04-04T09:51:40Z</time></trkpt><trkpt lat="45.96938234088939" lon="9.26618710527674"><ele>268.2</ele><time>2026-04-04T09:51:41Z</time></trkpt><trkpt lat="45.96944085886662" lon="9.266086161130996"><ele>267.79999999999995</ele><time>2026-04-04T09:51:42Z</time></trkpt><trkpt lat="45.96952018426303" lon="9.26600430860094"><ele>267.4</ele><time>2026-04-04T09:51:43Z</time></trkpt><trkpt lat="45.96962288047999" lon="9.266018835833597"><ele>267.0</ele><time>2026-04-04T09:51:44Z</time></trkpt><trkpt lat="45.9697216455715" lon="9.26603073292652"><ele>267.0</ele><time>2026-04-04T09:51:45Z</time></trkpt><trkpt lat="45.969822826233894" lon="9.266052038480554"><ele>267.0</ele><time>2026-04-04T09:51:46Z</time></trkpt><trkpt lat="45.96992231291918" lon="9.266074199526933"><ele>267.0</ele><time>2026-04-04T09:51:47Z</time></trkpt><trkpt lat="45.9700165848228" lon="9.266099912081142"><ele>267.0</ele><time>2026-04-04T09:51:48Z</time></trkpt><trkpt lat="45.97010026486089" lon="9.266107424104963"><ele>267.0</ele><time>2026-04-04T09:51:49Z</time></trkpt><trkpt lat="45.97018794941766" lon="9.266093211638173"><ele>266.8</ele><time>2026-04-04T09:51:50Z</time></trkpt><trkpt lat="45.9702782313923" lon="9.266062094010168"><ele>266.6</ele><time>2026-04-04T09:51:51Z</time></trkpt><trkpt lat="45.970376843410705" lon="9.266026550416264"><ele>266.40000000000003</ele><time>2026-04-04T09:51:52Z</time></trkpt><trkpt lat="45.97046833821421" lon="9.265972306967516"><ele>266.2</ele><time>2026-04-04T09:51:53Z</time></trkpt><trkpt lat="45.97053297980698" lon="9.265876677511452"><ele>266.0</ele><time>2026-04-04T09:51:54Z</time></trkpt><trkpt lat="45.97056824303567" lon="9.265757901851257"><ele>266.0</ele><time>2026-04-04T09:51:55Z</time></trkpt><trkpt lat="45.970585452279906" lon="9.265645741972687"><ele>266.0</ele><time>2026-04-04T09:51:56Z</time></trkpt><trkpt lat="45.9706138498039" lon="9.26554143940739"><ele>266.0</ele><time>2026-04-04T09:51:57Z</time></trkpt><trkpt lat="45.97064875779839" lon="9.265442157023704"><ele>266.0</ele><time>2026-04-04T09:51:58Z</time></trkpt><trkpt lat="45.97069760291625" lon="9.265351488529724"><ele>266.0</ele><time>2026-04-04T09:51:59Z</time></trkpt><trkpt lat="45.97076997160543" lon="9.265290280109472"><ele>266.0</ele><time>2026-04-04T09:52:00Z</time></trkpt><trkpt lat="45.97085853460553" lon="9.26524765626009"><ele>269.8</ele><time>2026-04-04T09:52:01Z</time></trkpt><trkpt lat="45.970959247888125" lon="9.265267468691395"><ele>273.6</ele><time>2026-04-04T09:52:01.999Z</time></trkpt><trkpt lat="45.97105840744989" lon="9.265261547616607"><ele>277.4</ele><time>2026-04-04T09:52:02.999Z</time></trkpt><trkpt lat="45.97115338780854" lon="9.265266435440045"><ele>281.2</ele><time>2026-04-04T09:52:03.999Z</time></trkpt><trkpt lat="45.97124818359304" lon="9.26525314464653"><ele>285.0</ele><time>2026-04-04T09:52:04.999Z</time></trkpt><trkpt lat="45.97133562740675" lon="9.265208717595353"><ele>285.0</ele><time>2026-04-04T09:52:05.999Z</time></trkpt><trkpt lat="45.971403369700234" lon="9.265131151505356"><ele>285.0</ele><time>2026-04-04T09:52:06.999Z</time></trkpt><trkpt lat="45.97145238043275" lon="9.26502413190133"><ele>285.0</ele><time>2026-04-04T09:52:07.999Z</time></trkpt><trkpt lat="45.97149163071908" lon="9.264902479706938"><ele>285.0</ele><time>2026-04-04T09:52:08.999Z</time></trkpt><trkpt lat="45.97152625721081" lon="9.264779614537849"><ele>285.0</ele><time>2026-04-04T09:52:09.999Z</time></trkpt><trkpt lat="45.97155441880781" lon="9.264664015480639"><ele>285.0</ele><time>2026-04-04T09:52:10.999Z</time></trkpt><trkpt lat="45.97158013885692" lon="9.26457165102096"><ele>285.1666666666667</ele><time>2026-04-04T09:52:11.999Z</time></trkpt><trkpt lat="45.97161809868532" lon="9.264497932933768"><ele>285.3333333333333</ele><time>2026-04-04T09:52:12.999Z</time></trkpt><trkpt lat="45.9716474789386" lon="9.264361784159574"><ele>285.5</ele><time>2026-04-04T09:52:14.999Z</time></trkpt><trkpt lat="45.971702625205815" lon="9.26419849592308"><ele>285.66666666666663</ele><time>2026-04-04T09:52:16.999Z</time></trkpt><trkpt lat="45.9717585843873" lon="9.264128839023803"><ele>285.8333333333333</ele><time>2026-04-04T09:52:17.999Z</time></trkpt><trkpt lat="45.97181331489701" lon="9.264051155524227"><ele>286.0</ele><time>2026-04-04T09:52:18.999Z</time></trkpt><trkpt lat="45.9718642008354" lon="9.26396608355385"><ele>286.1428571428571</ele><time>2026-04-04T09:52:19.999Z</time></trkpt><trkpt lat="45.971922934161285" lon="9.263882829280025"><ele>286.2857142857143</ele><time>2026-04-04T09:52:20.999Z</time></trkpt><trkpt lat="45.97197606820728" lon="9.263799512331232"><ele>286.42857142857144</ele><time>2026-04-04T09:52:21.999Z</time></trkpt><trkpt lat="45.97202822369322" lon="9.26372951222563"><ele>286.57142857142856</ele><time>2026-04-04T09:52:22.999Z</time></trkpt><trkpt lat="45.97207328495369" lon="9.263656191036247"><ele>286.7142857142857</ele><time>2026-04-04T09:52:23.999Z</time></trkpt><trkpt lat="45.97211102496164" lon="9.26358030376971"><ele>286.85714285714283</ele><time>2026-04-04T09:52:24.999Z</time></trkpt><trkpt lat="45.97215179716157" lon="9.263499278389224"><ele>287.0</ele><time>2026-04-04T09:52:25.999Z</time></trkpt><trkpt lat="45.97219706385629" lon="9.263419358003821"><ele>287.0</ele><time>2026-04-04T09:52:26.999Z</time></trkpt><trkpt lat="45.97224138421434" lon="9.263342855441236"><ele>287.0</ele><time>2026-04-04T09:52:27.999Z</time></trkpt><trkpt lat="45.97229237250905" lon="9.263259826320681"><ele>287.0</ele><time>2026-04-04T09:52:41.999Z</time></trkpt><trkpt lat="45.97235231184187" lon="9.263156644008967"><ele>287.0</ele><time>2026-04-04T09:52:43.999Z</time></trkpt><trkpt lat="45.972432552599386" lon="9.263017694462784"><ele>287.0</ele><time>2026-04-04T09:52:45.999Z</time></trkpt><trkpt lat="45.972507101000275" lon="9.262877823666635"><ele>285.0</ele><time>2026-04-04T09:52:47.999Z</time></trkpt><trkpt lat="45.972540269450185" lon="9.262799113121687"><ele>283.0</ele><time>2026-04-04T09:52:48.999Z</time></trkpt><trkpt lat="45.97258312709491" lon="9.262671318799088"><ele>281.0</ele><time>2026-04-04T09:52:50.999Z</time></trkpt><trkpt lat="45.97260129969868" lon="9.262545017565628"><ele>279.0</ele><time>2026-04-04T09:52:52.999Z</time></trkpt><trkpt lat="45.97259977976245" lon="9.262447470672832"><ele>277.0</ele><time>2026-04-04T09:52:54.999Z</time></trkpt><trkpt lat="45.97260054354534" lon="9.262308422362667"><ele>275.0</ele><time>2026-04-04T09:52:56.999Z</time></trkpt><trkpt lat="45.97259629189359" lon="9.262177415381808"><ele>273.1666666666667</ele><time>2026-04-04T09:52:58.999Z</time></trkpt><trkpt lat="45.97259165724282" lon="9.26205182754414"><ele>271.33333333333337</ele><time>2026-04-04T09:53:00.999Z</time></trkpt><trkpt lat="45.97259378423998" lon="9.261928062316919"><ele>269.5</ele><time>2026-04-04T09:53:02.999Z</time></trkpt><trkpt lat="45.972589557722486" lon="9.261758048764253"><ele>267.6666666666667</ele><time>2026-04-04T09:53:04.999Z</time></trkpt><trkpt lat="45.972593025863404" lon="9.261666954409181"><ele>265.8333333333333</ele><time>2026-04-04T09:53:05.999Z</time></trkpt><trkpt lat="45.97260352889105" lon="9.261570967993634"><ele>264.0</ele><time>2026-04-04T09:53:06.999Z</time></trkpt><trkpt lat="45.97262183823069" lon="9.261479414575888"><ele>265.0</ele><time>2026-04-04T09:53:07.999Z</time></trkpt><trkpt lat="45.97266051084664" lon="9.261381593407567"><ele>266.0</ele><time>2026-04-04T09:53:08.998Z</time></trkpt><trkpt lat="45.97270898555291" lon="9.261295003904788"><ele>267.0</ele><time>2026-04-04T09:53:09.998Z</time></trkpt><trkpt lat="45.97274508778861" lon="9.261193429925912"><ele>268.0</ele><time>2026-04-04T09:53:10.998Z</time></trkpt><trkpt lat="45.97275820846434" lon="9.261066813517957"><ele>269.0</ele><time>2026-04-04T09:53:11.998Z</time></trkpt><trkpt lat="45.972773139611576" lon="9.260953193268909"><ele>270.0</ele><time>2026-04-04T09:53:12.998Z</time></trkpt><trkpt lat="45.97278529693992" lon="9.26085135731418"><ele>270.0</ele><time>2026-04-04T09:53:13.998Z</time></trkpt><trkpt lat="45.97271407699358" lon="9.26071783631608"><ele>270.0</ele><time>2026-04-04T09:53:15.998Z</time></trkpt><trkpt lat="45.97261820064875" lon="9.260668792486351"><ele>270.0</ele><time>2026-04-04T09:53:17.998Z</time></trkpt><trkpt lat="45.9725574895164" lon="9.26061140734176"><ele>270.0</ele><time>2026-04-04T09:53:24.998Z</time></trkpt><trkpt lat="45.97257070767509" lon="9.260518109792162"><ele>270.0</ele><time>2026-04-04T09:53:26.998Z</time></trkpt><trkpt lat="45.972654888376454" lon="9.260489440316922"><ele>270.0</ele><time>2026-04-04T09:53:29Z</time></trkpt><trkpt lat="45.97276366291353" lon="9.260604554342345"><ele>270.0</ele><time>2026-04-04T09:53:31Z</time></trkpt><trkpt lat="45.9728308230599" lon="9.260658588141563"><ele>270.0</ele><time>2026-04-04T09:53:32Z</time></trkpt><trkpt lat="45.97289894363345" lon="9.260732481329432"><ele>270.0</ele><time>2026-04-04T09:53:33Z</time></trkpt><trkpt lat="45.9729639429998" lon="9.260828199476316"><ele>270.0</ele><time>2026-04-04T09:53:34Z</time></trkpt><trkpt lat="45.973028767996986" lon="9.260935325880396"><ele>270.0</ele><time>2026-04-04T09:53:35Z</time></trkpt><trkpt lat="45.973106085743744" lon="9.261037233036133"><ele>270.0</ele><time>2026-04-04T09:53:36Z</time></trkpt><trkpt lat="45.97319328312424" lon="9.261114119275469"><ele>270.0</ele><time>2026-04-04T09:53:37Z</time></trkpt><trkpt lat="45.97329647692648" lon="9.261163574849062"><ele>270.0</ele><time>2026-04-04T09:53:38Z</time></trkpt><trkpt lat="45.973398891251406" lon="9.261172456025564"><ele>270.0</ele><time>2026-04-04T09:53:39Z</time></trkpt><trkpt lat="45.9734969020839" lon="9.261152085307224"><ele>270.0</ele><time>2026-04-04T09:53:40Z</time></trkpt><trkpt lat="45.973586884180754" lon="9.261109318419825"><ele>269.0</ele><time>2026-04-04T09:53:41Z</time></trkpt><trkpt lat="45.97366396156125" lon="9.26104039642036"><ele>268.0</ele><time>2026-04-04T09:53:42Z</time></trkpt><trkpt lat="45.9737232067405" lon="9.260944039537748"><ele>267.0</ele><time>2026-04-04T09:53:43Z</time></trkpt><trkpt lat="45.973774864435164" lon="9.260849316314937"><ele>266.0</ele><time>2026-04-04T09:53:44Z</time></trkpt><trkpt lat="45.97381353152405" lon="9.26074673419474"><ele>265.0</ele><time>2026-04-04T09:53:45Z</time></trkpt><trkpt lat="45.97385123343576" lon="9.26063114035863"><ele>264.0</ele><time>2026-04-04T09:53:46Z</time></trkpt><trkpt lat="45.973884699916006" lon="9.2605074891297"><ele>264.0</ele><time>2026-04-04T09:53:47Z</time></trkpt><trkpt lat="45.97391889544038" lon="9.260390518928812"><ele>264.0</ele><time>2026-04-04T09:53:48Z</time></trkpt><trkpt lat="45.97395180791131" lon="9.260283814281468"><ele>264.0</ele><time>2026-04-04T09:53:49Z</time></trkpt><trkpt lat="45.97397883283313" lon="9.260184889144362"><ele>264.0</ele><time>2026-04-04T09:53:50Z</time></trkpt><trkpt lat="45.97400590782868" lon="9.2600978578887"><ele>264.0</ele><time>2026-04-04T09:53:51Z</time></trkpt><trkpt lat="45.97409643962834" lon="9.260008572858881"><ele>264.0</ele><time>2026-04-04T09:53:53Z</time></trkpt><trkpt lat="45.974192819691154" lon="9.260159997774558"><ele>264.0</ele><time>2026-04-04T09:53:55Z</time></trkpt><trkpt lat="45.974191316668374" lon="9.260254840266143"><ele>264.0</ele><time>2026-04-04T09:53:56Z</time></trkpt><trkpt lat="45.974118432577896" lon="9.26038713730994"><ele>264.0</ele><time>2026-04-04T09:53:57Z</time></trkpt><trkpt lat="45.97407048707227" lon="9.260489921829667"><ele>264.0</ele><time>2026-04-04T09:53:58Z</time></trkpt><trkpt lat="45.97402753773531" lon="9.260606440000899"><ele>264.0</ele><time>2026-04-04T09:53:59Z</time></trkpt><trkpt lat="45.9739939145408" lon="9.260718097326027"><ele>264.0</ele><time>2026-04-04T09:54:00Z</time></trkpt><trkpt lat="45.97395905391658" lon="9.260822227559668"><ele>262.42857142857144</ele><time>2026-04-04T09:54:01Z</time></trkpt><trkpt lat="45.97392878052911" lon="9.260922561573086"><ele>260.8571428571429</ele><time>2026-04-04T09:54:02Z</time></trkpt><trkpt lat="45.97392668963587" lon="9.26102796849631"><ele>259.28571428571433</ele><time>2026-04-04T09:54:03Z</time></trkpt><trkpt lat="45.97394640946899" lon="9.261128625095386"><ele>257.7142857142857</ele><time>2026-04-04T09:54:04Z</time></trkpt><trkpt lat="45.97398468898844" lon="9.261217876080906"><ele>256.14285714285717</ele><time>2026-04-04T09:54:05Z</time></trkpt><trkpt lat="45.97403960332571" lon="9.261284205841065"><ele>254.5714285714286</ele><time>2026-04-04T09:54:06Z</time></trkpt><trkpt lat="45.97410338482587" lon="9.261325630871953"><ele>253.00000000000003</ele><time>2026-04-04T09:54:07Z</time></trkpt><trkpt lat="45.97416865810345" lon="9.261344830407728"><ele>250.99999999999997</ele><time>2026-04-04T09:54:08Z</time></trkpt><trkpt lat="45.97423793483767" lon="9.261351015922102"><ele>249.0</ele><time>2026-04-04T09:54:09Z</time></trkpt><trkpt lat="45.974316362536364" lon="9.261339532254436"><ele>247.0</ele><time>2026-04-04T09:54:10Z</time></trkpt><trkpt lat="45.974398663430556" lon="9.261330095970564"><ele>245.0</ele><time>2026-04-04T09:54:11Z</time></trkpt><trkpt lat="45.97448359007315" lon="9.261339432406572"><ele>242.99999999999997</ele><time>2026-04-04T09:54:12Z</time></trkpt><trkpt lat="45.97456365913381" lon="9.261365997600846"><ele>241.0</ele><time>2026-04-04T09:54:13Z</time></trkpt><trkpt lat="45.97464326728345" lon="9.26141746837582"><ele>241.49999999999997</ele><time>2026-04-04T09:54:14Z</time></trkpt><trkpt lat="45.974715891424964" lon="9.261475388623564"><ele>242.0</ele><time>2026-04-04T09:54:15Z</time></trkpt><trkpt lat="45.97479097648111" lon="9.261551977747112"><ele>242.5</ele><time>2026-04-04T09:54:16Z</time></trkpt><trkpt lat="45.9748673965408" lon="9.261635607505191"><ele>243.0</ele><time>2026-04-04T09:54:17Z</time></trkpt><trkpt lat="45.97492879676811" lon="9.261719819051214"><ele>243.49999999999997</ele><time>2026-04-04T09:54:17.999Z</time></trkpt><trkpt lat="45.974989114857316" lon="9.261810084002123"><ele>244.0</ele><time>2026-04-04T09:54:18.999Z</time></trkpt><trkpt lat="45.975057171858495" lon="9.2618996583772"><ele>242.16666666666666</ele><time>2026-04-04T09:54:19.999Z</time></trkpt><trkpt lat="45.975133342769816" lon="9.261991624259402"><ele>240.33333333333331</ele><time>2026-04-04T09:54:20.999Z</time></trkpt><trkpt lat="45.97520815191531" lon="9.26207149722148"><ele>238.5</ele><time>2026-04-04T09:54:21.999Z</time></trkpt><trkpt lat="45.97528477420615" lon="9.262136045179025"><ele>236.66666666666669</ele><time>2026-04-04T09:54:22.999Z</time></trkpt><trkpt lat="45.97536477576183" lon="9.26217974995163"><ele>234.83333333333334</ele><time>2026-04-04T09:54:23.999Z</time></trkpt><trkpt lat="45.97544315199061" lon="9.262199080899938"><ele>233.0</ele><time>2026-04-04T09:54:24.999Z</time></trkpt><trkpt lat="45.975523593199995" lon="9.26220858945706"><ele>233.00000000000003</ele><time>2026-04-04T09:54:25.999Z</time></trkpt><trkpt lat="45.975611518220184" lon="9.262216838842635"><ele>233.0</ele><time>2026-04-04T09:54:26.999Z</time></trkpt><trkpt lat="45.975699566037264" lon="9.262236345074903"><ele>233.0</ele><time>2026-04-04T09:54:27.999Z</time></trkpt><trkpt lat="45.97579140305079" lon="9.262255113810108"><ele>233.0</ele><time>2026-04-04T09:54:28.999Z</time></trkpt><trkpt lat="45.97587259990808" lon="9.262272597751592"><ele>233.00000000000003</ele><time>2026-04-04T09:54:29.999Z</time></trkpt><trkpt lat="45.9759559684486" lon="9.262287635638637"><ele>233.0</ele><time>2026-04-04T09:54:30.999Z</time></trkpt><trkpt lat="45.97603917997917" lon="9.262310250457055"><ele>233.2</ele><time>2026-04-04T09:54:31.999Z</time></trkpt><trkpt lat="45.9761293539509" lon="9.262328335879973"><ele>233.4</ele><time>2026-04-04T09:54:32.999Z</time></trkpt><trkpt lat="45.97622292128073" lon="9.262352226784289"><ele>233.59999999999997</ele><time>2026-04-04T09:54:33.999Z</time></trkpt><trkpt lat="45.9763136023228" lon="9.262371267958528"><ele>233.79999999999998</ele><time>2026-04-04T09:54:34.999Z</time></trkpt><trkpt lat="45.97640423610408" lon="9.262376330883727"><ele>234.0</ele><time>2026-04-04T09:54:35.999Z</time></trkpt><trkpt lat="45.97649618494231" lon="9.262403716767556"><ele>234.0</ele><time>2026-04-04T09:54:36.999Z</time></trkpt><trkpt lat="45.97658911676402" lon="9.262423487430388"><ele>234.0</ele><time>2026-04-04T09:54:37.999Z</time></trkpt><trkpt lat="45.97668289562477" lon="9.262442237227749"><ele>234.0</ele><time>2026-04-04T09:54:38.999Z</time></trkpt><trkpt lat="45.9767698128747" lon="9.262460778117592"><ele>234.0</ele><time>2026-04-04T09:54:39.999Z</time></trkpt><trkpt lat="45.976852864819314" lon="9.26248093151483"><ele>234.0</ele><time>2026-04-04T09:54:40.999Z</time></trkpt><trkpt lat="45.97693282680997" lon="9.262500102999248"><ele>234.0</ele><time>2026-04-04T09:54:41.999Z</time></trkpt><trkpt lat="45.977008959625465" lon="9.262518782781937"><ele>234.2</ele><time>2026-04-04T09:54:42.999Z</time></trkpt><trkpt lat="45.977110125153125" lon="9.262538318747785"><ele>234.39999999999998</ele><time>2026-04-04T09:54:44.999Z</time></trkpt><trkpt lat="45.977197975668304" lon="9.262570016578533"><ele>234.6</ele><time>2026-04-04T09:54:47.999Z</time></trkpt><trkpt lat="45.97730621613175" lon="9.26257954633436"><ele>234.8</ele><time>2026-04-04T09:54:49.999Z</time></trkpt><trkpt lat="45.97734027420926" lon="9.262392938472736"><ele>235.0</ele><time>2026-04-04T09:54:51.999Z</time></trkpt><trkpt lat="45.97731448325148" lon="9.262216972059463"><ele>235.42857142857142</ele><time>2026-04-04T09:54:53.999Z</time></trkpt><trkpt lat="45.97731095475801" lon="9.262125657902118"><ele>235.85714285714283</ele><time>2026-04-04T09:54:54.999Z</time></trkpt><trkpt lat="45.977308988081774" lon="9.262029645930795"><ele>236.28571428571428</ele><time>2026-04-04T09:54:55.999Z</time></trkpt><trkpt lat="45.977307657237624" lon="9.261932216867365"><ele>236.71428571428572</ele><time>2026-04-04T09:54:56.999Z</time></trkpt><trkpt lat="45.977305068620986" lon="9.26182522903061"><ele>237.14285714285714</ele><time>2026-04-04T09:54:57.999Z</time></trkpt><trkpt lat="45.97730237973491" lon="9.261706334933097"><ele>237.57142857142856</ele><time>2026-04-04T09:54:58.999Z</time></trkpt><trkpt lat="45.97730164255816" lon="9.261586729247984"><ele>238.0</ele><time>2026-04-04T09:54:59.999Z</time></trkpt><trkpt lat="45.97730015095749" lon="9.26149077984097"><ele>238.8</ele><time>2026-04-04T09:55:00.999Z</time></trkpt><trkpt lat="45.97730183456859" lon="9.261371071436477"><ele>239.60000000000002</ele><time>2026-04-04T09:55:02.999Z</time></trkpt><trkpt lat="45.977318821653554" lon="9.261259479219154"><ele>240.39999999999998</ele><time>2026-04-04T09:55:04.999Z</time></trkpt><trkpt lat="45.97735575405044" lon="9.261151275493582"><ele>241.2</ele><time>2026-04-04T09:55:09.999Z</time></trkpt><trkpt lat="45.97737788587123" lon="9.26099941688386"><ele>242.0</ele><time>2026-04-04T09:55:11.999Z</time></trkpt><trkpt lat="45.977408768972595" lon="9.260852301336813"><ele>242.0</ele><time>2026-04-04T09:55:13.999Z</time></trkpt><trkpt lat="45.977432490475884" lon="9.26074554391956"><ele>242.0</ele><time>2026-04-04T09:55:15.999Z</time></trkpt><trkpt lat="45.977461862295556" lon="9.260623369465117"><ele>242.0</ele><time>2026-04-04T09:55:18.999Z</time></trkpt><trkpt lat="45.97751572305082" lon="9.260490774160136"><ele>242.0</ele><time>2026-04-04T09:55:21.999Z</time></trkpt><trkpt lat="45.97757133358703" lon="9.260447317862226"><ele>242.0</ele><time>2026-04-04T09:55:24.999Z</time></trkpt><trkpt lat="45.9776827573029" lon="9.260306308848623"><ele>243.39999999999998</ele><time>2026-04-04T09:55:28.999Z</time></trkpt><trkpt lat="45.97775257886782" lon="9.260220881513204"><ele>244.79999999999998</ele><time>2026-04-04T09:55:29.998Z</time></trkpt><trkpt lat="45.97781296454912" lon="9.260141993890654"><ele>246.2</ele><time>2026-04-04T09:55:30.998Z</time></trkpt><trkpt lat="45.97789153855523" lon="9.260023526654408"><ele>247.6</ele><time>2026-04-04T09:55:31.998Z</time></trkpt><trkpt lat="45.97796357053235" lon="9.259880482481222"><ele>249.0</ele><time>2026-04-04T09:55:32.998Z</time></trkpt><trkpt lat="45.97802936593847" lon="9.25974399722229"><ele>249.0</ele><time>2026-04-04T09:55:33.998Z</time></trkpt><trkpt lat="45.9780610646185" lon="9.259597389419946"><ele>248.99999999999997</ele><time>2026-04-04T09:55:35Z</time></trkpt><trkpt lat="45.97808744087511" lon="9.259463513843988"><ele>248.99999999999997</ele><time>2026-04-04T09:55:36Z</time></trkpt><trkpt lat="45.9781167782045" lon="9.25934458016856"><ele>249.0</ele><time>2026-04-04T09:55:37Z</time></trkpt><trkpt lat="45.97815443156605" lon="9.259220440635"><ele>249.0</ele><time>2026-04-04T09:55:38Z</time></trkpt><trkpt lat="45.97818120077334" lon="9.259105925012458"><ele>249.0</ele><time>2026-04-04T09:55:39Z</time></trkpt><trkpt lat="45.97821197224602" lon="9.258987262840916"><ele>249.0</ele><time>2026-04-04T09:55:40Z</time></trkpt><trkpt lat="45.97824320523368" lon="9.258868260679234"><ele>249.0</ele><time>2026-04-04T09:55:41Z</time></trkpt><trkpt lat="45.978273721584415" lon="9.25874937009633"><ele>249.0</ele><time>2026-04-04T09:55:42Z</time></trkpt><trkpt lat="45.97830249935023" lon="9.258648336131177"><ele>249.0</ele><time>2026-04-04T09:55:43Z</time></trkpt><trkpt lat="45.97833428148657" lon="9.258531878498381"><ele>249.0</ele><time>2026-04-04T09:55:44Z</time></trkpt><trkpt lat="45.978364130760184" lon="9.258418016491662"><ele>250.0</ele><time>2026-04-04T09:55:45Z</time></trkpt><trkpt lat="45.97839055717436" lon="9.25830095553866"><ele>251.0</ele><time>2026-04-04T09:55:46Z</time></trkpt><trkpt lat="45.97842420407066" lon="9.258191734640869"><ele>252.0</ele><time>2026-04-04T09:55:47Z</time></trkpt><trkpt lat="45.9784494997479" lon="9.258078302327263"><ele>253.0</ele><time>2026-04-04T09:55:48Z</time></trkpt><trkpt lat="45.978468229426404" lon="9.257976230209188"><ele>254.0</ele><time>2026-04-04T09:55:49Z</time></trkpt><trkpt lat="45.9784873718035" lon="9.257861332764447"><ele>255.0</ele><time>2026-04-04T09:55:50Z</time></trkpt><trkpt lat="45.97850550079303" lon="9.25774610065685"><ele>255.0</ele><time>2026-04-04T09:55:51Z</time></trkpt><trkpt lat="45.97852598425232" lon="9.257619614520571"><ele>255.0</ele><time>2026-04-04T09:55:52Z</time></trkpt><trkpt lat="45.97854606447442" lon="9.257494651006123"><ele>255.0</ele><time>2026-04-04T09:55:53Z</time></trkpt><trkpt lat="45.978576328734235" lon="9.257368987314454"><ele>255.0</ele><time>2026-04-04T09:55:54Z</time></trkpt><trkpt lat="45.978596044177266" lon="9.257257489661889"><ele>255.0</ele><time>2026-04-04T09:55:55Z</time></trkpt><trkpt lat="45.97861209499218" lon="9.257164050790996"><ele>255.0</ele><time>2026-04-04T09:55:56Z</time></trkpt><trkpt lat="45.97862757324939" lon="9.257067848314176"><ele>254.6</ele><time>2026-04-04T09:55:58Z</time></trkpt><trkpt lat="45.978646291614474" lon="9.256934616819542"><ele>254.2</ele><time>2026-04-04T09:56:06Z</time></trkpt><trkpt lat="45.978665317643966" lon="9.256768956939164"><ele>253.8</ele><time>2026-04-04T09:56:08Z</time></trkpt><trkpt lat="45.97868854201634" lon="9.256615456455389"><ele>253.4</ele><time>2026-04-04T09:56:10Z</time></trkpt><trkpt lat="45.97869265946983" lon="9.256517419677147"><ele>253.0</ele><time>2026-04-04T09:56:11Z</time></trkpt><trkpt lat="45.9787017517543" lon="9.256406338576834"><ele>252.33333333333331</ele><time>2026-04-04T09:56:12Z</time></trkpt><trkpt lat="45.97871027837549" lon="9.256301461754132"><ele>251.66666666666666</ele><time>2026-04-04T09:56:13Z</time></trkpt><trkpt lat="45.978716085173815" lon="9.256198032512025"><ele>251.0</ele><time>2026-04-04T09:56:14Z</time></trkpt><trkpt lat="45.978720853772536" lon="9.25610653656127"><ele>250.33333333333331</ele><time>2026-04-04T09:56:15Z</time></trkpt><trkpt lat="45.978734902603485" lon="9.255942938715643"><ele>249.66666666666666</ele><time>2026-04-04T09:56:16.999Z</time></trkpt><trkpt lat="45.97874605184838" lon="9.2558501576163"><ele>249.0</ele><time>2026-04-04T09:56:17.999Z</time></trkpt><trkpt lat="45.97876070151586" lon="9.255756936990256"><ele>249.0</ele><time>2026-04-04T09:56:18.999Z</time></trkpt><trkpt lat="45.97877510563195" lon="9.255656438910899"><ele>249.0</ele><time>2026-04-04T09:56:19.999Z</time></trkpt><trkpt lat="45.97879709263829" lon="9.255548584702133"><ele>249.0</ele><time>2026-04-04T09:56:20.999Z</time></trkpt><trkpt lat="45.97881724418817" lon="9.255420083970963"><ele>249.0</ele><time>2026-04-04T09:56:21.999Z</time></trkpt><trkpt lat="45.97883616461463" lon="9.255302965803406"><ele>249.0</ele><time>2026-04-04T09:56:22.999Z</time></trkpt><trkpt lat="45.978851655718316" lon="9.25519003531463"><ele>249.0</ele><time>2026-04-04T09:56:23.999Z</time></trkpt><trkpt lat="45.97886760431021" lon="9.255089462092503"><ele>247.5</ele><time>2026-04-04T09:56:24.999Z</time></trkpt><trkpt lat="45.97889139141236" lon="9.255005326568718"><ele>246.0</ele><time>2026-04-04T09:56:25.999Z</time></trkpt><trkpt lat="45.97892085435911" lon="9.254924402186635"><ele>244.5</ele><time>2026-04-04T09:56:26.999Z</time></trkpt><trkpt lat="45.97899983106927" lon="9.254789241000111"><ele>243.0</ele><time>2026-04-04T09:56:28.999Z</time></trkpt><trkpt lat="45.97909158578914" lon="9.254683407570901"><ele>241.5</ele><time>2026-04-04T09:56:30.999Z</time></trkpt><trkpt lat="45.97914780052969" lon="9.254632843977644"><ele>240.0</ele><time>2026-04-04T09:56:31.999Z</time></trkpt><trkpt lat="45.97923335323813" lon="9.254570937269637"><ele>236.16666666666666</ele><time>2026-04-04T09:56:33.999Z</time></trkpt><trkpt lat="45.97930881242597" lon="9.254530509453838"><ele>232.33333333333331</ele><time>2026-04-04T09:56:36.999Z</time></trkpt><trkpt lat="45.979369486311484" lon="9.25449104214038"><ele>228.5</ele><time>2026-04-04T09:56:38.999Z</time></trkpt><trkpt lat="45.97945200822701" lon="9.254455019793753"><ele>224.66666666666666</ele><time>2026-04-04T09:56:40.999Z</time></trkpt><trkpt lat="45.9795366137114" lon="9.254465990677762"><ele>220.83333333333331</ele><time>2026-04-04T09:56:43.999Z</time></trkpt><trkpt lat="45.97960998746355" lon="9.254492917262098"><ele>217.0</ele><time>2026-04-04T09:56:46.999Z</time></trkpt><trkpt lat="45.97968292514276" lon="9.254523761469699"><ele>217.0</ele><time>2026-04-04T09:56:51.999Z</time></trkpt><trkpt lat="45.979773286070696" lon="9.254563221742957"><ele>217.0</ele><time>2026-04-04T09:56:54.999Z</time></trkpt><trkpt lat="45.979843744049056" lon="9.254595651919834"><ele>217.0</ele><time>2026-04-04T09:56:56.999Z</time></trkpt><trkpt lat="45.979935384624234" lon="9.25463932007896"><ele>217.0</ele><time>2026-04-04T09:56:58.999Z</time></trkpt><trkpt lat="45.980051817995644" lon="9.25468958526686"><ele>217.0</ele><time>2026-04-04T09:57:00.999Z</time></trkpt><trkpt lat="45.98011298673236" lon="9.254714908542404"><ele>215.6</ele><time>2026-04-04T09:57:01.999Z</time></trkpt><trkpt lat="45.98017879092096" lon="9.254753753721776"><ele>214.2</ele><time>2026-04-04T09:57:02.999Z</time></trkpt><trkpt lat="45.98027622390293" lon="9.254824280687098"><ele>212.8</ele><time>2026-04-04T09:57:04.999Z</time></trkpt><trkpt lat="45.980391904486325" lon="9.254900792723209"><ele>211.4</ele><time>2026-04-04T09:57:06.999Z</time></trkpt><trkpt lat="45.98045351981414" lon="9.254943629649693"><ele>210.0</ele><time>2026-04-04T09:57:07.999Z</time></trkpt><trkpt lat="45.98056229307108" lon="9.255017144427267"><ele>209.2</ele><time>2026-04-04T09:57:09.999Z</time></trkpt><trkpt lat="45.98065722948302" lon="9.255084185302257"><ele>208.4</ele><time>2026-04-04T09:57:11.999Z</time></trkpt><trkpt lat="45.98075135062389" lon="9.255153642570884"><ele>207.60000000000002</ele><time>2026-04-04T09:57:13.999Z</time></trkpt><trkpt lat="45.980839021153315" lon="9.255216262812327"><ele>206.8</ele><time>2026-04-04T09:57:15.999Z</time></trkpt><trkpt lat="45.98092525784556" lon="9.25527078046595"><ele>206.0</ele><time>2026-04-04T09:57:17.999Z</time></trkpt><trkpt lat="45.98101064265029" lon="9.255331010622005"><ele>206.0</ele><time>2026-04-04T09:57:19.999Z</time></trkpt><trkpt lat="45.98112194757507" lon="9.255401853512613"><ele>206.0</ele><time>2026-04-04T09:57:21.999Z</time></trkpt><trkpt lat="45.98124001683586" lon="9.255490562964127"><ele>206.0</ele><time>2026-04-04T09:57:23.999Z</time></trkpt><trkpt lat="45.98130153171004" lon="9.255536574901727"><ele>206.0</ele><time>2026-04-04T09:57:24.999Z</time></trkpt><trkpt lat="45.98136208792146" lon="9.255575056481801"><ele>206.0</ele><time>2026-04-04T09:57:25.999Z</time></trkpt><trkpt lat="45.981421754643925" lon="9.255622131618455"><ele>205.33333333333334</ele><time>2026-04-04T09:57:26.999Z</time></trkpt><trkpt lat="45.98148093867648" lon="9.25567387610793"><ele>204.66666666666669</ele><time>2026-04-04T09:57:27.999Z</time></trkpt><trkpt lat="45.98153899384213" lon="9.255734532996627"><ele>204.0</ele><time>2026-04-04T09:57:28.999Z</time></trkpt><trkpt lat="45.98159214597445" lon="9.255807180202508"><ele>203.33333333333331</ele><time>2026-04-04T09:57:29.999Z</time></trkpt><trkpt lat="45.9816514715717" lon="9.25588753408402"><ele>202.66666666666666</ele><time>2026-04-04T09:57:30.999Z</time></trkpt><trkpt lat="45.9817109661639" lon="9.255965676964143"><ele>202.0</ele><time>2026-04-04T09:57:31.998Z</time></trkpt><trkpt lat="45.981773038073776" lon="9.256031076994674"><ele>202.0</ele><time>2026-04-04T09:57:32.998Z</time></trkpt><trkpt lat="45.981833900475905" lon="9.256088546980463"><ele>202.0</ele><time>2026-04-04T09:57:33.998Z</time></trkpt><trkpt lat="45.98190139657145" lon="9.256154385634755"><ele>202.0</ele><time>2026-04-04T09:57:35.998Z</time></trkpt><trkpt lat="45.981958400959996" lon="9.256194784581174"><ele>202.0</ele><time>2026-04-04T09:57:37.998Z</time></trkpt><trkpt lat="45.9820389118623" lon="9.256226962235445"><ele>202.0</ele><time>2026-04-04T09:57:41Z</time></trkpt><trkpt lat="45.982109095400794" lon="9.256246086175056"><ele>202.0</ele><time>2026-04-04T09:57:46Z</time></trkpt><trkpt lat="45.982178378292666" lon="9.256251545741875"><ele>202.0</ele><time>2026-04-04T09:57:49Z</time></trkpt><trkpt lat="45.9822486649264" lon="9.256275497111783"><ele>201.99999999999997</ele><time>2026-04-04T09:57:51Z</time></trkpt><trkpt lat="45.982313594498265" lon="9.256274892984507"><ele>202.0</ele><time>2026-04-04T09:57:53Z</time></trkpt><trkpt lat="45.98238310954797" lon="9.25627996409498"><ele>202.0</ele><time>2026-04-04T09:57:55Z</time></trkpt><trkpt lat="45.98247487226337" lon="9.25631858081083"><ele>202.0</ele><time>2026-04-04T09:57:58Z</time></trkpt><trkpt lat="45.98254177683886" lon="9.256384922777862"><ele>201.99999999999997</ele><time>2026-04-04T09:58:00Z</time></trkpt><trkpt lat="45.982601482600636" lon="9.256438689025355"><ele>202.0</ele><time>2026-04-04T09:58:02Z</time></trkpt><trkpt lat="45.98265589610382" lon="9.256508284662722"><ele>201.71428571428572</ele><time>2026-04-04T09:58:04Z</time></trkpt><trkpt lat="45.98271807294307" lon="9.256585960603013"><ele>201.42857142857142</ele><time>2026-04-04T09:58:07Z</time></trkpt><trkpt lat="45.98276810589407" lon="9.256649626940362"><ele>201.14285714285717</ele><time>2026-04-04T09:58:10Z</time></trkpt><trkpt lat="45.982825390241544" lon="9.256711250767102"><ele>200.85714285714286</ele><time>2026-04-04T09:58:13Z</time></trkpt><trkpt lat="45.98288396172273" lon="9.25678009465907"><ele>200.57142857142858</ele><time>2026-04-04T09:58:16Z</time></trkpt><trkpt lat="45.982943864756216" lon="9.256851186834906"><ele>200.2857142857143</ele><time>2026-04-04T09:58:19Z</time></trkpt><trkpt lat="45.98299471099531" lon="9.256924169030347"><ele>200.0</ele><time>2026-04-04T09:58:23Z</time></trkpt><trkpt lat="45.98304417173374" lon="9.256996010868757"><ele>200.00000000000003</ele><time>2026-04-04T09:58:27.999Z</time></trkpt><trkpt lat="45.98309145891371" lon="9.257071464352597"><ele>200.0</ele><time>2026-04-04T09:58:30.999Z</time></trkpt><trkpt lat="45.983149958299876" lon="9.257159200935222"><ele>200.0</ele><time>2026-04-04T09:58:34.999Z</time></trkpt><trkpt lat="45.98319983804397" lon="9.257229046384348"><ele>200.0</ele><time>2026-04-04T09:58:38.999Z</time></trkpt><trkpt lat="45.98325844234693" lon="9.257301164060484"><ele>200.00000000000003</ele><time>2026-04-04T09:58:42.999Z</time></trkpt><trkpt lat="45.983315742275224" lon="9.2573878471551"><ele>200.0</ele><time>2026-04-04T09:58:46.999Z</time></trkpt><trkpt lat="45.98337017384371" lon="9.257467394650334"><ele>200.16666666666669</ele><time>2026-04-04T09:58:49.999Z</time></trkpt><trkpt lat="45.98339805697675" lon="9.257553865855565"><ele>200.33333333333334</ele><time>2026-04-04T10:01:17.999Z</time></trkpt><trkpt lat="45.983457922676415" lon="9.257641085853946"><ele>200.5</ele><time>2026-04-04T10:01:19.999Z</time></trkpt><trkpt lat="45.9835245370208" lon="9.257727857190538"><ele>200.66666666666669</ele><time>2026-04-04T10:01:21.999Z</time></trkpt><trkpt lat="45.98359511408253" lon="9.257832151701233"><ele>200.83333333333334</ele><time>2026-04-04T10:01:23.999Z</time></trkpt><trkpt lat="45.98366333804126" lon="9.257928850729858"><ele>201.0</ele><time>2026-04-04T10:01:25.999Z</time></trkpt><trkpt lat="45.983722131176314" lon="9.258012943659132"><ele>201.0</ele><time>2026-04-04T10:01:27.999Z</time></trkpt><trkpt lat="45.983782300120986" lon="9.258078238594393"><ele>201.0</ele><time>2026-04-04T10:01:30.999Z</time></trkpt><trkpt lat="45.98383614405069" lon="9.258127556795605"><ele>201.0</ele><time>2026-04-04T10:01:34.999Z</time></trkpt><trkpt lat="45.98393116150547" lon="9.258186895496976"><ele>201.0</ele><time>2026-04-04T10:02:25Z</time></trkpt><trkpt lat="45.98403449365887" lon="9.258253131311793"><ele>201.0</ele><time>2026-04-04T10:02:27Z</time></trkpt><trkpt lat="45.984095094311265" lon="9.258288153331673"><ele>201.0</ele><time>2026-04-04T10:02:28Z</time></trkpt><trkpt lat="45.98420057052745" lon="9.258341789459257"><ele>200.8</ele><time>2026-04-04T10:02:30Z</time></trkpt><trkpt lat="45.984307231943504" lon="9.25840928485867"><ele>200.60000000000002</ele><time>2026-04-04T10:02:32Z</time></trkpt><trkpt lat="45.98439511840112" lon="9.258470992057177"><ele>200.4</ele><time>2026-04-04T10:02:34Z</time></trkpt><trkpt lat="45.984473137304455" lon="9.258541569503677"><ele>200.2</ele><time>2026-04-04T10:02:36Z</time></trkpt><trkpt lat="45.98453762530099" lon="9.258625260159267"><ele>200.0</ele><time>2026-04-04T10:02:38Z</time></trkpt><trkpt lat="45.98460929900964" lon="9.258730432797847"><ele>200.0</ele><time>2026-04-04T10:02:40Z</time></trkpt><trkpt lat="45.98467621710303" lon="9.25883339625578"><ele>200.0</ele><time>2026-04-04T10:02:42Z</time></trkpt><trkpt lat="45.984748964752555" lon="9.258939420285882"><ele>200.0</ele><time>2026-04-04T10:02:44Z</time></trkpt><trkpt lat="45.98482296291529" lon="9.259049915535304"><ele>200.0</ele><time>2026-04-04T10:02:46Z</time></trkpt><trkpt lat="45.98488934021201" lon="9.25913962240097"><ele>200.0</ele><time>2026-04-04T10:02:48Z</time></trkpt><trkpt lat="45.98496665876708" lon="9.259259718376706"><ele>199.8</ele><time>2026-04-04T10:02:49.999Z</time></trkpt><trkpt lat="45.98504433663061" lon="9.25938318978216"><ele>199.6</ele><time>2026-04-04T10:02:51.999Z</time></trkpt><trkpt lat="45.98512781217858" lon="9.259498829706327"><ele>199.39999999999998</ele><time>2026-04-04T10:02:53.999Z</time></trkpt><trkpt lat="45.985200233572556" lon="9.259613641551544"><ele>199.2</ele><time>2026-04-04T10:02:55.999Z</time></trkpt><trkpt lat="45.98526506344988" lon="9.259710595825302"><ele>199.0</ele><time>2026-04-04T10:02:57.999Z</time></trkpt><trkpt lat="45.9853156202226" lon="9.259780979177677"><ele>199.16666666666666</ele><time>2026-04-04T10:02:59.999Z</time></trkpt><trkpt lat="45.98536174486645" lon="9.259876521289192"><ele>199.33333333333331</ele><time>2026-04-04T10:03:01.999Z</time></trkpt><trkpt lat="45.9853440443269" lon="9.26000277541717"><ele>199.5</ele><time>2026-04-04T10:03:04.999Z</time></trkpt><trkpt lat="45.98531413289281" lon="9.260082858117448"><ele>199.66666666666669</ele><time>2026-04-04T10:03:06.999Z</time></trkpt><trkpt lat="45.9852499838967" lon="9.260175680462304"><ele>199.83333333333334</ele><time>2026-04-04T10:03:08.999Z</time></trkpt><trkpt lat="45.985198276569044" lon="9.260266357351767"><ele>200.0</ele><time>2026-04-04T10:03:10.999Z</time></trkpt><trkpt lat="45.98519433422811" lon="9.260372781135928"><ele>200.00000000000003</ele><time>2026-04-04T10:03:12.999Z</time></trkpt><trkpt lat="45.985236372346435" lon="9.260449265571125"><ele>200.0</ele><time>2026-04-04T10:03:14.999Z</time></trkpt><trkpt lat="45.98529316617167" lon="9.260518051693982"><ele>200.0</ele><time>2026-04-04T10:03:17.999Z</time></trkpt><trkpt lat="45.985325278312715" lon="9.260619224829027"><ele>200.0</ele><time>2026-04-04T10:03:19.999Z</time></trkpt><trkpt lat="45.985262576955805" lon="9.260713923303785"><ele>200.00000000000003</ele><time>2026-04-04T10:03:21.999Z</time></trkpt><trkpt lat="45.98516659321696" lon="9.26069037977338"><ele>200.0</ele><time>2026-04-04T10:03:23.999Z</time></trkpt><trkpt lat="45.98507551954712" lon="9.260628793693803"><ele>202.4</ele><time>2026-04-04T10:03:25.999Z</time></trkpt><trkpt lat="45.984995342206226" lon="9.260571451735064"><ele>204.8</ele><time>2026-04-04T10:03:27.999Z</time></trkpt><trkpt lat="45.984917084426776" lon="9.260505672039999"><ele>207.2</ele><time>2026-04-04T10:03:29.999Z</time></trkpt><trkpt lat="45.984839416925816" lon="9.26043370193668"><ele>209.6</ele><time>2026-04-04T10:03:31.999Z</time></trkpt><trkpt lat="45.984762059212585" lon="9.26035282543204"><ele>212.0</ele><time>2026-04-04T10:03:33.999Z</time></trkpt><trkpt lat="45.98468812585628" lon="9.260267524982552"><ele>212.00000000000003</ele><time>2026-04-04T10:03:35.999Z</time></trkpt><trkpt lat="45.984619014728075" lon="9.260177748714563"><ele>212.0</ele><time>2026-04-04T10:03:37.999Z</time></trkpt><trkpt lat="45.98454515324444" lon="9.260074224081063"><ele>212.0</ele><time>2026-04-04T10:03:39.999Z</time></trkpt><trkpt lat="45.98448906025014" lon="9.259966300672268"><ele>212.0</ele><time>2026-04-04T10:03:41.999Z</time></trkpt><trkpt lat="45.98441812201727" lon="9.259913444723162"><ele>212.00000000000003</ele><time>2026-04-04T10:03:43.999Z</time></trkpt><trkpt lat="45.98435430367677" lon="9.259972242935321"><ele>212.0</ele><time>2026-04-04T10:03:45.999Z</time></trkpt><trkpt lat="45.984333051702706" lon="9.260116028849662"><ele>212.0</ele><time>2026-04-04T10:03:47.999Z</time></trkpt><trkpt lat="45.98432451235206" lon="9.26027226071722"><ele>212.0</ele><time>2026-04-04T10:03:49.999Z</time></trkpt><trkpt lat="45.9843245061136" lon="9.26041395443723"><ele>212.0</ele><time>2026-04-04T10:03:51.999Z</time></trkpt><trkpt lat="45.98433462137913" lon="9.260542340448119"><ele>212.0</ele><time>2026-04-04T10:03:52.999Z</time></trkpt><trkpt lat="45.98434774312539" lon="9.260682044978275"><ele>212.0</ele><time>2026-04-04T10:03:53.999Z</time></trkpt><trkpt lat="45.98436706919387" lon="9.260817217602586"><ele>213.39999999999998</ele><time>2026-04-04T10:03:54.999Z</time></trkpt><trkpt lat="45.98438553315851" lon="9.260955675608125"><ele>214.79999999999998</ele><time>2026-04-04T10:03:55.999Z</time></trkpt><trkpt lat="45.98440361406351" lon="9.261054279885457"><ele>216.2</ele><time>2026-04-04T10:03:56.999Z</time></trkpt><trkpt lat="45.984456643966595" lon="9.261199478237126"><ele>217.6</ele><time>2026-04-04T10:03:57.999Z</time></trkpt><trkpt lat="45.98450358216609" lon="9.261292187441864"><ele>219.0</ele><time>2026-04-04T10:03:59Z</time></trkpt><trkpt lat="45.984578563635175" lon="9.261435329518369"><ele>220.83333333333334</ele><time>2026-04-04T10:04:01Z</time></trkpt><trkpt lat="45.984632818326254" lon="9.261506451475265"><ele>222.66666666666669</ele><time>2026-04-04T10:04:02Z</time></trkpt><trkpt lat="45.984680301335736" lon="9.261573165338142"><ele>224.5</ele><time>2026-04-04T10:04:03Z</time></trkpt><trkpt lat="45.984728655857246" lon="9.26163174473955"><ele>226.33333333333334</ele><time>2026-04-04T10:04:04Z</time></trkpt><trkpt lat="45.98483850261001" lon="9.261708245015555"><ele>228.16666666666669</ele><time>2026-04-04T10:04:06Z</time></trkpt><trkpt lat="45.98493418381875" lon="9.261768612512542"><ele>230.0</ele><time>2026-04-04T10:04:08Z</time></trkpt><trkpt lat="45.98500359677503" lon="9.26181332527473"><ele>228.66666666666669</ele><time>2026-04-04T10:04:10Z</time></trkpt><trkpt lat="45.98506179584052" lon="9.261857933569908"><ele>227.33333333333334</ele><time>2026-04-04T10:04:14Z</time></trkpt><trkpt lat="45.98513752786435" lon="9.26191003973666"><ele>226.0</ele><time>2026-04-04T10:04:19Z</time></trkpt><trkpt lat="45.98520168897879" lon="9.262014725102906"><ele>224.66666666666669</ele><time>2026-04-04T10:04:22Z</time></trkpt><trkpt lat="45.98520807027938" lon="9.262137919113266"><ele>223.33333333333334</ele><time>2026-04-04T10:04:24Z</time></trkpt><trkpt lat="45.98515668302229" lon="9.262238716233718"><ele>222.0</ele><time>2026-04-04T10:04:26Z</time></trkpt><trkpt lat="45.9850249035976" lon="9.262223060074396"><ele>223.6</ele><time>2026-04-04T10:04:28Z</time></trkpt><trkpt lat="45.98496853156329" lon="9.262166497438558"><ele>225.2</ele><time>2026-04-04T10:04:29Z</time></trkpt><trkpt lat="45.98485623317846" lon="9.262095106665107"><ele>226.8</ele><time>2026-04-04T10:04:31Z</time></trkpt><trkpt lat="45.984747192455785" lon="9.262040756314525"><ele>228.4</ele><time>2026-04-04T10:04:33Z</time></trkpt><trkpt lat="45.9846482037537" lon="9.261986138106092"><ele>230.0</ele><time>2026-04-04T10:04:35Z</time></trkpt><trkpt lat="45.98456765732316" lon="9.261948377192507"><ele>230.00000000000003</ele><time>2026-04-04T10:04:37Z</time></trkpt><trkpt lat="45.98450772970236" lon="9.26191441704241"><ele>230.0</ele><time>2026-04-04T10:04:39Z</time></trkpt><trkpt lat="45.984437414168546" lon="9.26186878997941"><ele>230.0</ele><time>2026-04-04T10:04:43Z</time></trkpt><trkpt lat="45.98436614471989" lon="9.261804285706376"><ele>230.0</ele><time>2026-04-04T10:04:45Z</time></trkpt><trkpt lat="45.984303225662515" lon="9.261720760949983"><ele>230.00000000000003</ele><time>2026-04-04T10:04:47Z</time></trkpt><trkpt lat="45.98422367848447" lon="9.261663845745725"><ele>230.0</ele><time>2026-04-04T10:04:50Z</time></trkpt><trkpt lat="45.98410585727194" lon="9.261645487333148"><ele>232.2</ele><time>2026-04-04T10:04:52Z</time></trkpt><trkpt lat="45.9839835203989" lon="9.261627509266082"><ele>234.4</ele><time>2026-04-04T10:04:54Z</time></trkpt><trkpt lat="45.98389941002091" lon="9.261629625390997"><ele>236.60000000000002</ele><time>2026-04-04T10:04:58.999Z</time></trkpt><trkpt lat="45.98380463767737" lon="9.261684428925122"><ele>238.8</ele><time>2026-04-04T10:04:59.999Z</time></trkpt><trkpt lat="45.98373788091525" lon="9.261718007429714"><ele>241.0</ele><time>2026-04-04T10:05:00.999Z</time></trkpt><trkpt lat="45.983623394675305" lon="9.261748279619603"><ele>240.99999999999997</ele><time>2026-04-04T10:05:02.999Z</time></trkpt><trkpt lat="45.98355590414813" lon="9.261744906933663"><ele>241.0</ele><time>2026-04-04T10:05:03.999Z</time></trkpt><trkpt lat="45.98347432511792" lon="9.261734059107091"><ele>241.0</ele><time>2026-04-04T10:05:05.999Z</time></trkpt><trkpt lat="45.983394477343204" lon="9.261711575652226"><ele>241.0</ele><time>2026-04-04T10:05:07.999Z</time></trkpt><trkpt lat="45.98329451430469" lon="9.261690166036841"><ele>240.99999999999997</ele><time>2026-04-04T10:05:09.999Z</time></trkpt><trkpt lat="45.98318167703692" lon="9.261653518982694"><ele>241.0</ele><time>2026-04-04T10:05:11.999Z</time></trkpt><trkpt lat="45.98309047267025" lon="9.261632566672267"><ele>241.4</ele><time>2026-04-04T10:05:13.999Z</time></trkpt><trkpt lat="45.98299584787562" lon="9.261604083183286"><ele>241.8</ele><time>2026-04-04T10:05:15.999Z</time></trkpt><trkpt lat="45.982886049688396" lon="9.261569862891106"><ele>242.20000000000002</ele><time>2026-04-04T10:05:17.999Z</time></trkpt><trkpt lat="45.98281076392356" lon="9.26156007611776"><ele>242.60000000000002</ele><time>2026-04-04T10:05:19.999Z</time></trkpt><trkpt lat="45.98272711620694" lon="9.261570003370673"><ele>243.0</ele><time>2026-04-04T10:05:33.999Z</time></trkpt><trkpt lat="45.98264459942136" lon="9.261560998771742"><ele>243.0</ele><time>2026-04-04T10:05:35.999Z</time></trkpt><trkpt lat="45.982557964489985" lon="9.26156861099804"><ele>243.0</ele><time>2026-04-04T10:05:37.999Z</time></trkpt><trkpt lat="45.98246160608391" lon="9.261557052720814"><ele>243.0</ele><time>2026-04-04T10:05:39.999Z</time></trkpt><trkpt lat="45.982354089450745" lon="9.261554643813215"><ele>243.0</ele><time>2026-04-04T10:05:41.999Z</time></trkpt><trkpt lat="45.98225363410097" lon="9.26154341719195"><ele>243.0</ele><time>2026-04-04T10:05:43.999Z</time></trkpt><trkpt lat="45.98216565888839" lon="9.261541647909336"><ele>242.8</ele><time>2026-04-04T10:05:45.999Z</time></trkpt><trkpt lat="45.98207645296683" lon="9.261534657600475"><ele>242.60000000000002</ele><time>2026-04-04T10:05:47.999Z</time></trkpt><trkpt lat="45.98198395774196" lon="9.261523074065453"><ele>242.39999999999998</ele><time>2026-04-04T10:05:49.999Z</time></trkpt><trkpt lat="45.98189270680022" lon="9.261483010965359"><ele>242.2</ele><time>2026-04-04T10:05:51.999Z</time></trkpt><trkpt lat="45.981801655218284" lon="9.2614231940266"><ele>242.0</ele><time>2026-04-04T10:05:53.999Z</time></trkpt><trkpt lat="45.98173052806081" lon="9.261360406210498"><ele>242.83333333333334</ele><time>2026-04-04T10:05:55.999Z</time></trkpt><trkpt lat="45.98164287707967" lon="9.261292545776067"><ele>243.66666666666669</ele><time>2026-04-04T10:05:57.999Z</time></trkpt><trkpt lat="45.98158129132179" lon="9.261260868892737"><ele>244.5</ele><time>2026-04-04T10:05:58.999Z</time></trkpt><trkpt lat="45.98150896725375" lon="9.26122201646962"><ele>245.33333333333331</ele><time>2026-04-04T10:05:59.999Z</time></trkpt><trkpt lat="45.98142126959543" lon="9.261274056116411"><ele>246.16666666666666</ele><time>2026-04-04T10:06:00.999Z</time></trkpt><trkpt lat="45.9813302056582" lon="9.261332714920643"><ele>247.0</ele><time>2026-04-04T10:06:01.999Z</time></trkpt><trkpt lat="45.98123680601305" lon="9.261392575651422"><ele>246.2</ele><time>2026-04-04T10:06:02.999Z</time></trkpt><trkpt lat="45.9811381518251" lon="9.261451524441732"><ele>245.39999999999998</ele><time>2026-04-04T10:06:03.999Z</time></trkpt><trkpt lat="45.98102880182455" lon="9.261525738162948"><ele>244.60000000000002</ele><time>2026-04-04T10:06:05Z</time></trkpt><trkpt lat="45.980925641964205" lon="9.261576902558376"><ele>243.8</ele><time>2026-04-04T10:06:06Z</time></trkpt><trkpt lat="45.980837535634876" lon="9.261618070457684"><ele>243.0</ele><time>2026-04-04T10:06:07Z</time></trkpt><trkpt lat="45.98076322966915" lon="9.261649491915188"><ele>243.0</ele><time>2026-04-04T10:06:08Z</time></trkpt><trkpt lat="45.980693757763895" lon="9.261683123475137"><ele>243.0</ele><time>2026-04-04T10:06:09Z</time></trkpt><trkpt lat="45.980622558916586" lon="9.261712437741586"><ele>243.0</ele><time>2026-04-04T10:06:10Z</time></trkpt><trkpt lat="45.98055847249272" lon="9.261748669941202"><ele>243.0</ele><time>2026-04-04T10:06:11Z</time></trkpt><trkpt lat="45.98049483644289" lon="9.261779989110007"><ele>243.0</ele><time>2026-04-04T10:06:13Z</time></trkpt><trkpt lat="45.98040092068791" lon="9.261860879419345"><ele>243.0</ele><time>2026-04-04T10:06:17Z</time></trkpt><trkpt lat="45.980278440830396" lon="9.261872572800103"><ele>243.0</ele><time>2026-04-04T10:06:19Z</time></trkpt><trkpt lat="45.98020182126289" lon="9.26193431205488"><ele>243.0</ele><time>2026-04-04T10:06:20Z</time></trkpt><trkpt lat="45.980118121754984" lon="9.26205722818776"><ele>243.0</ele><time>2026-04-04T10:06:21Z</time></trkpt><trkpt lat="45.98000082828606" lon="9.26215018154071"><ele>243.0</ele><time>2026-04-04T10:06:22Z</time></trkpt><trkpt lat="45.979860147214154" lon="9.262258184459517"><ele>242.0</ele><time>2026-04-04T10:06:23Z</time></trkpt><trkpt lat="45.979744049482456" lon="9.262381188875649"><ele>241.0</ele><time>2026-04-04T10:06:24Z</time></trkpt><trkpt lat="45.97962361941487" lon="9.262443610066526"><ele>240.0</ele><time>2026-04-04T10:06:25Z</time></trkpt><trkpt lat="45.97953466253008" lon="9.262508014484329"><ele>239.0</ele><time>2026-04-04T10:06:26Z</time></trkpt><trkpt lat="45.97946731257089" lon="9.262558776975276"><ele>238.0</ele><time>2026-04-04T10:06:27Z</time></trkpt><trkpt lat="45.979375536847755" lon="9.262636134246016"><ele>238.0</ele><time>2026-04-04T10:06:29Z</time></trkpt><trkpt lat="45.979283484786045" lon="9.262707997548342"><ele>238.0</ele><time>2026-04-04T10:06:31Z</time></trkpt><trkpt lat="45.97917960427161" lon="9.262780133800547"><ele>238.0</ele><time>2026-04-04T10:06:33Z</time></trkpt><trkpt lat="45.97911334361039" lon="9.262819362695312"><ele>238.0</ele><time>2026-04-04T10:06:34Z</time></trkpt><trkpt lat="45.97903095361442" lon="9.262820263251996"><ele>238.0</ele><time>2026-04-04T10:06:35Z</time></trkpt><trkpt lat="45.978951996035846" lon="9.262829177913535"><ele>238.99999999999997</ele><time>2026-04-04T10:06:36Z</time></trkpt><trkpt lat="45.97887319718815" lon="9.26282622440197"><ele>240.0</ele><time>2026-04-04T10:06:37Z</time></trkpt><trkpt lat="45.97880165660308" lon="9.26281922962296"><ele>241.0</ele><time>2026-04-04T10:06:38Z</time></trkpt><trkpt lat="45.978725645135086" lon="9.262807783843796"><ele>242.0</ele><time>2026-04-04T10:06:39Z</time></trkpt><trkpt lat="45.978650782822044" lon="9.262794116061063"><ele>242.99999999999997</ele><time>2026-04-04T10:06:40Z</time></trkpt><trkpt lat="45.978573147081846" lon="9.262780055061825"><ele>244.0</ele><time>2026-04-04T10:06:41Z</time></trkpt><trkpt lat="45.978494516846084" lon="9.262766265809091"><ele>243.99999999999997</ele><time>2026-04-04T10:06:42Z</time></trkpt><trkpt lat="45.9784174772667" lon="9.26275291043789"><ele>244.0</ele><time>2026-04-04T10:06:43Z</time></trkpt><trkpt lat="45.97833956265029" lon="9.262752075855119"><ele>244.0</ele><time>2026-04-04T10:06:44Z</time></trkpt><trkpt lat="45.9782613144476" lon="9.26273281212721"><ele>244.0</ele><time>2026-04-04T10:06:45Z</time></trkpt><trkpt lat="45.97818403672768" lon="9.26271736812291"><ele>243.99999999999997</ele><time>2026-04-04T10:06:46Z</time></trkpt><trkpt lat="45.978109796530944" lon="9.262702378140675"><ele>244.0</ele><time>2026-04-04T10:06:47Z</time></trkpt><trkpt lat="45.97804459272756" lon="9.262689399160895"><ele>243.33333333333331</ele><time>2026-04-04T10:06:48Z</time></trkpt><trkpt lat="45.97792213692279" lon="9.262664441158613"><ele>242.66666666666666</ele><time>2026-04-04T10:06:50Z</time></trkpt><trkpt lat="45.977855303968425" lon="9.262645503913626"><ele>242.0</ele><time>2026-04-04T10:06:51Z</time></trkpt><trkpt lat="45.97778366614039" lon="9.262629142926489"><ele>241.33333333333331</ele><time>2026-04-04T10:06:52Z</time></trkpt><trkpt lat="45.97771679899416" lon="9.26261702036405"><ele>240.66666666666666</ele><time>2026-04-04T10:06:53Z</time></trkpt><trkpt lat="45.977601397123095" lon="9.262595976885288"><ele>240.0</ele><time>2026-04-04T10:06:54.999Z</time></trkpt><trkpt lat="45.97748560754335" lon="9.26257679235841"><ele>239.0</ele><time>2026-04-04T10:06:56.999Z</time></trkpt><trkpt lat="45.9774118709207" lon="9.262557437203437"><ele>238.0</ele><time>2026-04-04T10:06:58.999Z</time></trkpt><trkpt lat="45.977326160616556" lon="9.262531654875538"><ele>237.0</ele><time>2026-04-04T10:07:01.999Z</time></trkpt><trkpt lat="45.9772374885759" lon="9.262506197665978"><ele>236.0</ele><time>2026-04-04T10:07:02.999Z</time></trkpt><trkpt lat="45.97712154019908" lon="9.262492088237682"><ele>235.0</ele><time>2026-04-04T10:07:03.999Z</time></trkpt><trkpt lat="45.97700652899821" lon="9.262479164379863"><ele>235.0</ele><time>2026-04-04T10:07:04.999Z</time></trkpt><trkpt lat="45.976887751205176" lon="9.262451495886525"><ele>235.0</ele><time>2026-04-04T10:07:05.999Z</time></trkpt><trkpt lat="45.976758952522054" lon="9.26241955680222"><ele>235.0</ele><time>2026-04-04T10:07:06.999Z</time></trkpt><trkpt lat="45.976621160275876" lon="9.26239313918062"><ele>235.0</ele><time>2026-04-04T10:07:07.999Z</time></trkpt><trkpt lat="45.97648714072445" lon="9.26236525695825"><ele>234.8</ele><time>2026-04-04T10:07:08.999Z</time></trkpt><trkpt lat="45.976357126297145" lon="9.262336614562857"><ele>234.6</ele><time>2026-04-04T10:07:09.999Z</time></trkpt><trkpt lat="45.976259494738535" lon="9.262318612894514"><ele>234.39999999999998</ele><time>2026-04-04T10:07:10.999Z</time></trkpt><trkpt lat="45.97616478993537" lon="9.262298754903137"><ele>234.2</ele><time>2026-04-04T10:07:12.999Z</time></trkpt><trkpt lat="45.97608426871465" lon="9.262285906304674"><ele>234.0</ele><time>2026-04-04T10:07:17.999Z</time></trkpt><trkpt lat="45.97602044114994" lon="9.262271978728068"><ele>234.0</ele><time>2026-04-04T10:07:18.999Z</time></trkpt><trkpt lat="45.97594450172103" lon="9.262257444209228"><ele>233.99999999999997</ele><time>2026-04-04T10:07:19.999Z</time></trkpt><trkpt lat="45.97586089659126" lon="9.262237683932575"><ele>233.99999999999997</ele><time>2026-04-04T10:07:20.999Z</time></trkpt><trkpt lat="45.97575787370828" lon="9.262214235091834"><ele>234.0</ele><time>2026-04-04T10:07:21.999Z</time></trkpt><trkpt lat="45.97563899626803" lon="9.262198601624032"><ele>234.0</ele><time>2026-04-04T10:07:22.999Z</time></trkpt><trkpt lat="45.97552208514882" lon="9.262188642082519"><ele>233.75</ele><time>2026-04-04T10:07:23.999Z</time></trkpt><trkpt lat="45.97539912617427" lon="9.262160098642886"><ele>233.5</ele><time>2026-04-04T10:07:24.999Z</time></trkpt><trkpt lat="45.97527773565728" lon="9.26210374652661"><ele>233.25</ele><time>2026-04-04T10:07:25.999Z</time></trkpt><trkpt lat="45.97516267820233" lon="9.26197621026232"><ele>233.0</ele><time>2026-04-04T10:07:26.999Z</time></trkpt><trkpt lat="45.97507455711654" lon="9.261861102178713"><ele>235.0</ele><time>2026-04-04T10:07:27.999Z</time></trkpt><trkpt lat="45.974961802898825" lon="9.261746975430798"><ele>237.0</ele><time>2026-04-04T10:07:28.999Z</time></trkpt><trkpt lat="45.97487556140671" lon="9.261615610858486"><ele>239.0</ele><time>2026-04-04T10:07:29.999Z</time></trkpt><trkpt lat="45.97479027396796" lon="9.261506688236288"><ele>241.0</ele><time>2026-04-04T10:07:30.999Z</time></trkpt><trkpt lat="45.974695973308926" lon="9.261419856109354"><ele>241.0</ele><time>2026-04-04T10:07:31.999Z</time></trkpt><trkpt lat="45.974584550270954" lon="9.261364180114887"><ele>241.0</ele><time>2026-04-04T10:07:32.999Z</time></trkpt><trkpt lat="45.97447015275712" lon="9.261313860144858"><ele>241.0</ele><time>2026-04-04T10:07:33.999Z</time></trkpt><trkpt lat="45.974357085531395" lon="9.26129105665015"><ele>241.0</ele><time>2026-04-04T10:07:34.999Z</time></trkpt><trkpt lat="45.97424807112957" lon="9.261291648000846"><ele>243.4</ele><time>2026-04-04T10:07:35.999Z</time></trkpt><trkpt lat="45.97415101569496" lon="9.261302702125645"><ele>245.8</ele><time>2026-04-04T10:07:36.999Z</time></trkpt><trkpt lat="45.97405427286009" lon="9.261269488089624"><ele>248.20000000000002</ele><time>2026-04-04T10:07:37.999Z</time></trkpt><trkpt lat="45.97398101474867" lon="9.261169524596808"><ele>250.60000000000002</ele><time>2026-04-04T10:07:38.999Z</time></trkpt><trkpt lat="45.97394935289849" lon="9.261044629959956"><ele>253.0</ele><time>2026-04-04T10:07:39.999Z</time></trkpt><trkpt lat="45.97394926726037" lon="9.260917709295475"><ele>252.99999999999997</ele><time>2026-04-04T10:07:40.999Z</time></trkpt><trkpt lat="45.97398220231147" lon="9.260805996147253"><ele>253.0</ele><time>2026-04-04T10:07:41.999Z</time></trkpt><trkpt lat="45.97402146322326" lon="9.260703308290111"><ele>253.0</ele><time>2026-04-04T10:07:42.999Z</time></trkpt><trkpt lat="45.97406309579776" lon="9.260629773928931"><ele>253.0</ele><time>2026-04-04T10:07:43.999Z</time></trkpt><trkpt lat="45.97411839541969" lon="9.260478127540816"><ele>252.99999999999997</ele><time>2026-04-04T10:07:45.999Z</time></trkpt><trkpt lat="45.97414939159371" lon="9.260395530728859"><ele>253.0</ele><time>2026-04-04T10:07:46.999Z</time></trkpt><trkpt lat="45.97417689841605" lon="9.26031105890244"><ele>251.16666666666666</ele><time>2026-04-04T10:07:47.999Z</time></trkpt><trkpt lat="45.97422169555826" lon="9.260174139897666"><ele>249.33333333333331</ele><time>2026-04-04T10:07:49.999Z</time></trkpt><trkpt lat="45.97419854865186" lon="9.260029016188769"><ele>247.5</ele><time>2026-04-04T10:07:51.999Z</time></trkpt><trkpt lat="45.974137033055655" lon="9.259983140918713"><ele>245.66666666666669</ele><time>2026-04-04T10:07:52.999Z</time></trkpt><trkpt lat="45.97407132579173" lon="9.259977670541122"><ele>243.83333333333334</ele><time>2026-04-04T10:07:53.999Z</time></trkpt><trkpt lat="45.97400713904389" lon="9.260013345519114"><ele>242.0</ele><time>2026-04-04T10:07:54.999Z</time></trkpt><trkpt lat="45.973968037485385" lon="9.26010446928634"><ele>244.75</ele><time>2026-04-04T10:07:55.999Z</time></trkpt><trkpt lat="45.973952362601615" lon="9.260264073457586"><ele>247.5</ele><time>2026-04-04T10:07:57.999Z</time></trkpt><trkpt lat="45.97390379592025" lon="9.260417164425188"><ele>250.25</ele><time>2026-04-04T10:07:58.999Z</time></trkpt><trkpt lat="45.97384086360476" lon="9.26060465975269"><ele>253.0</ele><time>2026-04-04T10:07:59.999Z</time></trkpt><trkpt lat="45.97376883422132" lon="9.26080561438575"><ele>253.0</ele><time>2026-04-04T10:08:00.999Z</time></trkpt><trkpt lat="45.97369589434927" lon="9.26096864165616"><ele>253.0</ele><time>2026-04-04T10:08:01.999Z</time></trkpt><trkpt lat="45.97361824350638" lon="9.261081571782158"><ele>253.0</ele><time>2026-04-04T10:08:02.999Z</time></trkpt><trkpt lat="45.97351854329388" lon="9.261142278788235"><ele>253.0</ele><time>2026-04-04T10:08:03.999Z</time></trkpt><trkpt lat="45.97339899708331" lon="9.261125671560157"><ele>257.25</ele><time>2026-04-04T10:08:04.999Z</time></trkpt><trkpt lat="45.973293944356506" lon="9.261111651241713"><ele>261.5</ele><time>2026-04-04T10:08:05.999Z</time></trkpt><trkpt lat="45.973196541323716" lon="9.261057096891175"><ele>265.75</ele><time>2026-04-04T10:08:06.999Z</time></trkpt><trkpt lat="45.973094744906454" lon="9.260963165954653"><ele>270.0</ele><time>2026-04-04T10:08:07.999Z</time></trkpt><trkpt lat="45.97300282045032" lon="9.260834529498972"><ele>270.0</ele><time>2026-04-04T10:08:08.999Z</time></trkpt><trkpt lat="45.972913083776156" lon="9.260697477117043"><ele>270.0</ele><time>2026-04-04T10:08:09.999Z</time></trkpt><trkpt lat="45.97283077194807" lon="9.260595936527523"><ele>270.0</ele><time>2026-04-04T10:08:11Z</time></trkpt><trkpt lat="45.972755765890064" lon="9.260523799551226"><ele>270.0</ele><time>2026-04-04T10:08:12Z</time></trkpt><trkpt lat="45.97268732002273" lon="9.260471179528583"><ele>270.0</ele><time>2026-04-04T10:08:13Z</time></trkpt><trkpt lat="45.9726214148413" lon="9.260425214927679"><ele>271.8</ele><time>2026-04-04T10:08:14Z</time></trkpt><trkpt lat="45.972541586030815" lon="9.260368441489664"><ele>273.6</ele><time>2026-04-04T10:08:15Z</time></trkpt><trkpt lat="45.9724474385338" lon="9.260305389976846"><ele>275.4</ele><time>2026-04-04T10:08:16Z</time></trkpt><trkpt lat="45.972360983950935" lon="9.260218809278491"><ele>277.2</ele><time>2026-04-04T10:08:17Z</time></trkpt><trkpt lat="45.97231940984625" lon="9.260067897302342"><ele>279.0</ele><time>2026-04-04T10:08:18Z</time></trkpt><trkpt lat="45.9722474153762" lon="9.259912547421722"><ele>281.6666666666667</ele><time>2026-04-04T10:08:19Z</time></trkpt><trkpt lat="45.972178497206784" lon="9.25973338026142"><ele>284.33333333333337</ele><time>2026-04-04T10:08:20Z</time></trkpt><trkpt lat="45.972103064074744" lon="9.259540435939126"><ele>287.0</ele><time>2026-04-04T10:08:21Z</time></trkpt><trkpt lat="45.97201510831964" lon="9.259352615676518"><ele>287.0</ele><time>2026-04-04T10:08:22Z</time></trkpt><trkpt lat="45.97189504463651" lon="9.259192046421319"><ele>287.0</ele><time>2026-04-04T10:08:23Z</time></trkpt><trkpt lat="45.97176928235242" lon="9.259038085938519"><ele>287.0</ele><time>2026-04-04T10:08:24Z</time></trkpt><trkpt lat="45.97163083141231" lon="9.258895255820944"><ele>289.5</ele><time>2026-04-04T10:08:25Z</time></trkpt><trkpt lat="45.97152211960614" lon="9.258751588070917"><ele>292.0</ele><time>2026-04-04T10:08:26Z</time></trkpt><trkpt lat="45.97140929903691" lon="9.258613869415043"><ele>294.5</ele><time>2026-04-04T10:08:27Z</time></trkpt><trkpt lat="45.97131142686503" lon="9.258497084737265"><ele>297.0</ele><time>2026-04-04T10:08:28Z</time></trkpt><trkpt lat="45.97118996555782" lon="9.258455742786005"><ele>297.0</ele><time>2026-04-04T10:08:29Z</time></trkpt><trkpt lat="45.97108285560277" lon="9.25847619578338"><ele>297.0</ele><time>2026-04-04T10:08:30Z</time></trkpt><trkpt lat="45.97098317299852" lon="9.258503919388092"><ele>297.0</ele><time>2026-04-04T10:08:31Z</time></trkpt><trkpt lat="45.97088809702828" lon="9.258521030459304"><ele>297.0</ele><time>2026-04-04T10:08:32Z</time></trkpt><trkpt lat="45.97080746198088" lon="9.258527577051476"><ele>297.0</ele><time>2026-04-04T10:08:33Z</time></trkpt><trkpt lat="45.970724599190945" lon="9.258534414435974"><ele>298.2857142857143</ele><time>2026-04-04T10:08:34Z</time></trkpt><trkpt lat="45.97065627193765" lon="9.258539944413954"><ele>299.5714285714286</ele><time>2026-04-04T10:08:35Z</time></trkpt><trkpt lat="45.97057065458975" lon="9.258538051379102"><ele>300.8571428571429</ele><time>2026-04-04T10:08:37Z</time></trkpt><trkpt lat="45.97049202866582" lon="9.25853573662297"><ele>302.14285714285717</ele><time>2026-04-04T10:08:55Z</time></trkpt><trkpt lat="45.970424112856186" lon="9.258520965811352"><ele>303.42857142857144</ele><time>2026-04-04T10:08:56Z</time></trkpt><trkpt lat="45.970364134491625" lon="9.25849244195436"><ele>304.7142857142857</ele><time>2026-04-04T10:08:57Z</time></trkpt><trkpt lat="45.9703003637127" lon="9.258436678781566"><ele>306.0</ele><time>2026-04-04T10:08:58Z</time></trkpt><trkpt lat="45.97024235493261" lon="9.25833915430372"><ele>306.0</ele><time>2026-04-04T10:08:59Z</time></trkpt><trkpt lat="45.970195063496504" lon="9.258219261540468"><ele>306.0</ele><time>2026-04-04T10:09:00Z</time></trkpt><trkpt lat="45.97013944098441" lon="9.258092117277938"><ele>306.0</ele><time>2026-04-04T10:09:01Z</time></trkpt><trkpt lat="45.970099880185614" lon="9.257943811468952"><ele>306.0</ele><time>2026-04-04T10:09:02Z</time></trkpt><trkpt lat="45.97008954612656" lon="9.257806599535533"><ele>306.0</ele><time>2026-04-04T10:09:03Z</time></trkpt><trkpt lat="45.97011703470575" lon="9.257639119621874"><ele>306.5</ele><time>2026-04-04T10:09:04Z</time></trkpt><trkpt lat="45.97016729608975" lon="9.257459263371292"><ele>307.0</ele><time>2026-04-04T10:09:04.999Z</time></trkpt><trkpt lat="45.97020732427059" lon="9.257257537340532"><ele>307.5</ele><time>2026-04-04T10:09:05.999Z</time></trkpt><trkpt lat="45.97023806681919" lon="9.257031373156018"><ele>308.0</ele><time>2026-04-04T10:09:06.999Z</time></trkpt><trkpt lat="45.97027698641812" lon="9.25679991175548"><ele>308.25</ele><time>2026-04-04T10:09:07.999Z</time></trkpt><trkpt lat="45.97031379358201" lon="9.256578552634908"><ele>308.5</ele><time>2026-04-04T10:09:08.999Z</time></trkpt><trkpt lat="45.97034447177791" lon="9.256363176037565"><ele>308.75</ele><time>2026-04-04T10:09:09.999Z</time></trkpt><trkpt lat="45.970350540289964" lon="9.25616932556044"><ele>309.0</ele><time>2026-04-04T10:09:10.999Z</time></trkpt><trkpt lat="45.97032610722965" lon="9.255995800863987"><ele>310.25</ele><time>2026-04-04T10:09:11.999Z</time></trkpt><trkpt lat="45.97027302286421" lon="9.25583565964909"><ele>311.5</ele><time>2026-04-04T10:09:12.999Z</time></trkpt><trkpt lat="45.9701976081343" lon="9.255700166685802"><ele>312.75</ele><time>2026-04-04T10:09:13.999Z</time></trkpt><trkpt lat="45.97009556864437" lon="9.255543510163776"><ele>314.0</ele><time>2026-04-04T10:09:14.999Z</time></trkpt><trkpt lat="45.96996257292255" lon="9.255402874617426"><ele>318.33333333333337</ele><time>2026-04-04T10:09:15.999Z</time></trkpt><trkpt lat="45.969827323807365" lon="9.255255584483544"><ele>322.6666666666667</ele><time>2026-04-04T10:09:16.999Z</time></trkpt><trkpt lat="45.9696921789224" lon="9.255118613539834"><ele>327.0</ele><time>2026-04-04T10:09:17.999Z</time></trkpt><trkpt lat="45.969571369454044" lon="9.255037136012684"><ele>327.0</ele><time>2026-04-04T10:09:18.999Z</time></trkpt><trkpt lat="45.96945124960313" lon="9.254999936766374"><ele>327.0</ele><time>2026-04-04T10:09:19.999Z</time></trkpt><trkpt lat="45.96931717260682" lon="9.255008493092067"><ele>327.0</ele><time>2026-04-04T10:09:20.999Z</time></trkpt><trkpt lat="45.96918387175314" lon="9.255037535136605"><ele>327.0</ele><time>2026-04-04T10:09:21.999Z</time></trkpt><trkpt lat="45.96907371024893" lon="9.25506907072773"><ele>328.6</ele><time>2026-04-04T10:09:22.999Z</time></trkpt><trkpt lat="45.96899486011167" lon="9.255060900316483"><ele>330.20000000000005</ele><time>2026-04-04T10:09:23.999Z</time></trkpt><trkpt lat="45.96894740233279" lon="9.25498621371973"><ele>331.8</ele><time>2026-04-04T10:09:24.999Z</time></trkpt><trkpt lat="45.96893592452519" lon="9.254870169388507"><ele>333.4</ele><time>2026-04-04T10:09:25.999Z</time></trkpt><trkpt lat="45.96898015067774" lon="9.254714700301248"><ele>335.0</ele><time>2026-04-04T10:09:26.999Z</time></trkpt><trkpt lat="45.968987153518064" lon="9.254532765795028"><ele>335.5</ele><time>2026-04-04T10:09:27.999Z</time></trkpt><trkpt lat="45.96899048841618" lon="9.254351435402386"><ele>336.0</ele><time>2026-04-04T10:09:28.999Z</time></trkpt><trkpt lat="45.96895000249656" lon="9.254191998387132"><ele>336.5</ele><time>2026-04-04T10:09:29.999Z</time></trkpt><trkpt lat="45.968891092577515" lon="9.254053755237623"><ele>337.0</ele><time>2026-04-04T10:09:30.999Z</time></trkpt><trkpt lat="45.96880785900889" lon="9.253924499372584"><ele>334.25</ele><time>2026-04-04T10:09:31.999Z</time></trkpt><trkpt lat="45.9686935290757" lon="9.253816517590979"><ele>331.5</ele><time>2026-04-04T10:09:32.999Z</time></trkpt><trkpt lat="45.96856249995867" lon="9.25375059974859"><ele>328.75</ele><time>2026-04-04T10:09:33.999Z</time></trkpt><trkpt lat="45.968437789145234" lon="9.253737159259371"><ele>326.0</ele><time>2026-04-04T10:09:34.999Z</time></trkpt><trkpt lat="45.968334475402955" lon="9.253684647368441"><ele>333.0</ele><time>2026-04-04T10:09:35.999Z</time></trkpt><trkpt lat="45.96826595309747" lon="9.253571651070256"><ele>340.0</ele><time>2026-04-04T10:09:36.999Z</time></trkpt><trkpt lat="45.968159581107535" lon="9.253467237323997"><ele>347.0</ele><time>2026-04-04T10:09:37.999Z</time></trkpt><trkpt lat="45.968050785631696" lon="9.253330797499848"><ele>354.0</ele><time>2026-04-04T10:09:38.999Z</time></trkpt><trkpt lat="45.9679147650012" lon="9.253221689727546"><ele>351.75</ele><time>2026-04-04T10:09:39.999Z</time></trkpt><trkpt lat="45.9677839507158" lon="9.25309044498783"><ele>349.5</ele><time>2026-04-04T10:09:40.999Z</time></trkpt><trkpt lat="45.96767390956765" lon="9.252969143582398"><ele>347.25</ele><time>2026-04-04T10:09:41.999Z</time></trkpt><trkpt lat="45.9675931514799" lon="9.252841405369201"><ele>345.0</ele><time>2026-04-04T10:09:42.999Z</time></trkpt><trkpt lat="45.96750689814978" lon="9.252742279988494"><ele>350.2</ele><time>2026-04-04T10:09:43.999Z</time></trkpt><trkpt lat="45.96743729379303" lon="9.252665140647682"><ele>355.4</ele><time>2026-04-04T10:09:44.999Z</time></trkpt><trkpt lat="45.96735908481247" lon="9.252636574839986"><ele>360.6</ele><time>2026-04-04T10:09:45.999Z</time></trkpt><trkpt lat="45.96727074207701" lon="9.252555890275868"><ele>365.8</ele><time>2026-04-04T10:09:46.999Z</time></trkpt><trkpt lat="45.96712899093027" lon="9.252691095967"><ele>371.0</ele><time>2026-04-04T10:09:47.999Z</time></trkpt><trkpt lat="45.966971212348874" lon="9.252742880131295"><ele>371.0</ele><time>2026-04-04T10:09:48.999Z</time></trkpt><trkpt lat="45.966804280592" lon="9.252822826693055"><ele>371.0</ele><time>2026-04-04T10:09:49.999Z</time></trkpt><trkpt lat="45.966637323858286" lon="9.25287907287582"><ele>371.0</ele><time>2026-04-04T10:09:50.999Z</time></trkpt><trkpt lat="45.966471023957595" lon="9.252915435842386"><ele>372.75</ele><time>2026-04-04T10:09:51.999Z</time></trkpt><trkpt lat="45.96631693766759" lon="9.252924331776095"><ele>374.5</ele><time>2026-04-04T10:09:52.999Z</time></trkpt><trkpt lat="45.96617788414167" lon="9.252917805254832"><ele>376.25</ele><time>2026-04-04T10:09:53.999Z</time></trkpt><trkpt lat="45.96606713581864" lon="9.25292192810962"><ele>378.0</ele><time>2026-04-04T10:09:54.999Z</time></trkpt><trkpt lat="45.96597077211029" lon="9.252909591255312"><ele>378.0</ele><time>2026-04-04T10:09:55.999Z</time></trkpt><trkpt lat="45.96589246714174" lon="9.252897736420577"><ele>378.0</ele><time>2026-04-04T10:09:56.999Z</time></trkpt><trkpt lat="45.965802435072035" lon="9.252911778109624"><ele>378.0</ele><time>2026-04-04T10:09:58.999Z</time></trkpt><trkpt lat="45.965764596109544" lon="9.252984685974097"><ele>378.0</ele><time>2026-04-04T10:09:59.999Z</time></trkpt><trkpt lat="45.96579965889302" lon="9.25315566242949"><ele>378.0</ele><time>2026-04-04T10:10:01.999Z</time></trkpt><trkpt lat="45.96590122571883" lon="9.253164823158691"><ele>378.0</ele><time>2026-04-04T10:10:02.999Z</time></trkpt><trkpt lat="45.965988615266966" lon="9.253149077369677"><ele>378.0</ele><time>2026-04-04T10:10:03.999Z</time></trkpt><trkpt lat="45.9660697311801" lon="9.2531094494637"><ele>378.0</ele><time>2026-04-04T10:10:04.999Z</time></trkpt><trkpt lat="45.96614411230621" lon="9.25314470644225"><ele>378.0</ele><time>2026-04-04T10:10:05.999Z</time></trkpt><trkpt lat="45.96618139690843" lon="9.253265676405293"><ele>378.0</ele><time>2026-04-04T10:10:06.999Z</time></trkpt><trkpt lat="45.966215011456974" lon="9.253348225900943"><ele>378.0</ele><time>2026-04-04T10:10:07.999Z</time></trkpt><trkpt lat="45.96620326955811" lon="9.253443303082657"><ele>379.57142857142856</ele><time>2026-04-04T10:10:08.999Z</time></trkpt><trkpt lat="45.966194077643365" lon="9.253541988242699"><ele>381.1428571428571</ele><time>2026-04-04T10:10:09.999Z</time></trkpt><trkpt lat="45.96619066541719" lon="9.253644096837073"><ele>382.7142857142857</ele><time>2026-04-04T10:10:10.999Z</time></trkpt><trkpt lat="45.96619999553254" lon="9.253743447664515"><ele>384.2857142857143</ele><time>2026-04-04T10:10:11.999Z</time></trkpt><trkpt lat="45.96622861321731" lon="9.25385225306623"><ele>385.85714285714283</ele><time>2026-04-04T10:10:12.999Z</time></trkpt><trkpt lat="45.96624740213241" lon="9.253953631837499"><ele>387.42857142857144</ele><time>2026-04-04T10:10:13.999Z</time></trkpt><trkpt lat="45.966250061329426" lon="9.254048282684693"><ele>389.0</ele><time>2026-04-04T10:10:14.999Z</time></trkpt><trkpt lat="45.96622685444102" lon="9.254145459651259"><ele>391.8333333333333</ele><time>2026-04-04T10:10:15.999Z</time></trkpt><trkpt lat="45.966181570501746" lon="9.254233197810663"><ele>394.66666666666663</ele><time>2026-04-04T10:10:17Z</time></trkpt><trkpt lat="45.966119269510884" lon="9.254304212379076"><ele>397.5</ele><time>2026-04-04T10:10:18Z</time></trkpt><trkpt lat="45.966057230030195" lon="9.254375273604735"><ele>400.33333333333337</ele><time>2026-04-04T10:10:19Z</time></trkpt><trkpt lat="45.96600231596651" lon="9.254454654643924"><ele>403.1666666666667</ele><time>2026-04-04T10:10:20Z</time></trkpt><trkpt lat="45.96594897788248" lon="9.254538513289571"><ele>406.0</ele><time>2026-04-04T10:10:21Z</time></trkpt><trkpt lat="45.96594694489304" lon="9.254698759917149"><ele>405.20000000000005</ele><time>2026-04-04T10:10:23Z</time></trkpt><trkpt lat="45.9660011668598" lon="9.254856695023578"><ele>404.40000000000003</ele><time>2026-04-04T10:10:25Z</time></trkpt><trkpt lat="45.96606808207158" lon="9.25497852812909"><ele>403.6</ele><time>2026-04-04T10:10:27Z</time></trkpt><trkpt lat="45.96611428600877" lon="9.25504313422241"><ele>402.8</ele><time>2026-04-04T10:10:29Z</time></trkpt><trkpt lat="45.96608798765701" lon="9.25516395155343"><ele>402.0</ele><time>2026-04-04T10:10:31Z</time></trkpt><trkpt lat="45.96600030042837" lon="9.255077858183622"><ele>402.0</ele><time>2026-04-04T10:10:33Z</time></trkpt><trkpt lat="45.965937191277234" lon="9.254989145203064"><ele>402.0</ele><time>2026-04-04T10:10:34Z</time></trkpt><trkpt lat="45.965867348727286" lon="9.254898675660113"><ele>402.0</ele><time>2026-04-04T10:10:35Z</time></trkpt><trkpt lat="45.96581001699387" lon="9.254829065524488"><ele>402.0</ele><time>2026-04-04T10:10:36Z</time></trkpt><trkpt lat="45.96578579661687" lon="9.254734406544772"><ele>402.0</ele><time>2026-04-04T10:10:37Z</time></trkpt><trkpt lat="45.96578855419158" lon="9.254562098635889"><ele>402.0</ele><time>2026-04-04T10:10:39Z</time></trkpt><trkpt lat="45.96581695328766" lon="9.254471333887553"><ele>403.8333333333333</ele><time>2026-04-04T10:10:40Z</time></trkpt><trkpt lat="45.965823776421786" lon="9.254379329175045"><ele>405.66666666666663</ele><time>2026-04-04T10:10:41Z</time></trkpt><trkpt lat="45.965745113173895" lon="9.25427076306275"><ele>407.5</ele><time>2026-04-04T10:10:43Z</time></trkpt><trkpt lat="45.96568158883308" lon="9.2542487488266"><ele>409.3333333333333</ele><time>2026-04-04T10:10:44Z</time></trkpt><trkpt lat="45.965610222335485" lon="9.254235387740263"><ele>411.16666666666663</ele><time>2026-04-04T10:10:45Z</time></trkpt><trkpt lat="45.9655143241306" lon="9.254213688035012"><ele>413.0</ele><time>2026-04-04T10:10:47Z</time></trkpt><trkpt lat="45.96543960936455" lon="9.254235089463739"><ele>413.0</ele><time>2026-04-04T10:10:49Z</time></trkpt><trkpt lat="45.96544654316074" lon="9.254423305324885"><ele>413.0</ele><time>2026-04-04T10:10:50Z</time></trkpt><trkpt lat="45.965479180656246" lon="9.254531855078886"><ele>413.0</ele><time>2026-04-04T10:10:51Z</time></trkpt><trkpt lat="45.96551336519466" lon="9.254669163728014"><ele>413.0</ele><time>2026-04-04T10:10:52Z</time></trkpt><trkpt lat="45.96554343062827" lon="9.254801032768396"><ele>413.0</ele><time>2026-04-04T10:10:53Z</time></trkpt><trkpt lat="45.96557619016676" lon="9.254925828576045"><ele>414.3333333333333</ele><time>2026-04-04T10:10:54Z</time></trkpt><trkpt lat="45.965618755823755" lon="9.255038129146804"><ele>415.66666666666663</ele><time>2026-04-04T10:10:55Z</time></trkpt><trkpt lat="45.96567467779182" lon="9.255124714002514"><ele>417.0</ele><time>2026-04-04T10:10:56Z</time></trkpt><trkpt lat="45.9657486723583" lon="9.255238736960935"><ele>418.33333333333337</ele><time>2026-04-04T10:10:58Z</time></trkpt><trkpt lat="45.965788143372805" lon="9.255337218519038"><ele>419.6666666666667</ele><time>2026-04-04T10:11:00Z</time></trkpt><trkpt lat="45.96575331762388" lon="9.25541529665083"><ele>421.0</ele><time>2026-04-04T10:11:02Z</time></trkpt><trkpt lat="45.96561854505418" lon="9.255262919244048"><ele>421.00000000000006</ele><time>2026-04-04T10:11:05Z</time></trkpt><trkpt lat="45.96555413776903" lon="9.255171360837911"><ele>421.0</ele><time>2026-04-04T10:11:06Z</time></trkpt><trkpt lat="45.965487105204375" lon="9.255101290371591"><ele>421.0</ele><time>2026-04-04T10:11:07Z</time></trkpt><trkpt lat="45.965425714529864" lon="9.255064895461384"><ele>421.0</ele><time>2026-04-04T10:11:08Z</time></trkpt><trkpt lat="45.96537341259207" lon="9.255008973518558"><ele>421.00000000000006</ele><time>2026-04-04T10:11:09Z</time></trkpt><trkpt lat="45.96532926294266" lon="9.254916404862282"><ele>421.0</ele><time>2026-04-04T10:11:09.999Z</time></trkpt><trkpt lat="45.9652960890961" lon="9.254807565671692"><ele>419.6666666666667</ele><time>2026-04-04T10:11:10.999Z</time></trkpt><trkpt lat="45.96527348649732" lon="9.254690255865363"><ele>418.33333333333337</ele><time>2026-04-04T10:11:11.999Z</time></trkpt><trkpt lat="45.96524437918276" lon="9.254573924100438"><ele>417.0</ele><time>2026-04-04T10:11:12.999Z</time></trkpt><trkpt lat="45.96520696974807" lon="9.254469173615062"><ele>415.66666666666663</ele><time>2026-04-04T10:11:13.999Z</time></trkpt><trkpt lat="45.96516997098492" lon="9.25438994279365"><ele>414.3333333333333</ele><time>2026-04-04T10:11:14.999Z</time></trkpt><trkpt lat="45.965096045653915" lon="9.254341559585932"><ele>413.0</ele><time>2026-04-04T10:11:15.999Z</time></trkpt><trkpt lat="45.96500263509127" lon="9.25429172005704"><ele>421.0</ele><time>2026-04-04T10:11:16.999Z</time></trkpt><trkpt lat="45.96486333513833" lon="9.254241964182945"><ele>429.0</ele><time>2026-04-04T10:11:17.999Z</time></trkpt><trkpt lat="45.96468967132595" lon="9.254193730686543"><ele>437.0</ele><time>2026-04-04T10:11:18.999Z</time></trkpt><trkpt lat="45.96449793869668" lon="9.25416335657797"><ele>437.0</ele><time>2026-04-04T10:11:19.999Z</time></trkpt><trkpt lat="45.96435263415662" lon="9.254066850629599"><ele>437.0</ele><time>2026-04-04T10:11:20.999Z</time></trkpt><trkpt lat="45.96422399115096" lon="9.253945506810133"><ele>437.0</ele><time>2026-04-04T10:11:21.999Z</time></trkpt><trkpt lat="45.96411829035209" lon="9.253817969132562"><ele>440.8</ele><time>2026-04-04T10:11:22.999Z</time></trkpt><trkpt lat="45.964111246925256" lon="9.253646334717528"><ele>444.6</ele><time>2026-04-04T10:11:23.999Z</time></trkpt><trkpt lat="45.964080597664484" lon="9.253479695594626"><ele>448.40000000000003</ele><time>2026-04-04T10:11:24.999Z</time></trkpt><trkpt lat="45.964059687952364" lon="9.253331555538699"><ele>452.20000000000005</ele><time>2026-04-04T10:11:25.999Z</time></trkpt><trkpt lat="45.96399453694296" lon="9.25327211152181"><ele>456.0</ele><time>2026-04-04T10:11:26.999Z</time></trkpt><trkpt lat="45.96389808319744" lon="9.253270159806783"><ele>456.0</ele><time>2026-04-04T10:11:27.999Z</time></trkpt><trkpt lat="45.96377093242812" lon="9.253285350911188"><ele>456.0</ele><time>2026-04-04T10:11:28.999Z</time></trkpt><trkpt lat="45.96364441168039" lon="9.25325344215012"><ele>456.0</ele><time>2026-04-04T10:11:29.999Z</time></trkpt><trkpt lat="45.963525437335505" lon="9.253208519505332"><ele>456.0</ele><time>2026-04-04T10:11:30.999Z</time></trkpt><trkpt lat="45.963452597577884" lon="9.253128763576372"><ele>455.0</ele><time>2026-04-04T10:11:31.999Z</time></trkpt><trkpt lat="45.96343299569932" lon="9.252988779676306"><ele>454.0</ele><time>2026-04-04T10:11:32.999Z</time></trkpt><trkpt lat="45.963462329057705" lon="9.252833909371628"><ele>453.0</ele><time>2026-04-04T10:11:33.999Z</time></trkpt><trkpt lat="45.96355404423929" lon="9.252702672405565"><ele>452.0</ele><time>2026-04-04T10:11:34.999Z</time></trkpt><trkpt lat="45.963613011388205" lon="9.252607236297171"><ele>451.0</ele><time>2026-04-04T10:11:35.999Z</time></trkpt><trkpt lat="45.96358454286297" lon="9.252456712235213"><ele>451.0</ele><time>2026-04-04T10:11:37.999Z</time></trkpt><trkpt lat="45.96343257502138" lon="9.252434889649463"><ele>451.0</ele><time>2026-04-04T10:11:38.999Z</time></trkpt><trkpt lat="45.963305754091955" lon="9.252487896699495"><ele>451.0</ele><time>2026-04-04T10:11:39.999Z</time></trkpt><trkpt lat="45.963195218867746" lon="9.252465598047873"><ele>451.0</ele><time>2026-04-04T10:11:40.999Z</time></trkpt><trkpt lat="45.96312023433513" lon="9.252371937956"><ele>456.0</ele><time>2026-04-04T10:11:41.999Z</time></trkpt><trkpt lat="45.96306962227111" lon="9.25221837111313"><ele>461.0</ele><time>2026-04-04T10:11:42.999Z</time></trkpt><trkpt lat="45.96299594728996" lon="9.252025284755437"><ele>466.0</ele><time>2026-04-04T10:11:43.999Z</time></trkpt><trkpt lat="45.962911067617" lon="9.251804174164677"><ele>471.0</ele><time>2026-04-04T10:11:44.999Z</time></trkpt><trkpt lat="45.96287563951198" lon="9.251551970624337"><ele>471.6</ele><time>2026-04-04T10:11:45.999Z</time></trkpt><trkpt lat="45.962842231771866" lon="9.251348475674607"><ele>472.20000000000005</ele><time>2026-04-04T10:11:46.999Z</time></trkpt><trkpt lat="45.96280872250999" lon="9.251198035876929"><ele>472.79999999999995</ele><time>2026-04-04T10:11:47.999Z</time></trkpt><trkpt lat="45.962785499947984" lon="9.251084610942858"><ele>473.4</ele><time>2026-04-04T10:11:48.999Z</time></trkpt><trkpt lat="45.96268021787246" lon="9.251078763147454"><ele>474.0</ele><time>2026-04-04T10:11:50.999Z</time></trkpt><trkpt lat="45.96262747557949" lon="9.251180004599219"><ele>474.0</ele><time>2026-04-04T10:11:51.999Z</time></trkpt><trkpt lat="45.9626091504438" lon="9.251338111388515"><ele>474.0</ele><time>2026-04-04T10:11:52.999Z</time></trkpt><trkpt lat="45.962648812395095" lon="9.251479023630257"><ele>474.0</ele><time>2026-04-04T10:11:53.999Z</time></trkpt><trkpt lat="45.962711723238584" lon="9.251617314083312"><ele>474.0</ele><time>2026-04-04T10:11:54.999Z</time></trkpt><trkpt lat="45.96273407286535" lon="9.251786337340029"><ele>474.0</ele><time>2026-04-04T10:11:55.999Z</time></trkpt><trkpt lat="45.96266562492282" lon="9.25195272320765"><ele>474.0</ele><time>2026-04-04T10:11:56.999Z</time></trkpt><trkpt lat="45.96260995232256" lon="9.252144573367975"><ele>474.0</ele><time>2026-04-04T10:11:57.999Z</time></trkpt><trkpt lat="45.96260823301317" lon="9.25234480336178"><ele>474.0</ele><time>2026-04-04T10:11:58.999Z</time></trkpt><trkpt lat="45.9626526465964" lon="9.25255173866807"><ele>474.0</ele><time>2026-04-04T10:11:59.999Z</time></trkpt><trkpt lat="45.96272669324632" lon="9.252752554782054"><ele>474.0</ele><time>2026-04-04T10:12:00.999Z</time></trkpt><trkpt lat="45.96277750181421" lon="9.252889053094053"><ele>474.0</ele><time>2026-04-04T10:12:01.999Z</time></trkpt><trkpt lat="45.96278108755942" lon="9.252988805947068"><ele>474.0</ele><time>2026-04-04T10:12:03.999Z</time></trkpt><trkpt lat="45.96267756056845" lon="9.252927335685806"><ele>474.0</ele><time>2026-04-04T10:12:05.999Z</time></trkpt><trkpt lat="45.96267828861175" lon="9.252788467193769"><ele>474.0</ele><time>2026-04-04T10:12:06.999Z</time></trkpt><trkpt lat="45.96261859950947" lon="9.252620336684297"><ele>474.0</ele><time>2026-04-04T10:12:07.999Z</time></trkpt><trkpt lat="45.9625358303473" lon="9.252465170407605"><ele>474.0</ele><time>2026-04-04T10:12:08.999Z</time></trkpt><trkpt lat="45.96246905738233" lon="9.252345631525381"><ele>474.0</ele><time>2026-04-04T10:12:09.999Z</time></trkpt><trkpt lat="45.96244613382034" lon="9.25220942225097"><ele>481.0</ele><time>2026-04-04T10:12:10.999Z</time></trkpt><trkpt lat="45.962419847026275" lon="9.252050237197544"><ele>488.0</ele><time>2026-04-04T10:12:11.999Z</time></trkpt><trkpt lat="45.962407369106636" lon="9.25186959744403"><ele>495.0</ele><time>2026-04-04T10:12:12.999Z</time></trkpt><trkpt lat="45.96234538873182" lon="9.251712397476998"><ele>502.0</ele><time>2026-04-04T10:12:13.999Z</time></trkpt><trkpt lat="45.96228022101207" lon="9.251572228411225"><ele>502.5</ele><time>2026-04-04T10:12:14.999Z</time></trkpt><trkpt lat="45.96226863049513" lon="9.25141297130956"><ele>503.0</ele><time>2026-04-04T10:12:15.999Z</time></trkpt><trkpt lat="45.96233033043925" lon="9.251247271325717"><ele>503.5</ele><time>2026-04-04T10:12:16.999Z</time></trkpt><trkpt lat="45.96235279529833" lon="9.251065395422515"><ele>504.0</ele><time>2026-04-04T10:12:17.999Z</time></trkpt><trkpt lat="45.96234511824501" lon="9.250894789233344"><ele>504.0</ele><time>2026-04-04T10:12:18.999Z</time></trkpt><trkpt lat="45.96228608501559" lon="9.250731380896074"><ele>504.0</ele><time>2026-04-04T10:12:19.999Z</time></trkpt><trkpt lat="45.96219412624246" lon="9.250571204880847"><ele>504.0</ele><time>2026-04-04T10:12:20.999Z</time></trkpt><trkpt lat="45.962096634594765" lon="9.250407928924117"><ele>504.0</ele><time>2026-04-04T10:12:21.999Z</time></trkpt><trkpt lat="45.96201232827421" lon="9.250267726267973"><ele>501.0</ele><time>2026-04-04T10:12:23Z</time></trkpt><trkpt lat="45.9619145699485" lon="9.250192523196535"><ele>498.0</ele><time>2026-04-04T10:12:24Z</time></trkpt><trkpt lat="45.961787817147105" lon="9.25012938478914"><ele>495.0</ele><time>2026-04-04T10:12:25Z</time></trkpt><trkpt lat="45.961649408552915" lon="9.250073699273322"><ele>492.0</ele><time>2026-04-04T10:12:26Z</time></trkpt><trkpt lat="45.961493566776575" lon="9.250009687573382"><ele>498.5</ele><time>2026-04-04T10:12:27Z</time></trkpt><trkpt lat="45.961351095984696" lon="9.249960669087828"><ele>505.0</ele><time>2026-04-04T10:12:28Z</time></trkpt><trkpt lat="45.96121586824868" lon="9.24987686861395"><ele>511.5</ele><time>2026-04-04T10:12:29Z</time></trkpt><trkpt lat="45.96106706610641" lon="9.24983549983734"><ele>518.0</ele><time>2026-04-04T10:12:30Z</time></trkpt><trkpt lat="45.9608992481622" lon="9.249800564181333"><ele>524.3333333333333</ele><time>2026-04-04T10:12:31Z</time></trkpt><trkpt lat="45.960717061861814" lon="9.249798601285221"><ele>530.6666666666666</ele><time>2026-04-04T10:12:32Z</time></trkpt><trkpt lat="45.96053926045172" lon="9.249800195923505"><ele>537.0</ele><time>2026-04-04T10:12:33Z</time></trkpt><trkpt lat="45.96036470712546" lon="9.249835986012581"><ele>537.0</ele><time>2026-04-04T10:12:34Z</time></trkpt><trkpt lat="45.960204749500015" lon="9.249886962616701"><ele>537.0</ele><time>2026-04-04T10:12:35Z</time></trkpt><trkpt lat="45.960051864317585" lon="9.249930078167063"><ele>537.0</ele><time>2026-04-04T10:12:36Z</time></trkpt><trkpt lat="45.95989743444501" lon="9.250013090035388"><ele>538.0</ele><time>2026-04-04T10:12:37Z</time></trkpt><trkpt lat="45.95974374770902" lon="9.250139602260733"><ele>539.0</ele><time>2026-04-04T10:12:38Z</time></trkpt><trkpt lat="45.95959637938252" lon="9.250272596759988"><ele>540.0</ele><time>2026-04-04T10:12:39Z</time></trkpt><trkpt lat="45.959454583749704" lon="9.25040994025638"><ele>540.0</ele><time>2026-04-04T10:12:40Z</time></trkpt><trkpt lat="45.95931722089011" lon="9.250573519728439"><ele>540.0</ele><time>2026-04-04T10:12:41Z</time></trkpt><trkpt lat="45.959197745147954" lon="9.250760304071076"><ele>540.0</ele><time>2026-04-04T10:12:42Z</time></trkpt><trkpt lat="45.95908841815319" lon="9.250953627519104"><ele>543.6666666666666</ele><time>2026-04-04T10:12:43Z</time></trkpt><trkpt lat="45.95898923397011" lon="9.251146884750773"><ele>547.3333333333333</ele><time>2026-04-04T10:12:44Z</time></trkpt><trkpt lat="45.95889650386164" lon="9.25132270997553"><ele>551.0</ele><time>2026-04-04T10:12:45Z</time></trkpt><trkpt lat="45.95879125473389" lon="9.251487584398141"><ele>555.0</ele><time>2026-04-04T10:12:46Z</time></trkpt><trkpt lat="45.95869025137092" lon="9.251654479278756"><ele>559.0</ele><time>2026-04-04T10:12:47Z</time></trkpt><trkpt lat="45.9585765980923" lon="9.251772900006888"><ele>563.0</ele><time>2026-04-04T10:12:48Z</time></trkpt><trkpt lat="45.958460408040544" lon="9.251851180008703"><ele>567.0</ele><time>2026-04-04T10:12:49Z</time></trkpt><trkpt lat="45.95832816164851" lon="9.251912754807655"><ele>567.0</ele><time>2026-04-04T10:12:50Z</time></trkpt><trkpt lat="45.958176459480256" lon="9.251988833955728"><ele>567.0</ele><time>2026-04-04T10:12:51Z</time></trkpt><trkpt lat="45.95802121411993" lon="9.252083302548087"><ele>567.0</ele><time>2026-04-04T10:12:52Z</time></trkpt><trkpt lat="45.95788655365969" lon="9.252179938216827"><ele>567.0</ele><time>2026-04-04T10:12:53Z</time></trkpt><trkpt lat="45.95778425417052" lon="9.252282847389113"><ele>567.0</ele><time>2026-04-04T10:12:54Z</time></trkpt><trkpt lat="45.95771119265068" lon="9.25237407062566"><ele>567.0</ele><time>2026-04-04T10:12:55Z</time></trkpt><trkpt lat="45.957629528233994" lon="9.252424074085527"><ele>567.0</ele><time>2026-04-04T10:12:56Z</time></trkpt><trkpt lat="45.957541154892674" lon="9.252364606675076"><ele>567.0</ele><time>2026-04-04T10:12:57Z</time></trkpt><trkpt lat="45.957474183078396" lon="9.252270773614583"><ele>569.4</ele><time>2026-04-04T10:12:58Z</time></trkpt><trkpt lat="45.95744391330702" lon="9.252134820601952"><ele>571.8000000000001</ele><time>2026-04-04T10:12:59Z</time></trkpt><trkpt lat="45.9574504426038" lon="9.251978216089297"><ele>574.2</ele><time>2026-04-04T10:13:00Z</time></trkpt><trkpt lat="45.957466242597505" lon="9.251805923680081"><ele>576.6</ele><time>2026-04-04T10:13:01Z</time></trkpt><trkpt lat="45.95742974919787" lon="9.25164900663085"><ele>579.0</ele><time>2026-04-04T10:13:02Z</time></trkpt><trkpt lat="45.95737013112547" lon="9.251507849548362"><ele>578.75</ele><time>2026-04-04T10:13:03Z</time></trkpt><trkpt lat="45.95733148909714" lon="9.251304400928586"><ele>578.5</ele><time>2026-04-04T10:13:04Z</time></trkpt><trkpt lat="45.95733824970361" lon="9.251091854584745"><ele>578.25</ele><time>2026-04-04T10:13:05Z</time></trkpt><trkpt lat="45.95732732345038" lon="9.25090273783607"><ele>578.0</ele><time>2026-04-04T10:13:06Z</time></trkpt><trkpt lat="45.95732364770598" lon="9.250775480274081"><ele>578.0</ele><time>2026-04-04T10:13:07Z</time></trkpt><trkpt lat="45.95731472551933" lon="9.250685203283627"><ele>578.0</ele><time>2026-04-04T10:13:08Z</time></trkpt><trkpt lat="45.95726099961297" lon="9.250536147056724"><ele>578.0</ele><time>2026-04-04T10:13:10Z</time></trkpt><trkpt lat="45.95720448887488" lon="9.250493651887881"><ele>578.0</ele><time>2026-04-04T10:13:11Z</time></trkpt><trkpt lat="45.95714184475942" lon="9.2505441117818"><ele>578.0</ele><time>2026-04-04T10:13:12Z</time></trkpt><trkpt lat="45.95710178366279" lon="9.250630357874595"><ele>578.0</ele><time>2026-04-04T10:13:13Z</time></trkpt><trkpt lat="45.95708973020121" lon="9.250796649423565"><ele>578.0</ele><time>2026-04-04T10:13:14Z</time></trkpt><trkpt lat="45.95705336696119" lon="9.250936793537635"><ele>578.0</ele><time>2026-04-04T10:13:14.999Z</time></trkpt><trkpt lat="45.957015455224884" lon="9.251094225892466"><ele>578.0</ele><time>2026-04-04T10:13:15.999Z</time></trkpt><trkpt lat="45.95698553267663" lon="9.251242379334025"><ele>578.0</ele><time>2026-04-04T10:13:16.999Z</time></trkpt><trkpt lat="45.9569567003471" lon="9.2513764709504"><ele>578.0</ele><time>2026-04-04T10:13:17.999Z</time></trkpt><trkpt lat="45.956934814213184" lon="9.25150385061733"><ele>578.1666666666666</ele><time>2026-04-04T10:13:18.999Z</time></trkpt><trkpt lat="45.9569099960886" lon="9.251594786489623"><ele>578.3333333333333</ele><time>2026-04-04T10:13:19.999Z</time></trkpt><trkpt lat="45.956890297228846" lon="9.251702799125365"><ele>578.5</ele><time>2026-04-04T10:13:20.999Z</time></trkpt><trkpt lat="45.95687766330227" lon="9.251819483792902"><ele>578.6666666666666</ele><time>2026-04-04T10:13:21.999Z</time></trkpt><trkpt lat="45.95684979608931" lon="9.251948841639766"><ele>578.8333333333334</ele><time>2026-04-04T10:13:22.999Z</time></trkpt><trkpt lat="45.95679922495596" lon="9.252080256243087"><ele>579.0</ele><time>2026-04-04T10:13:23.999Z</time></trkpt><trkpt lat="45.9567204137045" lon="9.252193634852377"><ele>582.75</ele><time>2026-04-04T10:13:24.999Z</time></trkpt><trkpt lat="45.95663470770125" lon="9.252301769863887"><ele>586.5</ele><time>2026-04-04T10:13:25.999Z</time></trkpt><trkpt lat="45.95656720519117" lon="9.252432237039237"><ele>590.25</ele><time>2026-04-04T10:13:26.999Z</time></trkpt><trkpt lat="45.9565012209502" lon="9.252568274027949"><ele>594.0</ele><time>2026-04-04T10:13:27.999Z</time></trkpt><trkpt lat="45.95644065236488" lon="9.25271026904853"><ele>594.0</ele><time>2026-04-04T10:13:28.999Z</time></trkpt><trkpt lat="45.956366085312496" lon="9.25279678450237"><ele>594.0</ele><time>2026-04-04T10:13:29.999Z</time></trkpt><trkpt lat="45.95629622886557" lon="9.252857874964574"><ele>594.0</ele><time>2026-04-04T10:13:31.999Z</time></trkpt><trkpt lat="45.95621037045549" lon="9.252945422120881"><ele>594.0</ele><time>2026-04-04T10:13:33.999Z</time></trkpt><trkpt lat="45.95615981067038" lon="9.253001242036664"><ele>594.0</ele><time>2026-04-04T10:13:34.999Z</time></trkpt><trkpt lat="45.95606875735395" lon="9.253112624536255"><ele>593.5</ele><time>2026-04-04T10:13:36.999Z</time></trkpt><trkpt lat="45.95602599934768" lon="9.253188686674964"><ele>593.0</ele><time>2026-04-04T10:13:37.999Z</time></trkpt><trkpt lat="45.95598866673056" lon="9.253272374462068"><ele>592.5</ele><time>2026-04-04T10:13:38.999Z</time></trkpt><trkpt lat="45.955956121344215" lon="9.253382417358585"><ele>592.0</ele><time>2026-04-04T10:13:39.999Z</time></trkpt><trkpt lat="45.95593570160082" lon="9.253505179023726"><ele>591.5</ele><time>2026-04-04T10:13:40.999Z</time></trkpt><trkpt lat="45.95592325370148" lon="9.253634556835557"><ele>591.0</ele><time>2026-04-04T10:13:41.999Z</time></trkpt><trkpt lat="45.95591349613182" lon="9.253766849032306"><ele>591.0</ele><time>2026-04-04T10:13:42.999Z</time></trkpt><trkpt lat="45.95589036717177" lon="9.253896735686121"><ele>591.0</ele><time>2026-04-04T10:13:43.999Z</time></trkpt><trkpt lat="45.955835687545836" lon="9.254021516908358"><ele>591.0</ele><time>2026-04-04T10:13:44.999Z</time></trkpt><trkpt lat="45.955736415435844" lon="9.254122517618688"><ele>591.0</ele><time>2026-04-04T10:13:45.999Z</time></trkpt><trkpt lat="45.955621804780954" lon="9.254222699826135"><ele>595.75</ele><time>2026-04-04T10:13:46.999Z</time></trkpt><trkpt lat="45.95553046737915" lon="9.254386941956026"><ele>600.5</ele><time>2026-04-04T10:13:47.999Z</time></trkpt><trkpt lat="45.95544224670445" lon="9.254551364683374"><ele>605.25</ele><time>2026-04-04T10:13:48.999Z</time></trkpt><trkpt lat="45.9553521978825" lon="9.254702385480456"><ele>610.0</ele><time>2026-04-04T10:13:49.999Z</time></trkpt><trkpt lat="45.95525448527818" lon="9.254877319271712"><ele>610.0</ele><time>2026-04-04T10:13:50.999Z</time></trkpt><trkpt lat="45.95518833709908" lon="9.25505111572275"><ele>610.0</ele><time>2026-04-04T10:13:51.999Z</time></trkpt><trkpt lat="45.95513914748418" lon="9.255234861132747"><ele>610.0</ele><time>2026-04-04T10:13:52.999Z</time></trkpt><trkpt lat="45.95508119788549" lon="9.255413868458305"><ele>610.0</ele><time>2026-04-04T10:13:53.999Z</time></trkpt><trkpt lat="45.9550207891095" lon="9.25558078923407"><ele>615.5</ele><time>2026-04-04T10:13:54.999Z</time></trkpt><trkpt lat="45.954967893350606" lon="9.25572940810636"><ele>621.0</ele><time>2026-04-04T10:13:55.999Z</time></trkpt><trkpt lat="45.95492589304055" lon="9.255863755249216"><ele>626.5</ele><time>2026-04-04T10:13:56.999Z</time></trkpt><trkpt lat="45.95483833795562" lon="9.255979535935099"><ele>632.0</ele><time>2026-04-04T10:13:57.999Z</time></trkpt><trkpt lat="45.95474197932903" lon="9.256112915114501"><ele>632.0</ele><time>2026-04-04T10:13:58.999Z</time></trkpt><trkpt lat="45.95464271848488" lon="9.25624677003456"><ele>632.0</ele><time>2026-04-04T10:13:59.999Z</time></trkpt><trkpt lat="45.954546084060226" lon="9.25637729402967"><ele>632.0</ele><time>2026-04-04T10:14:00.999Z</time></trkpt><trkpt lat="45.95446297293423" lon="9.256505756954232"><ele>632.0</ele><time>2026-04-04T10:14:01.999Z</time></trkpt><trkpt lat="45.95437546637264" lon="9.256624808987405"><ele>632.4</ele><time>2026-04-04T10:14:02.999Z</time></trkpt><trkpt lat="45.95428852919067" lon="9.256727564784963"><ele>632.8000000000001</ele><time>2026-04-04T10:14:03.999Z</time></trkpt><trkpt lat="45.954212756032156" lon="9.256826907565362"><ele>633.2</ele><time>2026-04-04T10:14:04.999Z</time></trkpt><trkpt lat="45.9541356500956" lon="9.256929009796277"><ele>633.6</ele><time>2026-04-04T10:14:05.999Z</time></trkpt><trkpt lat="45.954061732390834" lon="9.257033398247707"><ele>634.0</ele><time>2026-04-04T10:14:06.999Z</time></trkpt><trkpt lat="45.953993813276355" lon="9.257127722927137"><ele>634.0</ele><time>2026-04-04T10:14:07.999Z</time></trkpt><trkpt lat="45.953920660263094" lon="9.257185504891837"><ele>634.0</ele><time>2026-04-04T10:14:08.999Z</time></trkpt><trkpt lat="45.953829520657976" lon="9.257218335258504"><ele>634.0</ele><time>2026-04-04T10:14:09.999Z</time></trkpt><trkpt lat="45.953726142001855" lon="9.257208217909994"><ele>634.0</ele><time>2026-04-04T10:14:10.999Z</time></trkpt><trkpt lat="45.953611598250845" lon="9.257211129436005"><ele>634.0</ele><time>2026-04-04T10:14:11.999Z</time></trkpt><trkpt lat="45.9534849783051" lon="9.25722802936576"><ele>637.0</ele><time>2026-04-04T10:14:12.999Z</time></trkpt><trkpt lat="45.95335035016042" lon="9.257229326722571"><ele>640.0</ele><time>2026-04-04T10:14:13.999Z</time></trkpt><trkpt lat="45.9532113746382" lon="9.257227059540673"><ele>643.0</ele><time>2026-04-04T10:14:14.999Z</time></trkpt><trkpt lat="45.95306518951854" lon="9.25722526916925"><ele>646.0</ele><time>2026-04-04T10:14:15.999Z</time></trkpt><trkpt lat="45.95291576993892" lon="9.257237692959114"><ele>646.0</ele><time>2026-04-04T10:14:16.999Z</time></trkpt><trkpt lat="45.95275689335011" lon="9.257233987580827"><ele>646.0</ele><time>2026-04-04T10:14:17.999Z</time></trkpt><trkpt lat="45.95258393305079" lon="9.257256020632866"><ele>646.0</ele><time>2026-04-04T10:14:18.999Z</time></trkpt><trkpt lat="45.95241471012884" lon="9.257277546636494"><ele>645.0</ele><time>2026-04-04T10:14:19.999Z</time></trkpt><trkpt lat="45.952253968366904" lon="9.257293340082208"><ele>644.0</ele><time>2026-04-04T10:14:20.999Z</time></trkpt><trkpt lat="45.95210999018282" lon="9.257312098877014"><ele>643.0</ele><time>2026-04-04T10:14:21.999Z</time></trkpt><trkpt lat="45.95197715400126" lon="9.257337091642892"><ele>642.0</ele><time>2026-04-04T10:14:22.999Z</time></trkpt><trkpt lat="45.95185971546454" lon="9.257360206239078"><ele>642.0</ele><time>2026-04-04T10:14:23.999Z</time></trkpt><trkpt lat="45.95174618820227" lon="9.257381344462951"><ele>642.0</ele><time>2026-04-04T10:14:24.999Z</time></trkpt><trkpt lat="45.95163817535" lon="9.257398685323128"><ele>642.0</ele><time>2026-04-04T10:14:25.999Z</time></trkpt><trkpt lat="45.95153711968531" lon="9.257416007903183"><ele>642.0</ele><time>2026-04-04T10:14:26.999Z</time></trkpt><trkpt lat="45.95144780626351" lon="9.257433098077822"><ele>642.0</ele><time>2026-04-04T10:14:27.999Z</time></trkpt><trkpt lat="45.95135130594203" lon="9.25744751496426"><ele>642.2</ele><time>2026-04-04T10:14:29Z</time></trkpt><trkpt lat="45.95125411326738" lon="9.257471902626385"><ele>642.4000000000001</ele><time>2026-04-04T10:14:30Z</time></trkpt><trkpt lat="45.95117212012748" lon="9.257539778519485"><ele>642.5999999999999</ele><time>2026-04-04T10:14:31Z</time></trkpt><trkpt lat="45.95110220242859" lon="9.257656518607902"><ele>642.8</ele><time>2026-04-04T10:14:32Z</time></trkpt><trkpt lat="45.951059389795205" lon="9.257804361539652"><ele>643.0</ele><time>2026-04-04T10:14:33Z</time></trkpt><trkpt lat="45.95104220151136" lon="9.257993870001108"><ele>643.75</ele><time>2026-04-04T10:14:34Z</time></trkpt><trkpt lat="45.951008673122956" lon="9.25816109111021"><ele>644.5</ele><time>2026-04-04T10:14:35Z</time></trkpt><trkpt lat="45.95096836882193" lon="9.258316849138332"><ele>645.25</ele><time>2026-04-04T10:14:36Z</time></trkpt><trkpt lat="45.95089638243435" lon="9.258446642677068"><ele>646.0</ele><time>2026-04-04T10:14:37Z</time></trkpt><trkpt lat="45.95082915424499" lon="9.258593360695887"><ele>646.0</ele><time>2026-04-04T10:14:38Z</time></trkpt><trkpt lat="45.9507304331558" lon="9.258742407248185"><ele>646.0</ele><time>2026-04-04T10:14:39Z</time></trkpt><trkpt lat="45.95062810505317" lon="9.258911055130577"><ele>646.0</ele><time>2026-04-04T10:14:40Z</time></trkpt><trkpt lat="45.95052248440521" lon="9.25908708452661"><ele>645.0</ele><time>2026-04-04T10:14:41Z</time></trkpt><trkpt lat="45.950403583304954" lon="9.259248095744258"><ele>644.0</ele><time>2026-04-04T10:14:42Z</time></trkpt><trkpt lat="45.95026612137864" lon="9.259368895942956"><ele>643.0</ele><time>2026-04-04T10:14:43Z</time></trkpt><trkpt lat="45.95014936727649" lon="9.259504466212027"><ele>643.5</ele><time>2026-04-04T10:14:44Z</time></trkpt><trkpt lat="45.95003913297833" lon="9.259604630002963"><ele>644.0</ele><time>2026-04-04T10:14:45Z</time></trkpt><trkpt lat="45.94993824730204" lon="9.259699570460414"><ele>644.5</ele><time>2026-04-04T10:14:46Z</time></trkpt><trkpt lat="45.94982723873482" lon="9.25979736007075"><ele>645.0</ele><time>2026-04-04T10:14:47Z</time></trkpt><trkpt lat="45.949699115458984" lon="9.259842535528147"><ele>645.0</ele><time>2026-04-04T10:14:48Z</time></trkpt><trkpt lat="45.94954891655564" lon="9.259869086144501"><ele>645.0</ele><time>2026-04-04T10:14:49Z</time></trkpt><trkpt lat="45.949399985190645" lon="9.259888449486992"><ele>645.0</ele><time>2026-04-04T10:14:50Z</time></trkpt><trkpt lat="45.9492701035304" lon="9.259923111604339"><ele>645.0</ele><time>2026-04-04T10:14:51Z</time></trkpt><trkpt lat="45.94914625948589" lon="9.259942043191826"><ele>645.5</ele><time>2026-04-04T10:14:52Z</time></trkpt><trkpt lat="45.949029368028945" lon="9.259979547406882"><ele>646.0</ele><time>2026-04-04T10:14:53Z</time></trkpt><trkpt lat="45.94892444536464" lon="9.260055467799921"><ele>646.5</ele><time>2026-04-04T10:14:54Z</time></trkpt><trkpt lat="45.94885154519808" lon="9.260179928973235"><ele>647.0</ele><time>2026-04-04T10:14:55Z</time></trkpt><trkpt lat="45.948761413202824" lon="9.260343947301681"><ele>647.0</ele><time>2026-04-04T10:14:56Z</time></trkpt><trkpt lat="45.94870534319792" lon="9.26051965548354"><ele>647.0</ele><time>2026-04-04T10:14:57Z</time></trkpt><trkpt lat="45.948681605190465" lon="9.26070662238212"><ele>647.0</ele><time>2026-04-04T10:14:58Z</time></trkpt><trkpt lat="45.948666321286424" lon="9.260898027521801"><ele>647.0</ele><time>2026-04-04T10:14:59Z</time></trkpt><trkpt lat="45.94865054003525" lon="9.261123135699611"><ele>644.3333333333333</ele><time>2026-04-04T10:15:00Z</time></trkpt><trkpt lat="45.94861487409377" lon="9.261320547879208"><ele>641.6666666666666</ele><time>2026-04-04T10:15:01Z</time></trkpt><trkpt lat="45.948556486023776" lon="9.2615203930327"><ele>639.0</ele><time>2026-04-04T10:15:02Z</time></trkpt><trkpt lat="45.94847222535601" lon="9.261719478632248"><ele>638.6666666666666</ele><time>2026-04-04T10:15:03Z</time></trkpt><trkpt lat="45.948405218888894" lon="9.261934891847858"><ele>638.3333333333333</ele><time>2026-04-04T10:15:04Z</time></trkpt><trkpt lat="45.94832608744423" lon="9.26215529220498"><ele>638.0</ele><time>2026-04-04T10:15:05Z</time></trkpt><trkpt lat="45.94826068329055" lon="9.262405107824033"><ele>638.0</ele><time>2026-04-04T10:15:06Z</time></trkpt><trkpt lat="45.948197567314786" lon="9.262656032612243"><ele>638.0</ele><time>2026-04-04T10:15:07Z</time></trkpt><trkpt lat="45.94815058326269" lon="9.262902622657005"><ele>638.0</ele><time>2026-04-04T10:15:08Z</time></trkpt><trkpt lat="45.94810976703234" lon="9.263125643393257"><ele>636.0</ele><time>2026-04-04T10:15:09Z</time></trkpt><trkpt lat="45.94806459665947" lon="9.263340748820552"><ele>634.0</ele><time>2026-04-04T10:15:10Z</time></trkpt><trkpt lat="45.948007331305945" lon="9.263549805186125"><ele>632.0</ele><time>2026-04-04T10:15:11Z</time></trkpt><trkpt lat="45.94790895039535" lon="9.263724963116085"><ele>632.0</ele><time>2026-04-04T10:15:12Z</time></trkpt><trkpt lat="45.9477932141009" lon="9.26387335189486"><ele>632.0</ele><time>2026-04-04T10:15:13Z</time></trkpt><trkpt lat="45.94769324612766" lon="9.264037894135233"><ele>632.0</ele><time>2026-04-04T10:15:14Z</time></trkpt><trkpt lat="45.94760710326396" lon="9.264188261772347"><ele>632.0</ele><time>2026-04-04T10:15:15Z</time></trkpt><trkpt lat="45.94752168241075" lon="9.264332495364808"><ele>635.0</ele><time>2026-04-04T10:15:16Z</time></trkpt><trkpt lat="45.94744526812478" lon="9.264493554193955"><ele>638.0</ele><time>2026-04-04T10:15:17Z</time></trkpt><trkpt lat="45.94739013735018" lon="9.26467292726296"><ele>641.0</ele><time>2026-04-04T10:15:18Z</time></trkpt><trkpt lat="45.94734448112403" lon="9.264880691776392"><ele>644.0</ele><time>2026-04-04T10:15:19Z</time></trkpt><trkpt lat="45.947303092363676" lon="9.26508589504674"><ele>644.0</ele><time>2026-04-04T10:15:20Z</time></trkpt><trkpt lat="45.94724929818835" lon="9.265279583179856"><ele>644.0</ele><time>2026-04-04T10:15:21Z</time></trkpt><trkpt lat="45.947188681242444" lon="9.26547648440394"><ele>644.0</ele><time>2026-04-04T10:15:22Z</time></trkpt><trkpt lat="45.94711867783148" lon="9.265657589145679"><ele>644.0</ele><time>2026-04-04T10:15:23Z</time></trkpt><trkpt lat="45.94700528338076" lon="9.265826800308268"><ele>641.0</ele><time>2026-04-04T10:15:24Z</time></trkpt><trkpt lat="45.94688163567234" lon="9.266031869222267"><ele>638.0</ele><time>2026-04-04T10:15:25Z</time></trkpt><trkpt lat="45.94677934631055" lon="9.266182930861266"><ele>635.0</ele><time>2026-04-04T10:15:26Z</time></trkpt><trkpt lat="45.946689132771645" lon="9.266389385430147"><ele>639.25</ele><time>2026-04-04T10:15:27Z</time></trkpt><trkpt lat="45.94661099670753" lon="9.266528949345084"><ele>643.5</ele><time>2026-04-04T10:15:28Z</time></trkpt><trkpt lat="45.94651557990238" lon="9.266677359770396"><ele>647.75</ele><time>2026-04-04T10:15:28.999Z</time></trkpt><trkpt lat="45.94638728345982" lon="9.266773779208672"><ele>652.0</ele><time>2026-04-04T10:15:29.999Z</time></trkpt><trkpt lat="45.94623095840045" lon="9.26690001868866"><ele>652.0</ele><time>2026-04-04T10:15:30.999Z</time></trkpt><trkpt lat="45.946098974583556" lon="9.267010600073988"><ele>652.0</ele><time>2026-04-04T10:15:31.999Z</time></trkpt><trkpt lat="45.94595150327964" lon="9.267155779431414"><ele>652.0</ele><time>2026-04-04T10:15:32.999Z</time></trkpt><trkpt lat="45.9458339506172" lon="9.267334191312262"><ele>653.6666666666667</ele><time>2026-04-04T10:15:33.999Z</time></trkpt><trkpt lat="45.94575195791404" lon="9.267528550708256"><ele>655.3333333333334</ele><time>2026-04-04T10:15:34.999Z</time></trkpt><trkpt lat="45.945687117720304" lon="9.267727494446877"><ele>657.0</ele><time>2026-04-04T10:15:35.999Z</time></trkpt><trkpt lat="45.945602152669494" lon="9.267950836604648"><ele>652.3333333333334</ele><time>2026-04-04T10:15:36.999Z</time></trkpt><trkpt lat="45.94549903911593" lon="9.268215519754419"><ele>647.6666666666667</ele><time>2026-04-04T10:15:37.999Z</time></trkpt><trkpt lat="45.945389899915355" lon="9.268495166605442"><ele>643.0</ele><time>2026-04-04T10:15:38.999Z</time></trkpt><trkpt lat="45.94529240594291" lon="9.26874497500364"><ele>640.6666666666667</ele><time>2026-04-04T10:15:39.999Z</time></trkpt><trkpt lat="45.9452206676752" lon="9.268960024360569"><ele>638.3333333333334</ele><time>2026-04-04T10:15:40.999Z</time></trkpt><trkpt lat="45.94514964725442" lon="9.269149358544196"><ele>636.0</ele><time>2026-04-04T10:15:41.999Z</time></trkpt><trkpt lat="45.94507412226394" lon="9.269326429628565"><ele>641.0</ele><time>2026-04-04T10:15:42.999Z</time></trkpt><trkpt lat="45.944975552873835" lon="9.269490602962437"><ele>646.0</ele><time>2026-04-04T10:15:43.999Z</time></trkpt><trkpt lat="45.94486693615971" lon="9.269644059231728"><ele>651.0</ele><time>2026-04-04T10:15:44.999Z</time></trkpt><trkpt lat="45.94475430625937" lon="9.269789652882965"><ele>651.0</ele><time>2026-04-04T10:15:45.999Z</time></trkpt><trkpt lat="45.944653377345716" lon="9.269920929330906"><ele>651.0</ele><time>2026-04-04T10:15:46.999Z</time></trkpt><trkpt lat="45.94456489036545" lon="9.270058527152417"><ele>651.0</ele><time>2026-04-04T10:15:47.999Z</time></trkpt><trkpt lat="45.94446108999957" lon="9.270160150681946"><ele>651.0</ele><time>2026-04-04T10:15:48.999Z</time></trkpt><trkpt lat="45.944382836692846" lon="9.270266883410814"><ele>651.0</ele><time>2026-04-04T10:15:49.999Z</time></trkpt><trkpt lat="45.94430893061079" lon="9.270345294008576"><ele>651.0</ele><time>2026-04-04T10:15:50.999Z</time></trkpt><trkpt lat="45.94424284197293" lon="9.270443199114409"><ele>651.0</ele><time>2026-04-04T10:15:51.999Z</time></trkpt><trkpt lat="45.94416956041526" lon="9.270544511122381"><ele>651.0</ele><time>2026-04-04T10:15:52.999Z</time></trkpt><trkpt lat="45.944084689213" lon="9.270650041100122"><ele>651.0</ele><time>2026-04-04T10:15:53.999Z</time></trkpt><trkpt lat="45.94398149664154" lon="9.270759225077281"><ele>650.75</ele><time>2026-04-04T10:15:54.999Z</time></trkpt><trkpt lat="45.943863717022616" lon="9.270844399193908"><ele>650.5</ele><time>2026-04-04T10:15:55.999Z</time></trkpt><trkpt lat="45.943744838608765" lon="9.27089350826822"><ele>650.25</ele><time>2026-04-04T10:15:56.999Z</time></trkpt><trkpt lat="45.943633118286854" lon="9.270887414258597"><ele>650.0</ele><time>2026-04-04T10:15:57.999Z</time></trkpt><trkpt lat="45.9435109862676" lon="9.270909060664698"><ele>650.0</ele><time>2026-04-04T10:15:58.999Z</time></trkpt><trkpt lat="45.94338221541202" lon="9.270889708277698"><ele>650.0</ele><time>2026-04-04T10:15:59.999Z</time></trkpt><trkpt lat="45.943264069279614" lon="9.270863068069437"><ele>650.0</ele><time>2026-04-04T10:16:00.999Z</time></trkpt><trkpt lat="45.94314234555224" lon="9.270861643614666"><ele>650.0</ele><time>2026-04-04T10:16:01.999Z</time></trkpt><trkpt lat="45.943016448431685" lon="9.270896789417053"><ele>651.75</ele><time>2026-04-04T10:16:02.999Z</time></trkpt><trkpt lat="45.94290192035052" lon="9.270997965210283"><ele>653.5</ele><time>2026-04-04T10:16:03.999Z</time></trkpt><trkpt lat="45.94279792058142" lon="9.271142548024663"><ele>655.25</ele><time>2026-04-04T10:16:04.999Z</time></trkpt><trkpt lat="45.942707243880754" lon="9.271276939730297"><ele>657.0</ele><time>2026-04-04T10:16:05.999Z</time></trkpt><trkpt lat="45.942597047794116" lon="9.271376527634194"><ele>654.5</ele><time>2026-04-04T10:16:06.999Z</time></trkpt><trkpt lat="45.942492719724775" lon="9.271500212174473"><ele>652.0</ele><time>2026-04-04T10:16:07.999Z</time></trkpt><trkpt lat="45.942387936448654" lon="9.271616373313687"><ele>649.5</ele><time>2026-04-04T10:16:08.999Z</time></trkpt><trkpt lat="45.94230236112694" lon="9.271724183285917"><ele>647.0</ele><time>2026-04-04T10:16:09.999Z</time></trkpt><trkpt lat="45.942213378310726" lon="9.271814891761368"><ele>647.0</ele><time>2026-04-04T10:16:10.999Z</time></trkpt><trkpt lat="45.94211074538356" lon="9.271898342376407"><ele>647.0</ele><time>2026-04-04T10:16:11.999Z</time></trkpt><trkpt lat="45.94199147620256" lon="9.271959706554275"><ele>647.0</ele><time>2026-04-04T10:16:12.999Z</time></trkpt><trkpt lat="45.941858926597504" lon="9.27201478693227"><ele>647.0</ele><time>2026-04-04T10:16:13.999Z</time></trkpt><trkpt lat="45.941734632429174" lon="9.272050586199557"><ele>649.4000000000001</ele><time>2026-04-04T10:16:14.999Z</time></trkpt><trkpt lat="45.941609228470725" lon="9.27208789290575"><ele>651.8000000000001</ele><time>2026-04-04T10:16:15.999Z</time></trkpt><trkpt lat="45.94150262624552" lon="9.272099479741462"><ele>654.2</ele><time>2026-04-04T10:16:16.999Z</time></trkpt><trkpt lat="45.94140675269671" lon="9.272130178881303"><ele>656.6</ele><time>2026-04-04T10:16:17.999Z</time></trkpt><trkpt lat="45.941320027163506" lon="9.272161758135342"><ele>659.0</ele><time>2026-04-04T10:16:18.999Z</time></trkpt><trkpt lat="45.94122190655924" lon="9.272189899981555"><ele>659.0</ele><time>2026-04-04T10:16:19.999Z</time></trkpt><trkpt lat="45.94111068138918" lon="9.272226577355966"><ele>659.0</ele><time>2026-04-04T10:16:20.999Z</time></trkpt><trkpt lat="45.94101182834911" lon="9.27224364550696"><ele>659.0</ele><time>2026-04-04T10:16:21.999Z</time></trkpt><trkpt lat="45.940917545318094" lon="9.272278885959633"><ele>659.0</ele><time>2026-04-04T10:16:22.999Z</time></trkpt><trkpt lat="45.94084491568802" lon="9.272300391451994"><ele>659.0</ele><time>2026-04-04T10:16:23.999Z</time></trkpt><trkpt lat="45.94077519140924" lon="9.272317554239482"><ele>656.5</ele><time>2026-04-04T10:16:24.999Z</time></trkpt><trkpt lat="45.940704984950756" lon="9.2723338368278"><ele>654.0</ele><time>2026-04-04T10:16:25.999Z</time></trkpt><trkpt lat="45.940638957374915" lon="9.272352834197243"><ele>651.5</ele><time>2026-04-04T10:16:26.999Z</time></trkpt><trkpt lat="45.94057493829246" lon="9.272369053448594"><ele>649.0</ele><time>2026-04-04T10:16:27.999Z</time></trkpt><trkpt lat="45.9404919942474" lon="9.272396451667788"><ele>646.5</ele><time>2026-04-04T10:16:28.999Z</time></trkpt><trkpt lat="45.94040483520161" lon="9.272407992735383"><ele>644.0</ele><time>2026-04-04T10:16:29.999Z</time></trkpt><trkpt lat="45.940302412776326" lon="9.272455370939394"><ele>644.0</ele><time>2026-04-04T10:16:30.999Z</time></trkpt><trkpt lat="45.94019543737093" lon="9.272486059669687"><ele>644.0</ele><time>2026-04-04T10:16:31.999Z</time></trkpt><trkpt lat="45.94008406206603" lon="9.272522894832367"><ele>644.0</ele><time>2026-04-04T10:16:32.999Z</time></trkpt><trkpt lat="45.93997341000892" lon="9.27255826335011"><ele>644.0</ele><time>2026-04-04T10:16:33.999Z</time></trkpt><trkpt lat="45.9398723688329" lon="9.2725812189233"><ele>644.0</ele><time>2026-04-04T10:16:35Z</time></trkpt><trkpt lat="45.93978123333638" lon="9.272628772004744"><ele>644.3333333333333</ele><time>2026-04-04T10:16:36Z</time></trkpt><trkpt lat="45.93969581643873" lon="9.272669795489511"><ele>644.6666666666666</ele><time>2026-04-04T10:16:37Z</time></trkpt><trkpt lat="45.939616006615985" lon="9.272731593798389"><ele>645.0</ele><time>2026-04-04T10:16:38Z</time></trkpt><trkpt lat="45.93953273576074" lon="9.272772653600251"><ele>645.3333333333334</ele><time>2026-04-04T10:16:39Z</time></trkpt><trkpt lat="45.93946863085348" lon="9.27279531572634"><ele>645.6666666666667</ele><time>2026-04-04T10:16:40Z</time></trkpt><trkpt lat="45.939397066778355" lon="9.27283332436446"><ele>646.0</ele><time>2026-04-04T10:16:42Z</time></trkpt><trkpt lat="45.9392600353234" lon="9.272860450607581"><ele>645.0</ele><time>2026-04-04T10:16:44Z</time></trkpt><trkpt lat="45.939172496848485" lon="9.27286392456861"><ele>644.0</ele><time>2026-04-04T10:16:45Z</time></trkpt><trkpt lat="45.93906449940525" lon="9.272867603446153"><ele>643.0</ele><time>2026-04-04T10:16:46Z</time></trkpt><trkpt lat="45.93895821771845" lon="9.27287591202046"><ele>642.0</ele><time>2026-04-04T10:16:47Z</time></trkpt><trkpt lat="45.93886226786811" lon="9.272877152248673"><ele>641.0</ele><time>2026-04-04T10:16:48Z</time></trkpt><trkpt lat="45.938781934805" lon="9.272854182404485"><ele>641.0</ele><time>2026-04-04T10:16:49Z</time></trkpt><trkpt lat="45.938696076121346" lon="9.272808645533193"><ele>641.0</ele><time>2026-04-04T10:16:50Z</time></trkpt><trkpt lat="45.938611929969426" lon="9.27271300606644"><ele>641.0</ele><time>2026-04-04T10:16:51Z</time></trkpt><trkpt lat="45.93854370954574" lon="9.27258858101478"><ele>641.0</ele><time>2026-04-04T10:16:52Z</time></trkpt><trkpt lat="45.93848810182984" lon="9.272437043303478"><ele>641.0</ele><time>2026-04-04T10:16:53Z</time></trkpt><trkpt lat="45.938434187343596" lon="9.272286953803112"><ele>641.0</ele><time>2026-04-04T10:16:54Z</time></trkpt><trkpt lat="45.93837574186453" lon="9.272156439068164"><ele>641.0</ele><time>2026-04-04T10:16:55Z</time></trkpt><trkpt lat="45.93830622071774" lon="9.272044735951251"><ele>641.0</ele><time>2026-04-04T10:16:56Z</time></trkpt><trkpt lat="45.938249509589866" lon="9.271946474032514"><ele>641.0</ele><time>2026-04-04T10:16:57Z</time></trkpt><trkpt lat="45.93817184662296" lon="9.271860054009457"><ele>641.0</ele><time>2026-04-04T10:16:58Z</time></trkpt><trkpt lat="45.938079649427145" lon="9.27181985084617"><ele>641.0</ele><time>2026-04-04T10:16:59Z</time></trkpt><trkpt lat="45.937969341259105" lon="9.271806876241756"><ele>641.0</ele><time>2026-04-04T10:17:00Z</time></trkpt><trkpt lat="45.93785628193635" lon="9.271758558211664"><ele>641.0</ele><time>2026-04-04T10:17:01Z</time></trkpt><trkpt lat="45.9377379642354" lon="9.27170136965233"><ele>641.0</ele><time>2026-04-04T10:17:02Z</time></trkpt><trkpt lat="45.93762843079643" lon="9.271600676038824"><ele>641.5999999999999</ele><time>2026-04-04T10:17:03Z</time></trkpt><trkpt lat="45.937525224888404" lon="9.27150982515361"><ele>642.2</ele><time>2026-04-04T10:17:04Z</time></trkpt><trkpt lat="45.93743243790402" lon="9.271433461574125"><ele>642.8</ele><time>2026-04-04T10:17:05Z</time></trkpt><trkpt lat="45.937341803927254" lon="9.271384328049542"><ele>643.4000000000001</ele><time>2026-04-04T10:17:06Z</time></trkpt><trkpt lat="45.93725814630207" lon="9.271329612834645"><ele>644.0</ele><time>2026-04-04T10:17:07Z</time></trkpt><trkpt lat="45.93716707470098" lon="9.271304068413142"><ele>644.0</ele><time>2026-04-04T10:17:08Z</time></trkpt><trkpt lat="45.93708964304525" lon="9.271249056263349"><ele>644.0</ele><time>2026-04-04T10:17:09Z</time></trkpt><trkpt lat="45.93702259320998" lon="9.27121148470378"><ele>644.0</ele><time>2026-04-04T10:17:10Z</time></trkpt><trkpt lat="45.936939806654514" lon="9.271189678106984"><ele>644.0</ele><time>2026-04-04T10:17:11Z</time></trkpt><trkpt lat="45.93685309244268" lon="9.271161330792582"><ele>644.0</ele><time>2026-04-04T10:17:12Z</time></trkpt><trkpt lat="45.93678135752901" lon="9.271140953413706"><ele>644.0</ele><time>2026-04-04T10:17:13Z</time></trkpt><trkpt lat="45.93671283842979" lon="9.271134410939279"><ele>642.6</ele><time>2026-04-04T10:17:14Z</time></trkpt><trkpt lat="45.93663151363032" lon="9.271119918580016"><ele>641.2</ele><time>2026-04-04T10:17:15Z</time></trkpt><trkpt lat="45.93654137870825" lon="9.2711074942004"><ele>639.8000000000001</ele><time>2026-04-04T10:17:16Z</time></trkpt><trkpt lat="45.93644734228873" lon="9.271110521924092"><ele>638.4000000000001</ele><time>2026-04-04T10:17:17Z</time></trkpt><trkpt lat="45.93633551034737" lon="9.2710942694943"><ele>637.0</ele><time>2026-04-04T10:17:18Z</time></trkpt><trkpt lat="45.93621517939857" lon="9.271076205554072"><ele>637.0</ele><time>2026-04-04T10:17:19Z</time></trkpt><trkpt lat="45.93608016959836" lon="9.271068770967883"><ele>637.0</ele><time>2026-04-04T10:17:20Z</time></trkpt><trkpt lat="45.9359491185383" lon="9.271046516404928"><ele>637.0</ele><time>2026-04-04T10:17:21Z</time></trkpt><trkpt lat="45.93584067699129" lon="9.271023448418894"><ele>637.0</ele><time>2026-04-04T10:17:22Z</time></trkpt><trkpt lat="45.93573363402817" lon="9.270983102215302"><ele>636.6</ele><time>2026-04-04T10:17:23Z</time></trkpt><trkpt lat="45.93564519929548" lon="9.27090755295544"><ele>636.2</ele><time>2026-04-04T10:17:24Z</time></trkpt><trkpt lat="45.935559304770344" lon="9.27081106367725"><ele>635.8</ele><time>2026-04-04T10:17:25Z</time></trkpt><trkpt lat="45.935464826678164" lon="9.270711032970885"><ele>635.4</ele><time>2026-04-04T10:17:26Z</time></trkpt><trkpt lat="45.935364039229036" lon="9.270618084438684"><ele>635.0</ele><time>2026-04-04T10:17:27Z</time></trkpt><trkpt lat="45.93525533086337" lon="9.27054352084624"><ele>635.0</ele><time>2026-04-04T10:17:28Z</time></trkpt><trkpt lat="45.935129132036536" lon="9.27047689411577"><ele>635.0</ele><time>2026-04-04T10:17:29Z</time></trkpt><trkpt lat="45.93499476174492" lon="9.270426809281021"><ele>635.0</ele><time>2026-04-04T10:17:30Z</time></trkpt><trkpt lat="45.93486463108705" lon="9.270369912444849"><ele>635.0</ele><time>2026-04-04T10:17:31Z</time></trkpt><trkpt lat="45.93475040618776" lon="9.270310475579514"><ele>633.8</ele><time>2026-04-04T10:17:32Z</time></trkpt><trkpt lat="45.9346615861124" lon="9.270251587985603"><ele>632.6</ele><time>2026-04-04T10:17:33Z</time></trkpt><trkpt lat="45.93459759953554" lon="9.270172600403118"><ele>631.4</ele><time>2026-04-04T10:17:34Z</time></trkpt><trkpt lat="45.93454015620336" lon="9.270065021295304"><ele>630.2</ele><time>2026-04-04T10:17:35Z</time></trkpt><trkpt lat="45.93450589683238" lon="9.26993853375587"><ele>629.0</ele><time>2026-04-04T10:17:36Z</time></trkpt><trkpt lat="45.934501813549105" lon="9.269790200399347"><ele>631.0</ele><time>2026-04-04T10:17:37Z</time></trkpt><trkpt lat="45.934523338607455" lon="9.269641555452203"><ele>633.0</ele><time>2026-04-04T10:17:38Z</time></trkpt><trkpt lat="45.93454083651791" lon="9.269473295445222"><ele>635.0</ele><time>2026-04-04T10:17:39Z</time></trkpt><trkpt lat="45.93453963354017" lon="9.26929200768846"><ele>637.0</ele><time>2026-04-04T10:17:40Z</time></trkpt><trkpt lat="45.934512089442514" lon="9.269110013161436"><ele>637.0</ele><time>2026-04-04T10:17:40.999Z</time></trkpt><trkpt lat="45.93445593269264" lon="9.268946321464014"><ele>637.0</ele><time>2026-04-04T10:17:41.999Z</time></trkpt><trkpt lat="45.934372049588525" lon="9.268795105350502"><ele>637.0</ele><time>2026-04-04T10:17:42.999Z</time></trkpt><trkpt lat="45.934263807354846" lon="9.268664834084989"><ele>637.0</ele><time>2026-04-04T10:17:43.999Z</time></trkpt><trkpt lat="45.93413597339139" lon="9.26857051111966"><ele>636.3333333333334</ele><time>2026-04-04T10:17:44.999Z</time></trkpt><trkpt lat="45.933999962175754" lon="9.268497486865229"><ele>635.6666666666666</ele><time>2026-04-04T10:17:45.999Z</time></trkpt><trkpt lat="45.933849163364535" lon="9.268516433206155"><ele>635.0</ele><time>2026-04-04T10:17:46.999Z</time></trkpt><trkpt lat="45.93369566785567" lon="9.268563823559127"><ele>635.0</ele><time>2026-04-04T10:17:47.999Z</time></trkpt><trkpt lat="45.933539556637626" lon="9.268638741775357"><ele>635.0</ele><time>2026-04-04T10:17:48.999Z</time></trkpt><trkpt lat="45.933381195666975" lon="9.268708619654838"><ele>635.0</ele><time>2026-04-04T10:17:49.999Z</time></trkpt><trkpt lat="45.93324929103565" lon="9.268792951509083"><ele>635.0</ele><time>2026-04-04T10:17:50.999Z</time></trkpt><trkpt lat="45.93314597646649" lon="9.268925623208608"><ele>635.0</ele><time>2026-04-04T10:17:51.999Z</time></trkpt><trkpt lat="45.93306162385415" lon="9.269106997218046"><ele>635.0</ele><time>2026-04-04T10:17:52.999Z</time></trkpt><trkpt lat="45.93298637161621" lon="9.269280992903692"><ele>635.0</ele><time>2026-04-04T10:17:53.999Z</time></trkpt><trkpt lat="45.93288386497872" lon="9.269373321690761"><ele>633.75</ele><time>2026-04-04T10:17:54.999Z</time></trkpt><trkpt lat="45.93277466157152" lon="9.269431699198327"><ele>632.5</ele><time>2026-04-04T10:17:55.999Z</time></trkpt><trkpt lat="45.93266104967278" lon="9.269428099145337"><ele>631.25</ele><time>2026-04-04T10:17:56.999Z</time></trkpt><trkpt lat="45.93256600865131" lon="9.269378032739777"><ele>630.0</ele><time>2026-04-04T10:17:57.999Z</time></trkpt><trkpt lat="45.93244207458432" lon="9.269338285120812"><ele>630.0</ele><time>2026-04-04T10:17:58.999Z</time></trkpt><trkpt lat="45.93231424484041" lon="9.269331252912282"><ele>630.0</ele><time>2026-04-04T10:17:59.999Z</time></trkpt><trkpt lat="45.93217349890634" lon="9.269337010876924"><ele>630.0</ele><time>2026-04-04T10:18:00.999Z</time></trkpt><trkpt lat="45.932038119423865" lon="9.269397415241356"><ele>630.0</ele><time>2026-04-04T10:18:01.999Z</time></trkpt><trkpt lat="45.93191559129449" lon="9.269503078229217"><ele>630.0</ele><time>2026-04-04T10:18:02.999Z</time></trkpt><trkpt lat="45.931808915850354" lon="9.269611100506141"><ele>630.0</ele><time>2026-04-04T10:18:03.999Z</time></trkpt><trkpt lat="45.931736702049626" lon="9.269749219758433"><ele>630.0</ele><time>2026-04-04T10:18:04.999Z</time></trkpt><trkpt lat="45.931627822886156" lon="9.269832963606872"><ele>630.0</ele><time>2026-04-04T10:18:05.999Z</time></trkpt><trkpt lat="45.93150931272047" lon="9.269876274208865"><ele>628.5</ele><time>2026-04-04T10:18:06.999Z</time></trkpt><trkpt lat="45.931385480266144" lon="9.269877266296676"><ele>627.0</ele><time>2026-04-04T10:18:07.999Z</time></trkpt><trkpt lat="45.93125414815906" lon="9.26984887469019"><ele>625.5</ele><time>2026-04-04T10:18:08.999Z</time></trkpt><trkpt lat="45.931112072629276" lon="9.26982715973016"><ele>624.0</ele><time>2026-04-04T10:18:09.999Z</time></trkpt><trkpt lat="45.9309815783259" lon="9.269803707893884"><ele>630.5</ele><time>2026-04-04T10:18:10.999Z</time></trkpt><trkpt lat="45.93086809926744" lon="9.269726483531922"><ele>637.0</ele><time>2026-04-04T10:18:11.999Z</time></trkpt><trkpt lat="45.930766133767044" lon="9.269626089179265"><ele>643.5</ele><time>2026-04-04T10:18:12.999Z</time></trkpt><trkpt lat="45.93066093583926" lon="9.269525688185746"><ele>650.0</ele><time>2026-04-04T10:18:13.999Z</time></trkpt><trkpt lat="45.93057776716578" lon="9.269437883983297"><ele>650.0</ele><time>2026-04-04T10:18:14.999Z</time></trkpt><trkpt lat="45.930485677304596" lon="9.26938651087251"><ele>650.0</ele><time>2026-04-04T10:18:15.999Z</time></trkpt><trkpt lat="45.93039343549526" lon="9.26937304262371"><ele>650.0</ele><time>2026-04-04T10:18:16.999Z</time></trkpt><trkpt lat="45.93031277868194" lon="9.269379416818566"><ele>650.0</ele><time>2026-04-04T10:18:17.999Z</time></trkpt><trkpt lat="45.93022648906017" lon="9.26937998572324"><ele>650.0</ele><time>2026-04-04T10:18:18.999Z</time></trkpt><trkpt lat="45.93013146212731" lon="9.269376816060502"><ele>651.5</ele><time>2026-04-04T10:18:19.999Z</time></trkpt><trkpt lat="45.93004247364814" lon="9.269367577223463"><ele>653.0</ele><time>2026-04-04T10:18:20.999Z</time></trkpt><trkpt lat="45.92995927016988" lon="9.26934783008974"><ele>654.5</ele><time>2026-04-04T10:18:21.999Z</time></trkpt><trkpt lat="45.9298551832523" lon="9.269330782163356"><ele>656.0</ele><time>2026-04-04T10:18:22.999Z</time></trkpt><trkpt lat="45.92976919637965" lon="9.269314166907153"><ele>657.5</ele><time>2026-04-04T10:18:23.999Z</time></trkpt><trkpt lat="45.9296913422089" lon="9.269300162762685"><ele>659.0</ele><time>2026-04-04T10:18:24.999Z</time></trkpt><trkpt lat="45.92962377952429" lon="9.269272420138057"><ele>659.0</ele><time>2026-04-04T10:18:25.999Z</time></trkpt><trkpt lat="45.92949840307931" lon="9.269215023229064"><ele>659.0</ele><time>2026-04-04T10:18:27.999Z</time></trkpt><trkpt lat="45.929439354585575" lon="9.269154877018982"><ele>659.0</ele><time>2026-04-04T10:18:28.999Z</time></trkpt><trkpt lat="45.92938536357079" lon="9.269087485324487"><ele>659.0</ele><time>2026-04-04T10:18:29.999Z</time></trkpt><trkpt lat="45.929343061559194" lon="9.269005414094249"><ele>659.0</ele><time>2026-04-04T10:18:30.999Z</time></trkpt><trkpt lat="45.9293008406132" lon="9.268909793809394"><ele>659.0</ele><time>2026-04-04T10:18:31.999Z</time></trkpt><trkpt lat="45.92926736605378" lon="9.268831146719618"><ele>659.0</ele><time>2026-04-04T10:18:32.999Z</time></trkpt><trkpt lat="45.92919500383495" lon="9.26871028778712"><ele>659.0</ele><time>2026-04-04T10:18:34.999Z</time></trkpt><trkpt lat="45.92910328772811" lon="9.268633785672272"><ele>659.0</ele><time>2026-04-04T10:18:36.999Z</time></trkpt><trkpt lat="45.92900428461012" lon="9.268711096752225"><ele>659.0</ele><time>2026-04-04T10:18:38.999Z</time></trkpt><trkpt lat="45.92899232067083" lon="9.268804589513206"><ele>659.0</ele><time>2026-04-04T10:18:39.999Z</time></trkpt><trkpt lat="45.9290219004169" lon="9.268990459783941"><ele>659.0</ele><time>2026-04-04T10:18:42Z</time></trkpt><trkpt lat="45.92901991905496" lon="9.269149539732448"><ele>659.0</ele><time>2026-04-04T10:18:44Z</time></trkpt><trkpt lat="45.928992563668345" lon="9.269292909950762"><ele>659.0</ele><time>2026-04-04T10:18:46Z</time></trkpt><trkpt lat="45.92892556472531" lon="9.269305421418544"><ele>659.0</ele><time>2026-04-04T10:18:47Z</time></trkpt><trkpt lat="45.92885868719251" lon="9.269276485703317"><ele>659.0</ele><time>2026-04-04T10:18:48Z</time></trkpt><trkpt lat="45.9288005109265" lon="9.2692088171851"><ele>659.0</ele><time>2026-04-04T10:18:49Z</time></trkpt><trkpt lat="45.928740197817426" lon="9.269153368727236"><ele>659.0</ele><time>2026-04-04T10:18:50Z</time></trkpt><trkpt lat="45.92867823490102" lon="9.269105673451538"><ele>659.0</ele><time>2026-04-04T10:18:51Z</time></trkpt><trkpt lat="45.92861584217776" lon="9.269068203069665"><ele>659.0</ele><time>2026-04-04T10:18:52Z</time></trkpt><trkpt lat="45.928553340251135" lon="9.269040638016577"><ele>659.0</ele><time>2026-04-04T10:18:53Z</time></trkpt><trkpt lat="45.928487419668315" lon="9.269019310424069"><ele>659.0</ele><time>2026-04-04T10:18:54Z</time></trkpt><trkpt lat="45.9283717611074" lon="9.26895808532156"><ele>659.0</ele><time>2026-04-04T10:18:56Z</time></trkpt><trkpt lat="45.928263955864615" lon="9.26888114284128"><ele>662.5</ele><time>2026-04-04T10:18:58Z</time></trkpt><trkpt lat="45.928255245325445" lon="9.268779110639205"><ele>666.0</ele><time>2026-04-04T10:18:59Z</time></trkpt><trkpt lat="45.92829226837048" lon="9.268687120762284"><ele>669.5</ele><time>2026-04-04T10:19:00Z</time></trkpt><trkpt lat="45.928374102452494" lon="9.268627457402586"><ele>673.0</ele><time>2026-04-04T10:19:01Z</time></trkpt><trkpt lat="45.92846936952909" lon="9.268582855913976"><ele>676.5</ele><time>2026-04-04T10:19:02Z</time></trkpt><trkpt lat="45.92854965308741" lon="9.268534564873804"><ele>680.0</ele><time>2026-04-04T10:19:03Z</time></trkpt><trkpt lat="45.92862785406268" lon="9.268488538803792"><ele>680.0</ele><time>2026-04-04T10:19:04Z</time></trkpt><trkpt lat="45.928701230163014" lon="9.268445460435927"><ele>680.0</ele><time>2026-04-04T10:19:05Z</time></trkpt><trkpt lat="45.92877227641667" lon="9.268397962987608"><ele>680.0</ele><time>2026-04-04T10:19:06Z</time></trkpt><trkpt lat="45.928797105541484" lon="9.268247798715969"><ele>680.0</ele><time>2026-04-04T10:19:08Z</time></trkpt><trkpt lat="45.92873304119839" lon="9.268175303584782"><ele>680.0</ele><time>2026-04-04T10:19:09Z</time></trkpt><trkpt lat="45.92865279692411" lon="9.268162268909174"><ele>680.0</ele><time>2026-04-04T10:19:10Z</time></trkpt><trkpt lat="45.92857968384838" lon="9.268191341954642"><ele>680.0</ele><time>2026-04-04T10:19:11Z</time></trkpt><trkpt lat="45.92850473224845" lon="9.268254240810194"><ele>680.0</ele><time>2026-04-04T10:19:12Z</time></trkpt><trkpt lat="45.92842882915189" lon="9.26830340821005"><ele>680.0</ele><time>2026-04-04T10:19:13Z</time></trkpt><trkpt lat="45.92834083616474" lon="9.268346324509238"><ele>680.0</ele><time>2026-04-04T10:19:14Z</time></trkpt><trkpt lat="45.928253941755514" lon="9.268388319163364"><ele>680.0</ele><time>2026-04-04T10:19:15Z</time></trkpt><trkpt lat="45.92817668035484" lon="9.268441188207472"><ele>680.0</ele><time>2026-04-04T10:19:16Z</time></trkpt><trkpt lat="45.92811322287475" lon="9.268505353738524"><ele>681.3333333333333</ele><time>2026-04-04T10:19:17Z</time></trkpt><trkpt lat="45.92806101914469" lon="9.268584667204202"><ele>682.6666666666666</ele><time>2026-04-04T10:19:18Z</time></trkpt><trkpt lat="45.92800717276784" lon="9.268651144715886"><ele>684.0</ele><time>2026-04-04T10:19:19Z</time></trkpt><trkpt lat="45.927951560524754" lon="9.268705804598508"><ele>685.3333333333334</ele><time>2026-04-04T10:19:20Z</time></trkpt><trkpt lat="45.92785370736018" lon="9.268811013562578"><ele>686.6666666666667</ele><time>2026-04-04T10:19:22Z</time></trkpt><trkpt lat="45.92776989076125" lon="9.268889888895746"><ele>688.0</ele><time>2026-04-04T10:19:24Z</time></trkpt><trkpt lat="45.92768421183723" lon="9.26896192660659"><ele>688.0</ele><time>2026-04-04T10:19:26Z</time></trkpt><trkpt lat="45.92761712350188" lon="9.269053323394768"><ele>688.0</ele><time>2026-04-04T10:19:28Z</time></trkpt><trkpt lat="45.92752494895922" lon="9.26909790110225"><ele>688.0</ele><time>2026-04-04T10:19:30Z</time></trkpt><trkpt lat="45.927480137945764" lon="9.268939172175754"><ele>688.0</ele><time>2026-04-04T10:19:32Z</time></trkpt><trkpt lat="45.9275183364189" lon="9.268861966418443"><ele>688.0</ele><time>2026-04-04T10:19:33Z</time></trkpt><trkpt lat="45.92758095073051" lon="9.268824242446003"><ele>688.0</ele><time>2026-04-04T10:19:34Z</time></trkpt><trkpt lat="45.927698994098904" lon="9.268760629415969"><ele>688.0</ele><time>2026-04-04T10:19:36Z</time></trkpt><trkpt lat="45.927762887896066" lon="9.2687034304184"><ele>688.0</ele><time>2026-04-04T10:19:36.999Z</time></trkpt><trkpt lat="45.92783690039015" lon="9.268630520712975"><ele>688.0</ele><time>2026-04-04T10:19:37.999Z</time></trkpt><trkpt lat="45.9278911940345" lon="9.26855118070796"><ele>688.0</ele><time>2026-04-04T10:19:38.999Z</time></trkpt><trkpt lat="45.927902678937755" lon="9.268453906001637"><ele>688.0</ele><time>2026-04-04T10:19:39.999Z</time></trkpt><trkpt lat="45.92785617201137" lon="9.268367186689687"><ele>688.0</ele><time>2026-04-04T10:19:40.999Z</time></trkpt><trkpt lat="45.927762015158585" lon="9.268342781609775"><ele>688.0</ele><time>2026-04-04T10:19:41.999Z</time></trkpt><trkpt lat="45.92764780751632" lon="9.268394538892316"><ele>688.0</ele><time>2026-04-04T10:19:42.999Z</time></trkpt><trkpt lat="45.92752387562661" lon="9.268473426819288"><ele>688.0</ele><time>2026-04-04T10:19:43.999Z</time></trkpt><trkpt lat="45.92742871399768" lon="9.268519122725849"><ele>688.0</ele><time>2026-04-04T10:19:44.999Z</time></trkpt><trkpt lat="45.92732956673505" lon="9.268564526205232"><ele>692.0</ele><time>2026-04-04T10:19:46.999Z</time></trkpt><trkpt lat="45.92726660856246" lon="9.268567035680274"><ele>696.0</ele><time>2026-04-04T10:19:48.999Z</time></trkpt><trkpt lat="45.92721556267445" lon="9.268478818411914"><ele>700.0</ele><time>2026-04-04T10:19:50.999Z</time></trkpt><trkpt lat="45.92733942712528" lon="9.268327180689601"><ele>704.0</ele><time>2026-04-04T10:19:53.999Z</time></trkpt><trkpt lat="45.92741232799362" lon="9.268307791673466"><ele>708.0</ele><time>2026-04-04T10:19:54.999Z</time></trkpt><trkpt lat="45.92749672003365" lon="9.268263359188198"><ele>708.6666666666666</ele><time>2026-04-04T10:19:55.999Z</time></trkpt><trkpt lat="45.9275826077293" lon="9.268207583345228"><ele>709.3333333333334</ele><time>2026-04-04T10:19:56.999Z</time></trkpt><trkpt lat="45.92765459255723" lon="9.268168157540753"><ele>710.0</ele><time>2026-04-04T10:19:57.999Z</time></trkpt><trkpt lat="45.92771293096643" lon="9.26812962177762"><ele>710.6666666666667</ele><time>2026-04-04T10:19:58.999Z</time></trkpt><trkpt lat="45.927815027005124" lon="9.268068887704018"><ele>711.3333333333334</ele><time>2026-04-04T10:20:00.999Z</time></trkpt><trkpt lat="45.92790945394998" lon="9.268008455870667"><ele>712.0</ele><time>2026-04-04T10:20:02.999Z</time></trkpt><trkpt lat="45.92794073872888" lon="9.267867217949838"><ele>712.0</ele><time>2026-04-04T10:20:04.999Z</time></trkpt><trkpt lat="45.92784136468051" lon="9.26775108257344"><ele>712.0</ele><time>2026-04-04T10:20:06.999Z</time></trkpt><trkpt lat="45.927770425802606" lon="9.26772075690566"><ele>712.0</ele><time>2026-04-04T10:20:07.999Z</time></trkpt><trkpt lat="45.92768550052076" lon="9.267695392773879"><ele>712.0</ele><time>2026-04-04T10:20:08.999Z</time></trkpt><trkpt lat="45.92759178993236" lon="9.267650355601086"><ele>712.0</ele><time>2026-04-04T10:20:09.999Z</time></trkpt><trkpt lat="45.927499627508546" lon="9.267610174644622"><ele>714.5</ele><time>2026-04-04T10:20:10.999Z</time></trkpt><trkpt lat="45.92740868872169" lon="9.267589508190241"><ele>717.0</ele><time>2026-04-04T10:20:11.999Z</time></trkpt><trkpt lat="45.92732940310303" lon="9.267588217916071"><ele>719.5</ele><time>2026-04-04T10:20:12.999Z</time></trkpt><trkpt lat="45.92724880793233" lon="9.267561307018006"><ele>722.0</ele><time>2026-04-04T10:20:13.999Z</time></trkpt><trkpt lat="45.9271575324971" lon="9.267562626565509"><ele>724.5</ele><time>2026-04-04T10:20:14.999Z</time></trkpt><trkpt lat="45.92706097574711" lon="9.267555047631859"><ele>727.0</ele><time>2026-04-04T10:20:15.999Z</time></trkpt><trkpt lat="45.926920021774414" lon="9.267583679397248"><ele>732.0</ele><time>2026-04-04T10:20:17.999Z</time></trkpt><trkpt lat="45.926720427603605" lon="9.267639095039751"><ele>737.0</ele><time>2026-04-04T10:20:18.999Z</time></trkpt><trkpt lat="45.92654685758687" lon="9.267691591388894"><ele>742.0</ele><time>2026-04-04T10:20:19.999Z</time></trkpt><trkpt lat="45.92635899644818" lon="9.267762860267208"><ele>742.0</ele><time>2026-04-04T10:20:20.999Z</time></trkpt><trkpt lat="45.926162709527624" lon="9.26779866823742"><ele>742.0</ele><time>2026-04-04T10:20:21.999Z</time></trkpt><trkpt lat="45.92598039513966" lon="9.267855523120309"><ele>742.0</ele><time>2026-04-04T10:20:22.999Z</time></trkpt><trkpt lat="45.92582061957812" lon="9.267908860775318"><ele>744.0</ele><time>2026-04-04T10:20:23.999Z</time></trkpt><trkpt lat="45.92566752444106" lon="9.267954733528555"><ele>746.0</ele><time>2026-04-04T10:20:24.999Z</time></trkpt><trkpt lat="45.92552042694522" lon="9.26799516472647"><ele>748.0</ele><time>2026-04-04T10:20:25.999Z</time></trkpt><trkpt lat="45.9253814073178" lon="9.268009880546005"><ele>750.0</ele><time>2026-04-04T10:20:26.999Z</time></trkpt><trkpt lat="45.92524015137151" lon="9.267983968099369"><ele>750.0</ele><time>2026-04-04T10:20:27.999Z</time></trkpt><trkpt lat="45.92509239308156" lon="9.267927350099674"><ele>750.0</ele><time>2026-04-04T10:20:28.999Z</time></trkpt><trkpt lat="45.924951652235826" lon="9.267859902095749"><ele>750.0</ele><time>2026-04-04T10:20:29.999Z</time></trkpt><trkpt lat="45.92481710772989" lon="9.267796149275654"><ele>750.0</ele><time>2026-04-04T10:20:30.999Z</time></trkpt><trkpt lat="45.924684391705554" lon="9.267740131044512"><ele>751.2</ele><time>2026-04-04T10:20:31.999Z</time></trkpt><trkpt lat="45.92456881607303" lon="9.267694922547973"><ele>752.4</ele><time>2026-04-04T10:20:32.999Z</time></trkpt><trkpt lat="45.92447447998332" lon="9.267654891733216"><ele>753.5999999999999</ele><time>2026-04-04T10:20:33.999Z</time></trkpt><trkpt lat="45.924371562784714" lon="9.267617455822812"><ele>754.8</ele><time>2026-04-04T10:20:34.999Z</time></trkpt><trkpt lat="45.924271776393944" lon="9.267585010477648"><ele>756.0</ele><time>2026-04-04T10:20:35.999Z</time></trkpt><trkpt lat="45.92419541815722" lon="9.267533041778979"><ele>756.0</ele><time>2026-04-04T10:20:36.999Z</time></trkpt><trkpt lat="45.92412775033308" lon="9.267498647571555"><ele>756.0</ele><time>2026-04-04T10:20:37.999Z</time></trkpt><trkpt lat="45.924061012590116" lon="9.267451265432051"><ele>756.0</ele><time>2026-04-04T10:20:38.999Z</time></trkpt><trkpt lat="45.923986049552575" lon="9.267380076417496"><ele>756.0</ele><time>2026-04-04T10:20:39.999Z</time></trkpt><trkpt lat="45.923908930031764" lon="9.26731884073563"><ele>756.0</ele><time>2026-04-04T10:20:40.999Z</time></trkpt><trkpt lat="45.92384832698504" lon="9.267269678573314"><ele>756.0</ele><time>2026-04-04T10:20:41.999Z</time></trkpt><trkpt lat="45.923792200984025" lon="9.26722631490032"><ele>756.0</ele><time>2026-04-04T10:20:42.999Z</time></trkpt><trkpt lat="45.92372579955615" lon="9.267171452708505"><ele>756.0</ele><time>2026-04-04T10:20:44.999Z</time></trkpt><trkpt lat="45.923665851140235" lon="9.267123359604408"><ele>756.0</ele><time>2026-04-04T10:20:48Z</time></trkpt><trkpt lat="45.923610420933244" lon="9.267307826710148"><ele>756.0</ele><time>2026-04-04T10:20:50Z</time></trkpt><trkpt lat="45.92347468196821" lon="9.267289714469428"><ele>756.0</ele><time>2026-04-04T10:20:53Z</time></trkpt><trkpt lat="45.923356492720565" lon="9.267207463262412"><ele>755.8</ele><time>2026-04-04T10:20:55Z</time></trkpt><trkpt lat="45.92324018250792" lon="9.267152636591437"><ele>755.5999999999999</ele><time>2026-04-04T10:20:57Z</time></trkpt><trkpt lat="45.923179710824115" lon="9.267114399655739"><ele>755.4</ele><time>2026-04-04T10:20:58Z</time></trkpt><trkpt lat="45.92307158222041" lon="9.267088782270006"><ele>755.2</ele><time>2026-04-04T10:21:00Z</time></trkpt><trkpt lat="45.92301694721649" lon="9.267247210923333"><ele>755.0</ele><time>2026-04-04T10:21:03Z</time></trkpt><trkpt lat="45.92304625853295" lon="9.267383646573439"><ele>755.0</ele><time>2026-04-04T10:22:53Z</time></trkpt><trkpt lat="45.9231056955197" lon="9.267432420886385"><ele>755.0</ele><time>2026-04-04T10:23:00Z</time></trkpt><trkpt lat="45.92316962009044" lon="9.267442725512007"><ele>755.0</ele><time>2026-04-04T10:23:07Z</time></trkpt><trkpt lat="45.923233628424775" lon="9.26746288276348"><ele>755.0</ele><time>2026-04-04T10:23:13Z</time></trkpt><trkpt lat="45.923304480909394" lon="9.267489290066722"><ele>755.0</ele><time>2026-04-04T10:23:16Z</time></trkpt><trkpt lat="45.92336855841851" lon="9.26747993828073"><ele>755.0</ele><time>2026-04-04T10:23:22Z</time></trkpt><trkpt lat="45.923434666287505" lon="9.267510959262156"><ele>755.0</ele><time>2026-04-04T10:23:28Z</time></trkpt><trkpt lat="45.92350292152399" lon="9.267543129361666"><ele>755.1666666666666</ele><time>2026-04-04T10:23:47.999Z</time></trkpt><trkpt lat="45.923562972349174" lon="9.26757143255238"><ele>755.3333333333333</ele><time>2026-04-04T10:24:06.999Z</time></trkpt><trkpt lat="45.92361902989898" lon="9.26761278457212"><ele>755.5</ele><time>2026-04-04T10:24:11.999Z</time></trkpt><trkpt lat="45.92357795439156" lon="9.267785435734"><ele>755.6666666666666</ele><time>2026-04-04T10:24:22.999Z</time></trkpt><trkpt lat="45.9236376925839" lon="9.267726279011042"><ele>755.8333333333334</ele><time>2026-04-04T10:24:45.999Z</time></trkpt><trkpt lat="45.923732149830144" lon="9.267805605215736"><ele>756.0</ele><time>2026-04-04T10:25:00Z</time></trkpt><trkpt lat="45.92377628411833" lon="9.267876429050897"><ele>756.0</ele><time>2026-04-04T10:25:04Z</time></trkpt><trkpt lat="45.92378531277858" lon="9.267971537056264"><ele>756.0</ele><time>2026-04-04T10:25:12Z</time></trkpt><trkpt lat="45.92379626867288" lon="9.268078000023541"><ele>756.0</ele><time>2026-04-04T10:25:19Z</time></trkpt><trkpt lat="45.9238639533852" lon="9.268024080489877"><ele>756.0</ele><time>2026-04-04T10:25:35Z</time></trkpt></trkseg><trkseg><trkpt lat="45.9230607926713" lon="9.267315754650356"><ele>755.0</ele><time>2026-04-04T10:44:31Z</time></trkpt><trkpt lat="45.92315177407457" lon="9.267353428553811"><ele>755.0</ele><time>2026-04-04T10:44:33Z</time></trkpt><trkpt lat="45.923226328637476" lon="9.26738483410343"><ele>755.0</ele><time>2026-04-04T10:44:35Z</time></trkpt><trkpt lat="45.923297324622624" lon="9.267417762370243"><ele>755.0</ele><time>2026-04-04T10:44:37Z</time></trkpt><trkpt lat="45.923372735605525" lon="9.267459019836755"><ele>755.0</ele><time>2026-04-04T10:44:39Z</time></trkpt><trkpt lat="45.92344331545097" lon="9.267495138766959"><ele>755.0</ele><time>2026-04-04T10:44:40.999Z</time></trkpt><trkpt lat="45.92351626984653" lon="9.267528452530216"><ele>755.2</ele><time>2026-04-04T10:44:42.999Z</time></trkpt><trkpt lat="45.92358972752554" lon="9.26749945237824"><ele>755.4</ele><time>2026-04-04T10:44:44.999Z</time></trkpt><trkpt lat="45.92363918632862" lon="9.26736771797887"><ele>755.5999999999999</ele><time>2026-04-04T10:44:46.999Z</time></trkpt><trkpt lat="45.923661679804965" lon="9.267246531664897"><ele>755.8</ele><time>2026-04-04T10:44:49.999Z</time></trkpt><trkpt lat="45.92368242481883" lon="9.267136851856657"><ele>756.0</ele><time>2026-04-04T10:44:52.999Z</time></trkpt><trkpt lat="45.923572774361915" lon="9.267024616598755"><ele>755.8</ele><time>2026-04-04T10:44:54.999Z</time></trkpt><trkpt lat="45.923492454091495" lon="9.26697516769376"><ele>755.5999999999999</ele><time>2026-04-04T10:44:55.999Z</time></trkpt><trkpt lat="45.92340748955662" lon="9.266903320749227"><ele>755.4</ele><time>2026-04-04T10:44:56.999Z</time></trkpt><trkpt lat="45.92332657770658" lon="9.266808067657742"><ele>755.2</ele><time>2026-04-04T10:44:57.999Z</time></trkpt><trkpt lat="45.92325487933963" lon="9.266688043824853"><ele>755.0</ele><time>2026-04-04T10:44:58.999Z</time></trkpt><trkpt lat="45.92319052012778" lon="9.266549755782496"><ele>757.75</ele><time>2026-04-04T10:44:59.999Z</time></trkpt><trkpt lat="45.9231549824723" lon="9.266384424817408"><ele>760.5</ele><time>2026-04-04T10:45:00.999Z</time></trkpt><trkpt lat="45.92312490338268" lon="9.26620746194726"><ele>763.25</ele><time>2026-04-04T10:45:01.999Z</time></trkpt><trkpt lat="45.92309445398257" lon="9.266017207977278"><ele>766.0</ele><time>2026-04-04T10:45:02.999Z</time></trkpt><trkpt lat="45.9230863772825" lon="9.265826915973493"><ele>766.0</ele><time>2026-04-04T10:45:03.999Z</time></trkpt><trkpt lat="45.92307206503518" lon="9.26563389698698"><ele>766.0</ele><time>2026-04-04T10:45:04.999Z</time></trkpt><trkpt lat="45.92305589629366" lon="9.265430020448976"><ele>766.0</ele><time>2026-04-04T10:45:05.999Z</time></trkpt><trkpt lat="45.92304154464417" lon="9.265207242271325"><ele>766.0</ele><time>2026-04-04T10:45:06.999Z</time></trkpt><trkpt lat="45.92302039019975" lon="9.264984691535362"><ele>764.3333333333334</ele><time>2026-04-04T10:45:07.999Z</time></trkpt><trkpt lat="45.923005286356386" lon="9.264745927088361"><ele>762.6666666666666</ele><time>2026-04-04T10:45:08.999Z</time></trkpt><trkpt lat="45.92298107932486" lon="9.264510031469863"><ele>761.0</ele><time>2026-04-04T10:45:09.999Z</time></trkpt><trkpt lat="45.922955980366226" lon="9.264264443663933"><ele>761.0</ele><time>2026-04-04T10:45:10.999Z</time></trkpt><trkpt lat="45.92292149503786" lon="9.264032862852732"><ele>761.0</ele><time>2026-04-04T10:45:11.999Z</time></trkpt><trkpt lat="45.922890724011765" lon="9.26382345831962"><ele>761.0</ele><time>2026-04-04T10:45:12.999Z</time></trkpt><trkpt lat="45.92285649426155" lon="9.263624870937027"><ele>762.6666666666666</ele><time>2026-04-04T10:45:13.999Z</time></trkpt><trkpt lat="45.92280731400147" lon="9.263428965589208"><ele>764.3333333333334</ele><time>2026-04-04T10:45:14.999Z</time></trkpt><trkpt lat="45.922735494261886" lon="9.263239127005807"><ele>766.0</ele><time>2026-04-04T10:45:15.999Z</time></trkpt><trkpt lat="45.922646800316535" lon="9.263057041931848"><ele>762.6666666666667</ele><time>2026-04-04T10:45:16.999Z</time></trkpt><trkpt lat="45.92253792208891" lon="9.262878798099154"><ele>759.3333333333334</ele><time>2026-04-04T10:45:17.999Z</time></trkpt><trkpt lat="45.922413998805155" lon="9.262727822677435"><ele>756.0</ele><time>2026-04-04T10:45:18.999Z</time></trkpt><trkpt lat="45.922275020545726" lon="9.26259984644349"><ele>756.0</ele><time>2026-04-04T10:45:19.999Z</time></trkpt><trkpt lat="45.92213172629878" lon="9.262495886862764"><ele>756.0</ele><time>2026-04-04T10:45:20.999Z</time></trkpt><trkpt lat="45.92199730910253" lon="9.262424693858321"><ele>756.0</ele><time>2026-04-04T10:45:21.999Z</time></trkpt><trkpt lat="45.921873486765776" lon="9.262372492899422"><ele>756.0</ele><time>2026-04-04T10:45:22.999Z</time></trkpt><trkpt lat="45.921752643037024" lon="9.262327405475089"><ele>755.0</ele><time>2026-04-04T10:45:23.999Z</time></trkpt><trkpt lat="45.921620562266234" lon="9.262292814683933"><ele>754.0</ele><time>2026-04-04T10:45:24.999Z</time></trkpt><trkpt lat="45.921495880643924" lon="9.262251074916353"><ele>753.0</ele><time>2026-04-04T10:45:25.999Z</time></trkpt><trkpt lat="45.92137073970553" lon="9.262212396814498"><ele>752.0</ele><time>2026-04-04T10:45:26.999Z</time></trkpt><trkpt lat="45.92125163090365" lon="9.262170736973404"><ele>752.25</ele><time>2026-04-04T10:45:27.999Z</time></trkpt><trkpt lat="45.921122011045384" lon="9.262114609560546"><ele>752.5</ele><time>2026-04-04T10:45:28.999Z</time></trkpt><trkpt lat="45.92098972207465" lon="9.262027993502594"><ele>752.75</ele><time>2026-04-04T10:45:29.999Z</time></trkpt><trkpt lat="45.92085375209355" lon="9.261918433633623"><ele>753.0</ele><time>2026-04-04T10:45:30.999Z</time></trkpt><trkpt lat="45.920726756252016" lon="9.261830231213304"><ele>753.0</ele><time>2026-04-04T10:45:31.999Z</time></trkpt><trkpt lat="45.92061460444444" lon="9.261745131002778"><ele>753.0</ele><time>2026-04-04T10:45:32.999Z</time></trkpt><trkpt lat="45.920507712641566" lon="9.26167024717624"><ele>753.0</ele><time>2026-04-04T10:45:33.999Z</time></trkpt><trkpt lat="45.920405148835" lon="9.261601658478826"><ele>753.0</ele><time>2026-04-04T10:45:34.999Z</time></trkpt><trkpt lat="45.920308818017524" lon="9.261544857748786"><ele>753.0</ele><time>2026-04-04T10:45:35.999Z</time></trkpt><trkpt lat="45.92022354483446" lon="9.261525871610456"><ele>753.0</ele><time>2026-04-04T10:45:36.999Z</time></trkpt><trkpt lat="45.920115530771724" lon="9.261560711279495"><ele>753.0</ele><time>2026-04-04T10:45:37.999Z</time></trkpt><trkpt lat="45.919990331405614" lon="9.261591461866335"><ele>753.0</ele><time>2026-04-04T10:45:38.999Z</time></trkpt><trkpt lat="45.91986155745146" lon="9.261610815170597"><ele>750.75</ele><time>2026-04-04T10:45:39.999Z</time></trkpt><trkpt lat="45.91973190537884" lon="9.261623846251133"><ele>748.5</ele><time>2026-04-04T10:45:40.999Z</time></trkpt><trkpt lat="45.919592447318735" lon="9.261634822019428"><ele>746.25</ele><time>2026-04-04T10:45:41.999Z</time></trkpt><trkpt lat="45.91945671749508" lon="9.261595531274867"><ele>744.0</ele><time>2026-04-04T10:45:42.999Z</time></trkpt><trkpt lat="45.91933340388855" lon="9.261572776028784"><ele>743.25</ele><time>2026-04-04T10:45:43.999Z</time></trkpt><trkpt lat="45.91921707204252" lon="9.261571726740552"><ele>742.5</ele><time>2026-04-04T10:45:44.999Z</time></trkpt><trkpt lat="45.91908590372271" lon="9.26154051961629"><ele>741.75</ele><time>2026-04-04T10:45:45.999Z</time></trkpt><trkpt lat="45.918945933095266" lon="9.261507802193035"><ele>741.0</ele><time>2026-04-04T10:45:46.999Z</time></trkpt><trkpt lat="45.918792099309094" lon="9.261476273128668"><ele>743.3333333333334</ele><time>2026-04-04T10:45:47.999Z</time></trkpt><trkpt lat="45.918636196557216" lon="9.261439638237043"><ele>745.6666666666667</ele><time>2026-04-04T10:45:48.998Z</time></trkpt><trkpt lat="45.91847402806514" lon="9.261405116101612"><ele>748.0</ele><time>2026-04-04T10:45:49.998Z</time></trkpt><trkpt lat="45.91831331694422" lon="9.261373395418067"><ele>748.0</ele><time>2026-04-04T10:45:50.998Z</time></trkpt><trkpt lat="45.9181467777601" lon="9.261342557610758"><ele>748.0</ele><time>2026-04-04T10:45:51.998Z</time></trkpt><trkpt lat="45.91797965117501" lon="9.261312307621399"><ele>748.0</ele><time>2026-04-04T10:45:52.998Z</time></trkpt><trkpt lat="45.91780900302272" lon="9.261272815178456"><ele>748.0</ele><time>2026-04-04T10:45:53.998Z</time></trkpt><trkpt lat="45.917638440490066" lon="9.261231461349684"><ele>748.0</ele><time>2026-04-04T10:45:54.998Z</time></trkpt><trkpt lat="45.917475447910945" lon="9.261199812530268"><ele>748.0</ele><time>2026-04-04T10:45:55.998Z</time></trkpt><trkpt lat="45.91732473042732" lon="9.261163672948179"><ele>746.0</ele><time>2026-04-04T10:45:56.998Z</time></trkpt><trkpt lat="45.91717808129987" lon="9.26112119288994"><ele>744.0</ele><time>2026-04-04T10:45:58Z</time></trkpt><trkpt lat="45.91703287010291" lon="9.261069869408752"><ele>742.0</ele><time>2026-04-04T10:45:59Z</time></trkpt><trkpt lat="45.916883486565645" lon="9.260955423964703"><ele>738.0</ele><time>2026-04-04T10:46:00Z</time></trkpt><trkpt lat="45.91671735629322" lon="9.26084322956877"><ele>734.0</ele><time>2026-04-04T10:46:01Z</time></trkpt><trkpt lat="45.91655099738665" lon="9.26075215455864"><ele>730.0</ele><time>2026-04-04T10:46:02Z</time></trkpt><trkpt lat="45.91639154068903" lon="9.260635597217616"><ele>735.3333333333334</ele><time>2026-04-04T10:46:03Z</time></trkpt><trkpt lat="45.916238750018046" lon="9.260524638415884"><ele>740.6666666666666</ele><time>2026-04-04T10:46:04Z</time></trkpt><trkpt lat="45.91609590963471" lon="9.260435741385947"><ele>746.0</ele><time>2026-04-04T10:46:05Z</time></trkpt><trkpt lat="45.91594809373004" lon="9.260359540588952"><ele>741.0</ele><time>2026-04-04T10:46:06Z</time></trkpt><trkpt lat="45.915775220915364" lon="9.260332705223997"><ele>736.0</ele><time>2026-04-04T10:46:07Z</time></trkpt><trkpt lat="45.915594337758726" lon="9.260320061076158"><ele>731.0</ele><time>2026-04-04T10:46:08Z</time></trkpt><trkpt lat="45.9154091739948" lon="9.260310345544118"><ele>731.0</ele><time>2026-04-04T10:46:09Z</time></trkpt><trkpt lat="45.91521999851575" lon="9.26028395606188"><ele>731.0</ele><time>2026-04-04T10:46:10Z</time></trkpt><trkpt lat="45.91502563298399" lon="9.260285301791917"><ele>731.0</ele><time>2026-04-04T10:46:11Z</time></trkpt><trkpt lat="45.91483523568875" lon="9.260259605861686"><ele>727.0</ele><time>2026-04-04T10:46:12Z</time></trkpt><trkpt lat="45.91465250023015" lon="9.26023261901987"><ele>723.0</ele><time>2026-04-04T10:46:13Z</time></trkpt><trkpt lat="45.91448321659047" lon="9.260170722010265"><ele>719.0</ele><time>2026-04-04T10:46:14Z</time></trkpt><trkpt lat="45.91432333818038" lon="9.260105306457348"><ele>714.0</ele><time>2026-04-04T10:46:15Z</time></trkpt><trkpt lat="45.91417376191837" lon="9.26002933523634"><ele>709.0</ele><time>2026-04-04T10:46:16Z</time></trkpt><trkpt lat="45.91402138771417" lon="9.259960658092819"><ele>704.0</ele><time>2026-04-04T10:46:17Z</time></trkpt><trkpt lat="45.91386734002922" lon="9.259872287406221"><ele>704.0</ele><time>2026-04-04T10:46:18Z</time></trkpt><trkpt lat="45.91370341803785" lon="9.259810926510134"><ele>704.0</ele><time>2026-04-04T10:46:19Z</time></trkpt><trkpt lat="45.91353132113296" lon="9.259799995593557"><ele>704.0</ele><time>2026-04-04T10:46:20Z</time></trkpt><trkpt lat="45.913361886751005" lon="9.259870095566507"><ele>701.3333333333333</ele><time>2026-04-04T10:46:21Z</time></trkpt><trkpt lat="45.91320442577037" lon="9.25998086073276"><ele>698.6666666666666</ele><time>2026-04-04T10:46:22Z</time></trkpt><trkpt lat="45.91306813510818" lon="9.260126478578766"><ele>696.0</ele><time>2026-04-04T10:46:23Z</time></trkpt><trkpt lat="45.912933126462406" lon="9.260296531209919"><ele>696.0</ele><time>2026-04-04T10:46:24Z</time></trkpt><trkpt lat="45.91278913631671" lon="9.260465371492744"><ele>696.0</ele><time>2026-04-04T10:46:25Z</time></trkpt><trkpt lat="45.91264648893391" lon="9.260614302197029"><ele>696.0</ele><time>2026-04-04T10:46:26Z</time></trkpt><trkpt lat="45.91250983108952" lon="9.260755795227489"><ele>697.3333333333334</ele><time>2026-04-04T10:46:27Z</time></trkpt><trkpt lat="45.91237318426132" lon="9.260912236036184"><ele>698.6666666666667</ele><time>2026-04-04T10:46:28Z</time></trkpt><trkpt lat="45.912248396002695" lon="9.261102236772038"><ele>700.0</ele><time>2026-04-04T10:46:29Z</time></trkpt><trkpt lat="45.91214296668204" lon="9.261337518713992"><ele>694.3333333333334</ele><time>2026-04-04T10:46:30Z</time></trkpt><trkpt lat="45.912055118982465" lon="9.261585518067456"><ele>688.6666666666666</ele><time>2026-04-04T10:46:31Z</time></trkpt><trkpt lat="45.91198325762361" lon="9.261815868219271"><ele>683.0</ele><time>2026-04-04T10:46:32Z</time></trkpt><trkpt lat="45.91189575604939" lon="9.262021412152299"><ele>683.0</ele><time>2026-04-04T10:46:33Z</time></trkpt><trkpt lat="45.91182231001328" lon="9.262229846307614"><ele>683.0</ele><time>2026-04-04T10:46:34Z</time></trkpt><trkpt lat="45.91169294503734" lon="9.262380197931174"><ele>683.0</ele><time>2026-04-04T10:46:34.999Z</time></trkpt><trkpt lat="45.91154519869092" lon="9.262505612275866"><ele>681.3333333333333</ele><time>2026-04-04T10:46:35.999Z</time></trkpt><trkpt lat="45.911377201291735" lon="9.262600526772264"><ele>679.6666666666666</ele><time>2026-04-04T10:46:36.999Z</time></trkpt><trkpt lat="45.91119870842989" lon="9.262629094663131"><ele>678.0</ele><time>2026-04-04T10:46:37.999Z</time></trkpt><trkpt lat="45.91102624230199" lon="9.26261529240821"><ele>678.3333333333334</ele><time>2026-04-04T10:46:38.999Z</time></trkpt><trkpt lat="45.91084740411982" lon="9.262616598038273"><ele>678.6666666666667</ele><time>2026-04-04T10:46:39.999Z</time></trkpt><trkpt lat="45.910661963574704" lon="9.262570084046486"><ele>679.0</ele><time>2026-04-04T10:46:40.999Z</time></trkpt><trkpt lat="45.91047840189071" lon="9.262533151714686"><ele>679.0</ele><time>2026-04-04T10:46:41.999Z</time></trkpt><trkpt lat="45.91028759304482" lon="9.262520704523393"><ele>679.0</ele><time>2026-04-04T10:46:42.999Z</time></trkpt><trkpt lat="45.910085389474546" lon="9.262535967928468"><ele>679.0</ele><time>2026-04-04T10:46:43.999Z</time></trkpt><trkpt lat="45.90988997306122" lon="9.262585436647367"><ele>677.6666666666667</ele><time>2026-04-04T10:46:44.999Z</time></trkpt><trkpt lat="45.90969990912832" lon="9.26267512592186"><ele>676.3333333333334</ele><time>2026-04-04T10:46:45.999Z</time></trkpt><trkpt lat="45.90951140335098" lon="9.262781472379883"><ele>675.0</ele><time>2026-04-04T10:46:46.999Z</time></trkpt><trkpt lat="45.90932425311698" lon="9.262888068472126"><ele>676.0</ele><time>2026-04-04T10:46:47.999Z</time></trkpt><trkpt lat="45.90913141432237" lon="9.262999235072755"><ele>677.0</ele><time>2026-04-04T10:46:48.999Z</time></trkpt><trkpt lat="45.90894205589081" lon="9.263104303915748"><ele>678.0</ele><time>2026-04-04T10:46:49.999Z</time></trkpt><trkpt lat="45.90874912053407" lon="9.263212836087092"><ele>671.0</ele><time>2026-04-04T10:46:50.999Z</time></trkpt><trkpt lat="45.908548204426985" lon="9.263321699480105"><ele>664.0</ele><time>2026-04-04T10:46:51.999Z</time></trkpt><trkpt lat="45.90834775612938" lon="9.263428266087322"><ele>657.0</ele><time>2026-04-04T10:46:52.999Z</time></trkpt><trkpt lat="45.90814931485597" lon="9.263532036984296"><ele>657.0</ele><time>2026-04-04T10:46:53.999Z</time></trkpt><trkpt lat="45.90795738852534" lon="9.263642904440477"><ele>657.0</ele><time>2026-04-04T10:46:54.999Z</time></trkpt><trkpt lat="45.90777392752626" lon="9.263741675353833"><ele>657.0</ele><time>2026-04-04T10:46:55.999Z</time></trkpt><trkpt lat="45.90759605983026" lon="9.263862302288041"><ele>647.3333333333334</ele><time>2026-04-04T10:46:56.999Z</time></trkpt><trkpt lat="45.90742607719212" lon="9.264019290764402"><ele>637.6666666666667</ele><time>2026-04-04T10:46:57.999Z</time></trkpt><trkpt lat="45.90725479029766" lon="9.264190518078209"><ele>628.0</ele><time>2026-04-04T10:46:58.999Z</time></trkpt><trkpt lat="45.90708761162571" lon="9.264367330867318"><ele>628.0</ele><time>2026-04-04T10:46:59.999Z</time></trkpt><trkpt lat="45.9069294958817" lon="9.264533628374425"><ele>628.0</ele><time>2026-04-04T10:47:00.999Z</time></trkpt><trkpt lat="45.90676200694831" lon="9.264715410446254"><ele>628.0</ele><time>2026-04-04T10:47:01.999Z</time></trkpt><trkpt lat="45.9066015685899" lon="9.26487987170857"><ele>625.0</ele><time>2026-04-04T10:47:02.999Z</time></trkpt><trkpt lat="45.906444591544854" lon="9.265034463809567"><ele>622.0</ele><time>2026-04-04T10:47:03.999Z</time></trkpt><trkpt lat="45.906293110545136" lon="9.265185678613296"><ele>619.0</ele><time>2026-04-04T10:47:04.999Z</time></trkpt><trkpt lat="45.906144493309384" lon="9.265329951361041"><ele>619.0</ele><time>2026-04-04T10:47:05.999Z</time></trkpt><trkpt lat="45.906005885117786" lon="9.265473154662931"><ele>619.0</ele><time>2026-04-04T10:47:06.999Z</time></trkpt><trkpt lat="45.9058630667691" lon="9.265604144345597"><ele>619.0</ele><time>2026-04-04T10:47:07.999Z</time></trkpt><trkpt lat="45.9057215702923" lon="9.265715833752777"><ele>617.3333333333334</ele><time>2026-04-04T10:47:08.999Z</time></trkpt><trkpt lat="45.905582795175846" lon="9.265813152220998"><ele>615.6666666666666</ele><time>2026-04-04T10:47:09.999Z</time></trkpt><trkpt lat="45.905437015415096" lon="9.265913829817526"><ele>614.0</ele><time>2026-04-04T10:47:10.999Z</time></trkpt><trkpt lat="45.90529248982518" lon="9.266021979008631"><ele>614.0</ele><time>2026-04-04T10:47:11.999Z</time></trkpt><trkpt lat="45.90514255884028" lon="9.266135801326493"><ele>614.0</ele><time>2026-04-04T10:47:12.999Z</time></trkpt><trkpt lat="45.90499167502493" lon="9.26625209342112"><ele>614.0</ele><time>2026-04-04T10:47:13.999Z</time></trkpt><trkpt lat="45.90484078422946" lon="9.266374746270357"><ele>612.3333333333333</ele><time>2026-04-04T10:47:14.999Z</time></trkpt><trkpt lat="45.90469157733358" lon="9.266492419476704"><ele>610.6666666666666</ele><time>2026-04-04T10:47:15.999Z</time></trkpt><trkpt lat="45.90454018628627" lon="9.266585494420948"><ele>609.0</ele><time>2026-04-04T10:47:16.999Z</time></trkpt><trkpt lat="45.904374228336614" lon="9.266605957659307"><ele>610.6666666666666</ele><time>2026-04-04T10:47:17.999Z</time></trkpt><trkpt lat="45.904222652657964" lon="9.266502389732056"><ele>612.3333333333333</ele><time>2026-04-04T10:47:18.999Z</time></trkpt><trkpt lat="45.90407963953769" lon="9.266373102598859"><ele>614.0</ele><time>2026-04-04T10:47:19.999Z</time></trkpt><trkpt lat="45.90392203809918" lon="9.266224655048388"><ele>615.0</ele><time>2026-04-04T10:47:20.999Z</time></trkpt><trkpt lat="45.90377839117883" lon="9.266057296598802"><ele>616.0</ele><time>2026-04-04T10:47:21.999Z</time></trkpt><trkpt lat="45.90362542880576" lon="9.265906470009321"><ele>617.0</ele><time>2026-04-04T10:47:22.999Z</time></trkpt><trkpt lat="45.90345655747935" lon="9.26579534771906"><ele>616.6666666666666</ele><time>2026-04-04T10:47:23.999Z</time></trkpt><trkpt lat="45.90326758742913" lon="9.265733241022893"><ele>616.3333333333334</ele><time>2026-04-04T10:47:24.999Z</time></trkpt><trkpt lat="45.903089227567534" lon="9.265615177935771"><ele>616.0</ele><time>2026-04-04T10:47:25.999Z</time></trkpt><trkpt lat="45.90289996845715" lon="9.265514556077292"><ele>616.3333333333334</ele><time>2026-04-04T10:47:26.999Z</time></trkpt><trkpt lat="45.90269872399534" lon="9.265456335422764"><ele>616.6666666666666</ele><time>2026-04-04T10:47:27.999Z</time></trkpt><trkpt lat="45.90249101792127" lon="9.265432378866937"><ele>617.0</ele><time>2026-04-04T10:47:28.999Z</time></trkpt><trkpt lat="45.90230903195439" lon="9.265337282886835"><ele>617.0</ele><time>2026-04-04T10:47:29.999Z</time></trkpt><trkpt lat="45.90215127029728" lon="9.265166206319618"><ele>617.0</ele><time>2026-04-04T10:47:30.999Z</time></trkpt><trkpt lat="45.90200816194779" lon="9.264955063008077"><ele>617.0</ele><time>2026-04-04T10:47:31.999Z</time></trkpt><trkpt lat="45.90187540347574" lon="9.264731897210792"><ele>616.6666666666666</ele><time>2026-04-04T10:47:32.999Z</time></trkpt><trkpt lat="45.90173230905085" lon="9.264529181870792"><ele>616.3333333333334</ele><time>2026-04-04T10:47:33.999Z</time></trkpt><trkpt lat="45.90156560536575" lon="9.264385249358703"><ele>616.0</ele><time>2026-04-04T10:47:34.999Z</time></trkpt><trkpt lat="45.901391121812374" lon="9.264259456878227"><ele>616.0</ele><time>2026-04-04T10:47:35.999Z</time></trkpt><trkpt lat="45.90122270759904" lon="9.264140146269677"><ele>616.0</ele><time>2026-04-04T10:47:36.999Z</time></trkpt><trkpt lat="45.90106541448356" lon="9.264031089813516"><ele>616.0</ele><time>2026-04-04T10:47:37.999Z</time></trkpt><trkpt lat="45.900893651980134" lon="9.263960708879695"><ele>612.3333333333334</ele><time>2026-04-04T10:47:38.999Z</time></trkpt><trkpt lat="45.900705107829836" lon="9.264005393216847"><ele>608.6666666666666</ele><time>2026-04-04T10:47:39.999Z</time></trkpt><trkpt lat="45.90050623497724" lon="9.26405134542047"><ele>605.0</ele><time>2026-04-04T10:47:40.999Z</time></trkpt><trkpt lat="45.9003118733276" lon="9.26407820761308"><ele>605.0</ele><time>2026-04-04T10:47:41.999Z</time></trkpt><trkpt lat="45.900126099588974" lon="9.264095524405018"><ele>605.0</ele><time>2026-04-04T10:47:42.999Z</time></trkpt><trkpt lat="45.89995331189953" lon="9.264094129166402"><ele>605.0</ele><time>2026-04-04T10:47:43.999Z</time></trkpt><trkpt lat="45.89979725724362" lon="9.264121768573753"><ele>605.0</ele><time>2026-04-04T10:47:44.999Z</time></trkpt><trkpt lat="45.89965630291535" lon="9.264134842484657"><ele>605.0</ele><time>2026-04-04T10:47:45.999Z</time></trkpt><trkpt lat="45.89954498931885" lon="9.264151126246519"><ele>605.0</ele><time>2026-04-04T10:47:46.999Z</time></trkpt><trkpt lat="45.899449681852545" lon="9.264162147202684"><ele>605.0</ele><time>2026-04-04T10:47:47.999Z</time></trkpt><trkpt lat="45.89935711390976" lon="9.264144769250063"><ele>605.0</ele><time>2026-04-04T10:47:48.999Z</time></trkpt><trkpt lat="45.899258299209286" lon="9.264148212094979"><ele>603.5</ele><time>2026-04-04T10:47:49.999Z</time></trkpt><trkpt lat="45.89914589068907" lon="9.264147881442511"><ele>602.0</ele><time>2026-04-04T10:47:50.999Z</time></trkpt><trkpt lat="45.89901256179593" lon="9.264111506998189"><ele>600.5</ele><time>2026-04-04T10:47:51.999Z</time></trkpt><trkpt lat="45.89888902732411" lon="9.264023627392046"><ele>599.0</ele><time>2026-04-04T10:47:52.998Z</time></trkpt><trkpt lat="45.898748420773806" lon="9.263915202665377"><ele>600.6666666666666</ele><time>2026-04-04T10:47:53.998Z</time></trkpt><trkpt lat="45.8985984397841" lon="9.263774320081302"><ele>602.3333333333334</ele><time>2026-04-04T10:47:54.998Z</time></trkpt><trkpt lat="45.89843713832325" lon="9.263633252632502"><ele>604.0</ele><time>2026-04-04T10:47:55.998Z</time></trkpt><trkpt lat="45.8982823229391" lon="9.263464640020029"><ele>604.0</ele><time>2026-04-04T10:47:56.998Z</time></trkpt><trkpt lat="45.898108101612834" lon="9.263316360004419"><ele>604.0</ele><time>2026-04-04T10:47:57.998Z</time></trkpt><trkpt lat="45.897914067888216" lon="9.26319530848251"><ele>604.0</ele><time>2026-04-04T10:47:58.998Z</time></trkpt><trkpt lat="45.897707164207176" lon="9.263112076978995"><ele>609.3333333333334</ele><time>2026-04-04T10:47:59.998Z</time></trkpt><trkpt lat="45.8974914273383" lon="9.263056169649555"><ele>614.6666666666666</ele><time>2026-04-04T10:48:00.998Z</time></trkpt><trkpt lat="45.89728644982642" lon="9.262934934067536"><ele>620.0</ele><time>2026-04-04T10:48:01.998Z</time></trkpt><trkpt lat="45.89707371383962" lon="9.262806859137362"><ele>620.0</ele><time>2026-04-04T10:48:02.998Z</time></trkpt><trkpt lat="45.896882443856065" lon="9.262695401739368"><ele>620.0</ele><time>2026-04-04T10:48:04Z</time></trkpt><trkpt lat="45.89670421730209" lon="9.262631142330648"><ele>620.0</ele><time>2026-04-04T10:48:05Z</time></trkpt><trkpt lat="45.89653258915365" lon="9.262563415467168"><ele>625.3333333333333</ele><time>2026-04-04T10:48:06Z</time></trkpt><trkpt lat="45.89636557483653" lon="9.262470077283496"><ele>630.6666666666666</ele><time>2026-04-04T10:48:07Z</time></trkpt><trkpt lat="45.89621092581057" lon="9.262346254753943"><ele>636.0</ele><time>2026-04-04T10:48:08Z</time></trkpt><trkpt lat="45.89606519208273" lon="9.26218640168563"><ele>625.3333333333334</ele><time>2026-04-04T10:48:09Z</time></trkpt><trkpt lat="45.89590486977263" lon="9.262023461313536"><ele>614.6666666666667</ele><time>2026-04-04T10:48:10Z</time></trkpt><trkpt lat="45.89572991185736" lon="9.261894686454415"><ele>604.0</ele><time>2026-04-04T10:48:11Z</time></trkpt><trkpt lat="45.89552273487428" lon="9.261809146976404"><ele>604.0</ele><time>2026-04-04T10:48:12Z</time></trkpt><trkpt lat="45.895304693634664" lon="9.26172714493274"><ele>604.0</ele><time>2026-04-04T10:48:13Z</time></trkpt><trkpt lat="45.89507735889427" lon="9.261635545674565"><ele>596.0</ele><time>2026-04-04T10:48:14Z</time></trkpt><trkpt lat="45.8948423712613" lon="9.261536729541543"><ele>588.0</ele><time>2026-04-04T10:48:15Z</time></trkpt><trkpt lat="45.89460528412841" lon="9.26147940807984"><ele>588.0</ele><time>2026-04-04T10:48:16Z</time></trkpt><trkpt lat="45.894375958698" lon="9.26144959279356"><ele>588.0</ele><time>2026-04-04T10:48:17Z</time></trkpt><trkpt lat="45.8941717800776" lon="9.26146904650313"><ele>588.0</ele><time>2026-04-04T10:48:18Z</time></trkpt><trkpt lat="45.89397734960336" lon="9.261435470896313"><ele>587.0</ele><time>2026-04-04T10:48:19Z</time></trkpt><trkpt lat="45.89378583135618" lon="9.26141970833678"><ele>586.0</ele><time>2026-04-04T10:48:20Z</time></trkpt><trkpt lat="45.89360060423606" lon="9.261426815451966"><ele>585.0</ele><time>2026-04-04T10:48:21Z</time></trkpt><trkpt lat="45.893421074744005" lon="9.261389559560524"><ele>585.0</ele><time>2026-04-04T10:48:22Z</time></trkpt><trkpt lat="45.89324943838399" lon="9.261333733931998"><ele>585.0</ele><time>2026-04-04T10:48:23Z</time></trkpt><trkpt lat="45.893063415866784" lon="9.261261750081973"><ele>585.0</ele><time>2026-04-04T10:48:24Z</time></trkpt><trkpt lat="45.89286298192984" lon="9.261182609421835"><ele>585.0</ele><time>2026-04-04T10:48:25Z</time></trkpt><trkpt lat="45.89266471714458" lon="9.261118021180401"><ele>585.0</ele><time>2026-04-04T10:48:26Z</time></trkpt><trkpt lat="45.892457738351304" lon="9.26103285576803"><ele>585.0</ele><time>2026-04-04T10:48:27Z</time></trkpt><trkpt lat="45.89225979665312" lon="9.260957705146305"><ele>581.6666666666666</ele><time>2026-04-04T10:48:28Z</time></trkpt><trkpt lat="45.89206874745069" lon="9.260880892929114"><ele>578.3333333333333</ele><time>2026-04-04T10:48:29Z</time></trkpt><trkpt lat="45.8918965056165" lon="9.26081041616424"><ele>575.0</ele><time>2026-04-04T10:48:30Z</time></trkpt><trkpt lat="45.891733922348976" lon="9.260747488888578"><ele>575.5</ele><time>2026-04-04T10:48:31Z</time></trkpt><trkpt lat="45.891580341059424" lon="9.260685036820126"><ele>576.0</ele><time>2026-04-04T10:48:32Z</time></trkpt><trkpt lat="45.891441030631206" lon="9.260618213529023"><ele>576.5</ele><time>2026-04-04T10:48:33Z</time></trkpt><trkpt lat="45.89131518814971" lon="9.260571381142306"><ele>577.0</ele><time>2026-04-04T10:48:34Z</time></trkpt><trkpt lat="45.89119044957166" lon="9.260550340333774"><ele>577.0</ele><time>2026-04-04T10:48:35Z</time></trkpt><trkpt lat="45.891060933612465" lon="9.260552526828029"><ele>577.0</ele><time>2026-04-04T10:48:36Z</time></trkpt><trkpt lat="45.8909209182769" lon="9.260550231079808"><ele>577.0</ele><time>2026-04-04T10:48:37Z</time></trkpt><trkpt lat="45.89078260686863" lon="9.260546893733311"><ele>577.0</ele><time>2026-04-04T10:48:38Z</time></trkpt><trkpt lat="45.89064780545564" lon="9.260544867403802"><ele>574.6666666666667</ele><time>2026-04-04T10:48:39Z</time></trkpt><trkpt lat="45.890495836050796" lon="9.260540459976484"><ele>572.3333333333334</ele><time>2026-04-04T10:48:40Z</time></trkpt><trkpt lat="45.89033916876892" lon="9.260534740637627"><ele>570.0</ele><time>2026-04-04T10:48:41Z</time></trkpt><trkpt lat="45.89019535742698" lon="9.260529490611708"><ele>569.0</ele><time>2026-04-04T10:48:42Z</time></trkpt><trkpt lat="45.89005940269291" lon="9.260545416484376"><ele>568.0</ele><time>2026-04-04T10:48:43Z</time></trkpt><trkpt lat="45.88993206079023" lon="9.26051857768567"><ele>567.0</ele><time>2026-04-04T10:48:44Z</time></trkpt><trkpt lat="45.88979569196021" lon="9.260530430110567"><ele>566.0</ele><time>2026-04-04T10:48:44.999Z</time></trkpt><trkpt lat="45.88965701420048" lon="9.26052873975101"><ele>566.0</ele><time>2026-04-04T10:48:45.999Z</time></trkpt><trkpt lat="45.889505051577984" lon="9.26054786607556"><ele>566.0</ele><time>2026-04-04T10:48:46.999Z</time></trkpt><trkpt lat="45.88933809262084" lon="9.260590610085002"><ele>566.0</ele><time>2026-04-04T10:48:47.999Z</time></trkpt><trkpt lat="45.889178772585545" lon="9.260649509647061"><ele>563.6666666666666</ele><time>2026-04-04T10:48:48.999Z</time></trkpt><trkpt lat="45.8890131933456" lon="9.260704383890486"><ele>561.3333333333334</ele><time>2026-04-04T10:48:49.999Z</time></trkpt><trkpt lat="45.88885497229395" lon="9.260749093686472"><ele>559.0</ele><time>2026-04-04T10:48:50.999Z</time></trkpt><trkpt lat="45.888696397779725" lon="9.260797058641774"><ele>559.0</ele><time>2026-04-04T10:48:51.999Z</time></trkpt><trkpt lat="45.888525619751015" lon="9.260851151116732"><ele>559.0</ele><time>2026-04-04T10:48:52.999Z</time></trkpt><trkpt lat="45.88834281922286" lon="9.260923321376104"><ele>559.0</ele><time>2026-04-04T10:48:53.999Z</time></trkpt><trkpt lat="45.888156727012465" lon="9.2610206176028"><ele>558.6666666666667</ele><time>2026-04-04T10:48:54.999Z</time></trkpt><trkpt lat="45.88795786613555" lon="9.261139876031063"><ele>558.3333333333334</ele><time>2026-04-04T10:48:55.999Z</time></trkpt><trkpt lat="45.88775470776102" lon="9.261260630372147"><ele>558.0</ele><time>2026-04-04T10:48:56.999Z</time></trkpt><trkpt lat="45.887549460477985" lon="9.261375415185295"><ele>556.3333333333334</ele><time>2026-04-04T10:48:57.999Z</time></trkpt><trkpt lat="45.887345343822126" lon="9.26149420840958"><ele>554.6666666666667</ele><time>2026-04-04T10:48:58.999Z</time></trkpt><trkpt lat="45.88713950828319" lon="9.26161526763288"><ele>553.0</ele><time>2026-04-04T10:48:59.999Z</time></trkpt><trkpt lat="45.88693278393582" lon="9.261731275975238"><ele>550.6666666666667</ele><time>2026-04-04T10:49:00.999Z</time></trkpt><trkpt lat="45.886724805273545" lon="9.26184994951188"><ele>548.3333333333334</ele><time>2026-04-04T10:49:01.999Z</time></trkpt><trkpt lat="45.886520172220564" lon="9.261966407099322"><ele>546.0</ele><time>2026-04-04T10:49:02.999Z</time></trkpt><trkpt lat="45.88633621775588" lon="9.262066887901865"><ele>546.0</ele><time>2026-04-04T10:49:03.999Z</time></trkpt><trkpt lat="45.88616912261576" lon="9.262166696147219"><ele>546.0</ele><time>2026-04-04T10:49:04.999Z</time></trkpt><trkpt lat="45.886000984950996" lon="9.262257586239418"><ele>546.0</ele><time>2026-04-04T10:49:05.999Z</time></trkpt><trkpt lat="45.88582791277198" lon="9.262352379661003"><ele>546.3333333333334</ele><time>2026-04-04T10:49:06.999Z</time></trkpt><trkpt lat="45.885654861621845" lon="9.262452191620941"><ele>546.6666666666667</ele><time>2026-04-04T10:49:07.999Z</time></trkpt><trkpt lat="45.88547734752524" lon="9.262551509399414"><ele>547.0</ele><time>2026-04-04T10:49:08.999Z</time></trkpt><trkpt lat="45.88531725580779" lon="9.262673261557772"><ele>547.0</ele><time>2026-04-04T10:49:09.999Z</time></trkpt><trkpt lat="45.885195680553174" lon="9.262835201895088"><ele>547.0</ele><time>2026-04-04T10:49:10.999Z</time></trkpt><trkpt lat="45.885112211189465" lon="9.263022662745442"><ele>547.0</ele><time>2026-04-04T10:49:11.999Z</time></trkpt><trkpt lat="45.88503708204398" lon="9.263220295349846"><ele>546.5</ele><time>2026-04-04T10:49:12.999Z</time></trkpt><trkpt lat="45.884969176404205" lon="9.263404499156035"><ele>546.0</ele><time>2026-04-04T10:49:13.999Z</time></trkpt><trkpt lat="45.884905925785134" lon="9.263564545068082"><ele>545.5</ele><time>2026-04-04T10:49:14.999Z</time></trkpt><trkpt lat="45.88484943339604" lon="9.263690420808251"><ele>545.0</ele><time>2026-04-04T10:49:15.999Z</time></trkpt><trkpt lat="45.884789011466665" lon="9.263780520825515"><ele>545.0</ele><time>2026-04-04T10:49:16.999Z</time></trkpt><trkpt lat="45.88471259214787" lon="9.263855456575053"><ele>545.0</ele><time>2026-04-04T10:49:17.999Z</time></trkpt><trkpt lat="45.884608383345565" lon="9.263900471278504"><ele>545.0</ele><time>2026-04-04T10:49:18.999Z</time></trkpt><trkpt lat="45.8844738049696" lon="9.263875843515045"><ele>545.0</ele><time>2026-04-04T10:49:19.999Z</time></trkpt><trkpt lat="45.884316191509754" lon="9.263872366890416"><ele>544.6666666666666</ele><time>2026-04-04T10:49:20.999Z</time></trkpt><trkpt lat="45.88416147493843" lon="9.263823649567263"><ele>544.3333333333334</ele><time>2026-04-04T10:49:21.999Z</time></trkpt><trkpt lat="45.88400609778347" lon="9.26377898699893"><ele>544.0</ele><time>2026-04-04T10:49:22.999Z</time></trkpt><trkpt lat="45.883850225900424" lon="9.263733485550928"><ele>544.0</ele><time>2026-04-04T10:49:23.999Z</time></trkpt><trkpt lat="45.88369166476901" lon="9.263686948215735"><ele>544.0</ele><time>2026-04-04T10:49:24.999Z</time></trkpt><trkpt lat="45.88353875805754" lon="9.26364367901571"><ele>544.0</ele><time>2026-04-04T10:49:25.999Z</time></trkpt><trkpt lat="45.883382533634574" lon="9.263594118152891"><ele>542.0</ele><time>2026-04-04T10:49:26.999Z</time></trkpt><trkpt lat="45.883228160672694" lon="9.263548740636894"><ele>540.0</ele><time>2026-04-04T10:49:27.999Z</time></trkpt><trkpt lat="45.88306893910247" lon="9.26349983869971"><ele>538.0</ele><time>2026-04-04T10:49:28.999Z</time></trkpt><trkpt lat="45.882914072573655" lon="9.26345451246771"><ele>538.0</ele><time>2026-04-04T10:49:29.999Z</time></trkpt><trkpt lat="45.88275881188102" lon="9.263409269909262"><ele>538.0</ele><time>2026-04-04T10:49:30.999Z</time></trkpt><trkpt lat="45.88260892037336" lon="9.263368072619846"><ele>538.0</ele><time>2026-04-04T10:49:31.999Z</time></trkpt><trkpt lat="45.882463050749486" lon="9.263326641800678"><ele>536.25</ele><time>2026-04-04T10:49:32.999Z</time></trkpt><trkpt lat="45.88231603678773" lon="9.263283889110053"><ele>534.5</ele><time>2026-04-04T10:49:33.999Z</time></trkpt><trkpt lat="45.882171798899634" lon="9.263240801534913"><ele>532.75</ele><time>2026-04-04T10:49:34.999Z</time></trkpt><trkpt lat="45.88202575019924" lon="9.26319747040623"><ele>531.0</ele><time>2026-04-04T10:49:35.999Z</time></trkpt><trkpt lat="45.881879815512924" lon="9.263155051132088"><ele>530.5</ele><time>2026-04-04T10:49:36.999Z</time></trkpt><trkpt lat="45.88174034876773" lon="9.263115774931615"><ele>530.0</ele><time>2026-04-04T10:49:37.999Z</time></trkpt><trkpt lat="45.8816004295409" lon="9.26307713150209"><ele>529.5</ele><time>2026-04-04T10:49:38.999Z</time></trkpt><trkpt lat="45.88145064257104" lon="9.263038734073618"><ele>529.0</ele><time>2026-04-04T10:49:39.999Z</time></trkpt><trkpt lat="45.881294813225416" lon="9.262992370484232"><ele>535.0</ele><time>2026-04-04T10:49:40.999Z</time></trkpt><trkpt lat="45.88112759624679" lon="9.262942811883146"><ele>541.0</ele><time>2026-04-04T10:49:41.999Z</time></trkpt><trkpt lat="45.88096290775692" lon="9.262892791003688"><ele>547.0</ele><time>2026-04-04T10:49:42.999Z</time></trkpt><trkpt lat="45.880814406220914" lon="9.262848108915728"><ele>547.0</ele><time>2026-04-04T10:49:43.999Z</time></trkpt><trkpt lat="45.8806811364322" lon="9.26280833998864"><ele>547.0</ele><time>2026-04-04T10:49:44.999Z</time></trkpt><trkpt lat="45.88055583268233" lon="9.262771212584274"><ele>547.0</ele><time>2026-04-04T10:49:45.999Z</time></trkpt><trkpt lat="45.8804276187541" lon="9.262742479410226"><ele>547.0</ele><time>2026-04-04T10:49:46.999Z</time></trkpt><trkpt lat="45.88029482084621" lon="9.262714475566803"><ele>547.0</ele><time>2026-04-04T10:49:47.999Z</time></trkpt><trkpt lat="45.880157985669435" lon="9.262696864189595"><ele>547.0</ele><time>2026-04-04T10:49:48.999Z</time></trkpt><trkpt lat="45.88001645516422" lon="9.262678895829412"><ele>547.0</ele><time>2026-04-04T10:49:49.999Z</time></trkpt><trkpt lat="45.879868391787404" lon="9.262663425597287"><ele>547.0</ele><time>2026-04-04T10:49:50.999Z</time></trkpt><trkpt lat="45.87971629167434" lon="9.262639326931986"><ele>546.25</ele><time>2026-04-04T10:49:51.999Z</time></trkpt><trkpt lat="45.879564315311285" lon="9.262610996084318"><ele>545.5</ele><time>2026-04-04T10:49:52.999Z</time></trkpt><trkpt lat="45.87942333018345" lon="9.262566018371745"><ele>544.75</ele><time>2026-04-04T10:49:53.999Z</time></trkpt><trkpt lat="45.87928600156515" lon="9.26249683917727"><ele>544.0</ele><time>2026-04-04T10:49:54.999Z</time></trkpt><trkpt lat="45.879142959612814" lon="9.262441670312967"><ele>549.3333333333334</ele><time>2026-04-04T10:49:55.999Z</time></trkpt><trkpt lat="45.87900354270906" lon="9.2623634996433"><ele>554.6666666666666</ele><time>2026-04-04T10:49:56.999Z</time></trkpt><trkpt lat="45.87885728504079" lon="9.262287441269788"><ele>560.0</ele><time>2026-04-04T10:49:57.999Z</time></trkpt><trkpt lat="45.87870772393855" lon="9.26222510154429"><ele>560.0</ele><time>2026-04-04T10:49:58.999Z</time></trkpt><trkpt lat="45.87856456383297" lon="9.262190181661259"><ele>560.0</ele><time>2026-04-04T10:49:59.999Z</time></trkpt><trkpt lat="45.87843261166096" lon="9.26217426667194"><ele>560.0</ele><time>2026-04-04T10:50:00.999Z</time></trkpt><trkpt lat="45.878297146946174" lon="9.262160598672507"><ele>560.0</ele><time>2026-04-04T10:50:01.999Z</time></trkpt><trkpt lat="45.87816094028606" lon="9.26214420871328"><ele>556.25</ele><time>2026-04-04T10:50:02.998Z</time></trkpt><trkpt lat="45.8780220473409" lon="9.262126256241332"><ele>552.5</ele><time>2026-04-04T10:50:03.998Z</time></trkpt><trkpt lat="45.877879070002514" lon="9.26210695593071"><ele>548.75</ele><time>2026-04-04T10:50:04.998Z</time></trkpt><trkpt lat="45.87773502179423" lon="9.262091005624193"><ele>545.0</ele><time>2026-04-04T10:50:05.998Z</time></trkpt><trkpt lat="45.87758677635155" lon="9.262070127816331"><ele>542.5</ele><time>2026-04-04T10:50:06.998Z</time></trkpt><trkpt lat="45.87743693808528" lon="9.262053439396135"><ele>540.0</ele><time>2026-04-04T10:50:07.998Z</time></trkpt><trkpt lat="45.87728930354433" lon="9.262053760860624"><ele>537.5</ele><time>2026-04-04T10:50:08.998Z</time></trkpt><trkpt lat="45.877147192790744" lon="9.262034627820487"><ele>535.0</ele><time>2026-04-04T10:50:10Z</time></trkpt><trkpt lat="45.876997770039736" lon="9.262013921414367"><ele>535.0</ele><time>2026-04-04T10:50:11Z</time></trkpt><trkpt lat="45.87685347881599" lon="9.261941417109865"><ele>535.0</ele><time>2026-04-04T10:50:12Z</time></trkpt><trkpt lat="45.876697917103535" lon="9.261863213942506"><ele>535.0</ele><time>2026-04-04T10:50:13Z</time></trkpt><trkpt lat="45.87653727801658" lon="9.261770557918902"><ele>530.0</ele><time>2026-04-04T10:50:14Z</time></trkpt><trkpt lat="45.87637659261404" lon="9.261666226624042"><ele>525.0</ele><time>2026-04-04T10:50:15Z</time></trkpt><trkpt lat="45.87621098818069" lon="9.261562428520605"><ele>520.0</ele><time>2026-04-04T10:50:16Z</time></trkpt><trkpt lat="45.87605350109375" lon="9.26146798592088"><ele>521.5</ele><time>2026-04-04T10:50:17Z</time></trkpt><trkpt lat="45.87591672070526" lon="9.261385309545977"><ele>523.0</ele><time>2026-04-04T10:50:18Z</time></trkpt><trkpt lat="45.87578576731638" lon="9.261309336641755"><ele>524.5</ele><time>2026-04-04T10:50:19Z</time></trkpt><trkpt lat="45.87564853437327" lon="9.261217564897409"><ele>526.0</ele><time>2026-04-04T10:50:20Z</time></trkpt><trkpt lat="45.875507295456536" lon="9.261129845876674"><ele>526.0</ele><time>2026-04-04T10:50:21Z</time></trkpt><trkpt lat="45.87537172057929" lon="9.261042360198164"><ele>526.0</ele><time>2026-04-04T10:50:22Z</time></trkpt><trkpt lat="45.87523524615828" lon="9.260954113977869"><ele>526.0</ele><time>2026-04-04T10:50:23Z</time></trkpt><trkpt lat="45.87510179435501" lon="9.260872496686778"><ele>526.0</ele><time>2026-04-04T10:50:24Z</time></trkpt><trkpt lat="45.87497950457325" lon="9.26079329901105"><ele>522.5</ele><time>2026-04-04T10:50:25Z</time></trkpt><trkpt lat="45.87485637195251" lon="9.260742550148244"><ele>519.0</ele><time>2026-04-04T10:50:26Z</time></trkpt><trkpt lat="45.87474155561451" lon="9.260767433274784"><ele>515.5</ele><time>2026-04-04T10:50:27Z</time></trkpt><trkpt lat="45.874620825985694" lon="9.260863440052262"><ele>512.0</ele><time>2026-04-04T10:50:28Z</time></trkpt><trkpt lat="45.87450886108828" lon="9.260964022099806"><ele>512.0</ele><time>2026-04-04T10:50:29Z</time></trkpt><trkpt lat="45.874388681438354" lon="9.261078117191076"><ele>512.0</ele><time>2026-04-04T10:50:30Z</time></trkpt><trkpt lat="45.874248222568326" lon="9.261153268293745"><ele>512.0</ele><time>2026-04-04T10:50:31Z</time></trkpt><trkpt lat="45.874112107321615" lon="9.261185956310202"><ele>512.0</ele><time>2026-04-04T10:50:32Z</time></trkpt><trkpt lat="45.87398684304379" lon="9.261217693074741"><ele>512.5</ele><time>2026-04-04T10:50:33Z</time></trkpt><trkpt lat="45.873853044952746" lon="9.261229834435989"><ele>513.0</ele><time>2026-04-04T10:50:34Z</time></trkpt><trkpt lat="45.87372896785034" lon="9.261180869640242"><ele>513.5</ele><time>2026-04-04T10:50:35Z</time></trkpt><trkpt lat="45.873605884999336" lon="9.261104055099807"><ele>514.0</ele><time>2026-04-04T10:50:36Z</time></trkpt><trkpt lat="45.87348210663433" lon="9.26103494655079"><ele>511.0</ele><time>2026-04-04T10:50:37Z</time></trkpt><trkpt lat="45.87337330955229" lon="9.260962487261665"><ele>508.0</ele><time>2026-04-04T10:50:38Z</time></trkpt><trkpt lat="45.873254614590365" lon="9.260912962272108"><ele>505.0</ele><time>2026-04-04T10:50:39Z</time></trkpt><trkpt lat="45.873125090511216" lon="9.260891643948172"><ele>502.0</ele><time>2026-04-04T10:50:40Z</time></trkpt><trkpt lat="45.87296615662345" lon="9.260935003986297"><ele>502.0</ele><time>2026-04-04T10:50:41Z</time></trkpt><trkpt lat="45.87281603224365" lon="9.261014164392968"><ele>502.0</ele><time>2026-04-04T10:50:42Z</time></trkpt><trkpt lat="45.87269012512156" lon="9.261129412250353"><ele>502.0</ele><time>2026-04-04T10:50:43Z</time></trkpt><trkpt lat="45.87257380884018" lon="9.26125085957014"><ele>504.6666666666667</ele><time>2026-04-04T10:50:44Z</time></trkpt><trkpt lat="45.872428680655915" lon="9.261341335210048"><ele>507.33333333333337</ele><time>2026-04-04T10:50:45Z</time></trkpt><trkpt lat="45.87231257512714" lon="9.261450896759857"><ele>510.0</ele><time>2026-04-04T10:50:46Z</time></trkpt><trkpt lat="45.87218385659704" lon="9.261574662714622"><ele>510.0</ele><time>2026-04-04T10:50:47Z</time></trkpt><trkpt lat="45.8720700324668" lon="9.261710858844861"><ele>510.0</ele><time>2026-04-04T10:50:48Z</time></trkpt><trkpt lat="45.87193698071564" lon="9.261838096628296"><ele>510.0</ele><time>2026-04-04T10:50:49Z</time></trkpt><trkpt lat="45.87180405270309" lon="9.26196958673668"><ele>508.5</ele><time>2026-04-04T10:50:50Z</time></trkpt><trkpt lat="45.87168811112358" lon="9.262087113046261"><ele>507.0</ele><time>2026-04-04T10:50:51Z</time></trkpt><trkpt lat="45.87157706794483" lon="9.262200157281246"><ele>505.5</ele><time>2026-04-04T10:50:52Z</time></trkpt><trkpt lat="45.871459699675434" lon="9.262316794146802"><ele>504.0</ele><time>2026-04-04T10:50:53Z</time></trkpt><trkpt lat="45.87133871952022" lon="9.26242841370979"><ele>504.0</ele><time>2026-04-04T10:50:54Z</time></trkpt><trkpt lat="45.87121903581065" lon="9.262534516006138"><ele>504.0</ele><time>2026-04-04T10:50:55Z</time></trkpt><trkpt lat="45.871095792018245" lon="9.262635163352716"><ele>504.0</ele><time>2026-04-04T10:50:56Z</time></trkpt><trkpt lat="45.870979668322" lon="9.262734549190894"><ele>504.0</ele><time>2026-04-04T10:50:56.999Z</time></trkpt><trkpt lat="45.870858918471264" lon="9.26280665960026"><ele>500.5</ele><time>2026-04-04T10:50:57.999Z</time></trkpt><trkpt lat="45.87073276549402" lon="9.262833994671794"><ele>497.0</ele><time>2026-04-04T10:50:58.999Z</time></trkpt><trkpt lat="45.87060277893584" lon="9.26282101531471"><ele>493.5</ele><time>2026-04-04T10:50:59.999Z</time></trkpt><trkpt lat="45.87047877194592" lon="9.26275111877134"><ele>490.0</ele><time>2026-04-04T10:51:00.999Z</time></trkpt><trkpt lat="45.87034617330018" lon="9.262742122317237"><ele>490.0</ele><time>2026-04-04T10:51:01.999Z</time></trkpt><trkpt lat="45.870219768047" lon="9.262717605613654"><ele>490.0</ele><time>2026-04-04T10:51:02.999Z</time></trkpt><trkpt lat="45.870087708650175" lon="9.262699320875209"><ele>490.0</ele><time>2026-04-04T10:51:03.999Z</time></trkpt><trkpt lat="45.8699571331183" lon="9.262686327321381"><ele>490.0</ele><time>2026-04-04T10:51:04.999Z</time></trkpt><trkpt lat="45.86982911583438" lon="9.262706769155416"><ele>488.0</ele><time>2026-04-04T10:51:05.999Z</time></trkpt><trkpt lat="45.86971713559947" lon="9.262767206923264"><ele>486.0</ele><time>2026-04-04T10:51:06.999Z</time></trkpt><trkpt lat="45.86962556671141" lon="9.262855490642337"><ele>484.0</ele><time>2026-04-04T10:51:07.999Z</time></trkpt><trkpt lat="45.86955066876821" lon="9.26296845198777"><ele>482.0</ele><time>2026-04-04T10:51:08.999Z</time></trkpt><trkpt lat="45.869491310188316" lon="9.263110731599488"><ele>486.20000000000005</ele><time>2026-04-04T10:51:09.999Z</time></trkpt><trkpt lat="45.86946559968545" lon="9.263278812144872"><ele>490.40000000000003</ele><time>2026-04-04T10:51:10.999Z</time></trkpt><trkpt lat="45.86946330816126" lon="9.263442906100247"><ele>494.59999999999997</ele><time>2026-04-04T10:51:11.999Z</time></trkpt><trkpt lat="45.869465645382505" lon="9.263604562151379"><ele>498.79999999999995</ele><time>2026-04-04T10:51:12.999Z</time></trkpt><trkpt lat="45.86945533941862" lon="9.263750124204426"><ele>503.0</ele><time>2026-04-04T10:51:13.999Z</time></trkpt><trkpt lat="45.86942800245245" lon="9.263906367280782"><ele>499.25</ele><time>2026-04-04T10:51:14.999Z</time></trkpt><trkpt lat="45.86936602352919" lon="9.264049008668602"><ele>495.5</ele><time>2026-04-04T10:51:15.999Z</time></trkpt><trkpt lat="45.869264042730116" lon="9.264160765149663"><ele>491.75</ele><time>2026-04-04T10:51:16.999Z</time></trkpt><trkpt lat="45.86918734556186" lon="9.264305273589255"><ele>488.0</ele><time>2026-04-04T10:51:17.999Z</time></trkpt><trkpt lat="45.86910426875543" lon="9.264437223766791"><ele>488.0</ele><time>2026-04-04T10:51:18.999Z</time></trkpt><trkpt lat="45.869029098920315" lon="9.264568451951495"><ele>488.0</ele><time>2026-04-04T10:51:19.999Z</time></trkpt><trkpt lat="45.86894692195949" lon="9.264690961626695"><ele>488.0</ele><time>2026-04-04T10:51:20.999Z</time></trkpt><trkpt lat="45.86889061620435" lon="9.264828463902289"><ele>488.0</ele><time>2026-04-04T10:51:21.999Z</time></trkpt><trkpt lat="45.868829907421244" lon="9.264965703805958"><ele>486.5</ele><time>2026-04-04T10:51:22.999Z</time></trkpt><trkpt lat="45.86873695880477" lon="9.265079239873062"><ele>485.0</ele><time>2026-04-04T10:51:23.999Z</time></trkpt><trkpt lat="45.86863439690856" lon="9.265161893737707"><ele>483.5</ele><time>2026-04-04T10:51:24.999Z</time></trkpt><trkpt lat="45.868516321410645" lon="9.265214702961773"><ele>482.0</ele><time>2026-04-04T10:51:25.999Z</time></trkpt><trkpt lat="45.868401318132086" lon="9.265273283169531"><ele>482.0</ele><time>2026-04-04T10:51:26.999Z</time></trkpt><trkpt lat="45.86828262446712" lon="9.26530042264616"><ele>482.0</ele><time>2026-04-04T10:51:27.999Z</time></trkpt><trkpt lat="45.8681687782933" lon="9.265335956179017"><ele>482.0</ele><time>2026-04-04T10:51:28.999Z</time></trkpt><trkpt lat="45.86805616802423" lon="9.265377434612416"><ele>482.0</ele><time>2026-04-04T10:51:29.999Z</time></trkpt><trkpt lat="45.86794312071225" lon="9.265420670496903"><ele>482.0</ele><time>2026-04-04T10:51:30.999Z</time></trkpt><trkpt lat="45.86782802149728" lon="9.26546410078447"><ele>482.0</ele><time>2026-04-04T10:51:31.999Z</time></trkpt><trkpt lat="45.867706818881516" lon="9.265506977869421"><ele>482.0</ele><time>2026-04-04T10:51:32.999Z</time></trkpt><trkpt lat="45.8675845940549" lon="9.265548609680948"><ele>482.0</ele><time>2026-04-04T10:51:33.999Z</time></trkpt><trkpt lat="45.867453213226796" lon="9.265594507908025"><ele>483.5</ele><time>2026-04-04T10:51:34.999Z</time></trkpt><trkpt lat="45.867336295561564" lon="9.265655626815937"><ele>485.0</ele><time>2026-04-04T10:51:35.999Z</time></trkpt><trkpt lat="45.86722171351906" lon="9.265736097336267"><ele>486.5</ele><time>2026-04-04T10:51:36.999Z</time></trkpt><trkpt lat="45.86711687906692" lon="9.265835342452613"><ele>488.0</ele><time>2026-04-04T10:51:37.999Z</time></trkpt><trkpt lat="45.8670215264297" lon="9.26593694987152"><ele>488.0</ele><time>2026-04-04T10:51:38.999Z</time></trkpt><trkpt lat="45.866934031152425" lon="9.266058914361532"><ele>488.0</ele><time>2026-04-04T10:51:39.999Z</time></trkpt><trkpt lat="45.86686120428629" lon="9.266192903918792"><ele>488.0</ele><time>2026-04-04T10:51:40.999Z</time></trkpt><trkpt lat="45.86678761660946" lon="9.26634282692238"><ele>488.0</ele><time>2026-04-04T10:51:41.999Z</time></trkpt><trkpt lat="45.86671531925891" lon="9.26649548170771"><ele>487.5</ele><time>2026-04-04T10:51:42.999Z</time></trkpt><trkpt lat="45.86663917753728" lon="9.266646741657542"><ele>487.0</ele><time>2026-04-04T10:51:43.999Z</time></trkpt><trkpt lat="45.8665643706238" lon="9.266788573707741"><ele>486.5</ele><time>2026-04-04T10:51:44.999Z</time></trkpt><trkpt lat="45.86648798511631" lon="9.266916908801552"><ele>486.0</ele><time>2026-04-04T10:51:45.999Z</time></trkpt><trkpt lat="45.86642172402191" lon="9.267043157514282"><ele>486.0</ele><time>2026-04-04T10:51:46.999Z</time></trkpt><trkpt lat="45.86635402245561" lon="9.26716493249298"><ele>486.0</ele><time>2026-04-04T10:51:47.999Z</time></trkpt><trkpt lat="45.86628402393064" lon="9.267291699459374"><ele>486.0</ele><time>2026-04-04T10:51:48.999Z</time></trkpt><trkpt lat="45.8662139915148" lon="9.267421466022473"><ele>486.0</ele><time>2026-04-04T10:51:49.999Z</time></trkpt><trkpt lat="45.86614507228994" lon="9.267549112783943"><ele>486.0</ele><time>2026-04-04T10:51:50.999Z</time></trkpt><trkpt lat="45.866074526723885" lon="9.267673460004753"><ele>485.25</ele><time>2026-04-04T10:51:51.999Z</time></trkpt><trkpt lat="45.86600518852009" lon="9.267800907517278"><ele>484.5</ele><time>2026-04-04T10:51:52.999Z</time></trkpt><trkpt lat="45.86594105807384" lon="9.267934733906237"><ele>483.75</ele><time>2026-04-04T10:51:53.999Z</time></trkpt><trkpt lat="45.86587583197621" lon="9.268070866955522"><ele>483.0</ele><time>2026-04-04T10:51:54.999Z</time></trkpt><trkpt lat="45.8658214969094" lon="9.268216995656982"><ele>483.0</ele><time>2026-04-04T10:51:55.999Z</time></trkpt><trkpt lat="45.86577701756771" lon="9.26836541917463"><ele>482.99999999999994</ele><time>2026-04-04T10:51:56.999Z</time></trkpt><trkpt lat="45.86573745393145" lon="9.268514717249223"><ele>482.99999999999994</ele><time>2026-04-04T10:51:57.999Z</time></trkpt><trkpt lat="45.865700800688714" lon="9.26865109239679"><ele>483.0</ele><time>2026-04-04T10:51:58.999Z</time></trkpt><trkpt lat="45.865643173599175" lon="9.268785427658049"><ele>483.0</ele><time>2026-04-04T10:51:59.999Z</time></trkpt><trkpt lat="45.86560007716191" lon="9.268925651106848"><ele>485.5</ele><time>2026-04-04T10:52:00.999Z</time></trkpt><trkpt lat="45.865559223371065" lon="9.26905857681488"><ele>488.0</ele><time>2026-04-04T10:52:01.999Z</time></trkpt><trkpt lat="45.86551512483587" lon="9.269200823538966"><ele>490.5</ele><time>2026-04-04T10:52:02.999Z</time></trkpt><trkpt lat="45.86546590136525" lon="9.269359831733338"><ele>493.0</ele><time>2026-04-04T10:52:03.999Z</time></trkpt><trkpt lat="45.86543267821043" lon="9.269524838118844"><ele>493.0</ele><time>2026-04-04T10:52:04.999Z</time></trkpt><trkpt lat="45.86536920545541" lon="9.269671448574394"><ele>493.0</ele><time>2026-04-04T10:52:05.999Z</time></trkpt><trkpt lat="45.8653202184226" lon="9.269829211363644"><ele>493.0</ele><time>2026-04-04T10:52:06.999Z</time></trkpt><trkpt lat="45.86527000454502" lon="9.269990925186415"><ele>493.0</ele><time>2026-04-04T10:52:07.999Z</time></trkpt><trkpt lat="45.865220069645524" lon="9.270151525230947"><ele>491.0</ele><time>2026-04-04T10:52:08.999Z</time></trkpt><trkpt lat="45.86516992840261" lon="9.270311357216979"><ele>489.0</ele><time>2026-04-04T10:52:09.999Z</time></trkpt><trkpt lat="45.8651208972674" lon="9.270470709505718"><ele>487.0</ele><time>2026-04-04T10:52:10.999Z</time></trkpt><trkpt lat="45.865085875884496" lon="9.270645631944534"><ele>485.0</ele><time>2026-04-04T10:52:11.999Z</time></trkpt><trkpt lat="45.86501848608938" lon="9.270796918250735"><ele>485.0</ele><time>2026-04-04T10:52:12.999Z</time></trkpt><trkpt lat="45.86495804343768" lon="9.270957304354193"><ele>485.0</ele><time>2026-04-04T10:52:13.999Z</time></trkpt><trkpt lat="45.86489716423811" lon="9.271118480527262"><ele>485.0</ele><time>2026-04-04T10:52:15.019Z</time></trkpt><trkpt lat="45.86484091300525" lon="9.27127949801815"><ele>485.0</ele><time>2026-04-04T10:52:16.022Z</time></trkpt><trkpt lat="45.86478711520783" lon="9.271439006225675"><ele>487.75</ele><time>2026-04-04T10:52:17.022Z</time></trkpt><trkpt lat="45.86472749628338" lon="9.271596848589102"><ele>490.5</ele><time>2026-04-04T10:52:18.021Z</time></trkpt><trkpt lat="45.864701229190324" lon="9.271808154889635"><ele>493.25</ele><time>2026-04-04T10:52:18.998Z</time></trkpt><trkpt lat="45.86464727563137" lon="9.271976761127434"><ele>496.0</ele><time>2026-04-04T10:52:20Z</time></trkpt><trkpt lat="45.864583243846226" lon="9.272161409349758"><ele>499.25</ele><time>2026-04-04T10:52:21Z</time></trkpt><trkpt lat="45.86452412626833" lon="9.272333137089582"><ele>502.5</ele><time>2026-04-04T10:52:22Z</time></trkpt><trkpt lat="45.864469836803224" lon="9.272500540480081"><ele>505.75</ele><time>2026-04-04T10:52:23Z</time></trkpt><trkpt lat="45.86442819426724" lon="9.272664682959336"><ele>509.0</ele><time>2026-04-04T10:52:24Z</time></trkpt><trkpt lat="45.864379820810655" lon="9.272838860294407"><ele>509.0</ele><time>2026-04-04T10:52:25Z</time></trkpt><trkpt lat="45.86433489182749" lon="9.273005607891148"><ele>509.0</ele><time>2026-04-04T10:52:26Z</time></trkpt><trkpt lat="45.864288002590264" lon="9.273182258179185"><ele>509.0</ele><time>2026-04-04T10:52:27Z</time></trkpt><trkpt lat="45.864246922664755" lon="9.273365088677302"><ele>509.0</ele><time>2026-04-04T10:52:28Z</time></trkpt><trkpt lat="45.86422143446004" lon="9.273543029033013"><ele>498.25</ele><time>2026-04-04T10:52:29Z</time></trkpt><trkpt lat="45.864198843088964" lon="9.273711248552054"><ele>487.5</ele><time>2026-04-04T10:52:30Z</time></trkpt><trkpt lat="45.86417932274164" lon="9.273878440269629"><ele>476.75</ele><time>2026-04-04T10:52:31Z</time></trkpt><trkpt lat="45.86415713231294" lon="9.274032538590799"><ele>466.0</ele><time>2026-04-04T10:52:32Z</time></trkpt><trkpt lat="45.864135566659456" lon="9.274192434385531"><ele>466.0</ele><time>2026-04-04T10:52:33Z</time></trkpt><trkpt lat="45.864103703292606" lon="9.274347614594312"><ele>466.0</ele><time>2026-04-04T10:52:34Z</time></trkpt><trkpt lat="45.86407908629791" lon="9.274504248647167"><ele>466.0</ele><time>2026-04-04T10:52:35Z</time></trkpt><trkpt lat="45.864053439268375" lon="9.274655335989117"><ele>466.0</ele><time>2026-04-04T10:52:36Z</time></trkpt><trkpt lat="45.8640249732466" lon="9.274803574540735"><ele>466.0</ele><time>2026-04-04T10:52:37Z</time></trkpt><trkpt lat="45.86399359068357" lon="9.27494159137477"><ele>467.6</ele><time>2026-04-04T10:52:38Z</time></trkpt><trkpt lat="45.86395801099985" lon="9.275076477263204"><ele>469.20000000000005</ele><time>2026-04-04T10:52:39Z</time></trkpt><trkpt lat="45.8639105259099" lon="9.275203241765416"><ele>470.79999999999995</ele><time>2026-04-04T10:52:40Z</time></trkpt><trkpt lat="45.86385259685751" lon="9.275329096985159"><ele>472.4</ele><time>2026-04-04T10:52:41Z</time></trkpt><trkpt lat="45.86378058130999" lon="9.27544873550619"><ele>474.0</ele><time>2026-04-04T10:52:42Z</time></trkpt><trkpt lat="45.86369739504933" lon="9.275559560863028"><ele>476.25</ele><time>2026-04-04T10:52:43Z</time></trkpt><trkpt lat="45.863602455735865" lon="9.275662329719308"><ele>478.5</ele><time>2026-04-04T10:52:44Z</time></trkpt><trkpt lat="45.86349563605843" lon="9.275755490998815"><ele>480.75</ele><time>2026-04-04T10:52:45Z</time></trkpt><trkpt lat="45.86339057618345" lon="9.27582053878613"><ele>483.0</ele><time>2026-04-04T10:52:46Z</time></trkpt><trkpt lat="45.863287621905926" lon="9.275867792587794"><ele>476.0</ele><time>2026-04-04T10:52:47Z</time></trkpt><trkpt lat="45.863190894179716" lon="9.275906420868669"><ele>468.99999999999994</ele><time>2026-04-04T10:52:48Z</time></trkpt><trkpt lat="45.863094948590856" lon="9.27592859241579"><ele>461.99999999999994</ele><time>2026-04-04T10:52:49Z</time></trkpt><trkpt lat="45.8629930827684" lon="9.275937745982256"><ele>455.0</ele><time>2026-04-04T10:52:50Z</time></trkpt><trkpt lat="45.86289136225937" lon="9.275928922017618"><ele>448.0</ele><time>2026-04-04T10:52:51Z</time></trkpt><trkpt lat="45.86278593404248" lon="9.275902291994866"><ele>448.0</ele><time>2026-04-04T10:52:52Z</time></trkpt><trkpt lat="45.86267769560189" lon="9.275863157147624"><ele>448.0</ele><time>2026-04-04T10:52:53Z</time></trkpt><trkpt lat="45.86257051580332" lon="9.275810011868487"><ele>448.0</ele><time>2026-04-04T10:52:54Z</time></trkpt><trkpt lat="45.862462298283006" lon="9.275743115881623"><ele>448.0</ele><time>2026-04-04T10:52:55Z</time></trkpt><trkpt lat="45.862358635053226" lon="9.275652197592233"><ele>444.0</ele><time>2026-04-04T10:52:56Z</time></trkpt><trkpt lat="45.862259151185725" lon="9.275541130911682"><ele>440.0</ele><time>2026-04-04T10:52:57Z</time></trkpt><trkpt lat="45.862173821991796" lon="9.275411604059881"><ele>436.0</ele><time>2026-04-04T10:52:58Z</time></trkpt><trkpt lat="45.862098625499165" lon="9.27526365567725"><ele>432.0</ele><time>2026-04-04T10:52:59Z</time></trkpt><trkpt lat="45.86203526934109" lon="9.275105753371784"><ele>432.0</ele><time>2026-04-04T10:53:00Z</time></trkpt><trkpt lat="45.86198227861878" lon="9.27493028817701"><ele>432.0</ele><time>2026-04-04T10:53:01Z</time></trkpt><trkpt lat="45.86194071973024" lon="9.274748097863842"><ele>432.0</ele><time>2026-04-04T10:53:02Z</time></trkpt><trkpt lat="45.861918043932626" lon="9.274557736752968"><ele>432.0</ele><time>2026-04-04T10:53:03Z</time></trkpt><trkpt lat="45.861906113179145" lon="9.274359480208345"><ele>431.25</ele><time>2026-04-04T10:53:04Z</time></trkpt><trkpt lat="45.861904421493755" lon="9.274167764665801"><ele>430.5</ele><time>2026-04-04T10:53:05Z</time></trkpt><trkpt lat="45.86191031295836" lon="9.273989055660447"><ele>429.75</ele><time>2026-04-04T10:53:06Z</time></trkpt><trkpt lat="45.86191139853891" lon="9.273818882048625"><ele>429.0</ele><time>2026-04-04T10:53:07Z</time></trkpt><trkpt lat="45.861907623229285" lon="9.273649891704617"><ele>427.75</ele><time>2026-04-04T10:53:08Z</time></trkpt><trkpt lat="45.861904468385305" lon="9.273483995127288"><ele>426.5</ele><time>2026-04-04T10:53:09Z</time></trkpt><trkpt lat="45.861903493026496" lon="9.273316474409741"><ele>425.25</ele><time>2026-04-04T10:53:09.999Z</time></trkpt><trkpt lat="45.86190075815748" lon="9.273140360785652"><ele>424.0</ele><time>2026-04-04T10:53:10.999Z</time></trkpt><trkpt lat="45.86189917033727" lon="9.272967578570853"><ele>423.0</ele><time>2026-04-04T10:53:11.999Z</time></trkpt><trkpt lat="45.86189811909438" lon="9.272793552865496"><ele>422.0</ele><time>2026-04-04T10:53:12.999Z</time></trkpt><trkpt lat="45.8618946963926" lon="9.272624582764996"><ele>421.0</ele><time>2026-04-04T10:53:13.999Z</time></trkpt><trkpt lat="45.86189055354736" lon="9.272449543173517"><ele>420.0</ele><time>2026-04-04T10:53:14.999Z</time></trkpt><trkpt lat="45.861881478346085" lon="9.27227627231698"><ele>421.5</ele><time>2026-04-04T10:53:15.999Z</time></trkpt><trkpt lat="45.86187566219781" lon="9.27210203830204"><ele>423.0</ele><time>2026-04-04T10:53:16.999Z</time></trkpt><trkpt lat="45.86186880944939" lon="9.271937141470096"><ele>424.5</ele><time>2026-04-04T10:53:17.999Z</time></trkpt><trkpt lat="45.8618540584046" lon="9.271783533024243"><ele>426.0</ele><time>2026-04-04T10:53:18.999Z</time></trkpt><trkpt lat="45.86183612484458" lon="9.271631462049228"><ele>426.0</ele><time>2026-04-04T10:53:19.999Z</time></trkpt><trkpt lat="45.86181746689887" lon="9.271483678366954"><ele>426.0</ele><time>2026-04-04T10:53:20.999Z</time></trkpt><trkpt lat="45.86179779300842" lon="9.271341719149163"><ele>426.0</ele><time>2026-04-04T10:53:21.999Z</time></trkpt><trkpt lat="45.86177878768639" lon="9.271205455226758"><ele>426.0</ele><time>2026-04-04T10:53:22.999Z</time></trkpt><trkpt lat="45.86176149052889" lon="9.271072217821937"><ele>426.0</ele><time>2026-04-04T10:53:23.999Z</time></trkpt><trkpt lat="45.86174220222874" lon="9.270949013072494"><ele>425.3333333333333</ele><time>2026-04-04T10:53:24.999Z</time></trkpt><trkpt lat="45.861733598589474" lon="9.270835285897235"><ele>424.66666666666663</ele><time>2026-04-04T10:53:25.999Z</time></trkpt><trkpt lat="45.86172475584053" lon="9.270736795702664"><ele>424.0</ele><time>2026-04-04T10:53:26.999Z</time></trkpt><trkpt lat="45.86170507510494" lon="9.270631876392235"><ele>423.3333333333333</ele><time>2026-04-04T10:53:27.999Z</time></trkpt><trkpt lat="45.861683980014554" lon="9.270516266371203"><ele>422.66666666666663</ele><time>2026-04-04T10:53:28.999Z</time></trkpt><trkpt lat="45.86167151155217" lon="9.27039479320096"><ele>422.0</ele><time>2026-04-04T10:53:29.999Z</time></trkpt><trkpt lat="45.861660744143485" lon="9.2702799339892"><ele>421.66666666666663</ele><time>2026-04-04T10:53:30.999Z</time></trkpt><trkpt lat="45.86164820161285" lon="9.270157995654529"><ele>421.3333333333333</ele><time>2026-04-04T10:53:31.999Z</time></trkpt><trkpt lat="45.8616357859947" lon="9.270038292664545"><ele>421.0</ele><time>2026-04-04T10:53:32.999Z</time></trkpt><trkpt lat="45.861647373968665" lon="9.269928117595867"><ele>420.66666666666663</ele><time>2026-04-04T10:53:33.999Z</time></trkpt><trkpt lat="45.861687202007396" lon="9.269835733927273"><ele>420.3333333333333</ele><time>2026-04-04T10:53:34.999Z</time></trkpt><trkpt lat="45.86169452094203" lon="9.26973581158596"><ele>420.0</ele><time>2026-04-04T10:53:35.999Z</time></trkpt><trkpt lat="45.8616453129399" lon="9.269652089322319"><ele>419.0</ele><time>2026-04-04T10:53:36.999Z</time></trkpt><trkpt lat="45.86156793374431" lon="9.26960787023373"><ele>418.0</ele><time>2026-04-04T10:53:37.999Z</time></trkpt><trkpt lat="45.86149085486075" lon="9.269591461862722"><ele>417.0</ele><time>2026-04-04T10:53:38.999Z</time></trkpt><trkpt lat="45.861404728024574" lon="9.269573394127281"><ele>416.0</ele><time>2026-04-04T10:53:39.999Z</time></trkpt><trkpt lat="45.861320508756144" lon="9.26956104059583"><ele>415.0</ele><time>2026-04-04T10:53:40.999Z</time></trkpt><trkpt lat="45.86123391945476" lon="9.269544995471497"><ele>414.0</ele><time>2026-04-04T10:53:41.999Z</time></trkpt><trkpt lat="45.86114555839265" lon="9.26950827757949"><ele>414.0</ele><time>2026-04-04T10:53:42.999Z</time></trkpt><trkpt lat="45.86105675081348" lon="9.269459956469971"><ele>414.0</ele><time>2026-04-04T10:53:43.999Z</time></trkpt><trkpt lat="45.86097217307806" lon="9.26943597893343"><ele>414.0</ele><time>2026-04-04T10:53:44.999Z</time></trkpt><trkpt lat="45.86089588151394" lon="9.269388242291653"><ele>414.0</ele><time>2026-04-04T10:53:45.999Z</time></trkpt><trkpt lat="45.860828511246105" lon="9.269358122525444"><ele>414.0</ele><time>2026-04-04T10:53:46.999Z</time></trkpt><trkpt lat="45.86076340093532" lon="9.26934293825326"><ele>414.0</ele><time>2026-04-04T10:53:47.999Z</time></trkpt><trkpt lat="45.86070029993669" lon="9.269336044695168"><ele>413.4</ele><time>2026-04-04T10:53:48.999Z</time></trkpt><trkpt lat="45.86057716856309" lon="9.26933456410676"><ele>412.79999999999995</ele><time>2026-04-04T10:53:50.999Z</time></trkpt><trkpt lat="45.8604570681056" lon="9.269337830941737"><ele>412.20000000000005</ele><time>2026-04-04T10:53:52.999Z</time></trkpt><trkpt lat="45.86034314360265" lon="9.269286476969686"><ele>411.6</ele><time>2026-04-04T10:53:54.999Z</time></trkpt><trkpt lat="45.86032894144442" lon="9.269184677553689"><ele>411.0</ele><time>2026-04-04T10:53:55.999Z</time></trkpt><trkpt lat="45.86029377661382" lon="9.269108909693525"><ele>410.6</ele><time>2026-04-04T10:53:56.999Z</time></trkpt><trkpt lat="45.860269865779685" lon="9.268928687272197"><ele>410.20000000000005</ele><time>2026-04-04T10:53:58.999Z</time></trkpt><trkpt lat="45.860192037269364" lon="9.268784845322847"><ele>409.79999999999995</ele><time>2026-04-04T10:54:00.999Z</time></trkpt><trkpt lat="45.8601274534599" lon="9.268726812089911"><ele>409.4</ele><time>2026-04-04T10:54:01.999Z</time></trkpt><trkpt lat="45.86005359515934" lon="9.268699367289964"><ele>409.0</ele><time>2026-04-04T10:54:02.999Z</time></trkpt><trkpt lat="45.85996579051652" lon="9.268723408449917"><ele>409.0</ele><time>2026-04-04T10:54:03.999Z</time></trkpt><trkpt lat="45.85988628983247" lon="9.26881003965001"><ele>409.0</ele><time>2026-04-04T10:54:04.999Z</time></trkpt><trkpt lat="45.85983082688529" lon="9.268921598864624"><ele>409.0</ele><time>2026-04-04T10:54:05.999Z</time></trkpt><trkpt lat="45.85977791477894" lon="9.269032632389102"><ele>409.0</ele><time>2026-04-04T10:54:06.999Z</time></trkpt><trkpt lat="45.85971992133498" lon="9.269132074788159"><ele>409.0</ele><time>2026-04-04T10:54:07.999Z</time></trkpt><trkpt lat="45.85965077714185" lon="9.269222172118209"><ele>409.2</ele><time>2026-04-04T10:54:08.999Z</time></trkpt><trkpt lat="45.859570665855685" lon="9.269294662132076"><ele>409.4</ele><time>2026-04-04T10:54:09.999Z</time></trkpt><trkpt lat="45.859477661332356" lon="9.26935079611044"><ele>409.6</ele><time>2026-04-04T10:54:10.999Z</time></trkpt><trkpt lat="45.85938446356595" lon="9.26941283952382"><ele>409.8</ele><time>2026-04-04T10:54:11.999Z</time></trkpt><trkpt lat="45.85929223502618" lon="9.269481100378433"><ele>410.0</ele><time>2026-04-04T10:54:12.999Z</time></trkpt><trkpt lat="45.85920096763144" lon="9.269551231990814"><ele>408.2</ele><time>2026-04-04T10:54:13.999Z</time></trkpt><trkpt lat="45.85911759050827" lon="9.269608783953878"><ele>406.4</ele><time>2026-04-04T10:54:14.999Z</time></trkpt><trkpt lat="45.859036274535036" lon="9.26965594031335"><ele>404.6</ele><time>2026-04-04T10:54:15.999Z</time></trkpt><trkpt lat="45.858944991459154" lon="9.269698286078654"><ele>402.8</ele><time>2026-04-04T10:54:16.999Z</time></trkpt><trkpt lat="45.85884236857872" lon="9.269723191405228"><ele>401.0</ele><time>2026-04-04T10:54:17.999Z</time></trkpt><trkpt lat="45.85873824142708" lon="9.269737364299795"><ele>401.0</ele><time>2026-04-04T10:54:18.999Z</time></trkpt><trkpt lat="45.85863070688419" lon="9.269736439372513"><ele>401.0</ele><time>2026-04-04T10:54:19.999Z</time></trkpt><trkpt lat="45.85852025532441" lon="9.269708505851176"><ele>401.0</ele><time>2026-04-04T10:54:20.999Z</time></trkpt><trkpt lat="45.85841025757242" lon="9.269667713271962"><ele>401.0</ele><time>2026-04-04T10:54:21.999Z</time></trkpt><trkpt lat="45.85829791933505" lon="9.269631757710478"><ele>401.0</ele><time>2026-04-04T10:54:22.999Z</time></trkpt><trkpt lat="45.85818109826521" lon="9.269609500194907"><ele>399.5</ele><time>2026-04-04T10:54:23.999Z</time></trkpt><trkpt lat="45.858061387575674" lon="9.269601329598972"><ele>398.0</ele><time>2026-04-04T10:54:24.999Z</time></trkpt><trkpt lat="45.857943475892895" lon="9.269603460069"><ele>396.5</ele><time>2026-04-04T10:54:26Z</time></trkpt><trkpt lat="45.85782903425953" lon="9.26961709657592"><ele>395.0</ele><time>2026-04-04T10:54:27Z</time></trkpt><trkpt lat="45.85771547036571" lon="9.269632892378715"><ele>394.6</ele><time>2026-04-04T10:54:28Z</time></trkpt><trkpt lat="45.857604931182415" lon="9.269661510975512"><ele>394.2</ele><time>2026-04-04T10:54:29Z</time></trkpt><trkpt lat="45.857508448934595" lon="9.269690531000732"><ele>393.79999999999995</ele><time>2026-04-04T10:54:30Z</time></trkpt><trkpt lat="45.85741450153915" lon="9.269715552963598"><ele>393.4</ele><time>2026-04-04T10:54:31Z</time></trkpt><trkpt lat="45.857327864291" lon="9.269738656614107"><ele>393.0</ele><time>2026-04-04T10:54:32Z</time></trkpt><trkpt lat="45.857240789732735" lon="9.269757753455275"><ele>393.0</ele><time>2026-04-04T10:54:33Z</time></trkpt><trkpt lat="45.85715592281932" lon="9.269767510086295"><ele>393.0</ele><time>2026-04-04T10:54:34Z</time></trkpt><trkpt lat="45.85707317272527" lon="9.269782403143715"><ele>393.0</ele><time>2026-04-04T10:54:35Z</time></trkpt><trkpt lat="45.85699242746314" lon="9.269785449198341"><ele>393.0</ele><time>2026-04-04T10:54:36Z</time></trkpt><trkpt lat="45.856910542076854" lon="9.269790543069917"><ele>393.0</ele><time>2026-04-04T10:54:37Z</time></trkpt><trkpt lat="45.85681526179883" lon="9.269781348242232"><ele>393.0</ele><time>2026-04-04T10:54:38Z</time></trkpt><trkpt lat="45.85672681735452" lon="9.26972034156196"><ele>392.4</ele><time>2026-04-04T10:54:39Z</time></trkpt><trkpt lat="45.856628891209965" lon="9.269693544094952"><ele>391.79999999999995</ele><time>2026-04-04T10:54:40Z</time></trkpt><trkpt lat="45.85653105594367" lon="9.269651558815672"><ele>391.2</ele><time>2026-04-04T10:54:41Z</time></trkpt><trkpt lat="45.856437759940476" lon="9.269608812326842"><ele>390.6</ele><time>2026-04-04T10:54:42Z</time></trkpt><trkpt lat="45.856340567137" lon="9.269569689130908"><ele>390.0</ele><time>2026-04-04T10:54:43Z</time></trkpt><trkpt lat="45.85624519290421" lon="9.269522547960461"><ele>390.0</ele><time>2026-04-04T10:54:44Z</time></trkpt><trkpt lat="45.85614620370493" lon="9.269481548714571"><ele>390.0</ele><time>2026-04-04T10:54:45Z</time></trkpt><trkpt lat="45.85604892192703" lon="9.269446674675704"><ele>390.0</ele><time>2026-04-04T10:54:46Z</time></trkpt><trkpt lat="45.855950644856584" lon="9.269419786371076"><ele>390.0</ele><time>2026-04-04T10:54:47Z</time></trkpt><trkpt lat="45.85585150765739" lon="9.269411476684812"><ele>390.0</ele><time>2026-04-04T10:54:48Z</time></trkpt><trkpt lat="45.855745933034015" lon="9.26939243861059"><ele>389.4</ele><time>2026-04-04T10:54:49Z</time></trkpt><trkpt lat="45.855639117146005" lon="9.269378930747383"><ele>388.8</ele><time>2026-04-04T10:54:50Z</time></trkpt><trkpt lat="45.85553918158068" lon="9.269365288052164"><ele>388.20000000000005</ele><time>2026-04-04T10:54:51Z</time></trkpt><trkpt lat="45.855435315918776" lon="9.269346374439072"><ele>387.6</ele><time>2026-04-04T10:54:52Z</time></trkpt><trkpt lat="45.85532377101411" lon="9.269352091480147"><ele>387.0</ele><time>2026-04-04T10:54:53Z</time></trkpt><trkpt lat="45.855217965061634" lon="9.269399828024708"><ele>387.0</ele><time>2026-04-04T10:54:54Z</time></trkpt><trkpt lat="45.85512382039881" lon="9.269475522891309"><ele>387.0</ele><time>2026-04-04T10:54:55Z</time></trkpt><trkpt lat="45.85504215812983" lon="9.269582740422788"><ele>387.0</ele><time>2026-04-04T10:54:56Z</time></trkpt><trkpt lat="45.85498407218257" lon="9.269711892509582"><ele>387.0</ele><time>2026-04-04T10:54:57Z</time></trkpt><trkpt lat="45.85494229416599" lon="9.269852603023333"><ele>387.0</ele><time>2026-04-04T10:54:58Z</time></trkpt><trkpt lat="45.85490347602899" lon="9.269984716496579"><ele>387.20000000000005</ele><time>2026-04-04T10:54:59Z</time></trkpt><trkpt lat="45.8548601056054" lon="9.270106544361347"><ele>387.4</ele><time>2026-04-04T10:55:00Z</time></trkpt><trkpt lat="45.85481776315146" lon="9.270229078129274"><ele>387.6</ele><time>2026-04-04T10:55:01Z</time></trkpt><trkpt lat="45.85477705932717" lon="9.270349021173532"><ele>387.79999999999995</ele><time>2026-04-04T10:55:02Z</time></trkpt><trkpt lat="45.85473233072044" lon="9.270470156039961"><ele>388.0</ele><time>2026-04-04T10:55:03Z</time></trkpt><trkpt lat="45.854688418075014" lon="9.270588243053849"><ele>388.79999999999995</ele><time>2026-04-04T10:55:04Z</time></trkpt><trkpt lat="45.854643179133085" lon="9.270707927698929"><ele>389.6</ele><time>2026-04-04T10:55:05Z</time></trkpt><trkpt lat="45.8546003468422" lon="9.27082905300022"><ele>390.4</ele><time>2026-04-04T10:55:06Z</time></trkpt><trkpt lat="45.85455427603678" lon="9.270946241173354"><ele>391.20000000000005</ele><time>2026-04-04T10:55:07Z</time></trkpt><trkpt lat="45.854501180936275" lon="9.271053603786566"><ele>392.0</ele><time>2026-04-04T10:55:08Z</time></trkpt><trkpt lat="45.85444250530205" lon="9.271156730701511"><ele>392.0</ele><time>2026-04-04T10:55:09Z</time></trkpt><trkpt lat="45.85437823218791" lon="9.271251182268717"><ele>392.0</ele><time>2026-04-04T10:55:10Z</time></trkpt><trkpt lat="45.85431436838907" lon="9.271340882015515"><ele>392.0</ele><time>2026-04-04T10:55:11Z</time></trkpt><trkpt lat="45.85424590602217" lon="9.27143226101517"><ele>392.0</ele><time>2026-04-04T10:55:12Z</time></trkpt><trkpt lat="45.85417018552456" lon="9.271520238445738"><ele>392.0</ele><time>2026-04-04T10:55:13Z</time></trkpt><trkpt lat="45.85409079210326" lon="9.271607714548114"><ele>391.0</ele><time>2026-04-04T10:55:14Z</time></trkpt><trkpt lat="45.85400264634547" lon="9.271676702688104"><ele>390.0</ele><time>2026-04-04T10:55:15Z</time></trkpt><trkpt lat="45.85391399372001" lon="9.271732749017879"><ele>389.0</ele><time>2026-04-04T10:55:15.999Z</time></trkpt><trkpt lat="45.85383032642446" lon="9.271791312026707"><ele>388.0</ele><time>2026-04-04T10:55:16.999Z</time></trkpt><trkpt lat="45.853744175077615" lon="9.271848239075107"><ele>387.0</ele><time>2026-04-04T10:55:17.999Z</time></trkpt><trkpt lat="45.8536640818107" lon="9.271903026578663"><ele>387.0</ele><time>2026-04-04T10:55:18.999Z</time></trkpt><trkpt lat="45.85358352647097" lon="9.271957653400925"><ele>387.0</ele><time>2026-04-04T10:55:19.999Z</time></trkpt><trkpt lat="45.8535081593475" lon="9.272014778286023"><ele>387.0</ele><time>2026-04-04T10:55:20.999Z</time></trkpt><trkpt lat="45.85343412829791" lon="9.272064030591476"><ele>387.0</ele><time>2026-04-04T10:55:21.999Z</time></trkpt><trkpt lat="45.85335891975426" lon="9.272081965705278"><ele>387.0</ele><time>2026-04-04T10:55:22.999Z</time></trkpt><trkpt lat="45.85328339534508" lon="9.272065627112951"><ele>387.0</ele><time>2026-04-04T10:55:23.999Z</time></trkpt><trkpt lat="45.853208233439474" lon="9.272037606364405"><ele>387.6</ele><time>2026-04-04T10:55:24.999Z</time></trkpt><trkpt lat="45.853101060743654" lon="9.272102675994205"><ele>388.20000000000005</ele><time>2026-04-04T10:55:26.999Z</time></trkpt><trkpt lat="45.85306125154286" lon="9.272205312614382"><ele>388.8</ele><time>2026-04-04T10:55:27.999Z</time></trkpt><trkpt lat="45.85301202934808" lon="9.272332246866466"><ele>389.4</ele><time>2026-04-04T10:55:28.999Z</time></trkpt><trkpt lat="45.85292655068395" lon="9.27241529243887"><ele>390.0</ele><time>2026-04-04T10:55:29.999Z</time></trkpt><trkpt lat="45.8528279195729" lon="9.272494556369649"><ele>390.2</ele><time>2026-04-04T10:55:30.999Z</time></trkpt><trkpt lat="45.852727554333114" lon="9.272576712171515"><ele>390.4</ele><time>2026-04-04T10:55:31.999Z</time></trkpt><trkpt lat="45.85263182093219" lon="9.272638547591761"><ele>390.6</ele><time>2026-04-04T10:55:32.999Z</time></trkpt><trkpt lat="45.852540744028104" lon="9.272702661810436"><ele>390.8</ele><time>2026-04-04T10:55:33.999Z</time></trkpt><trkpt lat="45.85245195051465" lon="9.272759458514427"><ele>391.0</ele><time>2026-04-04T10:55:34.999Z</time></trkpt><trkpt lat="45.852360163765866" lon="9.272821250075237"><ele>392.00000000000006</ele><time>2026-04-04T10:55:35.999Z</time></trkpt><trkpt lat="45.85227584276565" lon="9.272881848348948"><ele>393.0</ele><time>2026-04-04T10:55:36.999Z</time></trkpt><trkpt lat="45.85219710899156" lon="9.2729395061608"><ele>394.0</ele><time>2026-04-04T10:55:37.999Z</time></trkpt><trkpt lat="45.852130664367266" lon="9.272987691213732"><ele>395.0</ele><time>2026-04-04T10:55:38.999Z</time></trkpt><trkpt lat="45.85201470883274" lon="9.272982919229339"><ele>396.00000000000006</ele><time>2026-04-04T10:55:40.999Z</time></trkpt><trkpt lat="45.85196302624326" lon="9.272923415870672"><ele>397.0</ele><time>2026-04-04T10:55:41.999Z</time></trkpt><trkpt lat="45.85190119157363" lon="9.272847200843104"><ele>397.0</ele><time>2026-04-04T10:55:42.999Z</time></trkpt><trkpt lat="45.85187210085343" lon="9.272704550119695"><ele>397.0</ele><time>2026-04-04T10:55:43.999Z</time></trkpt><trkpt lat="45.85184756188243" lon="9.272570753311621"><ele>397.0</ele><time>2026-04-04T10:55:44.999Z</time></trkpt><trkpt lat="45.851819941423074" lon="9.27245545426694"><ele>397.0</ele><time>2026-04-04T10:55:45.999Z</time></trkpt><trkpt lat="45.851791051642465" lon="9.272342425525615"><ele>397.0</ele><time>2026-04-04T10:55:46.999Z</time></trkpt><trkpt lat="45.8517587959211" lon="9.27222038929128"><ele>397.0</ele><time>2026-04-04T10:55:47.999Z</time></trkpt><trkpt lat="45.851722156100095" lon="9.27208709470917"><ele>397.0</ele><time>2026-04-04T10:55:48.999Z</time></trkpt><trkpt lat="45.85168834797312" lon="9.271957110220823"><ele>397.0</ele><time>2026-04-04T10:55:49.999Z</time></trkpt><trkpt lat="45.851647298455156" lon="9.27183096252313"><ele>397.0</ele><time>2026-04-04T10:55:50.999Z</time></trkpt><trkpt lat="45.85159124954163" lon="9.271716238962828"><ele>397.0</ele><time>2026-04-04T10:55:51.999Z</time></trkpt><trkpt lat="45.85151013895779" lon="9.271634672211032"><ele>397.0</ele><time>2026-04-04T10:55:52.999Z</time></trkpt><trkpt lat="45.851411700153726" lon="9.271590638576923"><ele>397.0</ele><time>2026-04-04T10:55:53.999Z</time></trkpt><trkpt lat="45.85131799546074" lon="9.271572883260607"><ele>397.0</ele><time>2026-04-04T10:55:54.999Z</time></trkpt><trkpt lat="45.851233608889224" lon="9.271533840046098"><ele>397.0</ele><time>2026-04-04T10:55:55.999Z</time></trkpt><trkpt lat="45.85115246386613" lon="9.271499027886787"><ele>397.0</ele><time>2026-04-04T10:55:56.999Z</time></trkpt><trkpt lat="45.85107417255512" lon="9.271453044840412"><ele>397.1666666666667</ele><time>2026-04-04T10:55:57.999Z</time></trkpt><trkpt lat="45.85099899777111" lon="9.271399125759404"><ele>397.33333333333337</ele><time>2026-04-04T10:55:58.999Z</time></trkpt><trkpt lat="45.85092163400584" lon="9.271347597927022"><ele>397.5</ele><time>2026-04-04T10:55:59.999Z</time></trkpt><trkpt lat="45.85084207289081" lon="9.271295358729198"><ele>397.66666666666663</ele><time>2026-04-04T10:56:00.999Z</time></trkpt><trkpt lat="45.850762099469286" lon="9.271245883863672"><ele>397.8333333333333</ele><time>2026-04-04T10:56:01.999Z</time></trkpt><trkpt lat="45.85068104929449" lon="9.27119686633806"><ele>398.0</ele><time>2026-04-04T10:56:02.999Z</time></trkpt><trkpt lat="45.85059007327658" lon="9.271165974802518"><ele>397.0</ele><time>2026-04-04T10:56:03.999Z</time></trkpt><trkpt lat="45.85049854892134" lon="9.271163300052402"><ele>396.0</ele><time>2026-04-04T10:56:04.999Z</time></trkpt><trkpt lat="45.850404953475255" lon="9.271183882657837"><ele>395.0</ele><time>2026-04-04T10:56:05.999Z</time></trkpt><trkpt lat="45.85032376039203" lon="9.271220725836578"><ele>394.0</ele><time>2026-04-04T10:56:06.999Z</time></trkpt><trkpt lat="45.85023718601959" lon="9.271273224687468"><ele>393.0</ele><time>2026-04-04T10:56:07.999Z</time></trkpt><trkpt lat="45.850155110377386" lon="9.271316107387076"><ele>393.0</ele><time>2026-04-04T10:56:08.999Z</time></trkpt><trkpt lat="45.85007469555265" lon="9.27135673782919"><ele>393.0</ele><time>2026-04-04T10:56:09.999Z</time></trkpt><trkpt lat="45.849998212050025" lon="9.271395125342343"><ele>393.0</ele><time>2026-04-04T10:56:10.999Z</time></trkpt><trkpt lat="45.84992523378161" lon="9.271424542812255"><ele>393.0</ele><time>2026-04-04T10:56:11.999Z</time></trkpt><trkpt lat="45.84986037961269" lon="9.27145519224565"><ele>393.0</ele><time>2026-04-04T10:56:12.999Z</time></trkpt><trkpt lat="45.84979841067466" lon="9.271491789973268"><ele>393.0</ele><time>2026-04-04T10:56:13.999Z</time></trkpt><trkpt lat="45.84972295140345" lon="9.271527752817098"><ele>393.0</ele><time>2026-04-04T10:56:15.999Z</time></trkpt><trkpt lat="45.849653521345225" lon="9.271557912224289"><ele>393.0</ele><time>2026-04-04T10:56:17.999Z</time></trkpt><trkpt lat="45.84958172399468" lon="9.271609499303139"><ele>393.0</ele><time>2026-04-04T10:56:19.999Z</time></trkpt><trkpt lat="45.84952690750614" lon="9.271695369858652"><ele>393.0</ele><time>2026-04-04T10:56:21.999Z</time></trkpt><trkpt lat="45.84954900864549" lon="9.271855608385058"><ele>393.0</ele><time>2026-04-04T10:56:23.999Z</time></trkpt><trkpt lat="45.84958956041841" lon="9.27201894412701"><ele>393.00000000000006</ele><time>2026-04-04T10:56:25.999Z</time></trkpt><trkpt lat="45.84959914369004" lon="9.272111821864021"><ele>393.0</ele><time>2026-04-04T10:56:26.999Z</time></trkpt><trkpt lat="45.84961435484954" lon="9.272206461025691"><ele>393.0</ele><time>2026-04-04T10:56:27.999Z</time></trkpt><trkpt lat="45.84962881109964" lon="9.272312450904588"><ele>393.0</ele><time>2026-04-04T10:56:28.999Z</time></trkpt><trkpt lat="45.849644128411256" lon="9.272416795656651"><ele>393.0</ele><time>2026-04-04T10:56:29.999Z</time></trkpt><trkpt lat="45.84964746410231" lon="9.272525001044551"><ele>393.00000000000006</ele><time>2026-04-04T10:56:30.999Z</time></trkpt><trkpt lat="45.849650907673485" lon="9.272622205485135"><ele>393.0</ele><time>2026-04-04T10:56:32Z</time></trkpt><trkpt lat="45.84962901948026" lon="9.272748319732008"><ele>393.79999999999995</ele><time>2026-04-04T10:56:34Z</time></trkpt><trkpt lat="45.849597790183275" lon="9.272855379074738"><ele>394.6</ele><time>2026-04-04T10:56:36Z</time></trkpt><trkpt lat="45.84949497924726" lon="9.272928905426845"><ele>395.4</ele><time>2026-04-04T10:56:38Z</time></trkpt><trkpt lat="45.84940317347392" lon="9.27302069183077"><ele>396.20000000000005</ele><time>2026-04-04T10:56:40Z</time></trkpt><trkpt lat="45.84931908035197" lon="9.273112547896574"><ele>397.0</ele><time>2026-04-04T10:56:42Z</time></trkpt><trkpt lat="45.849146935781455" lon="9.273034192464841"><ele>397.40000000000003</ele><time>2026-04-04T10:56:45Z</time></trkpt><trkpt lat="45.84907541874084" lon="9.27296835823322"><ele>397.8</ele><time>2026-04-04T10:56:46Z</time></trkpt><trkpt lat="45.84900674096943" lon="9.27289496846237"><ele>398.2</ele><time>2026-04-04T10:56:47Z</time></trkpt><trkpt lat="45.84892212104398" lon="9.272825560099239"><ele>398.6</ele><time>2026-04-04T10:56:48Z</time></trkpt><trkpt lat="45.848828814916374" lon="9.272745870381112"><ele>399.0</ele><time>2026-04-04T10:56:49Z</time></trkpt><trkpt lat="45.848729476603346" lon="9.272684407234662"><ele>399.0</ele><time>2026-04-04T10:56:50Z</time></trkpt><trkpt lat="45.84862092179541" lon="9.272646261068088"><ele>399.0</ele><time>2026-04-04T10:56:51Z</time></trkpt><trkpt lat="45.84850767667691" lon="9.272631748145947"><ele>399.0</ele><time>2026-04-04T10:56:52Z</time></trkpt><trkpt lat="45.84839227592458" lon="9.272639713670925"><ele>399.0</ele><time>2026-04-04T10:56:53Z</time></trkpt><trkpt lat="45.84827448633794" lon="9.272648160068664"><ele>397.75</ele><time>2026-04-04T10:56:54Z</time></trkpt><trkpt lat="45.848151533130455" lon="9.272663643530326"><ele>396.5</ele><time>2026-04-04T10:56:55Z</time></trkpt><trkpt lat="45.84802395262154" lon="9.272675117039912"><ele>395.25</ele><time>2026-04-04T10:56:56Z</time></trkpt><trkpt lat="45.84790848564397" lon="9.27268305223229"><ele>394.0</ele><time>2026-04-04T10:56:57Z</time></trkpt><trkpt lat="45.84779012907914" lon="9.272688964520903"><ele>394.0</ele><time>2026-04-04T10:56:58Z</time></trkpt><trkpt lat="45.847673379532516" lon="9.272702133997262"><ele>394.0</ele><time>2026-04-04T10:56:59Z</time></trkpt><trkpt lat="45.847557575644885" lon="9.272720063253653"><ele>394.0</ele><time>2026-04-04T10:57:00Z</time></trkpt><trkpt lat="45.84743964035011" lon="9.272729558659082"><ele>394.0</ele><time>2026-04-04T10:57:01Z</time></trkpt><trkpt lat="45.84732077978878" lon="9.272739377091836"><ele>394.0</ele><time>2026-04-04T10:57:02Z</time></trkpt><trkpt lat="45.84720492760706" lon="9.272753235539499"><ele>394.0</ele><time>2026-04-04T10:57:03Z</time></trkpt><trkpt lat="45.847083039362424" lon="9.272763762935366"><ele>394.0</ele><time>2026-04-04T10:57:04Z</time></trkpt><trkpt lat="45.84696508086713" lon="9.272774857590042"><ele>394.0</ele><time>2026-04-04T10:57:05Z</time></trkpt><trkpt lat="45.84684499038507" lon="9.272783235684683"><ele>393.75</ele><time>2026-04-04T10:57:06Z</time></trkpt><trkpt lat="45.84672361974949" lon="9.272798727484869"><ele>393.5</ele><time>2026-04-04T10:57:07Z</time></trkpt><trkpt lat="45.846601311763195" lon="9.272812478133151"><ele>393.25</ele><time>2026-04-04T10:57:08Z</time></trkpt><trkpt lat="45.846484299250115" lon="9.27282240347048"><ele>393.0</ele><time>2026-04-04T10:57:09Z</time></trkpt><trkpt lat="45.846366607501906" lon="9.272833985311651"><ele>393.0</ele><time>2026-04-04T10:57:10Z</time></trkpt><trkpt lat="45.84624923883364" lon="9.27284370662414"><ele>393.0</ele><time>2026-04-04T10:57:11Z</time></trkpt><trkpt lat="45.84612749907048" lon="9.272853006619568"><ele>393.0</ele><time>2026-04-04T10:57:12Z</time></trkpt><trkpt lat="45.846007162089876" lon="9.272861444176689"><ele>393.0</ele><time>2026-04-04T10:57:13Z</time></trkpt><trkpt lat="45.84588760705582" lon="9.2728695630028"><ele>392.25</ele><time>2026-04-04T10:57:14Z</time></trkpt><trkpt lat="45.845767590363664" lon="9.272880396185554"><ele>391.5</ele><time>2026-04-04T10:57:15Z</time></trkpt><trkpt lat="45.84564945526264" lon="9.27289250678011"><ele>390.75</ele><time>2026-04-04T10:57:16Z</time></trkpt><trkpt lat="45.845528609889925" lon="9.272904500420761"><ele>390.0</ele><time>2026-04-04T10:57:17Z</time></trkpt><trkpt lat="45.84540845807262" lon="9.272917041380593"><ele>390.0</ele><time>2026-04-04T10:57:18Z</time></trkpt><trkpt lat="45.84528748527302" lon="9.272928325484358"><ele>390.0</ele><time>2026-04-04T10:57:19Z</time></trkpt><trkpt lat="45.84516567999582" lon="9.272937211889957"><ele>390.0</ele><time>2026-04-04T10:57:20Z</time></trkpt><trkpt lat="45.84504273872422" lon="9.272949023516095"><ele>390.0</ele><time>2026-04-04T10:57:21Z</time></trkpt><trkpt lat="45.84491872801055" lon="9.272961448249367"><ele>390.5</ele><time>2026-04-04T10:57:22Z</time></trkpt><trkpt lat="45.84479071488413" lon="9.272976909237519"><ele>391.0</ele><time>2026-04-04T10:57:23Z</time></trkpt><trkpt lat="45.84465922194746" lon="9.27299054770076"><ele>391.5</ele><time>2026-04-04T10:57:23.999Z</time></trkpt><trkpt lat="45.84453488004852" lon="9.273002908361075"><ele>392.0</ele><time>2026-04-04T10:57:24.999Z</time></trkpt><trkpt lat="45.84440821117132" lon="9.273014415334586"><ele>392.75</ele><time>2026-04-04T10:57:25.999Z</time></trkpt><trkpt lat="45.84427922805064" lon="9.273026663084133"><ele>393.5</ele><time>2026-04-04T10:57:26.999Z</time></trkpt><trkpt lat="45.844147664269485" lon="9.273035043976204"><ele>394.25</ele><time>2026-04-04T10:57:27.999Z</time></trkpt><trkpt lat="45.84401564434732" lon="9.27304354643884"><ele>395.0</ele><time>2026-04-04T10:57:28.999Z</time></trkpt><trkpt lat="45.84388800273546" lon="9.273055500873472"><ele>395.0</ele><time>2026-04-04T10:57:29.999Z</time></trkpt><trkpt lat="45.8437580904552" lon="9.2730673234613"><ele>395.0</ele><time>2026-04-04T10:57:30.999Z</time></trkpt><trkpt lat="45.843631922979654" lon="9.273078126925986"><ele>395.0</ele><time>2026-04-04T10:57:31.999Z</time></trkpt><trkpt lat="45.84350357260466" lon="9.273093219360176"><ele>395.0</ele><time>2026-04-04T10:57:32.999Z</time></trkpt><trkpt lat="45.84338037910917" lon="9.273107449378719"><ele>395.2</ele><time>2026-04-04T10:57:33.999Z</time></trkpt><trkpt lat="45.843258372066046" lon="9.273115126673707"><ele>395.4</ele><time>2026-04-04T10:57:34.999Z</time></trkpt><trkpt lat="45.843141692454225" lon="9.273125359404059"><ele>395.6</ele><time>2026-04-04T10:57:35.999Z</time></trkpt><trkpt lat="45.84303463360202" lon="9.273134088317603"><ele>395.8</ele><time>2026-04-04T10:57:36.999Z</time></trkpt><trkpt lat="45.84293598628192" lon="9.273139239472057"><ele>396.0</ele><time>2026-04-04T10:57:37.999Z</time></trkpt><trkpt lat="45.84284351265562" lon="9.273146988124042"><ele>396.0</ele><time>2026-04-04T10:57:38.999Z</time></trkpt><trkpt lat="45.842758728356564" lon="9.273154845815437"><ele>396.0</ele><time>2026-04-04T10:57:39.999Z</time></trkpt><trkpt lat="45.84267686667241" lon="9.273156863987335"><ele>396.0</ele><time>2026-04-04T10:57:40.999Z</time></trkpt><trkpt lat="45.84259435715909" lon="9.273143152567943"><ele>396.0</ele><time>2026-04-04T10:57:41.999Z</time></trkpt><trkpt lat="45.84250344199648" lon="9.273119362834256"><ele>396.0</ele><time>2026-04-04T10:57:42.999Z</time></trkpt><trkpt lat="45.84240326637163" lon="9.273150718282643"><ele>396.0</ele><time>2026-04-04T10:57:43.999Z</time></trkpt><trkpt lat="45.84229944372619" lon="9.27320118109678"><ele>395.8</ele><time>2026-04-04T10:57:44.999Z</time></trkpt><trkpt lat="45.84219189035644" lon="9.27321489867153"><ele>395.6</ele><time>2026-04-04T10:57:45.999Z</time></trkpt><trkpt lat="45.84208259532778" lon="9.273222633315617"><ele>395.4</ele><time>2026-04-04T10:57:46.999Z</time></trkpt><trkpt lat="45.841975477056415" lon="9.273231399532738"><ele>395.2</ele><time>2026-04-04T10:57:47.999Z</time></trkpt><trkpt lat="45.841867712658676" lon="9.273247922507752"><ele>395.0</ele><time>2026-04-04T10:57:48.999Z</time></trkpt><trkpt lat="45.841761225644476" lon="9.27326242033981"><ele>394.6</ele><time>2026-04-04T10:57:49.999Z</time></trkpt><trkpt lat="45.84165706869591" lon="9.273270814048852"><ele>394.2</ele><time>2026-04-04T10:57:50.999Z</time></trkpt><trkpt lat="45.84154592292847" lon="9.273275385505569"><ele>393.79999999999995</ele><time>2026-04-04T10:57:51.999Z</time></trkpt><trkpt lat="45.84143256363967" lon="9.273286348830409"><ele>393.4</ele><time>2026-04-04T10:57:52.999Z</time></trkpt><trkpt lat="45.84132262256161" lon="9.273295021049265"><ele>393.0</ele><time>2026-04-04T10:57:53.999Z</time></trkpt><trkpt lat="45.84121065826562" lon="9.273304501127246"><ele>393.0</ele><time>2026-04-04T10:57:54.999Z</time></trkpt><trkpt lat="45.84109991288048" lon="9.273307051647262"><ele>393.0</ele><time>2026-04-04T10:57:55.999Z</time></trkpt><trkpt lat="45.840981367909286" lon="9.273320189882762"><ele>393.0</ele><time>2026-04-04T10:57:56.999Z</time></trkpt><trkpt lat="45.840862511821214" lon="9.273330228412618"><ele>393.0</ele><time>2026-04-04T10:57:57.999Z</time></trkpt><trkpt lat="45.8407223762231" lon="9.273341534962734"><ele>391.25</ele><time>2026-04-04T10:57:58.999Z</time></trkpt><trkpt lat="45.84058055776031" lon="9.273357232493183"><ele>389.5</ele><time>2026-04-04T10:57:59.999Z</time></trkpt><trkpt lat="45.84043983430815" lon="9.273370677071572"><ele>387.75</ele><time>2026-04-04T10:58:00.999Z</time></trkpt><trkpt lat="45.840303866188776" lon="9.273386005792894"><ele>386.0</ele><time>2026-04-04T10:58:01.999Z</time></trkpt><trkpt lat="45.840156653579925" lon="9.273402070327217"><ele>385.3333333333333</ele><time>2026-04-04T10:58:02.999Z</time></trkpt><trkpt lat="45.84000321537194" lon="9.27342360473781"><ele>384.66666666666663</ele><time>2026-04-04T10:58:03.999Z</time></trkpt><trkpt lat="45.8398509324665" lon="9.273429248349753"><ele>384.0</ele><time>2026-04-04T10:58:04.999Z</time></trkpt><trkpt lat="45.83970186710143" lon="9.273437823327003"><ele>384.0</ele><time>2026-04-04T10:58:05.999Z</time></trkpt><trkpt lat="45.83954519670804" lon="9.27345351579947"><ele>384.0</ele><time>2026-04-04T10:58:06.999Z</time></trkpt><trkpt lat="45.839388257653674" lon="9.273466941161807"><ele>384.0</ele><time>2026-04-04T10:58:07.999Z</time></trkpt><trkpt lat="45.83922985688519" lon="9.273481555232866"><ele>383.0</ele><time>2026-04-04T10:58:08.999Z</time></trkpt><trkpt lat="45.83907254400254" lon="9.273495434375329"><ele>382.0</ele><time>2026-04-04T10:58:09.999Z</time></trkpt><trkpt lat="45.83892679636978" lon="9.27350863712389"><ele>381.0</ele><time>2026-04-04T10:58:10.999Z</time></trkpt><trkpt lat="45.83879696660387" lon="9.273526328396054"><ele>380.0</ele><time>2026-04-04T10:58:11.999Z</time></trkpt><trkpt lat="45.83867505183924" lon="9.273529959612938"><ele>380.0</ele><time>2026-04-04T10:58:12.999Z</time></trkpt><trkpt lat="45.83856001332439" lon="9.273533153862681"><ele>380.0</ele><time>2026-04-04T10:58:13.999Z</time></trkpt><trkpt lat="45.83845435630523" lon="9.273538576898892"><ele>380.0</ele><time>2026-04-04T10:58:14.999Z</time></trkpt><trkpt lat="45.83834424514953" lon="9.273552619432936"><ele>380.0</ele><time>2026-04-04T10:58:15.999Z</time></trkpt><trkpt lat="45.83822226865281" lon="9.273565896996748"><ele>380.25</ele><time>2026-04-04T10:58:16.999Z</time></trkpt><trkpt lat="45.83809515667401" lon="9.273566547458525"><ele>380.5</ele><time>2026-04-04T10:58:17.999Z</time></trkpt><trkpt lat="45.83796544009227" lon="9.273550583024207"><ele>380.75</ele><time>2026-04-04T10:58:18.999Z</time></trkpt><trkpt lat="45.83783926393373" lon="9.273509476462134"><ele>381.0</ele><time>2026-04-04T10:58:19.999Z</time></trkpt><trkpt lat="45.83771143098779" lon="9.273471035427898"><ele>382.75</ele><time>2026-04-04T10:58:20.999Z</time></trkpt><trkpt lat="45.8375847069893" lon="9.273418838230782"><ele>384.5</ele><time>2026-04-04T10:58:21.999Z</time></trkpt><trkpt lat="45.837458653957434" lon="9.273356070234398"><ele>386.25</ele><time>2026-04-04T10:58:22.999Z</time></trkpt><trkpt lat="45.8373324192251" lon="9.273286763395548"><ele>388.0</ele><time>2026-04-04T10:58:23.999Z</time></trkpt><trkpt lat="45.837207501389116" lon="9.27321598356574"><ele>388.0</ele><time>2026-04-04T10:58:24.999Z</time></trkpt><trkpt lat="45.83708636944037" lon="9.273130609953512"><ele>388.0</ele><time>2026-04-04T10:58:25.999Z</time></trkpt><trkpt lat="45.83696450324393" lon="9.273049650651545"><ele>388.0</ele><time>2026-04-04T10:58:26.999Z</time></trkpt><trkpt lat="45.83681460857389" lon="9.27298891755801"><ele>388.0</ele><time>2026-04-04T10:58:27.999Z</time></trkpt><trkpt lat="45.836676374566856" lon="9.272899268644174"><ele>393.6666666666667</ele><time>2026-04-04T10:58:28.999Z</time></trkpt><trkpt lat="45.83652840389475" lon="9.272805297203863"><ele>399.33333333333337</ele><time>2026-04-04T10:58:29.999Z</time></trkpt><trkpt lat="45.8363754900805" lon="9.272714626055148"><ele>405.0</ele><time>2026-04-04T10:58:30.999Z</time></trkpt><trkpt lat="45.83623043435732" lon="9.272620953100045"><ele>405.0</ele><time>2026-04-04T10:58:31.999Z</time></trkpt><trkpt lat="45.83608419091447" lon="9.272530435759213"><ele>405.0</ele><time>2026-04-04T10:58:32.999Z</time></trkpt><trkpt lat="45.83592695797789" lon="9.27245452266824"><ele>405.0</ele><time>2026-04-04T10:58:33.999Z</time></trkpt><trkpt lat="45.83578201570563" lon="9.272359522284745"><ele>400.33333333333337</ele><time>2026-04-04T10:58:34.999Z</time></trkpt><trkpt lat="45.835633208314164" lon="9.27227335507574"><ele>395.6666666666667</ele><time>2026-04-04T10:58:35.999Z</time></trkpt><trkpt lat="45.83548522192716" lon="9.272181856081943"><ele>391.0</ele><time>2026-04-04T10:58:36.999Z</time></trkpt><trkpt lat="45.83533558607083" lon="9.272089537442218"><ele>393.6666666666667</ele><time>2026-04-04T10:58:38Z</time></trkpt><trkpt lat="45.83518199967731" lon="9.27199623937895"><ele>396.33333333333337</ele><time>2026-04-04T10:58:39Z</time></trkpt><trkpt lat="45.835022234293824" lon="9.271900730586104"><ele>399.0</ele><time>2026-04-04T10:58:40Z</time></trkpt><trkpt lat="45.83487341669515" lon="9.271772740360857"><ele>399.0</ele><time>2026-04-04T10:58:41Z</time></trkpt><trkpt lat="45.83471723144067" lon="9.271645383553833"><ele>399.0</ele><time>2026-04-04T10:58:42Z</time></trkpt><trkpt lat="45.834560206877995" lon="9.2715160509812"><ele>399.0</ele><time>2026-04-04T10:58:43Z</time></trkpt><trkpt lat="45.83441435924277" lon="9.27135733795263"><ele>401.33333333333337</ele><time>2026-04-04T10:58:44Z</time></trkpt><trkpt lat="45.83426571685431" lon="9.271199819742359"><ele>403.6666666666667</ele><time>2026-04-04T10:58:45Z</time></trkpt><trkpt lat="45.8341123705952" lon="9.271029424539286"><ele>406.0</ele><time>2026-04-04T10:58:46Z</time></trkpt><trkpt lat="45.83396285759379" lon="9.270868046417046"><ele>406.0</ele><time>2026-04-04T10:58:47Z</time></trkpt><trkpt lat="45.83381041051418" lon="9.270706020602482"><ele>406.0</ele><time>2026-04-04T10:58:48Z</time></trkpt><trkpt lat="45.83366522948955" lon="9.270545887197303"><ele>406.0</ele><time>2026-04-04T10:58:49Z</time></trkpt><trkpt lat="45.83353822877091" lon="9.270368923840833"><ele>402.6666666666667</ele><time>2026-04-04T10:58:50Z</time></trkpt><trkpt lat="45.83340593302689" lon="9.270203093710487"><ele>399.33333333333337</ele><time>2026-04-04T10:58:51Z</time></trkpt><trkpt lat="45.83328616513692" lon="9.270035764022055"><ele>396.0</ele><time>2026-04-04T10:58:52Z</time></trkpt><trkpt lat="45.833172397873064" lon="9.269871087742585"><ele>405.66666666666663</ele><time>2026-04-04T10:58:53Z</time></trkpt><trkpt lat="45.833050523920136" lon="9.269713443962436"><ele>415.3333333333333</ele><time>2026-04-04T10:58:54Z</time></trkpt><trkpt lat="45.832942490415974" lon="9.269545728174382"><ele>425.0</ele><time>2026-04-04T10:58:55Z</time></trkpt><trkpt lat="45.83283199542566" lon="9.269372907234898"><ele>425.0</ele><time>2026-04-04T10:58:56Z</time></trkpt><trkpt lat="45.8327225442832" lon="9.269209301463693"><ele>425.0</ele><time>2026-04-04T10:58:57Z</time></trkpt><trkpt lat="45.832609835197026" lon="9.269038892851409"><ele>425.0</ele><time>2026-04-04T10:58:58Z</time></trkpt><trkpt lat="45.832500667941844" lon="9.2688722253229"><ele>420.0</ele><time>2026-04-04T10:58:59Z</time></trkpt><trkpt lat="45.832387346050304" lon="9.268705489950147"><ele>415.0</ele><time>2026-04-04T10:59:00Z</time></trkpt><trkpt lat="45.83227655111229" lon="9.268542379093846"><ele>410.0</ele><time>2026-04-04T10:59:01Z</time></trkpt><trkpt lat="45.83215873522174" lon="9.268378900304125"><ele>410.0</ele><time>2026-04-04T10:59:02Z</time></trkpt><trkpt lat="45.83204373993521" lon="9.268212470361355"><ele>410.0</ele><time>2026-04-04T10:59:03Z</time></trkpt><trkpt lat="45.83193099837234" lon="9.268049179356364"><ele>410.0</ele><time>2026-04-04T10:59:04Z</time></trkpt><trkpt lat="45.83181509438288" lon="9.267875939538705"><ele>403.66666666666663</ele><time>2026-04-04T10:59:05Z</time></trkpt><trkpt lat="45.83169590522516" lon="9.267710629303284"><ele>397.33333333333337</ele><time>2026-04-04T10:59:06Z</time></trkpt><trkpt lat="45.83158298179443" lon="9.267545925786465"><ele>391.0</ele><time>2026-04-04T10:59:07Z</time></trkpt><trkpt lat="45.83146411363548" lon="9.267384042169864"><ele>399.6666666666667</ele><time>2026-04-04T10:59:08Z</time></trkpt><trkpt lat="45.83136478844613" lon="9.267224810810642"><ele>408.33333333333337</ele><time>2026-04-04T10:59:09Z</time></trkpt><trkpt lat="45.83125615150442" lon="9.267074116609612"><ele>417.0</ele><time>2026-04-04T10:59:10Z</time></trkpt><trkpt lat="45.83115032561055" lon="9.266918113753242"><ele>417.0</ele><time>2026-04-04T10:59:11Z</time></trkpt><trkpt lat="45.83107116880086" lon="9.266776907280107"><ele>417.0</ele><time>2026-04-04T10:59:12Z</time></trkpt><trkpt lat="45.830994042673865" lon="9.26665361173231"><ele>417.0</ele><time>2026-04-04T10:59:13Z</time></trkpt><trkpt lat="45.830930307149444" lon="9.266541816091703"><ele>417.0</ele><time>2026-04-04T10:59:14Z</time></trkpt><trkpt lat="45.83087201306235" lon="9.266428439583844"><ele>417.0</ele><time>2026-04-04T10:59:15Z</time></trkpt><trkpt lat="45.83082135373481" lon="9.266328803730435"><ele>414.1666666666667</ele><time>2026-04-04T10:59:16Z</time></trkpt><trkpt lat="45.83078345366627" lon="9.266247007613607"><ele>411.33333333333337</ele><time>2026-04-04T10:59:17Z</time></trkpt><trkpt lat="45.83074724706014" lon="9.266170596288342"><ele>408.5</ele><time>2026-04-04T10:59:18Z</time></trkpt><trkpt lat="45.83070158924789" lon="9.266082442683173"><ele>405.6666666666667</ele><time>2026-04-04T10:59:19Z</time></trkpt><trkpt lat="45.830642404582754" lon="9.265975075983528"><ele>402.83333333333337</ele><time>2026-04-04T10:59:20Z</time></trkpt><trkpt lat="45.8305853089688" lon="9.265837684557095"><ele>400.0</ele><time>2026-04-04T10:59:21Z</time></trkpt><trkpt lat="45.8305199182172" lon="9.265707580493535"><ele>407.25</ele><time>2026-04-04T10:59:22Z</time></trkpt><trkpt lat="45.830453433412956" lon="9.265566498895339"><ele>414.5</ele><time>2026-04-04T10:59:23Z</time></trkpt><trkpt lat="45.83038362758934" lon="9.265416185231079"><ele>421.75</ele><time>2026-04-04T10:59:24Z</time></trkpt><trkpt lat="45.830307864656504" lon="9.265251862606197"><ele>429.0</ele><time>2026-04-04T10:59:25Z</time></trkpt><trkpt lat="45.83022926729486" lon="9.265090468692419"><ele>429.0</ele><time>2026-04-04T10:59:26Z</time></trkpt><trkpt lat="45.83014283226308" lon="9.264919428506799"><ele>429.0</ele><time>2026-04-04T10:59:27Z</time></trkpt><trkpt lat="45.830059714476086" lon="9.264750803031156"><ele>429.0</ele><time>2026-04-04T10:59:27.999Z</time></trkpt><trkpt lat="45.82997184908178" lon="9.2645716914953"><ele>429.0</ele><time>2026-04-04T10:59:28.999Z</time></trkpt><trkpt lat="45.82988398323008" lon="9.264380817416479"><ele>429.0</ele><time>2026-04-04T10:59:29.999Z</time></trkpt><trkpt lat="45.82978679589865" lon="9.26420015028458"><ele>429.0</ele><time>2026-04-04T10:59:30.999Z</time></trkpt><trkpt lat="45.82969519314283" lon="9.264021312299581"><ele>429.0</ele><time>2026-04-04T10:59:31.999Z</time></trkpt><trkpt lat="45.82959458813522" lon="9.263850137503546"><ele>429.0</ele><time>2026-04-04T10:59:32.999Z</time></trkpt><trkpt lat="45.829495668807404" lon="9.263697088499894"><ele>429.0</ele><time>2026-04-04T10:59:33.999Z</time></trkpt><trkpt lat="45.82938226900808" lon="9.263545935518383"><ele>429.0</ele><time>2026-04-04T10:59:34.999Z</time></trkpt><trkpt lat="45.82925620874129" lon="9.263396133569403"><ele>423.33333333333337</ele><time>2026-04-04T10:59:35.999Z</time></trkpt><trkpt lat="45.82913516007291" lon="9.263263931072892"><ele>417.6666666666667</ele><time>2026-04-04T10:59:36.999Z</time></trkpt><trkpt lat="45.82901976345761" lon="9.263134485543379"><ele>412.0</ele><time>2026-04-04T10:59:37.999Z</time></trkpt><trkpt lat="45.828897102768025" lon="9.262998959123196"><ele>412.0</ele><time>2026-04-04T10:59:38.999Z</time></trkpt><trkpt lat="45.82878284474228" lon="9.262861598945399"><ele>412.0</ele><time>2026-04-04T10:59:39.999Z</time></trkpt><trkpt lat="45.828658980553776" lon="9.262715365369518"><ele>412.0</ele><time>2026-04-04T10:59:40.999Z</time></trkpt><trkpt lat="45.828542578493995" lon="9.262587409295246"><ele>415.0</ele><time>2026-04-04T10:59:41.999Z</time></trkpt><trkpt lat="45.82841652647504" lon="9.262469618068343"><ele>418.0</ele><time>2026-04-04T10:59:42.999Z</time></trkpt><trkpt lat="45.82828000571981" lon="9.262381855599854"><ele>421.0</ele><time>2026-04-04T10:59:43.999Z</time></trkpt><trkpt lat="45.828156532659165" lon="9.262317697320011"><ele>424.0</ele><time>2026-04-04T10:59:44.999Z</time></trkpt><trkpt lat="45.82803368444806" lon="9.262272908067057"><ele>424.0</ele><time>2026-04-04T10:59:45.999Z</time></trkpt><trkpt lat="45.827924520755076" lon="9.26222114457858"><ele>424.0</ele><time>2026-04-04T10:59:46.999Z</time></trkpt><trkpt lat="45.82780336551927" lon="9.262194708602214"><ele>424.0</ele><time>2026-04-04T10:59:47.999Z</time></trkpt><trkpt lat="45.82769035947123" lon="9.262166961145518"><ele>424.0</ele><time>2026-04-04T10:59:48.999Z</time></trkpt><trkpt lat="45.827581202442325" lon="9.262142822223172"><ele>420.25</ele><time>2026-04-04T10:59:49.999Z</time></trkpt><trkpt lat="45.82747244792469" lon="9.262113244623867"><ele>416.5</ele><time>2026-04-04T10:59:50.999Z</time></trkpt><trkpt lat="45.82735469878631" lon="9.262084708578476"><ele>412.75</ele><time>2026-04-04T10:59:51.999Z</time></trkpt><trkpt lat="45.82722910510482" lon="9.26205134052896"><ele>409.0</ele><time>2026-04-04T10:59:52.999Z</time></trkpt><trkpt lat="45.82709934608644" lon="9.262016411479806"><ele>409.0</ele><time>2026-04-04T10:59:53.999Z</time></trkpt><trkpt lat="45.8269682862759" lon="9.261977782981887"><ele>409.0</ele><time>2026-04-04T10:59:54.999Z</time></trkpt><trkpt lat="45.826832411162556" lon="9.261935191735096"><ele>409.0</ele><time>2026-04-04T10:59:55.999Z</time></trkpt><trkpt lat="45.82669601784042" lon="9.26188555394185"><ele>409.0</ele><time>2026-04-04T10:59:56.999Z</time></trkpt><trkpt lat="45.82656074422176" lon="9.261815205798253"><ele>404.75</ele><time>2026-04-04T10:59:57.999Z</time></trkpt><trkpt lat="45.82642632086769" lon="9.261725645096435"><ele>400.5</ele><time>2026-04-04T10:59:58.999Z</time></trkpt><trkpt lat="45.826293279584824" lon="9.261628140601816"><ele>396.25</ele><time>2026-04-04T10:59:59.999Z</time></trkpt><trkpt lat="45.826161092082984" lon="9.261540399842975"><ele>392.0</ele><time>2026-04-04T11:00:00.999Z</time></trkpt><trkpt lat="45.82603087188195" lon="9.261452915570546"><ele>395.3333333333333</ele><time>2026-04-04T11:00:01.999Z</time></trkpt><trkpt lat="45.82589801157893" lon="9.261362392132101"><ele>398.66666666666663</ele><time>2026-04-04T11:00:02.999Z</time></trkpt><trkpt lat="45.8257585421711" lon="9.261269085202658"><ele>402.0</ele><time>2026-04-04T11:00:03.999Z</time></trkpt><trkpt lat="45.82561834375897" lon="9.261171886148134"><ele>402.0</ele><time>2026-04-04T11:00:04.999Z</time></trkpt><trkpt lat="45.82548481391683" lon="9.261078013346298"><ele>402.0</ele><time>2026-04-04T11:00:05.999Z</time></trkpt><trkpt lat="45.82534795024947" lon="9.260987065361196"><ele>402.0</ele><time>2026-04-04T11:00:06.999Z</time></trkpt><trkpt lat="45.82521130177588" lon="9.260900677765498"><ele>402.0</ele><time>2026-04-04T11:00:07.999Z</time></trkpt><trkpt lat="45.82507770548376" lon="9.26081343935814"><ele>403.0</ele><time>2026-04-04T11:00:08.999Z</time></trkpt><trkpt lat="45.82494592261457" lon="9.26072902506468"><ele>404.0</ele><time>2026-04-04T11:00:09.999Z</time></trkpt><trkpt lat="45.824822690846794" lon="9.260643148142645"><ele>405.0</ele><time>2026-04-04T11:00:10.999Z</time></trkpt><trkpt lat="45.8247085934614" lon="9.2605581373124"><ele>406.0</ele><time>2026-04-04T11:00:11.999Z</time></trkpt><trkpt lat="45.82459911229682" lon="9.26047306814673"><ele>406.0</ele><time>2026-04-04T11:00:12.999Z</time></trkpt><trkpt lat="45.824499892197316" lon="9.26037263251454"><ele>406.0</ele><time>2026-04-04T11:00:13.999Z</time></trkpt><trkpt lat="45.82440235537048" lon="9.260257716923665"><ele>406.0</ele><time>2026-04-04T11:00:14.999Z</time></trkpt><trkpt lat="45.82430563313582" lon="9.260135738483006"><ele>406.0</ele><time>2026-04-04T11:00:15.999Z</time></trkpt><trkpt lat="45.824211706015944" lon="9.260024151968372"><ele>405.50000000000006</ele><time>2026-04-04T11:00:16.999Z</time></trkpt><trkpt lat="45.82413201610845" lon="9.25993118182294"><ele>405.0</ele><time>2026-04-04T11:00:17.999Z</time></trkpt><trkpt lat="45.824061241866595" lon="9.259852970577622"><ele>404.5</ele><time>2026-04-04T11:00:18.999Z</time></trkpt><trkpt lat="45.82399917344162" lon="9.259792131083998"><ele>404.0</ele><time>2026-04-04T11:00:19.999Z</time></trkpt><trkpt lat="45.823936183609774" lon="9.259731762648894"><ele>403.50000000000006</ele><time>2026-04-04T11:00:20.999Z</time></trkpt><trkpt lat="45.82387368030506" lon="9.259654509252673"><ele>403.0</ele><time>2026-04-04T11:00:21.999Z</time></trkpt><trkpt lat="45.82381964501388" lon="9.259553057265853"><ele>403.00000000000006</ele><time>2026-04-04T11:00:22.999Z</time></trkpt><trkpt lat="45.8237746236064" lon="9.259453818141889"><ele>403.0</ele><time>2026-04-04T11:00:23.999Z</time></trkpt><trkpt lat="45.82371433987969" lon="9.259397980501518"><ele>403.0</ele><time>2026-04-04T11:00:24.999Z</time></trkpt><trkpt lat="45.82363529481684" lon="9.25940284442274"><ele>403.0</ele><time>2026-04-04T11:00:25.999Z</time></trkpt><trkpt lat="45.82358143307668" lon="9.259473005793053"><ele>403.00000000000006</ele><time>2026-04-04T11:00:26.999Z</time></trkpt><trkpt lat="45.82356305985774" lon="9.259587609060057"><ele>403.0</ele><time>2026-04-04T11:00:27.999Z</time></trkpt><trkpt lat="45.82358166969064" lon="9.259734974445728"><ele>399.5</ele><time>2026-04-04T11:00:28.999Z</time></trkpt><trkpt lat="45.82362995413015" lon="9.259895604575792"><ele>396.0</ele><time>2026-04-04T11:00:29.999Z</time></trkpt><trkpt lat="45.82366978806556" lon="9.260055400836897"><ele>392.5</ele><time>2026-04-04T11:00:30.999Z</time></trkpt><trkpt lat="45.82370729985493" lon="9.260203700302158"><ele>389.0</ele><time>2026-04-04T11:00:31.999Z</time></trkpt><trkpt lat="45.823750568023975" lon="9.260351387781505"><ele>389.0</ele><time>2026-04-04T11:00:32.999Z</time></trkpt><trkpt lat="45.823775069263135" lon="9.260508346784516"><ele>389.0</ele><time>2026-04-04T11:00:33.999Z</time></trkpt><trkpt lat="45.82376421668921" lon="9.260676477529376"><ele>389.0</ele><time>2026-04-04T11:00:34.999Z</time></trkpt><trkpt lat="45.82371654089961" lon="9.26086383763"><ele>389.0</ele><time>2026-04-04T11:00:35.999Z</time></trkpt><trkpt lat="45.82366071985391" lon="9.261038733764764"><ele>387.75</ele><time>2026-04-04T11:00:36.999Z</time></trkpt><trkpt lat="45.82361253392963" lon="9.261225645564929"><ele>386.5</ele><time>2026-04-04T11:00:37.999Z</time></trkpt><trkpt lat="45.823564225713895" lon="9.261424610664962"><ele>385.25</ele><time>2026-04-04T11:00:38.999Z</time></trkpt><trkpt lat="45.8235162669977" lon="9.261632841500843"><ele>384.0</ele><time>2026-04-04T11:00:39.999Z</time></trkpt><trkpt lat="45.82346779029187" lon="9.261841233657574"><ele>385.0</ele><time>2026-04-04T11:00:40.999Z</time></trkpt><trkpt lat="45.823417595528376" lon="9.262053734748754"><ele>386.0</ele><time>2026-04-04T11:00:41.999Z</time></trkpt><trkpt lat="45.823365727659876" lon="9.262264840864777"><ele>387.0</ele><time>2026-04-04T11:00:42.999Z</time></trkpt><trkpt lat="45.82331120276276" lon="9.262481954310646"><ele>387.0</ele><time>2026-04-04T11:00:44Z</time></trkpt><trkpt lat="45.823256268778565" lon="9.26269337440196"><ele>387.0</ele><time>2026-04-04T11:00:45Z</time></trkpt><trkpt lat="45.82320348057475" lon="9.262912623768482"><ele>387.0</ele><time>2026-04-04T11:00:46Z</time></trkpt><trkpt lat="45.82314616268803" lon="9.263127732128416"><ele>386.33333333333337</ele><time>2026-04-04T11:00:47Z</time></trkpt><trkpt lat="45.82309897236422" lon="9.263342833202618"><ele>385.6666666666667</ele><time>2026-04-04T11:00:48Z</time></trkpt><trkpt lat="45.82304613355426" lon="9.26355769346384"><ele>385.0</ele><time>2026-04-04T11:00:49Z</time></trkpt><trkpt lat="45.8229939289459" lon="9.263776399793038"><ele>383.33333333333337</ele><time>2026-04-04T11:00:50Z</time></trkpt><trkpt lat="45.822919223616346" lon="9.263981770729698"><ele>381.6666666666667</ele><time>2026-04-04T11:00:51Z</time></trkpt><trkpt lat="45.82282935180712" lon="9.264181501861325"><ele>380.0</ele><time>2026-04-04T11:00:52Z</time></trkpt><trkpt lat="45.82270917599276" lon="9.264342896396888"><ele>380.6666666666667</ele><time>2026-04-04T11:00:53Z</time></trkpt><trkpt lat="45.82255683541453" lon="9.264471315499724"><ele>381.3333333333333</ele><time>2026-04-04T11:00:54Z</time></trkpt><trkpt lat="45.82238109783792" lon="9.264553485511788"><ele>382.0</ele><time>2026-04-04T11:00:55Z</time></trkpt><trkpt lat="45.822181912685444" lon="9.264584404703118"><ele>382.0</ele><time>2026-04-04T11:00:56Z</time></trkpt><trkpt lat="45.821983407209764" lon="9.264609557192196"><ele>382.0</ele><time>2026-04-04T11:00:57Z</time></trkpt><trkpt lat="45.821798580403104" lon="9.264600150742533"><ele>382.0</ele><time>2026-04-04T11:00:58Z</time></trkpt><trkpt lat="45.82163635417521" lon="9.264601339328413"><ele>381.3333333333333</ele><time>2026-04-04T11:00:59Z</time></trkpt><trkpt lat="45.82148295470129" lon="9.26460957908273"><ele>380.6666666666667</ele><time>2026-04-04T11:01:00Z</time></trkpt><trkpt lat="45.82132989898279" lon="9.264623501577939"><ele>380.0</ele><time>2026-04-04T11:01:01Z</time></trkpt><trkpt lat="45.821184617307956" lon="9.264649472932442"><ele>380.0</ele><time>2026-04-04T11:01:02Z</time></trkpt><trkpt lat="45.82104547205437" lon="9.264709964196923"><ele>380.0</ele><time>2026-04-04T11:01:03Z</time></trkpt><trkpt lat="45.82092304531521" lon="9.2648134240437"><ele>380.0</ele><time>2026-04-04T11:01:04Z</time></trkpt><trkpt lat="45.820822262761496" lon="9.264959398759055"><ele>380.0</ele><time>2026-04-04T11:01:05Z</time></trkpt><trkpt lat="45.82074501453784" lon="9.265152039071756"><ele>379.75</ele><time>2026-04-04T11:01:06Z</time></trkpt><trkpt lat="45.82070050499234" lon="9.265357224006888"><ele>379.5</ele><time>2026-04-04T11:01:07Z</time></trkpt><trkpt lat="45.820670322018564" lon="9.265570640333285"><ele>379.25</ele><time>2026-04-04T11:01:08Z</time></trkpt><trkpt lat="45.820651980730815" lon="9.265741150662018"><ele>379.0</ele><time>2026-04-04T11:01:09Z</time></trkpt><trkpt lat="45.82062816444689" lon="9.265878355152699"><ele>378.8333333333333</ele><time>2026-04-04T11:01:10Z</time></trkpt><trkpt lat="45.820584889596404" lon="9.26598138872418"><ele>378.66666666666663</ele><time>2026-04-04T11:01:11Z</time></trkpt><trkpt lat="45.820515393868256" lon="9.266054557558611"><ele>378.5</ele><time>2026-04-04T11:01:12Z</time></trkpt><trkpt lat="45.82043910403089" lon="9.266090647960533"><ele>378.3333333333333</ele><time>2026-04-04T11:01:13Z</time></trkpt><trkpt lat="45.820382564752315" lon="9.266160431367862"><ele>378.1666666666667</ele><time>2026-04-04T11:01:14Z</time></trkpt><trkpt lat="45.820332673158745" lon="9.266269153247492"><ele>378.0</ele><time>2026-04-04T11:01:15Z</time></trkpt><trkpt lat="45.82028443071737" lon="9.266399188257786"><ele>378.0</ele><time>2026-04-04T11:01:16Z</time></trkpt><trkpt lat="45.820206771281256" lon="9.266526832695451"><ele>378.0</ele><time>2026-04-04T11:01:17Z</time></trkpt><trkpt lat="45.820088023467946" lon="9.266646369932895"><ele>378.0</ele><time>2026-04-04T11:01:18Z</time></trkpt><trkpt lat="45.81996243231076" lon="9.26676366137511"><ele>378.0</ele><time>2026-04-04T11:01:19Z</time></trkpt><trkpt lat="45.819829058076024" lon="9.266898709977175"><ele>378.0</ele><time>2026-04-04T11:01:20Z</time></trkpt><trkpt lat="45.81969122800127" lon="9.26704190812875"><ele>378.0</ele><time>2026-04-04T11:01:21Z</time></trkpt><trkpt lat="45.81954695182138" lon="9.26718921256031"><ele>378.0</ele><time>2026-04-04T11:01:22Z</time></trkpt><trkpt lat="45.819407440935045" lon="9.267331783543147"><ele>378.3333333333333</ele><time>2026-04-04T11:01:23Z</time></trkpt><trkpt lat="45.81927204346788" lon="9.267475357141713"><ele>378.66666666666663</ele><time>2026-04-04T11:01:24Z</time></trkpt><trkpt lat="45.8191385603101" lon="9.267618448687688"><ele>379.0</ele><time>2026-04-04T11:01:25Z</time></trkpt><trkpt lat="45.819002079956235" lon="9.267755886608978"><ele>379.0</ele><time>2026-04-04T11:01:26Z</time></trkpt><trkpt lat="45.81886361320132" lon="9.267893846539108"><ele>379.0</ele><time>2026-04-04T11:01:27Z</time></trkpt><trkpt lat="45.81872976169779" lon="9.268033540151212"><ele>379.0</ele><time>2026-04-04T11:01:28Z</time></trkpt><trkpt lat="45.81860122492172" lon="9.268169392742937"><ele>381.66666666666663</ele><time>2026-04-04T11:01:29Z</time></trkpt><trkpt lat="45.81846985291263" lon="9.268306433376091"><ele>384.3333333333333</ele><time>2026-04-04T11:01:30Z</time></trkpt><trkpt lat="45.81834052280243" lon="9.268441843725064"><ele>387.0</ele><time>2026-04-04T11:01:31Z</time></trkpt><trkpt lat="45.81819818915351" lon="9.26857404624802"><ele>387.0</ele><time>2026-04-04T11:01:31.999Z</time></trkpt><trkpt lat="45.81807631984249" lon="9.268720878255104"><ele>387.0</ele><time>2026-04-04T11:01:32.999Z</time></trkpt><trkpt lat="45.817960029494806" lon="9.268885278165238"><ele>387.0</ele><time>2026-04-04T11:01:33.999Z</time></trkpt><trkpt lat="45.81785365417407" lon="9.269068996914656"><ele>388.0</ele><time>2026-04-04T11:01:34.999Z</time></trkpt><trkpt lat="45.81776584784965" lon="9.269278125943233"><ele>389.0</ele><time>2026-04-04T11:01:35.999Z</time></trkpt><trkpt lat="45.81769023967785" lon="9.269518865550221"><ele>390.0</ele><time>2026-04-04T11:01:36.999Z</time></trkpt><trkpt lat="45.81763380239575" lon="9.269755437941106"><ele>385.0</ele><time>2026-04-04T11:01:37.999Z</time></trkpt><trkpt lat="45.81759559743697" lon="9.270001080484391"><ele>380.0</ele><time>2026-04-04T11:01:38.999Z</time></trkpt><trkpt lat="45.81755168393333" lon="9.270239973924728"><ele>375.0</ele><time>2026-04-04T11:01:39.999Z</time></trkpt><trkpt lat="45.81749742339416" lon="9.27048224607446"><ele>376.3333333333333</ele><time>2026-04-04T11:01:40.999Z</time></trkpt><trkpt lat="45.81744270919801" lon="9.270736251434183"><ele>377.66666666666663</ele><time>2026-04-04T11:01:41.999Z</time></trkpt><trkpt lat="45.81738976873322" lon="9.270991775079192"><ele>379.0</ele><time>2026-04-04T11:01:42.999Z</time></trkpt><trkpt lat="45.81733348140179" lon="9.271259679688454"><ele>380.66666666666663</ele><time>2026-04-04T11:01:43.999Z</time></trkpt><trkpt lat="45.817276694388205" lon="9.271535197356332"><ele>382.3333333333333</ele><time>2026-04-04T11:01:44.999Z</time></trkpt><trkpt lat="45.81721798412903" lon="9.271813014867307"><ele>384.0</ele><time>2026-04-04T11:01:45.999Z</time></trkpt><trkpt lat="45.817168939866875" lon="9.272082290917961"><ele>385.66666666666663</ele><time>2026-04-04T11:01:46.999Z</time></trkpt><trkpt lat="45.817115443031724" lon="9.272337375052176"><ele>387.3333333333333</ele><time>2026-04-04T11:01:47.999Z</time></trkpt><trkpt lat="45.81705872057117" lon="9.272574506970745"><ele>389.0</ele><time>2026-04-04T11:01:48.999Z</time></trkpt><trkpt lat="45.81700502153281" lon="9.272806774495583"><ele>389.0</ele><time>2026-04-04T11:01:49.999Z</time></trkpt><trkpt lat="45.81695824088648" lon="9.273031848975883"><ele>389.0</ele><time>2026-04-04T11:01:50.999Z</time></trkpt><trkpt lat="45.81691242573754" lon="9.2732524187556"><ele>389.0</ele><time>2026-04-04T11:01:51.999Z</time></trkpt><trkpt lat="45.81686713869409" lon="9.273462241663285"><ele>390.0</ele><time>2026-04-04T11:01:52.999Z</time></trkpt><trkpt lat="45.81683178321828" lon="9.27364582425558"><ele>391.0</ele><time>2026-04-04T11:01:53.999Z</time></trkpt><trkpt lat="45.81679350983222" lon="9.273823228870503"><ele>392.0</ele><time>2026-04-04T11:01:54.999Z</time></trkpt><trkpt lat="45.81675430029312" lon="9.273977472017052"><ele>393.0</ele><time>2026-04-04T11:01:55.999Z</time></trkpt><trkpt lat="45.81673383499723" lon="9.274118362413322"><ele>393.0</ele><time>2026-04-04T11:01:56.999Z</time></trkpt><trkpt lat="45.81673978276833" lon="9.274253581485814"><ele>393.0</ele><time>2026-04-04T11:01:57.999Z</time></trkpt><trkpt lat="45.816768737080714" lon="9.274371792441269"><ele>393.0</ele><time>2026-04-04T11:01:58.999Z</time></trkpt><trkpt lat="45.81680516711911" lon="9.274484965015999"><ele>393.0</ele><time>2026-04-04T11:01:59.999Z</time></trkpt><trkpt lat="45.81685081942508" lon="9.274583868226769"><ele>393.0</ele><time>2026-04-04T11:02:00.999Z</time></trkpt><trkpt lat="45.81689315157847" lon="9.274695854601328"><ele>393.0</ele><time>2026-04-04T11:02:01.999Z</time></trkpt><trkpt lat="45.816926029607316" lon="9.274807490526014"><ele>391.6666666666667</ele><time>2026-04-04T11:02:02.999Z</time></trkpt><trkpt lat="45.81693879886184" lon="9.274923379988326"><ele>390.33333333333337</ele><time>2026-04-04T11:02:03.999Z</time></trkpt><trkpt lat="45.81690006596452" lon="9.275028940699293"><ele>389.0</ele><time>2026-04-04T11:02:04.999Z</time></trkpt><trkpt lat="45.816820983184414" lon="9.275068953332715"><ele>387.6666666666667</ele><time>2026-04-04T11:02:05.999Z</time></trkpt><trkpt lat="45.81673249230566" lon="9.275032641146995"><ele>386.33333333333337</ele><time>2026-04-04T11:02:06.999Z</time></trkpt><trkpt lat="45.81668120443789" lon="9.274931212989403"><ele>385.0</ele><time>2026-04-04T11:02:07.999Z</time></trkpt><trkpt lat="45.81665504236836" lon="9.274791026293991"><ele>378.5</ele><time>2026-04-04T11:02:08.999Z</time></trkpt><trkpt lat="45.81661455615332" lon="9.274640172801151"><ele>372.0</ele><time>2026-04-04T11:02:09.999Z</time></trkpt><trkpt lat="45.81656341969447" lon="9.274482631362039"><ele>365.5</ele><time>2026-04-04T11:02:10.999Z</time></trkpt><trkpt lat="45.81653115378623" lon="9.274311678121196"><ele>359.0</ele><time>2026-04-04T11:02:11.999Z</time></trkpt><trkpt lat="45.81652364364637" lon="9.274136008264131"><ele>359.0</ele><time>2026-04-04T11:02:12.999Z</time></trkpt><trkpt lat="45.816535226077825" lon="9.273959978925793"><ele>359.0</ele><time>2026-04-04T11:02:13.999Z</time></trkpt><trkpt lat="45.816560884995106" lon="9.27380208685829"><ele>359.0</ele><time>2026-04-04T11:02:14.999Z</time></trkpt><trkpt lat="45.81659239456326" lon="9.273656327135013"><ele>359.0</ele><time>2026-04-04T11:02:15.999Z</time></trkpt><trkpt lat="45.8166208128788" lon="9.273493579083619"><ele>359.25</ele><time>2026-04-04T11:02:16.999Z</time></trkpt><trkpt lat="45.81663971093809" lon="9.273311423075265"><ele>359.5</ele><time>2026-04-04T11:02:17.999Z</time></trkpt><trkpt lat="45.81665850553045" lon="9.273116893591563"><ele>359.75</ele><time>2026-04-04T11:02:18.999Z</time></trkpt><trkpt lat="45.81668285726788" lon="9.272925005360282"><ele>360.0</ele><time>2026-04-04T11:02:19.999Z</time></trkpt><trkpt lat="45.816694907544594" lon="9.272742898789755"><ele>358.0</ele><time>2026-04-04T11:02:20.999Z</time></trkpt><trkpt lat="45.81669742796065" lon="9.272547024930297"><ele>356.0</ele><time>2026-04-04T11:02:21.999Z</time></trkpt><trkpt lat="45.81669487446717" lon="9.272336067369634"><ele>354.0</ele><time>2026-04-04T11:02:22.999Z</time></trkpt><trkpt lat="45.81668100236951" lon="9.27208459586724"><ele>353.0</ele><time>2026-04-04T11:02:23.998Z</time></trkpt><trkpt lat="45.81671038036765" lon="9.271801659118946"><ele>352.0</ele><time>2026-04-04T11:02:24.998Z</time></trkpt><trkpt lat="45.81671539585759" lon="9.271497871568624"><ele>351.0</ele><time>2026-04-04T11:02:25.998Z</time></trkpt><trkpt lat="45.816708027024546" lon="9.271191507363158"><ele>351.0</ele><time>2026-04-04T11:02:26.998Z</time></trkpt><trkpt lat="45.816724295496364" lon="9.270920376026881"><ele>351.0</ele><time>2026-04-04T11:02:27.998Z</time></trkpt><trkpt lat="45.81672883548472" lon="9.270671829928807"><ele>351.0</ele><time>2026-04-04T11:02:28.998Z</time></trkpt><trkpt lat="45.81672853688019" lon="9.270446298792127"><ele>350.5</ele><time>2026-04-04T11:02:29.998Z</time></trkpt><trkpt lat="45.81673147403342" lon="9.2702420319499"><ele>350.0</ele><time>2026-04-04T11:02:30.998Z</time></trkpt><trkpt lat="45.816737640914106" lon="9.270069380451678"><ele>349.5</ele><time>2026-04-04T11:02:31.998Z</time></trkpt><trkpt lat="45.81674217503343" lon="9.269915765193648"><ele>349.0</ele><time>2026-04-04T11:02:32.998Z</time></trkpt><trkpt lat="45.81674708530027" lon="9.269789356864514"><ele>349.16666666666663</ele><time>2026-04-04T11:02:33.998Z</time></trkpt><trkpt lat="45.81674348345116" lon="9.269676210825978"><ele>349.3333333333333</ele><time>2026-04-04T11:02:34.998Z</time></trkpt><trkpt lat="45.81671560881671" lon="9.269577188875868"><ele>349.5</ele><time>2026-04-04T11:02:35.998Z</time></trkpt><trkpt lat="45.81664681694135" lon="9.269511250288716"><ele>349.6666666666667</ele><time>2026-04-04T11:02:36.998Z</time></trkpt><trkpt lat="45.81655818788309" lon="9.269490233937796"><ele>349.83333333333337</ele><time>2026-04-04T11:02:37.998Z</time></trkpt><trkpt lat="45.81646810146344" lon="9.269524167252154"><ele>350.0</ele><time>2026-04-04T11:02:38.998Z</time></trkpt><trkpt lat="45.81640243387375" lon="9.269641263770781"><ele>349.75</ele><time>2026-04-04T11:02:39.998Z</time></trkpt><trkpt lat="45.81636865994001" lon="9.269786082385863"><ele>349.5</ele><time>2026-04-04T11:02:40.998Z</time></trkpt><trkpt lat="45.81636599454435" lon="9.269946113384503"><ele>349.25</ele><time>2026-04-04T11:02:41.998Z</time></trkpt><trkpt lat="45.81634665902389" lon="9.270122985971177"><ele>349.0</ele><time>2026-04-04T11:02:42.998Z</time></trkpt><trkpt lat="45.816303738813055" lon="9.27032011662611"><ele>349.0</ele><time>2026-04-04T11:02:43.998Z</time></trkpt><trkpt lat="45.81625537896042" lon="9.270535426126177"><ele>349.0</ele><time>2026-04-04T11:02:44.998Z</time></trkpt><trkpt lat="45.81620505908087" lon="9.270764534216848"><ele>349.0</ele><time>2026-04-04T11:02:45.998Z</time></trkpt><trkpt lat="45.81615277443797" lon="9.27099522831389"><ele>349.3333333333333</ele><time>2026-04-04T11:02:46.998Z</time></trkpt><trkpt lat="45.81610117885751" lon="9.271225161890344"><ele>349.6666666666667</ele><time>2026-04-04T11:02:47.998Z</time></trkpt><trkpt lat="45.81604955762251" lon="9.271443672637451"><ele>350.0</ele><time>2026-04-04T11:02:48.998Z</time></trkpt><trkpt lat="45.8159754725628" lon="9.271615695333189"><ele>346.75</ele><time>2026-04-04T11:02:49.999Z</time></trkpt><trkpt lat="45.8159006601015" lon="9.271776974876957"><ele>343.5</ele><time>2026-04-04T11:02:50.999Z</time></trkpt><trkpt lat="45.81576645581392" lon="9.271869839230463"><ele>340.25</ele><time>2026-04-04T11:02:51.999Z</time></trkpt><trkpt lat="45.81565188665339" lon="9.27200201014691"><ele>337.0</ele><time>2026-04-04T11:02:52.999Z</time></trkpt><trkpt lat="45.81553308213785" lon="9.272100203383115"><ele>337.0</ele><time>2026-04-04T11:02:53.999Z</time></trkpt><trkpt lat="45.81542345653258" lon="9.27220288346422"><ele>337.0</ele><time>2026-04-04T11:02:54.999Z</time></trkpt><trkpt lat="45.81532770233936" lon="9.272329878222996"><ele>337.0</ele><time>2026-04-04T11:02:55.999Z</time></trkpt><trkpt lat="45.81526236548608" lon="9.272489837935222"><ele>337.0</ele><time>2026-04-04T11:02:56.999Z</time></trkpt><trkpt lat="45.81524264219783" lon="9.27269510821519"><ele>337.66666666666663</ele><time>2026-04-04T11:02:57.999Z</time></trkpt><trkpt lat="45.81526378060435" lon="9.272918894682727"><ele>338.3333333333333</ele><time>2026-04-04T11:02:58.999Z</time></trkpt><trkpt lat="45.81529673320345" lon="9.273150439526548"><ele>339.0</ele><time>2026-04-04T11:03:00Z</time></trkpt><trkpt lat="45.81532619349731" lon="9.273390546466274"><ele>339.6666666666667</ele><time>2026-04-04T11:03:01Z</time></trkpt><trkpt lat="45.81534958652793" lon="9.273644023427837"><ele>340.33333333333337</ele><time>2026-04-04T11:03:02Z</time></trkpt><trkpt lat="45.81537085253104" lon="9.273901640376355"><ele>341.0</ele><time>2026-04-04T11:03:03Z</time></trkpt><trkpt lat="45.815395079320986" lon="9.274172098741525"><ele>339.0</ele><time>2026-04-04T11:03:04Z</time></trkpt><trkpt lat="45.815422646679764" lon="9.27442865057121"><ele>337.0</ele><time>2026-04-04T11:03:05Z</time></trkpt><trkpt lat="45.81544296304562" lon="9.274674517842723"><ele>335.0</ele><time>2026-04-04T11:03:06Z</time></trkpt><trkpt lat="45.81546575225531" lon="9.274912694584804"><ele>333.0</ele><time>2026-04-04T11:03:07Z</time></trkpt><trkpt lat="45.8154880808412" lon="9.275143883439807"><ele>331.0</ele><time>2026-04-04T11:03:08Z</time></trkpt><trkpt lat="45.815513324948355" lon="9.27537324128277"><ele>329.0</ele><time>2026-04-04T11:03:09Z</time></trkpt><trkpt lat="45.815531317802666" lon="9.275596316175434"><ele>325.6666666666667</ele><time>2026-04-04T11:03:10Z</time></trkpt><trkpt lat="45.81555121799696" lon="9.275821816807056"><ele>322.3333333333333</ele><time>2026-04-04T11:03:11Z</time></trkpt><trkpt lat="45.81558444668459" lon="9.276053865087468"><ele>319.0</ele><time>2026-04-04T11:03:12Z</time></trkpt><trkpt lat="45.815635910004836" lon="9.276283933998885"><ele>317.3333333333333</ele><time>2026-04-04T11:03:13Z</time></trkpt><trkpt lat="45.81570075055857" lon="9.276513558273098"><ele>315.6666666666667</ele><time>2026-04-04T11:03:14Z</time></trkpt><trkpt lat="45.81576422832232" lon="9.276739946831675"><ele>314.0</ele><time>2026-04-04T11:03:15Z</time></trkpt><trkpt lat="45.815824407610066" lon="9.276971556323296"><ele>314.0</ele><time>2026-04-04T11:03:16Z</time></trkpt><trkpt lat="45.81588370803453" lon="9.277204791799505"><ele>314.0</ele><time>2026-04-04T11:03:17Z</time></trkpt><trkpt lat="45.81594201529068" lon="9.277434143092211"><ele>314.0</ele><time>2026-04-04T11:03:18Z</time></trkpt><trkpt lat="45.81600278212654" lon="9.277664698493345"><ele>314.0</ele><time>2026-04-04T11:03:19Z</time></trkpt><trkpt lat="45.816065256233166" lon="9.277895113867787"><ele>314.0</ele><time>2026-04-04T11:03:20Z</time></trkpt><trkpt lat="45.81612580214701" lon="9.278125950386269"><ele>314.0</ele><time>2026-04-04T11:03:21Z</time></trkpt><trkpt lat="45.81618333797305" lon="9.278355964376688"><ele>314.0</ele><time>2026-04-04T11:03:22Z</time></trkpt><trkpt lat="45.81623989490909" lon="9.278583691842876"><ele>314.0</ele><time>2026-04-04T11:03:23Z</time></trkpt><trkpt lat="45.81628573044343" lon="9.278808354878445"><ele>314.0</ele><time>2026-04-04T11:03:24Z</time></trkpt><trkpt lat="45.81628516894569" lon="9.279046180029658"><ele>311.6666666666667</ele><time>2026-04-04T11:03:25Z</time></trkpt><trkpt lat="45.816275385898365" lon="9.279293320956308"><ele>309.3333333333333</ele><time>2026-04-04T11:03:26Z</time></trkpt><trkpt lat="45.81623923190143" lon="9.27955069600029"><ele>307.0</ele><time>2026-04-04T11:03:27Z</time></trkpt><trkpt lat="45.81616921911986" lon="9.279795114879288"><ele>305.66666666666663</ele><time>2026-04-04T11:03:28Z</time></trkpt><trkpt lat="45.816089011022136" lon="9.280031974501483"><ele>304.3333333333333</ele><time>2026-04-04T11:03:29Z</time></trkpt><trkpt lat="45.81602332786959" lon="9.28025063132949"><ele>303.0</ele><time>2026-04-04T11:03:30Z</time></trkpt><trkpt lat="45.8159608212443" lon="9.28042655591662"><ele>300.0</ele><time>2026-04-04T11:03:31Z</time></trkpt><trkpt lat="45.81590571169801" lon="9.280585123234474"><ele>297.0</ele><time>2026-04-04T11:03:32Z</time></trkpt><trkpt lat="45.815850550988785" lon="9.280738815089565"><ele>294.0</ele><time>2026-04-04T11:03:33Z</time></trkpt><trkpt lat="45.815797750354335" lon="9.280893305067584"><ele>291.0</ele><time>2026-04-04T11:03:34Z</time></trkpt><trkpt lat="45.81574613986782" lon="9.281035991865696"><ele>291.0</ele><time>2026-04-04T11:03:35Z</time></trkpt><trkpt lat="45.81569537048899" lon="9.281182810048412"><ele>291.0</ele><time>2026-04-04T11:03:36Z</time></trkpt><trkpt lat="45.81564135784753" lon="9.28133948514862"><ele>291.0</ele><time>2026-04-04T11:03:37Z</time></trkpt><trkpt lat="45.81558268718437" lon="9.28150928216994"><ele>291.0</ele><time>2026-04-04T11:03:38Z</time></trkpt><trkpt lat="45.81551475073918" lon="9.28169454710091"><ele>291.3333333333333</ele><time>2026-04-04T11:03:39Z</time></trkpt><trkpt lat="45.81544376835122" lon="9.281893269665826"><ele>291.66666666666663</ele><time>2026-04-04T11:03:40Z</time></trkpt><trkpt lat="45.81536853296235" lon="9.282107377991471"><ele>292.0</ele><time>2026-04-04T11:03:40.999Z</time></trkpt><trkpt lat="45.81529270857204" lon="9.28232848417887"><ele>291.0</ele><time>2026-04-04T11:03:41.999Z</time></trkpt><trkpt lat="45.815217136401834" lon="9.282543825901973"><ele>290.0</ele><time>2026-04-04T11:03:42.999Z</time></trkpt><trkpt lat="45.81514829362221" lon="9.282742096921885"><ele>289.0</ele><time>2026-04-04T11:03:43.999Z</time></trkpt><trkpt lat="45.81508519359317" lon="9.282943028095552"><ele>286.25</ele><time>2026-04-04T11:03:44.999Z</time></trkpt><trkpt lat="45.81503654569145" lon="9.283138133883506"><ele>283.5</ele><time>2026-04-04T11:03:45.999Z</time></trkpt><trkpt lat="45.81499549527413" lon="9.283342774086606"><ele>280.75</ele><time>2026-04-04T11:03:46.999Z</time></trkpt><trkpt lat="45.81496677261527" lon="9.283559096543977"><ele>278.0</ele><time>2026-04-04T11:03:47.999Z</time></trkpt><trkpt lat="45.81494212386025" lon="9.283774384412126"><ele>277.33333333333337</ele><time>2026-04-04T11:03:48.999Z</time></trkpt><trkpt lat="45.81491267667376" lon="9.283987880460872"><ele>276.6666666666667</ele><time>2026-04-04T11:03:49.999Z</time></trkpt><trkpt lat="45.8148797941049" lon="9.284212117165778"><ele>276.0</ele><time>2026-04-04T11:03:50.999Z</time></trkpt><trkpt lat="45.81484729323934" lon="9.284421480802397"><ele>276.0</ele><time>2026-04-04T11:03:51.999Z</time></trkpt><trkpt lat="45.814816676766426" lon="9.284614441262114"><ele>276.0</ele><time>2026-04-04T11:03:52.999Z</time></trkpt><trkpt lat="45.81478890903277" lon="9.284799204670835"><ele>276.0</ele><time>2026-04-04T11:03:53.999Z</time></trkpt><trkpt lat="45.81476392901888" lon="9.284983162446705"><ele>276.0</ele><time>2026-04-04T11:03:54.999Z</time></trkpt><trkpt lat="45.81473906495367" lon="9.285156934600385"><ele>275.8</ele><time>2026-04-04T11:03:55.999Z</time></trkpt><trkpt lat="45.814712047336116" lon="9.285324000683973"><ele>275.6</ele><time>2026-04-04T11:03:56.999Z</time></trkpt><trkpt lat="45.814689793256655" lon="9.28548419963566"><ele>275.4</ele><time>2026-04-04T11:03:57.999Z</time></trkpt><trkpt lat="45.81466765591178" lon="9.285643485930118"><ele>275.2</ele><time>2026-04-04T11:03:58.999Z</time></trkpt><trkpt lat="45.81464843917718" lon="9.285782425713565"><ele>275.0</ele><time>2026-04-04T11:03:59.999Z</time></trkpt><trkpt lat="45.81461336381284" lon="9.28591106336276"><ele>274.8</ele><time>2026-04-04T11:04:00.999Z</time></trkpt><trkpt lat="45.81458443989574" lon="9.286032515648738"><ele>274.6</ele><time>2026-04-04T11:04:01.999Z</time></trkpt><trkpt lat="45.814557448073565" lon="9.2861514027977"><ele>274.4</ele><time>2026-04-04T11:04:02.999Z</time></trkpt><trkpt lat="45.814519015031294" lon="9.286276979522261"><ele>274.2</ele><time>2026-04-04T11:04:03.999Z</time></trkpt><trkpt lat="45.81449406305812" lon="9.28641393700196"><ele>274.0</ele><time>2026-04-04T11:04:04.999Z</time></trkpt><trkpt lat="45.81444348167182" lon="9.28654683862186"><ele>274.0</ele><time>2026-04-04T11:04:05.999Z</time></trkpt><trkpt lat="45.81437213105901" lon="9.286663986595222"><ele>274.0</ele><time>2026-04-04T11:04:06.999Z</time></trkpt><trkpt lat="45.81427704375819" lon="9.286754794900801"><ele>274.0</ele><time>2026-04-04T11:04:07.999Z</time></trkpt><trkpt lat="45.814170301647735" lon="9.286806863983452"><ele>274.0</ele><time>2026-04-04T11:04:08.999Z</time></trkpt><trkpt lat="45.814054658028056" lon="9.286799790593395"><ele>273.0</ele><time>2026-04-04T11:04:09.999Z</time></trkpt><trkpt lat="45.81395488068108" lon="9.286787570826705"><ele>272.0</ele><time>2026-04-04T11:04:10.999Z</time></trkpt><trkpt lat="45.81386120935454" lon="9.286798045623932"><ele>271.0</ele><time>2026-04-04T11:04:11.999Z</time></trkpt><trkpt lat="45.813768667559394" lon="9.286781176741536"><ele>270.0</ele><time>2026-04-04T11:04:12.999Z</time></trkpt><trkpt lat="45.81368582224684" lon="9.286772817960463"><ele>269.0</ele><time>2026-04-04T11:04:13.999Z</time></trkpt><trkpt lat="45.81361227377409" lon="9.286755570687998"><ele>268.0</ele><time>2026-04-04T11:04:14.999Z</time></trkpt><trkpt lat="45.81354326781485" lon="9.286997113106215"><ele>268.0</ele><time>2026-04-04T11:04:16.999Z</time></trkpt><trkpt lat="45.81355582831342" lon="9.287143040540006"><ele>268.0</ele><time>2026-04-04T11:04:17.999Z</time></trkpt><trkpt lat="45.81358423187115" lon="9.287298349892335"><ele>268.0</ele><time>2026-04-04T11:04:18.999Z</time></trkpt><trkpt lat="45.813607848212186" lon="9.28746180314605"><ele>268.0</ele><time>2026-04-04T11:04:19.999Z</time></trkpt><trkpt lat="45.8136206333903" lon="9.287639874731966"><ele>268.5</ele><time>2026-04-04T11:04:20.999Z</time></trkpt><trkpt lat="45.813647673981485" lon="9.287814040490959"><ele>269.0</ele><time>2026-04-04T11:04:21.999Z</time></trkpt><trkpt lat="45.81367795197629" lon="9.288003501567642"><ele>269.5</ele><time>2026-04-04T11:04:22.999Z</time></trkpt><trkpt lat="45.81370374206415" lon="9.288198693709"><ele>270.0</ele><time>2026-04-04T11:04:23.999Z</time></trkpt><trkpt lat="45.813725992418746" lon="9.28838873594881"><ele>270.0</ele><time>2026-04-04T11:04:24.999Z</time></trkpt><trkpt lat="45.81374703849215" lon="9.288580864420238"><ele>270.0</ele><time>2026-04-04T11:04:25.999Z</time></trkpt><trkpt lat="45.81377084208749" lon="9.288773282904915"><ele>270.0</ele><time>2026-04-04T11:04:26.999Z</time></trkpt><trkpt lat="45.81379733961264" lon="9.28895861621306"><ele>270.0</ele><time>2026-04-04T11:04:27.999Z</time></trkpt><trkpt lat="45.81382799652589" lon="9.289146057092204"><ele>269.25</ele><time>2026-04-04T11:04:28.999Z</time></trkpt><trkpt lat="45.813865856056296" lon="9.289333298904285"><ele>268.5</ele><time>2026-04-04T11:04:29.999Z</time></trkpt><trkpt lat="45.81390101527822" lon="9.289522502406877"><ele>267.75</ele><time>2026-04-04T11:04:30.999Z</time></trkpt><trkpt lat="45.81395068903735" lon="9.289689960368259"><ele>267.0</ele><time>2026-04-04T11:04:31.999Z</time></trkpt><trkpt lat="45.81400407248719" lon="9.28984080720845"><ele>267.0</ele><time>2026-04-04T11:04:32.999Z</time></trkpt><trkpt lat="45.81405322502663" lon="9.289985708688276"><ele>267.0</ele><time>2026-04-04T11:04:33.999Z</time></trkpt><trkpt lat="45.814094797772505" lon="9.29012554551462"><ele>267.0</ele><time>2026-04-04T11:04:34.999Z</time></trkpt><trkpt lat="45.814129749139134" lon="9.290277488513386"><ele>267.0</ele><time>2026-04-04T11:04:35.999Z</time></trkpt><trkpt lat="45.814159479873744" lon="9.290443725781286"><ele>267.0</ele><time>2026-04-04T11:04:36.999Z</time></trkpt><trkpt lat="45.81418871539779" lon="9.29060881899592"><ele>266.2</ele><time>2026-04-04T11:04:37.999Z</time></trkpt><trkpt lat="45.81421015891679" lon="9.29074385897106"><ele>265.4</ele><time>2026-04-04T11:04:38.999Z</time></trkpt><trkpt lat="45.81420803040017" lon="9.290875616678944"><ele>264.6</ele><time>2026-04-04T11:04:40.999Z</time></trkpt><trkpt lat="45.81418728454291" lon="9.291015671520567"><ele>263.8</ele><time>2026-04-04T11:04:43.999Z</time></trkpt><trkpt lat="45.81415789438859" lon="9.291203237491032"><ele>263.0</ele><time>2026-04-04T11:04:45.999Z</time></trkpt><trkpt lat="45.8141772484781" lon="9.291320635277327"><ele>262.6</ele><time>2026-04-04T11:04:46.999Z</time></trkpt><trkpt lat="45.81423928961754" lon="9.29142400596845"><ele>262.20000000000005</ele><time>2026-04-04T11:04:47.999Z</time></trkpt><trkpt lat="45.81432058886272" lon="9.29151259817808"><ele>261.8</ele><time>2026-04-04T11:04:48.999Z</time></trkpt><trkpt lat="45.81439290036683" lon="9.291621765980514"><ele>261.40000000000003</ele><time>2026-04-04T11:04:49.999Z</time></trkpt><trkpt lat="45.81445243766923" lon="9.291751488709018"><ele>261.0</ele><time>2026-04-04T11:04:50.999Z</time></trkpt><trkpt lat="45.81450352323559" lon="9.29189451753471"><ele>262.0</ele><time>2026-04-04T11:04:51.999Z</time></trkpt><trkpt lat="45.814544467575104" lon="9.29204807549331"><ele>263.0</ele><time>2026-04-04T11:04:52.999Z</time></trkpt><trkpt lat="45.814574261566534" lon="9.29221169527671"><ele>264.0</ele><time>2026-04-04T11:04:53.999Z</time></trkpt><trkpt lat="45.81459966867432" lon="9.292383004302566"><ele>265.0</ele><time>2026-04-04T11:04:54.999Z</time></trkpt><trkpt lat="45.814622184229734" lon="9.292552905675787"><ele>265.0</ele><time>2026-04-04T11:04:56Z</time></trkpt><trkpt lat="45.81465151591666" lon="9.29271794104374"><ele>265.0</ele><time>2026-04-04T11:04:57Z</time></trkpt><trkpt lat="45.814689863611285" lon="9.292888309028351"><ele>265.0</ele><time>2026-04-04T11:04:58Z</time></trkpt><trkpt lat="45.81473481545972" lon="9.29306237231349"><ele>265.0</ele><time>2026-04-04T11:04:59Z</time></trkpt><trkpt lat="45.81480050371293" lon="9.293249458455877"><ele>265.0</ele><time>2026-04-04T11:05:00Z</time></trkpt><trkpt lat="45.81488119762589" lon="9.293456970232649"><ele>265.0</ele><time>2026-04-04T11:05:01Z</time></trkpt><trkpt lat="45.814958554784596" lon="9.293698359605385"><ele>265.0</ele><time>2026-04-04T11:05:02Z</time></trkpt><trkpt lat="45.81504806404096" lon="9.2939526192245"><ele>265.3333333333333</ele><time>2026-04-04T11:05:03Z</time></trkpt><trkpt lat="45.81514141536145" lon="9.294183212939368"><ele>265.6666666666667</ele><time>2026-04-04T11:05:04Z</time></trkpt><trkpt lat="45.81521454859083" lon="9.294392072971279"><ele>266.0</ele><time>2026-04-04T11:05:05Z</time></trkpt><trkpt lat="45.815290764853856" lon="9.294580447720218"><ele>267.75</ele><time>2026-04-04T11:05:06Z</time></trkpt><trkpt lat="45.815361322184025" lon="9.294754872306205"><ele>269.5</ele><time>2026-04-04T11:05:07Z</time></trkpt><trkpt lat="45.81542394020302" lon="9.294931121391057"><ele>271.25</ele><time>2026-04-04T11:05:08Z</time></trkpt><trkpt lat="45.81547820080906" lon="9.295114224740606"><ele>273.0</ele><time>2026-04-04T11:05:09Z</time></trkpt><trkpt lat="45.815526520547756" lon="9.295286095704896"><ele>273.0</ele><time>2026-04-04T11:05:10Z</time></trkpt><trkpt lat="45.815570041503904" lon="9.295445560259795"><ele>273.0</ele><time>2026-04-04T11:05:11Z</time></trkpt><trkpt lat="45.815612295798445" lon="9.295605512250518"><ele>273.0</ele><time>2026-04-04T11:05:12Z</time></trkpt><trkpt lat="45.81565137653661" lon="9.295775158185078"><ele>273.0</ele><time>2026-04-04T11:05:13Z</time></trkpt><trkpt lat="45.81569002264944" lon="9.295957615667175"><ele>273.25</ele><time>2026-04-04T11:05:14Z</time></trkpt><trkpt lat="45.81573001824152" lon="9.296143974064723"><ele>273.5</ele><time>2026-04-04T11:05:15Z</time></trkpt><trkpt lat="45.815769206401114" lon="9.296336260811389"><ele>273.75</ele><time>2026-04-04T11:05:16Z</time></trkpt><trkpt lat="45.815803486730076" lon="9.29652250179624"><ele>274.0</ele><time>2026-04-04T11:05:17Z</time></trkpt><trkpt lat="45.81583206851507" lon="9.29670225141734"><ele>274.0</ele><time>2026-04-04T11:05:18Z</time></trkpt><trkpt lat="45.81586140190737" lon="9.29688278486385"><ele>274.0</ele><time>2026-04-04T11:05:19Z</time></trkpt><trkpt lat="45.81588701508091" lon="9.29706894832747"><ele>274.0</ele><time>2026-04-04T11:05:20Z</time></trkpt><trkpt lat="45.81590479233296" lon="9.297253255909713"><ele>274.0</ele><time>2026-04-04T11:05:21Z</time></trkpt><trkpt lat="45.81591599834299" lon="9.297437101258087"><ele>274.0</ele><time>2026-04-04T11:05:22Z</time></trkpt><trkpt lat="45.815920969796885" lon="9.297603164666285"><ele>274.0</ele><time>2026-04-04T11:05:23Z</time></trkpt><trkpt lat="45.81592347992931" lon="9.297748955075761"><ele>274.0</ele><time>2026-04-04T11:05:24Z</time></trkpt><trkpt lat="45.815925042663565" lon="9.297867733829476"><ele>274.0</ele><time>2026-04-04T11:05:25Z</time></trkpt><trkpt lat="45.81592351883087" lon="9.298013137990505"><ele>274.0</ele><time>2026-04-04T11:05:27Z</time></trkpt><trkpt lat="45.81590840540746" lon="9.298127241140032"><ele>273.8333333333333</ele><time>2026-04-04T11:05:29Z</time></trkpt><trkpt lat="45.81587979735596" lon="9.298220477600982"><ele>273.66666666666663</ele><time>2026-04-04T11:05:34Z</time></trkpt><trkpt lat="45.815845479480494" lon="9.298297248346726"><ele>273.5</ele><time>2026-04-04T11:05:35Z</time></trkpt><trkpt lat="45.81579499128603" lon="9.298371148205874"><ele>273.3333333333333</ele><time>2026-04-04T11:05:36Z</time></trkpt><trkpt lat="45.815751087196915" lon="9.298519765678884"><ele>273.1666666666667</ele><time>2026-04-04T11:05:38Z</time></trkpt><trkpt lat="45.815818721627586" lon="9.298657124417119"><ele>273.0</ele><time>2026-04-04T11:05:40Z</time></trkpt><trkpt lat="45.81589661956439" lon="9.298796888103746"><ele>273.0</ele><time>2026-04-04T11:05:42Z</time></trkpt><trkpt lat="45.81592156282823" lon="9.298899166665729"><ele>273.0</ele><time>2026-04-04T11:05:43Z</time></trkpt><trkpt lat="45.81593641855935" lon="9.299008179032027"><ele>273.0</ele><time>2026-04-04T11:05:44Z</time></trkpt><trkpt lat="45.81594105363968" lon="9.299129183921513"><ele>273.0</ele><time>2026-04-04T11:05:45Z</time></trkpt><trkpt lat="45.81593909981116" lon="9.299259870158993"><ele>273.0</ele><time>2026-04-04T11:05:46Z</time></trkpt><trkpt lat="45.815936754723126" lon="9.299393644010145"><ele>273.0</ele><time>2026-04-04T11:05:47Z</time></trkpt><trkpt lat="45.815934815101265" lon="9.29953787854085"><ele>273.4</ele><time>2026-04-04T11:05:48Z</time></trkpt><trkpt lat="45.815936230428186" lon="9.29968551051985"><ele>273.8</ele><time>2026-04-04T11:05:49Z</time></trkpt><trkpt lat="45.815940243786095" lon="9.2998418750879"><ele>274.2</ele><time>2026-04-04T11:05:50Z</time></trkpt><trkpt lat="45.815944524850046" lon="9.300009015387579"><ele>274.6</ele><time>2026-04-04T11:05:51Z</time></trkpt><trkpt lat="45.81594328938518" lon="9.300173957953964"><ele>275.0</ele><time>2026-04-04T11:05:52Z</time></trkpt><trkpt lat="45.81594554402226" lon="9.300346971311432"><ele>275.5</ele><time>2026-04-04T11:05:53Z</time></trkpt><trkpt lat="45.81595094409154" lon="9.30052308173438"><ele>276.0</ele><time>2026-04-04T11:05:54Z</time></trkpt><trkpt lat="45.81595839467061" lon="9.300701119539996"><ele>276.5</ele><time>2026-04-04T11:05:55Z</time></trkpt><trkpt lat="45.8159736993577" lon="9.300890800551892"><ele>277.0</ele><time>2026-04-04T11:05:56Z</time></trkpt><trkpt lat="45.81599943473469" lon="9.301070793349401"><ele>278.25</ele><time>2026-04-04T11:05:56.999Z</time></trkpt><trkpt lat="45.81603178757726" lon="9.301247019872447"><ele>279.5</ele><time>2026-04-04T11:05:57.999Z</time></trkpt><trkpt lat="45.81606978204372" lon="9.301418515797181"><ele>280.75</ele><time>2026-04-04T11:05:58.999Z</time></trkpt><trkpt lat="45.816111393868496" lon="9.301579922295002"><ele>282.0</ele><time>2026-04-04T11:05:59.999Z</time></trkpt><trkpt lat="45.81615973441011" lon="9.301745331831702"><ele>282.0</ele><time>2026-04-04T11:06:00.999Z</time></trkpt><trkpt lat="45.81620853097694" lon="9.30190007656862"><ele>282.0</ele><time>2026-04-04T11:06:01.999Z</time></trkpt><trkpt lat="45.8162628071563" lon="9.302059451167512"><ele>282.0</ele><time>2026-04-04T11:06:02.999Z</time></trkpt><trkpt lat="45.816321467523665" lon="9.302227751347381"><ele>282.0</ele><time>2026-04-04T11:06:03.999Z</time></trkpt><trkpt lat="45.81638479612756" lon="9.302401121338214"><ele>282.5</ele><time>2026-04-04T11:06:04.999Z</time></trkpt><trkpt lat="45.81645057685887" lon="9.302580385696407"><ele>283.0</ele><time>2026-04-04T11:06:05.999Z</time></trkpt><trkpt lat="45.81651813773748" lon="9.302764455871191"><ele>283.5</ele><time>2026-04-04T11:06:06.999Z</time></trkpt><trkpt lat="45.816593850687966" lon="9.30296309604259"><ele>284.0</ele><time>2026-04-04T11:06:07.999Z</time></trkpt><trkpt lat="45.81666598916188" lon="9.303161248329019"><ele>284.0</ele><time>2026-04-04T11:06:08.999Z</time></trkpt><trkpt lat="45.816732708013404" lon="9.303358502107937"><ele>284.0</ele><time>2026-04-04T11:06:09.999Z</time></trkpt><trkpt lat="45.816791366025925" lon="9.303560362694663"><ele>284.0</ele><time>2026-04-04T11:06:10.999Z</time></trkpt><trkpt lat="45.816846884184656" lon="9.303766737485459"><ele>287.33333333333337</ele><time>2026-04-04T11:06:11.999Z</time></trkpt><trkpt lat="45.816898567562234" lon="9.303980087958184"><ele>290.6666666666667</ele><time>2026-04-04T11:06:12.999Z</time></trkpt><trkpt lat="45.81694780102864" lon="9.304194496895684"><ele>294.0</ele><time>2026-04-04T11:06:13.999Z</time></trkpt><trkpt lat="45.81699685246884" lon="9.304402483429657"><ele>294.0</ele><time>2026-04-04T11:06:14.999Z</time></trkpt><trkpt lat="45.817042867249334" lon="9.304615406105226"><ele>294.0</ele><time>2026-04-04T11:06:15.999Z</time></trkpt><trkpt lat="45.817080270040776" lon="9.304815658240724"><ele>294.0</ele><time>2026-04-04T11:06:16.999Z</time></trkpt><trkpt lat="45.817118095321966" lon="9.305013971084447"><ele>294.0</ele><time>2026-04-04T11:06:17.999Z</time></trkpt><trkpt lat="45.81715597583703" lon="9.305212029802801"><ele>291.0</ele><time>2026-04-04T11:06:18.999Z</time></trkpt><trkpt lat="45.817192537746855" lon="9.305409409535716"><ele>288.0</ele><time>2026-04-04T11:06:19.999Z</time></trkpt><trkpt lat="45.81722828573635" lon="9.305599975498819"><ele>285.0</ele><time>2026-04-04T11:06:20.999Z</time></trkpt><trkpt lat="45.81726045119747" lon="9.305778835721476"><ele>282.0</ele><time>2026-04-04T11:06:21.999Z</time></trkpt><trkpt lat="45.81729149524097" lon="9.305939139445252"><ele>281.3333333333333</ele><time>2026-04-04T11:06:22.999Z</time></trkpt><trkpt lat="45.817319529973645" lon="9.306086016509543"><ele>280.6666666666667</ele><time>2026-04-04T11:06:23.999Z</time></trkpt><trkpt lat="45.81734680914454" lon="9.306228128232867"><ele>280.0</ele><time>2026-04-04T11:06:24.999Z</time></trkpt><trkpt lat="45.81737017771184" lon="9.306352933701417"><ele>279.33333333333337</ele><time>2026-04-04T11:06:25.999Z</time></trkpt><trkpt lat="45.8173874446082" lon="9.306467540832033"><ele>278.6666666666667</ele><time>2026-04-04T11:06:26.999Z</time></trkpt><trkpt lat="45.81739388658027" lon="9.306565054988965"><ele>278.0</ele><time>2026-04-04T11:06:27.999Z</time></trkpt><trkpt lat="45.81737962333932" lon="9.306654343474232"><ele>277.6</ele><time>2026-04-04T11:06:28.999Z</time></trkpt><trkpt lat="45.817335686093514" lon="9.306732174492351"><ele>277.20000000000005</ele><time>2026-04-04T11:06:29.999Z</time></trkpt><trkpt lat="45.81725517231788" lon="9.30679174377943"><ele>276.8</ele><time>2026-04-04T11:06:30.999Z</time></trkpt><trkpt lat="45.81715880210044" lon="9.30685237383994"><ele>276.40000000000003</ele><time>2026-04-04T11:06:31.999Z</time></trkpt><trkpt lat="45.817053509904476" lon="9.306943792769756"><ele>276.0</ele><time>2026-04-04T11:06:32.999Z</time></trkpt><trkpt lat="45.81693573298354" lon="9.307058493688443"><ele>276.0</ele><time>2026-04-04T11:06:33.999Z</time></trkpt><trkpt lat="45.81682208883906" lon="9.3071797300691"><ele>276.0</ele><time>2026-04-04T11:06:34.999Z</time></trkpt><trkpt lat="45.81670221139001" lon="9.307299774654837"><ele>276.0</ele><time>2026-04-04T11:06:35.999Z</time></trkpt><trkpt lat="45.81659078581244" lon="9.307410324442987"><ele>276.0</ele><time>2026-04-04T11:06:36.999Z</time></trkpt><trkpt lat="45.81648387572997" lon="9.307524286344705"><ele>275.0</ele><time>2026-04-04T11:06:37.999Z</time></trkpt><trkpt lat="45.816376691897794" lon="9.30763965124812"><ele>274.0</ele><time>2026-04-04T11:06:38.999Z</time></trkpt><trkpt lat="45.81625952468104" lon="9.307769555774119"><ele>273.0</ele><time>2026-04-04T11:06:39.999Z</time></trkpt><trkpt lat="45.81615657768393" lon="9.307921318354262"><ele>272.0</ele><time>2026-04-04T11:06:40.999Z</time></trkpt><trkpt lat="45.81605658620717" lon="9.30804458236425"><ele>271.5</ele><time>2026-04-04T11:06:41.999Z</time></trkpt><trkpt lat="45.81594935773729" lon="9.308151404886543"><ele>271.0</ele><time>2026-04-04T11:06:42.999Z</time></trkpt><trkpt lat="45.81584191922354" lon="9.308254910266784"><ele>270.5</ele><time>2026-04-04T11:06:43.999Z</time></trkpt><trkpt lat="45.815739940919194" lon="9.30836212811392"><ele>270.0</ele><time>2026-04-04T11:06:44.999Z</time></trkpt><trkpt lat="45.81563887873734" lon="9.308472631209794"><ele>270.0</ele><time>2026-04-04T11:06:45.999Z</time></trkpt><trkpt lat="45.81553964742499" lon="9.308599853539231"><ele>270.0</ele><time>2026-04-04T11:06:46.999Z</time></trkpt><trkpt lat="45.81545734977476" lon="9.308768364301084"><ele>270.0</ele><time>2026-04-04T11:06:47.999Z</time></trkpt><trkpt lat="45.81539502604836" lon="9.308926488514958"><ele>270.0</ele><time>2026-04-04T11:06:48.999Z</time></trkpt><trkpt lat="45.81532729474423" lon="9.30907535066041"><ele>270.0</ele><time>2026-04-04T11:06:49.999Z</time></trkpt><trkpt lat="45.81523555662513" lon="9.309203811855399"><ele>270.0</ele><time>2026-04-04T11:06:50.999Z</time></trkpt><trkpt lat="45.815129805277536" lon="9.309319034305405"><ele>270.0</ele><time>2026-04-04T11:06:51.999Z</time></trkpt><trkpt lat="45.815011848967416" lon="9.309419481932292"><ele>270.0</ele><time>2026-04-04T11:06:52.999Z</time></trkpt><trkpt lat="45.81489463132875" lon="9.309510919281834"><ele>269.5</ele><time>2026-04-04T11:06:53.999Z</time></trkpt><trkpt lat="45.814777638806895" lon="9.309598677695437"><ele>269.0</ele><time>2026-04-04T11:06:54.999Z</time></trkpt><trkpt lat="45.81465855539924" lon="9.309694144321515"><ele>268.5</ele><time>2026-04-04T11:06:55.999Z</time></trkpt><trkpt lat="45.81453338390244" lon="9.309793213395887"><ele>268.0</ele><time>2026-04-04T11:06:56.999Z</time></trkpt><trkpt lat="45.8144093782158" lon="9.309883331313719"><ele>267.75</ele><time>2026-04-04T11:06:57.999Z</time></trkpt><trkpt lat="45.81429113275993" lon="9.309951624380874"><ele>267.5</ele><time>2026-04-04T11:06:58.999Z</time></trkpt><trkpt lat="45.814172215368" lon="9.309995359076707"><ele>267.25</ele><time>2026-04-04T11:06:59.999Z</time></trkpt><trkpt lat="45.81405429664015" lon="9.31003294380722"><ele>267.0</ele><time>2026-04-04T11:07:00.999Z</time></trkpt><trkpt lat="45.81393097813963" lon="9.310092060208055"><ele>267.0</ele><time>2026-04-04T11:07:02Z</time></trkpt><trkpt lat="45.81380600526679" lon="9.31015783587089"><ele>267.0</ele><time>2026-04-04T11:07:03Z</time></trkpt><trkpt lat="45.81369199155731" lon="9.310223624609055"><ele>267.0</ele><time>2026-04-04T11:07:04Z</time></trkpt><trkpt lat="45.813603028707696" lon="9.310291503859931"><ele>267.0</ele><time>2026-04-04T11:07:05Z</time></trkpt><trkpt lat="45.813529624130176" lon="9.310367980442477"><ele>267.0</ele><time>2026-04-04T11:07:06Z</time></trkpt><trkpt lat="45.81345941073579" lon="9.31046464647865"><ele>266.6</ele><time>2026-04-04T11:07:07Z</time></trkpt><trkpt lat="45.813383191979106" lon="9.310558971906927"><ele>266.2</ele><time>2026-04-04T11:07:08Z</time></trkpt><trkpt lat="45.81329537522813" lon="9.310646807191706"><ele>265.8</ele><time>2026-04-04T11:07:09Z</time></trkpt><trkpt lat="45.81320135443939" lon="9.31072951065112"><ele>265.4</ele><time>2026-04-04T11:07:10Z</time></trkpt><trkpt lat="45.81310182300086" lon="9.310792702239254"><ele>265.0</ele><time>2026-04-04T11:07:11Z</time></trkpt><trkpt lat="45.81299236239644" lon="9.310827628472973"><ele>264.75</ele><time>2026-04-04T11:07:12Z</time></trkpt><trkpt lat="45.81288712682623" lon="9.310863965699678"><ele>264.5</ele><time>2026-04-04T11:07:13Z</time></trkpt><trkpt lat="45.81276801329623" lon="9.310899732124383"><ele>264.25</ele><time>2026-04-04T11:07:14Z</time></trkpt><trkpt lat="45.81264866837044" lon="9.310930898146717"><ele>264.0</ele><time>2026-04-04T11:07:15Z</time></trkpt><trkpt lat="45.812524083398436" lon="9.310956567921318"><ele>263.5</ele><time>2026-04-04T11:07:16Z</time></trkpt><trkpt lat="45.81239526692385" lon="9.310991092379464"><ele>263.0</ele><time>2026-04-04T11:07:17Z</time></trkpt><trkpt lat="45.81226957341993" lon="9.311013169046037"><ele>262.5</ele><time>2026-04-04T11:07:18Z</time></trkpt><trkpt lat="45.812136044975496" lon="9.311048788513594"><ele>262.0</ele><time>2026-04-04T11:07:19Z</time></trkpt><trkpt lat="45.81200427513141" lon="9.311117021982"><ele>262.0</ele><time>2026-04-04T11:07:20Z</time></trkpt><trkpt lat="45.81188196573153" lon="9.311223668365386"><ele>262.0</ele><time>2026-04-04T11:07:21Z</time></trkpt><trkpt lat="45.81176765446055" lon="9.31135464067318"><ele>262.0</ele><time>2026-04-04T11:07:22Z</time></trkpt><trkpt lat="45.81165935949196" lon="9.311478675936678"><ele>262.0</ele><time>2026-04-04T11:07:23Z</time></trkpt><trkpt lat="45.811556320193944" lon="9.311591797884557"><ele>263.25</ele><time>2026-04-04T11:07:24Z</time></trkpt><trkpt lat="45.81145353954908" lon="9.311699374746986"><ele>264.5</ele><time>2026-04-04T11:07:25Z</time></trkpt><trkpt lat="45.811348279614634" lon="9.311807054333753"><ele>265.75</ele><time>2026-04-04T11:07:26Z</time></trkpt><trkpt lat="45.81123856719669" lon="9.311914404770484"><ele>267.0</ele><time>2026-04-04T11:07:27Z</time></trkpt><trkpt lat="45.81112636167844" lon="9.312031601273228"><ele>267.0</ele><time>2026-04-04T11:07:28Z</time></trkpt><trkpt lat="45.81100481478936" lon="9.312159927741094"><ele>267.0</ele><time>2026-04-04T11:07:29Z</time></trkpt><trkpt lat="45.81085130410357" lon="9.312308264141967"><ele>267.0</ele><time>2026-04-04T11:07:30Z</time></trkpt><trkpt lat="45.81067597435297" lon="9.312483911370574"><ele>266.6666666666667</ele><time>2026-04-04T11:07:31Z</time></trkpt><trkpt lat="45.810486406713665" lon="9.312649981342087"><ele>266.33333333333337</ele><time>2026-04-04T11:07:32Z</time></trkpt><trkpt lat="45.81029725633251" lon="9.31280910785007"><ele>266.0</ele><time>2026-04-04T11:07:33Z</time></trkpt><trkpt lat="45.81012067989417" lon="9.31294141843277"><ele>266.0</ele><time>2026-04-04T11:07:34Z</time></trkpt><trkpt lat="45.809948394502435" lon="9.313044064200875"><ele>266.0</ele><time>2026-04-04T11:07:35Z</time></trkpt><trkpt lat="45.80977387663393" lon="9.313129847164067"><ele>266.0</ele><time>2026-04-04T11:07:36Z</time></trkpt><trkpt lat="45.809604690548575" lon="9.313214506257385"><ele>266.0</ele><time>2026-04-04T11:07:37Z</time></trkpt><trkpt lat="45.80944577267803" lon="9.313293970663581"><ele>266.0</ele><time>2026-04-04T11:07:38Z</time></trkpt><trkpt lat="45.80929328936445" lon="9.31337523962709"><ele>266.0</ele><time>2026-04-04T11:07:39Z</time></trkpt><trkpt lat="45.80914341602867" lon="9.313478594154192"><ele>268.25</ele><time>2026-04-04T11:07:40Z</time></trkpt><trkpt lat="45.809016451419346" lon="9.313588495987304"><ele>270.5</ele><time>2026-04-04T11:07:41Z</time></trkpt><trkpt lat="45.80890940492299" lon="9.313690887439861"><ele>272.75</ele><time>2026-04-04T11:07:42Z</time></trkpt><trkpt lat="45.80881708644366" lon="9.313786420097845"><ele>275.0</ele><time>2026-04-04T11:07:43Z</time></trkpt><trkpt lat="45.80874292145228" lon="9.31387913768441"><ele>273.6666666666667</ele><time>2026-04-04T11:07:44Z</time></trkpt><trkpt lat="45.8086954740694" lon="9.31395005513198"><ele>272.33333333333337</ele><time>2026-04-04T11:07:45Z</time></trkpt><trkpt lat="45.808617130788186" lon="9.314065873596467"><ele>271.0</ele><time>2026-04-04T11:07:47Z</time></trkpt><trkpt lat="45.80854330981288" lon="9.314084082619393"><ele>269.6666666666667</ele><time>2026-04-04T11:07:48Z</time></trkpt><trkpt lat="45.80846597058997" lon="9.314063957016298"><ele>268.3333333333333</ele><time>2026-04-04T11:07:49Z</time></trkpt><trkpt lat="45.80839459344492" lon="9.314017916529867"><ele>267.0</ele><time>2026-04-04T11:07:50Z</time></trkpt><trkpt lat="45.80831229798871" lon="9.31396697913458"><ele>267.0</ele><time>2026-04-04T11:07:51Z</time></trkpt><trkpt lat="45.80821656509125" lon="9.313909833163946"><ele>267.0</ele><time>2026-04-04T11:07:52Z</time></trkpt><trkpt lat="45.808118492723416" lon="9.313850596248036"><ele>267.0</ele><time>2026-04-04T11:07:53Z</time></trkpt><trkpt lat="45.80802722514677" lon="9.313786356265654"><ele>267.0</ele><time>2026-04-04T11:07:54Z</time></trkpt><trkpt lat="45.80795249659889" lon="9.313718646257506"><ele>267.0</ele><time>2026-04-04T11:07:55Z</time></trkpt><trkpt lat="45.8078973975792" lon="9.31364405646026"><ele>267.0</ele><time>2026-04-04T11:07:56Z</time></trkpt><trkpt lat="45.80787417495638" lon="9.313534475981855"><ele>267.0</ele><time>2026-04-04T11:07:57Z</time></trkpt><trkpt lat="45.80784016430126" lon="9.313426934147184"><ele>267.0</ele><time>2026-04-04T11:07:58Z</time></trkpt><trkpt lat="45.80777819388873" lon="9.313365006803314"><ele>267.0</ele><time>2026-04-04T11:07:59Z</time></trkpt><trkpt lat="45.80769873452638" lon="9.313325310287308"><ele>267.0</ele><time>2026-04-04T11:07:59.999Z</time></trkpt><trkpt lat="45.80760782345966" lon="9.313280645268009"><ele>267.0</ele><time>2026-04-04T11:08:00.999Z</time></trkpt><trkpt lat="45.807522745698144" lon="9.313208501429298"><ele>266.25</ele><time>2026-04-04T11:08:01.999Z</time></trkpt><trkpt lat="45.80743444618884" lon="9.313125586423038"><ele>265.5</ele><time>2026-04-04T11:08:02.999Z</time></trkpt><trkpt lat="45.80732756573863" lon="9.313078786371245"><ele>264.75</ele><time>2026-04-04T11:08:03.999Z</time></trkpt><trkpt lat="45.807211950305934" lon="9.313074347657457"><ele>264.0</ele><time>2026-04-04T11:08:04.999Z</time></trkpt><trkpt lat="45.807091944073456" lon="9.31308323249475"><ele>264.0</ele><time>2026-04-04T11:08:05.999Z</time></trkpt><trkpt lat="45.806973876290364" lon="9.313099767922816"><ele>264.0</ele><time>2026-04-04T11:08:06.999Z</time></trkpt><trkpt lat="45.80685535756276" lon="9.313097209387319"><ele>264.0</ele><time>2026-04-04T11:08:07.999Z</time></trkpt><trkpt lat="45.80673435945013" lon="9.313056124651705"><ele>264.0</ele><time>2026-04-04T11:08:08.999Z</time></trkpt><trkpt lat="45.806607750803295" lon="9.312983441570525"><ele>263.75</ele><time>2026-04-04T11:08:09.999Z</time></trkpt><trkpt lat="45.80649050913424" lon="9.312889195305372"><ele>263.5</ele><time>2026-04-04T11:08:10.999Z</time></trkpt><trkpt lat="45.80638150918982" lon="9.312776880191004"><ele>263.25</ele><time>2026-04-04T11:08:11.999Z</time></trkpt><trkpt lat="45.80625774487126" lon="9.312676506474023"><ele>263.0</ele><time>2026-04-04T11:08:12.999Z</time></trkpt><trkpt lat="45.80608736406886" lon="9.31256278807648"><ele>262.5</ele><time>2026-04-04T11:08:13.999Z</time></trkpt><trkpt lat="45.80587814060676" lon="9.312401922506028"><ele>262.0</ele><time>2026-04-04T11:08:14.999Z</time></trkpt><trkpt lat="45.80564243732693" lon="9.312174733843225"><ele>263.5</ele><time>2026-04-04T11:08:15.999Z</time></trkpt><trkpt lat="45.80539084082707" lon="9.311922944899841"><ele>265.0</ele><time>2026-04-04T11:08:16.999Z</time></trkpt><trkpt lat="45.80511750935392" lon="9.311654179200591"><ele>266.0</ele><time>2026-04-04T11:08:17.999Z</time></trkpt><trkpt lat="45.80482855396469" lon="9.311376450218019"><ele>267.0</ele><time>2026-04-04T11:08:18.999Z</time></trkpt><trkpt lat="45.80453196231742" lon="9.311086283821856"><ele>267.0</ele><time>2026-04-04T11:08:19.999Z</time></trkpt><trkpt lat="45.804233186176" lon="9.310800304543385"><ele>267.0</ele><time>2026-04-04T11:08:20.999Z</time></trkpt><trkpt lat="45.80393305025873" lon="9.310516156907685"><ele>267.0</ele><time>2026-04-04T11:08:21.999Z</time></trkpt><trkpt lat="45.80363555113287" lon="9.310238209198967"><ele>267.0</ele><time>2026-04-04T11:08:22.999Z</time></trkpt><trkpt lat="45.80334501283556" lon="9.30996791681785"><ele>265.5</ele><time>2026-04-04T11:08:23.999Z</time></trkpt><trkpt lat="45.80306190743522" lon="9.309702533768398"><ele>264.0</ele><time>2026-04-04T11:08:24.999Z</time></trkpt><trkpt lat="45.80278086923553" lon="9.309431597583892"><ele>264.0</ele><time>2026-04-04T11:08:25.999Z</time></trkpt><trkpt lat="45.80250863763355" lon="9.309145067411752"><ele>264.0</ele><time>2026-04-04T11:08:26.999Z</time></trkpt><trkpt lat="45.802237662413155" lon="9.30885771837832"><ele>264.5</ele><time>2026-04-04T11:08:27.999Z</time></trkpt><trkpt lat="45.80194820033451" lon="9.308575993994214"><ele>265.0</ele><time>2026-04-04T11:08:28.999Z</time></trkpt><trkpt lat="45.80164617058278" lon="9.308296546384232"><ele>264.0</ele><time>2026-04-04T11:08:29.999Z</time></trkpt><trkpt lat="45.80135076359856" lon="9.308020806645974"><ele>263.0</ele><time>2026-04-04T11:08:30.999Z</time></trkpt><trkpt lat="45.80105698694737" lon="9.307744355929156"><ele>263.0</ele><time>2026-04-04T11:08:31.999Z</time></trkpt><trkpt lat="45.80077059165086" lon="9.307469110869595"><ele>263.0</ele><time>2026-04-04T11:08:32.999Z</time></trkpt><trkpt lat="45.80047598046289" lon="9.307191947300455"><ele>262.5</ele><time>2026-04-04T11:08:33.999Z</time></trkpt><trkpt lat="45.80018027387472" lon="9.306908555734026"><ele>262.0</ele><time>2026-04-04T11:08:34.999Z</time></trkpt><trkpt lat="45.79988312990479" lon="9.306627790286047"><ele>262.5</ele><time>2026-04-04T11:08:35.999Z</time></trkpt><trkpt lat="45.79958540558565" lon="9.306348041858916"><ele>263.0</ele><time>2026-04-04T11:08:36.999Z</time></trkpt><trkpt lat="45.799284424438774" lon="9.306081537612815"><ele>263.5</ele><time>2026-04-04T11:08:37.999Z</time></trkpt><trkpt lat="45.79897999551711" lon="9.30580804893121"><ele>264.0</ele><time>2026-04-04T11:08:38.999Z</time></trkpt><trkpt lat="45.79869304593233" lon="9.305537900079326"><ele>264.0</ele><time>2026-04-04T11:08:39.999Z</time></trkpt><trkpt lat="45.79842449781092" lon="9.305276164011083"><ele>264.0</ele><time>2026-04-04T11:08:40.999Z</time></trkpt><trkpt lat="45.79816147744312" lon="9.305025514871623"><ele>264.0</ele><time>2026-04-04T11:08:41.999Z</time></trkpt><trkpt lat="45.79789808291065" lon="9.304777784575792"><ele>264.0</ele><time>2026-04-04T11:08:42.999Z</time></trkpt><trkpt lat="45.797633508530545" lon="9.304526305405625"><ele>265.5</ele><time>2026-04-04T11:08:43.999Z</time></trkpt><trkpt lat="45.79736859080745" lon="9.304273254970104"><ele>267.0</ele><time>2026-04-04T11:08:44.999Z</time></trkpt><trkpt lat="45.79710719653582" lon="9.304023835379752"><ele>268.0</ele><time>2026-04-04T11:08:45.999Z</time></trkpt><trkpt lat="45.796849549785136" lon="9.303774659176035"><ele>269.0</ele><time>2026-04-04T11:08:46.999Z</time></trkpt><trkpt lat="45.796595155723146" lon="9.303527529579108"><ele>269.0</ele><time>2026-04-04T11:08:47.999Z</time></trkpt><trkpt lat="45.79634683260703" lon="9.30329266281499"><ele>269.0</ele><time>2026-04-04T11:08:48.999Z</time></trkpt><trkpt lat="45.79611439869893" lon="9.303071815369298"><ele>272.0</ele><time>2026-04-04T11:08:49.999Z</time></trkpt><trkpt lat="45.79587877691571" lon="9.302851432431046"><ele>275.0</ele><time>2026-04-04T11:08:50.999Z</time></trkpt><trkpt lat="45.79563630778478" lon="9.30261730807322"><ele>275.0</ele><time>2026-04-04T11:08:51.999Z</time></trkpt><trkpt lat="45.795390450334345" lon="9.302380020692514"><ele>275.0</ele><time>2026-04-04T11:08:52.999Z</time></trkpt><trkpt lat="45.79514079763886" lon="9.3021387443984"><ele>275.0</ele><time>2026-04-04T11:08:53.999Z</time></trkpt><trkpt lat="45.79489062752504" lon="9.301892984115163"><ele>275.0</ele><time>2026-04-04T11:08:54.999Z</time></trkpt><trkpt lat="45.794621815862385" lon="9.301640610104057"><ele>275.5</ele><time>2026-04-04T11:08:55.999Z</time></trkpt><trkpt lat="45.794349658315376" lon="9.301383508164967"><ele>276.0</ele><time>2026-04-04T11:08:56.999Z</time></trkpt><trkpt lat="45.794066866588956" lon="9.301115635809971"><ele>276.0</ele><time>2026-04-04T11:08:57.999Z</time></trkpt><trkpt lat="45.793777571818" lon="9.300840920728161"><ele>276.0</ele><time>2026-04-04T11:08:58.999Z</time></trkpt><trkpt lat="45.79348589261473" lon="9.30056301108425"><ele>276.0</ele><time>2026-04-04T11:08:59.999Z</time></trkpt><trkpt lat="45.79318758236021" lon="9.30028739213951"><ele>276.0</ele><time>2026-04-04T11:09:00.999Z</time></trkpt><trkpt lat="45.79287283091492" lon="9.300029506306544"><ele>275.0</ele><time>2026-04-04T11:09:01.999Z</time></trkpt><trkpt lat="45.79254901040918" lon="9.299803252791984"><ele>274.0</ele><time>2026-04-04T11:09:02.999Z</time></trkpt><trkpt lat="45.79222925104301" lon="9.299598237423552"><ele>274.0</ele><time>2026-04-04T11:09:03.999Z</time></trkpt><trkpt lat="45.791914957049954" lon="9.299397917398956"><ele>274.0</ele><time>2026-04-04T11:09:04.999Z</time></trkpt><trkpt lat="45.79161799332889" lon="9.299203888204918"><ele>275.5</ele><time>2026-04-04T11:09:05.999Z</time></trkpt><trkpt lat="45.79134182406654" lon="9.299022023885993"><ele>277.0</ele><time>2026-04-04T11:09:06.999Z</time></trkpt><trkpt lat="45.79107236702906" lon="9.298842961967962"><ele>275.0</ele><time>2026-04-04T11:09:08Z</time></trkpt><trkpt lat="45.790790972416055" lon="9.298657407185432"><ele>273.0</ele><time>2026-04-04T11:09:09Z</time></trkpt><trkpt lat="45.79050334125146" lon="9.298463041413441"><ele>273.0</ele><time>2026-04-04T11:09:10Z</time></trkpt><trkpt lat="45.7902204476083" lon="9.29827222285529"><ele>273.0</ele><time>2026-04-04T11:09:11Z</time></trkpt><trkpt lat="45.78995068505206" lon="9.298087391603568"><ele>274.5</ele><time>2026-04-04T11:09:12Z</time></trkpt><trkpt lat="45.78968341923711" lon="9.297899820591224"><ele>276.0</ele><time>2026-04-04T11:09:13Z</time></trkpt><trkpt lat="45.78941569906814" lon="9.29771718093919"><ele>274.0</ele><time>2026-04-04T11:09:14Z</time></trkpt><trkpt lat="45.789144884971414" lon="9.297535481704644"><ele>272.0</ele><time>2026-04-04T11:09:15Z</time></trkpt><trkpt lat="45.7888837607127" lon="9.297365543516898"><ele>272.0</ele><time>2026-04-04T11:09:16Z</time></trkpt><trkpt lat="45.78863635705045" lon="9.297199156966991"><ele>272.0</ele><time>2026-04-04T11:09:17Z</time></trkpt><trkpt lat="45.788389460241476" lon="9.297032118577471"><ele>272.0</ele><time>2026-04-04T11:09:18Z</time></trkpt><trkpt lat="45.78814501833243" lon="9.296867750304655"><ele>272.0</ele><time>2026-04-04T11:09:19Z</time></trkpt><trkpt lat="45.787902313978556" lon="9.29671302365989"><ele>269.5</ele><time>2026-04-04T11:09:20Z</time></trkpt><trkpt lat="45.7876711145057" lon="9.296560899971931"><ele>267.0</ele><time>2026-04-04T11:09:21Z</time></trkpt><trkpt lat="45.78743744793864" lon="9.296409833761933"><ele>267.0</ele><time>2026-04-04T11:09:22Z</time></trkpt><trkpt lat="45.78720313343929" lon="9.29625833842377"><ele>267.0</ele><time>2026-04-04T11:09:23Z</time></trkpt><trkpt lat="45.78696554192873" lon="9.296101630693425"><ele>266.5</ele><time>2026-04-04T11:09:24Z</time></trkpt><trkpt lat="45.786728443663854" lon="9.295948374641348"><ele>266.0</ele><time>2026-04-04T11:09:25Z</time></trkpt><trkpt lat="45.78648531047032" lon="9.295796229927044"><ele>266.0</ele><time>2026-04-04T11:09:26Z</time></trkpt><trkpt lat="45.78624221744156" lon="9.295640392211329"><ele>266.0</ele><time>2026-04-04T11:09:27Z</time></trkpt><trkpt lat="45.78599771185669" lon="9.295482399377022"><ele>265.5</ele><time>2026-04-04T11:09:28Z</time></trkpt><trkpt lat="45.7857462203657" lon="9.29531841656383"><ele>265.0</ele><time>2026-04-04T11:09:29Z</time></trkpt><trkpt lat="45.78548777258267" lon="9.29515230882015"><ele>265.0</ele><time>2026-04-04T11:09:30Z</time></trkpt><trkpt lat="45.785219239864176" lon="9.294980963899883"><ele>265.0</ele><time>2026-04-04T11:09:31Z</time></trkpt><trkpt lat="45.784960021086924" lon="9.294809864952226"><ele>267.5</ele><time>2026-04-04T11:09:32Z</time></trkpt><trkpt lat="45.78472555029698" lon="9.29465226218065"><ele>270.0</ele><time>2026-04-04T11:09:33Z</time></trkpt><trkpt lat="45.784507613834954" lon="9.294502159857588"><ele>270.5</ele><time>2026-04-04T11:09:34Z</time></trkpt><trkpt lat="45.78428995256879" lon="9.294336366804107"><ele>271.0</ele><time>2026-04-04T11:09:35Z</time></trkpt><trkpt lat="45.7840685732306" lon="9.294164679302682"><ele>271.0</ele><time>2026-04-04T11:09:36Z</time></trkpt><trkpt lat="45.783843426731906" lon="9.294000559945445"><ele>271.0</ele><time>2026-04-04T11:09:37Z</time></trkpt><trkpt lat="45.78363462068948" lon="9.293850463605125"><ele>272.0</ele><time>2026-04-04T11:09:38Z</time></trkpt><trkpt lat="45.78341710960755" lon="9.293698283549068"><ele>273.0</ele><time>2026-04-04T11:09:39Z</time></trkpt><trkpt lat="45.78319102414017" lon="9.293540310702856"><ele>273.0</ele><time>2026-04-04T11:09:40Z</time></trkpt><trkpt lat="45.78294931529859" lon="9.293362141594377"><ele>273.0</ele><time>2026-04-04T11:09:41Z</time></trkpt><trkpt lat="45.78269969850055" lon="9.293188951552715"><ele>271.5</ele><time>2026-04-04T11:09:42Z</time></trkpt><trkpt lat="45.78245373238593" lon="9.293028010126744"><ele>270.0</ele><time>2026-04-04T11:09:43Z</time></trkpt><trkpt lat="45.78221492715522" lon="9.292884171679285"><ele>270.0</ele><time>2026-04-04T11:09:44Z</time></trkpt><trkpt lat="45.78199110120921" lon="9.29275530826305"><ele>270.0</ele><time>2026-04-04T11:09:45Z</time></trkpt><trkpt lat="45.781771271024674" lon="9.292614749167585"><ele>269.5</ele><time>2026-04-04T11:09:46Z</time></trkpt><trkpt lat="45.78154488187882" lon="9.29246250576244"><ele>269.0</ele><time>2026-04-04T11:09:47Z</time></trkpt><trkpt lat="45.781312035623046" lon="9.292308246502653"><ele>269.0</ele><time>2026-04-04T11:09:48Z</time></trkpt><trkpt lat="45.78107534774661" lon="9.292150895733748"><ele>269.0</ele><time>2026-04-04T11:09:49Z</time></trkpt><trkpt lat="45.78083642362333" lon="9.291991285482386"><ele>267.0</ele><time>2026-04-04T11:09:50Z</time></trkpt><trkpt lat="45.78059820890156" lon="9.291834643111288"><ele>265.0</ele><time>2026-04-04T11:09:51Z</time></trkpt><trkpt lat="45.78035050691513" lon="9.291682076193208"><ele>264.0</ele><time>2026-04-04T11:09:52Z</time></trkpt><trkpt lat="45.7800841453107" lon="9.291504977016668"><ele>263.0</ele><time>2026-04-04T11:09:53Z</time></trkpt><trkpt lat="45.77980385915593" lon="9.291310709257992"><ele>263.0</ele><time>2026-04-04T11:09:54Z</time></trkpt><trkpt lat="45.77951256246095" lon="9.291114052088968"><ele>263.0</ele><time>2026-04-04T11:09:55Z</time></trkpt><trkpt lat="45.77921719826011" lon="9.290919201236875"><ele>263.0</ele><time>2026-04-04T11:09:56Z</time></trkpt><trkpt lat="45.77892048106739" lon="9.290723149013198"><ele>263.0</ele><time>2026-04-04T11:09:57Z</time></trkpt><trkpt lat="45.77862005518056" lon="9.290519068674389"><ele>263.5</ele><time>2026-04-04T11:09:58Z</time></trkpt><trkpt lat="45.778324880266375" lon="9.290310815959087"><ele>264.0</ele><time>2026-04-04T11:09:59Z</time></trkpt><trkpt lat="45.7780239326466" lon="9.29010423849338"><ele>264.0</ele><time>2026-04-04T11:10:00Z</time></trkpt><trkpt lat="45.77772270657264" lon="9.289897959006575"><ele>264.0</ele><time>2026-04-04T11:10:01Z</time></trkpt><trkpt lat="45.77742172089313" lon="9.289696078761041"><ele>264.0</ele><time>2026-04-04T11:10:02Z</time></trkpt><trkpt lat="45.777118703616665" lon="9.289496496077513"><ele>264.0</ele><time>2026-04-04T11:10:03Z</time></trkpt><trkpt lat="45.77681057216607" lon="9.289299062802156"><ele>264.0</ele><time>2026-04-04T11:10:04Z</time></trkpt><trkpt lat="45.77650199604273" lon="9.289094175214784"><ele>264.0</ele><time>2026-04-04T11:10:05Z</time></trkpt><trkpt lat="45.77618774438714" lon="9.288899335887109"><ele>264.5</ele><time>2026-04-04T11:10:05.999Z</time></trkpt><trkpt lat="45.775863902021904" lon="9.288737051648631"><ele>265.0</ele><time>2026-04-04T11:10:06.999Z</time></trkpt><trkpt lat="45.77553372973497" lon="9.28859929763387"><ele>265.0</ele><time>2026-04-04T11:10:07.999Z</time></trkpt><trkpt lat="45.7752059257103" lon="9.288486877766935"><ele>265.0</ele><time>2026-04-04T11:10:08.999Z</time></trkpt><trkpt lat="45.774871753230656" lon="9.288393532837945"><ele>266.0</ele><time>2026-04-04T11:10:09.999Z</time></trkpt><trkpt lat="45.77453429569744" lon="9.28833256412473"><ele>267.0</ele><time>2026-04-04T11:10:10.999Z</time></trkpt><trkpt lat="45.77419920571782" lon="9.288302566133884"><ele>267.0</ele><time>2026-04-04T11:10:11.999Z</time></trkpt><trkpt lat="45.77385545271636" lon="9.288285247174757"><ele>267.0</ele><time>2026-04-04T11:10:12.999Z</time></trkpt><trkpt lat="45.77351486395302" lon="9.288274911246964"><ele>267.0</ele><time>2026-04-04T11:10:13.999Z</time></trkpt><trkpt lat="45.77317289853473" lon="9.28825685571415"><ele>267.0</ele><time>2026-04-04T11:10:14.999Z</time></trkpt><trkpt lat="45.77283385068158" lon="9.288233605075902"><ele>267.0</ele><time>2026-04-04T11:10:15.999Z</time></trkpt><trkpt lat="45.77249050349753" lon="9.288212007961281"><ele>267.0</ele><time>2026-04-04T11:10:16.999Z</time></trkpt><trkpt lat="45.77214331019911" lon="9.28818294547175"><ele>268.0</ele><time>2026-04-04T11:10:17.999Z</time></trkpt><trkpt lat="45.771786626339306" lon="9.288151782764391"><ele>269.0</ele><time>2026-04-04T11:10:18.999Z</time></trkpt><trkpt lat="45.771415813135114" lon="9.288129019035999"><ele>269.0</ele><time>2026-04-04T11:10:19.999Z</time></trkpt><trkpt lat="45.77103323597776" lon="9.288113048955253"><ele>269.0</ele><time>2026-04-04T11:10:20.999Z</time></trkpt><trkpt lat="45.770647263662894" lon="9.288088679075129"><ele>269.0</ele><time>2026-04-04T11:10:21.999Z</time></trkpt><trkpt lat="45.77026475515428" lon="9.288063893152282"><ele>269.0</ele><time>2026-04-04T11:10:22.999Z</time></trkpt><trkpt lat="45.76988060267216" lon="9.288041447928661"><ele>270.0</ele><time>2026-04-04T11:10:23.999Z</time></trkpt><trkpt lat="45.76949378200576" lon="9.288019219724996"><ele>271.0</ele><time>2026-04-04T11:10:24.999Z</time></trkpt><trkpt lat="45.76911396125905" lon="9.287993032460175"><ele>272.5</ele><time>2026-04-04T11:10:25.999Z</time></trkpt><trkpt lat="45.768730880682675" lon="9.287968849728072"><ele>274.0</ele><time>2026-04-04T11:10:26.999Z</time></trkpt><trkpt lat="45.768347411468866" lon="9.287943584025985"><ele>276.0</ele><time>2026-04-04T11:10:27.999Z</time></trkpt><trkpt lat="45.767962393151514" lon="9.287922378635672"><ele>278.0</ele><time>2026-04-04T11:10:28.999Z</time></trkpt><trkpt lat="45.76758511417852" lon="9.287896433361636"><ele>279.5</ele><time>2026-04-04T11:10:29.999Z</time></trkpt><trkpt lat="45.76720589142748" lon="9.287872381537241"><ele>281.0</ele><time>2026-04-04T11:10:30.999Z</time></trkpt><trkpt lat="45.766824773501234" lon="9.287852221815731"><ele>285.5</ele><time>2026-04-04T11:10:31.999Z</time></trkpt><trkpt lat="45.76645020234294" lon="9.287834708465668"><ele>290.0</ele><time>2026-04-04T11:10:32.999Z</time></trkpt><trkpt lat="45.766085000430536" lon="9.287817325344344"><ele>291.0</ele><time>2026-04-04T11:10:33.999Z</time></trkpt><trkpt lat="45.76572185541249" lon="9.287795414557376"><ele>292.0</ele><time>2026-04-04T11:10:34.999Z</time></trkpt><trkpt lat="45.76536774408833" lon="9.287758659318891"><ele>292.0</ele><time>2026-04-04T11:10:35.999Z</time></trkpt><trkpt lat="45.765023444830575" lon="9.287701037794411"><ele>292.0</ele><time>2026-04-04T11:10:36.999Z</time></trkpt><trkpt lat="45.76469402430374" lon="9.28760780895747"><ele>292.0</ele><time>2026-04-04T11:10:37.999Z</time></trkpt><trkpt lat="45.76437912662093" lon="9.287484147016466"><ele>292.0</ele><time>2026-04-04T11:10:38.999Z</time></trkpt><trkpt lat="45.76407953362107" lon="9.287341157403459"><ele>294.0</ele><time>2026-04-04T11:10:39.999Z</time></trkpt><trkpt lat="45.76380273800306" lon="9.287175431419362"><ele>296.0</ele><time>2026-04-04T11:10:40.999Z</time></trkpt><trkpt lat="45.76353131440189" lon="9.286964279776125"><ele>295.5</ele><time>2026-04-04T11:10:41.999Z</time></trkpt><trkpt lat="45.76327772271914" lon="9.286709805304662"><ele>295.0</ele><time>2026-04-04T11:10:42.999Z</time></trkpt><trkpt lat="45.763033673983834" lon="9.286437047404087"><ele>293.5</ele><time>2026-04-04T11:10:43.999Z</time></trkpt><trkpt lat="45.76279027611471" lon="9.28614634508772"><ele>292.0</ele><time>2026-04-04T11:10:44.999Z</time></trkpt><trkpt lat="45.76256393607052" lon="9.285840914156926"><ele>293.0</ele><time>2026-04-04T11:10:45.999Z</time></trkpt><trkpt lat="45.762355442226145" lon="9.28551428355146"><ele>294.0</ele><time>2026-04-04T11:10:46.999Z</time></trkpt><trkpt lat="45.76215813425314" lon="9.285172052305672"><ele>294.0</ele><time>2026-04-04T11:10:47.999Z</time></trkpt><trkpt lat="45.76197521462982" lon="9.28480348304791"><ele>294.0</ele><time>2026-04-04T11:10:48.999Z</time></trkpt><trkpt lat="45.761824043661" lon="9.284429893896844"><ele>296.0</ele><time>2026-04-04T11:10:49.999Z</time></trkpt><trkpt lat="45.761697406514884" lon="9.284080515812688"><ele>298.0</ele><time>2026-04-04T11:10:50.999Z</time></trkpt><trkpt lat="45.76157032633544" lon="9.283762597817294"><ele>298.0</ele><time>2026-04-04T11:10:51.999Z</time></trkpt><trkpt lat="45.76143774540357" lon="9.283450290571494"><ele>298.0</ele><time>2026-04-04T11:10:52.999Z</time></trkpt><trkpt lat="45.761301062641984" lon="9.283120932053114"><ele>299.5</ele><time>2026-04-04T11:10:53.999Z</time></trkpt><trkpt lat="45.76115432366294" lon="9.282787568796643"><ele>301.0</ele><time>2026-04-04T11:10:54.999Z</time></trkpt><trkpt lat="45.760989432982704" lon="9.282437276759394"><ele>301.5</ele><time>2026-04-04T11:10:55.999Z</time></trkpt><trkpt lat="45.76082398685533" lon="9.282069170779943"><ele>302.0</ele><time>2026-04-04T11:10:56.999Z</time></trkpt><trkpt lat="45.760674069225345" lon="9.281714037668129"><ele>299.0</ele><time>2026-04-04T11:10:57.999Z</time></trkpt><trkpt lat="45.760526577420585" lon="9.281349317243198"><ele>296.0</ele><time>2026-04-04T11:10:58.999Z</time></trkpt><trkpt lat="45.76037079340216" lon="9.280972899799611"><ele>296.0</ele><time>2026-04-04T11:10:59.999Z</time></trkpt><trkpt lat="45.76021551900352" lon="9.280602387618568"><ele>296.0</ele><time>2026-04-04T11:11:00.999Z</time></trkpt><trkpt lat="45.76005466506198" lon="9.280214673945899"><ele>295.5</ele><time>2026-04-04T11:11:01.999Z</time></trkpt><trkpt lat="45.75988398394308" lon="9.27980609315651"><ele>295.0</ele><time>2026-04-04T11:11:02.999Z</time></trkpt><trkpt lat="45.759709250647546" lon="9.279385888026782"><ele>294.0</ele><time>2026-04-04T11:11:03.999Z</time></trkpt><trkpt lat="45.759531781244206" lon="9.278962404199717"><ele>293.0</ele><time>2026-04-04T11:11:04.999Z</time></trkpt><trkpt lat="45.75935699110864" lon="9.278541406508424"><ele>292.5</ele><time>2026-04-04T11:11:05.999Z</time></trkpt><trkpt lat="45.75917938671921" lon="9.278113466959914"><ele>292.0</ele><time>2026-04-04T11:11:06.999Z</time></trkpt><trkpt lat="45.759001101289286" lon="9.277688100333942"><ele>291.0</ele><time>2026-04-04T11:11:07.999Z</time></trkpt><trkpt lat="45.75882542140844" lon="9.277277634944035"><ele>290.0</ele><time>2026-04-04T11:11:08.999Z</time></trkpt><trkpt lat="45.75863359366674" lon="9.276871555280648"><ele>290.5</ele><time>2026-04-04T11:11:09.999Z</time></trkpt><trkpt lat="45.75841903694962" lon="9.276484294415225"><ele>291.0</ele><time>2026-04-04T11:11:10.999Z</time></trkpt><trkpt lat="45.75818989052994" lon="9.276123041500172"><ele>288.5</ele><time>2026-04-04T11:11:11.999Z</time></trkpt><trkpt lat="45.75795040056023" lon="9.275774294414571"><ele>286.0</ele><time>2026-04-04T11:11:12.999Z</time></trkpt><trkpt lat="45.757700598702236" lon="9.275408693462278"><ele>284.0</ele><time>2026-04-04T11:11:14Z</time></trkpt><trkpt lat="45.75745953943533" lon="9.275018462145376"><ele>282.0</ele><time>2026-04-04T11:11:15Z</time></trkpt><trkpt lat="45.75722770238809" lon="9.274601198592519"><ele>281.0</ele><time>2026-04-04T11:11:16Z</time></trkpt><trkpt lat="45.75698279245001" lon="9.274163019042831"><ele>280.0</ele><time>2026-04-04T11:11:17Z</time></trkpt><trkpt lat="45.756714301406646" lon="9.273738028494188"><ele>280.0</ele><time>2026-04-04T11:11:18Z</time></trkpt><trkpt lat="45.75643284998942" lon="9.273331619979391"><ele>280.0</ele><time>2026-04-04T11:11:19Z</time></trkpt><trkpt lat="45.756153148643584" lon="9.272923605505998"><ele>279.0</ele><time>2026-04-04T11:11:20Z</time></trkpt><trkpt lat="45.75587505228728" lon="9.272509270102605"><ele>278.0</ele><time>2026-04-04T11:11:21Z</time></trkpt><trkpt lat="45.75559669142497" lon="9.272097149775638"><ele>278.0</ele><time>2026-04-04T11:11:22Z</time></trkpt><trkpt lat="45.75530867161031" lon="9.271699160464198"><ele>278.0</ele><time>2026-04-04T11:11:23Z</time></trkpt><trkpt lat="45.75501032441786" lon="9.27131302207267"><ele>276.5</ele><time>2026-04-04T11:11:24Z</time></trkpt><trkpt lat="45.754716512389045" lon="9.270921507668945"><ele>275.0</ele><time>2026-04-04T11:11:25Z</time></trkpt><trkpt lat="45.75443120361103" lon="9.270517436010898"><ele>275.5</ele><time>2026-04-04T11:11:26Z</time></trkpt><trkpt lat="45.754156377730006" lon="9.270097945534662"><ele>276.0</ele><time>2026-04-04T11:11:27Z</time></trkpt><trkpt lat="45.75388224154548" lon="9.269671581257905"><ele>276.0</ele><time>2026-04-04T11:11:28Z</time></trkpt><trkpt lat="45.75360620042652" lon="9.269252415389397"><ele>276.0</ele><time>2026-04-04T11:11:29Z</time></trkpt><trkpt lat="45.75332556376217" lon="9.268832711525336"><ele>276.0</ele><time>2026-04-04T11:11:30Z</time></trkpt><trkpt lat="45.753048460869216" lon="9.268414128083569"><ele>276.0</ele><time>2026-04-04T11:11:31Z</time></trkpt><trkpt lat="45.75276917471304" lon="9.268002944821868"><ele>275.5</ele><time>2026-04-04T11:11:32Z</time></trkpt><trkpt lat="45.75249088307798" lon="9.267577792777615"><ele>275.0</ele><time>2026-04-04T11:11:33Z</time></trkpt><trkpt lat="45.75221723075909" lon="9.267163978493853"><ele>277.5</ele><time>2026-04-04T11:11:34Z</time></trkpt><trkpt lat="45.75195492205451" lon="9.266780495312076"><ele>280.0</ele><time>2026-04-04T11:11:35Z</time></trkpt><trkpt lat="45.75169549354832" lon="9.266439898498431"><ele>282.5</ele><time>2026-04-04T11:11:36Z</time></trkpt><trkpt lat="45.751440845644446" lon="9.266134585426876"><ele>285.0</ele><time>2026-04-04T11:11:37Z</time></trkpt><trkpt lat="45.75117592984918" lon="9.265846732273078"><ele>283.0</ele><time>2026-04-04T11:11:38Z</time></trkpt><trkpt lat="45.75091565110971" lon="9.265555850077563"><ele>281.0</ele><time>2026-04-04T11:11:39Z</time></trkpt><trkpt lat="45.75065080766386" lon="9.265258798306704"><ele>281.0</ele><time>2026-04-04T11:11:40Z</time></trkpt><trkpt lat="45.75037234468566" lon="9.264951859353554"><ele>281.0</ele><time>2026-04-04T11:11:41Z</time></trkpt><trkpt lat="45.75009387877252" lon="9.264643515344126"><ele>272.5</ele><time>2026-04-04T11:11:42Z</time></trkpt><trkpt lat="45.749826486747224" lon="9.264346948236609"><ele>264.0</ele><time>2026-04-04T11:11:43Z</time></trkpt><trkpt lat="45.749566536417966" lon="9.26405176995408"><ele>262.5</ele><time>2026-04-04T11:11:44Z</time></trkpt><trkpt lat="45.74930106760763" lon="9.263748396579077"><ele>261.0</ele><time>2026-04-04T11:11:45Z</time></trkpt><trkpt lat="45.74903162595643" lon="9.263446176524253"><ele>261.0</ele><time>2026-04-04T11:11:46Z</time></trkpt><trkpt lat="45.74876690843943" lon="9.263146393226153"><ele>261.0</ele><time>2026-04-04T11:11:47Z</time></trkpt><trkpt lat="45.748519484463635" lon="9.262874208397815"><ele>261.0</ele><time>2026-04-04T11:11:48Z</time></trkpt><trkpt lat="45.74829107662143" lon="9.262616015074345"><ele>261.0</ele><time>2026-04-04T11:11:49Z</time></trkpt><trkpt lat="45.74806969530952" lon="9.262367113747539"><ele>261.5</ele><time>2026-04-04T11:11:50Z</time></trkpt><trkpt lat="45.74784058045773" lon="9.26211387574905"><ele>262.0</ele><time>2026-04-04T11:11:51Z</time></trkpt><trkpt lat="45.74760005785238" lon="9.261851961294127"><ele>262.0</ele><time>2026-04-04T11:11:52Z</time></trkpt><trkpt lat="45.747360521019125" lon="9.261584508457188"><ele>262.0</ele><time>2026-04-04T11:11:53Z</time></trkpt><trkpt lat="45.747118336254594" lon="9.26131726328288"><ele>260.0</ele><time>2026-04-04T11:11:54Z</time></trkpt><trkpt lat="45.746880729544465" lon="9.261051701846306"><ele>258.0</ele><time>2026-04-04T11:11:55Z</time></trkpt><trkpt lat="45.74664407299574" lon="9.260786202067326"><ele>257.0</ele><time>2026-04-04T11:11:56Z</time></trkpt><trkpt lat="45.74641080523677" lon="9.260528817798987"><ele>256.0</ele><time>2026-04-04T11:11:57Z</time></trkpt><trkpt lat="45.74617798221608" lon="9.260273863905583"><ele>256.0</ele><time>2026-04-04T11:11:58Z</time></trkpt><trkpt lat="45.7459431389586" lon="9.260013370229032"><ele>256.0</ele><time>2026-04-04T11:11:59Z</time></trkpt><trkpt lat="45.74571895622146" lon="9.259752707326118"><ele>256.0</ele><time>2026-04-04T11:12:00Z</time></trkpt><trkpt lat="45.74549928775989" lon="9.259489487378325"><ele>256.0</ele><time>2026-04-04T11:12:01Z</time></trkpt><trkpt lat="45.745281251543915" lon="9.259234015149321"><ele>257.0</ele><time>2026-04-04T11:12:02Z</time></trkpt><trkpt lat="45.745069184035415" lon="9.258995619759396"><ele>258.0</ele><time>2026-04-04T11:12:03Z</time></trkpt><trkpt lat="45.74486866884842" lon="9.258778328425914"><ele>258.0</ele><time>2026-04-04T11:12:04Z</time></trkpt><trkpt lat="45.744651360299514" lon="9.25855088978612"><ele>258.0</ele><time>2026-04-04T11:12:05Z</time></trkpt><trkpt lat="45.74441934290524" lon="9.258299905503367"><ele>257.5</ele><time>2026-04-04T11:12:06Z</time></trkpt><trkpt lat="45.74418735057954" lon="9.258045144090353"><ele>257.0</ele><time>2026-04-04T11:12:07Z</time></trkpt><trkpt lat="45.74394505872526" lon="9.25777694179046"><ele>257.0</ele><time>2026-04-04T11:12:08Z</time></trkpt><trkpt lat="45.743699780646864" lon="9.257496480270698"><ele>257.0</ele><time>2026-04-04T11:12:09Z</time></trkpt><trkpt lat="45.743454215462755" lon="9.257219457329356"><ele>256.5</ele><time>2026-04-04T11:12:10Z</time></trkpt><trkpt lat="45.743214619581174" lon="9.256950385243325"><ele>256.0</ele><time>2026-04-04T11:12:11Z</time></trkpt><trkpt lat="45.7429842125451" lon="9.256693821597695"><ele>255.0</ele><time>2026-04-04T11:12:12Z</time></trkpt><trkpt lat="45.74275535980221" lon="9.256441124320377"><ele>254.0</ele><time>2026-04-04T11:12:13Z</time></trkpt><trkpt lat="45.74253075354062" lon="9.256194048628466"><ele>254.0</ele><time>2026-04-04T11:12:14Z</time></trkpt><trkpt lat="45.7423040370199" lon="9.255942897971078"><ele>254.0</ele><time>2026-04-04T11:12:15Z</time></trkpt><trkpt lat="45.742072383037126" lon="9.255687887314329"><ele>254.5</ele><time>2026-04-04T11:12:16Z</time></trkpt><trkpt lat="45.74184084775937" lon="9.255432561637226"><ele>255.0</ele><time>2026-04-04T11:12:17Z</time></trkpt><trkpt lat="45.74160902029707" lon="9.255168511219681"><ele>255.0</ele><time>2026-04-04T11:12:18Z</time></trkpt><trkpt lat="45.741372903845935" lon="9.254900029613935"><ele>255.0</ele><time>2026-04-04T11:12:19Z</time></trkpt><trkpt lat="45.74113687966373" lon="9.254633652242651"><ele>256.0</ele><time>2026-04-04T11:12:20Z</time></trkpt><trkpt lat="45.7409105859799" lon="9.254376675468276"><ele>257.0</ele><time>2026-04-04T11:12:21Z</time></trkpt><trkpt lat="45.740691418881966" lon="9.254132999638076"><ele>257.0</ele><time>2026-04-04T11:12:22Z</time></trkpt><trkpt lat="45.740464624321426" lon="9.253879021337296"><ele>257.0</ele><time>2026-04-04T11:12:23Z</time></trkpt><trkpt lat="45.74021894268943" lon="9.253585570350793"><ele>257.0</ele><time>2026-04-04T11:12:24Z</time></trkpt><trkpt lat="45.73995827510718" lon="9.253278033347422"><ele>257.0</ele><time>2026-04-04T11:12:25Z</time></trkpt><trkpt lat="45.73968114598882" lon="9.252964335917582"><ele>256.5</ele><time>2026-04-04T11:12:26Z</time></trkpt><trkpt lat="45.73940395434374" lon="9.252673842877277"><ele>256.0</ele><time>2026-04-04T11:12:27Z</time></trkpt><trkpt lat="45.739142885975554" lon="9.252406182143941"><ele>253.5</ele><time>2026-04-04T11:12:28Z</time></trkpt><trkpt lat="45.73889778874853" lon="9.252140164227079"><ele>251.0</ele><time>2026-04-04T11:12:29Z</time></trkpt><trkpt lat="45.73866561591182" lon="9.251875253022563"><ele>250.0</ele><time>2026-04-04T11:12:30Z</time></trkpt><trkpt lat="45.73842994093877" lon="9.251601413736152"><ele>249.0</ele><time>2026-04-04T11:12:31Z</time></trkpt><trkpt lat="45.738198145720936" lon="9.251335365426403"><ele>248.0</ele><time>2026-04-04T11:12:32Z</time></trkpt><trkpt lat="45.73796537905842" lon="9.251085999009888"><ele>247.0</ele><time>2026-04-04T11:12:32.999Z</time></trkpt><trkpt lat="45.737731233455726" lon="9.250832062971456"><ele>245.0</ele><time>2026-04-04T11:12:33.999Z</time></trkpt><trkpt lat="45.737497046239845" lon="9.25057867989078"><ele>243.0</ele><time>2026-04-04T11:12:34.999Z</time></trkpt><trkpt lat="45.73726247053176" lon="9.250333066134864"><ele>243.0</ele><time>2026-04-04T11:12:35.999Z</time></trkpt><trkpt lat="45.7370221713206" lon="9.250105289022544"><ele>243.0</ele><time>2026-04-04T11:12:36.999Z</time></trkpt><trkpt lat="45.73677180779781" lon="9.249915952996897"><ele>242.5</ele><time>2026-04-04T11:12:37.999Z</time></trkpt><trkpt lat="45.73650707514423" lon="9.249760509464652"><ele>242.0</ele><time>2026-04-04T11:12:38.999Z</time></trkpt><trkpt lat="45.736230407347314" lon="9.249639583856661"><ele>241.5</ele><time>2026-04-04T11:12:39.999Z</time></trkpt><trkpt lat="45.735952281523765" lon="9.249548363316077"><ele>241.0</ele><time>2026-04-04T11:12:40.999Z</time></trkpt><trkpt lat="45.735673555243295" lon="9.24948377950143"><ele>241.0</ele><time>2026-04-04T11:12:41.999Z</time></trkpt><trkpt lat="45.73539204899429" lon="9.249441305782696"><ele>241.0</ele><time>2026-04-04T11:12:42.999Z</time></trkpt><trkpt lat="45.73511638336053" lon="9.249412296322786"><ele>241.5</ele><time>2026-04-04T11:12:43.999Z</time></trkpt><trkpt lat="45.73484615654783" lon="9.249382901890257"><ele>242.0</ele><time>2026-04-04T11:12:44.999Z</time></trkpt><trkpt lat="45.734581415670625" lon="9.24933909910259"><ele>242.5</ele><time>2026-04-04T11:12:45.999Z</time></trkpt><trkpt lat="45.734327443144636" lon="9.249300882211262"><ele>243.0</ele><time>2026-04-04T11:12:46.999Z</time></trkpt><trkpt lat="45.73410295473396" lon="9.249270888674278"><ele>243.0</ele><time>2026-04-04T11:12:47.999Z</time></trkpt><trkpt lat="45.733894634175726" lon="9.24924550630408"><ele>243.0</ele><time>2026-04-04T11:12:48.999Z</time></trkpt><trkpt lat="45.733696516839686" lon="9.249217487331975"><ele>243.0</ele><time>2026-04-04T11:12:49.999Z</time></trkpt><trkpt lat="45.73350366118821" lon="9.249188080092534"><ele>243.0</ele><time>2026-04-04T11:12:50.999Z</time></trkpt><trkpt lat="45.73330657474805" lon="9.249160543597025"><ele>243.0</ele><time>2026-04-04T11:12:51.999Z</time></trkpt><trkpt lat="45.73310178593195" lon="9.24913340053746"><ele>243.0</ele><time>2026-04-04T11:12:52.999Z</time></trkpt><trkpt lat="45.73289233512089" lon="9.249102647633325"><ele>243.0</ele><time>2026-04-04T11:12:53.999Z</time></trkpt><trkpt lat="45.732685662604396" lon="9.249071189602946"><ele>243.0</ele><time>2026-04-04T11:12:54.999Z</time></trkpt><trkpt lat="45.73247524253079" lon="9.249041326715108"><ele>243.0</ele><time>2026-04-04T11:12:55.999Z</time></trkpt><trkpt lat="45.73225690429038" lon="9.249015274389636"><ele>243.0</ele><time>2026-04-04T11:12:56.999Z</time></trkpt><trkpt lat="45.732024030879785" lon="9.24898932653374"><ele>243.0</ele><time>2026-04-04T11:12:57.999Z</time></trkpt><trkpt lat="45.73176740622592" lon="9.248952514056056"><ele>243.0</ele><time>2026-04-04T11:12:58.999Z</time></trkpt><trkpt lat="45.731494083812834" lon="9.248911528704227"><ele>243.0</ele><time>2026-04-04T11:12:59.999Z</time></trkpt><trkpt lat="45.73122768607418" lon="9.248872050345874"><ele>245.0</ele><time>2026-04-04T11:13:00.999Z</time></trkpt><trkpt lat="45.730964328620956" lon="9.248835584363608"><ele>247.0</ele><time>2026-04-04T11:13:01.999Z</time></trkpt><trkpt lat="45.730697710775196" lon="9.248798272895025"><ele>247.0</ele><time>2026-04-04T11:13:02.999Z</time></trkpt><trkpt lat="45.73041782778586" lon="9.248760256847586"><ele>247.0</ele><time>2026-04-04T11:13:03.999Z</time></trkpt><trkpt lat="45.73014369881639" lon="9.248718199176093"><ele>250.0</ele><time>2026-04-04T11:13:04.999Z</time></trkpt><trkpt lat="45.72988251263687" lon="9.24867104981175"><ele>253.0</ele><time>2026-04-04T11:13:05.999Z</time></trkpt><trkpt lat="45.72962968905384" lon="9.248608279436237"><ele>254.0</ele><time>2026-04-04T11:13:06.999Z</time></trkpt><trkpt lat="45.72937508547481" lon="9.248500981208286"><ele>255.0</ele><time>2026-04-04T11:13:07.999Z</time></trkpt><trkpt lat="45.72912217564645" lon="9.248350136510046"><ele>255.0</ele><time>2026-04-04T11:13:08.999Z</time></trkpt><trkpt lat="45.72887610810845" lon="9.248178929869997"><ele>255.0</ele><time>2026-04-04T11:13:09.999Z</time></trkpt><trkpt lat="45.72863896153456" lon="9.247981819589219"><ele>255.5</ele><time>2026-04-04T11:13:10.999Z</time></trkpt><trkpt lat="45.72841045188158" lon="9.24777084072958"><ele>256.0</ele><time>2026-04-04T11:13:11.999Z</time></trkpt><trkpt lat="45.72818524990637" lon="9.24754910667328"><ele>256.0</ele><time>2026-04-04T11:13:12.999Z</time></trkpt><trkpt lat="45.72796375247014" lon="9.247315721673854"><ele>256.0</ele><time>2026-04-04T11:13:13.999Z</time></trkpt><trkpt lat="45.727735145621025" lon="9.247085373840155"><ele>258.5</ele><time>2026-04-04T11:13:14.999Z</time></trkpt><trkpt lat="45.72750240400596" lon="9.246866475076672"><ele>261.0</ele><time>2026-04-04T11:13:15.999Z</time></trkpt><trkpt lat="45.72726403926986" lon="9.246638167006468"><ele>262.5</ele><time>2026-04-04T11:13:16.999Z</time></trkpt><trkpt lat="45.72702727005719" lon="9.246399538959423"><ele>264.0</ele><time>2026-04-04T11:13:17.999Z</time></trkpt><trkpt lat="45.72679269326565" lon="9.246162307589081"><ele>264.0</ele><time>2026-04-04T11:13:18.999Z</time></trkpt><trkpt lat="45.726556342739045" lon="9.245923085719875"><ele>264.0</ele><time>2026-04-04T11:13:20Z</time></trkpt><trkpt lat="45.72631747565854" lon="9.24567840031231"><ele>262.5</ele><time>2026-04-04T11:13:21Z</time></trkpt><trkpt lat="45.72608278252172" lon="9.245438115282983"><ele>261.0</ele><time>2026-04-04T11:13:22Z</time></trkpt><trkpt lat="45.72584608534087" lon="9.245205800471378"><ele>262.0</ele><time>2026-04-04T11:13:23Z</time></trkpt><trkpt lat="45.72560829936835" lon="9.24497320254099"><ele>263.0</ele><time>2026-04-04T11:13:24Z</time></trkpt><trkpt lat="45.72536946795759" lon="9.244741468945332"><ele>267.0</ele><time>2026-04-04T11:13:25Z</time></trkpt><trkpt lat="45.725130283546605" lon="9.244505492480315"><ele>271.0</ele><time>2026-04-04T11:13:26Z</time></trkpt><trkpt lat="45.72489118594717" lon="9.244257760210488"><ele>271.0</ele><time>2026-04-04T11:13:27Z</time></trkpt><trkpt lat="45.724656170149075" lon="9.244002034977205"><ele>271.0</ele><time>2026-04-04T11:13:28Z</time></trkpt><trkpt lat="45.72441048702455" lon="9.243734389748939"><ele>268.0</ele><time>2026-04-04T11:13:29Z</time></trkpt><trkpt lat="45.724139507079286" lon="9.243443445369408"><ele>265.0</ele><time>2026-04-04T11:13:30Z</time></trkpt><trkpt lat="45.723859285814726" lon="9.243138565788547"><ele>263.0</ele><time>2026-04-04T11:13:31Z</time></trkpt><trkpt lat="45.72359908846924" lon="9.24282536923837"><ele>261.0</ele><time>2026-04-04T11:13:32Z</time></trkpt><trkpt lat="45.72337416324667" lon="9.242489636646814"><ele>259.0</ele><time>2026-04-04T11:13:33Z</time></trkpt><trkpt lat="45.7231599250121" lon="9.242126718748816"><ele>257.0</ele><time>2026-04-04T11:13:34Z</time></trkpt><trkpt lat="45.72295603342719" lon="9.241741867225686"><ele>256.0</ele><time>2026-04-04T11:13:35Z</time></trkpt><trkpt lat="45.72275007595993" lon="9.241334487641122"><ele>255.0</ele><time>2026-04-04T11:13:36Z</time></trkpt><trkpt lat="45.72253815520648" lon="9.240929598004676"><ele>249.5</ele><time>2026-04-04T11:13:37Z</time></trkpt><trkpt lat="45.72232544738408" lon="9.240528485205623"><ele>244.0</ele><time>2026-04-04T11:13:38Z</time></trkpt><trkpt lat="45.72211240634134" lon="9.240131591999958"><ele>243.0</ele><time>2026-04-04T11:13:39Z</time></trkpt><trkpt lat="45.721896525353976" lon="9.239737173697726"><ele>242.0</ele><time>2026-04-04T11:13:40Z</time></trkpt><trkpt lat="45.72168487821574" lon="9.239348265927939"><ele>241.5</ele><time>2026-04-04T11:13:41Z</time></trkpt><trkpt lat="45.72146264532215" lon="9.23894134428809"><ele>241.0</ele><time>2026-04-04T11:13:42Z</time></trkpt><trkpt lat="45.72123516344758" lon="9.23851665147433"><ele>245.0</ele><time>2026-04-04T11:13:43Z</time></trkpt><trkpt lat="45.72100154390165" lon="9.238077628250343"><ele>249.0</ele><time>2026-04-04T11:13:44Z</time></trkpt><trkpt lat="45.72076009539513" lon="9.237622666260501"><ele>250.0</ele><time>2026-04-04T11:13:45Z</time></trkpt><trkpt lat="45.72052793072635" lon="9.237176358747927"><ele>251.0</ele><time>2026-04-04T11:13:46Z</time></trkpt><trkpt lat="45.720296499783736" lon="9.236729161944819"><ele>253.0</ele><time>2026-04-04T11:13:47Z</time></trkpt><trkpt lat="45.720071420714255" lon="9.2363066205607"><ele>255.0</ele><time>2026-04-04T11:13:48Z</time></trkpt><trkpt lat="45.71985405445317" lon="9.23590477373394"><ele>255.5</ele><time>2026-04-04T11:13:49Z</time></trkpt><trkpt lat="45.71964424988047" lon="9.23550851267183"><ele>256.0</ele><time>2026-04-04T11:13:50Z</time></trkpt><trkpt lat="45.719436933359354" lon="9.235123291273078"><ele>251.0</ele><time>2026-04-04T11:13:51Z</time></trkpt><trkpt lat="45.71923485595693" lon="9.234746666435097"><ele>246.0</ele><time>2026-04-04T11:13:52Z</time></trkpt><trkpt lat="45.71903824393192" lon="9.234383066462584"><ele>246.0</ele><time>2026-04-04T11:13:52.999Z</time></trkpt><trkpt lat="45.7188459164122" lon="9.234023189115904"><ele>246.0</ele><time>2026-04-04T11:13:53.999Z</time></trkpt><trkpt lat="45.718658764050964" lon="9.233676240306583"><ele>245.5</ele><time>2026-04-04T11:13:54.999Z</time></trkpt><trkpt lat="45.71848870263709" lon="9.233358266757174"><ele>245.0</ele><time>2026-04-04T11:13:55.999Z</time></trkpt><trkpt lat="45.71831579560846" lon="9.233039111735604"><ele>245.0</ele><time>2026-04-04T11:13:56.999Z</time></trkpt><trkpt lat="45.718136669649674" lon="9.232709803997437"><ele>245.0</ele><time>2026-04-04T11:13:57.999Z</time></trkpt><trkpt lat="45.71796667036317" lon="9.232398815993012"><ele>246.0</ele><time>2026-04-04T11:13:58.999Z</time></trkpt><trkpt lat="45.717800863574006" lon="9.232093663746038"><ele>247.0</ele><time>2026-04-04T11:13:59.999Z</time></trkpt><trkpt lat="45.717636176867664" lon="9.231779787619752"><ele>250.0</ele><time>2026-04-04T11:14:00.999Z</time></trkpt><trkpt lat="45.71746745163391" lon="9.231458535710214"><ele>253.0</ele><time>2026-04-04T11:14:01.999Z</time></trkpt><trkpt lat="45.717281273145566" lon="9.231109163112121"><ele>253.0</ele><time>2026-04-04T11:14:02.999Z</time></trkpt><trkpt lat="45.71708450517297" lon="9.230734124772905"><ele>253.0</ele><time>2026-04-04T11:14:03.999Z</time></trkpt><trkpt lat="45.71688150876947" lon="9.230343321672416"><ele>254.5</ele><time>2026-04-04T11:14:04.999Z</time></trkpt><trkpt lat="45.71667861604118" lon="9.229958996997064"><ele>256.0</ele><time>2026-04-04T11:14:05.999Z</time></trkpt><trkpt lat="45.71649229702682" lon="9.2296137785726"><ele>256.0</ele><time>2026-04-04T11:14:06.999Z</time></trkpt><trkpt lat="45.71632389613633" lon="9.229298497713605"><ele>256.0</ele><time>2026-04-04T11:14:07.999Z</time></trkpt><trkpt lat="45.71616844921534" lon="9.229006994592536"><ele>257.5</ele><time>2026-04-04T11:14:08.999Z</time></trkpt><trkpt lat="45.71601553101788" lon="9.228716460719195"><ele>259.0</ele><time>2026-04-04T11:14:09.999Z</time></trkpt><trkpt lat="45.715866100963645" lon="9.228436596347269"><ele>259.0</ele><time>2026-04-04T11:14:10.999Z</time></trkpt><trkpt lat="45.715697365405035" lon="9.228175112987234"><ele>259.0</ele><time>2026-04-04T11:14:11.999Z</time></trkpt><trkpt lat="45.7154924265756" lon="9.227921396275145"><ele>261.0</ele><time>2026-04-04T11:14:12.999Z</time></trkpt><trkpt lat="45.715256079445616" lon="9.227690004158251"><ele>263.0</ele><time>2026-04-04T11:14:13.999Z</time></trkpt><trkpt lat="45.71499441667485" lon="9.227498608121149"><ele>265.0</ele><time>2026-04-04T11:14:14.999Z</time></trkpt><trkpt lat="45.7147154151717" lon="9.227355542571953"><ele>267.0</ele><time>2026-04-04T11:14:15.999Z</time></trkpt><trkpt lat="45.714422615635335" lon="9.227257008363987"><ele>277.5</ele><time>2026-04-04T11:14:16.999Z</time></trkpt><trkpt lat="45.71411649150982" lon="9.227206275679194"><ele>288.0</ele><time>2026-04-04T11:14:17.999Z</time></trkpt><trkpt lat="45.713802074676764" lon="9.227203924723277"><ele>286.0</ele><time>2026-04-04T11:14:18.999Z</time></trkpt><trkpt lat="45.71348500266465" lon="9.227256967943244"><ele>284.0</ele><time>2026-04-04T11:14:19.999Z</time></trkpt><trkpt lat="45.713153319517495" lon="9.227329742494872"><ele>283.5</ele><time>2026-04-04T11:14:20.999Z</time></trkpt><trkpt lat="45.712805504035316" lon="9.227383516288626"><ele>283.0</ele><time>2026-04-04T11:14:21.999Z</time></trkpt><trkpt lat="45.71245496466027" lon="9.227419932932968"><ele>283.0</ele><time>2026-04-04T11:14:22.999Z</time></trkpt><trkpt lat="45.71209297308663" lon="9.22746666366445"><ele>283.0</ele><time>2026-04-04T11:14:23.999Z</time></trkpt><trkpt lat="45.71172910299633" lon="9.227518160015515"><ele>285.0</ele><time>2026-04-04T11:14:24.999Z</time></trkpt><trkpt lat="45.71136325549228" lon="9.22757012569003"><ele>287.0</ele><time>2026-04-04T11:14:25.999Z</time></trkpt><trkpt lat="45.710995423018105" lon="9.227618588058842"><ele>288.0</ele><time>2026-04-04T11:14:26.999Z</time></trkpt><trkpt lat="45.71062527486248" lon="9.227663818364926"><ele>289.0</ele><time>2026-04-04T11:14:27.999Z</time></trkpt><trkpt lat="45.71025460624272" lon="9.227708573995557"><ele>291.0</ele><time>2026-04-04T11:14:28.999Z</time></trkpt><trkpt lat="45.709877754769416" lon="9.227759898921542"><ele>293.0</ele><time>2026-04-04T11:14:29.999Z</time></trkpt><trkpt lat="45.70950517683786" lon="9.227804725499066"><ele>294.0</ele><time>2026-04-04T11:14:30.999Z</time></trkpt><trkpt lat="45.70913105684389" lon="9.227846371093689"><ele>295.0</ele><time>2026-04-04T11:14:31.999Z</time></trkpt><trkpt lat="45.70875569433414" lon="9.227886712819119"><ele>297.0</ele><time>2026-04-04T11:14:32.999Z</time></trkpt><trkpt lat="45.708386209504354" lon="9.22793568528723"><ele>299.0</ele><time>2026-04-04T11:14:33.999Z</time></trkpt><trkpt lat="45.70802010801039" lon="9.227986739143663"><ele>303.0</ele><time>2026-04-04T11:14:34.999Z</time></trkpt><trkpt lat="45.70765729143998" lon="9.228037199950645"><ele>307.0</ele><time>2026-04-04T11:14:35.999Z</time></trkpt><trkpt lat="45.707299858194" lon="9.228096324611462"><ele>304.5</ele><time>2026-04-04T11:14:36.999Z</time></trkpt><trkpt lat="45.706952780393046" lon="9.228201741925469"><ele>302.0</ele><time>2026-04-04T11:14:37.999Z</time></trkpt><trkpt lat="45.70662244036377" lon="9.228344659549311"><ele>302.0</ele><time>2026-04-04T11:14:38.999Z</time></trkpt><trkpt lat="45.70629534616361" lon="9.228520762348749"><ele>302.0</ele><time>2026-04-04T11:14:39.999Z</time></trkpt><trkpt lat="45.70598050336546" lon="9.228738057802607"><ele>299.0</ele><time>2026-04-04T11:14:40.999Z</time></trkpt><trkpt lat="45.70567602833794" lon="9.228991256132698"><ele>296.0</ele><time>2026-04-04T11:14:41.999Z</time></trkpt><trkpt lat="45.705388023559976" lon="9.229276186350393"><ele>295.5</ele><time>2026-04-04T11:14:42.999Z</time></trkpt><trkpt lat="45.70511781226376" lon="9.229593316857473"><ele>295.0</ele><time>2026-04-04T11:14:43.999Z</time></trkpt><trkpt lat="45.704855672202804" lon="9.229929600078176"><ele>295.0</ele><time>2026-04-04T11:14:44.999Z</time></trkpt><trkpt lat="45.70460324346279" lon="9.2302738721919"><ele>295.0</ele><time>2026-04-04T11:14:45.999Z</time></trkpt><trkpt lat="45.70434585455048" lon="9.230617142946794"><ele>293.5</ele><time>2026-04-04T11:14:46.999Z</time></trkpt><trkpt lat="45.704084913481736" lon="9.230921303461304"><ele>292.0</ele><time>2026-04-04T11:14:47.999Z</time></trkpt><trkpt lat="45.703816627776995" lon="9.231180048137821"><ele>291.5</ele><time>2026-04-04T11:14:48.999Z</time></trkpt><trkpt lat="45.70353104919644" lon="9.231379888992912"><ele>291.0</ele><time>2026-04-04T11:14:49.999Z</time></trkpt><trkpt lat="45.7032236010286" lon="9.231517607326099"><ele>289.5</ele><time>2026-04-04T11:14:50.999Z</time></trkpt><trkpt lat="45.70290464521572" lon="9.231606154219778"><ele>288.0</ele><time>2026-04-04T11:14:51.999Z</time></trkpt><trkpt lat="45.702586169075786" lon="9.231644523453998"><ele>285.5</ele><time>2026-04-04T11:14:52.999Z</time></trkpt><trkpt lat="45.70227986836794" lon="9.231619161429807"><ele>283.0</ele><time>2026-04-04T11:14:53.999Z</time></trkpt><trkpt lat="45.701973395778865" lon="9.231542779372763"><ele>283.5</ele><time>2026-04-04T11:14:54.999Z</time></trkpt><trkpt lat="45.70166980140197" lon="9.231422996108215"><ele>284.0</ele><time>2026-04-04T11:14:55.999Z</time></trkpt><trkpt lat="45.70137799788227" lon="9.231249575756431"><ele>284.0</ele><time>2026-04-04T11:14:56.999Z</time></trkpt><trkpt lat="45.70109590603076" lon="9.231021561875243"><ele>284.0</ele><time>2026-04-04T11:14:57.999Z</time></trkpt><trkpt lat="45.70081862924924" lon="9.230753143778838"><ele>288.5</ele><time>2026-04-04T11:14:58.999Z</time></trkpt><trkpt lat="45.70054059874375" lon="9.230476634207468"><ele>293.0</ele><time>2026-04-04T11:14:59.999Z</time></trkpt><trkpt lat="45.700252545490066" lon="9.230209080503474"><ele>292.0</ele><time>2026-04-04T11:15:00.999Z</time></trkpt><trkpt lat="45.69995885924029" lon="9.229941585967909"><ele>291.0</ele><time>2026-04-04T11:15:01.999Z</time></trkpt><trkpt lat="45.6996601561892" lon="9.229671823241901"><ele>290.0</ele><time>2026-04-04T11:15:02.999Z</time></trkpt><trkpt lat="45.69936174822517" lon="9.229404326770721"><ele>289.0</ele><time>2026-04-04T11:15:03.999Z</time></trkpt><trkpt lat="45.69906583354482" lon="9.229130476448965"><ele>289.0</ele><time>2026-04-04T11:15:04.999Z</time></trkpt><trkpt lat="45.698769215279334" lon="9.22885050238962"><ele>289.0</ele><time>2026-04-04T11:15:05.998Z</time></trkpt><trkpt lat="45.69846400914504" lon="9.228560568229302"><ele>290.5</ele><time>2026-04-04T11:15:06.998Z</time></trkpt><trkpt lat="45.6981551125987" lon="9.228267799280173"><ele>292.0</ele><time>2026-04-04T11:15:07.998Z</time></trkpt><trkpt lat="45.697839628660866" lon="9.22797297742868"><ele>293.0</ele><time>2026-04-04T11:15:08.998Z</time></trkpt><trkpt lat="45.697522686482095" lon="9.227686065348443"><ele>294.0</ele><time>2026-04-04T11:15:09.998Z</time></trkpt><trkpt lat="45.69720579638872" lon="9.227395042743307"><ele>292.5</ele><time>2026-04-04T11:15:10.998Z</time></trkpt><trkpt lat="45.69688828051385" lon="9.227099781009999"><ele>291.0</ele><time>2026-04-04T11:15:11.998Z</time></trkpt><trkpt lat="45.69657268914413" lon="9.226807073639925"><ele>291.0</ele><time>2026-04-04T11:15:12.998Z</time></trkpt><trkpt lat="45.6962575787344" lon="9.22650902402511"><ele>291.0</ele><time>2026-04-04T11:15:13.998Z</time></trkpt><trkpt lat="45.69593935042281" lon="9.226213274350645"><ele>289.0</ele><time>2026-04-04T11:15:14.998Z</time></trkpt><trkpt lat="45.69561726135818" lon="9.225920023013884"><ele>287.0</ele><time>2026-04-04T11:15:15.998Z</time></trkpt><trkpt lat="45.69529515336319" lon="9.22563096106295"><ele>283.5</ele><time>2026-04-04T11:15:16.998Z</time></trkpt><trkpt lat="45.6949730840045" lon="9.225338657454914"><ele>280.0</ele><time>2026-04-04T11:15:17.998Z</time></trkpt><trkpt lat="45.69465086376243" lon="9.225038520171285"><ele>279.5</ele><time>2026-04-04T11:15:18.998Z</time></trkpt><trkpt lat="45.694331299025365" lon="9.224740126140185"><ele>279.0</ele><time>2026-04-04T11:15:19.998Z</time></trkpt><trkpt lat="45.69402637084152" lon="9.22445373271135"><ele>279.0</ele><time>2026-04-04T11:15:20.998Z</time></trkpt><trkpt lat="45.693742345842466" lon="9.224194457690036"><ele>279.0</ele><time>2026-04-04T11:15:21.998Z</time></trkpt><trkpt lat="45.69347743321732" lon="9.223953901847526"><ele>277.0</ele><time>2026-04-04T11:15:22.998Z</time></trkpt><trkpt lat="45.693227414505735" lon="9.223723520176218"><ele>275.0</ele><time>2026-04-04T11:15:23.998Z</time></trkpt><trkpt lat="45.6929818647443" lon="9.223485535225388"><ele>274.5</ele><time>2026-04-04T11:15:24.998Z</time></trkpt><trkpt lat="45.692749494818365" lon="9.22324294978966"><ele>274.0</ele><time>2026-04-04T11:15:26Z</time></trkpt><trkpt lat="45.69252358064742" lon="9.222995708823333"><ele>271.0</ele><time>2026-04-04T11:15:27Z</time></trkpt><trkpt lat="45.692300121784385" lon="9.222748646814559"><ele>268.0</ele><time>2026-04-04T11:15:28Z</time></trkpt><trkpt lat="45.69207760355362" lon="9.222512080645545"><ele>267.0</ele><time>2026-04-04T11:15:29Z</time></trkpt><trkpt lat="45.691855265045035" lon="9.222274607581818"><ele>266.0</ele><time>2026-04-04T11:15:30Z</time></trkpt><trkpt lat="45.691636053862105" lon="9.222037801249812"><ele>266.0</ele><time>2026-04-04T11:15:31Z</time></trkpt><trkpt lat="45.691421130354634" lon="9.221804021089419"><ele>266.0</ele><time>2026-04-04T11:15:32Z</time></trkpt><trkpt lat="45.6912070132073" lon="9.221574871729926"><ele>265.0</ele><time>2026-04-04T11:15:33Z</time></trkpt><trkpt lat="45.69098363667987" lon="9.221337841405695"><ele>264.0</ele><time>2026-04-04T11:15:34Z</time></trkpt><trkpt lat="45.690756765716934" lon="9.221100592560736"><ele>264.0</ele><time>2026-04-04T11:15:35Z</time></trkpt><trkpt lat="45.690523463689395" lon="9.220859255845188"><ele>264.0</ele><time>2026-04-04T11:15:36Z</time></trkpt><trkpt lat="45.69027434913762" lon="9.220606498506458"><ele>263.0</ele><time>2026-04-04T11:15:37Z</time></trkpt><trkpt lat="45.69001208411337" lon="9.220334833285037"><ele>262.0</ele><time>2026-04-04T11:15:38Z</time></trkpt><trkpt lat="45.68973037040568" lon="9.220039717551463"><ele>261.0</ele><time>2026-04-04T11:15:39Z</time></trkpt><trkpt lat="45.68944257341284" lon="9.219738729912928"><ele>260.0</ele><time>2026-04-04T11:15:40Z</time></trkpt><trkpt lat="45.68914883466832" lon="9.219427960721598"><ele>260.0</ele><time>2026-04-04T11:15:41Z</time></trkpt><trkpt lat="45.6888513127236" lon="9.219112996509088"><ele>260.0</ele><time>2026-04-04T11:15:42Z</time></trkpt><trkpt lat="45.688552775016014" lon="9.21879633336624"><ele>261.0</ele><time>2026-04-04T11:15:43Z</time></trkpt><trkpt lat="45.68825209238543" lon="9.218479047703486"><ele>262.0</ele><time>2026-04-04T11:15:44Z</time></trkpt><trkpt lat="45.68795341934687" lon="9.218156926594107"><ele>259.5</ele><time>2026-04-04T11:15:45Z</time></trkpt><trkpt lat="45.68766106888727" lon="9.217838411899"><ele>257.0</ele><time>2026-04-04T11:15:46Z</time></trkpt><trkpt lat="45.68737584470622" lon="9.217534896204862"><ele>258.0</ele><time>2026-04-04T11:15:47Z</time></trkpt><trkpt lat="45.68709977551748" lon="9.217232921697983"><ele>259.0</ele><time>2026-04-04T11:15:48Z</time></trkpt><trkpt lat="45.68682562352498" lon="9.216941685969772"><ele>259.0</ele><time>2026-04-04T11:15:49Z</time></trkpt><trkpt lat="45.686563352197915" lon="9.216675605897905"><ele>259.0</ele><time>2026-04-04T11:15:50Z</time></trkpt><trkpt lat="45.686289190802924" lon="9.216435771404338"><ele>258.0</ele><time>2026-04-04T11:15:51Z</time></trkpt><trkpt lat="45.686001422365855" lon="9.216244885464997"><ele>257.0</ele><time>2026-04-04T11:15:52Z</time></trkpt><trkpt lat="45.68569868981699" lon="9.21609481418044"><ele>257.0</ele><time>2026-04-04T11:15:53Z</time></trkpt><trkpt lat="45.6853884992329" lon="9.215981593363772"><ele>257.0</ele><time>2026-04-04T11:15:54Z</time></trkpt><trkpt lat="45.68507024879433" lon="9.215916207096516"><ele>256.0</ele><time>2026-04-04T11:15:55Z</time></trkpt><trkpt lat="45.684751950239736" lon="9.215900685588444"><ele>255.0</ele><time>2026-04-04T11:15:56Z</time></trkpt><trkpt lat="45.68443072716044" lon="9.215922011761199"><ele>254.0</ele><time>2026-04-04T11:15:57Z</time></trkpt><trkpt lat="45.68410481965143" lon="9.215981692986066"><ele>253.0</ele><time>2026-04-04T11:15:58Z</time></trkpt><trkpt lat="45.68377605655313" lon="9.216086710487655"><ele>253.5</ele><time>2026-04-04T11:15:59Z</time></trkpt><trkpt lat="45.68343875769247" lon="9.216221799518458"><ele>254.0</ele><time>2026-04-04T11:16:00Z</time></trkpt><trkpt lat="45.68309357425068" lon="9.216361924988338"><ele>252.5</ele><time>2026-04-04T11:16:01Z</time></trkpt><trkpt lat="45.68273725467202" lon="9.216491939722419"><ele>251.0</ele><time>2026-04-04T11:16:02Z</time></trkpt><trkpt lat="45.682370658018634" lon="9.216622974809109"><ele>251.0</ele><time>2026-04-04T11:16:03Z</time></trkpt><trkpt lat="45.68199926971558" lon="9.216754592810561"><ele>251.0</ele><time>2026-04-04T11:16:04Z</time></trkpt><trkpt lat="45.6816250979942" lon="9.216888422084857"><ele>251.0</ele><time>2026-04-04T11:16:05Z</time></trkpt><trkpt lat="45.68124902386463" lon="9.217016659146372"><ele>251.0</ele><time>2026-04-04T11:16:06Z</time></trkpt><trkpt lat="45.680870872037694" lon="9.217149322077924"><ele>251.0</ele><time>2026-04-04T11:16:07Z</time></trkpt><trkpt lat="45.68049379020465" lon="9.217288828071364"><ele>251.0</ele><time>2026-04-04T11:16:08Z</time></trkpt><trkpt lat="45.68011818127737" lon="9.217424936009511"><ele>250.5</ele><time>2026-04-04T11:16:09Z</time></trkpt><trkpt lat="45.67974474575691" lon="9.21756005212099"><ele>250.0</ele><time>2026-04-04T11:16:10Z</time></trkpt><trkpt lat="45.67936965173287" lon="9.217692519493701"><ele>250.0</ele><time>2026-04-04T11:16:11Z</time></trkpt><trkpt lat="45.67899807071819" lon="9.217824747452049"><ele>250.0</ele><time>2026-04-04T11:16:12Z</time></trkpt><trkpt lat="45.67861595911549" lon="9.217959419297966"><ele>249.5</ele><time>2026-04-04T11:16:13Z</time></trkpt><trkpt lat="45.678226023862734" lon="9.218098277148759"><ele>249.0</ele><time>2026-04-04T11:16:14Z</time></trkpt><trkpt lat="45.67782269236755" lon="9.218244638510546"><ele>250.0</ele><time>2026-04-04T11:16:15Z</time></trkpt><trkpt lat="45.67741754059316" lon="9.218389660817778"><ele>251.0</ele><time>2026-04-04T11:16:16Z</time></trkpt><trkpt lat="45.67701031423569" lon="9.218535654239401"><ele>248.5</ele><time>2026-04-04T11:16:17Z</time></trkpt><trkpt lat="45.67661407902379" lon="9.218676276886658"><ele>246.0</ele><time>2026-04-04T11:16:18Z</time></trkpt><trkpt lat="45.676224512994274" lon="9.218812240586356"><ele>245.5</ele><time>2026-04-04T11:16:18.999Z</time></trkpt><trkpt lat="45.675834784114784" lon="9.218948019340502"><ele>245.0</ele><time>2026-04-04T11:16:19.999Z</time></trkpt><trkpt lat="45.67544669996301" lon="9.219088801676856"><ele>245.5</ele><time>2026-04-04T11:16:20.999Z</time></trkpt><trkpt lat="45.67505923731762" lon="9.219230864956188"><ele>246.0</ele><time>2026-04-04T11:16:21.999Z</time></trkpt><trkpt lat="45.67467054034416" lon="9.219369408245084"><ele>245.5</ele><time>2026-04-04T11:16:22.999Z</time></trkpt><trkpt lat="45.674283080451616" lon="9.219502787577314"><ele>245.0</ele><time>2026-04-04T11:16:23.999Z</time></trkpt><trkpt lat="45.67389833603009" lon="9.21963694613521"><ele>245.5</ele><time>2026-04-04T11:16:24.999Z</time></trkpt><trkpt lat="45.673513559056666" lon="9.219773248217619"><ele>246.0</ele><time>2026-04-04T11:16:25.999Z</time></trkpt><trkpt lat="45.6731296400041" lon="9.219914251262097"><ele>244.0</ele><time>2026-04-04T11:16:26.999Z</time></trkpt><trkpt lat="45.6727496829883" lon="9.220050959096907"><ele>242.0</ele><time>2026-04-04T11:16:27.999Z</time></trkpt><trkpt lat="45.6723705121495" lon="9.220188154120912"><ele>242.0</ele><time>2026-04-04T11:16:28.999Z</time></trkpt><trkpt lat="45.671988976411946" lon="9.220309723164627"><ele>242.0</ele><time>2026-04-04T11:16:29.999Z</time></trkpt><trkpt lat="45.67160565672384" lon="9.2204261714402"><ele>241.0</ele><time>2026-04-04T11:16:30.999Z</time></trkpt><trkpt lat="45.67122376268551" lon="9.22054890120718"><ele>240.0</ele><time>2026-04-04T11:16:31.999Z</time></trkpt><trkpt lat="45.670849195164486" lon="9.22068157866504"><ele>239.5</ele><time>2026-04-04T11:16:32.999Z</time></trkpt><trkpt lat="45.67047962143756" lon="9.2208069657725"><ele>239.0</ele><time>2026-04-04T11:16:33.999Z</time></trkpt><trkpt lat="45.670104254983755" lon="9.220940913946098"><ele>239.0</ele><time>2026-04-04T11:16:34.999Z</time></trkpt><trkpt lat="45.669727588053156" lon="9.22107366600262"><ele>239.0</ele><time>2026-04-04T11:16:35.999Z</time></trkpt><trkpt lat="45.669350855359006" lon="9.22120404369898"><ele>236.5</ele><time>2026-04-04T11:16:36.999Z</time></trkpt><trkpt lat="45.66897831547168" lon="9.221339609612313"><ele>234.0</ele><time>2026-04-04T11:16:37.999Z</time></trkpt><trkpt lat="45.66860140689919" lon="9.221474399941041"><ele>235.5</ele><time>2026-04-04T11:16:38.999Z</time></trkpt><trkpt lat="45.66822813019674" lon="9.221616274717926"><ele>237.0</ele><time>2026-04-04T11:16:39.999Z</time></trkpt><trkpt lat="45.66785399465931" lon="9.22175217990573"><ele>236.0</ele><time>2026-04-04T11:16:40.999Z</time></trkpt><trkpt lat="45.66748135215872" lon="9.221884215208856"><ele>235.0</ele><time>2026-04-04T11:16:41.999Z</time></trkpt><trkpt lat="45.66710976406127" lon="9.222015629896058"><ele>237.5</ele><time>2026-04-04T11:16:42.999Z</time></trkpt><trkpt lat="45.66673861415331" lon="9.22214915894129"><ele>240.0</ele><time>2026-04-04T11:16:43.999Z</time></trkpt><trkpt lat="45.66636243628598" lon="9.222283095487242"><ele>238.0</ele><time>2026-04-04T11:16:44.999Z</time></trkpt><trkpt lat="45.665991052246625" lon="9.22241061454828"><ele>236.0</ele><time>2026-04-04T11:16:45.999Z</time></trkpt><trkpt lat="45.66560683361728" lon="9.222553830223887"><ele>236.0</ele><time>2026-04-04T11:16:46.999Z</time></trkpt><trkpt lat="45.6652329982526" lon="9.22268344824346"><ele>236.0</ele><time>2026-04-04T11:16:47.999Z</time></trkpt><trkpt lat="45.66485761338238" lon="9.222813279217606"><ele>236.0</ele><time>2026-04-04T11:16:48.999Z</time></trkpt><trkpt lat="45.66447476279886" lon="9.222945242049583"><ele>236.0</ele><time>2026-04-04T11:16:49.999Z</time></trkpt><trkpt lat="45.66409016785124" lon="9.223077317192905"><ele>235.0</ele><time>2026-04-04T11:16:50.999Z</time></trkpt><trkpt lat="45.66371462360034" lon="9.223212006369316"><ele>234.0</ele><time>2026-04-04T11:16:51.999Z</time></trkpt><trkpt lat="45.663336030191026" lon="9.223348328964697"><ele>233.5</ele><time>2026-04-04T11:16:52.999Z</time></trkpt><trkpt lat="45.66295377011733" lon="9.223490474801597"><ele>233.0</ele><time>2026-04-04T11:16:53.999Z</time></trkpt><trkpt lat="45.66256889786646" lon="9.22363452387544"><ele>233.0</ele><time>2026-04-04T11:16:54.999Z</time></trkpt><trkpt lat="45.66218087875692" lon="9.22377071785432"><ele>233.0</ele><time>2026-04-04T11:16:55.999Z</time></trkpt><trkpt lat="45.661792795653035" lon="9.223906020476003"><ele>233.0</ele><time>2026-04-04T11:16:56.999Z</time></trkpt><trkpt lat="45.66140019024948" lon="9.224044443803072"><ele>233.0</ele><time>2026-04-04T11:16:57.999Z</time></trkpt><trkpt lat="45.66101204321484" lon="9.224182249274946"><ele>231.5</ele><time>2026-04-04T11:16:58.999Z</time></trkpt><trkpt lat="45.660623243454715" lon="9.224318427093666"><ele>230.0</ele><time>2026-04-04T11:16:59.999Z</time></trkpt><trkpt lat="45.66023484458266" lon="9.22445813150051"><ele>230.0</ele><time>2026-04-04T11:17:00.999Z</time></trkpt><trkpt lat="45.65984899850035" lon="9.224594480529282"><ele>230.0</ele><time>2026-04-04T11:17:01.999Z</time></trkpt><trkpt lat="45.659466185132025" lon="9.22474515999102"><ele>230.5</ele><time>2026-04-04T11:17:02.999Z</time></trkpt><trkpt lat="45.65908226335556" lon="9.224904533535033"><ele>231.0</ele><time>2026-04-04T11:17:03.999Z</time></trkpt><trkpt lat="45.65869717476636" lon="9.225057128060737"><ele>231.0</ele><time>2026-04-04T11:17:04.999Z</time></trkpt><trkpt lat="45.65831378903628" lon="9.225196342231005"><ele>231.0</ele><time>2026-04-04T11:17:05.999Z</time></trkpt><trkpt lat="45.65793244794523" lon="9.22533404485207"><ele>230.0</ele><time>2026-04-04T11:17:06.999Z</time></trkpt><trkpt lat="45.65754979841002" lon="9.225470488456036"><ele>229.0</ele><time>2026-04-04T11:17:07.999Z</time></trkpt><trkpt lat="45.65716760976881" lon="9.225604878995043"><ele>229.0</ele><time>2026-04-04T11:17:08.999Z</time></trkpt><trkpt lat="45.65679753791505" lon="9.225730137603268"><ele>229.0</ele><time>2026-04-04T11:17:09.999Z</time></trkpt><trkpt lat="45.65643771584396" lon="9.225849513313225"><ele>229.0</ele><time>2026-04-04T11:17:10.999Z</time></trkpt><trkpt lat="45.656078661810895" lon="9.22593857501431"><ele>229.0</ele><time>2026-04-04T11:17:11.999Z</time></trkpt><trkpt lat="45.65571139864309" lon="9.225986168611389"><ele>229.0</ele><time>2026-04-04T11:17:12.999Z</time></trkpt><trkpt lat="45.655340737916596" lon="9.225995248658831"><ele>229.0</ele><time>2026-04-04T11:17:13.999Z</time></trkpt><trkpt lat="45.654963005637356" lon="9.225976096182679"><ele>227.5</ele><time>2026-04-04T11:17:14.999Z</time></trkpt><trkpt lat="45.65458813142482" lon="9.225947046079167"><ele>226.0</ele><time>2026-04-04T11:17:15.999Z</time></trkpt><trkpt lat="45.65421314274821" lon="9.225917367585138"><ele>226.0</ele><time>2026-04-04T11:17:16.999Z</time></trkpt><trkpt lat="45.65383930218365" lon="9.225891961195916"><ele>226.0</ele><time>2026-04-04T11:17:17.999Z</time></trkpt><trkpt lat="45.653466964110336" lon="9.22586906127203"><ele>225.5</ele><time>2026-04-04T11:17:18.999Z</time></trkpt><trkpt lat="45.6530952239074" lon="9.225849997043538"><ele>225.0</ele><time>2026-04-04T11:17:19.999Z</time></trkpt><trkpt lat="45.6527207744704" lon="9.225830240791076"><ele>224.0</ele><time>2026-04-04T11:17:20.999Z</time></trkpt><trkpt lat="45.65234807964036" lon="9.22581259614557"><ele>223.0</ele><time>2026-04-04T11:17:21.999Z</time></trkpt><trkpt lat="45.65198061173725" lon="9.225791459682764"><ele>224.0</ele><time>2026-04-04T11:17:22.999Z</time></trkpt><trkpt lat="45.65161067467693" lon="9.22577289835587"><ele>225.0</ele><time>2026-04-04T11:17:23.999Z</time></trkpt><trkpt lat="45.6512386985993" lon="9.225756003169531"><ele>224.5</ele><time>2026-04-04T11:17:24.999Z</time></trkpt><trkpt lat="45.65086953334729" lon="9.225738012502605"><ele>224.0</ele><time>2026-04-04T11:17:25.999Z</time></trkpt><trkpt lat="45.65050233651076" lon="9.225719919888446"><ele>222.5</ele><time>2026-04-04T11:17:26.999Z</time></trkpt><trkpt lat="45.65013983333889" lon="9.225700125021053"><ele>221.0</ele><time>2026-04-04T11:17:27.999Z</time></trkpt><trkpt lat="45.64978842784356" lon="9.225680754385479"><ele>221.0</ele><time>2026-04-04T11:17:28.999Z</time></trkpt><trkpt lat="45.64944202199318" lon="9.225663341136519"><ele>221.0</ele><time>2026-04-04T11:17:29.999Z</time></trkpt><trkpt lat="45.649102741792674" lon="9.22564733996489"><ele>221.0</ele><time>2026-04-04T11:17:31Z</time></trkpt><trkpt lat="45.64879516314263" lon="9.225633280049752"><ele>221.0</ele><time>2026-04-04T11:17:32Z</time></trkpt><trkpt lat="45.64849359398431" lon="9.22562127496985"><ele>220.5</ele><time>2026-04-04T11:17:33Z</time></trkpt><trkpt lat="45.64819595499637" lon="9.225604105655496"><ele>220.0</ele><time>2026-04-04T11:17:34Z</time></trkpt><trkpt lat="45.64788613043887" lon="9.225587380225223"><ele>221.0</ele><time>2026-04-04T11:17:35Z</time></trkpt><trkpt lat="45.64757441137727" lon="9.225571136021761"><ele>222.0</ele><time>2026-04-04T11:17:36Z</time></trkpt><trkpt lat="45.647267104113176" lon="9.225553024410527"><ele>222.5</ele><time>2026-04-04T11:17:37Z</time></trkpt><trkpt lat="45.64695292671263" lon="9.22553741749683"><ele>223.0</ele><time>2026-04-04T11:17:38Z</time></trkpt><trkpt lat="45.646630004007164" lon="9.225521906660571"><ele>223.0</ele><time>2026-04-04T11:17:39Z</time></trkpt><trkpt lat="45.64629520955967" lon="9.225505485685279"><ele>223.0</ele><time>2026-04-04T11:17:40Z</time></trkpt><trkpt lat="45.64594772177395" lon="9.22548243687229"><ele>221.5</ele><time>2026-04-04T11:17:41Z</time></trkpt><trkpt lat="45.645586088800464" lon="9.225442241464235"><ele>220.0</ele><time>2026-04-04T11:17:42Z</time></trkpt><trkpt lat="45.64521194377443" lon="9.225402631958671"><ele>219.5</ele><time>2026-04-04T11:17:43Z</time></trkpt><trkpt lat="45.64482956790444" lon="9.22537765914437"><ele>219.0</ele><time>2026-04-04T11:17:44Z</time></trkpt><trkpt lat="45.644449285052744" lon="9.225366878298916"><ele>219.0</ele><time>2026-04-04T11:17:45Z</time></trkpt><trkpt lat="45.644071319444485" lon="9.225363189942533"><ele>219.0</ele><time>2026-04-04T11:17:46Z</time></trkpt><trkpt lat="45.64369426302585" lon="9.225359818876228"><ele>219.0</ele><time>2026-04-04T11:17:47Z</time></trkpt><trkpt lat="45.64332549761021" lon="9.225348468408628"><ele>219.0</ele><time>2026-04-04T11:17:48Z</time></trkpt><trkpt lat="45.64296485878639" lon="9.225330515309782"><ele>218.0</ele><time>2026-04-04T11:17:49Z</time></trkpt><trkpt lat="45.64261396836147" lon="9.225311098479489"><ele>217.0</ele><time>2026-04-04T11:17:50Z</time></trkpt><trkpt lat="45.64227493341589" lon="9.225289518580542"><ele>217.0</ele><time>2026-04-04T11:17:51Z</time></trkpt><trkpt lat="45.641934859741724" lon="9.22527314686808"><ele>217.0</ele><time>2026-04-04T11:17:52Z</time></trkpt><trkpt lat="45.64159835057842" lon="9.22525619156447"><ele>217.0</ele><time>2026-04-04T11:17:53Z</time></trkpt><trkpt lat="45.641262775746405" lon="9.225242860146814"><ele>217.0</ele><time>2026-04-04T11:17:54Z</time></trkpt><trkpt lat="45.64092358988752" lon="9.225219692767697"><ele>216.5</ele><time>2026-04-04T11:17:55Z</time></trkpt><trkpt lat="45.64057465423379" lon="9.225185388238504"><ele>216.0</ele><time>2026-04-04T11:17:56Z</time></trkpt><trkpt lat="45.64022044812794" lon="9.225152148904996"><ele>216.0</ele><time>2026-04-04T11:17:57Z</time></trkpt><trkpt lat="45.63986425253409" lon="9.225128064158506"><ele>216.0</ele><time>2026-04-04T11:17:58Z</time></trkpt><trkpt lat="45.63950339495034" lon="9.225112171817681"><ele>215.5</ele><time>2026-04-04T11:17:59Z</time></trkpt><trkpt lat="45.6391442384288" lon="9.225115564324417"><ele>215.0</ele><time>2026-04-04T11:18:00Z</time></trkpt><trkpt lat="45.63878442322456" lon="9.225113449119334"><ele>213.5</ele><time>2026-04-04T11:18:01Z</time></trkpt><trkpt lat="45.63841857020777" lon="9.225098791681905"><ele>212.0</ele><time>2026-04-04T11:18:02Z</time></trkpt><trkpt lat="45.638055282173866" lon="9.225072495478345"><ele>211.0</ele><time>2026-04-04T11:18:03Z</time></trkpt><trkpt lat="45.63769997408035" lon="9.225050320981516"><ele>210.0</ele><time>2026-04-04T11:18:04Z</time></trkpt><trkpt lat="45.637346262636015" lon="9.225031371050235"><ele>210.0</ele><time>2026-04-04T11:18:05Z</time></trkpt><trkpt lat="45.63700081912858" lon="9.225016844725449"><ele>210.0</ele><time>2026-04-04T11:18:06Z</time></trkpt><trkpt lat="45.63666079774346" lon="9.225003205549525"><ele>210.0</ele><time>2026-04-04T11:18:07Z</time></trkpt><trkpt lat="45.6363158351632" lon="9.22498713503099"><ele>210.0</ele><time>2026-04-04T11:18:08Z</time></trkpt><trkpt lat="45.63595962355315" lon="9.224968959607759"><ele>210.5</ele><time>2026-04-04T11:18:09Z</time></trkpt><trkpt lat="45.6355961564095" lon="9.224949652200701"><ele>211.0</ele><time>2026-04-04T11:18:10Z</time></trkpt><trkpt lat="45.6352276763104" lon="9.224931038976232"><ele>210.0</ele><time>2026-04-04T11:18:11Z</time></trkpt><trkpt lat="45.634861631002245" lon="9.224917959805037"><ele>209.0</ele><time>2026-04-04T11:18:12Z</time></trkpt><trkpt lat="45.63445675386368" lon="9.224899021636128"><ele>208.5</ele><time>2026-04-04T11:18:13Z</time></trkpt><trkpt lat="45.63406158516202" lon="9.224875668825627"><ele>208.0</ele><time>2026-04-04T11:18:14Z</time></trkpt><trkpt lat="45.63366784005087" lon="9.22485309988913"><ele>207.5</ele><time>2026-04-04T11:18:15Z</time></trkpt><trkpt lat="45.63327840751604" lon="9.224833200587454"><ele>207.0</ele><time>2026-04-04T11:18:16Z</time></trkpt><trkpt lat="45.63291310887035" lon="9.22481518242298"><ele>205.5</ele><time>2026-04-04T11:18:17Z</time></trkpt><trkpt lat="45.63256553510374" lon="9.224801217996836"><ele>204.0</ele><time>2026-04-04T11:18:18Z</time></trkpt><trkpt lat="45.632218522575016" lon="9.224783773588381"><ele>206.0</ele><time>2026-04-04T11:18:19Z</time></trkpt><trkpt lat="45.63187164854796" lon="9.224761306731311"><ele>208.0</ele><time>2026-04-04T11:18:20Z</time></trkpt><trkpt lat="45.63153017917465" lon="9.224741023033628"><ele>208.0</ele><time>2026-04-04T11:18:21Z</time></trkpt><trkpt lat="45.631203019043646" lon="9.22472524733636"><ele>208.0</ele><time>2026-04-04T11:18:22Z</time></trkpt><trkpt lat="45.63088820353046" lon="9.224713426904856"><ele>206.5</ele><time>2026-04-04T11:18:23Z</time></trkpt><trkpt lat="45.63056375174924" lon="9.224698161579582"><ele>205.0</ele><time>2026-04-04T11:18:24Z</time></trkpt><trkpt lat="45.63021682573997" lon="9.22467795806282"><ele>204.0</ele><time>2026-04-04T11:18:25Z</time></trkpt><trkpt lat="45.629864556647824" lon="9.224657135764522"><ele>203.0</ele><time>2026-04-04T11:18:26Z</time></trkpt><trkpt lat="45.629517555835804" lon="9.22463869950298"><ele>203.0</ele><time>2026-04-04T11:18:27Z</time></trkpt><trkpt lat="45.62916707512298" lon="9.22462658865898"><ele>203.0</ele><time>2026-04-04T11:18:28Z</time></trkpt><trkpt lat="45.628813950299104" lon="9.224615368236948"><ele>204.0</ele><time>2026-04-04T11:18:29Z</time></trkpt><trkpt lat="45.62845422750033" lon="9.224594902698474"><ele>205.0</ele><time>2026-04-04T11:18:30Z</time></trkpt><trkpt lat="45.62808713141949" lon="9.224572098320504"><ele>204.5</ele><time>2026-04-04T11:18:31Z</time></trkpt><trkpt lat="45.62772326178773" lon="9.224557279304097"><ele>204.0</ele><time>2026-04-04T11:18:32Z</time></trkpt><trkpt lat="45.627321776571335" lon="9.224533597496313"><ele>202.0</ele><time>2026-04-04T11:18:33Z</time></trkpt><trkpt lat="45.62695548054172" lon="9.224516779330486"><ele>200.0</ele><time>2026-04-04T11:18:34Z</time></trkpt><trkpt lat="45.62657332223935" lon="9.224497514281067"><ele>200.0</ele><time>2026-04-04T11:18:35Z</time></trkpt><trkpt lat="45.62618912149501" lon="9.224477796117997"><ele>200.0</ele><time>2026-04-04T11:18:35.999Z</time></trkpt><trkpt lat="45.62579903419346" lon="9.224456002246018"><ele>200.0</ele><time>2026-04-04T11:18:36.999Z</time></trkpt><trkpt lat="45.62538725467" lon="9.22443685172187"><ele>200.0</ele><time>2026-04-04T11:18:37.999Z</time></trkpt><trkpt lat="45.62496458350011" lon="9.224411871100456"><ele>199.0</ele><time>2026-04-04T11:18:38.999Z</time></trkpt><trkpt lat="45.624534410280575" lon="9.224386820536276"><ele>198.0</ele><time>2026-04-04T11:18:39.999Z</time></trkpt><trkpt lat="45.624101567274636" lon="9.224360960827589"><ele>198.0</ele><time>2026-04-04T11:18:40.999Z</time></trkpt><trkpt lat="45.62367729156407" lon="9.224338172481337"><ele>198.0</ele><time>2026-04-04T11:18:41.999Z</time></trkpt><trkpt lat="45.623259539866915" lon="9.224316147139797"><ele>198.0</ele><time>2026-04-04T11:18:42.999Z</time></trkpt><trkpt lat="45.62284612713071" lon="9.224290160506646"><ele>198.0</ele><time>2026-04-04T11:18:43.999Z</time></trkpt><trkpt lat="45.62242218291222" lon="9.224267740178808"><ele>198.0</ele><time>2026-04-04T11:18:44.999Z</time></trkpt><trkpt lat="45.622000445164794" lon="9.224247128791653"><ele>198.0</ele><time>2026-04-04T11:18:45.999Z</time></trkpt><trkpt lat="45.621580982478825" lon="9.224232002423097"><ele>198.0</ele><time>2026-04-04T11:18:46.999Z</time></trkpt><trkpt lat="45.6211583029534" lon="9.224214905512648"><ele>198.0</ele><time>2026-04-04T11:18:47.999Z</time></trkpt><trkpt lat="45.62073636681799" lon="9.224194067017526"><ele>198.0</ele><time>2026-04-04T11:18:48.999Z</time></trkpt><trkpt lat="45.6203224280852" lon="9.224172623415894"><ele>198.0</ele><time>2026-04-04T11:18:49.999Z</time></trkpt><trkpt lat="45.61990794100394" lon="9.224136715237963"><ele>197.0</ele><time>2026-04-04T11:18:50.999Z</time></trkpt><trkpt lat="45.61949273354137" lon="9.224101205279386"><ele>196.0</ele><time>2026-04-04T11:18:51.999Z</time></trkpt><trkpt lat="45.61907452275297" lon="9.224063133482764"><ele>195.5</ele><time>2026-04-04T11:18:52.999Z</time></trkpt><trkpt lat="45.6186553868003" lon="9.22403407483724"><ele>195.0</ele><time>2026-04-04T11:18:53.999Z</time></trkpt><trkpt lat="45.61823626437647" lon="9.224013122750463"><ele>195.0</ele><time>2026-04-04T11:18:54.999Z</time></trkpt><trkpt lat="45.61781041773435" lon="9.2239929195744"><ele>195.0</ele><time>2026-04-04T11:18:55.999Z</time></trkpt><trkpt lat="45.617384336562786" lon="9.223970438162972"><ele>194.5</ele><time>2026-04-04T11:18:56.999Z</time></trkpt><trkpt lat="45.61695532982878" lon="9.223946162473407"><ele>194.0</ele><time>2026-04-04T11:18:57.999Z</time></trkpt><trkpt lat="45.61652988136258" lon="9.223923537138056"><ele>194.0</ele><time>2026-04-04T11:18:58.999Z</time></trkpt><trkpt lat="45.616104090388475" lon="9.22390293964312"><ele>194.0</ele><time>2026-04-04T11:18:59.999Z</time></trkpt><trkpt lat="45.61568411028401" lon="9.22387843534774"><ele>192.5</ele><time>2026-04-04T11:19:00.999Z</time></trkpt><trkpt lat="45.615265149258235" lon="9.22385572075928"><ele>191.0</ele><time>2026-04-04T11:19:01.999Z</time></trkpt><trkpt lat="45.61486802804459" lon="9.223840431595901"><ele>191.0</ele><time>2026-04-04T11:19:02.999Z</time></trkpt><trkpt lat="45.61448368672079" lon="9.22382373857179"><ele>191.0</ele><time>2026-04-04T11:19:03.999Z</time></trkpt><trkpt lat="45.61411294642152" lon="9.223803937842446"><ele>191.0</ele><time>2026-04-04T11:19:04.999Z</time></trkpt><trkpt lat="45.61374565305554" lon="9.22378161569177"><ele>191.0</ele><time>2026-04-04T11:19:05.999Z</time></trkpt><trkpt lat="45.61337682239993" lon="9.22375950304574"><ele>191.0</ele><time>2026-04-04T11:19:06.999Z</time></trkpt><trkpt lat="45.613017229136716" lon="9.223773339722053"><ele>191.0</ele><time>2026-04-04T11:19:07.999Z</time></trkpt><trkpt lat="45.61264054275731" lon="9.223775880762663"><ele>191.0</ele><time>2026-04-04T11:19:08.999Z</time></trkpt><trkpt lat="45.612278538752975" lon="9.223728613767193"><ele>191.0</ele><time>2026-04-04T11:19:09.999Z</time></trkpt><trkpt lat="45.61192061781451" lon="9.223705067268462"><ele>191.5</ele><time>2026-04-04T11:19:10.999Z</time></trkpt><trkpt lat="45.61156560505577" lon="9.223690172474821"><ele>192.0</ele><time>2026-04-04T11:19:11.999Z</time></trkpt><trkpt lat="45.61121011902469" lon="9.223668229671622"><ele>191.5</ele><time>2026-04-04T11:19:12.999Z</time></trkpt><trkpt lat="45.610847585430186" lon="9.223644767500323"><ele>191.0</ele><time>2026-04-04T11:19:13.999Z</time></trkpt><trkpt lat="45.61048933211533" lon="9.22362652469967"><ele>191.5</ele><time>2026-04-04T11:19:14.999Z</time></trkpt><trkpt lat="45.61015460787393" lon="9.223613031616772"><ele>192.0</ele><time>2026-04-04T11:19:15.999Z</time></trkpt><trkpt lat="45.609836111114774" lon="9.223608778102326"><ele>192.0</ele><time>2026-04-04T11:19:16.999Z</time></trkpt><trkpt lat="45.609519447242114" lon="9.223631130796349"><ele>192.0</ele><time>2026-04-04T11:19:17.999Z</time></trkpt><trkpt lat="45.609221305280855" lon="9.223706561295856"><ele>191.5</ele><time>2026-04-04T11:19:18.999Z</time></trkpt><trkpt lat="45.608927858098255" lon="9.223817568542444"><ele>191.0</ele><time>2026-04-04T11:19:19.999Z</time></trkpt><trkpt lat="45.608643473690194" lon="9.22396722091096"><ele>189.5</ele><time>2026-04-04T11:19:20.999Z</time></trkpt><trkpt lat="45.608368243985694" lon="9.224154376864604"><ele>188.0</ele><time>2026-04-04T11:19:21.999Z</time></trkpt><trkpt lat="45.60810807046607" lon="9.22439102490676"><ele>188.0</ele><time>2026-04-04T11:19:22.999Z</time></trkpt><trkpt lat="45.60785452155872" lon="9.224667040053413"><ele>188.0</ele><time>2026-04-04T11:19:23.999Z</time></trkpt><trkpt lat="45.60760199265581" lon="9.224979589249678"><ele>187.0</ele><time>2026-04-04T11:19:24.999Z</time></trkpt><trkpt lat="45.60734043581711" lon="9.225304054035231"><ele>186.0</ele><time>2026-04-04T11:19:25.999Z</time></trkpt><trkpt lat="45.607060156065536" lon="9.225625796805739"><ele>187.0</ele><time>2026-04-04T11:19:26.999Z</time></trkpt><trkpt lat="45.60676679307862" lon="9.225947204794833"><ele>188.0</ele><time>2026-04-04T11:19:27.999Z</time></trkpt><trkpt lat="45.60647360616413" lon="9.226270762816622"><ele>188.5</ele><time>2026-04-04T11:19:28.999Z</time></trkpt><trkpt lat="45.606176745797626" lon="9.226596104444857"><ele>189.0</ele><time>2026-04-04T11:19:29.999Z</time></trkpt><trkpt lat="45.60588067659926" lon="9.226919220703842"><ele>188.5</ele><time>2026-04-04T11:19:30.999Z</time></trkpt><trkpt lat="45.60560084749179" lon="9.227245095733625"><ele>188.0</ele><time>2026-04-04T11:19:31.999Z</time></trkpt><trkpt lat="45.605345715253456" lon="9.227535284945686"><ele>187.5</ele><time>2026-04-04T11:19:32.999Z</time></trkpt><trkpt lat="45.60510878407956" lon="9.227803629831246"><ele>187.0</ele><time>2026-04-04T11:19:33.999Z</time></trkpt><trkpt lat="45.604870931053185" lon="9.228066561462393"><ele>186.5</ele><time>2026-04-04T11:19:34.999Z</time></trkpt><trkpt lat="45.604630623185464" lon="9.22833373767846"><ele>186.0</ele><time>2026-04-04T11:19:35.999Z</time></trkpt><trkpt lat="45.60438870554743" lon="9.228605498671557"><ele>185.5</ele><time>2026-04-04T11:19:37Z</time></trkpt><trkpt lat="45.60415052000807" lon="9.228873256587343"><ele>185.0</ele><time>2026-04-04T11:19:38Z</time></trkpt><trkpt lat="45.60391091351602" lon="9.229142852593887"><ele>184.5</ele><time>2026-04-04T11:19:39Z</time></trkpt><trkpt lat="45.60365799108364" lon="9.229435555795629"><ele>184.0</ele><time>2026-04-04T11:19:40Z</time></trkpt><trkpt lat="45.6033874568024" lon="9.229736812171193"><ele>184.0</ele><time>2026-04-04T11:19:41Z</time></trkpt><trkpt lat="45.603114607143986" lon="9.230034978838324"><ele>184.0</ele><time>2026-04-04T11:19:42Z</time></trkpt><trkpt lat="45.602843920400076" lon="9.23032932141137"><ele>184.0</ele><time>2026-04-04T11:19:43Z</time></trkpt><trkpt lat="45.602577897151434" lon="9.230618581542956"><ele>184.0</ele><time>2026-04-04T11:19:44Z</time></trkpt><trkpt lat="45.602318141199405" lon="9.230904939729147"><ele>184.0</ele><time>2026-04-04T11:19:45Z</time></trkpt><trkpt lat="45.602061605658115" lon="9.231188201389903"><ele>184.0</ele><time>2026-04-04T11:19:46Z</time></trkpt><trkpt lat="45.60180641477662" lon="9.231470133317897"><ele>183.0</ele><time>2026-04-04T11:19:47Z</time></trkpt><trkpt lat="45.601562186792755" lon="9.231741635860143"><ele>182.0</ele><time>2026-04-04T11:19:48Z</time></trkpt><trkpt lat="45.60132584006522" lon="9.232001323461885"><ele>184.0</ele><time>2026-04-04T11:19:49Z</time></trkpt><trkpt lat="45.601100575937245" lon="9.23226510755729"><ele>186.0</ele><time>2026-04-04T11:19:50Z</time></trkpt><trkpt lat="45.6008863381321" lon="9.232555643535187"><ele>185.5</ele><time>2026-04-04T11:19:51Z</time></trkpt><trkpt lat="45.60070614683203" lon="9.232849989593667"><ele>185.0</ele><time>2026-04-04T11:19:52Z</time></trkpt><trkpt lat="45.600550843615274" lon="9.233141386789157"><ele>185.0</ele><time>2026-04-04T11:19:53Z</time></trkpt><trkpt lat="45.60040046007728" lon="9.23345139270671"><ele>185.0</ele><time>2026-04-04T11:19:54Z</time></trkpt><trkpt lat="45.600261919577555" lon="9.233772813772246"><ele>184.0</ele><time>2026-04-04T11:19:55Z</time></trkpt><trkpt lat="45.60012780225121" lon="9.23411145758106"><ele>183.0</ele><time>2026-04-04T11:19:56Z</time></trkpt><trkpt lat="45.60000927540689" lon="9.234466753930965"><ele>183.0</ele><time>2026-04-04T11:19:57Z</time></trkpt><trkpt lat="45.599906634780595" lon="9.234840030956395"><ele>183.0</ele><time>2026-04-04T11:19:58Z</time></trkpt><trkpt lat="45.59981063681265" lon="9.235226314897858"><ele>183.0</ele><time>2026-04-04T11:19:59Z</time></trkpt><trkpt lat="45.599708312005134" lon="9.23561701585693"><ele>183.0</ele><time>2026-04-04T11:20:00Z</time></trkpt><trkpt lat="45.59959907989757" lon="9.236011665797763"><ele>183.5</ele><time>2026-04-04T11:20:01Z</time></trkpt><trkpt lat="45.599495928903934" lon="9.236388635771092"><ele>184.0</ele><time>2026-04-04T11:20:02Z</time></trkpt><trkpt lat="45.59940082071579" lon="9.236739296525688"><ele>182.0</ele><time>2026-04-04T11:20:03Z</time></trkpt><trkpt lat="45.5993027443805" lon="9.237095612463595"><ele>180.0</ele><time>2026-04-04T11:20:04Z</time></trkpt><trkpt lat="45.59920126688204" lon="9.237464472295127"><ele>180.0</ele><time>2026-04-04T11:20:05Z</time></trkpt><trkpt lat="45.5990987826184" lon="9.237830779293498"><ele>180.0</ele><time>2026-04-04T11:20:06Z</time></trkpt><trkpt lat="45.59899292809215" lon="9.238198581748325"><ele>180.0</ele><time>2026-04-04T11:20:07Z</time></trkpt><trkpt lat="45.5988831649843" lon="9.238563460775325"><ele>180.0</ele><time>2026-04-04T11:20:08Z</time></trkpt><trkpt lat="45.59877095599021" lon="9.238924634711141"><ele>180.5</ele><time>2026-04-04T11:20:09Z</time></trkpt><trkpt lat="45.59865434242471" lon="9.239287274034284"><ele>181.0</ele><time>2026-04-04T11:20:10Z</time></trkpt><trkpt lat="45.598535157760935" lon="9.239653325962706"><ele>182.0</ele><time>2026-04-04T11:20:11Z</time></trkpt><trkpt lat="45.59841936840599" lon="9.240013029730402"><ele>183.0</ele><time>2026-04-04T11:20:12Z</time></trkpt><trkpt lat="45.598303952417766" lon="9.24037103046192"><ele>182.0</ele><time>2026-04-04T11:20:13Z</time></trkpt><trkpt lat="45.59818123119712" lon="9.240723545357426"><ele>181.0</ele><time>2026-04-04T11:20:14Z</time></trkpt><trkpt lat="45.598042452865705" lon="9.241064462706122"><ele>181.0</ele><time>2026-04-04T11:20:15Z</time></trkpt><trkpt lat="45.597878914506424" lon="9.241387057661575"><ele>181.0</ele><time>2026-04-04T11:20:16Z</time></trkpt><trkpt lat="45.597697271297044" lon="9.24168131479783"><ele>180.5</ele><time>2026-04-04T11:20:17Z</time></trkpt><trkpt lat="45.59750653951473" lon="9.241952028290097"><ele>180.0</ele><time>2026-04-04T11:20:18Z</time></trkpt><trkpt lat="45.597304846124246" lon="9.242198831821504"><ele>180.0</ele><time>2026-04-04T11:20:19Z</time></trkpt><trkpt lat="45.5970956293558" lon="9.242412315036226"><ele>180.0</ele><time>2026-04-04T11:20:20Z</time></trkpt><trkpt lat="45.59686263140886" lon="9.242629143230687"><ele>179.0</ele><time>2026-04-04T11:20:21Z</time></trkpt><trkpt lat="45.59662457596209" lon="9.242804463590051"><ele>178.0</ele><time>2026-04-04T11:20:22Z</time></trkpt><trkpt lat="45.59638190037431" lon="9.242952333862695"><ele>179.0</ele><time>2026-04-04T11:20:23Z</time></trkpt><trkpt lat="45.596134627953965" lon="9.243086732897615"><ele>180.0</ele><time>2026-04-04T11:20:24Z</time></trkpt><trkpt lat="45.59588306806354" lon="9.243222027101316"><ele>180.0</ele><time>2026-04-04T11:20:25Z</time></trkpt><trkpt lat="45.595636056150845" lon="9.243365125957517"><ele>180.0</ele><time>2026-04-04T11:20:26Z</time></trkpt><trkpt lat="45.59540284616288" lon="9.243495725176595"><ele>179.5</ele><time>2026-04-04T11:20:27Z</time></trkpt><trkpt lat="45.59516468535842" lon="9.24362858423043"><ele>179.0</ele><time>2026-04-04T11:20:28Z</time></trkpt><trkpt lat="45.594927165085714" lon="9.243767095530977"><ele>179.0</ele><time>2026-04-04T11:20:29Z</time></trkpt><trkpt lat="45.59468196477678" lon="9.243913381636428"><ele>179.0</ele><time>2026-04-04T11:20:30Z</time></trkpt><trkpt lat="45.59443652405203" lon="9.244058489784974"><ele>177.0</ele><time>2026-04-04T11:20:31Z</time></trkpt><trkpt lat="45.5941859222292" lon="9.244199352893805"><ele>175.0</ele><time>2026-04-04T11:20:32Z</time></trkpt><trkpt lat="45.593937534963516" lon="9.24433630180291"><ele>175.0</ele><time>2026-04-04T11:20:33Z</time></trkpt><trkpt lat="45.59367823724861" lon="9.244473283580453"><ele>175.0</ele><time>2026-04-04T11:20:34Z</time></trkpt><trkpt lat="45.5934101516871" lon="9.244614014101007"><ele>175.0</ele><time>2026-04-04T11:20:35Z</time></trkpt><trkpt lat="45.593144129063084" lon="9.244756562348043"><ele>175.0</ele><time>2026-04-04T11:20:36Z</time></trkpt><trkpt lat="45.59287804525234" lon="9.244907964444058"><ele>176.0</ele><time>2026-04-04T11:20:37Z</time></trkpt><trkpt lat="45.59261560861683" lon="9.245062196133373"><ele>177.0</ele><time>2026-04-04T11:20:37.999Z</time></trkpt><trkpt lat="45.59235276264488" lon="9.24520899624464"><ele>177.0</ele><time>2026-04-04T11:20:38.999Z</time></trkpt><trkpt lat="45.59209246600908" lon="9.245353334062884"><ele>177.0</ele><time>2026-04-04T11:20:39.999Z</time></trkpt><trkpt lat="45.591828311348245" lon="9.245493061231524"><ele>177.5</ele><time>2026-04-04T11:20:40.999Z</time></trkpt><trkpt lat="45.59156186433843" lon="9.245632521641005"><ele>178.0</ele><time>2026-04-04T11:20:41.999Z</time></trkpt><trkpt lat="45.5912942942504" lon="9.245776224993186"><ele>177.0</ele><time>2026-04-04T11:20:42.999Z</time></trkpt><trkpt lat="45.59103511394753" lon="9.245918035197546"><ele>176.0</ele><time>2026-04-04T11:20:43.999Z</time></trkpt><trkpt lat="45.590776988615396" lon="9.246067312700887"><ele>176.0</ele><time>2026-04-04T11:20:44.999Z</time></trkpt><trkpt lat="45.59051230416883" lon="9.246239565068604"><ele>176.0</ele><time>2026-04-04T11:20:45.999Z</time></trkpt><trkpt lat="45.59025489532706" lon="9.246417271160665"><ele>176.0</ele><time>2026-04-04T11:20:46.999Z</time></trkpt><trkpt lat="45.590008456501174" lon="9.246592122143866"><ele>176.0</ele><time>2026-04-04T11:20:47.999Z</time></trkpt><trkpt lat="45.589762807252534" lon="9.246775406520664"><ele>176.0</ele><time>2026-04-04T11:20:48.999Z</time></trkpt><trkpt lat="45.58952820191222" lon="9.246953565823276"><ele>176.0</ele><time>2026-04-04T11:20:49.999Z</time></trkpt><trkpt lat="45.58929673397486" lon="9.247132061898716"><ele>175.0</ele><time>2026-04-04T11:20:50.999Z</time></trkpt><trkpt lat="45.58907339884102" lon="9.247315046259315"><ele>174.0</ele><time>2026-04-04T11:20:51.999Z</time></trkpt><trkpt lat="45.588863850207815" lon="9.247489483181536"><ele>173.0</ele><time>2026-04-04T11:20:52.999Z</time></trkpt><trkpt lat="45.58866528155734" lon="9.247655951971787"><ele>172.0</ele><time>2026-04-04T11:20:53.999Z</time></trkpt><trkpt lat="45.58847789361886" lon="9.247808837686181"><ele>171.0</ele><time>2026-04-04T11:20:54.999Z</time></trkpt><trkpt lat="45.588299105543214" lon="9.247957958207182"><ele>171.0</ele><time>2026-04-04T11:20:55.999Z</time></trkpt><trkpt lat="45.58813028942733" lon="9.248099233731667"><ele>171.0</ele><time>2026-04-04T11:20:56.999Z</time></trkpt><trkpt lat="45.587968027755046" lon="9.248239141430702"><ele>171.0</ele><time>2026-04-04T11:20:57.999Z</time></trkpt><trkpt lat="45.5878012576966" lon="9.248380122405925"><ele>171.66666666666666</ele><time>2026-04-04T11:20:58.999Z</time></trkpt><trkpt lat="45.587619916918406" lon="9.248533149410397"><ele>172.33333333333331</ele><time>2026-04-04T11:20:59.999Z</time></trkpt><trkpt lat="45.58744692851292" lon="9.248677370001637"><ele>173.0</ele><time>2026-04-04T11:21:00.999Z</time></trkpt><trkpt lat="45.587271864550026" lon="9.24882097678292"><ele>173.0</ele><time>2026-04-04T11:21:01.999Z</time></trkpt><trkpt lat="45.587102477316826" lon="9.248955872004885"><ele>173.0</ele><time>2026-04-04T11:21:02.999Z</time></trkpt><trkpt lat="45.58694077583794" lon="9.249080291420546"><ele>173.0</ele><time>2026-04-04T11:21:03.999Z</time></trkpt><trkpt lat="45.586781884723315" lon="9.249201102519987"><ele>172.66666666666666</ele><time>2026-04-04T11:21:04.999Z</time></trkpt><trkpt lat="45.586616738736254" lon="9.249322130801975"><ele>172.33333333333334</ele><time>2026-04-04T11:21:05.999Z</time></trkpt><trkpt lat="45.58645282777034" lon="9.249446174624753"><ele>172.0</ele><time>2026-04-04T11:21:06.999Z</time></trkpt><trkpt lat="45.586289393943446" lon="9.249567015437869"><ele>171.66666666666669</ele><time>2026-04-04T11:21:07.999Z</time></trkpt><trkpt lat="45.586120960603104" lon="9.249685973981666"><ele>171.33333333333334</ele><time>2026-04-04T11:21:08.999Z</time></trkpt><trkpt lat="45.58595068335765" lon="9.249797814403568"><ele>171.0</ele><time>2026-04-04T11:21:09.999Z</time></trkpt><trkpt lat="45.5857845851424" lon="9.249905849721108"><ele>171.0</ele><time>2026-04-04T11:21:10.999Z</time></trkpt><trkpt lat="45.58563732465183" lon="9.250010725875784"><ele>171.0</ele><time>2026-04-04T11:21:11.999Z</time></trkpt><trkpt lat="45.58548780048099" lon="9.250108270672253"><ele>171.0</ele><time>2026-04-04T11:21:12.999Z</time></trkpt><trkpt lat="45.58533249793299" lon="9.250209464546742"><ele>170.33333333333334</ele><time>2026-04-04T11:21:13.999Z</time></trkpt><trkpt lat="45.585179213928335" lon="9.25030261541452"><ele>169.66666666666669</ele><time>2026-04-04T11:21:14.999Z</time></trkpt><trkpt lat="45.58503601651031" lon="9.250375308897187"><ele>169.0</ele><time>2026-04-04T11:21:15.999Z</time></trkpt><trkpt lat="45.58489938485232" lon="9.250434194962516"><ele>169.0</ele><time>2026-04-04T11:21:16.999Z</time></trkpt><trkpt lat="45.58478829788909" lon="9.250489517994838"><ele>169.0</ele><time>2026-04-04T11:21:17.999Z</time></trkpt><trkpt lat="45.58470686468581" lon="9.250557980690065"><ele>169.0</ele><time>2026-04-04T11:21:18.999Z</time></trkpt><trkpt lat="45.58465153817785" lon="9.250644296455642"><ele>169.0</ele><time>2026-04-04T11:21:19.999Z</time></trkpt><trkpt lat="45.584558874373364" lon="9.250753916757352"><ele>169.0</ele><time>2026-04-04T11:21:21.999Z</time></trkpt><trkpt lat="45.58448576087468" lon="9.250764583403331"><ele>168.79999999999998</ele><time>2026-04-04T11:21:22.999Z</time></trkpt><trkpt lat="45.584401417021176" lon="9.250758468967591"><ele>168.6</ele><time>2026-04-04T11:21:23.999Z</time></trkpt><trkpt lat="45.58430417881977" lon="9.250766970056768"><ele>168.4</ele><time>2026-04-04T11:21:24.999Z</time></trkpt><trkpt lat="45.58420458562068" lon="9.250814294521255"><ele>168.2</ele><time>2026-04-04T11:21:25.999Z</time></trkpt><trkpt lat="45.58410808458505" lon="9.25089612775449"><ele>168.0</ele><time>2026-04-04T11:21:26.999Z</time></trkpt><trkpt lat="45.584002494444256" lon="9.250980589353679"><ele>168.0</ele><time>2026-04-04T11:21:27.999Z</time></trkpt><trkpt lat="45.58387877470648" lon="9.251011726003945"><ele>168.0</ele><time>2026-04-04T11:21:28.999Z</time></trkpt><trkpt lat="45.583747602742605" lon="9.250992224005207"><ele>168.0</ele><time>2026-04-04T11:21:29.999Z</time></trkpt><trkpt lat="45.58362060916103" lon="9.250946877909392"><ele>168.0</ele><time>2026-04-04T11:21:30.999Z</time></trkpt><trkpt lat="45.58349038486943" lon="9.250900992985944"><ele>168.0</ele><time>2026-04-04T11:21:31.999Z</time></trkpt><trkpt lat="45.58336307659732" lon="9.25086174288985"><ele>168.0</ele><time>2026-04-04T11:21:32.999Z</time></trkpt><trkpt lat="45.58324079321876" lon="9.25082373966321"><ele>168.0</ele><time>2026-04-04T11:21:33.999Z</time></trkpt><trkpt lat="45.58314615709776" lon="9.250791139430122"><ele>168.0</ele><time>2026-04-04T11:21:34.999Z</time></trkpt><trkpt lat="45.58307877803758" lon="9.25074195584506"><ele>168.0</ele><time>2026-04-04T11:21:35.999Z</time></trkpt><trkpt lat="45.58309915076915" lon="9.25052820078316"><ele>168.0</ele><time>2026-04-04T11:21:37.999Z</time></trkpt><trkpt lat="45.58310865120083" lon="9.250389605854252"><ele>168.0</ele><time>2026-04-04T11:21:38.999Z</time></trkpt><trkpt lat="45.58300192279089" lon="9.250325468605764"><ele>168.0</ele><time>2026-04-04T11:21:39.999Z</time></trkpt><trkpt lat="45.5829156424786" lon="9.250295447033816"><ele>168.0</ele><time>2026-04-04T11:21:40.999Z</time></trkpt><trkpt lat="45.58281873310947" lon="9.250291862513178"><ele>168.0</ele><time>2026-04-04T11:21:41.999Z</time></trkpt><trkpt lat="45.58271353803026" lon="9.250291447120894"><ele>167.75</ele><time>2026-04-04T11:21:43Z</time></trkpt><trkpt lat="45.58260644814316" lon="9.250280262035263"><ele>167.5</ele><time>2026-04-04T11:21:44Z</time></trkpt><trkpt lat="45.5824937882689" lon="9.250287197045274"><ele>167.25</ele><time>2026-04-04T11:21:45Z</time></trkpt><trkpt lat="45.5823771568117" lon="9.250301253309722"><ele>167.0</ele><time>2026-04-04T11:21:46Z</time></trkpt><trkpt lat="45.58226479703441" lon="9.250252664873168"><ele>167.0</ele><time>2026-04-04T11:21:47Z</time></trkpt><trkpt lat="45.582154534965845" lon="9.250207674823502"><ele>167.0</ele><time>2026-04-04T11:21:48Z</time></trkpt><trkpt lat="45.582062524139346" lon="9.250184241465666"><ele>167.0</ele><time>2026-04-04T11:21:49Z</time></trkpt><trkpt lat="45.581998043387955" lon="9.250106022362765"><ele>167.0</ele><time>2026-04-04T11:21:50Z</time></trkpt><trkpt lat="45.58196998767616" lon="9.24998238610803"><ele>167.0</ele><time>2026-04-04T11:21:51Z</time></trkpt><trkpt lat="45.58199604912693" lon="9.249849016027934"><ele>167.0</ele><time>2026-04-04T11:21:52Z</time></trkpt><trkpt lat="45.58199544531149" lon="9.24970992907467"><ele>167.0</ele><time>2026-04-04T11:21:53Z</time></trkpt><trkpt lat="45.582009404279134" lon="9.24954830407176"><ele>167.0</ele><time>2026-04-04T11:21:54Z</time></trkpt><trkpt lat="45.58201620777111" lon="9.249390817090362"><ele>167.0</ele><time>2026-04-04T11:21:55Z</time></trkpt><trkpt lat="45.58202026366095" lon="9.249258731686028"><ele>167.0</ele><time>2026-04-04T11:21:56Z</time></trkpt><trkpt lat="45.582011253797624" lon="9.249151629392834"><ele>167.0</ele><time>2026-04-04T11:21:57Z</time></trkpt><trkpt lat="45.581988125178036" lon="9.249056961973684"><ele>167.0</ele><time>2026-04-04T11:21:58Z</time></trkpt><trkpt lat="45.58195657143794" lon="9.248960285533038"><ele>167.0</ele><time>2026-04-04T11:21:59Z</time></trkpt><trkpt lat="45.581932458636196" lon="9.24887028174024"><ele>167.0</ele><time>2026-04-04T11:22:00Z</time></trkpt><trkpt lat="45.58191063485413" lon="9.248779115475028"><ele>167.0</ele><time>2026-04-04T11:22:01Z</time></trkpt><trkpt lat="45.581885414312346" lon="9.248678347897947"><ele>167.0</ele><time>2026-04-04T11:22:02Z</time></trkpt><trkpt lat="45.58185215906547" lon="9.248555714731133"><ele>167.0</ele><time>2026-04-04T11:22:03Z</time></trkpt><trkpt lat="45.58182260630655" lon="9.248440315968502"><ele>167.14285714285714</ele><time>2026-04-04T11:22:04Z</time></trkpt><trkpt lat="45.58179480704682" lon="9.248346719671236"><ele>167.28571428571428</ele><time>2026-04-04T11:22:05Z</time></trkpt><trkpt lat="45.58175020036325" lon="9.248278910399197"><ele>167.42857142857144</ele><time>2026-04-04T11:22:07Z</time></trkpt><trkpt lat="45.58168211341793" lon="9.248347836253268"><ele>167.57142857142856</ele><time>2026-04-04T11:22:08Z</time></trkpt><trkpt lat="45.58161802435175" lon="9.248379308023237"><ele>167.71428571428572</ele><time>2026-04-04T11:22:09Z</time></trkpt><trkpt lat="45.58155078573947" lon="9.248421057798884"><ele>167.85714285714286</ele><time>2026-04-04T11:22:10Z</time></trkpt><trkpt lat="45.58148995249355" lon="9.24846269938364"><ele>168.0</ele><time>2026-04-04T11:22:11Z</time></trkpt><trkpt lat="45.58142735471635" lon="9.248499010738092"><ele>168.0</ele><time>2026-04-04T11:22:12Z</time></trkpt><trkpt lat="45.581333235610906" lon="9.24854992598721"><ele>168.0</ele><time>2026-04-04T11:22:14Z</time></trkpt><trkpt lat="45.581261617480784" lon="9.248588287856114"><ele>168.0</ele><time>2026-04-04T11:22:16Z</time></trkpt><trkpt lat="45.58120142239469" lon="9.248642734470721"><ele>168.0</ele><time>2026-04-04T11:22:21Z</time></trkpt><trkpt lat="45.58122847431794" lon="9.248805610328999"><ele>168.0</ele><time>2026-04-04T11:22:23Z</time></trkpt><trkpt lat="45.581275081292596" lon="9.248895078799986"><ele>168.0</ele><time>2026-04-04T11:22:24Z</time></trkpt><trkpt lat="45.58132209901142" lon="9.24906293169616"><ele>167.83333333333334</ele><time>2026-04-04T11:22:26Z</time></trkpt><trkpt lat="45.58134813219647" lon="9.249152054512729"><ele>167.66666666666666</ele><time>2026-04-04T11:22:27Z</time></trkpt><trkpt lat="45.581374858782354" lon="9.249239875731737"><ele>167.5</ele><time>2026-04-04T11:22:28Z</time></trkpt><trkpt lat="45.58139192944188" lon="9.249330783424158"><ele>167.33333333333331</ele><time>2026-04-04T11:22:29Z</time></trkpt><trkpt lat="45.58143338905125" lon="9.249489929341514"><ele>167.16666666666666</ele><time>2026-04-04T11:22:30.999Z</time></trkpt><trkpt lat="45.58147067071829" lon="9.249601419385401"><ele>167.0</ele><time>2026-04-04T11:22:32.999Z</time></trkpt><trkpt lat="45.58149459516561" lon="9.249700864275527"><ele>167.2</ele><time>2026-04-04T11:22:34.999Z</time></trkpt><trkpt lat="45.58152781826491" lon="9.24979835759507"><ele>167.39999999999998</ele><time>2026-04-04T11:22:37.999Z</time></trkpt><trkpt lat="45.58155552388205" lon="9.249917401817868"><ele>167.60000000000002</ele><time>2026-04-04T11:23:07.999Z</time></trkpt><trkpt lat="45.581611540324914" lon="9.250082883138127"><ele>167.8</ele><time>2026-04-04T11:23:09.999Z</time></trkpt><trkpt lat="45.58165299385234" lon="9.250189909506899"><ele>168.0</ele><time>2026-04-04T11:23:10.999Z</time></trkpt><trkpt lat="45.581702559153165" lon="9.250299674162816"><ele>168.0</ele><time>2026-04-04T11:23:11.999Z</time></trkpt><trkpt lat="45.58176217064019" lon="9.250429630463275"><ele>168.0</ele><time>2026-04-04T11:23:12.999Z</time></trkpt><trkpt lat="45.581820562990224" lon="9.250567899139435"><ele>168.0</ele><time>2026-04-04T11:23:13.999Z</time></trkpt><trkpt lat="45.58186698490241" lon="9.250758629097206"><ele>168.0</ele><time>2026-04-04T11:23:15.999Z</time></trkpt><trkpt lat="45.5819097575163" lon="9.250889785898263"><ele>168.2</ele><time>2026-04-04T11:23:16.999Z</time></trkpt><trkpt lat="45.58195730152485" lon="9.251021856399904"><ele>168.4</ele><time>2026-04-04T11:23:17.999Z</time></trkpt><trkpt lat="45.58199683716596" lon="9.251146164311857"><ele>168.6</ele><time>2026-04-04T11:23:18.999Z</time></trkpt><trkpt lat="45.58204170143254" lon="9.251271055993405"><ele>168.79999999999998</ele><time>2026-04-04T11:23:19.999Z</time></trkpt><trkpt lat="45.582079205078564" lon="9.251381397474388"><ele>169.0</ele><time>2026-04-04T11:23:20.999Z</time></trkpt><trkpt lat="45.58211429778318" lon="9.251487986449847"><ele>169.28571428571428</ele><time>2026-04-04T11:23:21.999Z</time></trkpt><trkpt lat="45.58212307096307" lon="9.251583807866815"><ele>169.57142857142856</ele><time>2026-04-04T11:23:22.999Z</time></trkpt><trkpt lat="45.58209989824391" lon="9.251682894805615"><ele>169.85714285714283</ele><time>2026-04-04T11:23:23.999Z</time></trkpt><trkpt lat="45.58206982498229" lon="9.251780630909684"><ele>170.14285714285714</ele><time>2026-04-04T11:23:24.999Z</time></trkpt><trkpt lat="45.582050507733875" lon="9.251876632884503"><ele>170.42857142857142</ele><time>2026-04-04T11:23:25.999Z</time></trkpt><trkpt lat="45.58207822697704" lon="9.251973378217201"><ele>170.7142857142857</ele><time>2026-04-04T11:23:26.999Z</time></trkpt><trkpt lat="45.58214708448043" lon="9.252038458321376"><ele>171.0</ele><time>2026-04-04T11:23:27.999Z</time></trkpt><trkpt lat="45.5822419804403" lon="9.25202564324743"><ele>171.0</ele><time>2026-04-04T11:23:28.999Z</time></trkpt><trkpt lat="45.58232277673349" lon="9.252093285504733"><ele>171.0</ele><time>2026-04-04T11:23:29.999Z</time></trkpt><trkpt lat="45.58240631836084" lon="9.252165919699726"><ele>171.0</ele><time>2026-04-04T11:23:30.999Z</time></trkpt><trkpt lat="45.58243356511646" lon="9.252301920784236"><ele>171.0</ele><time>2026-04-04T11:23:31.999Z</time></trkpt><trkpt lat="45.58247460481854" lon="9.252428887352657"><ele>171.0</ele><time>2026-04-04T11:23:32.999Z</time></trkpt><trkpt lat="45.5825268982531" lon="9.252569980123825"><ele>170.8</ele><time>2026-04-04T11:23:33.999Z</time></trkpt><trkpt lat="45.58257286085866" lon="9.252712251910834"><ele>170.60000000000002</ele><time>2026-04-04T11:23:34.999Z</time></trkpt><trkpt lat="45.582615555578144" lon="9.252840437195895"><ele>170.4</ele><time>2026-04-04T11:23:35.999Z</time></trkpt><trkpt lat="45.582651262440926" lon="9.252944136029942"><ele>170.2</ele><time>2026-04-04T11:23:36.999Z</time></trkpt><trkpt lat="45.582663422527226" lon="9.253062082175214"><ele>170.0</ele><time>2026-04-04T11:23:37.999Z</time></trkpt><trkpt lat="45.58268314520905" lon="9.253179425226913"><ele>169.33333333333331</ele><time>2026-04-04T11:23:38.999Z</time></trkpt><trkpt lat="45.58251031953972" lon="9.253337927508792"><ele>168.66666666666666</ele><time>2026-04-04T11:23:39.999Z</time></trkpt><trkpt lat="45.58242626624539" lon="9.253489954246875"><ele>168.0</ele><time>2026-04-04T11:23:40.999Z</time></trkpt><trkpt lat="45.58231278608314" lon="9.253643058796532"><ele>168.0</ele><time>2026-04-04T11:23:41.999Z</time></trkpt><trkpt lat="45.58219464269464" lon="9.253814889736702"><ele>168.0</ele><time>2026-04-04T11:23:42.999Z</time></trkpt><trkpt lat="45.58206930752195" lon="9.25399304877724"><ele>168.0</ele><time>2026-04-04T11:23:43.999Z</time></trkpt><trkpt lat="45.58193063692352" lon="9.254169129937587"><ele>169.0</ele><time>2026-04-04T11:23:44.999Z</time></trkpt><trkpt lat="45.58178004407308" lon="9.254331576247743"><ele>170.0</ele><time>2026-04-04T11:23:45.999Z</time></trkpt><trkpt lat="45.581624146203616" lon="9.254493355887591"><ele>171.0</ele><time>2026-04-04T11:23:46.999Z</time></trkpt><trkpt lat="45.58147663210462" lon="9.254646726891215"><ele>171.25</ele><time>2026-04-04T11:23:48Z</time></trkpt><trkpt lat="45.58134629974443" lon="9.254788523194822"><ele>171.5</ele><time>2026-04-04T11:23:49Z</time></trkpt><trkpt lat="45.5812264873305" lon="9.25490369830302"><ele>171.75</ele><time>2026-04-04T11:23:50Z</time></trkpt><trkpt lat="45.581126084060436" lon="9.255016948670258"><ele>172.0</ele><time>2026-04-04T11:23:51Z</time></trkpt><trkpt lat="45.581033960936864" lon="9.255106309328701"><ele>172.0</ele><time>2026-04-04T11:23:52Z</time></trkpt><trkpt lat="45.58096428398933" lon="9.255179139610378"><ele>172.0</ele><time>2026-04-04T11:23:53Z</time></trkpt><trkpt lat="45.58090782757301" lon="9.255220264512607"><ele>172.0</ele><time>2026-04-04T11:23:54Z</time></trkpt><trkpt lat="45.580952369165395" lon="9.25546703273776"><ele>172.0</ele><time>2026-04-04T11:23:56Z</time></trkpt><trkpt lat="45.58100932772498" lon="9.255605830729923"><ele>172.0</ele><time>2026-04-04T11:23:57Z</time></trkpt><trkpt lat="45.581055943927126" lon="9.255761734172099"><ele>172.5</ele><time>2026-04-04T11:23:58Z</time></trkpt><trkpt lat="45.58110664866702" lon="9.255930743020533"><ele>173.0</ele><time>2026-04-04T11:23:59Z</time></trkpt><trkpt lat="45.5811504147635" lon="9.25608303018253"><ele>173.5</ele><time>2026-04-04T11:24:00Z</time></trkpt><trkpt lat="45.581189329528854" lon="9.256225843296113"><ele>174.0</ele><time>2026-04-04T11:24:01Z</time></trkpt><trkpt lat="45.58123107348038" lon="9.256376021939417"><ele>173.0</ele><time>2026-04-04T11:24:02Z</time></trkpt><trkpt lat="45.581271972251955" lon="9.256533599636278"><ele>172.0</ele><time>2026-04-04T11:24:03Z</time></trkpt><trkpt lat="45.58131650303098" lon="9.2566959281055"><ele>171.0</ele><time>2026-04-04T11:24:04Z</time></trkpt><trkpt lat="45.58136188831433" lon="9.256863750598736"><ele>170.0</ele><time>2026-04-04T11:24:05Z</time></trkpt><trkpt lat="45.58140563576832" lon="9.257023917897422"><ele>170.0</ele><time>2026-04-04T11:24:06Z</time></trkpt><trkpt lat="45.581452951878425" lon="9.257198204386569"><ele>170.0</ele><time>2026-04-04T11:24:07Z</time></trkpt><trkpt lat="45.58150011635392" lon="9.25735418088463"><ele>170.0</ele><time>2026-04-04T11:24:08Z</time></trkpt><trkpt lat="45.58154675930805" lon="9.257519513501272"><ele>170.0</ele><time>2026-04-04T11:24:09Z</time></trkpt><trkpt lat="45.58159360236273" lon="9.257688288453261"><ele>170.25</ele><time>2026-04-04T11:24:10Z</time></trkpt><trkpt lat="45.581645380429016" lon="9.25787752352978"><ele>170.5</ele><time>2026-04-04T11:24:11Z</time></trkpt><trkpt lat="45.58169537102563" lon="9.258069534252096"><ele>170.75</ele><time>2026-04-04T11:24:12Z</time></trkpt><trkpt lat="45.581747761952265" lon="9.258266320687289"><ele>171.0</ele><time>2026-04-04T11:24:13Z</time></trkpt><trkpt lat="45.58180260934637" lon="9.258467363866533"><ele>170.33333333333334</ele><time>2026-04-04T11:24:14Z</time></trkpt><trkpt lat="45.58186323909849" lon="9.258681436778167"><ele>169.66666666666669</ele><time>2026-04-04T11:24:15Z</time></trkpt><trkpt lat="45.58191185096484" lon="9.258892526829726"><ele>169.0</ele><time>2026-04-04T11:24:16Z</time></trkpt><trkpt lat="45.581973324163826" lon="9.259104375308844"><ele>169.33333333333334</ele><time>2026-04-04T11:24:17Z</time></trkpt><trkpt lat="45.58205052369054" lon="9.259315219040541"><ele>169.66666666666666</ele><time>2026-04-04T11:24:18Z</time></trkpt><trkpt lat="45.58215104607019" lon="9.259521578063081"><ele>170.0</ele><time>2026-04-04T11:24:19Z</time></trkpt><trkpt lat="45.582256579296136" lon="9.259724652173409"><ele>169.66666666666666</ele><time>2026-04-04T11:24:20Z</time></trkpt><trkpt lat="45.58234293244009" lon="9.259943211758335"><ele>169.33333333333334</ele><time>2026-04-04T11:24:21Z</time></trkpt><trkpt lat="45.58238802790505" lon="9.260187519887298"><ele>169.0</ele><time>2026-04-04T11:24:22Z</time></trkpt><trkpt lat="45.58245500538375" lon="9.26042527289552"><ele>169.33333333333334</ele><time>2026-04-04T11:24:23Z</time></trkpt><trkpt lat="45.58252016714677" lon="9.260666707037258"><ele>169.66666666666666</ele><time>2026-04-04T11:24:24Z</time></trkpt><trkpt lat="45.58258489237391" lon="9.260905356229244"><ele>170.0</ele><time>2026-04-04T11:24:25Z</time></trkpt><trkpt lat="45.58266326673213" lon="9.261129661047963"><ele>170.0</ele><time>2026-04-04T11:24:26Z</time></trkpt><trkpt lat="45.582703071327416" lon="9.261355985829164"><ele>170.0</ele><time>2026-04-04T11:24:27Z</time></trkpt><trkpt lat="45.582748042080915" lon="9.261562419557926"><ele>170.0</ele><time>2026-04-04T11:24:28Z</time></trkpt><trkpt lat="45.58279816352877" lon="9.261808406006777"><ele>170.33333333333331</ele><time>2026-04-04T11:24:29Z</time></trkpt><trkpt lat="45.58284594650385" lon="9.262049797430505"><ele>170.66666666666666</ele><time>2026-04-04T11:24:30Z</time></trkpt><trkpt lat="45.582910205605366" lon="9.262291415998147"><ele>171.0</ele><time>2026-04-04T11:24:31Z</time></trkpt><trkpt lat="45.58294928294978" lon="9.262572994998978"><ele>171.0</ele><time>2026-04-04T11:24:32Z</time></trkpt><trkpt lat="45.58300030272092" lon="9.262845609002687"><ele>171.0</ele><time>2026-04-04T11:24:33Z</time></trkpt><trkpt lat="45.583053313992856" lon="9.263116520571073"><ele>171.0</ele><time>2026-04-04T11:24:34Z</time></trkpt><trkpt lat="45.58310740222419" lon="9.263382810660715"><ele>170.33333333333334</ele><time>2026-04-04T11:24:35Z</time></trkpt><trkpt lat="45.58316240289569" lon="9.26365124806833"><ele>169.66666666666669</ele><time>2026-04-04T11:24:36Z</time></trkpt><trkpt lat="45.58324833675169" lon="9.263921687439094"><ele>169.0</ele><time>2026-04-04T11:24:37Z</time></trkpt><trkpt lat="45.58330244950591" lon="9.264199588145686"><ele>169.0</ele><time>2026-04-04T11:24:38Z</time></trkpt><trkpt lat="45.58334176341358" lon="9.26445401164602"><ele>169.0</ele><time>2026-04-04T11:24:39Z</time></trkpt><trkpt lat="45.58337588007994" lon="9.264678481415192"><ele>169.0</ele><time>2026-04-04T11:24:40Z</time></trkpt><trkpt lat="45.583392939212295" lon="9.264870923658895"><ele>169.2</ele><time>2026-04-04T11:24:40.999Z</time></trkpt><trkpt lat="45.5834185555658" lon="9.264995153788618"><ele>169.39999999999998</ele><time>2026-04-04T11:24:41.999Z</time></trkpt><trkpt lat="45.58344482065816" lon="9.265092062895146"><ele>169.6</ele><time>2026-04-04T11:24:42.999Z</time></trkpt><trkpt lat="45.58330178100907" lon="9.265189095322183"><ele>169.8</ele><time>2026-04-04T11:24:44.999Z</time></trkpt><trkpt lat="45.58320511946758" lon="9.265266460858477"><ele>170.0</ele><time>2026-04-04T11:24:45.999Z</time></trkpt><trkpt lat="45.58309795424215" lon="9.265325167473815"><ele>170.0</ele><time>2026-04-04T11:24:46.999Z</time></trkpt><trkpt lat="45.582985700330674" lon="9.265391920310927"><ele>170.0</ele><time>2026-04-04T11:24:47.999Z</time></trkpt><trkpt lat="45.58287642732416" lon="9.26545960861363"><ele>170.0</ele><time>2026-04-04T11:24:48.999Z</time></trkpt><trkpt lat="45.5827812379789" lon="9.265517729419047"><ele>170.0</ele><time>2026-04-04T11:24:49.999Z</time></trkpt><trkpt lat="45.58270814731766" lon="9.265563531264164"><ele>170.0</ele><time>2026-04-04T11:24:50.999Z</time></trkpt><trkpt lat="45.582632088458084" lon="9.265598845714582"><ele>167.0</ele><time>2026-04-04T11:24:52.999Z</time></trkpt><trkpt lat="45.582653172922036" lon="9.265738712140887"><ele>167.0</ele><time>2026-04-04T11:24:53.999Z</time></trkpt><trkpt lat="45.582677385205365" lon="9.26583309590298"><ele>167.0</ele><time>2026-04-04T11:24:58.999Z</time></trkpt></trkseg></trk></gpx>